<?xml version='1.0' encoding='UTF-8'?><gpx version="1.1" creator="JPX - https://github.com/jenetics/jpx" xmlns="http://www.topografix.com/GPX/1/1"><trk><trkseg><trkpt lat="52.44975001420979" lon="13.119083871824493"><ele>51.99999999999999</ele><time>2026-04-03T10:54:59.997Z</time></trkpt><trkpt lat="52.44981508877992" lon="13.119184984667354"><ele>52.0</ele><time>2026-04-03T10:55:02.997Z</time></trkpt><trkpt lat="52.44987131265942" lon="13.11924940663334"><ele>52.0</ele><time>2026-04-03T10:55:04.997Z</time></trkpt><trkpt lat="52.449925730427395" lon="13.119308318681187"><ele>52.0</ele><time>2026-04-03T10:55:06.997Z</time></trkpt><trkpt lat="52.45002253835243" lon="13.119278560925025"><ele>51.99999999999999</ele><time>2026-04-03T10:55:09.997Z</time></trkpt><trkpt lat="52.45008352970699" lon="13.119186524636302"><ele>52.0</ele><time>2026-04-03T10:55:11.997Z</time></trkpt><trkpt lat="52.45012837131444" lon="13.119070850748805"><ele>52.0</ele><time>2026-04-03T10:55:13.997Z</time></trkpt><trkpt lat="52.45015928453825" lon="13.118968138424957"><ele>52.0</ele><time>2026-04-03T10:55:15.997Z</time></trkpt><trkpt lat="52.45019263678606" lon="13.118864987438398"><ele>52.0</ele><time>2026-04-03T10:55:17.997Z</time></trkpt><trkpt lat="52.45023463020778" lon="13.118757649010012"><ele>52.0</ele><time>2026-04-03T10:55:19.997Z</time></trkpt><trkpt lat="52.45027569533138" lon="13.118665350080947"><ele>52.0</ele><time>2026-04-03T10:55:21.997Z</time></trkpt><trkpt lat="52.45032364712355" lon="13.118578943333565"><ele>52.0</ele><time>2026-04-03T10:55:24.997Z</time></trkpt><trkpt lat="52.45039471941159" lon="13.118574434417775"><ele>52.0</ele><time>2026-04-03T10:55:27.996Z</time></trkpt><trkpt lat="52.45045479745634" lon="13.118711645936596"><ele>52.0</ele><time>2026-04-03T10:55:30.996Z</time></trkpt><trkpt lat="52.45043307999031" lon="13.118921023281644"><ele>52.0</ele><time>2026-04-03T10:55:32.996Z</time></trkpt><trkpt lat="52.45043048841703" lon="13.119044590145766"><ele>52.0</ele><time>2026-04-03T10:55:33.996Z</time></trkpt><trkpt lat="52.45043059060155" lon="13.119201842793764"><ele>52.0</ele><time>2026-04-03T10:55:34.996Z</time></trkpt><trkpt lat="52.450424205283106" lon="13.119353080100144"><ele>52.0</ele><time>2026-04-03T10:55:35.996Z</time></trkpt><trkpt lat="52.4504167386672" lon="13.119509310268391"><ele>51.99999999999999</ele><time>2026-04-03T10:55:36.996Z</time></trkpt><trkpt lat="52.45041231578622" lon="13.11964980463705"><ele>52.0</ele><time>2026-04-03T10:55:37.996Z</time></trkpt><trkpt lat="52.45040875363103" lon="13.119790550539546"><ele>52.0</ele><time>2026-04-03T10:55:38.998Z</time></trkpt><trkpt lat="52.450410132055936" lon="13.119931164828563"><ele>52.0</ele><time>2026-04-03T10:55:39.998Z</time></trkpt><trkpt lat="52.45040992511088" lon="13.120079831036989"><ele>51.99999999999999</ele><time>2026-04-03T10:55:40.998Z</time></trkpt><trkpt lat="52.45041008415879" lon="13.120230699670275"><ele>52.0</ele><time>2026-04-03T10:55:41.998Z</time></trkpt><trkpt lat="52.450404679621855" lon="13.120386112149998"><ele>52.0</ele><time>2026-04-03T10:55:42.998Z</time></trkpt><trkpt lat="52.45039842743009" lon="13.120538999484994"><ele>52.0</ele><time>2026-04-03T10:55:43.999Z</time></trkpt><trkpt lat="52.45039579127689" lon="13.120694275094817"><ele>52.0</ele><time>2026-04-03T10:55:44.999Z</time></trkpt><trkpt lat="52.450408083197566" lon="13.120849163572593"><ele>52.0</ele><time>2026-04-03T10:55:45.999Z</time></trkpt><trkpt lat="52.450419349030774" lon="13.12101459623148"><ele>52.0</ele><time>2026-04-03T10:55:46.999Z</time></trkpt><trkpt lat="52.450431478703486" lon="13.121155444976583"><ele>51.6</ele><time>2026-04-03T10:55:47.999Z</time></trkpt><trkpt lat="52.45044483700426" lon="13.121295745402026"><ele>51.2</ele><time>2026-04-03T10:55:48.999Z</time></trkpt><trkpt lat="52.45045544906356" lon="13.121430436952036"><ele>50.8</ele><time>2026-04-03T10:55:49.999Z</time></trkpt><trkpt lat="52.450462023156255" lon="13.121541402471877"><ele>50.4</ele><time>2026-04-03T10:55:50.999Z</time></trkpt><trkpt lat="52.45048124422347" lon="13.12171356078648"><ele>50.0</ele><time>2026-04-03T10:55:52.999Z</time></trkpt><trkpt lat="52.45064655045995" lon="13.121787581478982"><ele>50.00000000000001</ele><time>2026-04-03T10:55:54.999Z</time></trkpt><trkpt lat="52.4507276832834" lon="13.121780111461769"><ele>50.0</ele><time>2026-04-03T10:55:55.999Z</time></trkpt><trkpt lat="52.4508023148361" lon="13.121780925057788"><ele>50.0</ele><time>2026-04-03T10:55:56.999Z</time></trkpt><trkpt lat="52.45088018594972" lon="13.121789914724877"><ele>50.0</ele><time>2026-04-03T10:55:57.999Z</time></trkpt><trkpt lat="52.450954668467006" lon="13.121797048068256"><ele>50.00000000000001</ele><time>2026-04-03T10:55:58.999Z</time></trkpt><trkpt lat="52.45103219040038" lon="13.121808360493933"><ele>50.0</ele><time>2026-04-03T10:55:59.999Z</time></trkpt><trkpt lat="52.451096107010905" lon="13.121815168151448"><ele>50.0</ele><time>2026-04-03T10:56:00.999Z</time></trkpt><trkpt lat="52.451206741416996" lon="13.12183618104481"><ele>50.0</ele><time>2026-04-03T10:56:02.999Z</time></trkpt><trkpt lat="52.45132707263209" lon="13.121843133436666"><ele>50.0</ele><time>2026-04-03T10:56:04.999Z</time></trkpt><trkpt lat="52.45141667027964" lon="13.121869920054193"><ele>50.0</ele><time>2026-04-03T10:56:07.999Z</time></trkpt><trkpt lat="52.45144226203739" lon="13.122120217755269"><ele>50.00000000000001</ele><time>2026-04-03T10:56:17.999Z</time></trkpt><trkpt lat="52.451399225801396" lon="13.122242820383327"><ele>50.0</ele><time>2026-04-03T10:56:18.999Z</time></trkpt><trkpt lat="52.45135551983417" lon="13.122364125082106"><ele>50.0</ele><time>2026-04-03T10:56:19.999Z</time></trkpt><trkpt lat="52.4513218907134" lon="13.122489569993206"><ele>50.0</ele><time>2026-04-03T10:56:20.999Z</time></trkpt><trkpt lat="52.451290935255855" lon="13.12261506491241"><ele>50.00000000000001</ele><time>2026-04-03T10:56:21.999Z</time></trkpt><trkpt lat="52.451255868586905" lon="13.122747014289798"><ele>50.0</ele><time>2026-04-03T10:56:22.999Z</time></trkpt><trkpt lat="52.45122010761168" lon="13.12287449075501"><ele>50.0</ele><time>2026-04-03T10:56:23.999Z</time></trkpt><trkpt lat="52.451182190994565" lon="13.122998804218023"><ele>50.0</ele><time>2026-04-03T10:56:24.999Z</time></trkpt><trkpt lat="52.45115057318111" lon="13.12313418884999"><ele>50.0</ele><time>2026-04-03T10:56:25.999Z</time></trkpt><trkpt lat="52.4511127516059" lon="13.123272854348661"><ele>50.0</ele><time>2026-04-03T10:56:26.999Z</time></trkpt><trkpt lat="52.451077272095525" lon="13.123413663806508"><ele>50.0</ele><time>2026-04-03T10:56:27.999Z</time></trkpt><trkpt lat="52.45104152670847" lon="13.12355246026435"><ele>50.0</ele><time>2026-04-03T10:56:28.999Z</time></trkpt><trkpt lat="52.45100100420209" lon="13.123693385452937"><ele>50.0</ele><time>2026-04-03T10:56:29.999Z</time></trkpt><trkpt lat="52.4509624255959" lon="13.123840584354578"><ele>50.0</ele><time>2026-04-03T10:56:30.999Z</time></trkpt><trkpt lat="52.450926234132595" lon="13.124000482927174"><ele>50.0</ele><time>2026-04-03T10:56:31.999Z</time></trkpt><trkpt lat="52.45089548483898" lon="13.124145525468"><ele>50.0</ele><time>2026-04-03T10:56:32.999Z</time></trkpt><trkpt lat="52.45085625504916" lon="13.124286921031667"><ele>50.0</ele><time>2026-04-03T10:56:33.999Z</time></trkpt><trkpt lat="52.45081681862006" lon="13.124430945389674"><ele>50.0</ele><time>2026-04-03T10:56:34.999Z</time></trkpt><trkpt lat="52.45078313028223" lon="13.124571497225988"><ele>50.0</ele><time>2026-04-03T10:56:35.999Z</time></trkpt><trkpt lat="52.45073949124007" lon="13.124711163688563"><ele>50.0</ele><time>2026-04-03T10:56:36.999Z</time></trkpt><trkpt lat="52.45070002235342" lon="13.124848010456589"><ele>50.0</ele><time>2026-04-03T10:56:37.999Z</time></trkpt><trkpt lat="52.450662781399195" lon="13.124989069353553"><ele>50.00000000000001</ele><time>2026-04-03T10:56:38.999Z</time></trkpt><trkpt lat="52.45062375447635" lon="13.125130381283302"><ele>50.0</ele><time>2026-04-03T10:56:39.999Z</time></trkpt><trkpt lat="52.45058987823736" lon="13.125268418051865"><ele>50.0</ele><time>2026-04-03T10:56:40.999Z</time></trkpt><trkpt lat="52.45055645932861" lon="13.125402440837044"><ele>50.0</ele><time>2026-04-03T10:56:41.999Z</time></trkpt><trkpt lat="52.450523577445594" lon="13.125530230426136"><ele>50.00000000000001</ele><time>2026-04-03T10:56:42.999Z</time></trkpt><trkpt lat="52.4504814629431" lon="13.125651009247468"><ele>50.0</ele><time>2026-04-03T10:56:43.999Z</time></trkpt><trkpt lat="52.450444915059606" lon="13.125781650605047"><ele>50.2</ele><time>2026-04-03T10:56:44.999Z</time></trkpt><trkpt lat="52.45040870377217" lon="13.125909682412715"><ele>50.4</ele><time>2026-04-03T10:56:45.999Z</time></trkpt><trkpt lat="52.45036936579524" lon="13.126047707019"><ele>50.599999999999994</ele><time>2026-04-03T10:56:46.999Z</time></trkpt><trkpt lat="52.45032473186933" lon="13.126190500126782"><ele>50.8</ele><time>2026-04-03T10:56:47.999Z</time></trkpt><trkpt lat="52.45028878889285" lon="13.126336888555826"><ele>51.0</ele><time>2026-04-03T10:56:48.999Z</time></trkpt><trkpt lat="52.45024804963357" lon="13.126489595197624"><ele>51.199999999999996</ele><time>2026-04-03T10:56:49.999Z</time></trkpt><trkpt lat="52.45020270696374" lon="13.126641894171938"><ele>51.4</ele><time>2026-04-03T10:56:50.999Z</time></trkpt><trkpt lat="52.45016194324738" lon="13.126802175814172"><ele>51.6</ele><time>2026-04-03T10:56:51.999Z</time></trkpt><trkpt lat="52.45012205866611" lon="13.126960684361281"><ele>51.8</ele><time>2026-04-03T10:56:52.999Z</time></trkpt><trkpt lat="52.450081904674626" lon="13.12712058210815"><ele>52.0</ele><time>2026-04-03T10:56:53.999Z</time></trkpt><trkpt lat="52.450029814145864" lon="13.127264115562907"><ele>51.8</ele><time>2026-04-03T10:56:54.999Z</time></trkpt><trkpt lat="52.45000043878199" lon="13.127423985976057"><ele>51.6</ele><time>2026-04-03T10:56:55.999Z</time></trkpt><trkpt lat="52.44996327265881" lon="13.127564984234263"><ele>51.4</ele><time>2026-04-03T10:56:56.999Z</time></trkpt><trkpt lat="52.44991444563311" lon="13.127704283045956"><ele>51.199999999999996</ele><time>2026-04-03T10:56:57.999Z</time></trkpt><trkpt lat="52.4498731517564" lon="13.127849032210912"><ele>51.0</ele><time>2026-04-03T10:56:58.999Z</time></trkpt><trkpt lat="52.44982120069849" lon="13.128000765130379"><ele>51.0</ele><time>2026-04-03T10:56:59.999Z</time></trkpt><trkpt lat="52.44977604315061" lon="13.128155929748667"><ele>51.0</ele><time>2026-04-03T10:57:00.999Z</time></trkpt><trkpt lat="52.4497358375377" lon="13.128310538365605"><ele>51.0</ele><time>2026-04-03T10:57:01.998Z</time></trkpt><trkpt lat="52.44969240727467" lon="13.12846042684344"><ele>51.0</ele><time>2026-04-03T10:57:02.998Z</time></trkpt><trkpt lat="52.449651902156326" lon="13.128607720817142"><ele>51.0</ele><time>2026-04-03T10:57:03.998Z</time></trkpt><trkpt lat="52.449615443933695" lon="13.128744984053174"><ele>50.8</ele><time>2026-04-03T10:57:04.998Z</time></trkpt><trkpt lat="52.44957642864445" lon="13.128888874554708"><ele>50.599999999999994</ele><time>2026-04-03T10:57:05.998Z</time></trkpt><trkpt lat="52.44953515425682" lon="13.129028042665993"><ele>50.4</ele><time>2026-04-03T10:57:06.998Z</time></trkpt><trkpt lat="52.44949632355677" lon="13.12916820521705"><ele>50.2</ele><time>2026-04-03T10:57:07.998Z</time></trkpt><trkpt lat="52.449461569001514" lon="13.129296396640264"><ele>50.0</ele><time>2026-04-03T10:57:08.998Z</time></trkpt><trkpt lat="52.44942865380852" lon="13.129423504974609"><ele>50.00000000000001</ele><time>2026-04-03T10:57:09.998Z</time></trkpt><trkpt lat="52.44939888628552" lon="13.129534873431332"><ele>50.0</ele><time>2026-04-03T10:57:10.998Z</time></trkpt><trkpt lat="52.44937224326728" lon="13.129630703756234"><ele>50.0</ele><time>2026-04-03T10:57:11.998Z</time></trkpt><trkpt lat="52.44932497077491" lon="13.12978835986474"><ele>50.0</ele><time>2026-04-03T10:57:13.998Z</time></trkpt><trkpt lat="52.44925646788851" lon="13.129861912510094"><ele>50.00000000000001</ele><time>2026-04-03T10:57:16.998Z</time></trkpt><trkpt lat="52.449188335364816" lon="13.129854018735935"><ele>50.0</ele><time>2026-04-03T10:57:18.998Z</time></trkpt><trkpt lat="52.44908667887986" lon="13.129738747871494"><ele>50.0</ele><time>2026-04-03T10:57:20.998Z</time></trkpt><trkpt lat="52.44902057051709" lon="13.129646387904202"><ele>50.0</ele><time>2026-04-03T10:57:21.998Z</time></trkpt><trkpt lat="52.44893976037384" lon="13.12954464247176"><ele>50.0</ele><time>2026-04-03T10:57:22.998Z</time></trkpt><trkpt lat="52.44886147779747" lon="13.129442746947678"><ele>50.0</ele><time>2026-04-03T10:57:23.998Z</time></trkpt><trkpt lat="52.44879200535778" lon="13.129343463348647"><ele>50.0</ele><time>2026-04-03T10:57:24.998Z</time></trkpt><trkpt lat="52.44871442077093" lon="13.129248262067868"><ele>49.8</ele><time>2026-04-03T10:57:25.998Z</time></trkpt><trkpt lat="52.448643792064345" lon="13.12915415046575"><ele>49.6</ele><time>2026-04-03T10:57:26.998Z</time></trkpt><trkpt lat="52.448561751606604" lon="13.12906166011855"><ele>49.400000000000006</ele><time>2026-04-03T10:57:27.998Z</time></trkpt><trkpt lat="52.44848200330629" lon="13.12896534243189"><ele>49.2</ele><time>2026-04-03T10:57:28.998Z</time></trkpt><trkpt lat="52.44840505536325" lon="13.128859682813601"><ele>49.0</ele><time>2026-04-03T10:57:29.998Z</time></trkpt><trkpt lat="52.44832239579615" lon="13.128756969723565"><ele>49.0</ele><time>2026-04-03T10:57:30.998Z</time></trkpt><trkpt lat="52.448240707332296" lon="13.128651057613402"><ele>49.0</ele><time>2026-04-03T10:57:31.998Z</time></trkpt><trkpt lat="52.44816234791311" lon="13.128551156443352"><ele>49.0</ele><time>2026-04-03T10:57:32.998Z</time></trkpt><trkpt lat="52.448080175923636" lon="13.12845274838786"><ele>49.0</ele><time>2026-04-03T10:57:33.998Z</time></trkpt><trkpt lat="52.44800662635661" lon="13.128350196955632"><ele>49.0</ele><time>2026-04-03T10:57:34.998Z</time></trkpt><trkpt lat="52.447933459105286" lon="13.12824701251601"><ele>49.0</ele><time>2026-04-03T10:57:35.998Z</time></trkpt><trkpt lat="52.44785197792566" lon="13.128154360987944"><ele>49.0</ele><time>2026-04-03T10:57:36.998Z</time></trkpt><trkpt lat="52.447786591428" lon="13.128060729457408"><ele>49.0</ele><time>2026-04-03T10:57:37.998Z</time></trkpt><trkpt lat="52.447706275133385" lon="13.12796366135619"><ele>49.0</ele><time>2026-04-03T10:57:38.998Z</time></trkpt><trkpt lat="52.44761761499877" lon="13.127854056542503"><ele>49.0</ele><time>2026-04-03T10:57:39.998Z</time></trkpt><trkpt lat="52.447541504665836" lon="13.127746878453348"><ele>49.0</ele><time>2026-04-03T10:57:40.998Z</time></trkpt><trkpt lat="52.447457984874326" lon="13.127651770276492"><ele>49.0</ele><time>2026-04-03T10:57:41.998Z</time></trkpt><trkpt lat="52.4473834341864" lon="13.127545674266585"><ele>49.0</ele><time>2026-04-03T10:57:42.998Z</time></trkpt><trkpt lat="52.44730208070877" lon="13.127448967011684"><ele>49.0</ele><time>2026-04-03T10:57:43.998Z</time></trkpt><trkpt lat="52.44721932230183" lon="13.127342744576488"><ele>49.0</ele><time>2026-04-03T10:57:45Z</time></trkpt><trkpt lat="52.44713711258272" lon="13.127249996797433"><ele>49.2</ele><time>2026-04-03T10:57:46Z</time></trkpt><trkpt lat="52.44705234953843" lon="13.127162702141655"><ele>49.400000000000006</ele><time>2026-04-03T10:57:47Z</time></trkpt><trkpt lat="52.44697029114636" lon="13.127075501616766"><ele>49.6</ele><time>2026-04-03T10:57:48Z</time></trkpt><trkpt lat="52.44688019802288" lon="13.126992105046263"><ele>49.8</ele><time>2026-04-03T10:57:49Z</time></trkpt><trkpt lat="52.446789435853034" lon="13.126908391722372"><ele>50.0</ele><time>2026-04-03T10:57:50Z</time></trkpt><trkpt lat="52.44670747702841" lon="13.126784986357896"><ele>50.0</ele><time>2026-04-03T10:57:51Z</time></trkpt><trkpt lat="52.4466154990893" lon="13.126702585280782"><ele>50.0</ele><time>2026-04-03T10:57:52Z</time></trkpt><trkpt lat="52.446517045153676" lon="13.12661438261191"><ele>50.0</ele><time>2026-04-03T10:57:53Z</time></trkpt><trkpt lat="52.44642074600952" lon="13.12652172171373"><ele>50.0</ele><time>2026-04-03T10:57:54Z</time></trkpt><trkpt lat="52.44632319851056" lon="13.126428348211787"><ele>50.0</ele><time>2026-04-03T10:57:55Z</time></trkpt><trkpt lat="52.44621990842765" lon="13.126377356725397"><ele>50.4</ele><time>2026-04-03T10:57:56Z</time></trkpt><trkpt lat="52.44612673724127" lon="13.126301821447838"><ele>50.8</ele><time>2026-04-03T10:57:57Z</time></trkpt><trkpt lat="52.4460256700449" lon="13.126240375460245"><ele>51.2</ele><time>2026-04-03T10:57:58Z</time></trkpt><trkpt lat="52.4459207588159" lon="13.126183635177744"><ele>51.6</ele><time>2026-04-03T10:57:59Z</time></trkpt><trkpt lat="52.445815184743076" lon="13.12612691184133"><ele>52.0</ele><time>2026-04-03T10:58:00Z</time></trkpt><trkpt lat="52.445721026552356" lon="13.126074461953829"><ele>52.0</ele><time>2026-04-03T10:58:01Z</time></trkpt><trkpt lat="52.445630354839544" lon="13.126023308142459"><ele>52.0</ele><time>2026-04-03T10:58:02Z</time></trkpt><trkpt lat="52.44554144105819" lon="13.125966411232042"><ele>52.0</ele><time>2026-04-03T10:58:03Z</time></trkpt><trkpt lat="52.44545161342469" lon="13.125903882461566"><ele>52.0</ele><time>2026-04-03T10:58:04Z</time></trkpt><trkpt lat="52.44536521498172" lon="13.125828735485808"><ele>52.0</ele><time>2026-04-03T10:58:05Z</time></trkpt><trkpt lat="52.44527665723079" lon="13.125750448298696"><ele>51.8</ele><time>2026-04-03T10:58:06Z</time></trkpt><trkpt lat="52.44520014554511" lon="13.125679390652392"><ele>51.6</ele><time>2026-04-03T10:58:07Z</time></trkpt><trkpt lat="52.44512184795005" lon="13.125602954680668"><ele>51.4</ele><time>2026-04-03T10:58:08Z</time></trkpt><trkpt lat="52.445040093573176" lon="13.125520482738484"><ele>51.199999999999996</ele><time>2026-04-03T10:58:09Z</time></trkpt><trkpt lat="52.444957933573406" lon="13.125437349056725"><ele>51.0</ele><time>2026-04-03T10:58:10Z</time></trkpt><trkpt lat="52.44487379465221" lon="13.125356895753518"><ele>51.0</ele><time>2026-04-03T10:58:11Z</time></trkpt><trkpt lat="52.44478764744276" lon="13.125279115894093"><ele>51.0</ele><time>2026-04-03T10:58:12Z</time></trkpt><trkpt lat="52.44471289686711" lon="13.125202817981744"><ele>51.0</ele><time>2026-04-03T10:58:13Z</time></trkpt><trkpt lat="52.44463867293647" lon="13.12511867811364"><ele>51.0</ele><time>2026-04-03T10:58:14Z</time></trkpt><trkpt lat="52.444555431530944" lon="13.125029775945348"><ele>51.0</ele><time>2026-04-03T10:58:15Z</time></trkpt><trkpt lat="52.444476025945335" lon="13.124944668738786"><ele>50.333333333333336</ele><time>2026-04-03T10:58:16Z</time></trkpt><trkpt lat="52.44439649922012" lon="13.124873064863134"><ele>49.666666666666664</ele><time>2026-04-03T10:58:17Z</time></trkpt><trkpt lat="52.444321585326854" lon="13.124801936519802"><ele>49.0</ele><time>2026-04-03T10:58:18Z</time></trkpt><trkpt lat="52.444251011972156" lon="13.124726395968114"><ele>48.33333333333333</ele><time>2026-04-03T10:58:18.999Z</time></trkpt><trkpt lat="52.444174399675454" lon="13.12465542348375"><ele>47.666666666666664</ele><time>2026-04-03T10:58:19.999Z</time></trkpt><trkpt lat="52.44410345036845" lon="13.124583595862331"><ele>47.0</ele><time>2026-04-03T10:58:20.999Z</time></trkpt><trkpt lat="52.44402521719682" lon="13.124518095880406"><ele>47.0</ele><time>2026-04-03T10:58:21.999Z</time></trkpt><trkpt lat="52.443947746087325" lon="13.124445175272209"><ele>47.0</ele><time>2026-04-03T10:58:22.999Z</time></trkpt><trkpt lat="52.44387556666654" lon="13.12437118377056"><ele>47.0</ele><time>2026-04-03T10:58:23.999Z</time></trkpt><trkpt lat="52.443803108205984" lon="13.124294833608287"><ele>47.0</ele><time>2026-04-03T10:58:24.999Z</time></trkpt><trkpt lat="52.44373580329009" lon="13.124210954449792"><ele>47.0</ele><time>2026-04-03T10:58:25.999Z</time></trkpt><trkpt lat="52.4436645273127" lon="13.124125049525176"><ele>47.0</ele><time>2026-04-03T10:58:26.999Z</time></trkpt><trkpt lat="52.44359268450721" lon="13.12402800086666"><ele>48.0</ele><time>2026-04-03T10:58:27.999Z</time></trkpt><trkpt lat="52.443540565549874" lon="13.123906226108472"><ele>49.0</ele><time>2026-04-03T10:58:28.999Z</time></trkpt><trkpt lat="52.443485330982625" lon="13.123795337348463"><ele>50.0</ele><time>2026-04-03T10:58:29.999Z</time></trkpt><trkpt lat="52.44343986195753" lon="13.123686067477383"><ele>51.0</ele><time>2026-04-03T10:58:30.999Z</time></trkpt><trkpt lat="52.443384499268944" lon="13.123582265626151"><ele>52.00000000000001</ele><time>2026-04-03T10:58:31.999Z</time></trkpt><trkpt lat="52.443341440320054" lon="13.123450159515231"><ele>53.0</ele><time>2026-04-03T10:58:32.999Z</time></trkpt><trkpt lat="52.44329981818343" lon="13.123299103956134"><ele>53.4</ele><time>2026-04-03T10:58:33.999Z</time></trkpt><trkpt lat="52.44325208292259" lon="13.123151016570686"><ele>53.8</ele><time>2026-04-03T10:58:34.999Z</time></trkpt><trkpt lat="52.44321024525221" lon="13.123005190378903"><ele>54.2</ele><time>2026-04-03T10:58:35.999Z</time></trkpt><trkpt lat="52.443158152109625" lon="13.122861342620967"><ele>54.6</ele><time>2026-04-03T10:58:36.999Z</time></trkpt><trkpt lat="52.44311545993164" lon="13.122708395545192"><ele>55.0</ele><time>2026-04-03T10:58:37.999Z</time></trkpt><trkpt lat="52.44307041981201" lon="13.122563176998465"><ele>55.0</ele><time>2026-04-03T10:58:38.999Z</time></trkpt><trkpt lat="52.44302722739543" lon="13.122423752916363"><ele>55.0</ele><time>2026-04-03T10:58:39.999Z</time></trkpt><trkpt lat="52.44298257417588" lon="13.122290642206247"><ele>55.0</ele><time>2026-04-03T10:58:40.999Z</time></trkpt><trkpt lat="52.44293842647817" lon="13.122153855912964"><ele>55.0</ele><time>2026-04-03T10:58:41.999Z</time></trkpt><trkpt lat="52.442895840560084" lon="13.122019710215952"><ele>55.0</ele><time>2026-04-03T10:58:42.999Z</time></trkpt><trkpt lat="52.44285997528798" lon="13.121884666356209"><ele>54.83333333333333</ele><time>2026-04-03T10:58:43.999Z</time></trkpt><trkpt lat="52.44282422832474" lon="13.121752481734468"><ele>54.666666666666664</ele><time>2026-04-03T10:58:44.999Z</time></trkpt><trkpt lat="52.4427856726479" lon="13.121619784262538"><ele>54.5</ele><time>2026-04-03T10:58:45.999Z</time></trkpt><trkpt lat="52.442748946378686" lon="13.121493773111352"><ele>54.33333333333333</ele><time>2026-04-03T10:58:46.999Z</time></trkpt><trkpt lat="52.44270618642149" lon="13.121349256284446"><ele>54.166666666666664</ele><time>2026-04-03T10:58:47.999Z</time></trkpt><trkpt lat="52.44269455177837" lon="13.121208827561679"><ele>54.0</ele><time>2026-04-03T10:58:48.999Z</time></trkpt><trkpt lat="52.44265232009314" lon="13.121056175546867"><ele>54.0</ele><time>2026-04-03T10:58:49.999Z</time></trkpt><trkpt lat="52.442633276661056" lon="13.120889251730517"><ele>54.00000000000001</ele><time>2026-04-03T10:58:50.999Z</time></trkpt><trkpt lat="52.44263339533536" lon="13.12072492788428"><ele>54.00000000000001</ele><time>2026-04-03T10:58:51.999Z</time></trkpt><trkpt lat="52.442653519063356" lon="13.120572988045618"><ele>54.0</ele><time>2026-04-03T10:58:52.999Z</time></trkpt><trkpt lat="52.442676821028556" lon="13.12043788264456"><ele>54.0</ele><time>2026-04-03T10:58:53.999Z</time></trkpt><trkpt lat="52.44270137714186" lon="13.120302985002068"><ele>54.0</ele><time>2026-04-03T10:58:54.999Z</time></trkpt><trkpt lat="52.442740137713685" lon="13.120169078608392"><ele>54.00000000000001</ele><time>2026-04-03T10:58:55.999Z</time></trkpt><trkpt lat="52.44279238631768" lon="13.120033053865939"><ele>54.00000000000001</ele><time>2026-04-03T10:58:56.999Z</time></trkpt><trkpt lat="52.44283588080964" lon="13.119882068616567"><ele>54.0</ele><time>2026-04-03T10:58:57.999Z</time></trkpt><trkpt lat="52.44287400440649" lon="13.119725421302132"><ele>54.0</ele><time>2026-04-03T10:58:58.999Z</time></trkpt><trkpt lat="52.442906245815585" lon="13.119567918843712"><ele>54.2</ele><time>2026-04-03T10:58:59.999Z</time></trkpt><trkpt lat="52.442935413674654" lon="13.119402430007092"><ele>54.400000000000006</ele><time>2026-04-03T10:59:00.999Z</time></trkpt><trkpt lat="52.44294281641994" lon="13.119262534594654"><ele>54.6</ele><time>2026-04-03T10:59:01.999Z</time></trkpt><trkpt lat="52.442934707670844" lon="13.119092966777178"><ele>54.8</ele><time>2026-04-03T10:59:02.999Z</time></trkpt><trkpt lat="52.442916040058684" lon="13.118932257900516"><ele>55.0</ele><time>2026-04-03T10:59:03.999Z</time></trkpt><trkpt lat="52.4429003191553" lon="13.11877883653302"><ele>55.0</ele><time>2026-04-03T10:59:04.999Z</time></trkpt><trkpt lat="52.44288143595907" lon="13.118621838327952"><ele>55.0</ele><time>2026-04-03T10:59:05.999Z</time></trkpt><trkpt lat="52.44286365821888" lon="13.11846106765551"><ele>55.0</ele><time>2026-04-03T10:59:06.999Z</time></trkpt><trkpt lat="52.44283156776961" lon="13.118299908718363"><ele>55.0</ele><time>2026-04-03T10:59:07.999Z</time></trkpt><trkpt lat="52.44280200526143" lon="13.118137225250097"><ele>55.0</ele><time>2026-04-03T10:59:08.999Z</time></trkpt><trkpt lat="52.44278104039151" lon="13.117970385338719"><ele>55.0</ele><time>2026-04-03T10:59:09.999Z</time></trkpt><trkpt lat="52.44273803212987" lon="13.117811505773991"><ele>55.0</ele><time>2026-04-03T10:59:10.999Z</time></trkpt><trkpt lat="52.4426988482927" lon="13.117655143483535"><ele>55.0</ele><time>2026-04-03T10:59:11.999Z</time></trkpt><trkpt lat="52.44266629689103" lon="13.117494252325276"><ele>55.0</ele><time>2026-04-03T10:59:12.999Z</time></trkpt><trkpt lat="52.442618701316334" lon="13.117342297222189"><ele>55.0</ele><time>2026-04-03T10:59:13.999Z</time></trkpt><trkpt lat="52.44257409295016" lon="13.117191353450428"><ele>56.2</ele><time>2026-04-03T10:59:14.999Z</time></trkpt><trkpt lat="52.44252810586971" lon="13.117025789347982"><ele>57.4</ele><time>2026-04-03T10:59:15.999Z</time></trkpt><trkpt lat="52.44247557699408" lon="13.116865428539908"><ele>58.599999999999994</ele><time>2026-04-03T10:59:16.999Z</time></trkpt><trkpt lat="52.44242779413979" lon="13.116704242630536"><ele>59.8</ele><time>2026-04-03T10:59:17.999Z</time></trkpt><trkpt lat="52.44238325462699" lon="13.116536384533013"><ele>61.0</ele><time>2026-04-03T10:59:18.998Z</time></trkpt><trkpt lat="52.442332843367154" lon="13.1163768210507"><ele>60.83333333333333</ele><time>2026-04-03T10:59:19.998Z</time></trkpt><trkpt lat="52.44229650389966" lon="13.11622474058731"><ele>60.666666666666664</ele><time>2026-04-03T10:59:20.998Z</time></trkpt><trkpt lat="52.44225074966661" lon="13.11608502583977"><ele>60.5</ele><time>2026-04-03T10:59:21.998Z</time></trkpt><trkpt lat="52.44222093784472" lon="13.11595867529639"><ele>60.33333333333333</ele><time>2026-04-03T10:59:22.998Z</time></trkpt><trkpt lat="52.4421896089697" lon="13.115844138835977"><ele>60.166666666666664</ele><time>2026-04-03T10:59:23.998Z</time></trkpt><trkpt lat="52.44215315802021" lon="13.115713202381903"><ele>60.0</ele><time>2026-04-03T10:59:24.998Z</time></trkpt><trkpt lat="52.44210425292139" lon="13.115586771301762"><ele>60.0</ele><time>2026-04-03T10:59:25.998Z</time></trkpt><trkpt lat="52.44206631557909" lon="13.115469331446572"><ele>60.0</ele><time>2026-04-03T10:59:26.998Z</time></trkpt><trkpt lat="52.44200747756725" lon="13.115371266903942"><ele>60.0</ele><time>2026-04-03T10:59:27.998Z</time></trkpt><trkpt lat="52.44192920657255" lon="13.115264123869624"><ele>60.0</ele><time>2026-04-03T10:59:28.998Z</time></trkpt><trkpt lat="52.44183072292677" lon="13.115183816516263"><ele>60.0</ele><time>2026-04-03T10:59:29.998Z</time></trkpt><trkpt lat="52.441742050722645" lon="13.115064726822546"><ele>60.0</ele><time>2026-04-03T10:59:30.998Z</time></trkpt><trkpt lat="52.441647623144654" lon="13.114987574404926"><ele>60.0</ele><time>2026-04-03T10:59:31.998Z</time></trkpt><trkpt lat="52.44155445724994" lon="13.114913277508343"><ele>60.0</ele><time>2026-04-03T10:59:32.998Z</time></trkpt><trkpt lat="52.44146139045146" lon="13.114840481074934"><ele>60.0</ele><time>2026-04-03T10:59:33.998Z</time></trkpt><trkpt lat="52.44136797832812" lon="13.114767414696288"><ele>60.0</ele><time>2026-04-03T10:59:34.998Z</time></trkpt><trkpt lat="52.4412773109812" lon="13.114699794191797"><ele>59.2</ele><time>2026-04-03T10:59:35.998Z</time></trkpt><trkpt lat="52.44118424101012" lon="13.114622032229965"><ele>58.4</ele><time>2026-04-03T10:59:36.998Z</time></trkpt><trkpt lat="52.44109328001264" lon="13.114560889893756"><ele>57.599999999999994</ele><time>2026-04-03T10:59:37.998Z</time></trkpt><trkpt lat="52.440996559982416" lon="13.114485570884604"><ele>56.8</ele><time>2026-04-03T10:59:38.998Z</time></trkpt><trkpt lat="52.440904890204855" lon="13.114403978670934"><ele>56.0</ele><time>2026-04-03T10:59:39.998Z</time></trkpt><trkpt lat="52.44081960928356" lon="13.114331955039932"><ele>56.0</ele><time>2026-04-03T10:59:40.998Z</time></trkpt><trkpt lat="52.44073060057904" lon="13.114293512973388"><ele>55.99999999999999</ele><time>2026-04-03T10:59:41.998Z</time></trkpt><trkpt lat="52.44062344077602" lon="13.114259427274842"><ele>55.99999999999999</ele><time>2026-04-03T10:59:42.998Z</time></trkpt><trkpt lat="52.44051253177723" lon="13.114237454531235"><ele>56.0</ele><time>2026-04-03T10:59:43.998Z</time></trkpt><trkpt lat="52.44040917892022" lon="13.114202641007592"><ele>56.0</ele><time>2026-04-03T10:59:44.998Z</time></trkpt><trkpt lat="52.440312976492706" lon="13.114191062210255"><ele>56.0</ele><time>2026-04-03T10:59:45.998Z</time></trkpt><trkpt lat="52.44021911013614" lon="13.114174483871718"><ele>55.99999999999999</ele><time>2026-04-03T10:59:46.998Z</time></trkpt><trkpt lat="52.44012988775302" lon="13.114122408869058"><ele>55.99999999999999</ele><time>2026-04-03T10:59:47.998Z</time></trkpt><trkpt lat="52.44004118101145" lon="13.114039758123397"><ele>56.0</ele><time>2026-04-03T10:59:48.998Z</time></trkpt><trkpt lat="52.43997162449708" lon="13.113905925029087"><ele>56.0</ele><time>2026-04-03T10:59:49.998Z</time></trkpt><trkpt lat="52.43991419856061" lon="13.1137330908544"><ele>56.0</ele><time>2026-04-03T10:59:51Z</time></trkpt><trkpt lat="52.43984727901102" lon="13.113549003332352"><ele>56.0</ele><time>2026-04-03T10:59:52Z</time></trkpt><trkpt lat="52.43976363050908" lon="13.11336831770942"><ele>56.0</ele><time>2026-04-03T10:59:53Z</time></trkpt><trkpt lat="52.439698437744795" lon="13.113186311390052"><ele>56.0</ele><time>2026-04-03T10:59:54Z</time></trkpt><trkpt lat="52.43964096246535" lon="13.11298978874988"><ele>55.0</ele><time>2026-04-03T10:59:55Z</time></trkpt><trkpt lat="52.43956214498337" lon="13.112806654339643"><ele>54.0</ele><time>2026-04-03T10:59:56Z</time></trkpt><trkpt lat="52.439495868797636" lon="13.11260609033149"><ele>53.0</ele><time>2026-04-03T10:59:57Z</time></trkpt><trkpt lat="52.43942591237904" lon="13.112412541576518"><ele>52.0</ele><time>2026-04-03T10:59:58Z</time></trkpt><trkpt lat="52.43935352875743" lon="13.112219710790164"><ele>52.0</ele><time>2026-04-03T10:59:59Z</time></trkpt><trkpt lat="52.43928084749058" lon="13.112033867049435"><ele>52.0</ele><time>2026-04-03T11:00:00Z</time></trkpt><trkpt lat="52.43921728809113" lon="13.111836745447683"><ele>52.0</ele><time>2026-04-03T11:00:01Z</time></trkpt><trkpt lat="52.439147493592536" lon="13.11163770199825"><ele>52.0</ele><time>2026-04-03T11:00:02Z</time></trkpt><trkpt lat="52.439073902191424" lon="13.111438353362885"><ele>52.0</ele><time>2026-04-03T11:00:03Z</time></trkpt><trkpt lat="52.4390090943886" lon="13.111227934929067"><ele>52.0</ele><time>2026-04-03T11:00:04Z</time></trkpt><trkpt lat="52.4389219335476" lon="13.11102869223748"><ele>52.0</ele><time>2026-04-03T11:00:05Z</time></trkpt><trkpt lat="52.43886248873588" lon="13.110814953386205"><ele>52.0</ele><time>2026-04-03T11:00:06Z</time></trkpt><trkpt lat="52.4387871037562" lon="13.110611407734055"><ele>50.33333333333333</ele><time>2026-04-03T11:00:07Z</time></trkpt><trkpt lat="52.438706912928275" lon="13.110406718256298"><ele>48.666666666666664</ele><time>2026-04-03T11:00:08Z</time></trkpt><trkpt lat="52.438606744349514" lon="13.110213814994832"><ele>47.0</ele><time>2026-04-03T11:00:09Z</time></trkpt><trkpt lat="52.43852253400863" lon="13.110000765265013"><ele>48.25</ele><time>2026-04-03T11:00:10Z</time></trkpt><trkpt lat="52.438425222555246" lon="13.10981730585962"><ele>49.5</ele><time>2026-04-03T11:00:11Z</time></trkpt><trkpt lat="52.43832451401309" lon="13.10963807255474"><ele>50.75</ele><time>2026-04-03T11:00:12Z</time></trkpt><trkpt lat="52.438224579459785" lon="13.10946286441171"><ele>52.0</ele><time>2026-04-03T11:00:13Z</time></trkpt><trkpt lat="52.43810485957044" lon="13.109314085068725"><ele>52.0</ele><time>2026-04-03T11:00:14Z</time></trkpt><trkpt lat="52.43800813215872" lon="13.109137534930976"><ele>52.0</ele><time>2026-04-03T11:00:15Z</time></trkpt><trkpt lat="52.43790254495569" lon="13.108980701972598"><ele>52.0</ele><time>2026-04-03T11:00:16Z</time></trkpt><trkpt lat="52.43779679014783" lon="13.10882155428099"><ele>52.0</ele><time>2026-04-03T11:00:17Z</time></trkpt><trkpt lat="52.43768528783791" lon="13.108652001736425"><ele>52.25</ele><time>2026-04-03T11:00:18Z</time></trkpt><trkpt lat="52.43757768869372" lon="13.108491635644928"><ele>52.5</ele><time>2026-04-03T11:00:19Z</time></trkpt><trkpt lat="52.437465507992265" lon="13.108336969620293"><ele>52.75</ele><time>2026-04-03T11:00:20Z</time></trkpt><trkpt lat="52.43735600438968" lon="13.108185215216185"><ele>53.0</ele><time>2026-04-03T11:00:21Z</time></trkpt><trkpt lat="52.43725092815371" lon="13.108030862307315"><ele>53.0</ele><time>2026-04-03T11:00:22Z</time></trkpt><trkpt lat="52.43714680480754" lon="13.1078749957787"><ele>53.0</ele><time>2026-04-03T11:00:23Z</time></trkpt><trkpt lat="52.43704192236564" lon="13.107714862362325"><ele>53.0</ele><time>2026-04-03T11:00:24Z</time></trkpt><trkpt lat="52.43693308073126" lon="13.107548370544038"><ele>53.0</ele><time>2026-04-03T11:00:25Z</time></trkpt><trkpt lat="52.43682096278915" lon="13.107382686470928"><ele>51.5</ele><time>2026-04-03T11:00:26Z</time></trkpt><trkpt lat="52.43671284325513" lon="13.107222911595693"><ele>50.0</ele><time>2026-04-03T11:00:27Z</time></trkpt><trkpt lat="52.436609311962705" lon="13.107069507153518"><ele>48.5</ele><time>2026-04-03T11:00:28Z</time></trkpt><trkpt lat="52.43650490840932" lon="13.106913959607828"><ele>47.0</ele><time>2026-04-03T11:00:29Z</time></trkpt><trkpt lat="52.436404239011814" lon="13.10676411611582"><ele>47.0</ele><time>2026-04-03T11:00:30Z</time></trkpt><trkpt lat="52.43630772137719" lon="13.106620920917763"><ele>47.0</ele><time>2026-04-03T11:00:31Z</time></trkpt><trkpt lat="52.436223134045704" lon="13.10649621052952"><ele>47.0</ele><time>2026-04-03T11:00:31.999Z</time></trkpt><trkpt lat="52.43613760178076" lon="13.106369813079452"><ele>47.0</ele><time>2026-04-03T11:00:32.999Z</time></trkpt><trkpt lat="52.43603826694783" lon="13.106249983342368"><ele>46.75</ele><time>2026-04-03T11:00:33.999Z</time></trkpt><trkpt lat="52.43594243239083" lon="13.106105062755395"><ele>46.5</ele><time>2026-04-03T11:00:34.999Z</time></trkpt><trkpt lat="52.43584844450395" lon="13.105965530275812"><ele>46.25</ele><time>2026-04-03T11:00:35.999Z</time></trkpt><trkpt lat="52.435761929988765" lon="13.105820968895545"><ele>46.0</ele><time>2026-04-03T11:00:36.999Z</time></trkpt><trkpt lat="52.43567085692481" lon="13.105696614161387"><ele>46.5</ele><time>2026-04-03T11:00:37.999Z</time></trkpt><trkpt lat="52.43558892095864" lon="13.105549664123975"><ele>47.0</ele><time>2026-04-03T11:00:38.999Z</time></trkpt><trkpt lat="52.43549983453642" lon="13.105431266381506"><ele>47.5</ele><time>2026-04-03T11:00:39.999Z</time></trkpt><trkpt lat="52.43541483132556" lon="13.105289470213272"><ele>48.0</ele><time>2026-04-03T11:00:40.999Z</time></trkpt><trkpt lat="52.43532196001215" lon="13.105164122948821"><ele>48.25</ele><time>2026-04-03T11:00:41.999Z</time></trkpt><trkpt lat="52.43523654634798" lon="13.105034363546109"><ele>48.5</ele><time>2026-04-03T11:00:42.999Z</time></trkpt><trkpt lat="52.435144844537014" lon="13.104909771718244"><ele>48.75</ele><time>2026-04-03T11:00:43.999Z</time></trkpt><trkpt lat="52.43506014085631" lon="13.10477635250415"><ele>49.0</ele><time>2026-04-03T11:00:44.999Z</time></trkpt><trkpt lat="52.43497145498053" lon="13.104647289070101"><ele>49.0</ele><time>2026-04-03T11:00:45.999Z</time></trkpt><trkpt lat="52.43488542403929" lon="13.104521603475698"><ele>49.0</ele><time>2026-04-03T11:00:46.999Z</time></trkpt><trkpt lat="52.43480141909324" lon="13.104379059210721"><ele>49.0</ele><time>2026-04-03T11:00:47.999Z</time></trkpt><trkpt lat="52.43470485992736" lon="13.104260863753815"><ele>49.0</ele><time>2026-04-03T11:00:48.999Z</time></trkpt><trkpt lat="52.43461471088649" lon="13.104129116601513"><ele>48.0</ele><time>2026-04-03T11:00:49.999Z</time></trkpt><trkpt lat="52.434541945614164" lon="13.104000319145678"><ele>47.0</ele><time>2026-04-03T11:00:50.999Z</time></trkpt><trkpt lat="52.43444689323666" lon="13.10386482694874"><ele>46.0</ele><time>2026-04-03T11:00:51.999Z</time></trkpt><trkpt lat="52.43437580896026" lon="13.103744033024025"><ele>45.0</ele><time>2026-04-03T11:00:52.999Z</time></trkpt><trkpt lat="52.4343157386736" lon="13.103632628358937"><ele>44.0</ele><time>2026-04-03T11:00:53.999Z</time></trkpt><trkpt lat="52.43421449261351" lon="13.10353137814435"><ele>44.0</ele><time>2026-04-03T11:00:54.999Z</time></trkpt><trkpt lat="52.43413210667744" lon="13.10343190920265"><ele>44.0</ele><time>2026-04-03T11:00:55.999Z</time></trkpt><trkpt lat="52.4340507124874" lon="13.103323635142536"><ele>44.0</ele><time>2026-04-03T11:00:56.999Z</time></trkpt><trkpt lat="52.43398231098816" lon="13.103211799319043"><ele>44.0</ele><time>2026-04-03T11:00:57.999Z</time></trkpt><trkpt lat="52.43390928219367" lon="13.103095988908427"><ele>44.0</ele><time>2026-04-03T11:00:58.999Z</time></trkpt><trkpt lat="52.43383390517217" lon="13.102983607915464"><ele>42.800000000000004</ele><time>2026-04-03T11:00:59.999Z</time></trkpt><trkpt lat="52.43375841329318" lon="13.10287658396558"><ele>41.6</ele><time>2026-04-03T11:01:00.999Z</time></trkpt><trkpt lat="52.43368406654284" lon="13.102772751235864"><ele>40.4</ele><time>2026-04-03T11:01:01.999Z</time></trkpt><trkpt lat="52.433609865563355" lon="13.102651177738645"><ele>39.2</ele><time>2026-04-03T11:01:02.999Z</time></trkpt><trkpt lat="52.4335366731383" lon="13.10253503375931"><ele>38.0</ele><time>2026-04-03T11:01:03.999Z</time></trkpt><trkpt lat="52.43345725711835" lon="13.102420038299767"><ele>38.8</ele><time>2026-04-03T11:01:04.999Z</time></trkpt><trkpt lat="52.433379678509354" lon="13.102302854353033"><ele>39.599999999999994</ele><time>2026-04-03T11:01:05.999Z</time></trkpt><trkpt lat="52.43329707532651" lon="13.102177488099485"><ele>40.400000000000006</ele><time>2026-04-03T11:01:06.999Z</time></trkpt><trkpt lat="52.43322009256602" lon="13.10207010930807"><ele>41.2</ele><time>2026-04-03T11:01:07.999Z</time></trkpt><trkpt lat="52.43314369299399" lon="13.101960775535037"><ele>42.0</ele><time>2026-04-03T11:01:08.999Z</time></trkpt><trkpt lat="52.433067915903" lon="13.101857910688802"><ele>42.0</ele><time>2026-04-03T11:01:09.999Z</time></trkpt><trkpt lat="52.432983925604695" lon="13.101764860687833"><ele>42.0</ele><time>2026-04-03T11:01:10.999Z</time></trkpt><trkpt lat="52.43289902035892" lon="13.10167094873763"><ele>42.0</ele><time>2026-04-03T11:01:11.999Z</time></trkpt><trkpt lat="52.432816002515224" lon="13.101572566503942"><ele>42.0</ele><time>2026-04-03T11:01:12.999Z</time></trkpt><trkpt lat="52.43273640512205" lon="13.101480642849111"><ele>42.0</ele><time>2026-04-03T11:01:13.999Z</time></trkpt><trkpt lat="52.43266442265488" lon="13.101365858150114"><ele>41.2</ele><time>2026-04-03T11:01:14.999Z</time></trkpt><trkpt lat="52.432582853807155" lon="13.101272031661514"><ele>40.400000000000006</ele><time>2026-04-03T11:01:15.999Z</time></trkpt><trkpt lat="52.432506357402566" lon="13.10118403987527"><ele>39.599999999999994</ele><time>2026-04-03T11:01:16.999Z</time></trkpt><trkpt lat="52.432422883151084" lon="13.101088021649263"><ele>38.8</ele><time>2026-04-03T11:01:17.999Z</time></trkpt><trkpt lat="52.43233939469347" lon="13.100991987089765"><ele>38.0</ele><time>2026-04-03T11:01:18.999Z</time></trkpt><trkpt lat="52.43226081860587" lon="13.10090160310592"><ele>38.0</ele><time>2026-04-03T11:01:19.999Z</time></trkpt><trkpt lat="52.432183169296984" lon="13.100812285128955"><ele>38.0</ele><time>2026-04-03T11:01:20.999Z</time></trkpt><trkpt lat="52.43209884844163" lon="13.1007152930957"><ele>38.0</ele><time>2026-04-03T11:01:21.999Z</time></trkpt><trkpt lat="52.43201474984933" lon="13.100618556710103"><ele>38.0</ele><time>2026-04-03T11:01:22.999Z</time></trkpt><trkpt lat="52.43194020291255" lon="13.100532094634714"><ele>38.0</ele><time>2026-04-03T11:01:23.999Z</time></trkpt><trkpt lat="52.431846674565975" lon="13.100451995059743"><ele>38.0</ele><time>2026-04-03T11:01:24.999Z</time></trkpt><trkpt lat="52.43176973913005" lon="13.100333872156561"><ele>38.0</ele><time>2026-04-03T11:01:25.999Z</time></trkpt><trkpt lat="52.43167853789289" lon="13.100248194034219"><ele>38.0</ele><time>2026-04-03T11:01:26.999Z</time></trkpt><trkpt lat="52.43159859412894" lon="13.10016981652058"><ele>38.0</ele><time>2026-04-03T11:01:27.999Z</time></trkpt><trkpt lat="52.43152885699425" lon="13.100070917710635"><ele>38.0</ele><time>2026-04-03T11:01:28.999Z</time></trkpt><trkpt lat="52.43144537169575" lon="13.099972898157493"><ele>38.0</ele><time>2026-04-03T11:01:29.998Z</time></trkpt><trkpt lat="52.4313684848258" lon="13.099887732679946"><ele>38.0</ele><time>2026-04-03T11:01:30.998Z</time></trkpt><trkpt lat="52.431293871490055" lon="13.099797870514667"><ele>38.0</ele><time>2026-04-03T11:01:31.998Z</time></trkpt><trkpt lat="52.431208866448664" lon="13.09972415792503"><ele>38.0</ele><time>2026-04-03T11:01:32.998Z</time></trkpt><trkpt lat="52.43112403431196" lon="13.099658414723827"><ele>38.0</ele><time>2026-04-03T11:01:33.998Z</time></trkpt><trkpt lat="52.43103715635674" lon="13.099620965034667"><ele>37.5</ele><time>2026-04-03T11:01:34.998Z</time></trkpt><trkpt lat="52.43095012473907" lon="13.099603451195996"><ele>37.0</ele><time>2026-04-03T11:01:35.998Z</time></trkpt><trkpt lat="52.430863250117454" lon="13.099599408493829"><ele>36.5</ele><time>2026-04-03T11:01:36.998Z</time></trkpt><trkpt lat="52.43077849912841" lon="13.099591700215852"><ele>36.0</ele><time>2026-04-03T11:01:37.998Z</time></trkpt><trkpt lat="52.4306983198482" lon="13.099578602531675"><ele>35.5</ele><time>2026-04-03T11:01:38.998Z</time></trkpt><trkpt lat="52.43061425586624" lon="13.099570968466153"><ele>35.0</ele><time>2026-04-03T11:01:39.998Z</time></trkpt><trkpt lat="52.43053158005547" lon="13.099556504343976"><ele>34.83333333333333</ele><time>2026-04-03T11:01:40.998Z</time></trkpt><trkpt lat="52.430453684006835" lon="13.099536369687275"><ele>34.666666666666664</ele><time>2026-04-03T11:01:41.998Z</time></trkpt><trkpt lat="52.43036889286546" lon="13.099525066144553"><ele>34.5</ele><time>2026-04-03T11:01:42.998Z</time></trkpt><trkpt lat="52.43028236480521" lon="13.099499582777668"><ele>34.333333333333336</ele><time>2026-04-03T11:01:43.998Z</time></trkpt><trkpt lat="52.43019018135942" lon="13.099491836398135"><ele>34.16666666666667</ele><time>2026-04-03T11:01:44.998Z</time></trkpt><trkpt lat="52.430102324632855" lon="13.099492820340284"><ele>34.0</ele><time>2026-04-03T11:01:45.998Z</time></trkpt><trkpt lat="52.430013970748455" lon="13.09948148988217"><ele>34.0</ele><time>2026-04-03T11:01:46.998Z</time></trkpt><trkpt lat="52.42993515187862" lon="13.099461758126875"><ele>34.0</ele><time>2026-04-03T11:01:47.998Z</time></trkpt><trkpt lat="52.42985262527767" lon="13.099445647160524"><ele>34.0</ele><time>2026-04-03T11:01:48.998Z</time></trkpt><trkpt lat="52.42976142706831" lon="13.099437804291336"><ele>34.0</ele><time>2026-04-03T11:01:49.998Z</time></trkpt><trkpt lat="52.429665508974374" lon="13.099419658198912"><ele>34.0</ele><time>2026-04-03T11:01:50.998Z</time></trkpt><trkpt lat="52.42957325358026" lon="13.099400265476675"><ele>34.0</ele><time>2026-04-03T11:01:51.998Z</time></trkpt><trkpt lat="52.42947932405856" lon="13.099397123108528"><ele>35.2</ele><time>2026-04-03T11:01:52.998Z</time></trkpt><trkpt lat="52.42939060854471" lon="13.099375730206923"><ele>36.4</ele><time>2026-04-03T11:01:53.998Z</time></trkpt><trkpt lat="52.42930131929884" lon="13.09934818281379"><ele>37.6</ele><time>2026-04-03T11:01:54.998Z</time></trkpt><trkpt lat="52.429216777323774" lon="13.099325770129937"><ele>38.8</ele><time>2026-04-03T11:01:55.998Z</time></trkpt><trkpt lat="52.429129965814504" lon="13.099271633577716"><ele>40.0</ele><time>2026-04-03T11:01:57Z</time></trkpt><trkpt lat="52.42905740313373" lon="13.099140843344427"><ele>40.2</ele><time>2026-04-03T11:01:58Z</time></trkpt><trkpt lat="52.42903622796735" lon="13.098945626723074"><ele>40.4</ele><time>2026-04-03T11:01:59Z</time></trkpt><trkpt lat="52.428995134061616" lon="13.098754852061509"><ele>40.599999999999994</ele><time>2026-04-03T11:02:00Z</time></trkpt><trkpt lat="52.428951792146385" lon="13.098605363174984"><ele>40.8</ele><time>2026-04-03T11:02:01Z</time></trkpt><trkpt lat="52.42893393973958" lon="13.098460369539369"><ele>41.0</ele><time>2026-04-03T11:02:02Z</time></trkpt><trkpt lat="52.42889266234298" lon="13.098332651313996"><ele>40.4</ele><time>2026-04-03T11:02:03Z</time></trkpt><trkpt lat="52.42886751897272" lon="13.09817370447868"><ele>39.8</ele><time>2026-04-03T11:02:04Z</time></trkpt><trkpt lat="52.42883583280322" lon="13.09802227149585"><ele>39.199999999999996</ele><time>2026-04-03T11:02:05Z</time></trkpt><trkpt lat="52.42880835104896" lon="13.097887062998717"><ele>38.599999999999994</ele><time>2026-04-03T11:02:06Z</time></trkpt><trkpt lat="52.42879182787012" lon="13.097758608253873"><ele>38.0</ele><time>2026-04-03T11:02:07Z</time></trkpt><trkpt lat="52.42876864312442" lon="13.097624400164621"><ele>38.0</ele><time>2026-04-03T11:02:08Z</time></trkpt><trkpt lat="52.428734513778444" lon="13.097472109306265"><ele>38.0</ele><time>2026-04-03T11:02:09Z</time></trkpt><trkpt lat="52.428699345420675" lon="13.097331924374528"><ele>38.0</ele><time>2026-04-03T11:02:10Z</time></trkpt><trkpt lat="52.42866848113574" lon="13.097182584792915"><ele>38.0</ele><time>2026-04-03T11:02:11Z</time></trkpt><trkpt lat="52.42864058746417" lon="13.097046422572156"><ele>38.0</ele><time>2026-04-03T11:02:12Z</time></trkpt><trkpt lat="52.428616796656264" lon="13.096911048550734"><ele>38.14285714285714</ele><time>2026-04-03T11:02:13Z</time></trkpt><trkpt lat="52.428587938313534" lon="13.096800714824733"><ele>38.28571428571429</ele><time>2026-04-03T11:02:14Z</time></trkpt><trkpt lat="52.42856196678109" lon="13.0966925649144"><ele>38.42857142857143</ele><time>2026-04-03T11:02:15Z</time></trkpt><trkpt lat="52.42855475967625" lon="13.09658138363546"><ele>38.57142857142857</ele><time>2026-04-03T11:02:16Z</time></trkpt><trkpt lat="52.42855441257067" lon="13.096477084264253"><ele>38.71428571428571</ele><time>2026-04-03T11:02:17Z</time></trkpt><trkpt lat="52.428552412229905" lon="13.096372748332886"><ele>38.85714285714286</ele><time>2026-04-03T11:02:18Z</time></trkpt><trkpt lat="52.428547500851536" lon="13.096268365779585"><ele>39.0</ele><time>2026-04-03T11:02:19Z</time></trkpt><trkpt lat="52.42854373431334" lon="13.096148252408705"><ele>39.166666666666664</ele><time>2026-04-03T11:02:20Z</time></trkpt><trkpt lat="52.428539922730806" lon="13.096032124161285"><ele>39.333333333333336</ele><time>2026-04-03T11:02:21Z</time></trkpt><trkpt lat="52.42855442531295" lon="13.095906189356844"><ele>39.5</ele><time>2026-04-03T11:02:23Z</time></trkpt><trkpt lat="52.42854571413213" lon="13.095789119285369"><ele>39.66666666666667</ele><time>2026-04-03T11:02:24Z</time></trkpt><trkpt lat="52.42854801401368" lon="13.095609027689289"><ele>39.833333333333336</ele><time>2026-04-03T11:02:26Z</time></trkpt><trkpt lat="52.42854100469106" lon="13.095460891046658"><ele>40.0</ele><time>2026-04-03T11:02:28Z</time></trkpt><trkpt lat="52.42854367744198" lon="13.095314096789991"><ele>40.0</ele><time>2026-04-03T11:02:30Z</time></trkpt><trkpt lat="52.42854724630597" lon="13.095160712077076"><ele>40.0</ele><time>2026-04-03T11:02:32Z</time></trkpt><trkpt lat="52.42854131725009" lon="13.094952783789267"><ele>40.0</ele><time>2026-04-03T11:02:34Z</time></trkpt><trkpt lat="52.42854042903663" lon="13.09483568565549"><ele>40.0</ele><time>2026-04-03T11:02:35Z</time></trkpt><trkpt lat="52.42854156670665" lon="13.094717764665809"><ele>40.0</ele><time>2026-04-03T11:02:36Z</time></trkpt><trkpt lat="52.42854302328404" lon="13.094604722031054"><ele>40.0</ele><time>2026-04-03T11:02:37Z</time></trkpt><trkpt lat="52.42854477312323" lon="13.094487249441123"><ele>39.66666666666667</ele><time>2026-04-03T11:02:38Z</time></trkpt><trkpt lat="52.42854515349781" lon="13.094375549088417"><ele>39.333333333333336</ele><time>2026-04-03T11:02:39Z</time></trkpt><trkpt lat="52.42855909451064" lon="13.094169876861123"><ele>39.0</ele><time>2026-04-03T11:02:40.999Z</time></trkpt><trkpt lat="52.42856291044399" lon="13.094059513493193"><ele>38.666666666666664</ele><time>2026-04-03T11:02:41.999Z</time></trkpt><trkpt lat="52.42856675103435" lon="13.093948436909763"><ele>38.33333333333333</ele><time>2026-04-03T11:02:42.999Z</time></trkpt><trkpt lat="52.428570787230164" lon="13.09383170352005"><ele>38.0</ele><time>2026-04-03T11:02:43.999Z</time></trkpt><trkpt lat="52.42857430162774" lon="13.093722353811994"><ele>37.57142857142857</ele><time>2026-04-03T11:02:44.999Z</time></trkpt><trkpt lat="52.42857727696946" lon="13.093603856270596"><ele>37.142857142857146</ele><time>2026-04-03T11:02:45.999Z</time></trkpt><trkpt lat="52.428580228326375" lon="13.09348631392096"><ele>36.714285714285715</ele><time>2026-04-03T11:02:46.999Z</time></trkpt><trkpt lat="52.42856685042141" lon="13.093363742156734"><ele>36.285714285714285</ele><time>2026-04-03T11:02:47.999Z</time></trkpt><trkpt lat="52.428570819213554" lon="13.093240056112679"><ele>35.85714285714286</ele><time>2026-04-03T11:02:48.999Z</time></trkpt><trkpt lat="52.428577109643086" lon="13.093126200467848"><ele>35.42857142857143</ele><time>2026-04-03T11:02:49.999Z</time></trkpt><trkpt lat="52.4285821984039" lon="13.09300521935959"><ele>35.0</ele><time>2026-04-03T11:02:50.999Z</time></trkpt><trkpt lat="52.42859023678017" lon="13.092889300853914"><ele>34.857142857142854</ele><time>2026-04-03T11:02:51.999Z</time></trkpt><trkpt lat="52.42861020459936" lon="13.092773526380787"><ele>34.714285714285715</ele><time>2026-04-03T11:02:52.999Z</time></trkpt><trkpt lat="52.428605234069735" lon="13.092646590259092"><ele>34.57142857142857</ele><time>2026-04-03T11:02:53.999Z</time></trkpt><trkpt lat="52.42860826210115" lon="13.092524350275568"><ele>34.42857142857143</ele><time>2026-04-03T11:02:54.999Z</time></trkpt><trkpt lat="52.42860862522807" lon="13.092407504503049"><ele>34.285714285714285</ele><time>2026-04-03T11:02:55.999Z</time></trkpt><trkpt lat="52.42860977863309" lon="13.092295801591643"><ele>34.14285714285714</ele><time>2026-04-03T11:02:56.999Z</time></trkpt><trkpt lat="52.42860700900047" lon="13.092185434387053"><ele>34.0</ele><time>2026-04-03T11:02:57.999Z</time></trkpt><trkpt lat="52.428619389187965" lon="13.092074512330637"><ele>34.57142857142857</ele><time>2026-04-03T11:02:58.999Z</time></trkpt><trkpt lat="52.42861027552952" lon="13.091961360894606"><ele>35.14285714285714</ele><time>2026-04-03T11:02:59.999Z</time></trkpt><trkpt lat="52.4285953273831" lon="13.091852833161461"><ele>35.71428571428571</ele><time>2026-04-03T11:03:00.999Z</time></trkpt><trkpt lat="52.42856135474131" lon="13.09175085994937"><ele>36.285714285714285</ele><time>2026-04-03T11:03:01.999Z</time></trkpt><trkpt lat="52.4285349433304" lon="13.091646518713747"><ele>36.85714285714286</ele><time>2026-04-03T11:03:02.999Z</time></trkpt><trkpt lat="52.42850662942794" lon="13.091540273479207"><ele>37.42857142857142</ele><time>2026-04-03T11:03:03.999Z</time></trkpt><trkpt lat="52.42848309516055" lon="13.091429660213413"><ele>38.0</ele><time>2026-04-03T11:03:04.999Z</time></trkpt><trkpt lat="52.4284308926676" lon="13.091272721849531"><ele>38.0</ele><time>2026-04-03T11:03:06.999Z</time></trkpt><trkpt lat="52.42838919391476" lon="13.091149978041"><ele>38.0</ele><time>2026-04-03T11:03:08.999Z</time></trkpt><trkpt lat="52.42833571591414" lon="13.090996305663866"><ele>38.0</ele><time>2026-04-03T11:03:10.999Z</time></trkpt><trkpt lat="52.42828783541596" lon="13.090827948458575"><ele>38.0</ele><time>2026-04-03T11:03:12.999Z</time></trkpt><trkpt lat="52.42825252856493" lon="13.090669015948887"><ele>38.0</ele><time>2026-04-03T11:03:14.999Z</time></trkpt><trkpt lat="52.42824641526697" lon="13.090503449276637"><ele>38.599999999999994</ele><time>2026-04-03T11:03:16.999Z</time></trkpt><trkpt lat="52.428270392028125" lon="13.090362774422507"><ele>39.199999999999996</ele><time>2026-04-03T11:03:18.999Z</time></trkpt><trkpt lat="52.42828489206437" lon="13.090207679049877"><ele>39.8</ele><time>2026-04-03T11:03:20.999Z</time></trkpt><trkpt lat="52.42833081445883" lon="13.09001772799931"><ele>40.4</ele><time>2026-04-03T11:03:22.999Z</time></trkpt><trkpt lat="52.42835814843843" lon="13.089868652136017"><ele>41.0</ele><time>2026-04-03T11:03:23.999Z</time></trkpt><trkpt lat="52.42838839339393" lon="13.089703700317374"><ele>41.75</ele><time>2026-04-03T11:03:24.999Z</time></trkpt><trkpt lat="52.42841236010416" lon="13.089497688063375"><ele>42.5</ele><time>2026-04-03T11:03:25.999Z</time></trkpt><trkpt lat="52.42844924775593" lon="13.089308680782732"><ele>43.25</ele><time>2026-04-03T11:03:26.999Z</time></trkpt><trkpt lat="52.428494403227" lon="13.089132758516126"><ele>44.0</ele><time>2026-04-03T11:03:27.999Z</time></trkpt><trkpt lat="52.42852915608713" lon="13.088975071029111"><ele>44.0</ele><time>2026-04-03T11:03:28.999Z</time></trkpt><trkpt lat="52.42855862183213" lon="13.088825452142192"><ele>44.0</ele><time>2026-04-03T11:03:29.999Z</time></trkpt><trkpt lat="52.42858114211944" lon="13.088686909903785"><ele>44.0</ele><time>2026-04-03T11:03:30.999Z</time></trkpt><trkpt lat="52.4286066553518" lon="13.088566313028094"><ele>44.0</ele><time>2026-04-03T11:03:31.999Z</time></trkpt><trkpt lat="52.42865414215501" lon="13.088452647007697"><ele>44.0</ele><time>2026-04-03T11:03:32.999Z</time></trkpt><trkpt lat="52.428704011042754" lon="13.08835746748997"><ele>44.0</ele><time>2026-04-03T11:03:33.999Z</time></trkpt><trkpt lat="52.428765888465875" lon="13.08827715880178"><ele>43.800000000000004</ele><time>2026-04-03T11:03:34.999Z</time></trkpt><trkpt lat="52.42882259747464" lon="13.088175992436677"><ele>43.6</ele><time>2026-04-03T11:03:35.998Z</time></trkpt><trkpt lat="52.428892119253334" lon="13.088058177508547"><ele>43.4</ele><time>2026-04-03T11:03:36.998Z</time></trkpt><trkpt lat="52.42896609312866" lon="13.087918934730581"><ele>43.2</ele><time>2026-04-03T11:03:37.998Z</time></trkpt><trkpt lat="52.42904669378286" lon="13.087779511120482"><ele>43.0</ele><time>2026-04-03T11:03:38.998Z</time></trkpt><trkpt lat="52.429129661786334" lon="13.087659557153128"><ele>43.0</ele><time>2026-04-03T11:03:39.998Z</time></trkpt><trkpt lat="52.42919901502672" lon="13.087529923512024"><ele>43.0</ele><time>2026-04-03T11:03:40.998Z</time></trkpt><trkpt lat="52.42929240488098" lon="13.087383577562845"><ele>43.0</ele><time>2026-04-03T11:03:41.998Z</time></trkpt><trkpt lat="52.4293895926105" lon="13.087220399482623"><ele>43.0</ele><time>2026-04-03T11:03:42.998Z</time></trkpt><trkpt lat="52.42948720465147" lon="13.087062057096391"><ele>44.0</ele><time>2026-04-03T11:03:43.998Z</time></trkpt><trkpt lat="52.42957709895917" lon="13.086914957369983"><ele>45.0</ele><time>2026-04-03T11:03:44.998Z</time></trkpt><trkpt lat="52.42966075232602" lon="13.086766069995818"><ele>46.0</ele><time>2026-04-03T11:03:45.998Z</time></trkpt><trkpt lat="52.429751135077176" lon="13.086625774570535"><ele>47.0</ele><time>2026-04-03T11:03:46.998Z</time></trkpt><trkpt lat="52.42983562142468" lon="13.08647992229478"><ele>47.75</ele><time>2026-04-03T11:03:47.998Z</time></trkpt><trkpt lat="52.42992077550589" lon="13.086332084683029"><ele>48.5</ele><time>2026-04-03T11:03:48.998Z</time></trkpt><trkpt lat="52.430014351036306" lon="13.086200168409341"><ele>49.25</ele><time>2026-04-03T11:03:49.998Z</time></trkpt><trkpt lat="52.43010812938319" lon="13.086074544761495"><ele>50.0</ele><time>2026-04-03T11:03:50.998Z</time></trkpt><trkpt lat="52.4302133210335" lon="13.08594541003831"><ele>50.0</ele><time>2026-04-03T11:03:51.998Z</time></trkpt><trkpt lat="52.43032407094356" lon="13.085827217807827"><ele>50.0</ele><time>2026-04-03T11:03:52.998Z</time></trkpt><trkpt lat="52.430438358731664" lon="13.085717118613395"><ele>50.0</ele><time>2026-04-03T11:03:53.998Z</time></trkpt><trkpt lat="52.4305497900606" lon="13.085611028519164"><ele>50.0</ele><time>2026-04-03T11:03:54.998Z</time></trkpt><trkpt lat="52.430665581875445" lon="13.085505953301755"><ele>50.0</ele><time>2026-04-03T11:03:55.998Z</time></trkpt><trkpt lat="52.4307784336761" lon="13.085393449345162"><ele>50.0</ele><time>2026-04-03T11:03:56.998Z</time></trkpt><trkpt lat="52.430890729531505" lon="13.085285968074928"><ele>50.0</ele><time>2026-04-03T11:03:57.998Z</time></trkpt><trkpt lat="52.43100719257402" lon="13.085180114955225"><ele>50.0</ele><time>2026-04-03T11:03:58.998Z</time></trkpt><trkpt lat="52.431122000052916" lon="13.085072951625799"><ele>50.0</ele><time>2026-04-03T11:03:59.998Z</time></trkpt><trkpt lat="52.43124539500887" lon="13.084962415569914"><ele>50.0</ele><time>2026-04-03T11:04:00.998Z</time></trkpt><trkpt lat="52.431365204728316" lon="13.084853486080549"><ele>50.0</ele><time>2026-04-03T11:04:01.998Z</time></trkpt><trkpt lat="52.43148286444684" lon="13.084749210141952"><ele>50.0</ele><time>2026-04-03T11:04:03Z</time></trkpt><trkpt lat="52.43160293978172" lon="13.084644365487314"><ele>50.75</ele><time>2026-04-03T11:04:04Z</time></trkpt><trkpt lat="52.431715538495" lon="13.084531217448923"><ele>51.5</ele><time>2026-04-03T11:04:05Z</time></trkpt><trkpt lat="52.43183614293756" lon="13.084426471857292"><ele>52.25</ele><time>2026-04-03T11:04:06Z</time></trkpt><trkpt lat="52.43195557327668" lon="13.084311695667344"><ele>53.0</ele><time>2026-04-03T11:04:07Z</time></trkpt><trkpt lat="52.43207189652075" lon="13.08420254650918"><ele>52.25</ele><time>2026-04-03T11:04:08Z</time></trkpt><trkpt lat="52.43219024232163" lon="13.08409898027027"><ele>51.5</ele><time>2026-04-03T11:04:09Z</time></trkpt><trkpt lat="52.43231284715796" lon="13.083991413790494"><ele>50.75</ele><time>2026-04-03T11:04:10Z</time></trkpt><trkpt lat="52.432435884756536" lon="13.083882519373237"><ele>50.0</ele><time>2026-04-03T11:04:11Z</time></trkpt><trkpt lat="52.43255642561572" lon="13.08377335400916"><ele>50.0</ele><time>2026-04-03T11:04:12Z</time></trkpt><trkpt lat="52.43267403766489" lon="13.083659121492595"><ele>50.0</ele><time>2026-04-03T11:04:13Z</time></trkpt><trkpt lat="52.43279356997787" lon="13.083542713964095"><ele>50.0</ele><time>2026-04-03T11:04:14Z</time></trkpt><trkpt lat="52.43292182909187" lon="13.083450158265354"><ele>50.0</ele><time>2026-04-03T11:04:15Z</time></trkpt><trkpt lat="52.43304056452513" lon="13.083342472984246"><ele>49.0</ele><time>2026-04-03T11:04:16Z</time></trkpt><trkpt lat="52.4331526642839" lon="13.083212695504166"><ele>48.0</ele><time>2026-04-03T11:04:17Z</time></trkpt><trkpt lat="52.43327156147477" lon="13.083103675858752"><ele>47.0</ele><time>2026-04-03T11:04:18Z</time></trkpt><trkpt lat="52.433386678078236" lon="13.0829984453607"><ele>46.0</ele><time>2026-04-03T11:04:19Z</time></trkpt><trkpt lat="52.43348684590212" lon="13.08289790287545"><ele>46.0</ele><time>2026-04-03T11:04:20Z</time></trkpt><trkpt lat="52.433596019169286" lon="13.082799114764976"><ele>46.0</ele><time>2026-04-03T11:04:21Z</time></trkpt><trkpt lat="52.433706016416366" lon="13.08268538521482"><ele>46.0</ele><time>2026-04-03T11:04:22Z</time></trkpt><trkpt lat="52.433822377938604" lon="13.082564036862527"><ele>46.0</ele><time>2026-04-03T11:04:23Z</time></trkpt><trkpt lat="52.43394854352818" lon="13.082449268797259"><ele>44.66666666666667</ele><time>2026-04-03T11:04:24Z</time></trkpt><trkpt lat="52.43407621611007" lon="13.082324275964607"><ele>43.333333333333336</ele><time>2026-04-03T11:04:25Z</time></trkpt><trkpt lat="52.4342058976917" lon="13.082196169716433"><ele>42.0</ele><time>2026-04-03T11:04:26Z</time></trkpt><trkpt lat="52.43433278459043" lon="13.08206291733719"><ele>42.0</ele><time>2026-04-03T11:04:27Z</time></trkpt><trkpt lat="52.434457649828225" lon="13.081929792940072"><ele>42.0</ele><time>2026-04-03T11:04:28Z</time></trkpt><trkpt lat="52.43459006429261" lon="13.081830204507224"><ele>42.0</ele><time>2026-04-03T11:04:29Z</time></trkpt><trkpt lat="52.43471507194747" lon="13.081707704861367"><ele>42.0</ele><time>2026-04-03T11:04:30Z</time></trkpt><trkpt lat="52.434839149436726" lon="13.081581058612686"><ele>42.5</ele><time>2026-04-03T11:04:31Z</time></trkpt><trkpt lat="52.43496081641973" lon="13.081457042067653"><ele>43.0</ele><time>2026-04-03T11:04:32Z</time></trkpt><trkpt lat="52.43508556261612" lon="13.081330205419945"><ele>43.5</ele><time>2026-04-03T11:04:33Z</time></trkpt><trkpt lat="52.4352011442136" lon="13.081189583825612"><ele>44.0</ele><time>2026-04-03T11:04:34Z</time></trkpt><trkpt lat="52.43532853451578" lon="13.081067722228754"><ele>44.0</ele><time>2026-04-03T11:04:35Z</time></trkpt><trkpt lat="52.435455776802186" lon="13.080942935491954"><ele>44.0</ele><time>2026-04-03T11:04:36Z</time></trkpt><trkpt lat="52.43557912321019" lon="13.080814103720183"><ele>44.0</ele><time>2026-04-03T11:04:37Z</time></trkpt><trkpt lat="52.435703979839445" lon="13.080675592828038"><ele>44.0</ele><time>2026-04-03T11:04:38Z</time></trkpt><trkpt lat="52.43583021007647" lon="13.080539225094713"><ele>45.666666666666664</ele><time>2026-04-03T11:04:39Z</time></trkpt><trkpt lat="52.435967381303065" lon="13.080426480408505"><ele>47.33333333333333</ele><time>2026-04-03T11:04:40Z</time></trkpt><trkpt lat="52.43609845372689" lon="13.080288092579227"><ele>49.0</ele><time>2026-04-03T11:04:41Z</time></trkpt><trkpt lat="52.43622766403726" lon="13.080151670748497"><ele>49.0</ele><time>2026-04-03T11:04:42Z</time></trkpt><trkpt lat="52.436359543478204" lon="13.080012431178327"><ele>49.0</ele><time>2026-04-03T11:04:43Z</time></trkpt><trkpt lat="52.436492695904995" lon="13.079871847263544"><ele>49.0</ele><time>2026-04-03T11:04:44Z</time></trkpt><trkpt lat="52.43662258350305" lon="13.07973471042242"><ele>49.0</ele><time>2026-04-03T11:04:45Z</time></trkpt><trkpt lat="52.436761586929826" lon="13.079587949054952"><ele>49.0</ele><time>2026-04-03T11:04:46Z</time></trkpt><trkpt lat="52.43689521685305" lon="13.079448168906252"><ele>49.0</ele><time>2026-04-03T11:04:47Z</time></trkpt><trkpt lat="52.437028630674895" lon="13.079309630916319"><ele>49.666666666666664</ele><time>2026-04-03T11:04:48Z</time></trkpt><trkpt lat="52.4371612291734" lon="13.079171939150875"><ele>50.33333333333333</ele><time>2026-04-03T11:04:49Z</time></trkpt><trkpt lat="52.43729698823626" lon="13.079010593183293"><ele>51.0</ele><time>2026-04-03T11:04:50Z</time></trkpt><trkpt lat="52.43743152731411" lon="13.078866513102108"><ele>51.0</ele><time>2026-04-03T11:04:50.999Z</time></trkpt><trkpt lat="52.4375733596861" lon="13.07872154452099"><ele>51.0</ele><time>2026-04-03T11:04:51.999Z</time></trkpt><trkpt lat="52.43771237014048" lon="13.07856950958389"><ele>51.0</ele><time>2026-04-03T11:04:52.999Z</time></trkpt><trkpt lat="52.43786697656586" lon="13.07843918798861"><ele>51.0</ele><time>2026-04-03T11:04:53.999Z</time></trkpt><trkpt lat="52.43801329705614" lon="13.07828716391988"><ele>51.0</ele><time>2026-04-03T11:04:54.999Z</time></trkpt><trkpt lat="52.438158142334544" lon="13.078137538921103"><ele>51.0</ele><time>2026-04-03T11:04:55.999Z</time></trkpt><trkpt lat="52.43830158892115" lon="13.077990967508091"><ele>51.0</ele><time>2026-04-03T11:04:56.999Z</time></trkpt><trkpt lat="52.43844191147617" lon="13.077847588264392"><ele>51.0</ele><time>2026-04-03T11:04:57.999Z</time></trkpt><trkpt lat="52.4385864894646" lon="13.077699860606597"><ele>51.0</ele><time>2026-04-03T11:04:58.999Z</time></trkpt><trkpt lat="52.438730909541995" lon="13.077552294491383"><ele>51.33333333333333</ele><time>2026-04-03T11:04:59.999Z</time></trkpt><trkpt lat="52.43887787793065" lon="13.077402124604069"><ele>51.666666666666664</ele><time>2026-04-03T11:05:00.999Z</time></trkpt><trkpt lat="52.43902144241601" lon="13.077253406941384"><ele>52.0</ele><time>2026-04-03T11:05:01.999Z</time></trkpt><trkpt lat="52.43916539928849" lon="13.077103143277657"><ele>52.0</ele><time>2026-04-03T11:05:02.999Z</time></trkpt><trkpt lat="52.43930833993231" lon="13.07695394039054"><ele>52.0</ele><time>2026-04-03T11:05:03.999Z</time></trkpt><trkpt lat="52.43945049802586" lon="13.07680555431873"><ele>52.0</ele><time>2026-04-03T11:05:04.999Z</time></trkpt><trkpt lat="52.43958881446063" lon="13.076660877225143"><ele>52.33333333333333</ele><time>2026-04-03T11:05:05.999Z</time></trkpt><trkpt lat="52.43973208386766" lon="13.076510584620086"><ele>52.66666666666667</ele><time>2026-04-03T11:05:06.999Z</time></trkpt><trkpt lat="52.43987481307519" lon="13.076365010985901"><ele>53.0</ele><time>2026-04-03T11:05:07.999Z</time></trkpt><trkpt lat="52.44001625908267" lon="13.076220746156045"><ele>53.0</ele><time>2026-04-03T11:05:08.999Z</time></trkpt><trkpt lat="52.44016121842294" lon="13.076072898026048"><ele>53.0</ele><time>2026-04-03T11:05:09.999Z</time></trkpt><trkpt lat="52.440303984877325" lon="13.075927286389167"><ele>53.0</ele><time>2026-04-03T11:05:10.999Z</time></trkpt><trkpt lat="52.44044982142368" lon="13.075778543534328"><ele>53.66666666666667</ele><time>2026-04-03T11:05:11.999Z</time></trkpt><trkpt lat="52.440587942700965" lon="13.075637669638311"><ele>54.33333333333333</ele><time>2026-04-03T11:05:12.999Z</time></trkpt><trkpt lat="52.44073535734186" lon="13.075487701170555"><ele>55.0</ele><time>2026-04-03T11:05:13.999Z</time></trkpt><trkpt lat="52.44087506068335" lon="13.07534627635588"><ele>55.0</ele><time>2026-04-03T11:05:14.999Z</time></trkpt><trkpt lat="52.441013410559606" lon="13.075206353969474"><ele>55.0</ele><time>2026-04-03T11:05:15.999Z</time></trkpt><trkpt lat="52.44115811560912" lon="13.075065239296322"><ele>55.0</ele><time>2026-04-03T11:05:16.999Z</time></trkpt><trkpt lat="52.4413012393949" lon="13.074930085691763"><ele>55.666666666666664</ele><time>2026-04-03T11:05:17.999Z</time></trkpt><trkpt lat="52.44146500357818" lon="13.074780505337614"><ele>56.33333333333333</ele><time>2026-04-03T11:05:18.999Z</time></trkpt><trkpt lat="52.441596095869095" lon="13.074660288610106"><ele>57.0</ele><time>2026-04-03T11:05:19.999Z</time></trkpt><trkpt lat="52.44174193735434" lon="13.074522242754169"><ele>57.0</ele><time>2026-04-03T11:05:20.999Z</time></trkpt><trkpt lat="52.4418828798599" lon="13.07438685945768"><ele>57.0</ele><time>2026-04-03T11:05:21.999Z</time></trkpt><trkpt lat="52.44202506980555" lon="13.074248682399494"><ele>57.0</ele><time>2026-04-03T11:05:22.999Z</time></trkpt><trkpt lat="52.442166673094356" lon="13.074113896470408"><ele>57.33333333333333</ele><time>2026-04-03T11:05:23.999Z</time></trkpt><trkpt lat="52.4423055855263" lon="13.073986609945477"><ele>57.666666666666664</ele><time>2026-04-03T11:05:24.999Z</time></trkpt><trkpt lat="52.44244434770296" lon="13.073861359710685"><ele>58.0</ele><time>2026-04-03T11:05:25.999Z</time></trkpt><trkpt lat="52.44258841002113" lon="13.073731511862677"><ele>58.0</ele><time>2026-04-03T11:05:26.999Z</time></trkpt><trkpt lat="52.44272928120621" lon="13.073604069047475"><ele>58.0</ele><time>2026-04-03T11:05:27.999Z</time></trkpt><trkpt lat="52.44287055800935" lon="13.073475775331543"><ele>58.0</ele><time>2026-04-03T11:05:28.999Z</time></trkpt><trkpt lat="52.443011012180584" lon="13.073348228544468"><ele>58.33333333333333</ele><time>2026-04-03T11:05:29.999Z</time></trkpt><trkpt lat="52.44315174322962" lon="13.073220210156444"><ele>58.66666666666667</ele><time>2026-04-03T11:05:30.999Z</time></trkpt><trkpt lat="52.443287569004006" lon="13.073096469726938"><ele>59.0</ele><time>2026-04-03T11:05:31.999Z</time></trkpt><trkpt lat="52.44342227008305" lon="13.072973753727965"><ele>59.0</ele><time>2026-04-03T11:05:32.999Z</time></trkpt><trkpt lat="52.44355586128589" lon="13.072851634279722"><ele>59.0</ele><time>2026-04-03T11:05:33.999Z</time></trkpt><trkpt lat="52.44369200953157" lon="13.072726864566595"><ele>59.0</ele><time>2026-04-03T11:05:34.999Z</time></trkpt><trkpt lat="52.44382990938415" lon="13.072601246348245"><ele>57.66666666666667</ele><time>2026-04-03T11:05:35.999Z</time></trkpt><trkpt lat="52.44397297423135" lon="13.072470923500953"><ele>56.33333333333333</ele><time>2026-04-03T11:05:36.999Z</time></trkpt><trkpt lat="52.44411650654723" lon="13.0723395909058"><ele>55.0</ele><time>2026-04-03T11:05:37.999Z</time></trkpt><trkpt lat="52.44425751609388" lon="13.072208630453293"><ele>55.0</ele><time>2026-04-03T11:05:38.999Z</time></trkpt><trkpt lat="52.44440266071338" lon="13.072073829206056"><ele>55.0</ele><time>2026-04-03T11:05:39.999Z</time></trkpt><trkpt lat="52.44454897971687" lon="13.071937026580864"><ele>55.0</ele><time>2026-04-03T11:05:40.999Z</time></trkpt><trkpt lat="52.444690196910166" lon="13.071804787912972"><ele>54.666666666666664</ele><time>2026-04-03T11:05:41.999Z</time></trkpt><trkpt lat="52.444833706727394" lon="13.071674519755927"><ele>54.33333333333333</ele><time>2026-04-03T11:05:42.999Z</time></trkpt><trkpt lat="52.444974344056256" lon="13.071561307024933"><ele>54.0</ele><time>2026-04-03T11:05:43.999Z</time></trkpt><trkpt lat="52.44512636300365" lon="13.07145368813799"><ele>55.0</ele><time>2026-04-03T11:05:44.999Z</time></trkpt><trkpt lat="52.44528174677957" lon="13.071353625214934"><ele>56.0</ele><time>2026-04-03T11:05:45.999Z</time></trkpt><trkpt lat="52.445431663351016" lon="13.071260191011111"><ele>57.0</ele><time>2026-04-03T11:05:46.998Z</time></trkpt><trkpt lat="52.44557630578745" lon="13.071168128321524"><ele>57.0</ele><time>2026-04-03T11:05:47.998Z</time></trkpt><trkpt lat="52.445710449276795" lon="13.071079333023157"><ele>57.0</ele><time>2026-04-03T11:05:48.998Z</time></trkpt><trkpt lat="52.44584562996168" lon="13.070957536366079"><ele>57.0</ele><time>2026-04-03T11:05:49.998Z</time></trkpt><trkpt lat="52.445939536859264" lon="13.070914492821508"><ele>57.0</ele><time>2026-04-03T11:05:50.998Z</time></trkpt><trkpt lat="52.446049127157075" lon="13.070825804916673"><ele>57.0</ele><time>2026-04-03T11:05:51.998Z</time></trkpt><trkpt lat="52.44615920898229" lon="13.07072584539742"><ele>57.0</ele><time>2026-04-03T11:05:52.998Z</time></trkpt><trkpt lat="52.44624254126318" lon="13.070642776595617"><ele>57.0</ele><time>2026-04-03T11:05:53.998Z</time></trkpt><trkpt lat="52.44632952973795" lon="13.070545364885627"><ele>57.0</ele><time>2026-04-03T11:05:54.998Z</time></trkpt><trkpt lat="52.44642340736726" lon="13.070417911081268"><ele>56.400000000000006</ele><time>2026-04-03T11:05:55.998Z</time></trkpt><trkpt lat="52.4465000973979" lon="13.07028993896335"><ele>55.800000000000004</ele><time>2026-04-03T11:05:56.998Z</time></trkpt><trkpt lat="52.446564612708904" lon="13.07015606939661"><ele>55.2</ele><time>2026-04-03T11:05:57.998Z</time></trkpt><trkpt lat="52.44661881963161" lon="13.069976917490022"><ele>54.6</ele><time>2026-04-03T11:05:58.998Z</time></trkpt><trkpt lat="52.446644229502496" lon="13.06980611460998"><ele>54.0</ele><time>2026-04-03T11:05:59.998Z</time></trkpt><trkpt lat="52.44665436439388" lon="13.069651955073821"><ele>52.5</ele><time>2026-04-03T11:06:00.998Z</time></trkpt><trkpt lat="52.44665706176703" lon="13.069504173991945"><ele>51.0</ele><time>2026-04-03T11:06:01.998Z</time></trkpt><trkpt lat="52.446661664413746" lon="13.069370216466046"><ele>49.5</ele><time>2026-04-03T11:06:02.998Z</time></trkpt><trkpt lat="52.44666818616369" lon="13.069227482305893"><ele>48.0</ele><time>2026-04-03T11:06:03.998Z</time></trkpt><trkpt lat="52.44668868421232" lon="13.06909324104154"><ele>46.5</ele><time>2026-04-03T11:06:04.998Z</time></trkpt><trkpt lat="52.446734485236405" lon="13.06895652137366"><ele>45.0</ele><time>2026-04-03T11:06:05.998Z</time></trkpt><trkpt lat="52.44682120416218" lon="13.068860506011102"><ele>44.0</ele><time>2026-04-03T11:06:06.998Z</time></trkpt><trkpt lat="52.44691608594974" lon="13.068815158021051"><ele>43.0</ele><time>2026-04-03T11:06:07.998Z</time></trkpt><trkpt lat="52.44700053130905" lon="13.068774012690188"><ele>42.0</ele><time>2026-04-03T11:06:09Z</time></trkpt><trkpt lat="52.447105372804145" lon="13.068743575528943"><ele>41.0</ele><time>2026-04-03T11:06:10Z</time></trkpt><trkpt lat="52.44721492168882" lon="13.068684974838341"><ele>40.0</ele><time>2026-04-03T11:06:11Z</time></trkpt><trkpt lat="52.447335009111576" lon="13.068639686274121"><ele>40.0</ele><time>2026-04-03T11:06:12Z</time></trkpt><trkpt lat="52.44744739371061" lon="13.06860955344729"><ele>40.0</ele><time>2026-04-03T11:06:13Z</time></trkpt><trkpt lat="52.44755661687347" lon="13.068560610153822"><ele>40.0</ele><time>2026-04-03T11:06:14Z</time></trkpt><trkpt lat="52.4476634794154" lon="13.068518871350063"><ele>40.0</ele><time>2026-04-03T11:06:15Z</time></trkpt><trkpt lat="52.44777677512942" lon="13.068468783603223"><ele>40.0</ele><time>2026-04-03T11:06:16Z</time></trkpt><trkpt lat="52.44788436326604" lon="13.068412318975675"><ele>40.0</ele><time>2026-04-03T11:06:17Z</time></trkpt><trkpt lat="52.447982488853505" lon="13.06832333931276"><ele>40.0</ele><time>2026-04-03T11:06:18Z</time></trkpt><trkpt lat="52.44807944265955" lon="13.06822461585412"><ele>40.0</ele><time>2026-04-03T11:06:19Z</time></trkpt><trkpt lat="52.448166621122596" lon="13.068128166320891"><ele>40.0</ele><time>2026-04-03T11:06:20Z</time></trkpt><trkpt lat="52.44824658945736" lon="13.068033243706681"><ele>39.333333333333336</ele><time>2026-04-03T11:06:21Z</time></trkpt><trkpt lat="52.44832567764603" lon="13.067953192950135"><ele>38.66666666666667</ele><time>2026-04-03T11:06:22Z</time></trkpt><trkpt lat="52.44839016115031" lon="13.067873573935852"><ele>38.0</ele><time>2026-04-03T11:06:23Z</time></trkpt><trkpt lat="52.44845217626322" lon="13.067786760045047"><ele>37.333333333333336</ele><time>2026-04-03T11:06:24Z</time></trkpt><trkpt lat="52.44852627767089" lon="13.067721541527085"><ele>36.666666666666664</ele><time>2026-04-03T11:06:25Z</time></trkpt><trkpt lat="52.448594449818124" lon="13.067639528959413"><ele>36.0</ele><time>2026-04-03T11:06:26Z</time></trkpt><trkpt lat="52.4486699853216" lon="13.06752643590437"><ele>36.75</ele><time>2026-04-03T11:06:27Z</time></trkpt><trkpt lat="52.44875895284716" lon="13.067418245373242"><ele>37.5</ele><time>2026-04-03T11:06:28Z</time></trkpt><trkpt lat="52.448856687100324" lon="13.067304766180815"><ele>38.25</ele><time>2026-04-03T11:06:29Z</time></trkpt><trkpt lat="52.44895526329025" lon="13.06720204708163"><ele>39.0</ele><time>2026-04-03T11:06:30Z</time></trkpt><trkpt lat="52.44905862044948" lon="13.067090220178462"><ele>39.0</ele><time>2026-04-03T11:06:31Z</time></trkpt><trkpt lat="52.449162079420525" lon="13.066972372896991"><ele>39.0</ele><time>2026-04-03T11:06:32Z</time></trkpt><trkpt lat="52.44926058580595" lon="13.066844255948705"><ele>39.0</ele><time>2026-04-03T11:06:33Z</time></trkpt><trkpt lat="52.4493639596611" lon="13.066722961582299"><ele>39.0</ele><time>2026-04-03T11:06:34Z</time></trkpt><trkpt lat="52.44946887694081" lon="13.06660457150985"><ele>40.25</ele><time>2026-04-03T11:06:35Z</time></trkpt><trkpt lat="52.44957986480972" lon="13.066498959153014"><ele>41.5</ele><time>2026-04-03T11:06:36Z</time></trkpt><trkpt lat="52.44966341154751" lon="13.06632430538875"><ele>42.75</ele><time>2026-04-03T11:06:37Z</time></trkpt><trkpt lat="52.44974560508499" lon="13.066176206557952"><ele>44.0</ele><time>2026-04-03T11:06:38Z</time></trkpt><trkpt lat="52.449823961165" lon="13.066017462487295"><ele>44.0</ele><time>2026-04-03T11:06:39Z</time></trkpt><trkpt lat="52.44990099295519" lon="13.065860898392868"><ele>44.0</ele><time>2026-04-03T11:06:40Z</time></trkpt><trkpt lat="52.44998680548603" lon="13.065711244015272"><ele>44.0</ele><time>2026-04-03T11:06:41Z</time></trkpt><trkpt lat="52.45007627556959" lon="13.065561798878793"><ele>44.0</ele><time>2026-04-03T11:06:42Z</time></trkpt><trkpt lat="52.45017420097477" lon="13.065416790555885"><ele>44.25</ele><time>2026-04-03T11:06:43Z</time></trkpt><trkpt lat="52.450277670905194" lon="13.06528292347004"><ele>44.5</ele><time>2026-04-03T11:06:44Z</time></trkpt><trkpt lat="52.45038590098168" lon="13.065160096137914"><ele>44.75</ele><time>2026-04-03T11:06:45Z</time></trkpt><trkpt lat="52.45050020149563" lon="13.06505044554869"><ele>45.0</ele><time>2026-04-03T11:06:46Z</time></trkpt><trkpt lat="52.45062017757336" lon="13.064946479537095"><ele>47.75</ele><time>2026-04-03T11:06:47Z</time></trkpt><trkpt lat="52.450736506022814" lon="13.06486397140891"><ele>50.5</ele><time>2026-04-03T11:06:48Z</time></trkpt><trkpt lat="52.45085776411116" lon="13.064790656206888"><ele>53.25</ele><time>2026-04-03T11:06:49Z</time></trkpt><trkpt lat="52.450978898722525" lon="13.06471801447139"><ele>56.0</ele><time>2026-04-03T11:06:50Z</time></trkpt><trkpt lat="52.45109952866541" lon="13.064652457762346"><ele>56.0</ele><time>2026-04-03T11:06:51Z</time></trkpt><trkpt lat="52.4512313003899" lon="13.064582386029867"><ele>56.0</ele><time>2026-04-03T11:06:52Z</time></trkpt><trkpt lat="52.451365094778176" lon="13.064517593532775"><ele>56.0</ele><time>2026-04-03T11:06:53Z</time></trkpt><trkpt lat="52.45150807315622" lon="13.0644470751985"><ele>56.0</ele><time>2026-04-03T11:06:53.999Z</time></trkpt><trkpt lat="52.4516618642984" lon="13.064360058521858"><ele>57.5</ele><time>2026-04-03T11:06:54.999Z</time></trkpt><trkpt lat="52.451805500241626" lon="13.064283864600817"><ele>59.0</ele><time>2026-04-03T11:06:55.999Z</time></trkpt><trkpt lat="52.451948971352756" lon="13.064233306573906"><ele>60.5</ele><time>2026-04-03T11:06:56.999Z</time></trkpt><trkpt lat="52.452073469707344" lon="13.064163192968518"><ele>62.0</ele><time>2026-04-03T11:06:57.999Z</time></trkpt><trkpt lat="52.45219265665639" lon="13.064082794820447"><ele>63.25</ele><time>2026-04-03T11:06:58.999Z</time></trkpt><trkpt lat="52.45230481714368" lon="13.063978196441314"><ele>64.5</ele><time>2026-04-03T11:06:59.999Z</time></trkpt><trkpt lat="52.45241584155572" lon="13.063848629723116"><ele>65.75</ele><time>2026-04-03T11:07:00.999Z</time></trkpt><trkpt lat="52.4525281549146" lon="13.063700126350772"><ele>67.0</ele><time>2026-04-03T11:07:01.999Z</time></trkpt><trkpt lat="52.45262892397089" lon="13.063562683281827"><ele>67.0</ele><time>2026-04-03T11:07:02.999Z</time></trkpt><trkpt lat="52.452723958922384" lon="13.063441531585305"><ele>67.0</ele><time>2026-04-03T11:07:03.999Z</time></trkpt><trkpt lat="52.452828034956866" lon="13.063316724197685"><ele>67.0</ele><time>2026-04-03T11:07:04.999Z</time></trkpt><trkpt lat="52.45294756249794" lon="13.063203466400449"><ele>67.0</ele><time>2026-04-03T11:07:05.999Z</time></trkpt><trkpt lat="52.45307972805968" lon="13.063138931079097"><ele>65.5</ele><time>2026-04-03T11:07:06.999Z</time></trkpt><trkpt lat="52.453221771561815" lon="13.063113358092414"><ele>64.0</ele><time>2026-04-03T11:07:07.999Z</time></trkpt><trkpt lat="52.45336087084185" lon="13.06310214671923"><ele>62.5</ele><time>2026-04-03T11:07:08.999Z</time></trkpt><trkpt lat="52.45350394782316" lon="13.063089703400877"><ele>61.0</ele><time>2026-04-03T11:07:09.999Z</time></trkpt><trkpt lat="52.45364086139314" lon="13.063082512202396"><ele>61.0</ele><time>2026-04-03T11:07:10.999Z</time></trkpt><trkpt lat="52.45377761865046" lon="13.063092959020869"><ele>61.0</ele><time>2026-04-03T11:07:11.999Z</time></trkpt><trkpt lat="52.453911189158745" lon="13.063112713092218"><ele>61.0</ele><time>2026-04-03T11:07:12.999Z</time></trkpt><trkpt lat="52.45403681886472" lon="13.063136303696195"><ele>61.0</ele><time>2026-04-03T11:07:13.999Z</time></trkpt><trkpt lat="52.45415509779361" lon="13.063158310036792"><ele>58.4</ele><time>2026-04-03T11:07:14.999Z</time></trkpt><trkpt lat="52.454266422456485" lon="13.06317922683349"><ele>55.8</ele><time>2026-04-03T11:07:15.999Z</time></trkpt><trkpt lat="52.454371127070026" lon="13.063190066896746"><ele>53.199999999999996</ele><time>2026-04-03T11:07:16.999Z</time></trkpt><trkpt lat="52.45447023435561" lon="13.06316964948379"><ele>50.599999999999994</ele><time>2026-04-03T11:07:17.999Z</time></trkpt><trkpt lat="52.454583458594996" lon="13.063114491516282"><ele>48.0</ele><time>2026-04-03T11:07:18.999Z</time></trkpt><trkpt lat="52.45467642768531" lon="13.063024973116214"><ele>48.0</ele><time>2026-04-03T11:07:19.999Z</time></trkpt><trkpt lat="52.4547360335632" lon="13.062886887831878"><ele>48.0</ele><time>2026-04-03T11:07:20.999Z</time></trkpt><trkpt lat="52.454780935095386" lon="13.062738620966377"><ele>48.0</ele><time>2026-04-03T11:07:21.999Z</time></trkpt><trkpt lat="52.45483546025273" lon="13.062572065470404"><ele>48.0</ele><time>2026-04-03T11:07:22.999Z</time></trkpt><trkpt lat="52.454881073733254" lon="13.062368895529737"><ele>47.0</ele><time>2026-04-03T11:07:23.999Z</time></trkpt><trkpt lat="52.45493079764023" lon="13.062156112542414"><ele>46.0</ele><time>2026-04-03T11:07:24.999Z</time></trkpt><trkpt lat="52.454983297620394" lon="13.061942370546264"><ele>45.0</ele><time>2026-04-03T11:07:25.999Z</time></trkpt><trkpt lat="52.455046809047246" lon="13.061723275639988"><ele>44.0</ele><time>2026-04-03T11:07:26.999Z</time></trkpt><trkpt lat="52.45510731753179" lon="13.06153656862979"><ele>43.0</ele><time>2026-04-03T11:07:27.999Z</time></trkpt><trkpt lat="52.45517145867144" lon="13.06134762086589"><ele>42.0</ele><time>2026-04-03T11:07:28.999Z</time></trkpt><trkpt lat="52.45523061640585" lon="13.061176379711782"><ele>41.0</ele><time>2026-04-03T11:07:29.999Z</time></trkpt><trkpt lat="52.45529218412065" lon="13.060998727123707"><ele>40.0</ele><time>2026-04-03T11:07:30.999Z</time></trkpt><trkpt lat="52.45534832902478" lon="13.060852466193188"><ele>39.2</ele><time>2026-04-03T11:07:31.999Z</time></trkpt><trkpt lat="52.45539798517093" lon="13.060704358037922"><ele>38.4</ele><time>2026-04-03T11:07:32.999Z</time></trkpt><trkpt lat="52.4554761421857" lon="13.060593304882103"><ele>37.6</ele><time>2026-04-03T11:07:33.999Z</time></trkpt><trkpt lat="52.455569256640146" lon="13.060503952771771"><ele>36.8</ele><time>2026-04-03T11:07:34.999Z</time></trkpt><trkpt lat="52.45567287510765" lon="13.060423245047652"><ele>36.0</ele><time>2026-04-03T11:07:35.999Z</time></trkpt><trkpt lat="52.45578480654089" lon="13.060352591574249"><ele>36.0</ele><time>2026-04-03T11:07:36.999Z</time></trkpt><trkpt lat="52.45589111462362" lon="13.060261130754183"><ele>36.0</ele><time>2026-04-03T11:07:37.999Z</time></trkpt><trkpt lat="52.45599758211034" lon="13.060170650244517"><ele>36.0</ele><time>2026-04-03T11:07:38.999Z</time></trkpt><trkpt lat="52.45610793077966" lon="13.060086710821555"><ele>36.0</ele><time>2026-04-03T11:07:39.999Z</time></trkpt><trkpt lat="52.45621481959316" lon="13.06000160544584"><ele>35.8</ele><time>2026-04-03T11:07:40.999Z</time></trkpt><trkpt lat="52.45631838252022" lon="13.05991052172696"><ele>35.6</ele><time>2026-04-03T11:07:41.999Z</time></trkpt><trkpt lat="52.45642041653544" lon="13.059823093064548"><ele>35.4</ele><time>2026-04-03T11:07:42.999Z</time></trkpt><trkpt lat="52.456516753952855" lon="13.059748244644982"><ele>35.2</ele><time>2026-04-03T11:07:43.999Z</time></trkpt><trkpt lat="52.4566016609015" lon="13.059689007308434"><ele>35.0</ele><time>2026-04-03T11:07:44.999Z</time></trkpt><trkpt lat="52.4566837003787" lon="13.05963276499764"><ele>35.0</ele><time>2026-04-03T11:07:45.999Z</time></trkpt><trkpt lat="52.456766867338686" lon="13.059580345550133"><ele>35.0</ele><time>2026-04-03T11:07:46.999Z</time></trkpt><trkpt lat="52.45684985585588" lon="13.059546907093488"><ele>35.0</ele><time>2026-04-03T11:07:47.999Z</time></trkpt><trkpt lat="52.45693236184256" lon="13.059546185450591"><ele>35.0</ele><time>2026-04-03T11:07:48.999Z</time></trkpt><trkpt lat="52.457014245538375" lon="13.05956544214986"><ele>35.0</ele><time>2026-04-03T11:07:49.998Z</time></trkpt><trkpt lat="52.45710255629684" lon="13.059575503834242"><ele>35.0</ele><time>2026-04-03T11:07:50.998Z</time></trkpt><trkpt lat="52.45720092851873" lon="13.059571469043927"><ele>36.0</ele><time>2026-04-03T11:07:51.998Z</time></trkpt><trkpt lat="52.457306427842745" lon="13.059598714780664"><ele>37.0</ele><time>2026-04-03T11:07:52.998Z</time></trkpt><trkpt lat="52.45739932213981" lon="13.05960007018403"><ele>38.0</ele><time>2026-04-03T11:07:53.998Z</time></trkpt><trkpt lat="52.45749500151374" lon="13.059482772871261"><ele>39.0</ele><time>2026-04-03T11:07:54.998Z</time></trkpt><trkpt lat="52.45760254288512" lon="13.059493296245714"><ele>40.0</ele><time>2026-04-03T11:07:55.998Z</time></trkpt><trkpt lat="52.45772452838488" lon="13.05952461635839"><ele>40.0</ele><time>2026-04-03T11:07:56.998Z</time></trkpt><trkpt lat="52.457858043422966" lon="13.059572086452874"><ele>40.0</ele><time>2026-04-03T11:07:57.998Z</time></trkpt><trkpt lat="52.45798802356681" lon="13.059644453215292"><ele>40.0</ele><time>2026-04-03T11:07:58.998Z</time></trkpt><trkpt lat="52.45812392191234" lon="13.059710963056462"><ele>40.0</ele><time>2026-04-03T11:07:59.998Z</time></trkpt><trkpt lat="52.458259902473124" lon="13.059779040736156"><ele>40.4</ele><time>2026-04-03T11:08:00.998Z</time></trkpt><trkpt lat="52.45837616825091" lon="13.059851827568087"><ele>40.8</ele><time>2026-04-03T11:08:01.998Z</time></trkpt><trkpt lat="52.45847547351853" lon="13.059904488293308"><ele>41.2</ele><time>2026-04-03T11:08:02.998Z</time></trkpt><trkpt lat="52.45856661426775" lon="13.0599518200941"><ele>41.6</ele><time>2026-04-03T11:08:03.998Z</time></trkpt><trkpt lat="52.45864880763358" lon="13.060000833501853"><ele>42.0</ele><time>2026-04-03T11:08:04.998Z</time></trkpt><trkpt lat="52.45871780010636" lon="13.060046125049686"><ele>42.666666666666664</ele><time>2026-04-03T11:08:05.998Z</time></trkpt><trkpt lat="52.45878482492596" lon="13.06009012460079"><ele>43.333333333333336</ele><time>2026-04-03T11:08:06.998Z</time></trkpt><trkpt lat="52.45886354154321" lon="13.06013727208238"><ele>44.0</ele><time>2026-04-03T11:08:07.998Z</time></trkpt><trkpt lat="52.45895694586677" lon="13.060188623941306"><ele>44.66666666666667</ele><time>2026-04-03T11:08:08.998Z</time></trkpt><trkpt lat="52.45903604037221" lon="13.06023279398982"><ele>45.333333333333336</ele><time>2026-04-03T11:08:09.998Z</time></trkpt><trkpt lat="52.45911056272869" lon="13.060278749299407"><ele>46.0</ele><time>2026-04-03T11:08:10.998Z</time></trkpt><trkpt lat="52.459194810536474" lon="13.06032398512297"><ele>46.0</ele><time>2026-04-03T11:08:11.998Z</time></trkpt><trkpt lat="52.45926918217416" lon="13.060368013907507"><ele>46.0</ele><time>2026-04-03T11:08:12.998Z</time></trkpt><trkpt lat="52.45933155216869" lon="13.060384432874475"><ele>46.0</ele><time>2026-04-03T11:08:16Z</time></trkpt><trkpt lat="52.45939717258171" lon="13.060389769059434"><ele>46.0</ele><time>2026-04-03T11:08:18Z</time></trkpt><trkpt lat="52.459461964261436" lon="13.060202108629218"><ele>46.0</ele><time>2026-04-03T11:08:20Z</time></trkpt><trkpt lat="52.459465892483486" lon="13.06004845335372"><ele>46.0</ele><time>2026-04-03T11:08:21Z</time></trkpt><trkpt lat="52.45946287585974" lon="13.059873500026951"><ele>45.5</ele><time>2026-04-03T11:08:22Z</time></trkpt><trkpt lat="52.459461523373086" lon="13.059692067382192"><ele>45.0</ele><time>2026-04-03T11:08:23Z</time></trkpt><trkpt lat="52.459467147280144" lon="13.059523285776196"><ele>44.5</ele><time>2026-04-03T11:08:24Z</time></trkpt><trkpt lat="52.459473385087044" lon="13.05933736957058"><ele>44.0</ele><time>2026-04-03T11:08:25Z</time></trkpt><trkpt lat="52.45948268942882" lon="13.059135895249499"><ele>45.0</ele><time>2026-04-03T11:08:26Z</time></trkpt><trkpt lat="52.45949630300736" lon="13.058922789888097"><ele>46.0</ele><time>2026-04-03T11:08:27Z</time></trkpt><trkpt lat="52.459509122350525" lon="13.058688222572934"><ele>47.0</ele><time>2026-04-03T11:08:28Z</time></trkpt><trkpt lat="52.45952978837208" lon="13.058434643544425"><ele>48.0</ele><time>2026-04-03T11:08:29Z</time></trkpt><trkpt lat="52.459558724692315" lon="13.05819230682055"><ele>49.33333333333333</ele><time>2026-04-03T11:08:30Z</time></trkpt><trkpt lat="52.459609855506436" lon="13.057951763204693"><ele>50.666666666666664</ele><time>2026-04-03T11:08:31Z</time></trkpt><trkpt lat="52.45965214093563" lon="13.05769356469002"><ele>52.0</ele><time>2026-04-03T11:08:32Z</time></trkpt><trkpt lat="52.4596992643165" lon="13.057430150359457"><ele>46.0</ele><time>2026-04-03T11:08:33Z</time></trkpt><trkpt lat="52.45974924079173" lon="13.057156268276035"><ele>40.0</ele><time>2026-04-03T11:08:34Z</time></trkpt><trkpt lat="52.45979944657874" lon="13.056883243614799"><ele>34.0</ele><time>2026-04-03T11:08:35Z</time></trkpt><trkpt lat="52.4598514974898" lon="13.056598919550854"><ele>33.66666666666667</ele><time>2026-04-03T11:08:36Z</time></trkpt><trkpt lat="52.4598990420081" lon="13.056318192882097"><ele>33.333333333333336</ele><time>2026-04-03T11:08:37Z</time></trkpt><trkpt lat="52.459936680798855" lon="13.056043941577993"><ele>33.0</ele><time>2026-04-03T11:08:38Z</time></trkpt><trkpt lat="52.45996300470224" lon="13.055762640331402"><ele>32.666666666666664</ele><time>2026-04-03T11:08:39Z</time></trkpt><trkpt lat="52.45995713791796" lon="13.055478077507273"><ele>32.33333333333333</ele><time>2026-04-03T11:08:40Z</time></trkpt><trkpt lat="52.45994322515324" lon="13.05519371571901"><ele>32.0</ele><time>2026-04-03T11:08:41Z</time></trkpt><trkpt lat="52.45991248367759" lon="13.05490567390523"><ele>32.0</ele><time>2026-04-03T11:08:42Z</time></trkpt><trkpt lat="52.45986435130582" lon="13.054629648538373"><ele>32.0</ele><time>2026-04-03T11:08:43Z</time></trkpt><trkpt lat="52.45979287879969" lon="13.054360505467324"><ele>32.0</ele><time>2026-04-03T11:08:44Z</time></trkpt><trkpt lat="52.45971101612632" lon="13.054096849459091"><ele>32.666666666666664</ele><time>2026-04-03T11:08:45Z</time></trkpt><trkpt lat="52.459628666591314" lon="13.053840722761867"><ele>33.333333333333336</ele><time>2026-04-03T11:08:46Z</time></trkpt><trkpt lat="52.45955013810962" lon="13.053586975453937"><ele>34.0</ele><time>2026-04-03T11:08:47Z</time></trkpt><trkpt lat="52.459487309115175" lon="13.05332566467267"><ele>34.333333333333336</ele><time>2026-04-03T11:08:48Z</time></trkpt><trkpt lat="52.459395467371536" lon="13.053087977971366"><ele>34.666666666666664</ele><time>2026-04-03T11:08:49Z</time></trkpt><trkpt lat="52.459321956318064" lon="13.052847533583284"><ele>35.0</ele><time>2026-04-03T11:08:50Z</time></trkpt><trkpt lat="52.45925042863436" lon="13.052617507889286"><ele>35.5</ele><time>2026-04-03T11:08:51Z</time></trkpt><trkpt lat="52.459186317642455" lon="13.052396248047785"><ele>36.0</ele><time>2026-04-03T11:08:52Z</time></trkpt><trkpt lat="52.4591226057056" lon="13.052183385028938"><ele>36.5</ele><time>2026-04-03T11:08:53Z</time></trkpt><trkpt lat="52.45905975178887" lon="13.051980088215338"><ele>37.0</ele><time>2026-04-03T11:08:54Z</time></trkpt><trkpt lat="52.45899175488779" lon="13.051773067955871"><ele>37.0</ele><time>2026-04-03T11:08:55Z</time></trkpt><trkpt lat="52.45892737913167" lon="13.051564825798035"><ele>37.0</ele><time>2026-04-03T11:08:56Z</time></trkpt><trkpt lat="52.45886125091902" lon="13.051357767269366"><ele>37.0</ele><time>2026-04-03T11:08:57Z</time></trkpt><trkpt lat="52.45879734449945" lon="13.051149126755215"><ele>37.0</ele><time>2026-04-03T11:08:58Z</time></trkpt><trkpt lat="52.45873500040055" lon="13.0509483190763"><ele>36.5</ele><time>2026-04-03T11:08:59Z</time></trkpt><trkpt lat="52.45867508138132" lon="13.050757172758884"><ele>36.0</ele><time>2026-04-03T11:08:59.999Z</time></trkpt><trkpt lat="52.45861372500246" lon="13.050565709844749"><ele>35.5</ele><time>2026-04-03T11:09:00.999Z</time></trkpt><trkpt lat="52.458551229945925" lon="13.050375464714236"><ele>35.0</ele><time>2026-04-03T11:09:01.999Z</time></trkpt><trkpt lat="52.458495223360096" lon="13.050184382014962"><ele>35.0</ele><time>2026-04-03T11:09:02.999Z</time></trkpt><trkpt lat="52.458435172802744" lon="13.049992068219117"><ele>35.0</ele><time>2026-04-03T11:09:03.999Z</time></trkpt><trkpt lat="52.4583774211585" lon="13.049796845245131"><ele>35.0</ele><time>2026-04-03T11:09:04.999Z</time></trkpt><trkpt lat="52.45828901567243" lon="13.049618925901703"><ele>35.0</ele><time>2026-04-03T11:09:05.999Z</time></trkpt><trkpt lat="52.45819690888166" lon="13.049439086703009"><ele>35.25</ele><time>2026-04-03T11:09:06.999Z</time></trkpt><trkpt lat="52.458082275224776" lon="13.049277010722278"><ele>35.5</ele><time>2026-04-03T11:09:07.999Z</time></trkpt><trkpt lat="52.45796214571911" lon="13.049135544831346"><ele>35.75</ele><time>2026-04-03T11:09:08.999Z</time></trkpt><trkpt lat="52.4578385134641" lon="13.049014183213249"><ele>36.0</ele><time>2026-04-03T11:09:09.999Z</time></trkpt><trkpt lat="52.457717147021164" lon="13.048887094145181"><ele>36.75</ele><time>2026-04-03T11:09:10.999Z</time></trkpt><trkpt lat="52.457596695604295" lon="13.048749226678654"><ele>37.5</ele><time>2026-04-03T11:09:11.999Z</time></trkpt><trkpt lat="52.45747444367148" lon="13.048615321272605"><ele>38.25</ele><time>2026-04-03T11:09:12.999Z</time></trkpt><trkpt lat="52.45735344261807" lon="13.048488004642397"><ele>39.0</ele><time>2026-04-03T11:09:13.999Z</time></trkpt><trkpt lat="52.45723132556142" lon="13.048363888815828"><ele>38.666666666666664</ele><time>2026-04-03T11:09:14.999Z</time></trkpt><trkpt lat="52.45710645722911" lon="13.048234752320267"><ele>38.33333333333333</ele><time>2026-04-03T11:09:15.999Z</time></trkpt><trkpt lat="52.45697783366216" lon="13.048101653992264"><ele>38.0</ele><time>2026-04-03T11:09:16.999Z</time></trkpt><trkpt lat="52.45684937181658" lon="13.047974930386756"><ele>38.0</ele><time>2026-04-03T11:09:17.999Z</time></trkpt><trkpt lat="52.45671698208212" lon="13.047854716913367"><ele>38.0</ele><time>2026-04-03T11:09:18.999Z</time></trkpt><trkpt lat="52.4565725356103" lon="13.047755691926598"><ele>38.0</ele><time>2026-04-03T11:09:19.999Z</time></trkpt><trkpt lat="52.4564201665813" lon="13.047679558203885"><ele>37.33333333333333</ele><time>2026-04-03T11:09:20.999Z</time></trkpt><trkpt lat="52.45626010801231" lon="13.047622152321155"><ele>36.666666666666664</ele><time>2026-04-03T11:09:21.999Z</time></trkpt><trkpt lat="52.45610263417614" lon="13.047569279185803"><ele>36.0</ele><time>2026-04-03T11:09:22.999Z</time></trkpt><trkpt lat="52.4559449481075" lon="13.04752377683151"><ele>36.666666666666664</ele><time>2026-04-03T11:09:23.999Z</time></trkpt><trkpt lat="52.455793075945124" lon="13.047455362155333"><ele>37.33333333333333</ele><time>2026-04-03T11:09:24.999Z</time></trkpt><trkpt lat="52.45564474249764" lon="13.047437491804054"><ele>38.0</ele><time>2026-04-03T11:09:25.999Z</time></trkpt><trkpt lat="52.4554996991748" lon="13.047392101012546"><ele>37.75</ele><time>2026-04-03T11:09:26.999Z</time></trkpt><trkpt lat="52.45535728923089" lon="13.047345145998351"><ele>37.5</ele><time>2026-04-03T11:09:27.999Z</time></trkpt><trkpt lat="52.455217675099966" lon="13.047295268529309"><ele>37.25</ele><time>2026-04-03T11:09:28.999Z</time></trkpt><trkpt lat="52.4550811141529" lon="13.047253163138087"><ele>37.0</ele><time>2026-04-03T11:09:29.999Z</time></trkpt><trkpt lat="52.45494502059078" lon="13.047210807310433"><ele>37.0</ele><time>2026-04-03T11:09:30.999Z</time></trkpt><trkpt lat="52.454811276027776" lon="13.047171642461546"><ele>37.0</ele><time>2026-04-03T11:09:31.999Z</time></trkpt><trkpt lat="52.45467496745194" lon="13.047136470238978"><ele>37.0</ele><time>2026-04-03T11:09:32.999Z</time></trkpt><trkpt lat="52.45453686361158" lon="13.047092193189725"><ele>37.0</ele><time>2026-04-03T11:09:33.999Z</time></trkpt><trkpt lat="52.45440525393856" lon="13.04702368411762"><ele>38.0</ele><time>2026-04-03T11:09:34.999Z</time></trkpt><trkpt lat="52.45427065960288" lon="13.046981192664676"><ele>39.0</ele><time>2026-04-03T11:09:35.999Z</time></trkpt><trkpt lat="52.45413220502167" lon="13.046940109561527"><ele>40.0</ele><time>2026-04-03T11:09:36.999Z</time></trkpt><trkpt lat="52.45399260777164" lon="13.046900987567192"><ele>41.0</ele><time>2026-04-03T11:09:37.999Z</time></trkpt><trkpt lat="52.45385181778673" lon="13.046863510361392"><ele>41.0</ele><time>2026-04-03T11:09:38.999Z</time></trkpt><trkpt lat="52.453709383667366" lon="13.04683152356125"><ele>41.0</ele><time>2026-04-03T11:09:39.999Z</time></trkpt><trkpt lat="52.45356281319157" lon="13.04682765008478"><ele>41.0</ele><time>2026-04-03T11:09:40.999Z</time></trkpt><trkpt lat="52.45341801285995" lon="13.046801357450107"><ele>41.0</ele><time>2026-04-03T11:09:41.999Z</time></trkpt><trkpt lat="52.45327603733044" lon="13.046753539459297"><ele>41.0</ele><time>2026-04-03T11:09:42.999Z</time></trkpt><trkpt lat="52.4531329998872" lon="13.046730491043462"><ele>41.0</ele><time>2026-04-03T11:09:43.999Z</time></trkpt><trkpt lat="52.4529903126158" lon="13.0467070541006"><ele>41.0</ele><time>2026-04-03T11:09:44.999Z</time></trkpt><trkpt lat="52.452849143839614" lon="13.046683478628857"><ele>41.0</ele><time>2026-04-03T11:09:45.999Z</time></trkpt><trkpt lat="52.452708685859946" lon="13.046660043363179"><ele>40.5</ele><time>2026-04-03T11:09:46.999Z</time></trkpt><trkpt lat="52.45257635247626" lon="13.046663624026028"><ele>40.0</ele><time>2026-04-03T11:09:47.999Z</time></trkpt><trkpt lat="52.452448314119884" lon="13.04664052939302"><ele>39.5</ele><time>2026-04-03T11:09:48.999Z</time></trkpt><trkpt lat="52.4523168132759" lon="13.046616357897104"><ele>39.0</ele><time>2026-04-03T11:09:49.999Z</time></trkpt><trkpt lat="52.45218165439501" lon="13.046568662373264"><ele>42.0</ele><time>2026-04-03T11:09:50.999Z</time></trkpt><trkpt lat="52.45204168148075" lon="13.0465457222549"><ele>45.0</ele><time>2026-04-03T11:09:51.999Z</time></trkpt><trkpt lat="52.45190790566579" lon="13.046523793590369"><ele>48.0</ele><time>2026-04-03T11:09:52.999Z</time></trkpt><trkpt lat="52.45178236167615" lon="13.046502188725286"><ele>51.0</ele><time>2026-04-03T11:09:53.999Z</time></trkpt><trkpt lat="52.45166673799956" lon="13.046482291032735"><ele>51.0</ele><time>2026-04-03T11:09:54.999Z</time></trkpt><trkpt lat="52.45155814921699" lon="13.04646443722553"><ele>51.0</ele><time>2026-04-03T11:09:55.998Z</time></trkpt><trkpt lat="52.451456736538816" lon="13.046450003227754"><ele>51.0</ele><time>2026-04-03T11:09:56.998Z</time></trkpt><trkpt lat="52.45136724429068" lon="13.046437532641681"><ele>51.0</ele><time>2026-04-03T11:09:57.998Z</time></trkpt><trkpt lat="52.45128898474934" lon="13.046426570954266"><ele>51.0</ele><time>2026-04-03T11:09:58.998Z</time></trkpt><trkpt lat="52.45121732419775" lon="13.046439931041029"><ele>51.599999999999994</ele><time>2026-04-03T11:09:59.998Z</time></trkpt><trkpt lat="52.451153993597806" lon="13.046431880854223"><ele>52.2</ele><time>2026-04-03T11:10:00.998Z</time></trkpt><trkpt lat="52.45109440924159" lon="13.046397165002487"><ele>52.800000000000004</ele><time>2026-04-03T11:10:01.998Z</time></trkpt><trkpt lat="52.4509749788582" lon="13.046379351641503"><ele>53.400000000000006</ele><time>2026-04-03T11:10:03.998Z</time></trkpt><trkpt lat="52.45086200590221" lon="13.046362881255517"><ele>54.0</ele><time>2026-04-03T11:10:05.998Z</time></trkpt><trkpt lat="52.45076198401989" lon="13.0463482990222"><ele>54.0</ele><time>2026-04-03T11:10:07.998Z</time></trkpt><trkpt lat="52.45067883486793" lon="13.046336176673574"><ele>54.0</ele><time>2026-04-03T11:10:09.998Z</time></trkpt><trkpt lat="52.450614305700164" lon="13.046351371244144"><ele>54.0</ele><time>2026-04-03T11:10:11.998Z</time></trkpt><trkpt lat="52.45054359039239" lon="13.046321524333916"><ele>54.0</ele><time>2026-04-03T11:10:22Z</time></trkpt><trkpt lat="52.45047203304215" lon="13.04630871571558"><ele>54.0</ele><time>2026-04-03T11:10:23Z</time></trkpt><trkpt lat="52.45038741038039" lon="13.046290287324576"><ele>54.0</ele><time>2026-04-03T11:10:24Z</time></trkpt><trkpt lat="52.45027966052949" lon="13.046276565347355"><ele>53.75</ele><time>2026-04-03T11:10:25Z</time></trkpt><trkpt lat="52.45015217203706" lon="13.046254304651033"><ele>53.5</ele><time>2026-04-03T11:10:26Z</time></trkpt><trkpt lat="52.450016631480345" lon="13.04623081575719"><ele>53.25</ele><time>2026-04-03T11:10:27Z</time></trkpt><trkpt lat="52.44987143177768" lon="13.046210878445772"><ele>53.0</ele><time>2026-04-03T11:10:28Z</time></trkpt><trkpt lat="52.44973289095276" lon="13.04618402427385"><ele>52.25</ele><time>2026-04-03T11:10:29Z</time></trkpt><trkpt lat="52.44959203517539" lon="13.046166399822388"><ele>51.5</ele><time>2026-04-03T11:10:30Z</time></trkpt><trkpt lat="52.449453789335145" lon="13.046146212651884"><ele>50.75</ele><time>2026-04-03T11:10:31Z</time></trkpt><trkpt lat="52.449314015744896" lon="13.046116702629844"><ele>50.0</ele><time>2026-04-03T11:10:32Z</time></trkpt><trkpt lat="52.449172919912954" lon="13.046107551211092"><ele>50.0</ele><time>2026-04-03T11:10:33Z</time></trkpt><trkpt lat="52.44902893029779" lon="13.046102101019933"><ele>50.0</ele><time>2026-04-03T11:10:34Z</time></trkpt><trkpt lat="52.44888322982955" lon="13.046095955765363"><ele>50.0</ele><time>2026-04-03T11:10:35Z</time></trkpt><trkpt lat="52.448739073930675" lon="13.046065169395314"><ele>50.0</ele><time>2026-04-03T11:10:36Z</time></trkpt><trkpt lat="52.448593880053224" lon="13.046062292640752"><ele>49.25</ele><time>2026-04-03T11:10:37Z</time></trkpt><trkpt lat="52.448448516688195" lon="13.046060311290436"><ele>48.5</ele><time>2026-04-03T11:10:38Z</time></trkpt><trkpt lat="52.44830161196475" lon="13.046057029235765"><ele>47.75</ele><time>2026-04-03T11:10:39Z</time></trkpt><trkpt lat="52.44815695123938" lon="13.04605322983692"><ele>47.0</ele><time>2026-04-03T11:10:40Z</time></trkpt><trkpt lat="52.448012602823134" lon="13.046050821985881"><ele>48.0</ele><time>2026-04-03T11:10:41Z</time></trkpt><trkpt lat="52.44786737872086" lon="13.046056866845205"><ele>49.0</ele><time>2026-04-03T11:10:42Z</time></trkpt><trkpt lat="52.44772352348754" lon="13.046050131629523"><ele>50.0</ele><time>2026-04-03T11:10:43Z</time></trkpt><trkpt lat="52.44757727502125" lon="13.046046958952948"><ele>51.0</ele><time>2026-04-03T11:10:44Z</time></trkpt><trkpt lat="52.44742669730075" lon="13.04604727877265"><ele>51.0</ele><time>2026-04-03T11:10:45Z</time></trkpt><trkpt lat="52.44726821940537" lon="13.04604841219534"><ele>51.0</ele><time>2026-04-03T11:10:46Z</time></trkpt><trkpt lat="52.44710113446762" lon="13.046044696213354"><ele>51.0</ele><time>2026-04-03T11:10:47Z</time></trkpt><trkpt lat="52.44692895974404" lon="13.046044830300472"><ele>52.66666666666667</ele><time>2026-04-03T11:10:48Z</time></trkpt><trkpt lat="52.44674792377094" lon="13.046049527562014"><ele>54.333333333333336</ele><time>2026-04-03T11:10:49Z</time></trkpt><trkpt lat="52.446567874052036" lon="13.046046031282714"><ele>56.0</ele><time>2026-04-03T11:10:50Z</time></trkpt><trkpt lat="52.44639533047283" lon="13.046047735827047"><ele>55.0</ele><time>2026-04-03T11:10:51Z</time></trkpt><trkpt lat="52.446228153853" lon="13.046050271939524"><ele>54.0</ele><time>2026-04-03T11:10:52Z</time></trkpt><trkpt lat="52.44607099331498" lon="13.046054480822203"><ele>53.0</ele><time>2026-04-03T11:10:53Z</time></trkpt><trkpt lat="52.44591381210465" lon="13.0460524178349"><ele>53.0</ele><time>2026-04-03T11:10:54Z</time></trkpt><trkpt lat="52.44575594671128" lon="13.046050129557822"><ele>53.0</ele><time>2026-04-03T11:10:55Z</time></trkpt><trkpt lat="52.445600806070395" lon="13.046043833558034"><ele>53.0</ele><time>2026-04-03T11:10:56Z</time></trkpt><trkpt lat="52.44544996996665" lon="13.04603955503266"><ele>51.333333333333336</ele><time>2026-04-03T11:10:57Z</time></trkpt><trkpt lat="52.44529591359521" lon="13.046032742397404"><ele>49.66666666666667</ele><time>2026-04-03T11:10:58Z</time></trkpt><trkpt lat="52.44514558612967" lon="13.046028189345556"><ele>48.0</ele><time>2026-04-03T11:10:59Z</time></trkpt><trkpt lat="52.4449875948413" lon="13.046030368396433"><ele>48.0</ele><time>2026-04-03T11:11:00Z</time></trkpt><trkpt lat="52.44483083238061" lon="13.046046411030668"><ele>48.0</ele><time>2026-04-03T11:11:00.999Z</time></trkpt><trkpt lat="52.4446722072474" lon="13.04607788762229"><ele>48.0</ele><time>2026-04-03T11:11:01.999Z</time></trkpt><trkpt lat="52.44451440269081" lon="13.046132211337458"><ele>49.0</ele><time>2026-04-03T11:11:02.999Z</time></trkpt><trkpt lat="52.44435794213554" lon="13.0462040693878"><ele>50.0</ele><time>2026-04-03T11:11:03.999Z</time></trkpt><trkpt lat="52.44420289672434" lon="13.046292955496657"><ele>51.0</ele><time>2026-04-03T11:11:04.999Z</time></trkpt><trkpt lat="52.444053979391086" lon="13.046391948748052"><ele>51.0</ele><time>2026-04-03T11:11:05.999Z</time></trkpt><trkpt lat="52.44391267039853" lon="13.046499783249557"><ele>51.0</ele><time>2026-04-03T11:11:06.999Z</time></trkpt><trkpt lat="52.44376990015993" lon="13.046614158328367"><ele>51.0</ele><time>2026-04-03T11:11:07.999Z</time></trkpt><trkpt lat="52.44362569716538" lon="13.046724971852544"><ele>49.0</ele><time>2026-04-03T11:11:08.999Z</time></trkpt><trkpt lat="52.4434867974288" lon="13.046841164291044"><ele>47.0</ele><time>2026-04-03T11:11:09.999Z</time></trkpt><trkpt lat="52.44335240602683" lon="13.046944244151815"><ele>45.0</ele><time>2026-04-03T11:11:10.999Z</time></trkpt><trkpt lat="52.44321324529729" lon="13.047045703445646"><ele>45.0</ele><time>2026-04-03T11:11:11.999Z</time></trkpt><trkpt lat="52.443077218623" lon="13.047147786078568"><ele>45.0</ele><time>2026-04-03T11:11:12.999Z</time></trkpt><trkpt lat="52.44293976146806" lon="13.047250022351163"><ele>45.0</ele><time>2026-04-03T11:11:13.999Z</time></trkpt><trkpt lat="52.44280336377631" lon="13.04735350279489"><ele>43.25</ele><time>2026-04-03T11:11:14.999Z</time></trkpt><trkpt lat="52.4426690973357" lon="13.047448384673618"><ele>41.5</ele><time>2026-04-03T11:11:15.999Z</time></trkpt><trkpt lat="52.4425381717729" lon="13.047540694750028"><ele>39.75</ele><time>2026-04-03T11:11:16.999Z</time></trkpt><trkpt lat="52.44240909116838" lon="13.047634517095535"><ele>38.0</ele><time>2026-04-03T11:11:17.999Z</time></trkpt><trkpt lat="52.442281213529625" lon="13.047720929264203"><ele>37.25</ele><time>2026-04-03T11:11:18.999Z</time></trkpt><trkpt lat="52.44215198846532" lon="13.047811001044284"><ele>36.5</ele><time>2026-04-03T11:11:19.999Z</time></trkpt><trkpt lat="52.44202346573129" lon="13.047902179022952"><ele>35.75</ele><time>2026-04-03T11:11:20.999Z</time></trkpt><trkpt lat="52.44189518325102" lon="13.04799683508165"><ele>35.0</ele><time>2026-04-03T11:11:21.999Z</time></trkpt><trkpt lat="52.441766856748146" lon="13.048089265517639"><ele>35.0</ele><time>2026-04-03T11:11:22.999Z</time></trkpt><trkpt lat="52.441636860998834" lon="13.048179837370197"><ele>35.0</ele><time>2026-04-03T11:11:23.999Z</time></trkpt><trkpt lat="52.44150767482035" lon="13.048271535354395"><ele>35.0</ele><time>2026-04-03T11:11:24.999Z</time></trkpt><trkpt lat="52.441381276336315" lon="13.048363415885456"><ele>35.0</ele><time>2026-04-03T11:11:25.999Z</time></trkpt><trkpt lat="52.44125173131391" lon="13.048454629283675"><ele>35.0</ele><time>2026-04-03T11:11:26.999Z</time></trkpt><trkpt lat="52.44112323650087" lon="13.048546079001797"><ele>35.0</ele><time>2026-04-03T11:11:27.999Z</time></trkpt><trkpt lat="52.4409943604915" lon="13.048637746396546"><ele>35.0</ele><time>2026-04-03T11:11:28.999Z</time></trkpt><trkpt lat="52.44086516272712" lon="13.04872789649912"><ele>35.0</ele><time>2026-04-03T11:11:29.999Z</time></trkpt><trkpt lat="52.44073441809818" lon="13.048813271046663"><ele>35.0</ele><time>2026-04-03T11:11:30.999Z</time></trkpt><trkpt lat="52.44060222384472" lon="13.048896655057167"><ele>35.0</ele><time>2026-04-03T11:11:31.999Z</time></trkpt><trkpt lat="52.44047040640319" lon="13.048979097124022"><ele>35.0</ele><time>2026-04-03T11:11:32.999Z</time></trkpt><trkpt lat="52.44033804901768" lon="13.049059593469604"><ele>35.0</ele><time>2026-04-03T11:11:33.999Z</time></trkpt><trkpt lat="52.44020769728125" lon="13.049142632207618"><ele>35.0</ele><time>2026-04-03T11:11:34.999Z</time></trkpt><trkpt lat="52.44007797734227" lon="13.049223547326864"><ele>35.0</ele><time>2026-04-03T11:11:35.999Z</time></trkpt><trkpt lat="52.439949110766285" lon="13.049310049098418"><ele>35.0</ele><time>2026-04-03T11:11:36.999Z</time></trkpt><trkpt lat="52.4398167369296" lon="13.049398759670174"><ele>35.0</ele><time>2026-04-03T11:11:37.999Z</time></trkpt><trkpt lat="52.43968429678616" lon="13.049487073517508"><ele>34.5</ele><time>2026-04-03T11:11:38.999Z</time></trkpt><trkpt lat="52.439551373856844" lon="13.049572368261716"><ele>34.0</ele><time>2026-04-03T11:11:39.999Z</time></trkpt><trkpt lat="52.439417685038556" lon="13.049658528841208"><ele>33.5</ele><time>2026-04-03T11:11:40.999Z</time></trkpt><trkpt lat="52.439285626385136" lon="13.049748542804556"><ele>33.0</ele><time>2026-04-03T11:11:41.999Z</time></trkpt><trkpt lat="52.43915933301614" lon="13.04983600425469"><ele>33.0</ele><time>2026-04-03T11:11:42.999Z</time></trkpt><trkpt lat="52.43903195883603" lon="13.049920367753785"><ele>33.0</ele><time>2026-04-03T11:11:43.999Z</time></trkpt><trkpt lat="52.43890591783071" lon="13.050001653612256"><ele>33.0</ele><time>2026-04-03T11:11:44.999Z</time></trkpt><trkpt lat="52.43878261418512" lon="13.050085304693264"><ele>33.0</ele><time>2026-04-03T11:11:45.999Z</time></trkpt><trkpt lat="52.43866082430304" lon="13.050172909460079"><ele>33.5</ele><time>2026-04-03T11:11:46.999Z</time></trkpt><trkpt lat="52.43853673331697" lon="13.05025930267838"><ele>34.0</ele><time>2026-04-03T11:11:47.999Z</time></trkpt><trkpt lat="52.43841638026238" lon="13.05034371354672"><ele>34.5</ele><time>2026-04-03T11:11:48.999Z</time></trkpt><trkpt lat="52.43828979228941" lon="13.05040959535643"><ele>35.0</ele><time>2026-04-03T11:11:49.999Z</time></trkpt><trkpt lat="52.43816507991387" lon="13.050459287598448"><ele>35.0</ele><time>2026-04-03T11:11:50.999Z</time></trkpt><trkpt lat="52.43804131961927" lon="13.050495505114643"><ele>35.0</ele><time>2026-04-03T11:11:51.999Z</time></trkpt><trkpt lat="52.43791977564059" lon="13.05053385638034"><ele>35.0</ele><time>2026-04-03T11:11:52.999Z</time></trkpt><trkpt lat="52.43779798090665" lon="13.05058121854121"><ele>35.0</ele><time>2026-04-03T11:11:53.999Z</time></trkpt><trkpt lat="52.43767650805442" lon="13.050637246014064"><ele>35.0</ele><time>2026-04-03T11:11:54.998Z</time></trkpt><trkpt lat="52.43755819241194" lon="13.050703569104165"><ele>35.0</ele><time>2026-04-03T11:11:55.998Z</time></trkpt><trkpt lat="52.43743890388513" lon="13.050770382744926"><ele>35.0</ele><time>2026-04-03T11:11:56.998Z</time></trkpt><trkpt lat="52.43732224389348" lon="13.05083415036616"><ele>35.0</ele><time>2026-04-03T11:11:57.998Z</time></trkpt><trkpt lat="52.43721709882847" lon="13.050888285305481"><ele>35.33333333333333</ele><time>2026-04-03T11:11:58.998Z</time></trkpt><trkpt lat="52.43712141313077" lon="13.050943107940107"><ele>35.666666666666664</ele><time>2026-04-03T11:11:59.998Z</time></trkpt><trkpt lat="52.437031982554075" lon="13.050994429157818"><ele>36.0</ele><time>2026-04-03T11:12:00.998Z</time></trkpt><trkpt lat="52.43695206816416" lon="13.051044866672399"><ele>36.333333333333336</ele><time>2026-04-03T11:12:01.998Z</time></trkpt><trkpt lat="52.436879593763095" lon="13.051079688877467"><ele>36.66666666666667</ele><time>2026-04-03T11:12:02.998Z</time></trkpt><trkpt lat="52.436793730547286" lon="13.051126743835622"><ele>37.0</ele><time>2026-04-03T11:12:04.998Z</time></trkpt><trkpt lat="52.43672874912142" lon="13.051050521059972"><ele>37.0</ele><time>2026-04-03T11:12:07.998Z</time></trkpt><trkpt lat="52.43679796512329" lon="13.05085827937446"><ele>37.0</ele><time>2026-04-03T11:12:09.998Z</time></trkpt><trkpt lat="52.436831843048466" lon="13.050739517758581"><ele>37.0</ele><time>2026-04-03T11:12:10.998Z</time></trkpt><trkpt lat="52.436863178356006" lon="13.050591109861495"><ele>37.0</ele><time>2026-04-03T11:12:11.998Z</time></trkpt><trkpt lat="52.43690999265954" lon="13.050430354790313"><ele>37.0</ele><time>2026-04-03T11:12:12.998Z</time></trkpt><trkpt lat="52.43695984139112" lon="13.05025365305757"><ele>37.25</ele><time>2026-04-03T11:12:13.998Z</time></trkpt><trkpt lat="52.437008147789385" lon="13.050063649050484"><ele>37.5</ele><time>2026-04-03T11:12:14.998Z</time></trkpt><trkpt lat="52.43706160428405" lon="13.049865806657897"><ele>37.75</ele><time>2026-04-03T11:12:15.998Z</time></trkpt><trkpt lat="52.43710942010747" lon="13.04967595754076"><ele>38.0</ele><time>2026-04-03T11:12:16.998Z</time></trkpt><trkpt lat="52.43716196331069" lon="13.049484089768628"><ele>37.75</ele><time>2026-04-03T11:12:17.998Z</time></trkpt><trkpt lat="52.437218321867064" lon="13.049287831979647"><ele>37.5</ele><time>2026-04-03T11:12:18.998Z</time></trkpt><trkpt lat="52.437269756018985" lon="13.049103734982495"><ele>37.25</ele><time>2026-04-03T11:12:19.998Z</time></trkpt><trkpt lat="52.43731588575025" lon="13.04893436390455"><ele>37.0</ele><time>2026-04-03T11:12:20.998Z</time></trkpt><trkpt lat="52.437360964532104" lon="13.04877393603865"><ele>37.0</ele><time>2026-04-03T11:12:21.998Z</time></trkpt><trkpt lat="52.437400870241" lon="13.04862327628112"><ele>37.0</ele><time>2026-04-03T11:12:22.998Z</time></trkpt><trkpt lat="52.437421502117836" lon="13.048474768239807"><ele>37.0</ele><time>2026-04-03T11:12:23.998Z</time></trkpt><trkpt lat="52.437400459570355" lon="13.048311739469277"><ele>37.0</ele><time>2026-04-03T11:12:24.998Z</time></trkpt><trkpt lat="52.43734768189171" lon="13.048142738104376"><ele>37.0</ele><time>2026-04-03T11:12:25.998Z</time></trkpt><trkpt lat="52.43730504301514" lon="13.04795528382264"><ele>38.0</ele><time>2026-04-03T11:12:27Z</time></trkpt><trkpt lat="52.43724008162379" lon="13.04781131544939"><ele>39.0</ele><time>2026-04-03T11:12:28Z</time></trkpt><trkpt lat="52.437197538750716" lon="13.047651361524517"><ele>40.0</ele><time>2026-04-03T11:12:29Z</time></trkpt><trkpt lat="52.437148221932844" lon="13.047497726688738"><ele>41.0</ele><time>2026-04-03T11:12:30Z</time></trkpt><trkpt lat="52.43709741588467" lon="13.047351287666933"><ele>42.0</ele><time>2026-04-03T11:12:31Z</time></trkpt><trkpt lat="52.43704130231852" lon="13.047205475055563"><ele>42.6</ele><time>2026-04-03T11:12:32Z</time></trkpt><trkpt lat="52.43698462485589" lon="13.04706014949296"><ele>43.2</ele><time>2026-04-03T11:12:33Z</time></trkpt><trkpt lat="52.43693377251439" lon="13.04690952154976"><ele>43.8</ele><time>2026-04-03T11:12:34Z</time></trkpt><trkpt lat="52.43688275520554" lon="13.046771085565531"><ele>44.4</ele><time>2026-04-03T11:12:35Z</time></trkpt><trkpt lat="52.43683599400389" lon="13.04663096806801"><ele>45.0</ele><time>2026-04-03T11:12:36Z</time></trkpt><trkpt lat="52.436782999817694" lon="13.046499707103388"><ele>45.0</ele><time>2026-04-03T11:12:37Z</time></trkpt><trkpt lat="52.43673367741064" lon="13.046374401490258"><ele>45.0</ele><time>2026-04-03T11:12:38Z</time></trkpt><trkpt lat="52.43668837236997" lon="13.046243823280584"><ele>45.0</ele><time>2026-04-03T11:12:39Z</time></trkpt><trkpt lat="52.43664254315872" lon="13.046110714621305"><ele>45.0</ele><time>2026-04-03T11:12:40Z</time></trkpt><trkpt lat="52.43660068053024" lon="13.045971241188111"><ele>45.0</ele><time>2026-04-03T11:12:41Z</time></trkpt><trkpt lat="52.43655447333884" lon="13.045836108084467"><ele>43.6</ele><time>2026-04-03T11:12:42Z</time></trkpt><trkpt lat="52.43650988150408" lon="13.045708353074996"><ele>42.2</ele><time>2026-04-03T11:12:43Z</time></trkpt><trkpt lat="52.43645857964932" lon="13.04556553218022"><ele>40.8</ele><time>2026-04-03T11:12:44Z</time></trkpt><trkpt lat="52.436426249435975" lon="13.04542339820509"><ele>39.4</ele><time>2026-04-03T11:12:45Z</time></trkpt><trkpt lat="52.43638703891254" lon="13.045280053789051"><ele>38.0</ele><time>2026-04-03T11:12:46Z</time></trkpt><trkpt lat="52.436358254732674" lon="13.045112718803876"><ele>37.25</ele><time>2026-04-03T11:12:47Z</time></trkpt><trkpt lat="52.436340854022895" lon="13.044930483411557"><ele>36.5</ele><time>2026-04-03T11:12:48Z</time></trkpt><trkpt lat="52.43635429799177" lon="13.044736713503358"><ele>35.75</ele><time>2026-04-03T11:12:49Z</time></trkpt><trkpt lat="52.43638912513777" lon="13.044559427251112"><ele>35.0</ele><time>2026-04-03T11:12:50Z</time></trkpt><trkpt lat="52.43641138360907" lon="13.044380808541408"><ele>35.0</ele><time>2026-04-03T11:12:51Z</time></trkpt><trkpt lat="52.43643326096215" lon="13.044200446826407"><ele>35.0</ele><time>2026-04-03T11:12:52Z</time></trkpt><trkpt lat="52.43644623576585" lon="13.044015786088252"><ele>35.0</ele><time>2026-04-03T11:12:53Z</time></trkpt><trkpt lat="52.43646977171488" lon="13.043833702392845"><ele>35.0</ele><time>2026-04-03T11:12:54Z</time></trkpt><trkpt lat="52.43649355567843" lon="13.043645522166148"><ele>35.0</ele><time>2026-04-03T11:12:55Z</time></trkpt><trkpt lat="52.43651052842446" lon="13.043460250471677"><ele>35.0</ele><time>2026-04-03T11:12:56Z</time></trkpt><trkpt lat="52.436533639992604" lon="13.04327098433179"><ele>35.0</ele><time>2026-04-03T11:12:57Z</time></trkpt><trkpt lat="52.43655191758057" lon="13.043085583968663"><ele>35.0</ele><time>2026-04-03T11:12:58Z</time></trkpt><trkpt lat="52.436569799410634" lon="13.04291005490299"><ele>35.5</ele><time>2026-04-03T11:12:59Z</time></trkpt><trkpt lat="52.43659412345983" lon="13.042728845061971"><ele>36.0</ele><time>2026-04-03T11:13:00Z</time></trkpt><trkpt lat="52.43661943755953" lon="13.042538933959866"><ele>36.5</ele><time>2026-04-03T11:13:01Z</time></trkpt><trkpt lat="52.43665291376014" lon="13.042366289912197"><ele>37.0</ele><time>2026-04-03T11:13:02Z</time></trkpt><trkpt lat="52.436668943402644" lon="13.042183150180923"><ele>38.0</ele><time>2026-04-03T11:13:03Z</time></trkpt><trkpt lat="52.436701679869294" lon="13.041997291631947"><ele>39.0</ele><time>2026-04-03T11:13:04Z</time></trkpt><trkpt lat="52.4367234404595" lon="13.041809925300042"><ele>40.0</ele><time>2026-04-03T11:13:05Z</time></trkpt><trkpt lat="52.43674435720229" lon="13.04162376779391"><ele>41.0</ele><time>2026-04-03T11:13:06Z</time></trkpt><trkpt lat="52.43676253830611" lon="13.041441135920449"><ele>41.599999999999994</ele><time>2026-04-03T11:13:06.999Z</time></trkpt><trkpt lat="52.43678266076829" lon="13.041266210242378"><ele>42.2</ele><time>2026-04-03T11:13:07.999Z</time></trkpt><trkpt lat="52.43680106438799" lon="13.04108559006682"><ele>42.8</ele><time>2026-04-03T11:13:08.999Z</time></trkpt><trkpt lat="52.436810007758" lon="13.040901620123572"><ele>43.400000000000006</ele><time>2026-04-03T11:13:09.999Z</time></trkpt><trkpt lat="52.436816281227784" lon="13.040715568344297"><ele>44.0</ele><time>2026-04-03T11:13:10.999Z</time></trkpt><trkpt lat="52.43681425732811" lon="13.04053693789646"><ele>44.0</ele><time>2026-04-03T11:13:11.999Z</time></trkpt><trkpt lat="52.436823868943264" lon="13.040360365302101"><ele>44.0</ele><time>2026-04-03T11:13:12.999Z</time></trkpt><trkpt lat="52.43683516894731" lon="13.040187543692232"><ele>44.0</ele><time>2026-04-03T11:13:13.999Z</time></trkpt><trkpt lat="52.43685144105012" lon="13.040014014823473"><ele>44.0</ele><time>2026-04-03T11:13:14.999Z</time></trkpt><trkpt lat="52.43686864456081" lon="13.039832439337006"><ele>44.0</ele><time>2026-04-03T11:13:15.999Z</time></trkpt><trkpt lat="52.43689753009545" lon="13.039652128256813"><ele>43.75</ele><time>2026-04-03T11:13:16.999Z</time></trkpt><trkpt lat="52.43694126950811" lon="13.039468391366697"><ele>43.5</ele><time>2026-04-03T11:13:17.999Z</time></trkpt><trkpt lat="52.436971177190436" lon="13.039283213709181"><ele>43.25</ele><time>2026-04-03T11:13:18.999Z</time></trkpt><trkpt lat="52.43700195460671" lon="13.039101073118474"><ele>43.0</ele><time>2026-04-03T11:13:19.999Z</time></trkpt><trkpt lat="52.43703173712418" lon="13.038919788011874"><ele>42.8</ele><time>2026-04-03T11:13:20.999Z</time></trkpt><trkpt lat="52.43705913971491" lon="13.038737884622167"><ele>42.599999999999994</ele><time>2026-04-03T11:13:21.999Z</time></trkpt><trkpt lat="52.4370856468876" lon="13.03856919061038"><ele>42.400000000000006</ele><time>2026-04-03T11:13:22.999Z</time></trkpt><trkpt lat="52.4371154125826" lon="13.038385078453803"><ele>42.2</ele><time>2026-04-03T11:13:23.999Z</time></trkpt><trkpt lat="52.437147352470475" lon="13.038209162872409"><ele>42.0</ele><time>2026-04-03T11:13:24.999Z</time></trkpt><trkpt lat="52.43718143286334" lon="13.038029119528757"><ele>40.6</ele><time>2026-04-03T11:13:25.999Z</time></trkpt><trkpt lat="52.43721479715883" lon="13.037847697696646"><ele>39.2</ele><time>2026-04-03T11:13:26.999Z</time></trkpt><trkpt lat="52.437255644326676" lon="13.037677553384354"><ele>37.8</ele><time>2026-04-03T11:13:27.999Z</time></trkpt><trkpt lat="52.43730043612521" lon="13.037506961821304"><ele>36.4</ele><time>2026-04-03T11:13:28.999Z</time></trkpt><trkpt lat="52.43734346087988" lon="13.037346061131435"><ele>35.0</ele><time>2026-04-03T11:13:29.999Z</time></trkpt><trkpt lat="52.43738825286813" lon="13.037185603062078"><ele>34.8</ele><time>2026-04-03T11:13:30.999Z</time></trkpt><trkpt lat="52.437431717500274" lon="13.03702634138702"><ele>34.6</ele><time>2026-04-03T11:13:31.999Z</time></trkpt><trkpt lat="52.43747573589661" lon="13.036857671118463"><ele>34.4</ele><time>2026-04-03T11:13:32.999Z</time></trkpt><trkpt lat="52.43751398244431" lon="13.036683525961278"><ele>34.2</ele><time>2026-04-03T11:13:33.999Z</time></trkpt><trkpt lat="52.437545348160796" lon="13.036509200535487"><ele>34.0</ele><time>2026-04-03T11:13:34.999Z</time></trkpt><trkpt lat="52.437562655868035" lon="13.036320034931975"><ele>34.0</ele><time>2026-04-03T11:13:35.999Z</time></trkpt><trkpt lat="52.43757339559401" lon="13.036123151839467"><ele>34.0</ele><time>2026-04-03T11:13:36.999Z</time></trkpt><trkpt lat="52.43757993690334" lon="13.035941631939428"><ele>34.0</ele><time>2026-04-03T11:13:37.999Z</time></trkpt><trkpt lat="52.43759426511562" lon="13.03576017082655"><ele>34.0</ele><time>2026-04-03T11:13:38.999Z</time></trkpt><trkpt lat="52.437610149080676" lon="13.035581490641201"><ele>34.0</ele><time>2026-04-03T11:13:39.999Z</time></trkpt><trkpt lat="52.43762594564174" lon="13.035405239697392"><ele>34.0</ele><time>2026-04-03T11:13:40.999Z</time></trkpt><trkpt lat="52.43764200912932" lon="13.035236865131802"><ele>34.0</ele><time>2026-04-03T11:13:41.999Z</time></trkpt><trkpt lat="52.43765587968305" lon="13.035070770314139"><ele>34.0</ele><time>2026-04-03T11:13:42.999Z</time></trkpt><trkpt lat="52.437677825554516" lon="13.034893827859896"><ele>34.0</ele><time>2026-04-03T11:13:43.999Z</time></trkpt><trkpt lat="52.43768589360495" lon="13.034713471109125"><ele>34.0</ele><time>2026-04-03T11:13:44.999Z</time></trkpt><trkpt lat="52.43770457705685" lon="13.034547474549203"><ele>34.0</ele><time>2026-04-03T11:13:45.999Z</time></trkpt><trkpt lat="52.43771429009217" lon="13.034380634146064"><ele>34.0</ele><time>2026-04-03T11:13:46.999Z</time></trkpt><trkpt lat="52.43773676422918" lon="13.034224682205396"><ele>34.0</ele><time>2026-04-03T11:13:47.999Z</time></trkpt><trkpt lat="52.43774116760387" lon="13.034062157841154"><ele>34.0</ele><time>2026-04-03T11:13:48.999Z</time></trkpt><trkpt lat="52.4377517902745" lon="13.033889941795612"><ele>34.0</ele><time>2026-04-03T11:13:49.999Z</time></trkpt><trkpt lat="52.43776856088581" lon="13.03372425833347"><ele>34.0</ele><time>2026-04-03T11:13:50.999Z</time></trkpt><trkpt lat="52.43777940281192" lon="13.033559521898296"><ele>34.0</ele><time>2026-04-03T11:13:51.999Z</time></trkpt><trkpt lat="52.43779921016489" lon="13.033400136779797"><ele>34.0</ele><time>2026-04-03T11:13:52.999Z</time></trkpt><trkpt lat="52.43781782969764" lon="13.033236481495729"><ele>34.0</ele><time>2026-04-03T11:13:53.999Z</time></trkpt><trkpt lat="52.43782613827165" lon="13.033068068532124"><ele>34.0</ele><time>2026-04-03T11:13:54.999Z</time></trkpt><trkpt lat="52.437831558459465" lon="13.032911809578545"><ele>34.0</ele><time>2026-04-03T11:13:55.999Z</time></trkpt><trkpt lat="52.43785081258769" lon="13.0327534228753"><ele>34.0</ele><time>2026-04-03T11:13:56.999Z</time></trkpt><trkpt lat="52.43786154090016" lon="13.032601225690158"><ele>34.0</ele><time>2026-04-03T11:13:57.999Z</time></trkpt><trkpt lat="52.437866536744465" lon="13.032465345206182"><ele>34.0</ele><time>2026-04-03T11:13:58.999Z</time></trkpt><trkpt lat="52.43789617713268" lon="13.032317312452077"><ele>34.0</ele><time>2026-04-03T11:13:59.999Z</time></trkpt><trkpt lat="52.437908967377965" lon="13.032154589182095"><ele>34.0</ele><time>2026-04-03T11:14:00.998Z</time></trkpt><trkpt lat="52.43791484090753" lon="13.032023721061629"><ele>34.0</ele><time>2026-04-03T11:14:01.998Z</time></trkpt><trkpt lat="52.43793451470851" lon="13.031872858274577"><ele>34.0</ele><time>2026-04-03T11:14:02.998Z</time></trkpt><trkpt lat="52.43793749278415" lon="13.031725428524627"><ele>34.0</ele><time>2026-04-03T11:14:03.998Z</time></trkpt><trkpt lat="52.43796218891376" lon="13.031577043237506"><ele>34.0</ele><time>2026-04-03T11:14:04.998Z</time></trkpt><trkpt lat="52.43795653389615" lon="13.031439937011958"><ele>34.0</ele><time>2026-04-03T11:14:05.998Z</time></trkpt><trkpt lat="52.43797478789728" lon="13.031284575960026"><ele>34.0</ele><time>2026-04-03T11:14:06.998Z</time></trkpt><trkpt lat="52.43797728907712" lon="13.031143914736631"><ele>34.0</ele><time>2026-04-03T11:14:07.998Z</time></trkpt><trkpt lat="52.43799985357004" lon="13.030992225281445"><ele>34.0</ele><time>2026-04-03T11:14:08.998Z</time></trkpt><trkpt lat="52.438002765049085" lon="13.030824281842747"><ele>33.6</ele><time>2026-04-03T11:14:09.998Z</time></trkpt><trkpt lat="52.438019456981955" lon="13.030664806848609"><ele>33.2</ele><time>2026-04-03T11:14:10.998Z</time></trkpt><trkpt lat="52.438046162500925" lon="13.030513185757924"><ele>32.800000000000004</ele><time>2026-04-03T11:14:11.998Z</time></trkpt><trkpt lat="52.43805569181032" lon="13.030344874642969"><ele>32.4</ele><time>2026-04-03T11:14:12.998Z</time></trkpt><trkpt lat="52.43807421367675" lon="13.030171319476068"><ele>32.0</ele><time>2026-04-03T11:14:13.998Z</time></trkpt><trkpt lat="52.43809649905479" lon="13.030026834136052"><ele>32.0</ele><time>2026-04-03T11:14:14.998Z</time></trkpt><trkpt lat="52.43811030297806" lon="13.029878370767799"><ele>32.0</ele><time>2026-04-03T11:14:15.998Z</time></trkpt><trkpt lat="52.43811741240563" lon="13.029702000415814"><ele>32.0</ele><time>2026-04-03T11:14:16.998Z</time></trkpt><trkpt lat="52.43812982734609" lon="13.029518355519453"><ele>32.0</ele><time>2026-04-03T11:14:17.998Z</time></trkpt><trkpt lat="52.43814220158298" lon="13.029346536377986"><ele>32.0</ele><time>2026-04-03T11:14:18.998Z</time></trkpt><trkpt lat="52.43815811020251" lon="13.029176105608894"><ele>32.4</ele><time>2026-04-03T11:14:19.998Z</time></trkpt><trkpt lat="52.4381697449739" lon="13.028990886821132"><ele>32.800000000000004</ele><time>2026-04-03T11:14:20.998Z</time></trkpt><trkpt lat="52.43817350927558" lon="13.028804148909884"><ele>33.2</ele><time>2026-04-03T11:14:21.998Z</time></trkpt><trkpt lat="52.43819516394116" lon="13.028640234149394"><ele>33.6</ele><time>2026-04-03T11:14:22.998Z</time></trkpt><trkpt lat="52.43819563700333" lon="13.028455677792529"><ele>34.0</ele><time>2026-04-03T11:14:23.998Z</time></trkpt><trkpt lat="52.43822490290645" lon="13.028300932410591"><ele>34.0</ele><time>2026-04-03T11:14:24.998Z</time></trkpt><trkpt lat="52.43823760105874" lon="13.028156117040412"><ele>34.0</ele><time>2026-04-03T11:14:25.998Z</time></trkpt><trkpt lat="52.438251460116604" lon="13.028006693834692"><ele>34.0</ele><time>2026-04-03T11:14:26.998Z</time></trkpt><trkpt lat="52.43826647860511" lon="13.027831189001922"><ele>34.0</ele><time>2026-04-03T11:14:27.998Z</time></trkpt><trkpt lat="52.43827092652863" lon="13.027641964032652"><ele>34.0</ele><time>2026-04-03T11:14:28.998Z</time></trkpt><trkpt lat="52.43829219604573" lon="13.027440855467297"><ele>33.8</ele><time>2026-04-03T11:14:29.998Z</time></trkpt><trkpt lat="52.43828749785777" lon="13.027266413544995"><ele>33.599999999999994</ele><time>2026-04-03T11:14:30.998Z</time></trkpt><trkpt lat="52.43829421607844" lon="13.027090270016812"><ele>33.4</ele><time>2026-04-03T11:14:31.998Z</time></trkpt><trkpt lat="52.438287646374015" lon="13.02691731477497"><ele>33.199999999999996</ele><time>2026-04-03T11:14:33Z</time></trkpt><trkpt lat="52.43827707304357" lon="13.026738920711034"><ele>33.0</ele><time>2026-04-03T11:14:34Z</time></trkpt><trkpt lat="52.43826679896783" lon="13.02655518603119"><ele>32.75</ele><time>2026-04-03T11:14:35Z</time></trkpt><trkpt lat="52.438229968502654" lon="13.026380219486482"><ele>32.5</ele><time>2026-04-03T11:14:36Z</time></trkpt><trkpt lat="52.43818603773887" lon="13.026208121884402"><ele>32.25</ele><time>2026-04-03T11:14:37Z</time></trkpt><trkpt lat="52.43812049252568" lon="13.026051486008592"><ele>32.0</ele><time>2026-04-03T11:14:38Z</time></trkpt><trkpt lat="52.43806929225667" lon="13.025885838803996"><ele>32.0</ele><time>2026-04-03T11:14:39Z</time></trkpt><trkpt lat="52.43802684916323" lon="13.02571322021754"><ele>32.0</ele><time>2026-04-03T11:14:40Z</time></trkpt><trkpt lat="52.437964626721005" lon="13.025559244704073"><ele>32.0</ele><time>2026-04-03T11:14:41Z</time></trkpt><trkpt lat="52.43790969521799" lon="13.025397059289617"><ele>32.0</ele><time>2026-04-03T11:14:42Z</time></trkpt><trkpt lat="52.43785593943225" lon="13.025230206003993"><ele>32.4</ele><time>2026-04-03T11:14:43Z</time></trkpt><trkpt lat="52.43780246369449" lon="13.02506616603727"><ele>32.800000000000004</ele><time>2026-04-03T11:14:44Z</time></trkpt><trkpt lat="52.43775463400499" lon="13.024896465564023"><ele>33.2</ele><time>2026-04-03T11:14:45Z</time></trkpt><trkpt lat="52.437701536382626" lon="13.024732814818686"><ele>33.6</ele><time>2026-04-03T11:14:46Z</time></trkpt><trkpt lat="52.43764903166675" lon="13.024583572192963"><ele>34.0</ele><time>2026-04-03T11:14:47Z</time></trkpt><trkpt lat="52.43759564847187" lon="13.024424194891857"><ele>34.0</ele><time>2026-04-03T11:14:48Z</time></trkpt><trkpt lat="52.437535714201864" lon="13.024258638484852"><ele>34.0</ele><time>2026-04-03T11:14:49Z</time></trkpt><trkpt lat="52.43748017218062" lon="13.024095894280435"><ele>34.0</ele><time>2026-04-03T11:14:50Z</time></trkpt><trkpt lat="52.43742218789153" lon="13.023936547318472"><ele>34.0</ele><time>2026-04-03T11:14:51Z</time></trkpt><trkpt lat="52.437370737914534" lon="13.023780010392136"><ele>34.2</ele><time>2026-04-03T11:14:52Z</time></trkpt><trkpt lat="52.43732168177246" lon="13.02361698682617"><ele>34.4</ele><time>2026-04-03T11:14:53Z</time></trkpt><trkpt lat="52.43726639635823" lon="13.023462762181698"><ele>34.6</ele><time>2026-04-03T11:14:54Z</time></trkpt><trkpt lat="52.43721357156322" lon="13.023300588979994"><ele>34.8</ele><time>2026-04-03T11:14:55Z</time></trkpt><trkpt lat="52.43716185930415" lon="13.023133510289478"><ele>35.0</ele><time>2026-04-03T11:14:56Z</time></trkpt><trkpt lat="52.437106945089674" lon="13.022974443492568"><ele>35.0</ele><time>2026-04-03T11:14:57Z</time></trkpt><trkpt lat="52.437051934404685" lon="13.022813278614132"><ele>35.0</ele><time>2026-04-03T11:14:58Z</time></trkpt><trkpt lat="52.436996229999835" lon="13.022638526163693"><ele>35.0</ele><time>2026-04-03T11:14:59Z</time></trkpt><trkpt lat="52.43693950632156" lon="13.022469116457636"><ele>35.0</ele><time>2026-04-03T11:15:00Z</time></trkpt><trkpt lat="52.43688437752656" lon="13.02229340524649"><ele>35.0</ele><time>2026-04-03T11:15:01Z</time></trkpt><trkpt lat="52.436825399937085" lon="13.022112830835034"><ele>35.0</ele><time>2026-04-03T11:15:02Z</time></trkpt><trkpt lat="52.43676365810867" lon="13.0219344937445"><ele>35.0</ele><time>2026-04-03T11:15:03Z</time></trkpt><trkpt lat="52.436707964416" lon="13.021768864149715"><ele>35.0</ele><time>2026-04-03T11:15:04Z</time></trkpt><trkpt lat="52.43665098162018" lon="13.021603228275495"><ele>35.0</ele><time>2026-04-03T11:15:05Z</time></trkpt><trkpt lat="52.43661019086543" lon="13.021426211528226"><ele>35.0</ele><time>2026-04-03T11:15:06Z</time></trkpt><trkpt lat="52.436553192310015" lon="13.021281175309888"><ele>35.0</ele><time>2026-04-03T11:15:07Z</time></trkpt><trkpt lat="52.43650101412471" lon="13.0211255256695"><ele>35.0</ele><time>2026-04-03T11:15:08Z</time></trkpt><trkpt lat="52.43644729833177" lon="13.020958664190607"><ele>35.0</ele><time>2026-04-03T11:15:09Z</time></trkpt><trkpt lat="52.43639436188841" lon="13.020789814676109"><ele>34.8</ele><time>2026-04-03T11:15:10Z</time></trkpt><trkpt lat="52.436334599041516" lon="13.020631590679615"><ele>34.6</ele><time>2026-04-03T11:15:11Z</time></trkpt><trkpt lat="52.436293330900035" lon="13.020453799939038"><ele>34.4</ele><time>2026-04-03T11:15:12Z</time></trkpt><trkpt lat="52.43623236179524" lon="13.020304204261707"><ele>34.2</ele><time>2026-04-03T11:15:13Z</time></trkpt><trkpt lat="52.436184750124816" lon="13.020144267417157"><ele>34.0</ele><time>2026-04-03T11:15:13.999Z</time></trkpt><trkpt lat="52.43613609659401" lon="13.019995421916613"><ele>33.6</ele><time>2026-04-03T11:15:14.999Z</time></trkpt><trkpt lat="52.4360763959069" lon="13.01982756711694"><ele>33.2</ele><time>2026-04-03T11:15:15.999Z</time></trkpt><trkpt lat="52.43602671963553" lon="13.019678920610657"><ele>32.800000000000004</ele><time>2026-04-03T11:15:16.999Z</time></trkpt><trkpt lat="52.43597954396923" lon="13.019530002602126"><ele>32.4</ele><time>2026-04-03T11:15:17.999Z</time></trkpt><trkpt lat="52.43592331018811" lon="13.019373827273165"><ele>32.0</ele><time>2026-04-03T11:15:18.999Z</time></trkpt><trkpt lat="52.435875145975906" lon="13.01923189292318"><ele>31.999999999999996</ele><time>2026-04-03T11:15:19.999Z</time></trkpt><trkpt lat="52.43583660740622" lon="13.0190971772775"><ele>32.0</ele><time>2026-04-03T11:15:20.999Z</time></trkpt><trkpt lat="52.43579066745573" lon="13.018962136137416"><ele>32.0</ele><time>2026-04-03T11:15:21.999Z</time></trkpt><trkpt lat="52.43575582730857" lon="13.018841880452554"><ele>32.0</ele><time>2026-04-03T11:15:22.999Z</time></trkpt><trkpt lat="52.435728884692665" lon="13.018725132770767"><ele>31.999999999999996</ele><time>2026-04-03T11:15:23.999Z</time></trkpt><trkpt lat="52.43569465014562" lon="13.018595025549203"><ele>32.0</ele><time>2026-04-03T11:15:24.999Z</time></trkpt><trkpt lat="52.435642839388066" lon="13.018481547254813"><ele>32.0</ele><time>2026-04-03T11:15:25.999Z</time></trkpt><trkpt lat="52.43558490048632" lon="13.018358061832945"><ele>32.0</ele><time>2026-04-03T11:15:26.999Z</time></trkpt><trkpt lat="52.4355489649806" lon="13.018193059341387"><ele>32.0</ele><time>2026-04-03T11:15:27.999Z</time></trkpt><trkpt lat="52.43550327592651" lon="13.018052641119862"><ele>32.0</ele><time>2026-04-03T11:15:28.999Z</time></trkpt><trkpt lat="52.435446916762764" lon="13.017925438803454"><ele>32.0</ele><time>2026-04-03T11:15:29.999Z</time></trkpt><trkpt lat="52.435402687767336" lon="13.017776309620531"><ele>32.0</ele><time>2026-04-03T11:15:30.999Z</time></trkpt><trkpt lat="52.43535387983499" lon="13.017633396479189"><ele>32.0</ele><time>2026-04-03T11:15:31.999Z</time></trkpt><trkpt lat="52.43530342042305" lon="13.017493772106048"><ele>32.0</ele><time>2026-04-03T11:15:32.999Z</time></trkpt><trkpt lat="52.43525687895563" lon="13.017347493024062"><ele>32.0</ele><time>2026-04-03T11:15:33.999Z</time></trkpt><trkpt lat="52.43521544883674" lon="13.017190681773604"><ele>32.0</ele><time>2026-04-03T11:15:34.999Z</time></trkpt><trkpt lat="52.43516035515746" lon="13.017037949004337"><ele>32.0</ele><time>2026-04-03T11:15:35.999Z</time></trkpt><trkpt lat="52.43510902956536" lon="13.016879413547406"><ele>32.0</ele><time>2026-04-03T11:15:36.999Z</time></trkpt><trkpt lat="52.43505881030017" lon="13.016727257619852"><ele>32.0</ele><time>2026-04-03T11:15:37.999Z</time></trkpt><trkpt lat="52.43501395310848" lon="13.016573380360054"><ele>32.0</ele><time>2026-04-03T11:15:38.999Z</time></trkpt><trkpt lat="52.434964286910194" lon="13.01642465550588"><ele>32.0</ele><time>2026-04-03T11:15:39.999Z</time></trkpt><trkpt lat="52.434915466877044" lon="13.016275040336014"><ele>32.2</ele><time>2026-04-03T11:15:40.999Z</time></trkpt><trkpt lat="52.43486582417407" lon="13.016131579819579"><ele>32.400000000000006</ele><time>2026-04-03T11:15:41.999Z</time></trkpt><trkpt lat="52.43481393530795" lon="13.015983082337835"><ele>32.599999999999994</ele><time>2026-04-03T11:15:42.999Z</time></trkpt><trkpt lat="52.43476155240661" lon="13.015822159865335"><ele>32.8</ele><time>2026-04-03T11:15:43.999Z</time></trkpt><trkpt lat="52.43471069845797" lon="13.015655255855243"><ele>33.0</ele><time>2026-04-03T11:15:44.999Z</time></trkpt><trkpt lat="52.434653614330664" lon="13.015483365488898"><ele>33.0</ele><time>2026-04-03T11:15:45.999Z</time></trkpt><trkpt lat="52.434596542107776" lon="13.015305482480683"><ele>33.0</ele><time>2026-04-03T11:15:46.999Z</time></trkpt><trkpt lat="52.43453759946521" lon="13.015121843946023"><ele>33.0</ele><time>2026-04-03T11:15:47.999Z</time></trkpt><trkpt lat="52.43447483780386" lon="13.014939964118414"><ele>33.0</ele><time>2026-04-03T11:15:48.999Z</time></trkpt><trkpt lat="52.434417332747536" lon="13.014748481463903"><ele>33.0</ele><time>2026-04-03T11:15:49.999Z</time></trkpt><trkpt lat="52.43435471433761" lon="13.014564751004311"><ele>33.0</ele><time>2026-04-03T11:15:50.999Z</time></trkpt><trkpt lat="52.43429307157654" lon="13.01437632134892"><ele>33.0</ele><time>2026-04-03T11:15:51.999Z</time></trkpt><trkpt lat="52.434231208301874" lon="13.014183970989224"><ele>33.0</ele><time>2026-04-03T11:15:52.999Z</time></trkpt><trkpt lat="52.434164607965904" lon="13.013987886190996"><ele>33.25</ele><time>2026-04-03T11:15:53.999Z</time></trkpt><trkpt lat="52.43409755990163" lon="13.013798316736308"><ele>33.5</ele><time>2026-04-03T11:15:54.999Z</time></trkpt><trkpt lat="52.43403146287893" lon="13.013602305064948"><ele>33.75</ele><time>2026-04-03T11:15:55.999Z</time></trkpt><trkpt lat="52.433968675729766" lon="13.013395091699756"><ele>34.0</ele><time>2026-04-03T11:15:56.999Z</time></trkpt><trkpt lat="52.43390074837092" lon="13.013188252942628"><ele>34.0</ele><time>2026-04-03T11:15:57.999Z</time></trkpt><trkpt lat="52.433830329210785" lon="13.012977849821114"><ele>34.0</ele><time>2026-04-03T11:15:58.999Z</time></trkpt><trkpt lat="52.43375695740928" lon="13.01275432158943"><ele>34.0</ele><time>2026-04-03T11:15:59.999Z</time></trkpt><trkpt lat="52.43368569827058" lon="13.012547297675255"><ele>34.0</ele><time>2026-04-03T11:16:00.999Z</time></trkpt><trkpt lat="52.4336192858896" lon="13.012341800171606"><ele>34.25</ele><time>2026-04-03T11:16:01.999Z</time></trkpt><trkpt lat="52.43354903739044" lon="13.012129628354982"><ele>34.5</ele><time>2026-04-03T11:16:02.999Z</time></trkpt><trkpt lat="52.43348027783092" lon="13.01192096280587"><ele>34.75</ele><time>2026-04-03T11:16:03.999Z</time></trkpt><trkpt lat="52.43341116306176" lon="13.011711901960185"><ele>35.0</ele><time>2026-04-03T11:16:04.999Z</time></trkpt><trkpt lat="52.43334039715335" lon="13.011497681898359"><ele>35.0</ele><time>2026-04-03T11:16:05.999Z</time></trkpt><trkpt lat="52.43327117295821" lon="13.011289835921579"><ele>35.0</ele><time>2026-04-03T11:16:06.999Z</time></trkpt><trkpt lat="52.433200492346465" lon="13.011087319998706"><ele>35.0</ele><time>2026-04-03T11:16:07.999Z</time></trkpt><trkpt lat="52.43313673637255" lon="13.010893268850753"><ele>35.0</ele><time>2026-04-03T11:16:08.998Z</time></trkpt><trkpt lat="52.43306868738143" lon="13.01069156682823"><ele>34.75</ele><time>2026-04-03T11:16:09.998Z</time></trkpt><trkpt lat="52.433004937697426" lon="13.01049614460601"><ele>34.5</ele><time>2026-04-03T11:16:10.998Z</time></trkpt><trkpt lat="52.432938028249275" lon="13.010302502853413"><ele>34.25</ele><time>2026-04-03T11:16:11.998Z</time></trkpt><trkpt lat="52.4328738276386" lon="13.0101075382468"><ele>34.0</ele><time>2026-04-03T11:16:12.998Z</time></trkpt><trkpt lat="52.43280917289435" lon="13.009918374063675"><ele>34.0</ele><time>2026-04-03T11:16:13.998Z</time></trkpt><trkpt lat="52.43275261539727" lon="13.00974789962602"><ele>34.0</ele><time>2026-04-03T11:16:14.998Z</time></trkpt><trkpt lat="52.432702340585706" lon="13.009597496485938"><ele>34.0</ele><time>2026-04-03T11:16:15.998Z</time></trkpt><trkpt lat="52.432661069386484" lon="13.009464759801581"><ele>34.0</ele><time>2026-04-03T11:16:16.998Z</time></trkpt><trkpt lat="52.43262063539602" lon="13.009344351513306"><ele>34.0</ele><time>2026-04-03T11:16:17.998Z</time></trkpt><trkpt lat="52.43258199306062" lon="13.009229595373887"><ele>34.0</ele><time>2026-04-03T11:16:18.998Z</time></trkpt><trkpt lat="52.43254725229167" lon="13.009126322570527"><ele>34.0</ele><time>2026-04-03T11:16:19.998Z</time></trkpt><trkpt lat="52.43250476429917" lon="13.008970026001176"><ele>34.0</ele><time>2026-04-03T11:16:21.998Z</time></trkpt><trkpt lat="52.432489186015616" lon="13.008844902490736"><ele>34.0</ele><time>2026-04-03T11:16:24.998Z</time></trkpt><trkpt lat="52.432472959578234" lon="13.008682706219671"><ele>34.0</ele><time>2026-04-03T11:16:35.998Z</time></trkpt><trkpt lat="52.432370866615955" lon="13.008522804651616"><ele>34.0</ele><time>2026-04-03T11:16:37.998Z</time></trkpt><trkpt lat="52.43230055755471" lon="13.008468966317713"><ele>34.0</ele><time>2026-04-03T11:16:39Z</time></trkpt><trkpt lat="52.43220555771159" lon="13.008400516991566"><ele>34.0</ele><time>2026-04-03T11:16:40Z</time></trkpt><trkpt lat="52.432106695023855" lon="13.00832927451064"><ele>34.0</ele><time>2026-04-03T11:16:41Z</time></trkpt><trkpt lat="52.43199030822465" lon="13.008274169151202"><ele>34.0</ele><time>2026-04-03T11:16:42Z</time></trkpt><trkpt lat="52.43187297839014" lon="13.008179034823888"><ele>33.5</ele><time>2026-04-03T11:16:43Z</time></trkpt><trkpt lat="52.43176173940897" lon="13.008096492076898"><ele>33.0</ele><time>2026-04-03T11:16:44Z</time></trkpt><trkpt lat="52.43164796688696" lon="13.008015027999152"><ele>32.5</ele><time>2026-04-03T11:16:45Z</time></trkpt><trkpt lat="52.43153387430523" lon="13.007935699481154"><ele>32.0</ele><time>2026-04-03T11:16:46Z</time></trkpt><trkpt lat="52.43142372760123" lon="13.007847095847337"><ele>32.0</ele><time>2026-04-03T11:16:47Z</time></trkpt><trkpt lat="52.431313556688586" lon="13.007762644467434"><ele>32.0</ele><time>2026-04-03T11:16:48Z</time></trkpt><trkpt lat="52.43121143604261" lon="13.007666368191297"><ele>32.0</ele><time>2026-04-03T11:16:49Z</time></trkpt><trkpt lat="52.431122603701986" lon="13.00752566996033"><ele>32.0</ele><time>2026-04-03T11:16:50Z</time></trkpt><trkpt lat="52.43103978182503" lon="13.007389460146824"><ele>32.25</ele><time>2026-04-03T11:16:51Z</time></trkpt><trkpt lat="52.43095890799542" lon="13.007260551798248"><ele>32.5</ele><time>2026-04-03T11:16:52Z</time></trkpt><trkpt lat="52.430891117666526" lon="13.007097412709024"><ele>32.75</ele><time>2026-04-03T11:16:53Z</time></trkpt><trkpt lat="52.43083552341067" lon="13.006923065490621"><ele>33.0</ele><time>2026-04-03T11:16:54Z</time></trkpt><trkpt lat="52.430787166088216" lon="13.00673483628024"><ele>32.5</ele><time>2026-04-03T11:16:55Z</time></trkpt><trkpt lat="52.43073389802836" lon="13.006541306908796"><ele>32.0</ele><time>2026-04-03T11:16:56Z</time></trkpt><trkpt lat="52.430679055870854" lon="13.006347845462386"><ele>31.5</ele><time>2026-04-03T11:16:57Z</time></trkpt><trkpt lat="52.430621585940735" lon="13.006153917037485"><ele>31.0</ele><time>2026-04-03T11:16:58Z</time></trkpt><trkpt lat="52.43056296809061" lon="13.005958322902247"><ele>31.0</ele><time>2026-04-03T11:16:59Z</time></trkpt><trkpt lat="52.430496639261264" lon="13.005763518904832"><ele>31.0</ele><time>2026-04-03T11:17:00Z</time></trkpt><trkpt lat="52.43040285113261" lon="13.0055723959357"><ele>31.0</ele><time>2026-04-03T11:17:01Z</time></trkpt><trkpt lat="52.43031908866138" lon="13.005403352346532"><ele>31.0</ele><time>2026-04-03T11:17:02Z</time></trkpt><trkpt lat="52.430217764544295" lon="13.005241310478112"><ele>31.25</ele><time>2026-04-03T11:17:03Z</time></trkpt><trkpt lat="52.43010936508834" lon="13.005096070773494"><ele>31.5</ele><time>2026-04-03T11:17:04Z</time></trkpt><trkpt lat="52.429996923332155" lon="13.004971562758852"><ele>31.75</ele><time>2026-04-03T11:17:05Z</time></trkpt><trkpt lat="52.429890807378925" lon="13.00487264728868"><ele>32.0</ele><time>2026-04-03T11:17:06Z</time></trkpt><trkpt lat="52.42978982509776" lon="13.004769760593453"><ele>32.0</ele><time>2026-04-03T11:17:07Z</time></trkpt><trkpt lat="52.42968819696373" lon="13.004673024471284"><ele>32.0</ele><time>2026-04-03T11:17:08Z</time></trkpt><trkpt lat="52.42958366863019" lon="13.004575923701994"><ele>32.0</ele><time>2026-04-03T11:17:09Z</time></trkpt><trkpt lat="52.429478920990945" lon="13.004491799978826"><ele>32.0</ele><time>2026-04-03T11:17:10Z</time></trkpt><trkpt lat="52.429382749565136" lon="13.004411476366442"><ele>32.0</ele><time>2026-04-03T11:17:11Z</time></trkpt><trkpt lat="52.42929650859191" lon="13.004311060350238"><ele>32.0</ele><time>2026-04-03T11:17:12Z</time></trkpt><trkpt lat="52.429200079572716" lon="13.004248115866739"><ele>32.0</ele><time>2026-04-03T11:17:13Z</time></trkpt><trkpt lat="52.4291127260425" lon="13.004142442929659"><ele>32.0</ele><time>2026-04-03T11:17:14Z</time></trkpt><trkpt lat="52.429026122291035" lon="13.004058544521104"><ele>32.0</ele><time>2026-04-03T11:17:15Z</time></trkpt><trkpt lat="52.428941447057554" lon="13.00397461504317"><ele>31.8</ele><time>2026-04-03T11:17:16Z</time></trkpt><trkpt lat="52.42886157296284" lon="13.0038935139673"><ele>31.6</ele><time>2026-04-03T11:17:17Z</time></trkpt><trkpt lat="52.42877679042553" lon="13.003808484739837"><ele>31.400000000000002</ele><time>2026-04-03T11:17:17.999Z</time></trkpt><trkpt lat="52.428681899506174" lon="13.003740395058182"><ele>31.200000000000003</ele><time>2026-04-03T11:17:18.999Z</time></trkpt><trkpt lat="52.428599716539146" lon="13.003638296486779"><ele>31.0</ele><time>2026-04-03T11:17:19.999Z</time></trkpt><trkpt lat="52.428509915992464" lon="13.003572385861817"><ele>31.0</ele><time>2026-04-03T11:17:20.999Z</time></trkpt><trkpt lat="52.42843395992853" lon="13.003480575822985"><ele>31.0</ele><time>2026-04-03T11:17:21.999Z</time></trkpt><trkpt lat="52.42834624014558" lon="13.00340042766949"><ele>31.0</ele><time>2026-04-03T11:17:22.999Z</time></trkpt><trkpt lat="52.42824824987741" lon="13.003311545338134"><ele>31.0</ele><time>2026-04-03T11:17:23.999Z</time></trkpt><trkpt lat="52.428159501735465" lon="13.00323104593753"><ele>31.0</ele><time>2026-04-03T11:17:24.999Z</time></trkpt><trkpt lat="52.428071320632796" lon="13.003151059568372"><ele>31.000000000000004</ele><time>2026-04-03T11:17:25.999Z</time></trkpt><trkpt lat="52.427989669226044" lon="13.003078948761832"><ele>31.0</ele><time>2026-04-03T11:17:26.999Z</time></trkpt><trkpt lat="52.42792079662083" lon="13.003013212670755"><ele>31.0</ele><time>2026-04-03T11:17:27.999Z</time></trkpt><trkpt lat="52.42784597088941" lon="13.002938492892282"><ele>31.0</ele><time>2026-04-03T11:17:28.999Z</time></trkpt><trkpt lat="52.427774192731775" lon="13.002892470690824"><ele>31.000000000000004</ele><time>2026-04-03T11:17:29.999Z</time></trkpt><trkpt lat="52.42772686481809" lon="13.00281418556078"><ele>31.0</ele><time>2026-04-03T11:17:30.999Z</time></trkpt><trkpt lat="52.42763123826444" lon="13.002712355544825"><ele>31.0</ele><time>2026-04-03T11:17:32.999Z</time></trkpt><trkpt lat="52.42754850987598" lon="13.00262332315868"><ele>31.0</ele><time>2026-04-03T11:17:34.999Z</time></trkpt><trkpt lat="52.427480344649126" lon="13.00254286131784"><ele>31.0</ele><time>2026-04-03T11:17:36.999Z</time></trkpt><trkpt lat="52.42742373758549" lon="13.002464438405156"><ele>31.0</ele><time>2026-04-03T11:17:38.999Z</time></trkpt><trkpt lat="52.42739919927786" lon="13.002302657223042"><ele>31.0</ele><time>2026-04-03T11:17:40.999Z</time></trkpt><trkpt lat="52.427519817328424" lon="13.002131374539108"><ele>31.0</ele><time>2026-04-03T11:17:41.999Z</time></trkpt><trkpt lat="52.42757942655608" lon="13.001987102090986"><ele>31.0</ele><time>2026-04-03T11:17:42.999Z</time></trkpt><trkpt lat="52.42763983771498" lon="13.001839361098005"><ele>31.0</ele><time>2026-04-03T11:17:43.999Z</time></trkpt><trkpt lat="52.42770388691718" lon="13.001682400665645"><ele>31.0</ele><time>2026-04-03T11:17:44.999Z</time></trkpt><trkpt lat="52.427764929748186" lon="13.001530441079236"><ele>31.0</ele><time>2026-04-03T11:17:45.999Z</time></trkpt><trkpt lat="52.42782547960118" lon="13.00138766599206"><ele>30.8</ele><time>2026-04-03T11:17:46.999Z</time></trkpt><trkpt lat="52.427886246023924" lon="13.00125328296108"><ele>30.6</ele><time>2026-04-03T11:17:47.999Z</time></trkpt><trkpt lat="52.42795351757401" lon="13.001118663909278"><ele>30.4</ele><time>2026-04-03T11:17:48.999Z</time></trkpt><trkpt lat="52.42802441632018" lon="13.000979312984672"><ele>30.2</ele><time>2026-04-03T11:17:49.999Z</time></trkpt><trkpt lat="52.42810079788488" lon="13.000843485052393"><ele>30.0</ele><time>2026-04-03T11:17:50.999Z</time></trkpt><trkpt lat="52.42818601475454" lon="13.000720150433288"><ele>30.0</ele><time>2026-04-03T11:17:51.999Z</time></trkpt><trkpt lat="52.42827821300552" lon="13.00060525842681"><ele>30.0</ele><time>2026-04-03T11:17:52.999Z</time></trkpt><trkpt lat="52.42837431713871" lon="13.000503662034253"><ele>30.0</ele><time>2026-04-03T11:17:53.999Z</time></trkpt><trkpt lat="52.42847424754262" lon="13.000410016845851"><ele>30.0</ele><time>2026-04-03T11:17:54.999Z</time></trkpt><trkpt lat="52.428578812575495" lon="13.000320183875514"><ele>30.0</ele><time>2026-04-03T11:17:55.999Z</time></trkpt><trkpt lat="52.428685007636304" lon="13.000229928126618"><ele>30.0</ele><time>2026-04-03T11:17:56.999Z</time></trkpt><trkpt lat="52.42879093954824" lon="13.000136740421853"><ele>30.0</ele><time>2026-04-03T11:17:57.999Z</time></trkpt><trkpt lat="52.4289031657561" lon="13.000039979796677"><ele>30.0</ele><time>2026-04-03T11:17:58.999Z</time></trkpt><trkpt lat="52.429023861893505" lon="12.999933247618223"><ele>29.75</ele><time>2026-04-03T11:17:59.999Z</time></trkpt><trkpt lat="52.429150615949766" lon="12.999820857670095"><ele>29.5</ele><time>2026-04-03T11:18:00.999Z</time></trkpt><trkpt lat="52.42927922397681" lon="12.99970611928583"><ele>29.25</ele><time>2026-04-03T11:18:01.999Z</time></trkpt><trkpt lat="52.429412355876686" lon="12.999589883500718"><ele>29.0</ele><time>2026-04-03T11:18:02.999Z</time></trkpt><trkpt lat="52.429547557029046" lon="12.999463215223974"><ele>29.0</ele><time>2026-04-03T11:18:03.999Z</time></trkpt><trkpt lat="52.429684833286366" lon="12.999318440038154"><ele>29.0</ele><time>2026-04-03T11:18:04.999Z</time></trkpt><trkpt lat="52.42981862645336" lon="12.99915420918074"><ele>29.0</ele><time>2026-04-03T11:18:05.999Z</time></trkpt><trkpt lat="52.42994682129378" lon="12.998969933793328"><ele>29.333333333333332</ele><time>2026-04-03T11:18:06.999Z</time></trkpt><trkpt lat="52.430069683566984" lon="12.998774156959405"><ele>29.666666666666664</ele><time>2026-04-03T11:18:07.999Z</time></trkpt><trkpt lat="52.43019235016087" lon="12.998579470344474"><ele>30.0</ele><time>2026-04-03T11:18:08.999Z</time></trkpt><trkpt lat="52.430317588887334" lon="12.998384861158748"><ele>30.0</ele><time>2026-04-03T11:18:09.999Z</time></trkpt><trkpt lat="52.43044394783352" lon="12.998189290936951"><ele>30.0</ele><time>2026-04-03T11:18:10.999Z</time></trkpt><trkpt lat="52.43056698853287" lon="12.997997413216199"><ele>30.0</ele><time>2026-04-03T11:18:11.998Z</time></trkpt><trkpt lat="52.4306905824486" lon="12.99780362243825"><ele>30.0</ele><time>2026-04-03T11:18:12.998Z</time></trkpt><trkpt lat="52.430815317033186" lon="12.997606252292321"><ele>30.0</ele><time>2026-04-03T11:18:13.998Z</time></trkpt><trkpt lat="52.430939464506764" lon="12.997408470594307"><ele>30.0</ele><time>2026-04-03T11:18:14.998Z</time></trkpt><trkpt lat="52.43106632805389" lon="12.997208361837071"><ele>30.0</ele><time>2026-04-03T11:18:15.998Z</time></trkpt><trkpt lat="52.43119978014299" lon="12.99699974047998"><ele>30.0</ele><time>2026-04-03T11:18:16.998Z</time></trkpt><trkpt lat="52.43133331778876" lon="12.996792003200188"><ele>30.0</ele><time>2026-04-03T11:18:17.998Z</time></trkpt><trkpt lat="52.43147051593846" lon="12.996580376090876"><ele>30.333333333333336</ele><time>2026-04-03T11:18:18.998Z</time></trkpt><trkpt lat="52.43161001490647" lon="12.996361887294281"><ele>30.666666666666668</ele><time>2026-04-03T11:18:19.998Z</time></trkpt><trkpt lat="52.43175283990856" lon="12.996138982012226"><ele>31.0</ele><time>2026-04-03T11:18:20.998Z</time></trkpt><trkpt lat="52.43189745139307" lon="12.995907692214622"><ele>31.0</ele><time>2026-04-03T11:18:21.998Z</time></trkpt><trkpt lat="52.43204442104789" lon="12.995673115751272"><ele>31.0</ele><time>2026-04-03T11:18:22.998Z</time></trkpt><trkpt lat="52.432194035060725" lon="12.995439474125153"><ele>31.0</ele><time>2026-04-03T11:18:23.998Z</time></trkpt><trkpt lat="52.43234517039079" lon="12.995202923891908"><ele>31.666666666666668</ele><time>2026-04-03T11:18:24.998Z</time></trkpt><trkpt lat="52.432495941568334" lon="12.994967269815783"><ele>32.333333333333336</ele><time>2026-04-03T11:18:25.998Z</time></trkpt><trkpt lat="52.43265025842253" lon="12.994726269905126"><ele>33.0</ele><time>2026-04-03T11:18:26.998Z</time></trkpt><trkpt lat="52.43280449454035" lon="12.99448499894212"><ele>33.0</ele><time>2026-04-03T11:18:27.998Z</time></trkpt><trkpt lat="52.43295955151746" lon="12.99424334215583"><ele>33.0</ele><time>2026-04-03T11:18:28.998Z</time></trkpt><trkpt lat="52.43311403394528" lon="12.994001884832489"><ele>33.0</ele><time>2026-04-03T11:18:29.998Z</time></trkpt><trkpt lat="52.43326908982183" lon="12.993761575621663"><ele>33.666666666666664</ele><time>2026-04-03T11:18:30.998Z</time></trkpt><trkpt lat="52.433426840503905" lon="12.993518022334058"><ele>34.33333333333333</ele><time>2026-04-03T11:18:31.998Z</time></trkpt><trkpt lat="52.433588401353916" lon="12.993278936903792"><ele>35.0</ele><time>2026-04-03T11:18:32.998Z</time></trkpt><trkpt lat="52.43375052896338" lon="12.993044409821689"><ele>35.666666666666664</ele><time>2026-04-03T11:18:33.998Z</time></trkpt><trkpt lat="52.43391549535856" lon="12.99281215765551"><ele>36.333333333333336</ele><time>2026-04-03T11:18:34.998Z</time></trkpt><trkpt lat="52.43408238520151" lon="12.992588164012325"><ele>37.0</ele><time>2026-04-03T11:18:35.998Z</time></trkpt><trkpt lat="52.434251605613284" lon="12.992365570752858"><ele>37.333333333333336</ele><time>2026-04-03T11:18:36.998Z</time></trkpt><trkpt lat="52.43441982531449" lon="12.992143348205584"><ele>37.666666666666664</ele><time>2026-04-03T11:18:37.998Z</time></trkpt><trkpt lat="52.43458961718457" lon="12.991916878125569"><ele>38.0</ele><time>2026-04-03T11:18:38.998Z</time></trkpt><trkpt lat="52.434759009819" lon="12.99169729192151"><ele>39.0</ele><time>2026-04-03T11:18:39.998Z</time></trkpt><trkpt lat="52.43493446513132" lon="12.991468769167712"><ele>40.0</ele><time>2026-04-03T11:18:40.998Z</time></trkpt><trkpt lat="52.43510744045168" lon="12.991245866404473"><ele>41.0</ele><time>2026-04-03T11:18:41.998Z</time></trkpt><trkpt lat="52.43527272431562" lon="12.99102873560803"><ele>40.666666666666664</ele><time>2026-04-03T11:18:42.998Z</time></trkpt><trkpt lat="52.435429215292615" lon="12.990813632865043"><ele>40.333333333333336</ele><time>2026-04-03T11:18:43.998Z</time></trkpt><trkpt lat="52.43559135129848" lon="12.990596634209776"><ele>40.0</ele><time>2026-04-03T11:18:45Z</time></trkpt><trkpt lat="52.43577774039115" lon="12.990425062862998"><ele>40.0</ele><time>2026-04-03T11:18:46Z</time></trkpt><trkpt lat="52.43596584370805" lon="12.99023005352472"><ele>40.0</ele><time>2026-04-03T11:18:47Z</time></trkpt><trkpt lat="52.43617086019361" lon="12.990074017940167"><ele>40.0</ele><time>2026-04-03T11:18:48Z</time></trkpt><trkpt lat="52.43637880337229" lon="12.989900851111912"><ele>41.5</ele><time>2026-04-03T11:18:49Z</time></trkpt><trkpt lat="52.436579533407325" lon="12.989727029172066"><ele>43.0</ele><time>2026-04-03T11:18:50Z</time></trkpt><trkpt lat="52.436783026713854" lon="12.989556645936508"><ele>43.0</ele><time>2026-04-03T11:18:51Z</time></trkpt><trkpt lat="52.43698098897175" lon="12.989389770084731"><ele>43.0</ele><time>2026-04-03T11:18:52Z</time></trkpt><trkpt lat="52.43716275680828" lon="12.989235403711449"><ele>43.0</ele><time>2026-04-03T11:18:53Z</time></trkpt><trkpt lat="52.437338705067056" lon="12.989100583648131"><ele>41.66666666666667</ele><time>2026-04-03T11:18:54Z</time></trkpt><trkpt lat="52.43750863583756" lon="12.988997679278198"><ele>40.333333333333336</ele><time>2026-04-03T11:18:55Z</time></trkpt><trkpt lat="52.437666591926785" lon="12.988947645723552"><ele>39.0</ele><time>2026-04-03T11:18:56Z</time></trkpt><trkpt lat="52.43781065534585" lon="12.98891145866204"><ele>39.0</ele><time>2026-04-03T11:18:57Z</time></trkpt><trkpt lat="52.43795103250619" lon="12.988878345791267"><ele>39.0</ele><time>2026-04-03T11:18:58Z</time></trkpt><trkpt lat="52.438091804720976" lon="12.988834458800714"><ele>39.0</ele><time>2026-04-03T11:18:59Z</time></trkpt><trkpt lat="52.43822532753286" lon="12.988786691276575"><ele>39.0</ele><time>2026-04-03T11:19:00Z</time></trkpt><trkpt lat="52.43836950265465" lon="12.98874017059722"><ele>36.333333333333336</ele><time>2026-04-03T11:19:01Z</time></trkpt><trkpt lat="52.438520778595674" lon="12.988688457003454"><ele>33.66666666666667</ele><time>2026-04-03T11:19:02Z</time></trkpt><trkpt lat="52.4386802965459" lon="12.988633429940865"><ele>31.0</ele><time>2026-04-03T11:19:03Z</time></trkpt><trkpt lat="52.43884605403957" lon="12.98857534133408"><ele>30.333333333333336</ele><time>2026-04-03T11:19:04Z</time></trkpt><trkpt lat="52.439019910033245" lon="12.988516387439708"><ele>29.666666666666664</ele><time>2026-04-03T11:19:05Z</time></trkpt><trkpt lat="52.439203445287994" lon="12.98845307684265"><ele>29.0</ele><time>2026-04-03T11:19:06Z</time></trkpt><trkpt lat="52.43939091591534" lon="12.98839131768765"><ele>29.0</ele><time>2026-04-03T11:19:07Z</time></trkpt><trkpt lat="52.43958161008023" lon="12.988326585940284"><ele>29.0</ele><time>2026-04-03T11:19:08Z</time></trkpt><trkpt lat="52.43977474336157" lon="12.988254627127867"><ele>29.0</ele><time>2026-04-03T11:19:09Z</time></trkpt><trkpt lat="52.439973421719856" lon="12.9881773635499"><ele>28.666666666666664</ele><time>2026-04-03T11:19:10Z</time></trkpt><trkpt lat="52.44017735413842" lon="12.988084649012771"><ele>28.333333333333336</ele><time>2026-04-03T11:19:11Z</time></trkpt><trkpt lat="52.440372010107524" lon="12.987964275596081"><ele>28.0</ele><time>2026-04-03T11:19:12Z</time></trkpt><trkpt lat="52.44055401607205" lon="12.987833332924119"><ele>28.0</ele><time>2026-04-03T11:19:13Z</time></trkpt><trkpt lat="52.44073014657327" lon="12.987693826394349"><ele>28.0</ele><time>2026-04-03T11:19:14Z</time></trkpt><trkpt lat="52.4409046052237" lon="12.987547210696615"><ele>28.0</ele><time>2026-04-03T11:19:15Z</time></trkpt><trkpt lat="52.44107664747425" lon="12.98740685455261"><ele>28.0</ele><time>2026-04-03T11:19:16Z</time></trkpt><trkpt lat="52.441238644882304" lon="12.987275829674841"><ele>28.0</ele><time>2026-04-03T11:19:17Z</time></trkpt><trkpt lat="52.44139849050927" lon="12.987142986030396"><ele>28.0</ele><time>2026-04-03T11:19:18Z</time></trkpt><trkpt lat="52.44155864984175" lon="12.987010505303909"><ele>28.0</ele><time>2026-04-03T11:19:19Z</time></trkpt><trkpt lat="52.44171894558218" lon="12.986874848847547"><ele>28.0</ele><time>2026-04-03T11:19:20Z</time></trkpt><trkpt lat="52.44187995943286" lon="12.986739381331653"><ele>28.0</ele><time>2026-04-03T11:19:21Z</time></trkpt><trkpt lat="52.44204182229317" lon="12.986601033506846"><ele>28.0</ele><time>2026-04-03T11:19:22Z</time></trkpt><trkpt lat="52.44220934654307" lon="12.986461145097843"><ele>28.0</ele><time>2026-04-03T11:19:23Z</time></trkpt><trkpt lat="52.44237981892585" lon="12.986317162267587"><ele>28.0</ele><time>2026-04-03T11:19:24Z</time></trkpt><trkpt lat="52.442554432936426" lon="12.986173872334524"><ele>28.0</ele><time>2026-04-03T11:19:25Z</time></trkpt><trkpt lat="52.44273717145352" lon="12.986032676591563"><ele>28.0</ele><time>2026-04-03T11:19:25.999Z</time></trkpt><trkpt lat="52.44292690170351" lon="12.985899356436684"><ele>28.0</ele><time>2026-04-03T11:19:26.999Z</time></trkpt><trkpt lat="52.44312464952518" lon="12.985776771145366"><ele>28.0</ele><time>2026-04-03T11:19:27.999Z</time></trkpt><trkpt lat="52.44332666949009" lon="12.985656485284574"><ele>28.0</ele><time>2026-04-03T11:19:28.999Z</time></trkpt><trkpt lat="52.44353010149826" lon="12.985535308015084"><ele>28.0</ele><time>2026-04-03T11:19:29.999Z</time></trkpt><trkpt lat="52.44373428192689" lon="12.985413700778944"><ele>27.666666666666668</ele><time>2026-04-03T11:19:30.999Z</time></trkpt><trkpt lat="52.443939586485115" lon="12.985293676898769"><ele>27.333333333333336</ele><time>2026-04-03T11:19:31.999Z</time></trkpt><trkpt lat="52.444147188780626" lon="12.985171402488332"><ele>27.0</ele><time>2026-04-03T11:19:32.999Z</time></trkpt><trkpt lat="52.444355587178826" lon="12.98504650206137"><ele>27.0</ele><time>2026-04-03T11:19:33.999Z</time></trkpt><trkpt lat="52.444561752945596" lon="12.984923533512603"><ele>27.0</ele><time>2026-04-03T11:19:34.999Z</time></trkpt><trkpt lat="52.44476543592032" lon="12.984804071075553"><ele>27.0</ele><time>2026-04-03T11:19:35.999Z</time></trkpt><trkpt lat="52.444967419566375" lon="12.984685360020942"><ele>27.666666666666664</ele><time>2026-04-03T11:19:36.999Z</time></trkpt><trkpt lat="52.44516995874871" lon="12.984568256515866"><ele>28.333333333333332</ele><time>2026-04-03T11:19:37.999Z</time></trkpt><trkpt lat="52.445374010221094" lon="12.984445591820615"><ele>29.0</ele><time>2026-04-03T11:19:38.999Z</time></trkpt><trkpt lat="52.44557693949819" lon="12.984315171526763"><ele>29.0</ele><time>2026-04-03T11:19:39.999Z</time></trkpt><trkpt lat="52.44576057907404" lon="12.984196162048843"><ele>29.0</ele><time>2026-04-03T11:19:40.999Z</time></trkpt><trkpt lat="52.44592727062859" lon="12.98408078994252"><ele>29.0</ele><time>2026-04-03T11:19:41.999Z</time></trkpt><trkpt lat="52.446081330939336" lon="12.983976706341798"><ele>29.0</ele><time>2026-04-03T11:19:42.999Z</time></trkpt><trkpt lat="52.44622588479546" lon="12.983879091457814"><ele>29.0</ele><time>2026-04-03T11:19:43.999Z</time></trkpt><trkpt lat="52.44634589661722" lon="12.983800637339295"><ele>29.0</ele><time>2026-04-03T11:19:44.999Z</time></trkpt><trkpt lat="52.44643637904847" lon="12.983739534963197"><ele>29.0</ele><time>2026-04-03T11:19:45.999Z</time></trkpt><trkpt lat="52.446514475847216" lon="12.983710126284844"><ele>28.799999999999997</ele><time>2026-04-03T11:19:46.999Z</time></trkpt><trkpt lat="52.446562317798616" lon="12.983598671698358"><ele>28.599999999999998</ele><time>2026-04-03T11:19:47.999Z</time></trkpt><trkpt lat="52.44660734318789" lon="12.983468666443782"><ele>28.4</ele><time>2026-04-03T11:19:48.999Z</time></trkpt><trkpt lat="52.446670627835495" lon="12.983328118464378"><ele>28.2</ele><time>2026-04-03T11:19:49.999Z</time></trkpt><trkpt lat="52.446763970798344" lon="12.98319621680593"><ele>28.0</ele><time>2026-04-03T11:19:50.999Z</time></trkpt><trkpt lat="52.44686681243234" lon="12.983048240897793"><ele>28.25</ele><time>2026-04-03T11:19:51.999Z</time></trkpt><trkpt lat="52.44696204198543" lon="12.982907296298395"><ele>28.5</ele><time>2026-04-03T11:19:52.999Z</time></trkpt><trkpt lat="52.44705869202565" lon="12.982759066640986"><ele>28.75</ele><time>2026-04-03T11:19:53.999Z</time></trkpt><trkpt lat="52.447156351213515" lon="12.982593281839783"><ele>29.0</ele><time>2026-04-03T11:19:54.999Z</time></trkpt><trkpt lat="52.44724995047316" lon="12.982425726114922"><ele>29.5</ele><time>2026-04-03T11:19:55.999Z</time></trkpt><trkpt lat="52.44734382715629" lon="12.982265393039585"><ele>30.0</ele><time>2026-04-03T11:19:56.999Z</time></trkpt><trkpt lat="52.447440535980085" lon="12.98210205637381"><ele>30.5</ele><time>2026-04-03T11:19:57.999Z</time></trkpt><trkpt lat="52.44754532571652" lon="12.981937181791277"><ele>31.0</ele><time>2026-04-03T11:19:58.999Z</time></trkpt><trkpt lat="52.44762901340289" lon="12.981784289034012"><ele>31.4</ele><time>2026-04-03T11:19:59.999Z</time></trkpt><trkpt lat="52.447705238322904" lon="12.98165338737451"><ele>31.8</ele><time>2026-04-03T11:20:00.999Z</time></trkpt><trkpt lat="52.44777850511122" lon="12.981532511459061"><ele>32.199999999999996</ele><time>2026-04-03T11:20:01.999Z</time></trkpt><trkpt lat="52.44784418480227" lon="12.981417580245811"><ele>32.6</ele><time>2026-04-03T11:20:02.999Z</time></trkpt><trkpt lat="52.447901629498254" lon="12.981316953073659"><ele>33.0</ele><time>2026-04-03T11:20:03.999Z</time></trkpt><trkpt lat="52.44795484872474" lon="12.981235748578523"><ele>32.75</ele><time>2026-04-03T11:20:04.999Z</time></trkpt><trkpt lat="52.44803906468871" lon="12.981115268440792"><ele>32.5</ele><time>2026-04-03T11:20:06.999Z</time></trkpt><trkpt lat="52.44800751252894" lon="12.98080028375401"><ele>32.25</ele><time>2026-04-03T11:20:08.999Z</time></trkpt><trkpt lat="52.44800075192696" lon="12.980621062267765"><ele>32.0</ele><time>2026-04-03T11:20:09.999Z</time></trkpt><trkpt lat="52.448053007373474" lon="12.980439272290214"><ele>32.0</ele><time>2026-04-03T11:20:10.999Z</time></trkpt><trkpt lat="52.44807242405976" lon="12.980238473910646"><ele>32.0</ele><time>2026-04-03T11:20:11.999Z</time></trkpt><trkpt lat="52.44810256162847" lon="12.980028702475085"><ele>32.0</ele><time>2026-04-03T11:20:12.999Z</time></trkpt><trkpt lat="52.44811151187272" lon="12.979822247991185"><ele>32.0</ele><time>2026-04-03T11:20:13.999Z</time></trkpt><trkpt lat="52.448107833294415" lon="12.979618427400275"><ele>32.0</ele><time>2026-04-03T11:20:14.999Z</time></trkpt><trkpt lat="52.44809611345536" lon="12.979385093620492"><ele>32.0</ele><time>2026-04-03T11:20:15.999Z</time></trkpt><trkpt lat="52.44809351336572" lon="12.979145690230487"><ele>32.0</ele><time>2026-04-03T11:20:16.999Z</time></trkpt><trkpt lat="52.448085050623135" lon="12.978899348327213"><ele>32.0</ele><time>2026-04-03T11:20:17.999Z</time></trkpt><trkpt lat="52.44807285693417" lon="12.978645805181666"><ele>32.0</ele><time>2026-04-03T11:20:18.999Z</time></trkpt><trkpt lat="52.448073875905386" lon="12.978391899867106"><ele>32.0</ele><time>2026-04-03T11:20:19.999Z</time></trkpt><trkpt lat="52.448070057327705" lon="12.978147024141506"><ele>32.0</ele><time>2026-04-03T11:20:20.998Z</time></trkpt><trkpt lat="52.44804896880798" lon="12.977892165456007"><ele>31.666666666666664</ele><time>2026-04-03T11:20:21.998Z</time></trkpt><trkpt lat="52.4480370457935" lon="12.977620605470971"><ele>31.333333333333336</ele><time>2026-04-03T11:20:22.998Z</time></trkpt><trkpt lat="52.44802401958248" lon="12.977335227412809"><ele>31.0</ele><time>2026-04-03T11:20:23.998Z</time></trkpt><trkpt lat="52.44801492665504" lon="12.977045581991812"><ele>31.0</ele><time>2026-04-03T11:20:24.998Z</time></trkpt><trkpt lat="52.44800904788042" lon="12.97674555326309"><ele>31.0</ele><time>2026-04-03T11:20:25.998Z</time></trkpt><trkpt lat="52.44799670774646" lon="12.976471497191774"><ele>31.0</ele><time>2026-04-03T11:20:26.998Z</time></trkpt><trkpt lat="52.44799105338518" lon="12.9762244924065"><ele>31.0</ele><time>2026-04-03T11:20:27.998Z</time></trkpt><trkpt lat="52.447987584825576" lon="12.976000208077894"><ele>31.0</ele><time>2026-04-03T11:20:28.998Z</time></trkpt><trkpt lat="52.44798341897868" lon="12.975806121766373"><ele>31.0</ele><time>2026-04-03T11:20:29.998Z</time></trkpt><trkpt lat="52.4479974850966" lon="12.97563769226515"><ele>31.0</ele><time>2026-04-03T11:20:30.998Z</time></trkpt><trkpt lat="52.448029342189585" lon="12.975483976021492"><ele>31.000000000000004</ele><time>2026-04-03T11:20:31.998Z</time></trkpt><trkpt lat="52.44806124517406" lon="12.975338828221737"><ele>31.0</ele><time>2026-04-03T11:20:32.998Z</time></trkpt><trkpt lat="52.44808463103708" lon="12.975215816845436"><ele>31.0</ele><time>2026-04-03T11:20:33.998Z</time></trkpt><trkpt lat="52.448104811055096" lon="12.975110546946416"><ele>31.0</ele><time>2026-04-03T11:20:34.998Z</time></trkpt><trkpt lat="52.44814471859534" lon="12.974917681229204"><ele>31.000000000000004</ele><time>2026-04-03T11:20:36.998Z</time></trkpt><trkpt lat="52.44816603188446" lon="12.974807273315022"><ele>31.0</ele><time>2026-04-03T11:20:37.998Z</time></trkpt><trkpt lat="52.448193013947424" lon="12.97465317756395"><ele>30.75</ele><time>2026-04-03T11:20:38.998Z</time></trkpt><trkpt lat="52.44822775144803" lon="12.974455627524566"><ele>30.5</ele><time>2026-04-03T11:20:39.998Z</time></trkpt><trkpt lat="52.44826789591077" lon="12.974238679471371"><ele>30.25</ele><time>2026-04-03T11:20:40.998Z</time></trkpt><trkpt lat="52.448319650342675" lon="12.973990354119668"><ele>30.0</ele><time>2026-04-03T11:20:41.998Z</time></trkpt><trkpt lat="52.44836981512724" lon="12.973730443889728"><ele>29.666666666666664</ele><time>2026-04-03T11:20:42.998Z</time></trkpt><trkpt lat="52.44842072318689" lon="12.973464363376152"><ele>29.333333333333332</ele><time>2026-04-03T11:20:43.998Z</time></trkpt><trkpt lat="52.44847209760466" lon="12.973214175617661"><ele>29.0</ele><time>2026-04-03T11:20:44.998Z</time></trkpt><trkpt lat="52.44851258106296" lon="12.972990305574642"><ele>28.666666666666664</ele><time>2026-04-03T11:20:45.998Z</time></trkpt><trkpt lat="52.44855342857077" lon="12.97276289429411"><ele>28.333333333333336</ele><time>2026-04-03T11:20:46.998Z</time></trkpt><trkpt lat="52.448598659896575" lon="12.972529805794428"><ele>28.0</ele><time>2026-04-03T11:20:47.998Z</time></trkpt><trkpt lat="52.44864434490243" lon="12.972283130597104"><ele>28.0</ele><time>2026-04-03T11:20:48.998Z</time></trkpt><trkpt lat="52.448691322068065" lon="12.972020072342474"><ele>28.0</ele><time>2026-04-03T11:20:49.998Z</time></trkpt><trkpt lat="52.448748855446226" lon="12.971754502551528"><ele>28.0</ele><time>2026-04-03T11:20:51Z</time></trkpt><trkpt lat="52.448812180364435" lon="12.9715002701775"><ele>28.0</ele><time>2026-04-03T11:20:52Z</time></trkpt><trkpt lat="52.448886579766686" lon="12.971243266752062"><ele>28.0</ele><time>2026-04-03T11:20:53Z</time></trkpt><trkpt lat="52.44896233878304" lon="12.970983879826754"><ele>28.0</ele><time>2026-04-03T11:20:54Z</time></trkpt><trkpt lat="52.44904530049535" lon="12.970709744944061"><ele>28.666666666666668</ele><time>2026-04-03T11:20:55Z</time></trkpt><trkpt lat="52.44912903930533" lon="12.970436230074956"><ele>29.333333333333336</ele><time>2026-04-03T11:20:56Z</time></trkpt><trkpt lat="52.44921460508161" lon="12.970159320122319"><ele>30.0</ele><time>2026-04-03T11:20:57Z</time></trkpt><trkpt lat="52.44929496215423" lon="12.969893687935446"><ele>30.0</ele><time>2026-04-03T11:20:58Z</time></trkpt><trkpt lat="52.44937299366113" lon="12.969628575389944"><ele>30.0</ele><time>2026-04-03T11:20:59Z</time></trkpt><trkpt lat="52.44944629186931" lon="12.969381583831591"><ele>30.0</ele><time>2026-04-03T11:21:00Z</time></trkpt><trkpt lat="52.449514585051915" lon="12.969156492493896"><ele>30.0</ele><time>2026-04-03T11:21:01Z</time></trkpt><trkpt lat="52.44957625959607" lon="12.968948107220907"><ele>30.0</ele><time>2026-04-03T11:21:02Z</time></trkpt><trkpt lat="52.44963312707546" lon="12.96874264103947"><ele>30.0</ele><time>2026-04-03T11:21:03Z</time></trkpt><trkpt lat="52.44967630780649" lon="12.968513296364678"><ele>30.0</ele><time>2026-04-03T11:21:04Z</time></trkpt><trkpt lat="52.44969991249579" lon="12.968240628837076"><ele>29.666666666666664</ele><time>2026-04-03T11:21:05Z</time></trkpt><trkpt lat="52.44971067546592" lon="12.967949402191742"><ele>29.333333333333332</ele><time>2026-04-03T11:21:06Z</time></trkpt><trkpt lat="52.44974243819967" lon="12.967673230051698"><ele>29.0</ele><time>2026-04-03T11:21:07Z</time></trkpt><trkpt lat="52.44976001357361" lon="12.967395662494164"><ele>29.0</ele><time>2026-04-03T11:21:08Z</time></trkpt><trkpt lat="52.449776941086974" lon="12.967142144783752"><ele>29.0</ele><time>2026-04-03T11:21:09Z</time></trkpt><trkpt lat="52.44977972672174" lon="12.966910146037543"><ele>29.0</ele><time>2026-04-03T11:21:10Z</time></trkpt><trkpt lat="52.44979725503522" lon="12.966693509792478"><ele>29.0</ele><time>2026-04-03T11:21:11Z</time></trkpt><trkpt lat="52.44981344931095" lon="12.966492639721261"><ele>29.0</ele><time>2026-04-03T11:21:12Z</time></trkpt><trkpt lat="52.44982837938043" lon="12.96629901514423"><ele>29.0</ele><time>2026-04-03T11:21:13Z</time></trkpt><trkpt lat="52.44984423850091" lon="12.96610018206258"><ele>29.0</ele><time>2026-04-03T11:21:14Z</time></trkpt><trkpt lat="52.44986077307517" lon="12.96592194276709"><ele>29.0</ele><time>2026-04-03T11:21:15Z</time></trkpt><trkpt lat="52.44987560256413" lon="12.965759226471132"><ele>29.0</ele><time>2026-04-03T11:21:16Z</time></trkpt><trkpt lat="52.44988582550107" lon="12.965606348640833"><ele>29.0</ele><time>2026-04-03T11:21:17Z</time></trkpt><trkpt lat="52.44989896966533" lon="12.965445434222815"><ele>29.0</ele><time>2026-04-03T11:21:18Z</time></trkpt><trkpt lat="52.44990787474204" lon="12.965281052704682"><ele>29.0</ele><time>2026-04-03T11:21:19Z</time></trkpt><trkpt lat="52.44991345641329" lon="12.965134021167346"><ele>29.0</ele><time>2026-04-03T11:21:20Z</time></trkpt><trkpt lat="52.449908138063535" lon="12.965000410759746"><ele>28.999999999999996</ele><time>2026-04-03T11:21:21Z</time></trkpt><trkpt lat="52.44988121369608" lon="12.964885463126379"><ele>29.0</ele><time>2026-04-03T11:21:22Z</time></trkpt><trkpt lat="52.44986210429472" lon="12.96478054794046"><ele>29.0</ele><time>2026-04-03T11:21:23Z</time></trkpt><trkpt lat="52.44981351994846" lon="12.964658741863264"><ele>29.0</ele><time>2026-04-03T11:21:25Z</time></trkpt><trkpt lat="52.44968460842719" lon="12.96473358303183"><ele>28.999999999999996</ele><time>2026-04-03T11:21:26Z</time></trkpt><trkpt lat="52.44961953605966" lon="12.964701893934123"><ele>29.0</ele><time>2026-04-03T11:21:27Z</time></trkpt><trkpt lat="52.44953692207332" lon="12.964693210576293"><ele>29.6</ele><time>2026-04-03T11:21:28Z</time></trkpt><trkpt lat="52.449444647800966" lon="12.96470739124832"><ele>30.2</ele><time>2026-04-03T11:21:29Z</time></trkpt><trkpt lat="52.44934739655767" lon="12.964689985518353"><ele>30.800000000000004</ele><time>2026-04-03T11:21:30Z</time></trkpt><trkpt lat="52.449253307473256" lon="12.964673119804445"><ele>31.400000000000002</ele><time>2026-04-03T11:21:31Z</time></trkpt><trkpt lat="52.44915260102368" lon="12.964658560726239"><ele>32.0</ele><time>2026-04-03T11:21:31.999Z</time></trkpt><trkpt lat="52.44904204845385" lon="12.96463632039439"><ele>32.0</ele><time>2026-04-03T11:21:32.999Z</time></trkpt><trkpt lat="52.44894884429072" lon="12.964620490748569"><ele>32.0</ele><time>2026-04-03T11:21:33.999Z</time></trkpt><trkpt lat="52.44885004162286" lon="12.964601024366443"><ele>32.0</ele><time>2026-04-03T11:21:34.999Z</time></trkpt><trkpt lat="52.44874730334858" lon="12.964578115472737"><ele>32.0</ele><time>2026-04-03T11:21:35.999Z</time></trkpt><trkpt lat="52.448645443591275" lon="12.964555994646243"><ele>32.0</ele><time>2026-04-03T11:21:36.999Z</time></trkpt><trkpt lat="52.44854430518297" lon="12.964539501670414"><ele>31.6</ele><time>2026-04-03T11:21:37.999Z</time></trkpt><trkpt lat="52.448442477551126" lon="12.964523321922545"><ele>31.200000000000003</ele><time>2026-04-03T11:21:38.999Z</time></trkpt><trkpt lat="52.44833803039544" lon="12.964504222274295"><ele>30.8</ele><time>2026-04-03T11:21:39.999Z</time></trkpt><trkpt lat="52.44823388934299" lon="12.964481833567968"><ele>30.4</ele><time>2026-04-03T11:21:40.999Z</time></trkpt><trkpt lat="52.44812972186998" lon="12.96445992038801"><ele>30.0</ele><time>2026-04-03T11:21:41.999Z</time></trkpt><trkpt lat="52.448023238503694" lon="12.964442590423065"><ele>30.0</ele><time>2026-04-03T11:21:42.999Z</time></trkpt><trkpt lat="52.447924249216726" lon="12.964431217425352"><ele>30.0</ele><time>2026-04-03T11:21:43.999Z</time></trkpt><trkpt lat="52.44783920890489" lon="12.964420522183639"><ele>30.0</ele><time>2026-04-03T11:21:44.999Z</time></trkpt><trkpt lat="52.44776435967964" lon="12.96440667441295"><ele>30.0</ele><time>2026-04-03T11:21:45.999Z</time></trkpt><trkpt lat="52.447686220387936" lon="12.964399772337963"><ele>30.0</ele><time>2026-04-03T11:21:46.999Z</time></trkpt><trkpt lat="52.447592827194114" lon="12.964408069693741"><ele>30.0</ele><time>2026-04-03T11:21:47.999Z</time></trkpt><trkpt lat="52.447496539274546" lon="12.964415802705386"><ele>30.0</ele><time>2026-04-03T11:21:48.999Z</time></trkpt><trkpt lat="52.44739847018172" lon="12.964425490427043"><ele>30.0</ele><time>2026-04-03T11:21:49.999Z</time></trkpt><trkpt lat="52.44729922780914" lon="12.964428821973176"><ele>30.0</ele><time>2026-04-03T11:21:50.999Z</time></trkpt><trkpt lat="52.4471965323357" lon="12.964429856559098"><ele>30.0</ele><time>2026-04-03T11:21:51.999Z</time></trkpt><trkpt lat="52.447095025621906" lon="12.964430703085961"><ele>30.0</ele><time>2026-04-03T11:21:52.999Z</time></trkpt><trkpt lat="52.446991571472495" lon="12.964431857410982"><ele>30.0</ele><time>2026-04-03T11:21:53.999Z</time></trkpt><trkpt lat="52.44689873143926" lon="12.964425684834755"><ele>30.0</ele><time>2026-04-03T11:21:54.999Z</time></trkpt><trkpt lat="52.44681315857106" lon="12.96442893861671"><ele>30.0</ele><time>2026-04-03T11:21:55.999Z</time></trkpt><trkpt lat="52.44671795565186" lon="12.96442893155145"><ele>30.0</ele><time>2026-04-03T11:21:56.999Z</time></trkpt><trkpt lat="52.44661558826021" lon="12.964429415955774"><ele>30.0</ele><time>2026-04-03T11:21:57.999Z</time></trkpt><trkpt lat="52.44650271583609" lon="12.964443975511259"><ele>30.0</ele><time>2026-04-03T11:21:58.999Z</time></trkpt><trkpt lat="52.446382709932806" lon="12.964450250398723"><ele>30.0</ele><time>2026-04-03T11:21:59.999Z</time></trkpt><trkpt lat="52.4462573945898" lon="12.964443131373764"><ele>30.0</ele><time>2026-04-03T11:22:00.999Z</time></trkpt><trkpt lat="52.446126600475615" lon="12.96444317723137"><ele>30.0</ele><time>2026-04-03T11:22:01.999Z</time></trkpt><trkpt lat="52.44598687841131" lon="12.964445470160621"><ele>29.666666666666664</ele><time>2026-04-03T11:22:02.999Z</time></trkpt><trkpt lat="52.44583311772499" lon="12.96444676451259"><ele>29.333333333333332</ele><time>2026-04-03T11:22:03.999Z</time></trkpt><trkpt lat="52.44566559691451" lon="12.964447260684123"><ele>29.0</ele><time>2026-04-03T11:22:04.999Z</time></trkpt><trkpt lat="52.44549054645035" lon="12.964444589517395"><ele>28.666666666666664</ele><time>2026-04-03T11:22:05.999Z</time></trkpt><trkpt lat="52.445312426242445" lon="12.964441424214273"><ele>28.333333333333336</ele><time>2026-04-03T11:22:06.999Z</time></trkpt><trkpt lat="52.44515693931835" lon="12.964441994121655"><ele>28.0</ele><time>2026-04-03T11:22:07.999Z</time></trkpt><trkpt lat="52.44501217441068" lon="12.964446347140777"><ele>28.0</ele><time>2026-04-03T11:22:08.999Z</time></trkpt><trkpt lat="52.444881626339786" lon="12.964446559685756"><ele>28.0</ele><time>2026-04-03T11:22:09.999Z</time></trkpt><trkpt lat="52.444759984078814" lon="12.964442303295085"><ele>28.0</ele><time>2026-04-03T11:22:10.999Z</time></trkpt><trkpt lat="52.44465200155691" lon="12.964415745856167"><ele>28.0</ele><time>2026-04-03T11:22:11.999Z</time></trkpt><trkpt lat="52.44455174382337" lon="12.964400641981431"><ele>28.0</ele><time>2026-04-03T11:22:12.999Z</time></trkpt><trkpt lat="52.444462349643" lon="12.964360725112723"><ele>27.999999999999996</ele><time>2026-04-03T11:22:13.999Z</time></trkpt><trkpt lat="52.44438318983212" lon="12.964285724481504"><ele>27.999999999999996</ele><time>2026-04-03T11:22:14.999Z</time></trkpt><trkpt lat="52.444323459612555" lon="12.964194470391321"><ele>28.0</ele><time>2026-04-03T11:22:15.999Z</time></trkpt><trkpt lat="52.444251959890764" lon="12.96410264200672"><ele>28.0</ele><time>2026-04-03T11:22:16.999Z</time></trkpt><trkpt lat="52.444191714706065" lon="12.963961082532025"><ele>28.2</ele><time>2026-04-03T11:22:17.999Z</time></trkpt><trkpt lat="52.44411681274843" lon="12.96381504197422"><ele>28.4</ele><time>2026-04-03T11:22:18.999Z</time></trkpt><trkpt lat="52.444055266313775" lon="12.963672076853625"><ele>28.599999999999998</ele><time>2026-04-03T11:22:19.999Z</time></trkpt><trkpt lat="52.44400280019487" lon="12.963547057842613"><ele>28.799999999999997</ele><time>2026-04-03T11:22:20.999Z</time></trkpt><trkpt lat="52.44395468745031" lon="12.963436152991106"><ele>29.0</ele><time>2026-04-03T11:22:21.999Z</time></trkpt><trkpt lat="52.44391196384501" lon="12.963335014795682"><ele>29.2</ele><time>2026-04-03T11:22:22.999Z</time></trkpt><trkpt lat="52.44387852710821" lon="12.963202087403989"><ele>29.4</ele><time>2026-04-03T11:22:24.999Z</time></trkpt><trkpt lat="52.44373711758099" lon="12.963319121560922"><ele>29.6</ele><time>2026-04-03T11:22:27.998Z</time></trkpt><trkpt lat="52.44372846574737" lon="12.963430156793207"><ele>29.8</ele><time>2026-04-03T11:22:28.998Z</time></trkpt><trkpt lat="52.443716271010025" lon="12.96353974482594"><ele>30.0</ele><time>2026-04-03T11:22:29.998Z</time></trkpt><trkpt lat="52.44370229988639" lon="12.963650171546835"><ele>30.4</ele><time>2026-04-03T11:22:30.998Z</time></trkpt><trkpt lat="52.443697001332694" lon="12.963784519537446"><ele>30.8</ele><time>2026-04-03T11:22:31.998Z</time></trkpt><trkpt lat="52.443694260702685" lon="12.963950845176692"><ele>31.200000000000003</ele><time>2026-04-03T11:22:32.998Z</time></trkpt><trkpt lat="52.443654223436276" lon="12.964102802677642"><ele>31.6</ele><time>2026-04-03T11:22:33.998Z</time></trkpt><trkpt lat="52.44362347601988" lon="12.964267900533308"><ele>32.0</ele><time>2026-04-03T11:22:34.998Z</time></trkpt><trkpt lat="52.44359904208779" lon="12.964438341507302"><ele>32.0</ele><time>2026-04-03T11:22:35.998Z</time></trkpt><trkpt lat="52.44357803571747" lon="12.964608299337206"><ele>32.0</ele><time>2026-04-03T11:22:36.998Z</time></trkpt><trkpt lat="52.44356654043155" lon="12.96478244324675"><ele>32.0</ele><time>2026-04-03T11:22:37.998Z</time></trkpt><trkpt lat="52.44354091039289" lon="12.964949761945386"><ele>32.0</ele><time>2026-04-03T11:22:38.998Z</time></trkpt><trkpt lat="52.4435194772607" lon="12.965115077042139"><ele>32.0</ele><time>2026-04-03T11:22:39.998Z</time></trkpt><trkpt lat="52.44349999632055" lon="12.965262301634706"><ele>31.666666666666664</ele><time>2026-04-03T11:22:40.998Z</time></trkpt><trkpt lat="52.443476738490524" lon="12.965424151288339"><ele>31.333333333333332</ele><time>2026-04-03T11:22:41.998Z</time></trkpt><trkpt lat="52.44345688692313" lon="12.96555940565034"><ele>31.0</ele><time>2026-04-03T11:22:42.998Z</time></trkpt><trkpt lat="52.44343348818319" lon="12.965687242777813"><ele>30.666666666666664</ele><time>2026-04-03T11:22:43.998Z</time></trkpt><trkpt lat="52.44340151657703" lon="12.965822390239177"><ele>30.333333333333332</ele><time>2026-04-03T11:22:44.998Z</time></trkpt><trkpt lat="52.443396552080266" lon="12.96594963492316"><ele>30.0</ele><time>2026-04-03T11:22:45.998Z</time></trkpt><trkpt lat="52.44337669982207" lon="12.966065718093757"><ele>29.666666666666668</ele><time>2026-04-03T11:22:46.998Z</time></trkpt><trkpt lat="52.44334134145535" lon="12.966171067589622"><ele>29.333333333333336</ele><time>2026-04-03T11:22:47.998Z</time></trkpt><trkpt lat="52.44332669902135" lon="12.96629043485649"><ele>29.0</ele><time>2026-04-03T11:22:48.998Z</time></trkpt><trkpt lat="52.4432913222177" lon="12.966464889637695"><ele>28.666666666666668</ele><time>2026-04-03T11:22:50.998Z</time></trkpt><trkpt lat="52.44325330292215" lon="12.96656010849228"><ele>28.333333333333336</ele><time>2026-04-03T11:22:51.998Z</time></trkpt><trkpt lat="52.44319087002695" lon="12.96663279643215"><ele>28.0</ele><time>2026-04-03T11:22:52.998Z</time></trkpt><trkpt lat="52.44310187166552" lon="12.966728559342075"><ele>28.000000000000004</ele><time>2026-04-03T11:22:53.998Z</time></trkpt><trkpt lat="52.443019744855825" lon="12.966796642560276"><ele>28.0</ele><time>2026-04-03T11:22:54.998Z</time></trkpt><trkpt lat="52.44294393407317" lon="12.966820274915975"><ele>28.0</ele><time>2026-04-03T11:22:55.998Z</time></trkpt><trkpt lat="52.44286166703115" lon="12.966816444347348"><ele>28.0</ele><time>2026-04-03T11:22:57Z</time></trkpt><trkpt lat="52.44278254878365" lon="12.966791700004311"><ele>28.000000000000004</ele><time>2026-04-03T11:22:58Z</time></trkpt><trkpt lat="52.44271154752377" lon="12.966762697235287"><ele>28.0</ele><time>2026-04-03T11:22:59Z</time></trkpt><trkpt lat="52.44264169645561" lon="12.966771709077188"><ele>28.2</ele><time>2026-04-03T11:23:00Z</time></trkpt><trkpt lat="52.44256712385825" lon="12.966686242764586"><ele>28.4</ele><time>2026-04-03T11:23:01Z</time></trkpt><trkpt lat="52.442466686696605" lon="12.966599401425919"><ele>28.599999999999998</ele><time>2026-04-03T11:23:02Z</time></trkpt><trkpt lat="52.44236186622362" lon="12.966512213202975"><ele>28.799999999999997</ele><time>2026-04-03T11:23:03Z</time></trkpt><trkpt lat="52.442267172098276" lon="12.96642854531431"><ele>29.0</ele><time>2026-04-03T11:23:04Z</time></trkpt><trkpt lat="52.44217581047129" lon="12.966371584202415"><ele>29.2</ele><time>2026-04-03T11:23:05Z</time></trkpt><trkpt lat="52.44208957013593" lon="12.966299058075679"><ele>29.4</ele><time>2026-04-03T11:23:06Z</time></trkpt><trkpt lat="52.442003474093056" lon="12.96621998472082"><ele>29.6</ele><time>2026-04-03T11:23:07Z</time></trkpt><trkpt lat="52.441920534090286" lon="12.96612183015981"><ele>29.8</ele><time>2026-04-03T11:23:08Z</time></trkpt><trkpt lat="52.44183718254885" lon="12.966017719917366"><ele>30.0</ele><time>2026-04-03T11:23:09Z</time></trkpt><trkpt lat="52.44175450329182" lon="12.965909656127096"><ele>30.6</ele><time>2026-04-03T11:23:10Z</time></trkpt><trkpt lat="52.44166632108969" lon="12.965817209940843"><ele>31.2</ele><time>2026-04-03T11:23:11Z</time></trkpt><trkpt lat="52.441575595159364" lon="12.965715338719335"><ele>31.799999999999997</ele><time>2026-04-03T11:23:12Z</time></trkpt><trkpt lat="52.44148490946344" lon="12.965646987672946"><ele>32.4</ele><time>2026-04-03T11:23:13Z</time></trkpt><trkpt lat="52.441397441312624" lon="12.965584745125822"><ele>33.0</ele><time>2026-04-03T11:23:14Z</time></trkpt><trkpt lat="52.44132622412766" lon="12.96547748004013"><ele>32.4</ele><time>2026-04-03T11:23:15Z</time></trkpt><trkpt lat="52.44123634552611" lon="12.965447612706173"><ele>31.799999999999997</ele><time>2026-04-03T11:23:16Z</time></trkpt><trkpt lat="52.44112931440006" lon="12.965409920423777"><ele>31.2</ele><time>2026-04-03T11:23:17Z</time></trkpt><trkpt lat="52.441027772985294" lon="12.96537116922248"><ele>30.6</ele><time>2026-04-03T11:23:18Z</time></trkpt><trkpt lat="52.440927591998935" lon="12.965324695096543"><ele>30.0</ele><time>2026-04-03T11:23:19Z</time></trkpt><trkpt lat="52.440813444882146" lon="12.965279998295259"><ele>30.0</ele><time>2026-04-03T11:23:20Z</time></trkpt><trkpt lat="52.44069375584258" lon="12.965275669598032"><ele>30.0</ele><time>2026-04-03T11:23:21Z</time></trkpt><trkpt lat="52.44060194747106" lon="12.965284390401566"><ele>30.0</ele><time>2026-04-03T11:23:22Z</time></trkpt><trkpt lat="52.440503750943336" lon="12.965272481757948"><ele>30.0</ele><time>2026-04-03T11:23:23Z</time></trkpt><trkpt lat="52.44040001532984" lon="12.965253191692236"><ele>30.0</ele><time>2026-04-03T11:23:24Z</time></trkpt><trkpt lat="52.44029928143386" lon="12.965231444246552"><ele>29.8</ele><time>2026-04-03T11:23:25Z</time></trkpt><trkpt lat="52.440185479956355" lon="12.96520614294756"><ele>29.6</ele><time>2026-04-03T11:23:26Z</time></trkpt><trkpt lat="52.440066657818576" lon="12.965178426333244"><ele>29.4</ele><time>2026-04-03T11:23:27Z</time></trkpt><trkpt lat="52.43995485080306" lon="12.965177087762672"><ele>29.2</ele><time>2026-04-03T11:23:28Z</time></trkpt><trkpt lat="52.439858567897964" lon="12.965188130883353"><ele>29.0</ele><time>2026-04-03T11:23:29Z</time></trkpt><trkpt lat="52.439783501415256" lon="12.965185082524593"><ele>28.999999999999996</ele><time>2026-04-03T11:23:30Z</time></trkpt><trkpt lat="52.43971286544742" lon="12.96517440937755"><ele>29.0</ele><time>2026-04-03T11:23:31Z</time></trkpt><trkpt lat="52.43964661218658" lon="12.965126426827696"><ele>29.0</ele><time>2026-04-03T11:23:32Z</time></trkpt><trkpt lat="52.43955526491022" lon="12.965092375246469"><ele>29.0</ele><time>2026-04-03T11:23:34Z</time></trkpt><trkpt lat="52.43953479479283" lon="12.964992769131909"><ele>28.999999999999996</ele><time>2026-04-03T11:23:36Z</time></trkpt><trkpt lat="52.43957076905777" lon="12.964777248935542"><ele>29.0</ele><time>2026-04-03T11:23:37.999Z</time></trkpt><trkpt lat="52.43960901189456" lon="12.964628389576092"><ele>29.5</ele><time>2026-04-03T11:23:38.999Z</time></trkpt><trkpt lat="52.439642123683925" lon="12.96444785572651"><ele>30.0</ele><time>2026-04-03T11:23:39.999Z</time></trkpt><trkpt lat="52.43967181306065" lon="12.964268285577328"><ele>30.5</ele><time>2026-04-03T11:23:40.999Z</time></trkpt><trkpt lat="52.43970176811153" lon="12.964090688429259"><ele>31.0</ele><time>2026-04-03T11:23:41.999Z</time></trkpt><trkpt lat="52.439732254373325" lon="12.963909485947347"><ele>31.200000000000003</ele><time>2026-04-03T11:23:42.999Z</time></trkpt><trkpt lat="52.43976176922799" lon="12.963735308994817"><ele>31.400000000000002</ele><time>2026-04-03T11:23:43.999Z</time></trkpt><trkpt lat="52.43979227409743" lon="12.963569008342274"><ele>31.6</ele><time>2026-04-03T11:23:44.999Z</time></trkpt><trkpt lat="52.439822628633806" lon="12.963403897561331"><ele>31.8</ele><time>2026-04-03T11:23:45.999Z</time></trkpt><trkpt lat="52.439851090747695" lon="12.963236462201527"><ele>32.0</ele><time>2026-04-03T11:23:46.999Z</time></trkpt><trkpt lat="52.439880203135466" lon="12.963072108863912"><ele>32.0</ele><time>2026-04-03T11:23:47.999Z</time></trkpt><trkpt lat="52.43990928635882" lon="12.9628910487655"><ele>32.0</ele><time>2026-04-03T11:23:48.999Z</time></trkpt><trkpt lat="52.43994314150122" lon="12.962695339894982"><ele>32.0</ele><time>2026-04-03T11:23:49.999Z</time></trkpt><trkpt lat="52.43997513879278" lon="12.962495345839724"><ele>32.0</ele><time>2026-04-03T11:23:50.999Z</time></trkpt><trkpt lat="52.44000720177602" lon="12.962294901208043"><ele>32.0</ele><time>2026-04-03T11:23:51.999Z</time></trkpt><trkpt lat="52.44003740552721" lon="12.962103962301963"><ele>32.0</ele><time>2026-04-03T11:23:52.999Z</time></trkpt><trkpt lat="52.44006670588872" lon="12.961909310220634"><ele>32.0</ele><time>2026-04-03T11:23:53.999Z</time></trkpt><trkpt lat="52.4400877758895" lon="12.961729227962854"><ele>32.0</ele><time>2026-04-03T11:23:54.999Z</time></trkpt><trkpt lat="52.44011186039901" lon="12.961566709141758"><ele>31.5</ele><time>2026-04-03T11:23:55.999Z</time></trkpt><trkpt lat="52.44014491839157" lon="12.961407170099772"><ele>31.0</ele><time>2026-04-03T11:23:56.999Z</time></trkpt><trkpt lat="52.44017572687568" lon="12.96123706697545"><ele>30.5</ele><time>2026-04-03T11:23:57.999Z</time></trkpt><trkpt lat="52.4402096312343" lon="12.961046730975617"><ele>30.0</ele><time>2026-04-03T11:23:58.999Z</time></trkpt><trkpt lat="52.440247769329964" lon="12.960845030633159"><ele>30.0</ele><time>2026-04-03T11:23:59.999Z</time></trkpt><trkpt lat="52.440282420544804" lon="12.96064326866408"><ele>30.0</ele><time>2026-04-03T11:24:00.999Z</time></trkpt><trkpt lat="52.44031454978254" lon="12.960444669150727"><ele>30.0</ele><time>2026-04-03T11:24:01.999Z</time></trkpt><trkpt lat="52.440350944817396" lon="12.96024863867491"><ele>30.0</ele><time>2026-04-03T11:24:02.999Z</time></trkpt><trkpt lat="52.44038183016003" lon="12.960062333912754"><ele>30.4</ele><time>2026-04-03T11:24:03.999Z</time></trkpt><trkpt lat="52.44041609322115" lon="12.959887847732743"><ele>30.8</ele><time>2026-04-03T11:24:04.999Z</time></trkpt><trkpt lat="52.44044397801833" lon="12.959730178029972"><ele>31.200000000000003</ele><time>2026-04-03T11:24:05.999Z</time></trkpt><trkpt lat="52.4404782546943" lon="12.959564717660637"><ele>31.6</ele><time>2026-04-03T11:24:06.999Z</time></trkpt><trkpt lat="52.44051597974635" lon="12.959400986836656"><ele>32.0</ele><time>2026-04-03T11:24:07.999Z</time></trkpt><trkpt lat="52.44054566448946" lon="12.959261305661267"><ele>32.2</ele><time>2026-04-03T11:24:08.999Z</time></trkpt><trkpt lat="52.44057493517145" lon="12.959142585294167"><ele>32.400000000000006</ele><time>2026-04-03T11:24:10.999Z</time></trkpt><trkpt lat="52.44061837478316" lon="12.959056743752711"><ele>32.599999999999994</ele><time>2026-04-03T11:24:14.999Z</time></trkpt><trkpt lat="52.44077279291724" lon="12.959222179528126"><ele>32.8</ele><time>2026-04-03T11:24:18.999Z</time></trkpt><trkpt lat="52.44084048629163" lon="12.959301878446235"><ele>33.0</ele><time>2026-04-03T11:24:21.999Z</time></trkpt><trkpt lat="52.44083761792941" lon="12.959174886347839"><ele>33.0</ele><time>2026-04-03T11:24:24.999Z</time></trkpt><trkpt lat="52.440741371383204" lon="12.95912232523427"><ele>33.0</ele><time>2026-04-03T11:24:26.999Z</time></trkpt><trkpt lat="52.44067618527075" lon="12.959105121294646"><ele>33.0</ele><time>2026-04-03T11:24:27.999Z</time></trkpt><trkpt lat="52.44062267840908" lon="12.959045106527924"><ele>33.0</ele><time>2026-04-03T11:24:29.999Z</time></trkpt><trkpt lat="52.44060355140621" lon="12.958940911331531"><ele>33.0</ele><time>2026-04-03T11:24:32.998Z</time></trkpt><trkpt lat="52.44065487605631" lon="12.95873067508116"><ele>33.0</ele><time>2026-04-03T11:24:34.998Z</time></trkpt><trkpt lat="52.44068713218608" lon="12.95860683111975"><ele>33.0</ele><time>2026-04-03T11:24:35.998Z</time></trkpt><trkpt lat="52.44071971637918" lon="12.958434571245958"><ele>33.0</ele><time>2026-04-03T11:24:37.998Z</time></trkpt><trkpt lat="52.44075165986504" lon="12.958287530153394"><ele>33.0</ele><time>2026-04-03T11:24:39.998Z</time></trkpt><trkpt lat="52.44077793383963" lon="12.958146697190552"><ele>33.0</ele><time>2026-04-03T11:24:41.998Z</time></trkpt><trkpt lat="52.44079833895548" lon="12.958036205316061"><ele>33.0</ele><time>2026-04-03T11:24:43.998Z</time></trkpt><trkpt lat="52.44077162239749" lon="12.957892134580757"><ele>33.0</ele><time>2026-04-03T11:25:27Z</time></trkpt><trkpt lat="52.44070164806787" lon="12.957830281566892"><ele>33.0</ele><time>2026-04-03T11:25:28Z</time></trkpt><trkpt lat="52.440619862297666" lon="12.957786143057882"><ele>33.0</ele><time>2026-04-03T11:25:29Z</time></trkpt><trkpt lat="52.44054224961051" lon="12.957646097846713"><ele>33.0</ele><time>2026-04-03T11:25:30Z</time></trkpt><trkpt lat="52.44044482995861" lon="12.957564744482303"><ele>33.0</ele><time>2026-04-03T11:25:31Z</time></trkpt><trkpt lat="52.44033166197513" lon="12.957470240033066"><ele>33.0</ele><time>2026-04-03T11:25:32Z</time></trkpt><trkpt lat="52.4402112859856" lon="12.957368464336115"><ele>33.0</ele><time>2026-04-03T11:25:33Z</time></trkpt><trkpt lat="52.440095567041986" lon="12.957265553283154"><ele>33.0</ele><time>2026-04-03T11:25:34Z</time></trkpt><trkpt lat="52.43998287762676" lon="12.957154734844714"><ele>33.0</ele><time>2026-04-03T11:25:35Z</time></trkpt><trkpt lat="52.43987054142402" lon="12.957027683264823"><ele>33.0</ele><time>2026-04-03T11:25:36Z</time></trkpt><trkpt lat="52.439746429919325" lon="12.956908432470867"><ele>33.0</ele><time>2026-04-03T11:25:37Z</time></trkpt><trkpt lat="52.43964280873197" lon="12.956775022909774"><ele>33.0</ele><time>2026-04-03T11:25:38Z</time></trkpt><trkpt lat="52.439544006180945" lon="12.956644952932823"><ele>33.0</ele><time>2026-04-03T11:25:39Z</time></trkpt><trkpt lat="52.439438218262076" lon="12.956511020896622"><ele>32.25</ele><time>2026-04-03T11:25:40Z</time></trkpt><trkpt lat="52.439321837105396" lon="12.95638782166303"><ele>31.5</ele><time>2026-04-03T11:25:41Z</time></trkpt><trkpt lat="52.43920109990349" lon="12.956291798761088"><ele>30.75</ele><time>2026-04-03T11:25:42Z</time></trkpt><trkpt lat="52.43906796729749" lon="12.956217769350138"><ele>30.0</ele><time>2026-04-03T11:25:42.999Z</time></trkpt><trkpt lat="52.43892568820828" lon="12.956163395506715"><ele>29.75</ele><time>2026-04-03T11:25:43.999Z</time></trkpt><trkpt lat="52.43877912396294" lon="12.956113551396987"><ele>29.5</ele><time>2026-04-03T11:25:44.999Z</time></trkpt><trkpt lat="52.43864595068806" lon="12.956080870153077"><ele>29.25</ele><time>2026-04-03T11:25:45.999Z</time></trkpt><trkpt lat="52.438519075089275" lon="12.956017832682656"><ele>29.0</ele><time>2026-04-03T11:25:46.999Z</time></trkpt><trkpt lat="52.43838568153704" lon="12.955987798083989"><ele>29.0</ele><time>2026-04-03T11:25:47.999Z</time></trkpt><trkpt lat="52.43825104730504" lon="12.955970252552865"><ele>29.0</ele><time>2026-04-03T11:25:48.999Z</time></trkpt><trkpt lat="52.438109754311235" lon="12.955957979693906"><ele>29.0</ele><time>2026-04-03T11:25:49.999Z</time></trkpt><trkpt lat="52.4379631265794" lon="12.955967167427199"><ele>29.0</ele><time>2026-04-03T11:25:50.999Z</time></trkpt><trkpt lat="52.43781820478412" lon="12.955946769148994"><ele>28.75</ele><time>2026-04-03T11:25:51.999Z</time></trkpt><trkpt lat="52.43768399575423" lon="12.955932847975232"><ele>28.5</ele><time>2026-04-03T11:25:52.999Z</time></trkpt><trkpt lat="52.437557548823285" lon="12.955924374666512"><ele>28.25</ele><time>2026-04-03T11:25:53.999Z</time></trkpt><trkpt lat="52.4374258302552" lon="12.95592000755757"><ele>28.0</ele><time>2026-04-03T11:25:54.999Z</time></trkpt><trkpt lat="52.43728406263721" lon="12.955908867902137"><ele>28.0</ele><time>2026-04-03T11:25:55.999Z</time></trkpt><trkpt lat="52.437130044839854" lon="12.955896759604306"><ele>28.0</ele><time>2026-04-03T11:25:56.999Z</time></trkpt><trkpt lat="52.4369711463843" lon="12.955882949560905"><ele>28.0</ele><time>2026-04-03T11:25:57.999Z</time></trkpt><trkpt lat="52.43680700216132" lon="12.955860555716736"><ele>28.0</ele><time>2026-04-03T11:25:58.999Z</time></trkpt><trkpt lat="52.43665525152068" lon="12.955829549378503"><ele>28.0</ele><time>2026-04-03T11:25:59.999Z</time></trkpt><trkpt lat="52.43651440310909" lon="12.955804651729224"><ele>28.0</ele><time>2026-04-03T11:26:00.999Z</time></trkpt><trkpt lat="52.436375410471854" lon="12.955733311662792"><ele>28.0</ele><time>2026-04-03T11:26:01.999Z</time></trkpt><trkpt lat="52.436235262128086" lon="12.955686980444533"><ele>28.25</ele><time>2026-04-03T11:26:02.999Z</time></trkpt><trkpt lat="52.436095226867394" lon="12.955638787505606"><ele>28.5</ele><time>2026-04-03T11:26:03.999Z</time></trkpt><trkpt lat="52.435951425646095" lon="12.955585777115413"><ele>28.75</ele><time>2026-04-03T11:26:04.999Z</time></trkpt><trkpt lat="52.435813769437964" lon="12.955558846757524"><ele>29.0</ele><time>2026-04-03T11:26:05.999Z</time></trkpt><trkpt lat="52.4356868176084" lon="12.955513075173625"><ele>29.0</ele><time>2026-04-03T11:26:06.999Z</time></trkpt><trkpt lat="52.43557610963453" lon="12.955446488317564"><ele>29.0</ele><time>2026-04-03T11:26:07.999Z</time></trkpt><trkpt lat="52.4354679153051" lon="12.95542869476814"><ele>29.0</ele><time>2026-04-03T11:26:08.999Z</time></trkpt><trkpt lat="52.43536478213152" lon="12.955381928701582"><ele>29.0</ele><time>2026-04-03T11:26:09.999Z</time></trkpt><trkpt lat="52.43525903726007" lon="12.955341336775733"><ele>29.0</ele><time>2026-04-03T11:26:10.999Z</time></trkpt><trkpt lat="52.43515940138765" lon="12.955306012308403"><ele>29.2</ele><time>2026-04-03T11:26:11.999Z</time></trkpt><trkpt lat="52.43505788878685" lon="12.955271119127215"><ele>29.4</ele><time>2026-04-03T11:26:12.999Z</time></trkpt><trkpt lat="52.43495512809544" lon="12.955221540644814"><ele>29.6</ele><time>2026-04-03T11:26:13.999Z</time></trkpt><trkpt lat="52.43484950886515" lon="12.95516901702934"><ele>29.8</ele><time>2026-04-03T11:26:14.999Z</time></trkpt><trkpt lat="52.43474026451825" lon="12.955122736529615"><ele>30.0</ele><time>2026-04-03T11:26:15.999Z</time></trkpt><trkpt lat="52.434628882757416" lon="12.955076582910488"><ele>30.25</ele><time>2026-04-03T11:26:16.999Z</time></trkpt><trkpt lat="52.43451471580883" lon="12.955029533467748"><ele>30.5</ele><time>2026-04-03T11:26:17.999Z</time></trkpt><trkpt lat="52.43440506909876" lon="12.954976108272003"><ele>30.75</ele><time>2026-04-03T11:26:18.999Z</time></trkpt><trkpt lat="52.434294279437886" lon="12.954929517587649"><ele>31.0</ele><time>2026-04-03T11:26:19.999Z</time></trkpt><trkpt lat="52.434186099314466" lon="12.954878953316097"><ele>31.0</ele><time>2026-04-03T11:26:20.999Z</time></trkpt><trkpt lat="52.434078124503905" lon="12.954833060143072"><ele>31.0</ele><time>2026-04-03T11:26:21.999Z</time></trkpt><trkpt lat="52.43396987349729" lon="12.954780581965375"><ele>31.0</ele><time>2026-04-03T11:26:22.999Z</time></trkpt><trkpt lat="52.433857843684564" lon="12.954734340420677"><ele>31.0</ele><time>2026-04-03T11:26:23.999Z</time></trkpt><trkpt lat="52.43374370212726" lon="12.95468678926085"><ele>31.0</ele><time>2026-04-03T11:26:24.999Z</time></trkpt><trkpt lat="52.43362615873872" lon="12.95463482248781"><ele>31.0</ele><time>2026-04-03T11:26:25.999Z</time></trkpt><trkpt lat="52.433510043587724" lon="12.954583783679121"><ele>31.0</ele><time>2026-04-03T11:26:26.999Z</time></trkpt><trkpt lat="52.433403698026524" lon="12.954530738208351"><ele>31.0</ele><time>2026-04-03T11:26:27.999Z</time></trkpt><trkpt lat="52.43330502721974" lon="12.954487170686383"><ele>31.000000000000004</ele><time>2026-04-03T11:26:28.999Z</time></trkpt><trkpt lat="52.43321164792989" lon="12.954450515559975"><ele>31.0</ele><time>2026-04-03T11:26:29.999Z</time></trkpt><trkpt lat="52.433125344881915" lon="12.954408835429073"><ele>31.0</ele><time>2026-04-03T11:26:30.999Z</time></trkpt><trkpt lat="52.433054415911286" lon="12.954379532417363"><ele>31.0</ele><time>2026-04-03T11:26:31.999Z</time></trkpt><trkpt lat="52.432955912300415" lon="12.954308982804898"><ele>31.000000000000004</ele><time>2026-04-03T11:26:33.999Z</time></trkpt><trkpt lat="52.43290337993288" lon="12.954238029263156"><ele>31.0</ele><time>2026-04-03T11:26:37.998Z</time></trkpt><trkpt lat="52.432939132529526" lon="12.954053355659253"><ele>31.0</ele><time>2026-04-03T11:26:39.998Z</time></trkpt><trkpt lat="52.43297007196029" lon="12.953900570374756"><ele>31.0</ele><time>2026-04-03T11:26:41.998Z</time></trkpt><trkpt lat="52.4329968925469" lon="12.953704881042047"><ele>31.0</ele><time>2026-04-03T11:26:43.998Z</time></trkpt><trkpt lat="52.433026609805395" lon="12.953516863244648"><ele>31.0</ele><time>2026-04-03T11:26:45.998Z</time></trkpt><trkpt lat="52.43304672942399" lon="12.953415883325139"><ele>31.0</ele><time>2026-04-03T11:26:46.998Z</time></trkpt><trkpt lat="52.433064484651545" lon="12.953315732667193"><ele>30.666666666666668</ele><time>2026-04-03T11:26:47.998Z</time></trkpt><trkpt lat="52.433081706735166" lon="12.953210836804137"><ele>30.333333333333336</ele><time>2026-04-03T11:26:48.998Z</time></trkpt><trkpt lat="52.43309808174297" lon="12.953111105045005"><ele>30.0</ele><time>2026-04-03T11:26:49.998Z</time></trkpt><trkpt lat="52.43313044087198" lon="12.952964247807278"><ele>29.666666666666664</ele><time>2026-04-03T11:26:51.998Z</time></trkpt><trkpt lat="52.4331499461365" lon="12.9528340190474"><ele>29.333333333333332</ele><time>2026-04-03T11:26:53.998Z</time></trkpt><trkpt lat="52.43317262804256" lon="12.952702192548328"><ele>29.0</ele><time>2026-04-03T11:26:55.998Z</time></trkpt><trkpt lat="52.43319924351196" lon="12.952590893034237"><ele>29.4</ele><time>2026-04-03T11:26:57.998Z</time></trkpt><trkpt lat="52.433222001941644" lon="12.952473724562799"><ele>29.799999999999997</ele><time>2026-04-03T11:27:00.998Z</time></trkpt><trkpt lat="52.433242410554215" lon="12.952372346301429"><ele>30.200000000000003</ele><time>2026-04-03T11:27:04.998Z</time></trkpt><trkpt lat="52.43327698904623" lon="12.952195732147066"><ele>30.6</ele><time>2026-04-03T11:27:10Z</time></trkpt><trkpt lat="52.43331615922463" lon="12.952018706713492"><ele>31.0</ele><time>2026-04-03T11:27:12Z</time></trkpt><trkpt lat="52.433350885132185" lon="12.951843382391909"><ele>31.000000000000004</ele><time>2026-04-03T11:27:14Z</time></trkpt><trkpt lat="52.43339071172513" lon="12.951654556598605"><ele>31.0</ele><time>2026-04-03T11:27:16Z</time></trkpt><trkpt lat="52.43341104347214" lon="12.951549226161873"><ele>31.0</ele><time>2026-04-03T11:27:17Z</time></trkpt><trkpt lat="52.43343407779979" lon="12.951433583484041"><ele>31.0</ele><time>2026-04-03T11:27:18Z</time></trkpt><trkpt lat="52.43345769415292" lon="12.951308207970314"><ele>31.000000000000004</ele><time>2026-04-03T11:27:19Z</time></trkpt><trkpt lat="52.433481883705284" lon="12.951176050309666"><ele>31.0</ele><time>2026-04-03T11:27:20Z</time></trkpt><trkpt lat="52.43351159035134" lon="12.951042732320236"><ele>31.000000000000004</ele><time>2026-04-03T11:27:21Z</time></trkpt><trkpt lat="52.43354120940217" lon="12.95090659264389"><ele>31.0</ele><time>2026-04-03T11:27:22Z</time></trkpt><trkpt lat="52.43356525162802" lon="12.950762412560607"><ele>31.0</ele><time>2026-04-03T11:27:23Z</time></trkpt><trkpt lat="52.433581845816704" lon="12.950619534284217"><ele>31.0</ele><time>2026-04-03T11:27:24Z</time></trkpt><trkpt lat="52.43359858250001" lon="12.95048373699413"><ele>31.000000000000004</ele><time>2026-04-03T11:27:25Z</time></trkpt><trkpt lat="52.43361716963738" lon="12.950341579033903"><ele>31.0</ele><time>2026-04-03T11:27:26Z</time></trkpt><trkpt lat="52.4336441375442" lon="12.950194248242166"><ele>31.200000000000003</ele><time>2026-04-03T11:27:27Z</time></trkpt><trkpt lat="52.43366571851119" lon="12.950042630443116"><ele>31.400000000000002</ele><time>2026-04-03T11:27:28Z</time></trkpt><trkpt lat="52.43368918356714" lon="12.949894441990711"><ele>31.6</ele><time>2026-04-03T11:27:29Z</time></trkpt><trkpt lat="52.433700431179254" lon="12.94974337286065"><ele>31.8</ele><time>2026-04-03T11:27:30Z</time></trkpt><trkpt lat="52.433707311225774" lon="12.949587502540673"><ele>32.0</ele><time>2026-04-03T11:27:31Z</time></trkpt><trkpt lat="52.43371142268189" lon="12.949429539410682"><ele>32.0</ele><time>2026-04-03T11:27:32Z</time></trkpt><trkpt lat="52.433714854022575" lon="12.949263003463358"><ele>32.0</ele><time>2026-04-03T11:27:33Z</time></trkpt><trkpt lat="52.433722796974" lon="12.949085931711505"><ele>32.0</ele><time>2026-04-03T11:27:34Z</time></trkpt><trkpt lat="52.43373192792398" lon="12.94890092186481"><ele>32.0</ele><time>2026-04-03T11:27:35Z</time></trkpt><trkpt lat="52.433742901864846" lon="12.948714405092495"><ele>32.0</ele><time>2026-04-03T11:27:36Z</time></trkpt><trkpt lat="52.43375550417366" lon="12.948526209214789"><ele>31.75</ele><time>2026-04-03T11:27:37Z</time></trkpt><trkpt lat="52.43377181295678" lon="12.948335684703585"><ele>31.5</ele><time>2026-04-03T11:27:38Z</time></trkpt><trkpt lat="52.43378882400609" lon="12.948140262657418"><ele>31.25</ele><time>2026-04-03T11:27:39Z</time></trkpt><trkpt lat="52.43380274463663" lon="12.947949154262197"><ele>31.0</ele><time>2026-04-03T11:27:40Z</time></trkpt><trkpt lat="52.43381614174381" lon="12.947758443128661"><ele>30.5</ele><time>2026-04-03T11:27:41Z</time></trkpt><trkpt lat="52.433836209523754" lon="12.947562797153795"><ele>30.0</ele><time>2026-04-03T11:27:42Z</time></trkpt><trkpt lat="52.43386027746476" lon="12.947353856062922"><ele>29.5</ele><time>2026-04-03T11:27:43Z</time></trkpt><trkpt lat="52.43388362288838" lon="12.94714668922572"><ele>29.0</ele><time>2026-04-03T11:27:44Z</time></trkpt><trkpt lat="52.43390836977134" lon="12.94693777474725"><ele>29.0</ele><time>2026-04-03T11:27:45Z</time></trkpt><trkpt lat="52.43393246473872" lon="12.94672448089166"><ele>29.0</ele><time>2026-04-03T11:27:46Z</time></trkpt><trkpt lat="52.43395684774332" lon="12.946518767106571"><ele>29.0</ele><time>2026-04-03T11:27:47Z</time></trkpt><trkpt lat="52.43398575531219" lon="12.946317485528915"><ele>29.0</ele><time>2026-04-03T11:27:48Z</time></trkpt><trkpt lat="52.43401100110812" lon="12.946121185736091"><ele>29.0</ele><time>2026-04-03T11:27:49Z</time></trkpt><trkpt lat="52.4340347409027" lon="12.945929697200793"><ele>29.0</ele><time>2026-04-03T11:27:50Z</time></trkpt><trkpt lat="52.43405725930555" lon="12.945742574634544"><ele>29.0</ele><time>2026-04-03T11:27:50.999Z</time></trkpt><trkpt lat="52.43407831159553" lon="12.94555483238381"><ele>29.0</ele><time>2026-04-03T11:27:51.999Z</time></trkpt><trkpt lat="52.43409685790392" lon="12.945375385159192"><ele>29.4</ele><time>2026-04-03T11:27:52.999Z</time></trkpt><trkpt lat="52.43411592828814" lon="12.945196327553642"><ele>29.799999999999997</ele><time>2026-04-03T11:27:53.999Z</time></trkpt><trkpt lat="52.43413259412149" lon="12.945018208645918"><ele>30.200000000000003</ele><time>2026-04-03T11:27:54.999Z</time></trkpt><trkpt lat="52.434145001868174" lon="12.944842562297131"><ele>30.6</ele><time>2026-04-03T11:27:55.999Z</time></trkpt><trkpt lat="52.43415538901837" lon="12.944676306436044"><ele>31.0</ele><time>2026-04-03T11:27:56.999Z</time></trkpt><trkpt lat="52.434165320877824" lon="12.944518427208413"><ele>31.666666666666668</ele><time>2026-04-03T11:27:57.999Z</time></trkpt><trkpt lat="52.43417680529363" lon="12.94437497052407"><ele>32.333333333333336</ele><time>2026-04-03T11:27:58.999Z</time></trkpt><trkpt lat="52.43418493441317" lon="12.944254605571825"><ele>33.0</ele><time>2026-04-03T11:27:59.999Z</time></trkpt><trkpt lat="52.434193054093136" lon="12.944149796758833"><ele>33.666666666666664</ele><time>2026-04-03T11:28:00.999Z</time></trkpt><trkpt lat="52.434209238298806" lon="12.943978155527434"><ele>34.33333333333333</ele><time>2026-04-03T11:28:02.999Z</time></trkpt><trkpt lat="52.43421541018213" lon="12.94382483979681"><ele>35.0</ele><time>2026-04-03T11:28:04.999Z</time></trkpt><trkpt lat="52.43423217204172" lon="12.943677194148819"><ele>35.166666666666664</ele><time>2026-04-03T11:28:06.999Z</time></trkpt><trkpt lat="52.434228129756306" lon="12.943554031576596"><ele>35.33333333333333</ele><time>2026-04-03T11:28:08.999Z</time></trkpt><trkpt lat="52.43421889050443" lon="12.943448903413993"><ele>35.5</ele><time>2026-04-03T11:28:10.999Z</time></trkpt><trkpt lat="52.43419946074695" lon="12.943316382441143"><ele>35.666666666666664</ele><time>2026-04-03T11:28:13.999Z</time></trkpt><trkpt lat="52.4341681639189" lon="12.943213453094204"><ele>35.833333333333336</ele><time>2026-04-03T11:28:16.999Z</time></trkpt><trkpt lat="52.434135257584174" lon="12.94303024996452"><ele>36.0</ele><time>2026-04-03T11:28:47.998Z</time></trkpt><trkpt lat="52.43412988862323" lon="12.942915463763574"><ele>36.333333333333336</ele><time>2026-04-03T11:28:48.998Z</time></trkpt><trkpt lat="52.43410581008335" lon="12.942791722997724"><ele>36.666666666666664</ele><time>2026-04-03T11:28:49.998Z</time></trkpt><trkpt lat="52.4340624071045" lon="12.94266949698655"><ele>37.0</ele><time>2026-04-03T11:28:50.998Z</time></trkpt><trkpt lat="52.43402171262713" lon="12.942531059787118"><ele>37.33333333333333</ele><time>2026-04-03T11:28:51.998Z</time></trkpt><trkpt lat="52.43398128085187" lon="12.942383610151268"><ele>37.666666666666664</ele><time>2026-04-03T11:28:52.998Z</time></trkpt><trkpt lat="52.43394945375773" lon="12.942245651439181"><ele>38.0</ele><time>2026-04-03T11:28:53.998Z</time></trkpt><trkpt lat="52.43392299951386" lon="12.942095663196582"><ele>38.33333333333333</ele><time>2026-04-03T11:28:54.998Z</time></trkpt><trkpt lat="52.433886139245516" lon="12.941954109611936"><ele>38.666666666666664</ele><time>2026-04-03T11:28:55.998Z</time></trkpt><trkpt lat="52.43388446452977" lon="12.941818655659663"><ele>39.0</ele><time>2026-04-03T11:28:56.998Z</time></trkpt><trkpt lat="52.433877022408645" lon="12.941682825693443"><ele>39.333333333333336</ele><time>2026-04-03T11:28:57.998Z</time></trkpt><trkpt lat="52.433870339868115" lon="12.941559332577821"><ele>39.66666666666667</ele><time>2026-04-03T11:28:58.998Z</time></trkpt><trkpt lat="52.43386303430039" lon="12.941452933818558"><ele>40.0</ele><time>2026-04-03T11:28:59.998Z</time></trkpt><trkpt lat="52.43384617869459" lon="12.941269784896905"><ele>40.16666666666667</ele><time>2026-04-03T11:29:01.998Z</time></trkpt><trkpt lat="52.43383710854799" lon="12.941104202240783"><ele>40.333333333333336</ele><time>2026-04-03T11:29:03.998Z</time></trkpt><trkpt lat="52.43382685330453" lon="12.9410014862792"><ele>40.5</ele><time>2026-04-03T11:29:04.998Z</time></trkpt><trkpt lat="52.43381874961657" lon="12.940895006852125"><ele>40.666666666666664</ele><time>2026-04-03T11:29:05.998Z</time></trkpt><trkpt lat="52.433808506372515" lon="12.940758001174101"><ele>40.83333333333333</ele><time>2026-04-03T11:29:07.998Z</time></trkpt><trkpt lat="52.43380803279098" lon="12.940637744040488"><ele>41.0</ele><time>2026-04-03T11:29:09.998Z</time></trkpt><trkpt lat="52.4337934420028" lon="12.940482367481168"><ele>41.0</ele><time>2026-04-03T11:29:11.998Z</time></trkpt><trkpt lat="52.43381061174856" lon="12.940381351801813"><ele>41.0</ele><time>2026-04-03T11:29:15Z</time></trkpt><trkpt lat="52.43384972588638" lon="12.94030003175923"><ele>41.0</ele><time>2026-04-03T11:29:19Z</time></trkpt><trkpt lat="52.43410609165056" lon="12.94036151397351"><ele>41.0</ele><time>2026-04-03T11:29:20Z</time></trkpt><trkpt lat="52.434174838464436" lon="12.940353557173804"><ele>41.0</ele><time>2026-04-03T11:29:21Z</time></trkpt><trkpt lat="52.434251018621836" lon="12.94031704534412"><ele>41.0</ele><time>2026-04-03T11:29:22Z</time></trkpt><trkpt lat="52.43433400014439" lon="12.940294375491895"><ele>41.0</ele><time>2026-04-03T11:29:23Z</time></trkpt><trkpt lat="52.434419388559725" lon="12.94027904022019"><ele>41.0</ele><time>2026-04-03T11:29:24Z</time></trkpt><trkpt lat="52.43450918467452" lon="12.94027104416894"><ele>41.0</ele><time>2026-04-03T11:29:25Z</time></trkpt><trkpt lat="52.43459292214047" lon="12.940258623085262"><ele>41.0</ele><time>2026-04-03T11:29:26Z</time></trkpt><trkpt lat="52.43467565731453" lon="12.94024748926861"><ele>42.199999999999996</ele><time>2026-04-03T11:29:27Z</time></trkpt><trkpt lat="52.4347610686878" lon="12.940233821586778"><ele>43.4</ele><time>2026-04-03T11:29:28Z</time></trkpt><trkpt lat="52.43484770908459" lon="12.940226522185933"><ele>44.6</ele><time>2026-04-03T11:29:29Z</time></trkpt><trkpt lat="52.43493356506343" lon="12.940218416909975"><ele>45.8</ele><time>2026-04-03T11:29:30Z</time></trkpt><trkpt lat="52.435033209563976" lon="12.94019346830001"><ele>47.0</ele><time>2026-04-03T11:29:31Z</time></trkpt><trkpt lat="52.43512552652031" lon="12.940165309056962"><ele>47.0</ele><time>2026-04-03T11:29:32Z</time></trkpt><trkpt lat="52.43521478437367" lon="12.94013387850523"><ele>47.0</ele><time>2026-04-03T11:29:33Z</time></trkpt><trkpt lat="52.43530439108475" lon="12.940090072647802"><ele>47.0</ele><time>2026-04-03T11:29:34Z</time></trkpt><trkpt lat="52.43539942923671" lon="12.940052249637896"><ele>47.0</ele><time>2026-04-03T11:29:35Z</time></trkpt><trkpt lat="52.435497209529565" lon="12.940005142416926"><ele>47.0</ele><time>2026-04-03T11:29:36Z</time></trkpt><trkpt lat="52.43558999972561" lon="12.939964604751381"><ele>47.8</ele><time>2026-04-03T11:29:37Z</time></trkpt><trkpt lat="52.43568358667557" lon="12.939920154061022"><ele>48.6</ele><time>2026-04-03T11:29:38Z</time></trkpt><trkpt lat="52.435780403489446" lon="12.939879724578626"><ele>49.4</ele><time>2026-04-03T11:29:39Z</time></trkpt><trkpt lat="52.43588504597216" lon="12.93982582295063"><ele>50.199999999999996</ele><time>2026-04-03T11:29:40Z</time></trkpt><trkpt lat="52.43598205527129" lon="12.93977271649957"><ele>51.0</ele><time>2026-04-03T11:29:41Z</time></trkpt><trkpt lat="52.43607495655544" lon="12.939720419573815"><ele>51.0</ele><time>2026-04-03T11:29:42Z</time></trkpt><trkpt lat="52.43615527837785" lon="12.93967629145161"><ele>51.0</ele><time>2026-04-03T11:29:43Z</time></trkpt><trkpt lat="52.43623693861796" lon="12.939620806002509"><ele>51.0</ele><time>2026-04-03T11:29:44Z</time></trkpt><trkpt lat="52.43631737631364" lon="12.939570627342688"><ele>51.0</ele><time>2026-04-03T11:29:45Z</time></trkpt><trkpt lat="52.436391880593426" lon="12.939513731949924"><ele>51.0</ele><time>2026-04-03T11:29:46Z</time></trkpt><trkpt lat="52.436464403247896" lon="12.93945120239472"><ele>51.0</ele><time>2026-04-03T11:29:47Z</time></trkpt><trkpt lat="52.43654049251562" lon="12.939408614325453"><ele>50.666666666666664</ele><time>2026-04-03T11:29:48Z</time></trkpt><trkpt lat="52.43660071824336" lon="12.939371716454756"><ele>50.33333333333333</ele><time>2026-04-03T11:29:49Z</time></trkpt><trkpt lat="52.43666887377222" lon="12.939333112071095"><ele>50.0</ele><time>2026-04-03T11:29:50Z</time></trkpt><trkpt lat="52.436745071337" lon="12.93929711041734"><ele>49.666666666666664</ele><time>2026-04-03T11:29:51Z</time></trkpt><trkpt lat="52.4368131582412" lon="12.9392558857557"><ele>49.33333333333333</ele><time>2026-04-03T11:29:52Z</time></trkpt><trkpt lat="52.436910958401384" lon="12.93919748218006"><ele>49.0</ele><time>2026-04-03T11:29:54Z</time></trkpt><trkpt lat="52.43698639469538" lon="12.939156844197765"><ele>48.99999999999999</ele><time>2026-04-03T11:29:55.999Z</time></trkpt><trkpt lat="52.43704605220742" lon="12.939086429429072"><ele>49.0</ele><time>2026-04-03T11:29:57.999Z</time></trkpt><trkpt lat="52.437143591898824" lon="12.93898242538689"><ele>49.0</ele><time>2026-04-03T11:29:59.999Z</time></trkpt><trkpt lat="52.437194618038404" lon="12.938917043575602"><ele>49.0</ele><time>2026-04-03T11:30:00.999Z</time></trkpt><trkpt lat="52.43724327358414" lon="12.938844410692699"><ele>48.99999999999999</ele><time>2026-04-03T11:30:01.999Z</time></trkpt><trkpt lat="52.43729399740503" lon="12.938772097277344"><ele>49.0</ele><time>2026-04-03T11:30:02.999Z</time></trkpt><trkpt lat="52.437343858509706" lon="12.93870311440633"><ele>48.99999999999999</ele><time>2026-04-03T11:30:03.999Z</time></trkpt><trkpt lat="52.43742488828297" lon="12.938583483588667"><ele>49.0</ele><time>2026-04-03T11:30:05.999Z</time></trkpt><trkpt lat="52.43748785724524" lon="12.93851065037906"><ele>49.0</ele><time>2026-04-03T11:30:07.999Z</time></trkpt><trkpt lat="52.437562722145756" lon="12.938642164295235"><ele>49.0</ele><time>2026-04-03T11:30:10.999Z</time></trkpt><trkpt lat="52.43758219096823" lon="12.938753417905257"><ele>48.99999999999999</ele><time>2026-04-03T11:30:11.999Z</time></trkpt><trkpt lat="52.437604039910966" lon="12.93888266961059"><ele>49.0</ele><time>2026-04-03T11:30:12.999Z</time></trkpt><trkpt lat="52.437639637535305" lon="12.939033120728302"><ele>49.0</ele><time>2026-04-03T11:30:13.999Z</time></trkpt><trkpt lat="52.43768198529029" lon="12.939185151857412"><ele>49.0</ele><time>2026-04-03T11:30:14.999Z</time></trkpt><trkpt lat="52.437729271016586" lon="12.939326409402167"><ele>49.0</ele><time>2026-04-03T11:30:15.999Z</time></trkpt><trkpt lat="52.43777403191123" lon="12.939448046823419"><ele>49.0</ele><time>2026-04-03T11:30:16.999Z</time></trkpt><trkpt lat="52.43780337001692" lon="12.939541685594133"><ele>49.0</ele><time>2026-04-03T11:30:17.999Z</time></trkpt><trkpt lat="52.437855463334806" lon="12.939728639819197"><ele>49.83333333333333</ele><time>2026-04-03T11:30:19.999Z</time></trkpt><trkpt lat="52.437900957589235" lon="12.93986218795298"><ele>50.666666666666664</ele><time>2026-04-03T11:30:21.999Z</time></trkpt><trkpt lat="52.43796529767749" lon="12.939915763589278"><ele>51.5</ele><time>2026-04-03T11:30:23.999Z</time></trkpt><trkpt lat="52.438070969376106" lon="12.939873504775106"><ele>52.33333333333333</ele><time>2026-04-03T11:30:25.999Z</time></trkpt><trkpt lat="52.43815323806348" lon="12.939859871154544"><ele>53.166666666666664</ele><time>2026-04-03T11:30:26.999Z</time></trkpt><trkpt lat="52.43824189234184" lon="12.939841852812213"><ele>54.0</ele><time>2026-04-03T11:30:27.999Z</time></trkpt><trkpt lat="52.43833249839091" lon="12.939811964508925"><ele>54.5</ele><time>2026-04-03T11:30:28.999Z</time></trkpt><trkpt lat="52.43841115701917" lon="12.93978095328506"><ele>55.0</ele><time>2026-04-03T11:30:29.999Z</time></trkpt><trkpt lat="52.438476245871286" lon="12.939772483616277"><ele>55.5</ele><time>2026-04-03T11:30:30.999Z</time></trkpt><trkpt lat="52.43855474399232" lon="12.93974701485818"><ele>56.0</ele><time>2026-04-03T11:30:31.999Z</time></trkpt><trkpt lat="52.43862339264624" lon="12.93974247558343"><ele>56.5</ele><time>2026-04-03T11:30:32.999Z</time></trkpt><trkpt lat="52.43873743566006" lon="12.939726042045423"><ele>57.0</ele><time>2026-04-03T11:30:34.999Z</time></trkpt><trkpt lat="52.43880828741677" lon="12.939722973673117"><ele>57.6</ele><time>2026-04-03T11:30:36.999Z</time></trkpt><trkpt lat="52.438890233816444" lon="12.93968007900457"><ele>58.2</ele><time>2026-04-03T11:30:39.999Z</time></trkpt><trkpt lat="52.438947578467264" lon="12.939626304148888"><ele>58.8</ele><time>2026-04-03T11:30:42.999Z</time></trkpt><trkpt lat="52.43893276496169" lon="12.939479920431188"><ele>59.4</ele><time>2026-04-03T11:30:45.999Z</time></trkpt><trkpt lat="52.43890253541445" lon="12.939287752896023"><ele>60.0</ele><time>2026-04-03T11:30:47.999Z</time></trkpt><trkpt lat="52.43889523278507" lon="12.939104842319042"><ele>60.0</ele><time>2026-04-03T11:30:49.998Z</time></trkpt><trkpt lat="52.438865835254404" lon="12.938919969063118"><ele>60.0</ele><time>2026-04-03T11:30:51.998Z</time></trkpt><trkpt lat="52.43884159419696" lon="12.938721536025417"><ele>60.0</ele><time>2026-04-03T11:30:53.998Z</time></trkpt><trkpt lat="52.43883169034815" lon="12.938604963154013"><ele>60.0</ele><time>2026-04-03T11:30:54.998Z</time></trkpt><trkpt lat="52.43881941681238" lon="12.938479302575482"><ele>60.0</ele><time>2026-04-03T11:30:55.998Z</time></trkpt><trkpt lat="52.438806821969095" lon="12.938350667752763"><ele>58.142857142857146</ele><time>2026-04-03T11:30:56.998Z</time></trkpt><trkpt lat="52.43879680113979" lon="12.93823137749855"><ele>56.285714285714285</ele><time>2026-04-03T11:30:57.998Z</time></trkpt><trkpt lat="52.4387847840114" lon="12.938121043275581"><ele>54.42857142857143</ele><time>2026-04-03T11:30:58.998Z</time></trkpt><trkpt lat="52.438768993769656" lon="12.938014268496204"><ele>52.57142857142857</ele><time>2026-04-03T11:30:59.998Z</time></trkpt><trkpt lat="52.43875105431018" lon="12.937889820056746"><ele>50.71428571428571</ele><time>2026-04-03T11:31:00.998Z</time></trkpt><trkpt lat="52.43873743382919" lon="12.937776064019834"><ele>48.857142857142854</ele><time>2026-04-03T11:31:01.998Z</time></trkpt><trkpt lat="52.438724940793485" lon="12.937670635148812"><ele>47.0</ele><time>2026-04-03T11:31:02.998Z</time></trkpt><trkpt lat="52.43871403698339" lon="12.93755110452593"><ele>46.83333333333333</ele><time>2026-04-03T11:31:03.998Z</time></trkpt><trkpt lat="52.43869651766523" lon="12.93744026316785"><ele>46.666666666666664</ele><time>2026-04-03T11:31:04.998Z</time></trkpt><trkpt lat="52.438662233606145" lon="12.937275531765314"><ele>46.5</ele><time>2026-04-03T11:31:06.998Z</time></trkpt><trkpt lat="52.438614785566585" lon="12.937168522506765"><ele>46.333333333333336</ele><time>2026-04-03T11:31:08.998Z</time></trkpt><trkpt lat="52.43858472019964" lon="12.93706450801475"><ele>46.16666666666667</ele><time>2026-04-03T11:31:10.998Z</time></trkpt><trkpt lat="52.4386152991753" lon="12.936963669206806"><ele>46.0</ele><time>2026-04-03T11:31:12.998Z</time></trkpt><trkpt lat="52.43872847641473" lon="12.936834385877315"><ele>47.16666666666667</ele><time>2026-04-03T11:31:14.998Z</time></trkpt><trkpt lat="52.43880727961589" lon="12.936744189421796"><ele>48.333333333333336</ele><time>2026-04-03T11:31:15.998Z</time></trkpt><trkpt lat="52.43887818654968" lon="12.93666735565472"><ele>49.5</ele><time>2026-04-03T11:31:16.998Z</time></trkpt><trkpt lat="52.43893882905406" lon="12.936595837793368"><ele>50.66666666666667</ele><time>2026-04-03T11:31:17.998Z</time></trkpt><trkpt lat="52.43899383533901" lon="12.936522453947456"><ele>51.833333333333336</ele><time>2026-04-03T11:31:18.998Z</time></trkpt><trkpt lat="52.439065621726996" lon="12.93642782253138"><ele>53.0</ele><time>2026-04-03T11:31:19.998Z</time></trkpt><trkpt lat="52.4391379876351" lon="12.93632506096741"><ele>53.00000000000001</ele><time>2026-04-03T11:31:21Z</time></trkpt><trkpt lat="52.43920810843907" lon="12.936234849424288"><ele>53.0</ele><time>2026-04-03T11:31:22Z</time></trkpt><trkpt lat="52.439276421536626" lon="12.936149366301757"><ele>53.0</ele><time>2026-04-03T11:31:23Z</time></trkpt><trkpt lat="52.439339905086634" lon="12.936069537606082"><ele>53.0</ele><time>2026-04-03T11:31:24Z</time></trkpt><trkpt lat="52.43939807750182" lon="12.935992684707582"><ele>53.00000000000001</ele><time>2026-04-03T11:31:25Z</time></trkpt><trkpt lat="52.439468071259064" lon="12.93593170855607"><ele>53.0</ele><time>2026-04-03T11:31:26Z</time></trkpt><trkpt lat="52.439546065312925" lon="12.935883817366852"><ele>53.333333333333336</ele><time>2026-04-03T11:31:27Z</time></trkpt><trkpt lat="52.439626501340655" lon="12.93584069221421"><ele>53.66666666666667</ele><time>2026-04-03T11:31:28Z</time></trkpt><trkpt lat="52.43971369422505" lon="12.93580858969293"><ele>54.0</ele><time>2026-04-03T11:31:29Z</time></trkpt><trkpt lat="52.439795893964664" lon="12.935760030326824"><ele>54.33333333333333</ele><time>2026-04-03T11:31:30Z</time></trkpt><trkpt lat="52.43987821241963" lon="12.93570579107756"><ele>54.666666666666664</ele><time>2026-04-03T11:31:31Z</time></trkpt><trkpt lat="52.4399630129963" lon="12.9356524331675"><ele>55.0</ele><time>2026-04-03T11:31:32Z</time></trkpt><trkpt lat="52.440056538270106" lon="12.935609469204108"><ele>55.0</ele><time>2026-04-03T11:31:33Z</time></trkpt><trkpt lat="52.4401505390781" lon="12.935544804935915"><ele>55.0</ele><time>2026-04-03T11:31:34Z</time></trkpt><trkpt lat="52.44023985353129" lon="12.935491330221184"><ele>55.0</ele><time>2026-04-03T11:31:35Z</time></trkpt><trkpt lat="52.44032806778263" lon="12.935429262784446"><ele>55.0</ele><time>2026-04-03T11:31:36Z</time></trkpt><trkpt lat="52.44041192110622" lon="12.93536558693914"><ele>55.0</ele><time>2026-04-03T11:31:37Z</time></trkpt><trkpt lat="52.440507406558595" lon="12.935324081833437"><ele>54.4</ele><time>2026-04-03T11:31:38Z</time></trkpt><trkpt lat="52.44060679767619" lon="12.935275546383409"><ele>53.8</ele><time>2026-04-03T11:31:39Z</time></trkpt><trkpt lat="52.44070479126456" lon="12.93521221191104"><ele>53.2</ele><time>2026-04-03T11:31:40Z</time></trkpt><trkpt lat="52.4407968727704" lon="12.935160127838582"><ele>52.6</ele><time>2026-04-03T11:31:41Z</time></trkpt><trkpt lat="52.44089134691536" lon="12.935104305141714"><ele>52.0</ele><time>2026-04-03T11:31:42Z</time></trkpt><trkpt lat="52.4409854488726" lon="12.935046396749344"><ele>52.0</ele><time>2026-04-03T11:31:43Z</time></trkpt><trkpt lat="52.4410781639664" lon="12.935004330441615"><ele>52.0</ele><time>2026-04-03T11:31:44Z</time></trkpt><trkpt lat="52.4411727178043" lon="12.93494029821513"><ele>52.0</ele><time>2026-04-03T11:31:45Z</time></trkpt><trkpt lat="52.441257575208084" lon="12.934888424661859"><ele>52.0</ele><time>2026-04-03T11:31:46Z</time></trkpt><trkpt lat="52.44133381408611" lon="12.934851942663675"><ele>52.0</ele><time>2026-04-03T11:31:47Z</time></trkpt><trkpt lat="52.44140812437992" lon="12.934787751927068"><ele>53.400000000000006</ele><time>2026-04-03T11:31:48Z</time></trkpt><trkpt lat="52.441495791827315" lon="12.934746349934095"><ele>54.800000000000004</ele><time>2026-04-03T11:31:49Z</time></trkpt><trkpt lat="52.44159706857621" lon="12.934673150844874"><ele>56.2</ele><time>2026-04-03T11:31:50Z</time></trkpt><trkpt lat="52.44169989150057" lon="12.934607817347311"><ele>57.6</ele><time>2026-04-03T11:31:51Z</time></trkpt><trkpt lat="52.441782775391324" lon="12.93453712015265"><ele>59.0</ele><time>2026-04-03T11:31:52Z</time></trkpt><trkpt lat="52.44186533677103" lon="12.934477650511411"><ele>59.0</ele><time>2026-04-03T11:31:53Z</time></trkpt><trkpt lat="52.44193972435571" lon="12.934392503786151"><ele>59.00000000000001</ele><time>2026-04-03T11:31:54Z</time></trkpt><trkpt lat="52.442030193868355" lon="12.934330311541265"><ele>59.00000000000001</ele><time>2026-04-03T11:31:55Z</time></trkpt><trkpt lat="52.4421402267631" lon="12.934265553259074"><ele>59.0</ele><time>2026-04-03T11:31:56Z</time></trkpt><trkpt lat="52.44224091142889" lon="12.934188190081265"><ele>59.0</ele><time>2026-04-03T11:31:57Z</time></trkpt><trkpt lat="52.44232804890884" lon="12.934142933464921"><ele>58.00000000000001</ele><time>2026-04-03T11:31:58Z</time></trkpt><trkpt lat="52.44239605479961" lon="12.934084381343194"><ele>57.0</ele><time>2026-04-03T11:31:59Z</time></trkpt><trkpt lat="52.44246964371367" lon="12.934034130857121"><ele>56.0</ele><time>2026-04-03T11:32:00Z</time></trkpt><trkpt lat="52.44255278037582" lon="12.934008325360562"><ele>55.0</ele><time>2026-04-03T11:32:01Z</time></trkpt><trkpt lat="52.44264301295332" lon="12.933976793450729"><ele>54.00000000000001</ele><time>2026-04-03T11:32:01.999Z</time></trkpt><trkpt lat="52.44272649696903" lon="12.933943036689655"><ele>53.0</ele><time>2026-04-03T11:32:02.999Z</time></trkpt><trkpt lat="52.44279738594658" lon="12.933925141043094"><ele>53.00000000000001</ele><time>2026-04-03T11:32:03.999Z</time></trkpt><trkpt lat="52.44289919712665" lon="12.93388107887143"><ele>53.0</ele><time>2026-04-03T11:32:05.999Z</time></trkpt><trkpt lat="52.44299192155271" lon="12.933826179223942"><ele>53.0</ele><time>2026-04-03T11:32:07.999Z</time></trkpt><trkpt lat="52.443065920723534" lon="12.933856855326395"><ele>53.0</ele><time>2026-04-03T11:32:09.999Z</time></trkpt><trkpt lat="52.443116174683766" lon="12.933959587252975"><ele>53.00000000000001</ele><time>2026-04-03T11:32:12.999Z</time></trkpt><trkpt lat="52.443163254550825" lon="12.934059814741204"><ele>53.0</ele><time>2026-04-03T11:32:14.999Z</time></trkpt><trkpt lat="52.44321627997929" lon="12.93414601847281"><ele>53.50000000000001</ele><time>2026-04-03T11:32:17.999Z</time></trkpt><trkpt lat="52.443272881751" lon="12.934193375769862"><ele>54.0</ele><time>2026-04-03T11:32:19.999Z</time></trkpt><trkpt lat="52.44335969246785" lon="12.93421060365881"><ele>54.5</ele><time>2026-04-03T11:32:22.999Z</time></trkpt><trkpt lat="52.44343817579834" lon="12.93414943442388"><ele>55.0</ele><time>2026-04-03T11:33:09.998Z</time></trkpt><trkpt lat="52.44354076829013" lon="12.934123672411854"><ele>55.50000000000001</ele><time>2026-04-03T11:33:11.998Z</time></trkpt><trkpt lat="52.44361557476415" lon="12.934074661216554"><ele>56.0</ele><time>2026-04-03T11:33:13.998Z</time></trkpt><trkpt lat="52.443678631317084" lon="12.934044015284796"><ele>56.00000000000001</ele><time>2026-04-03T11:33:15.998Z</time></trkpt><trkpt lat="52.44376587847791" lon="12.933995192208714"><ele>56.0</ele><time>2026-04-03T11:33:18.998Z</time></trkpt><trkpt lat="52.44383438146483" lon="12.933958575376872"><ele>56.0</ele><time>2026-04-03T11:33:20.998Z</time></trkpt><trkpt lat="52.44390520295698" lon="12.933948182305535"><ele>56.0</ele><time>2026-04-03T11:33:23.998Z</time></trkpt><trkpt lat="52.44396287562869" lon="12.933886179310607"><ele>56.00000000000001</ele><time>2026-04-03T11:33:25.998Z</time></trkpt><trkpt lat="52.444013444155146" lon="12.933730801627105"><ele>56.0</ele><time>2026-04-03T11:33:28Z</time></trkpt><trkpt lat="52.44405171725134" lon="12.933629904995188"><ele>56.16666666666667</ele><time>2026-04-03T11:33:30Z</time></trkpt><trkpt lat="52.44411671094425" lon="12.933661823825616"><ele>56.333333333333336</ele><time>2026-04-03T11:33:35Z</time></trkpt><trkpt lat="52.44414603232514" lon="12.933826318954956"><ele>56.5</ele><time>2026-04-03T11:33:37Z</time></trkpt><trkpt lat="52.44414898895594" lon="12.933935050653105"><ele>56.66666666666667</ele><time>2026-04-03T11:33:38Z</time></trkpt><trkpt lat="52.44416610212843" lon="12.934060818760734"><ele>56.833333333333336</ele><time>2026-04-03T11:33:40Z</time></trkpt><trkpt lat="52.444194235660056" lon="12.934214615438062"><ele>57.0</ele><time>2026-04-03T11:33:42Z</time></trkpt><trkpt lat="52.44424263684653" lon="12.934333631926073"><ele>57.0</ele><time>2026-04-03T11:33:44Z</time></trkpt><trkpt lat="52.44424506073076" lon="12.9344639187366"><ele>57.0</ele><time>2026-04-03T11:33:46Z</time></trkpt><trkpt lat="52.444191877861655" lon="12.934554682464922"><ele>57.0</ele><time>2026-04-03T11:33:48Z</time></trkpt><trkpt lat="52.44424225253007" lon="12.934622921308948"><ele>57.0</ele><time>2026-04-03T11:33:51Z</time></trkpt><trkpt lat="52.44423686068625" lon="12.934499201089228"><ele>57.0</ele><time>2026-04-03T11:33:55Z</time></trkpt><trkpt lat="52.44421928133005" lon="12.934336225045168"><ele>57.0</ele><time>2026-04-03T11:33:57Z</time></trkpt><trkpt lat="52.44420581773371" lon="12.93421609424979"><ele>56.833333333333336</ele><time>2026-04-03T11:34:00Z</time></trkpt><trkpt lat="52.44414419080189" lon="12.934126379088175"><ele>56.66666666666667</ele><time>2026-04-03T11:34:02Z</time></trkpt><trkpt lat="52.44409087680974" lon="12.934009076480134"><ele>56.5</ele><time>2026-04-03T11:34:04Z</time></trkpt><trkpt lat="52.44403201411882" lon="12.93393119363092"><ele>56.333333333333336</ele><time>2026-04-03T11:34:06Z</time></trkpt><trkpt lat="52.44395159320162" lon="12.93394637891254"><ele>56.16666666666667</ele><time>2026-04-03T11:34:07.999Z</time></trkpt><trkpt lat="52.44386154409304" lon="12.933990314385605"><ele>56.0</ele><time>2026-04-03T11:34:14.999Z</time></trkpt><trkpt lat="52.44374229789109" lon="12.934066268041688"><ele>56.00000000000001</ele><time>2026-04-03T11:34:16.999Z</time></trkpt><trkpt lat="52.44364203199786" lon="12.93413924775938"><ele>56.0</ele><time>2026-04-03T11:34:18.999Z</time></trkpt><trkpt lat="52.44357933130006" lon="12.934152936959613"><ele>56.0</ele><time>2026-04-03T11:34:20.999Z</time></trkpt><trkpt lat="52.44350175991403" lon="12.934164982321123"><ele>56.0</ele><time>2026-04-03T11:34:23.999Z</time></trkpt><trkpt lat="52.4434240673708" lon="12.934250104943906"><ele>56.00000000000001</ele><time>2026-04-03T11:34:25.999Z</time></trkpt><trkpt lat="52.44336221940622" lon="12.934304390064932"><ele>56.0</ele><time>2026-04-03T11:34:27.999Z</time></trkpt><trkpt lat="52.44343978694647" lon="12.934231864019958"><ele>56.00000000000001</ele><time>2026-04-03T11:34:36.999Z</time></trkpt><trkpt lat="52.44351421611184" lon="12.934201299815669"><ele>56.0</ele><time>2026-04-03T11:34:37.999Z</time></trkpt><trkpt lat="52.443594415150024" lon="12.934180540438506"><ele>56.0</ele><time>2026-04-03T11:34:38.999Z</time></trkpt><trkpt lat="52.44365520086801" lon="12.934137916875065"><ele>56.0</ele><time>2026-04-03T11:34:39.999Z</time></trkpt><trkpt lat="52.443719683837564" lon="12.934084584746921"><ele>56.00000000000001</ele><time>2026-04-03T11:34:41.999Z</time></trkpt><trkpt lat="52.443801414527" lon="12.934042850926307"><ele>56.0</ele><time>2026-04-03T11:34:44.999Z</time></trkpt><trkpt lat="52.44387353962113" lon="12.933928958088952"><ele>55.714285714285715</ele><time>2026-04-03T11:40:00Z</time></trkpt><trkpt lat="52.443928382390624" lon="12.933877950195534"><ele>55.42857142857143</ele><time>2026-04-03T11:40:15Z</time></trkpt><trkpt lat="52.44399054938281" lon="12.933779194654164"><ele>55.14285714285714</ele><time>2026-04-03T11:40:43.999Z</time></trkpt><trkpt lat="52.444036632477136" lon="12.933704985449538"><ele>54.85714285714286</ele><time>2026-04-03T11:42:26.999Z</time></trkpt><trkpt lat="52.443975588605674" lon="12.933752370527461"><ele>54.57142857142857</ele><time>2026-04-03T11:42:51.999Z</time></trkpt><trkpt lat="52.44398543408891" lon="12.933861384594687"><ele>54.285714285714285</ele><time>2026-04-03T11:44:22.999Z</time></trkpt><trkpt lat="52.44393871980279" lon="12.933954513679254"><ele>54.0</ele><time>2026-04-03T11:44:27.999Z</time></trkpt><trkpt lat="52.443861384150146" lon="12.933996831486553"><ele>54.0</ele><time>2026-04-03T11:44:32.999Z</time></trkpt><trkpt lat="52.4439234168539" lon="12.933925467559316"><ele>54.0</ele><time>2026-04-03T11:45:15.999Z</time></trkpt><trkpt lat="52.44405183594345" lon="12.933923948575224"><ele>54.0</ele><time>2026-04-03T11:45:20.999Z</time></trkpt><trkpt lat="52.444116595850794" lon="12.933920246099808"><ele>54.0</ele><time>2026-04-03T11:45:24.998Z</time></trkpt><trkpt lat="52.44409912480431" lon="12.93402833440424"><ele>54.0</ele><time>2026-04-03T11:45:31.998Z</time></trkpt><trkpt lat="52.44402061553823" lon="12.933991154222056"><ele>54.0</ele><time>2026-04-03T11:45:35.998Z</time></trkpt><trkpt lat="52.44394971916968" lon="12.933958087214966"><ele>54.0</ele><time>2026-04-03T11:45:38.998Z</time></trkpt><trkpt lat="52.44400932063685" lon="12.933880661024405"><ele>54.0</ele><time>2026-04-03T11:45:42.998Z</time></trkpt><trkpt lat="52.44406850580533" lon="12.933990281061263"><ele>54.0</ele><time>2026-04-03T11:45:44.998Z</time></trkpt><trkpt lat="52.44414106916771" lon="12.934131866309556"><ele>54.0</ele><time>2026-04-03T11:45:46.998Z</time></trkpt><trkpt lat="52.44421312228771" lon="12.93406127858007"><ele>54.0</ele><time>2026-04-03T11:45:49.998Z</time></trkpt><trkpt lat="52.44423650595506" lon="12.933924298650846"><ele>54.0</ele><time>2026-04-03T11:45:51.998Z</time></trkpt><trkpt lat="52.444180062458365" lon="12.933825658533388"><ele>54.0</ele><time>2026-04-03T11:45:55.998Z</time></trkpt><trkpt lat="52.444080317126115" lon="12.933817442362685"><ele>54.0</ele><time>2026-04-03T11:45:58.998Z</time></trkpt><trkpt lat="52.444046670237796" lon="12.93396042311334"><ele>54.0</ele><time>2026-04-03T11:46:19Z</time></trkpt><trkpt lat="52.444076698233054" lon="12.934076602327922"><ele>54.0</ele><time>2026-04-03T11:46:21Z</time></trkpt><trkpt lat="52.44414263852994" lon="12.934143413585076"><ele>54.0</ele><time>2026-04-03T11:46:23Z</time></trkpt><trkpt lat="52.44414224406901" lon="12.934031533698576"><ele>54.0</ele><time>2026-04-03T11:46:35Z</time></trkpt><trkpt lat="52.44407812431307" lon="12.93395318492528"><ele>54.0</ele><time>2026-04-03T11:46:41Z</time></trkpt><trkpt lat="52.44400774978264" lon="12.933907906656733"><ele>54.0</ele><time>2026-04-03T11:46:43Z</time></trkpt><trkpt lat="52.443972465933406" lon="12.93402493736529"><ele>54.0</ele><time>2026-04-03T11:46:46Z</time></trkpt><trkpt lat="52.44403574677753" lon="12.934055161724133"><ele>54.0</ele><time>2026-04-03T11:46:49Z</time></trkpt><trkpt lat="52.4441300335219" lon="12.934123797019804"><ele>54.0</ele><time>2026-04-03T11:46:52Z</time></trkpt><trkpt lat="52.44419571050686" lon="12.934267433295553"><ele>54.0</ele><time>2026-04-03T11:46:57Z</time></trkpt><trkpt lat="52.44422156863525" lon="12.934399389871237"><ele>54.0</ele><time>2026-04-03T11:46:59Z</time></trkpt><trkpt lat="52.444193743401904" lon="12.934554972751776"><ele>54.0</ele><time>2026-04-03T11:47:01.999Z</time></trkpt><trkpt lat="52.444218887650706" lon="12.934425244610694"><ele>54.0</ele><time>2026-04-03T11:47:09.999Z</time></trkpt><trkpt lat="52.44420049460505" lon="12.934308410934262"><ele>54.0</ele><time>2026-04-03T11:47:11.999Z</time></trkpt><trkpt lat="52.44418435468627" lon="12.934204532205165"><ele>54.0</ele><time>2026-04-03T11:47:13.999Z</time></trkpt><trkpt lat="52.44415724942306" lon="12.934040964857031"><ele>54.0</ele><time>2026-04-03T11:47:15.999Z</time></trkpt><trkpt lat="52.44412006828566" lon="12.933903910951914"><ele>54.0</ele><time>2026-04-03T11:47:17.999Z</time></trkpt><trkpt lat="52.44409957014605" lon="12.933742695620168"><ele>54.0</ele><time>2026-04-03T11:47:19.999Z</time></trkpt><trkpt lat="52.44410081489125" lon="12.933633112167628"><ele>54.0</ele><time>2026-04-03T11:47:22.999Z</time></trkpt><trkpt lat="52.44405087577154" lon="12.933704200492544"><ele>54.0</ele><time>2026-04-03T11:47:26.999Z</time></trkpt><trkpt lat="52.44406421371801" lon="12.933807983318982"><ele>54.0</ele><time>2026-04-03T11:47:28.999Z</time></trkpt><trkpt lat="52.444103203233176" lon="12.933989225369789"><ele>54.0</ele><time>2026-04-03T11:47:30.999Z</time></trkpt><trkpt lat="52.444120145904684" lon="12.934108432770573"><ele>54.0</ele><time>2026-04-03T11:47:32.999Z</time></trkpt><trkpt lat="52.444160583793696" lon="12.934201713085773"><ele>54.0</ele><time>2026-04-03T11:47:34.999Z</time></trkpt><trkpt lat="52.4442120268224" lon="12.934137932628403"><ele>54.0</ele><time>2026-04-03T11:47:38.999Z</time></trkpt><trkpt lat="52.444174744338056" lon="12.934026170443719"><ele>54.0</ele><time>2026-04-03T11:47:41.999Z</time></trkpt><trkpt lat="52.444141462968325" lon="12.933884045021882"><ele>54.0</ele><time>2026-04-03T11:47:43.999Z</time></trkpt><trkpt lat="52.44411512358562" lon="12.933715805375114"><ele>54.0</ele><time>2026-04-03T11:47:45.999Z</time></trkpt><trkpt lat="52.44407845015124" lon="12.933826044602863"><ele>54.0</ele><time>2026-04-03T11:47:54.999Z</time></trkpt><trkpt lat="52.44410622098672" lon="12.933971487129085"><ele>54.0</ele><time>2026-04-03T11:47:56.999Z</time></trkpt><trkpt lat="52.4441284071243" lon="12.934102665190771"><ele>54.0</ele><time>2026-04-03T11:49:13Z</time></trkpt><trkpt lat="52.44420179776348" lon="12.934156132944272"><ele>54.0</ele><time>2026-04-03T11:49:16Z</time></trkpt><trkpt lat="52.44426102618371" lon="12.934057315046317"><ele>54.0</ele><time>2026-04-03T11:49:19Z</time></trkpt><trkpt lat="52.44424420011071" lon="12.933949308347463"><ele>54.0</ele><time>2026-04-03T11:49:21Z</time></trkpt><trkpt lat="52.44421258573079" lon="12.93384474097214"><ele>54.0</ele><time>2026-04-03T11:49:23Z</time></trkpt><trkpt lat="52.444130790875626" lon="12.93384598303173"><ele>54.0</ele><time>2026-04-03T11:49:25.999Z</time></trkpt><trkpt lat="52.44408544175498" lon="12.933965414036447"><ele>54.0</ele><time>2026-04-03T11:49:27.999Z</time></trkpt><trkpt lat="52.44408947899321" lon="12.934089648542722"><ele>54.0</ele><time>2026-04-03T11:49:29.999Z</time></trkpt><trkpt lat="52.44414045698175" lon="12.934174164666546"><ele>54.0</ele><time>2026-04-03T11:49:31.999Z</time></trkpt><trkpt lat="52.444230338947676" lon="12.934133793955478"><ele>54.0</ele><time>2026-04-03T11:49:34.999Z</time></trkpt><trkpt lat="52.444218594040166" lon="12.933990102275668"><ele>54.0</ele><time>2026-04-03T11:49:37.999Z</time></trkpt><trkpt lat="52.44421145375326" lon="12.933882526711498"><ele>54.0</ele><time>2026-04-03T11:49:40.999Z</time></trkpt><trkpt lat="52.44413974928304" lon="12.93386186596689"><ele>54.0</ele><time>2026-04-03T11:49:43.999Z</time></trkpt><trkpt lat="52.444067117754436" lon="12.93391519238972"><ele>54.0</ele><time>2026-04-03T11:49:45.999Z</time></trkpt><trkpt lat="52.444067880341635" lon="12.934054493578348"><ele>54.0</ele><time>2026-04-03T11:49:48.999Z</time></trkpt><trkpt lat="52.44411267142359" lon="12.934157879366074"><ele>54.0</ele><time>2026-04-03T11:49:50.999Z</time></trkpt><trkpt lat="52.44418425002362" lon="12.934186117892581"><ele>54.0</ele><time>2026-04-03T11:49:53.999Z</time></trkpt><trkpt lat="52.44421878501471" lon="12.93402860051262"><ele>54.0</ele><time>2026-04-03T11:49:57.999Z</time></trkpt><trkpt lat="52.44422340102428" lon="12.933923955591954"><ele>54.0</ele><time>2026-04-03T11:49:59.999Z</time></trkpt><trkpt lat="52.444172545370996" lon="12.933847357462424"><ele>54.0</ele><time>2026-04-03T11:50:03.999Z</time></trkpt><trkpt lat="52.44408447581298" lon="12.93385767704932"><ele>54.0</ele><time>2026-04-03T11:50:06.999Z</time></trkpt><trkpt lat="52.44408974438556" lon="12.933998589422979"><ele>54.0</ele><time>2026-04-03T11:53:46.999Z</time></trkpt><trkpt lat="52.444151362168846" lon="12.934120760377624"><ele>54.0</ele><time>2026-04-03T11:53:49.999Z</time></trkpt><trkpt lat="52.44414911324467" lon="12.933779752716413"><ele>54.0</ele><time>2026-04-03T11:53:58.999Z</time></trkpt><trkpt lat="52.44412666062328" lon="12.933613956475677"><ele>54.0</ele><time>2026-04-03T11:54:00.999Z</time></trkpt><trkpt lat="52.444066128224904" lon="12.933692107071211"><ele>54.0</ele><time>2026-04-03T11:54:06.999Z</time></trkpt><trkpt lat="52.44407996670978" lon="12.933806888276578"><ele>54.0</ele><time>2026-04-03T11:54:08.999Z</time></trkpt><trkpt lat="52.444098237404816" lon="12.933912940796294"><ele>54.0</ele><time>2026-04-03T11:54:09.999Z</time></trkpt><trkpt lat="52.44411409785322" lon="12.934013075183737"><ele>54.0</ele><time>2026-04-03T11:54:10.999Z</time></trkpt><trkpt lat="52.444172079354885" lon="12.934135643583879"><ele>54.0</ele><time>2026-04-03T11:54:12.999Z</time></trkpt><trkpt lat="52.444209906799685" lon="12.934266655820876"><ele>54.0</ele><time>2026-04-03T11:54:14.999Z</time></trkpt><trkpt lat="52.444253085997154" lon="12.934365924067917"><ele>54.0</ele><time>2026-04-03T11:54:16.998Z</time></trkpt><trkpt lat="52.44426384944286" lon="12.934501144811211"><ele>54.42857142857143</ele><time>2026-04-03T11:54:19.998Z</time></trkpt><trkpt lat="52.44422348581184" lon="12.934591274734439"><ele>54.857142857142854</ele><time>2026-04-03T11:54:22.998Z</time></trkpt><trkpt lat="52.44416029359404" lon="12.934625660213985"><ele>55.285714285714285</ele><time>2026-04-03T11:54:27Z</time></trkpt><trkpt lat="52.44408645318781" lon="12.934604155225859"><ele>55.71428571428571</ele><time>2026-04-03T11:54:30Z</time></trkpt><trkpt lat="52.44401294062185" lon="12.934563274917167"><ele>56.14285714285714</ele><time>2026-04-03T11:54:34Z</time></trkpt><trkpt lat="52.443954015888636" lon="12.9345257386768"><ele>56.57142857142857</ele><time>2026-04-03T11:54:38Z</time></trkpt><trkpt lat="52.44388670079421" lon="12.93441698878266"><ele>57.0</ele><time>2026-04-03T11:54:45Z</time></trkpt><trkpt lat="52.443835732037996" lon="12.934346884044922"><ele>56.857142857142854</ele><time>2026-04-03T11:54:49Z</time></trkpt><trkpt lat="52.44376528762737" lon="12.934231288258996"><ele>56.71428571428571</ele><time>2026-04-03T11:54:53Z</time></trkpt><trkpt lat="52.44374314222078" lon="12.934132753553365"><ele>56.57142857142857</ele><time>2026-04-03T11:54:55Z</time></trkpt><trkpt lat="52.44377777670841" lon="12.934046392852915"><ele>56.42857142857143</ele><time>2026-04-03T11:54:59Z</time></trkpt><trkpt lat="52.44384204763026" lon="12.93402206333953"><ele>56.285714285714285</ele><time>2026-04-03T11:55:00Z</time></trkpt><trkpt lat="52.443913288620415" lon="12.934014996227523"><ele>56.14285714285714</ele><time>2026-04-03T11:55:01Z</time></trkpt><trkpt lat="52.443981332479076" lon="12.933986433550583"><ele>56.0</ele><time>2026-04-03T11:55:03Z</time></trkpt><trkpt lat="52.4440619781626" lon="12.933979553302985"><ele>55.66666666666667</ele><time>2026-04-03T11:55:05Z</time></trkpt><trkpt lat="52.44417510323193" lon="12.934008844915862"><ele>55.333333333333336</ele><time>2026-04-03T11:55:07Z</time></trkpt><trkpt lat="52.44425371189492" lon="12.934005316845731"><ele>55.0</ele><time>2026-04-03T11:55:09Z</time></trkpt><trkpt lat="52.444223722689806" lon="12.933885795767996"><ele>54.66666666666667</ele><time>2026-04-03T11:55:12Z</time></trkpt><trkpt lat="52.44415677857134" lon="12.933849232723247"><ele>54.333333333333336</ele><time>2026-04-03T11:55:15Z</time></trkpt><trkpt lat="52.44407063373509" lon="12.933892139894578"><ele>54.0</ele><time>2026-04-03T11:55:17.999Z</time></trkpt><trkpt lat="52.444014626697836" lon="12.933954233989848"><ele>54.0</ele><time>2026-04-03T11:55:20.999Z</time></trkpt><trkpt lat="52.44393394492429" lon="12.9339568387964"><ele>54.00000000000001</ele><time>2026-04-03T11:55:23.999Z</time></trkpt><trkpt lat="52.444046938917324" lon="12.934023235380836"><ele>54.00000000000001</ele><time>2026-04-03T11:55:37.999Z</time></trkpt><trkpt lat="52.44404423616153" lon="12.933823374333244"><ele>54.0</ele><time>2026-04-03T11:55:40.999Z</time></trkpt><trkpt lat="52.44404088792068" lon="12.933704921931218"><ele>54.0</ele><time>2026-04-03T11:55:41.999Z</time></trkpt><trkpt lat="52.44411388224225" lon="12.933674001747804"><ele>54.0</ele><time>2026-04-03T11:55:55.999Z</time></trkpt><trkpt lat="52.4441313171308" lon="12.93379105915989"><ele>54.0</ele><time>2026-04-03T11:56:04.999Z</time></trkpt><trkpt lat="52.44414225215654" lon="12.933934782577625"><ele>54.0</ele><time>2026-04-03T11:56:06.999Z</time></trkpt><trkpt lat="52.44410812502603" lon="12.934026909512328"><ele>54.0</ele><time>2026-04-03T11:56:15.998Z</time></trkpt><trkpt lat="52.44403621910875" lon="12.93401973282337"><ele>54.0</ele><time>2026-04-03T11:56:20.998Z</time></trkpt><trkpt lat="52.443944888028724" lon="12.93397621930456"><ele>54.0</ele><time>2026-04-03T11:56:54Z</time></trkpt><trkpt lat="52.44386221366982" lon="12.933996803290203"><ele>54.0</ele><time>2026-04-03T11:56:57Z</time></trkpt><trkpt lat="52.44380153448664" lon="12.934044271183877"><ele>54.00000000000001</ele><time>2026-04-03T11:57:06Z</time></trkpt><trkpt lat="52.44373970757609" lon="12.93408778023035"><ele>54.00000000000001</ele><time>2026-04-03T11:57:07Z</time></trkpt><trkpt lat="52.44364153954325" lon="12.934142359585232"><ele>54.0</ele><time>2026-04-03T11:57:09Z</time></trkpt><trkpt lat="52.4435301687795" lon="12.934207831147068"><ele>54.0</ele><time>2026-04-03T11:57:11Z</time></trkpt><trkpt lat="52.443431566917205" lon="12.934237543133575"><ele>55.166666666666664</ele><time>2026-04-03T11:57:13Z</time></trkpt><trkpt lat="52.44336615924748" lon="12.934293780916045"><ele>56.33333333333333</ele><time>2026-04-03T11:57:15.999Z</time></trkpt><trkpt lat="52.443361868585164" lon="12.9344187928596"><ele>57.5</ele><time>2026-04-03T11:57:17.999Z</time></trkpt><trkpt lat="52.44342147359516" lon="12.934546530566944"><ele>58.666666666666664</ele><time>2026-04-03T11:57:19.999Z</time></trkpt><trkpt lat="52.443451209379894" lon="12.934640379757678"><ele>59.83333333333333</ele><time>2026-04-03T11:57:20.999Z</time></trkpt><trkpt lat="52.443494111865284" lon="12.93474580985259"><ele>61.0</ele><time>2026-04-03T11:57:21.999Z</time></trkpt><trkpt lat="52.44354710606647" lon="12.93484799786083"><ele>60.99999999999999</ele><time>2026-04-03T11:57:22.999Z</time></trkpt><trkpt lat="52.44359875532481" lon="12.934949668621465"><ele>61.0</ele><time>2026-04-03T11:57:23.999Z</time></trkpt><trkpt lat="52.443633143886466" lon="12.935039638685486"><ele>60.99999999999999</ele><time>2026-04-03T11:57:24.999Z</time></trkpt><trkpt lat="52.44367918752373" lon="12.935120472057394"><ele>60.99999999999999</ele><time>2026-04-03T11:57:25.999Z</time></trkpt><trkpt lat="52.443714892865465" lon="12.935206924392222"><ele>61.0</ele><time>2026-04-03T11:57:26.999Z</time></trkpt><trkpt lat="52.44375475112615" lon="12.935305726236347"><ele>60.99999999999999</ele><time>2026-04-03T11:57:27.999Z</time></trkpt><trkpt lat="52.44379370309038" lon="12.935389011040826"><ele>60.99999999999999</ele><time>2026-04-03T11:57:28.999Z</time></trkpt><trkpt lat="52.44383600379499" lon="12.935482488199236"><ele>59.83333333333333</ele><time>2026-04-03T11:57:29.999Z</time></trkpt><trkpt lat="52.44389299012524" lon="12.935570942082286"><ele>58.666666666666664</ele><time>2026-04-03T11:57:30.999Z</time></trkpt><trkpt lat="52.44392913942877" lon="12.935669024921946"><ele>57.5</ele><time>2026-04-03T11:57:31.999Z</time></trkpt><trkpt lat="52.44396372958056" lon="12.935762516957702"><ele>56.33333333333333</ele><time>2026-04-03T11:57:32.999Z</time></trkpt><trkpt lat="52.444040414520835" lon="12.93589726427222"><ele>55.166666666666664</ele><time>2026-04-03T11:57:34.999Z</time></trkpt><trkpt lat="52.444097044788556" lon="12.935956625320028"><ele>54.0</ele><time>2026-04-03T11:57:35.999Z</time></trkpt><trkpt lat="52.444137048430235" lon="12.936045524725314"><ele>52.0</ele><time>2026-04-03T11:57:36.999Z</time></trkpt><trkpt lat="52.44418550442555" lon="12.936115476053018"><ele>50.0</ele><time>2026-04-03T11:57:37.999Z</time></trkpt><trkpt lat="52.44424563349546" lon="12.936289796258324"><ele>48.0</ele><time>2026-04-03T11:57:39.999Z</time></trkpt><trkpt lat="52.44430802702805" lon="12.936416842113507"><ele>46.0</ele><time>2026-04-03T11:57:41.999Z</time></trkpt><trkpt lat="52.44436411672609" lon="12.936482687071901"><ele>44.0</ele><time>2026-04-03T11:57:43.999Z</time></trkpt><trkpt lat="52.44442839880575" lon="12.936502264533537"><ele>42.0</ele><time>2026-04-03T11:57:47.999Z</time></trkpt><trkpt lat="52.44450136810171" lon="12.936436017815554"><ele>42.0</ele><time>2026-04-03T11:57:49.999Z</time></trkpt><trkpt lat="52.444604775730035" lon="12.936288477269343"><ele>42.0</ele><time>2026-04-03T11:57:51.999Z</time></trkpt><trkpt lat="52.44467275942489" lon="12.936208913692353"><ele>42.0</ele><time>2026-04-03T11:57:52.999Z</time></trkpt><trkpt lat="52.44472245008589" lon="12.936141112700705"><ele>42.0</ele><time>2026-04-03T11:57:53.999Z</time></trkpt><trkpt lat="52.444799673077654" lon="12.936051856531323"><ele>42.0</ele><time>2026-04-03T11:57:55.999Z</time></trkpt><trkpt lat="52.444860111800935" lon="12.935953276505156"><ele>42.400000000000006</ele><time>2026-04-03T11:57:57.999Z</time></trkpt><trkpt lat="52.44496691953826" lon="12.935906504555149"><ele>42.800000000000004</ele><time>2026-04-03T11:57:59.999Z</time></trkpt><trkpt lat="52.44505932054776" lon="12.935799207550247"><ele>43.2</ele><time>2026-04-03T11:58:01.999Z</time></trkpt><trkpt lat="52.44511171303267" lon="12.93570907521147"><ele>43.6</ele><time>2026-04-03T11:58:02.999Z</time></trkpt><trkpt lat="52.44517827505096" lon="12.935664003822218"><ele>44.0</ele><time>2026-04-03T11:58:03.999Z</time></trkpt><trkpt lat="52.44528738415692" lon="12.93553114804168"><ele>44.0</ele><time>2026-04-03T11:58:05.999Z</time></trkpt><trkpt lat="52.4453794777909" lon="12.935382805957522"><ele>44.0</ele><time>2026-04-03T11:58:07.999Z</time></trkpt><trkpt lat="52.445429267185084" lon="12.935307050762761"><ele>44.0</ele><time>2026-04-03T11:58:08.998Z</time></trkpt><trkpt lat="52.445493829481094" lon="12.93524075514953"><ele>44.0</ele><time>2026-04-03T11:58:09.998Z</time></trkpt><trkpt lat="52.44554148077293" lon="12.935132966053434"><ele>44.0</ele><time>2026-04-03T11:58:10.998Z</time></trkpt><trkpt lat="52.44559487230618" lon="12.93504253327819"><ele>44.0</ele><time>2026-04-03T11:58:11.998Z</time></trkpt><trkpt lat="52.44564883218145" lon="12.934954302430024"><ele>43.5</ele><time>2026-04-03T11:58:12.998Z</time></trkpt><trkpt lat="52.44571301368061" lon="12.934877024500937"><ele>43.0</ele><time>2026-04-03T11:58:13.998Z</time></trkpt><trkpt lat="52.44575774084188" lon="12.934774590911902"><ele>42.5</ele><time>2026-04-03T11:58:14.998Z</time></trkpt><trkpt lat="52.44581717243042" lon="12.934688612434096"><ele>42.0</ele><time>2026-04-03T11:58:15.998Z</time></trkpt><trkpt lat="52.445871827810834" lon="12.934591716152529"><ele>41.5</ele><time>2026-04-03T11:58:16.998Z</time></trkpt><trkpt lat="52.44591596615013" lon="12.934486759806093"><ele>41.0</ele><time>2026-04-03T11:58:17.998Z</time></trkpt><trkpt lat="52.445976598009274" lon="12.934382853483749"><ele>41.0</ele><time>2026-04-03T11:58:18.998Z</time></trkpt><trkpt lat="52.44603277794445" lon="12.934280208234002"><ele>41.0</ele><time>2026-04-03T11:58:19.998Z</time></trkpt><trkpt lat="52.4460895692206" lon="12.934147385790105"><ele>41.0</ele><time>2026-04-03T11:58:20.998Z</time></trkpt><trkpt lat="52.44615501418196" lon="12.934063453092923"><ele>41.0</ele><time>2026-04-03T11:58:21.998Z</time></trkpt><trkpt lat="52.446202481310586" lon="12.933950929223018"><ele>41.0</ele><time>2026-04-03T11:58:22.998Z</time></trkpt><trkpt lat="52.44629795607522" lon="12.933754233334463"><ele>41.0</ele><time>2026-04-03T11:58:24.998Z</time></trkpt><trkpt lat="52.44632053626913" lon="12.933615277943328"><ele>41.0</ele><time>2026-04-03T11:58:25.998Z</time></trkpt><trkpt lat="52.446344679624836" lon="12.933494131528665"><ele>41.0</ele><time>2026-04-03T11:58:26.998Z</time></trkpt><trkpt lat="52.44637251630926" lon="12.933396796206678"><ele>41.0</ele><time>2026-04-03T11:58:27.998Z</time></trkpt><trkpt lat="52.446381717744046" lon="12.933253992632775"><ele>41.0</ele><time>2026-04-03T11:58:31.998Z</time></trkpt><trkpt lat="52.446409780649844" lon="12.933149564131652"><ele>41.0</ele><time>2026-04-03T11:58:35.998Z</time></trkpt><trkpt lat="52.44643668804744" lon="12.93296568858873"><ele>41.0</ele><time>2026-04-03T11:58:43Z</time></trkpt><trkpt lat="52.44645258377942" lon="12.932858911269182"><ele>41.0</ele><time>2026-04-03T11:58:51Z</time></trkpt><trkpt lat="52.44646913784873" lon="12.932747711758802"><ele>41.0</ele><time>2026-04-03T11:58:53Z</time></trkpt><trkpt lat="52.44647333986368" lon="12.932611409363725"><ele>41.0</ele><time>2026-04-03T11:58:55Z</time></trkpt><trkpt lat="52.44651124536223" lon="12.93239744016427"><ele>41.0</ele><time>2026-04-03T11:58:57Z</time></trkpt><trkpt lat="52.44653825126062" lon="12.932300469499395"><ele>41.0</ele><time>2026-04-03T11:58:58Z</time></trkpt><trkpt lat="52.446562008338994" lon="12.932151268649097"><ele>41.0</ele><time>2026-04-03T11:58:59Z</time></trkpt><trkpt lat="52.446586317517976" lon="12.932007178740221"><ele>41.0</ele><time>2026-04-03T11:59:00Z</time></trkpt><trkpt lat="52.44661017087595" lon="12.931866707451436"><ele>41.0</ele><time>2026-04-03T11:59:01Z</time></trkpt><trkpt lat="52.446637766594684" lon="12.931717463943299"><ele>41.0</ele><time>2026-04-03T11:59:02Z</time></trkpt><trkpt lat="52.44666610752144" lon="12.931576398318041"><ele>41.0</ele><time>2026-04-03T11:59:03Z</time></trkpt><trkpt lat="52.44668272672014" lon="12.931434626882448"><ele>40.599999999999994</ele><time>2026-04-03T11:59:04Z</time></trkpt><trkpt lat="52.446732073353346" lon="12.931324955089394"><ele>40.199999999999996</ele><time>2026-04-03T11:59:05Z</time></trkpt><trkpt lat="52.44677941251352" lon="12.931201066344515"><ele>39.8</ele><time>2026-04-03T11:59:06Z</time></trkpt><trkpt lat="52.44681591783666" lon="12.931051674092165"><ele>39.4</ele><time>2026-04-03T11:59:07Z</time></trkpt><trkpt lat="52.44686297242562" lon="12.93092823916742"><ele>39.0</ele><time>2026-04-03T11:59:08Z</time></trkpt><trkpt lat="52.446905110217784" lon="12.930786019842078"><ele>38.6</ele><time>2026-04-03T11:59:09Z</time></trkpt><trkpt lat="52.4469142294388" lon="12.9306267316444"><ele>38.2</ele><time>2026-04-03T11:59:10Z</time></trkpt><trkpt lat="52.446928540418575" lon="12.930477411731776"><ele>37.800000000000004</ele><time>2026-04-03T11:59:11Z</time></trkpt><trkpt lat="52.446941537583484" lon="12.930317028016063"><ele>37.4</ele><time>2026-04-03T11:59:12Z</time></trkpt><trkpt lat="52.44694013534172" lon="12.930166082771793"><ele>37.0</ele><time>2026-04-03T11:59:13Z</time></trkpt><trkpt lat="52.44695179575305" lon="12.930031518927262"><ele>37.0</ele><time>2026-04-03T11:59:14Z</time></trkpt><trkpt lat="52.4469588243368" lon="12.929889713064139"><ele>37.0</ele><time>2026-04-03T11:59:15Z</time></trkpt><trkpt lat="52.44696467024534" lon="12.929752115046504"><ele>37.0</ele><time>2026-04-03T11:59:16Z</time></trkpt><trkpt lat="52.44697167499748" lon="12.929609303694347"><ele>37.0</ele><time>2026-04-03T11:59:17Z</time></trkpt><trkpt lat="52.44697896468291" lon="12.929479339738958"><ele>37.0</ele><time>2026-04-03T11:59:18Z</time></trkpt><trkpt lat="52.44698446412759" lon="12.92934952919107"><ele>37.0</ele><time>2026-04-03T11:59:18.999Z</time></trkpt><trkpt lat="52.446990122524156" lon="12.929224968311027"><ele>37.0</ele><time>2026-04-03T11:59:19.999Z</time></trkpt><trkpt lat="52.44699635266811" lon="12.929085187702299"><ele>37.0</ele><time>2026-04-03T11:59:20.999Z</time></trkpt><trkpt lat="52.447003419644304" lon="12.92893594289219"><ele>37.0</ele><time>2026-04-03T11:59:21.999Z</time></trkpt><trkpt lat="52.44701014254284" lon="12.928809423940057"><ele>37.0</ele><time>2026-04-03T11:59:22.999Z</time></trkpt><trkpt lat="52.44701510388754" lon="12.928690598866245"><ele>37.0</ele><time>2026-04-03T11:59:23.999Z</time></trkpt><trkpt lat="52.4470212635088" lon="12.928553173475327"><ele>37.0</ele><time>2026-04-03T11:59:24.999Z</time></trkpt><trkpt lat="52.44702738006854" lon="12.928410975946756"><ele>37.0</ele><time>2026-04-03T11:59:25.999Z</time></trkpt><trkpt lat="52.447035319323156" lon="12.928269768847768"><ele>37.0</ele><time>2026-04-03T11:59:26.999Z</time></trkpt><trkpt lat="52.44704204730105" lon="12.928131170873048"><ele>37.0</ele><time>2026-04-03T11:59:27.999Z</time></trkpt><trkpt lat="52.44704857572491" lon="12.928002526065415"><ele>37.0</ele><time>2026-04-03T11:59:28.999Z</time></trkpt><trkpt lat="52.447053530249114" lon="12.92789936778187"><ele>37.0</ele><time>2026-04-03T11:59:29.999Z</time></trkpt><trkpt lat="52.44705964064603" lon="12.927796524278863"><ele>37.0</ele><time>2026-04-03T11:59:30.999Z</time></trkpt><trkpt lat="52.4470654118224" lon="12.927688660982385"><ele>37.0</ele><time>2026-04-03T11:59:31.999Z</time></trkpt><trkpt lat="52.447070405743396" lon="12.927580995672349"><ele>37.0</ele><time>2026-04-03T11:59:32.999Z</time></trkpt><trkpt lat="52.447076947512166" lon="12.927472639314967"><ele>37.0</ele><time>2026-04-03T11:59:33.999Z</time></trkpt><trkpt lat="52.447084422019394" lon="12.927282756207662"><ele>37.0</ele><time>2026-04-03T11:59:35.999Z</time></trkpt><trkpt lat="52.44710889551691" lon="12.927125338620773"><ele>37.0</ele><time>2026-04-03T11:59:37.999Z</time></trkpt><trkpt lat="52.44712113008553" lon="12.926911449046816"><ele>37.0</ele><time>2026-04-03T11:59:39.999Z</time></trkpt><trkpt lat="52.447127202881205" lon="12.92680384944188"><ele>37.0</ele><time>2026-04-03T11:59:40.999Z</time></trkpt><trkpt lat="52.44712265832952" lon="12.926697896699487"><ele>37.0</ele><time>2026-04-03T11:59:41.999Z</time></trkpt><trkpt lat="52.44713242455334" lon="12.92648765445844"><ele>37.0</ele><time>2026-04-03T11:59:43.999Z</time></trkpt><trkpt lat="52.44715097966846" lon="12.926382566611776"><ele>37.0</ele><time>2026-04-03T11:59:44.999Z</time></trkpt><trkpt lat="52.447157266350764" lon="12.92627117759973"><ele>37.0</ele><time>2026-04-03T11:59:45.999Z</time></trkpt><trkpt lat="52.44716328112422" lon="12.926164026160038"><ele>37.0</ele><time>2026-04-03T11:59:46.999Z</time></trkpt><trkpt lat="52.447160246001715" lon="12.926050380546256"><ele>37.142857142857146</ele><time>2026-04-03T11:59:47.999Z</time></trkpt><trkpt lat="52.447166491143484" lon="12.925939756656618"><ele>37.285714285714285</ele><time>2026-04-03T11:59:48.999Z</time></trkpt><trkpt lat="52.44717065042153" lon="12.925826936916165"><ele>37.42857142857143</ele><time>2026-04-03T11:59:49.999Z</time></trkpt><trkpt lat="52.44717671139459" lon="12.925711273853972"><ele>37.57142857142857</ele><time>2026-04-03T11:59:50.999Z</time></trkpt><trkpt lat="52.44718309086806" lon="12.925594219851638"><ele>37.714285714285715</ele><time>2026-04-03T11:59:51.999Z</time></trkpt><trkpt lat="52.447190194310394" lon="12.9254732519993"><ele>37.857142857142854</ele><time>2026-04-03T11:59:52.999Z</time></trkpt><trkpt lat="52.44719557914477" lon="12.925362102139191"><ele>38.0</ele><time>2026-04-03T11:59:53.999Z</time></trkpt><trkpt lat="52.44721875434225" lon="12.925172724947348"><ele>38.0</ele><time>2026-04-03T11:59:55.999Z</time></trkpt><trkpt lat="52.44722492038746" lon="12.9250614515699"><ele>38.0</ele><time>2026-04-03T11:59:56.999Z</time></trkpt><trkpt lat="52.44723091451862" lon="12.924950417339888"><ele>38.0</ele><time>2026-04-03T11:59:57.999Z</time></trkpt><trkpt lat="52.447237631263064" lon="12.924825997677363"><ele>38.0</ele><time>2026-04-03T11:59:58.999Z</time></trkpt><trkpt lat="52.44724394741305" lon="12.924706279112783"><ele>38.0</ele><time>2026-04-03T11:59:59.999Z</time></trkpt><trkpt lat="52.44725030887605" lon="12.924585550208478"><ele>38.0</ele><time>2026-04-03T12:00:00.999Z</time></trkpt><trkpt lat="52.447256872049415" lon="12.924460993184928"><ele>38.0</ele><time>2026-04-03T12:00:01.999Z</time></trkpt><trkpt lat="52.44724629637767" lon="12.924343404405992"><ele>37.857142857142854</ele><time>2026-04-03T12:00:02.999Z</time></trkpt><trkpt lat="52.447268535212984" lon="12.924227771511507"><ele>37.714285714285715</ele><time>2026-04-03T12:00:03.999Z</time></trkpt><trkpt lat="52.44727433574772" lon="12.924108702734985"><ele>37.57142857142857</ele><time>2026-04-03T12:00:04.999Z</time></trkpt><trkpt lat="52.447279929970165" lon="12.923993868974238"><ele>37.42857142857143</ele><time>2026-04-03T12:00:05.999Z</time></trkpt><trkpt lat="52.44728529390209" lon="12.923883762432625"><ele>37.285714285714285</ele><time>2026-04-03T12:00:06.999Z</time></trkpt><trkpt lat="52.44727522643211" lon="12.923776572427693"><ele>37.142857142857146</ele><time>2026-04-03T12:00:07.999Z</time></trkpt><trkpt lat="52.44728926074743" lon="12.923662810840122"><ele>37.0</ele><time>2026-04-03T12:00:08.999Z</time></trkpt><trkpt lat="52.44729159120478" lon="12.92355528528684"><ele>37.0</ele><time>2026-04-03T12:00:09.999Z</time></trkpt><trkpt lat="52.44729544123466" lon="12.92343524864153"><ele>37.0</ele><time>2026-04-03T12:00:10.999Z</time></trkpt><trkpt lat="52.447301413971935" lon="12.923320413552029"><ele>37.0</ele><time>2026-04-03T12:00:11.999Z</time></trkpt><trkpt lat="52.44730645694256" lon="12.923195248664502"><ele>37.0</ele><time>2026-04-03T12:00:12.999Z</time></trkpt><trkpt lat="52.44731178743343" lon="12.923074019980518"><ele>37.0</ele><time>2026-04-03T12:00:13.998Z</time></trkpt><trkpt lat="52.44731728829123" lon="12.922950373377"><ele>37.0</ele><time>2026-04-03T12:00:14.998Z</time></trkpt><trkpt lat="52.4473222768169" lon="12.922834281257643"><ele>37.0</ele><time>2026-04-03T12:00:15.998Z</time></trkpt><trkpt lat="52.44732806190982" lon="12.922716597455686"><ele>37.0</ele><time>2026-04-03T12:00:16.998Z</time></trkpt><trkpt lat="52.44733281739142" lon="12.922604298196497"><ele>37.0</ele><time>2026-04-03T12:00:17.998Z</time></trkpt><trkpt lat="52.4473379909504" lon="12.922484228545049"><ele>37.0</ele><time>2026-04-03T12:00:18.998Z</time></trkpt><trkpt lat="52.44734324497663" lon="12.922378793539558"><ele>37.0</ele><time>2026-04-03T12:00:19.998Z</time></trkpt><trkpt lat="52.44735180216222" lon="12.922189133509224"><ele>37.0</ele><time>2026-04-03T12:00:21.998Z</time></trkpt><trkpt lat="52.44735693065928" lon="12.922079497509687"><ele>37.0</ele><time>2026-04-03T12:00:22.998Z</time></trkpt><trkpt lat="52.44736222145626" lon="12.921959261867816"><ele>37.0</ele><time>2026-04-03T12:00:23.998Z</time></trkpt><trkpt lat="52.44736778853325" lon="12.921852501479192"><ele>37.0</ele><time>2026-04-03T12:00:24.998Z</time></trkpt><trkpt lat="52.44737282951807" lon="12.921741212016402"><ele>37.0</ele><time>2026-04-03T12:00:25.998Z</time></trkpt><trkpt lat="52.447381230674786" lon="12.921551342019992"><ele>37.0</ele><time>2026-04-03T12:00:27.998Z</time></trkpt><trkpt lat="52.447392539914475" lon="12.921342309885945"><ele>37.0</ele><time>2026-04-03T12:00:29.998Z</time></trkpt><trkpt lat="52.44741085464887" lon="12.921231683646079"><ele>37.0</ele><time>2026-04-03T12:00:30.998Z</time></trkpt><trkpt lat="52.44740657191151" lon="12.921065392988053"><ele>37.2</ele><time>2026-04-03T12:00:32.998Z</time></trkpt><trkpt lat="52.44742614836603" lon="12.920952308677988"><ele>37.400000000000006</ele><time>2026-04-03T12:00:34.998Z</time></trkpt><trkpt lat="52.44727196838427" lon="12.920901792196668"><ele>37.599999999999994</ele><time>2026-04-03T12:00:37.998Z</time></trkpt><trkpt lat="52.447191518628195" lon="12.920914103207235"><ele>37.8</ele><time>2026-04-03T12:00:39.998Z</time></trkpt><trkpt lat="52.447061804828216" lon="12.920893457282533"><ele>38.0</ele><time>2026-04-03T12:00:41.998Z</time></trkpt><trkpt lat="52.44696770074142" lon="12.920880315807793"><ele>37.666666666666664</ele><time>2026-04-03T12:00:42.998Z</time></trkpt><trkpt lat="52.4468798112295" lon="12.92086938097212"><ele>37.33333333333333</ele><time>2026-04-03T12:00:44Z</time></trkpt><trkpt lat="52.446797036021934" lon="12.920851960022677"><ele>37.0</ele><time>2026-04-03T12:00:45Z</time></trkpt><trkpt lat="52.44671415162239" lon="12.920841345200122"><ele>36.666666666666664</ele><time>2026-04-03T12:00:46Z</time></trkpt><trkpt lat="52.446627958539324" lon="12.920828933231252"><ele>36.333333333333336</ele><time>2026-04-03T12:00:47Z</time></trkpt><trkpt lat="52.446544697690676" lon="12.920817289452545"><ele>36.0</ele><time>2026-04-03T12:00:48Z</time></trkpt><trkpt lat="52.446457254730255" lon="12.920804914742842"><ele>36.0</ele><time>2026-04-03T12:00:49Z</time></trkpt><trkpt lat="52.44636792423327" lon="12.920794881946396"><ele>36.0</ele><time>2026-04-03T12:00:50Z</time></trkpt><trkpt lat="52.44628573112916" lon="12.920780568832312"><ele>36.0</ele><time>2026-04-03T12:00:51Z</time></trkpt><trkpt lat="52.44621591590311" lon="12.92077078555825"><ele>36.0</ele><time>2026-04-03T12:00:52Z</time></trkpt><trkpt lat="52.44614170720795" lon="12.920753198843055"><ele>36.0</ele><time>2026-04-03T12:00:53Z</time></trkpt><trkpt lat="52.44605882504555" lon="12.920741657508255"><ele>36.0</ele><time>2026-04-03T12:00:54Z</time></trkpt><trkpt lat="52.44596593541901" lon="12.920728500363388"><ele>35.6</ele><time>2026-04-03T12:00:55Z</time></trkpt><trkpt lat="52.44587268012979" lon="12.920715998481052"><ele>35.2</ele><time>2026-04-03T12:00:56Z</time></trkpt><trkpt lat="52.44577925091802" lon="12.920703066306178"><ele>34.8</ele><time>2026-04-03T12:00:57Z</time></trkpt><trkpt lat="52.44568682781156" lon="12.920690582111243"><ele>34.4</ele><time>2026-04-03T12:00:58Z</time></trkpt><trkpt lat="52.44559560868628" lon="12.920677462326053"><ele>34.0</ele><time>2026-04-03T12:00:59Z</time></trkpt><trkpt lat="52.44550313444597" lon="12.920663630232706"><ele>33.833333333333336</ele><time>2026-04-03T12:01:00Z</time></trkpt><trkpt lat="52.445413608598344" lon="12.920651512779134"><ele>33.66666666666667</ele><time>2026-04-03T12:01:01Z</time></trkpt><trkpt lat="52.44532230228778" lon="12.920638536997672"><ele>33.5</ele><time>2026-04-03T12:01:02Z</time></trkpt><trkpt lat="52.44523284594023" lon="12.920626656927238"><ele>33.333333333333336</ele><time>2026-04-03T12:01:03Z</time></trkpt><trkpt lat="52.44515205860021" lon="12.920615489274098"><ele>33.166666666666664</ele><time>2026-04-03T12:01:04Z</time></trkpt><trkpt lat="52.44508698071029" lon="12.92060777633729"><ele>33.0</ele><time>2026-04-03T12:01:05Z</time></trkpt><trkpt lat="52.44498849332937" lon="12.920593247100152"><ele>33.0</ele><time>2026-04-03T12:01:07Z</time></trkpt><trkpt lat="52.44490247532843" lon="12.920579961795038"><ele>33.0</ele><time>2026-04-03T12:01:09Z</time></trkpt><trkpt lat="52.44482123090078" lon="12.920567250144268"><ele>33.0</ele><time>2026-04-03T12:01:12Z</time></trkpt><trkpt lat="52.444744853721126" lon="12.920557277448607"><ele>33.0</ele><time>2026-04-03T12:01:14Z</time></trkpt><trkpt lat="52.44464213937321" lon="12.920525847991533"><ele>33.0</ele><time>2026-04-03T12:01:16Z</time></trkpt><trkpt lat="52.44457350344063" lon="12.920516177904044"><ele>33.0</ele><time>2026-04-03T12:01:17Z</time></trkpt><trkpt lat="52.444491618705584" lon="12.920504280247359"><ele>33.0</ele><time>2026-04-03T12:01:18Z</time></trkpt><trkpt lat="52.44439464214959" lon="12.92049168952202"><ele>33.0</ele><time>2026-04-03T12:01:19Z</time></trkpt><trkpt lat="52.44430859568877" lon="12.920479109902834"><ele>33.0</ele><time>2026-04-03T12:01:20Z</time></trkpt><trkpt lat="52.44422391569403" lon="12.92049358303224"><ele>33.0</ele><time>2026-04-03T12:01:21Z</time></trkpt><trkpt lat="52.44413936000301" lon="12.920455196447731"><ele>33.0</ele><time>2026-04-03T12:01:22Z</time></trkpt><trkpt lat="52.44405095161984" lon="12.920443006195631"><ele>33.0</ele><time>2026-04-03T12:01:23Z</time></trkpt><trkpt lat="52.44396084386551" lon="12.920430576311023"><ele>33.0</ele><time>2026-04-03T12:01:24Z</time></trkpt><trkpt lat="52.443871842505445" lon="12.920418299049421"><ele>33.0</ele><time>2026-04-03T12:01:25Z</time></trkpt><trkpt lat="52.44378325026245" lon="12.920406078221546"><ele>33.0</ele><time>2026-04-03T12:01:25.999Z</time></trkpt><trkpt lat="52.443689714406055" lon="12.920420473657924"><ele>33.0</ele><time>2026-04-03T12:01:26.999Z</time></trkpt><trkpt lat="52.443600017633614" lon="12.920399362500529"><ele>33.0</ele><time>2026-04-03T12:01:27.999Z</time></trkpt><trkpt lat="52.443517862494325" lon="12.92039585921728"><ele>33.0</ele><time>2026-04-03T12:01:28.999Z</time></trkpt><trkpt lat="52.44343548157197" lon="12.920358005642793"><ele>33.0</ele><time>2026-04-03T12:01:29.999Z</time></trkpt><trkpt lat="52.44335017299408" lon="12.920373421873997"><ele>33.0</ele><time>2026-04-03T12:01:30.999Z</time></trkpt><trkpt lat="52.4432662329628" lon="12.920355278006124"><ele>33.0</ele><time>2026-04-03T12:01:31.999Z</time></trkpt><trkpt lat="52.44318058899451" lon="12.920347427342596"><ele>33.0</ele><time>2026-04-03T12:01:32.999Z</time></trkpt><trkpt lat="52.44309387858815" lon="12.92033545863606"><ele>33.0</ele><time>2026-04-03T12:01:33.999Z</time></trkpt><trkpt lat="52.44301456254331" lon="12.920324950497726"><ele>33.0</ele><time>2026-04-03T12:01:34.999Z</time></trkpt><trkpt lat="52.44293639458448" lon="12.920312078633993"><ele>32.833333333333336</ele><time>2026-04-03T12:01:35.999Z</time></trkpt><trkpt lat="52.442851140414184" lon="12.920301462782891"><ele>32.666666666666664</ele><time>2026-04-03T12:01:36.999Z</time></trkpt><trkpt lat="52.442762675798576" lon="12.920290418832938"><ele>32.5</ele><time>2026-04-03T12:01:37.999Z</time></trkpt><trkpt lat="52.442679795116305" lon="12.920278263852667"><ele>32.33333333333333</ele><time>2026-04-03T12:01:38.999Z</time></trkpt><trkpt lat="52.44259785912731" lon="12.92026371061171"><ele>32.166666666666664</ele><time>2026-04-03T12:01:39.999Z</time></trkpt><trkpt lat="52.44251105748145" lon="12.920253139365375"><ele>32.0</ele><time>2026-04-03T12:01:40.999Z</time></trkpt><trkpt lat="52.442422116550986" lon="12.920240716434785"><ele>32.0</ele><time>2026-04-03T12:01:41.999Z</time></trkpt><trkpt lat="52.44233151417246" lon="12.9202295961173"><ele>32.0</ele><time>2026-04-03T12:01:42.999Z</time></trkpt><trkpt lat="52.44223945175697" lon="12.92021693488962"><ele>32.0</ele><time>2026-04-03T12:01:43.999Z</time></trkpt><trkpt lat="52.44215007100274" lon="12.920202306278998"><ele>32.0</ele><time>2026-04-03T12:01:44.999Z</time></trkpt><trkpt lat="52.44206071676662" lon="12.920191576656025"><ele>32.0</ele><time>2026-04-03T12:01:45.999Z</time></trkpt><trkpt lat="52.441971673741406" lon="12.920177276089264"><ele>32.0</ele><time>2026-04-03T12:01:46.999Z</time></trkpt><trkpt lat="52.441882908403954" lon="12.920165035955632"><ele>32.0</ele><time>2026-04-03T12:01:47.999Z</time></trkpt><trkpt lat="52.441788883192686" lon="12.920148735515912"><ele>32.0</ele><time>2026-04-03T12:01:48.999Z</time></trkpt><trkpt lat="52.441693140401064" lon="12.92013651412467"><ele>32.0</ele><time>2026-04-03T12:01:49.999Z</time></trkpt><trkpt lat="52.44160136027639" lon="12.920124159711218"><ele>32.0</ele><time>2026-04-03T12:01:50.999Z</time></trkpt><trkpt lat="52.44150846083618" lon="12.920112102840903"><ele>32.0</ele><time>2026-04-03T12:01:51.999Z</time></trkpt><trkpt lat="52.44141461468351" lon="12.920095374367882"><ele>32.0</ele><time>2026-04-03T12:01:52.999Z</time></trkpt><trkpt lat="52.44132230847495" lon="12.920091554520178"><ele>32.0</ele><time>2026-04-03T12:01:53.999Z</time></trkpt><trkpt lat="52.44122531139239" lon="12.920069542180194"><ele>32.0</ele><time>2026-04-03T12:01:54.999Z</time></trkpt><trkpt lat="52.44112581505751" lon="12.920057741826538"><ele>32.0</ele><time>2026-04-03T12:01:55.999Z</time></trkpt><trkpt lat="52.44102851478098" lon="12.920049341930847"><ele>32.6</ele><time>2026-04-03T12:01:56.999Z</time></trkpt><trkpt lat="52.440929159488604" lon="12.920031002409704"><ele>33.2</ele><time>2026-04-03T12:01:57.999Z</time></trkpt><trkpt lat="52.44083161803081" lon="12.920017673729399"><ele>33.8</ele><time>2026-04-03T12:01:58.999Z</time></trkpt><trkpt lat="52.44073786576515" lon="12.920007063292404"><ele>34.4</ele><time>2026-04-03T12:01:59.999Z</time></trkpt><trkpt lat="52.44064880602269" lon="12.919992959353403"><ele>35.0</ele><time>2026-04-03T12:02:00.999Z</time></trkpt><trkpt lat="52.440563361318134" lon="12.919979729160385"><ele>35.0</ele><time>2026-04-03T12:02:01.999Z</time></trkpt><trkpt lat="52.44048227529483" lon="12.91996605787734"><ele>35.0</ele><time>2026-04-03T12:02:02.999Z</time></trkpt><trkpt lat="52.44039932677267" lon="12.919956250738359"><ele>35.0</ele><time>2026-04-03T12:02:03.999Z</time></trkpt><trkpt lat="52.44030891215785" lon="12.919944625009235"><ele>35.0</ele><time>2026-04-03T12:02:04.999Z</time></trkpt><trkpt lat="52.440226344932476" lon="12.919937065572354"><ele>35.0</ele><time>2026-04-03T12:02:05.999Z</time></trkpt><trkpt lat="52.440141965868634" lon="12.91991936638015"><ele>35.0</ele><time>2026-04-03T12:02:06.999Z</time></trkpt><trkpt lat="52.44005838044258" lon="12.919910140593787"><ele>35.666666666666664</ele><time>2026-04-03T12:02:07.999Z</time></trkpt><trkpt lat="52.439968457944595" lon="12.919901640022216"><ele>36.33333333333333</ele><time>2026-04-03T12:02:08.999Z</time></trkpt><trkpt lat="52.43988368000845" lon="12.919888760918194"><ele>37.0</ele><time>2026-04-03T12:02:09.999Z</time></trkpt><trkpt lat="52.43979524161787" lon="12.919876382676554"><ele>37.666666666666664</ele><time>2026-04-03T12:02:10.999Z</time></trkpt><trkpt lat="52.4397077236186" lon="12.919862139168224"><ele>38.333333333333336</ele><time>2026-04-03T12:02:11.999Z</time></trkpt><trkpt lat="52.43961640163396" lon="12.919847980020894"><ele>39.0</ele><time>2026-04-03T12:02:12.999Z</time></trkpt><trkpt lat="52.439525221424375" lon="12.919840003221443"><ele>39.2</ele><time>2026-04-03T12:02:13.999Z</time></trkpt><trkpt lat="52.439445390639484" lon="12.919826646990243"><ele>39.4</ele><time>2026-04-03T12:02:14.999Z</time></trkpt><trkpt lat="52.4393728855549" lon="12.91981301020539"><ele>39.6</ele><time>2026-04-03T12:02:15.999Z</time></trkpt><trkpt lat="52.43930780994837" lon="12.919805254316403"><ele>39.8</ele><time>2026-04-03T12:02:16.999Z</time></trkpt><trkpt lat="52.439198843510795" lon="12.919768889216096"><ele>40.0</ele><time>2026-04-03T12:02:18.999Z</time></trkpt><trkpt lat="52.43906708544849" lon="12.919749893797581"><ele>40.0</ele><time>2026-04-03T12:02:20.999Z</time></trkpt><trkpt lat="52.43899866060246" lon="12.919740026901865"><ele>40.0</ele><time>2026-04-03T12:02:21.998Z</time></trkpt><trkpt lat="52.43893614235535" lon="12.919756896861697"><ele>40.0</ele><time>2026-04-03T12:02:22.998Z</time></trkpt><trkpt lat="52.438864360298474" lon="12.919734852079083"><ele>40.0</ele><time>2026-04-03T12:02:23.998Z</time></trkpt><trkpt lat="52.43878883650705" lon="12.919730243753577"><ele>40.0</ele><time>2026-04-03T12:02:24.998Z</time></trkpt><trkpt lat="52.438703299405915" lon="12.919719828093154"><ele>40.0</ele><time>2026-04-03T12:02:25.998Z</time></trkpt><trkpt lat="52.438625254980046" lon="12.919709741169152"><ele>40.0</ele><time>2026-04-03T12:02:26.998Z</time></trkpt><trkpt lat="52.438548096591006" lon="12.919701782027259"><ele>40.285714285714285</ele><time>2026-04-03T12:02:27.998Z</time></trkpt><trkpt lat="52.43847334147952" lon="12.91969833868009"><ele>40.57142857142857</ele><time>2026-04-03T12:02:28.998Z</time></trkpt><trkpt lat="52.4383931112779" lon="12.919684769224713"><ele>40.85714285714286</ele><time>2026-04-03T12:02:29.998Z</time></trkpt><trkpt lat="52.43831089601069" lon="12.919688589287386"><ele>41.14285714285714</ele><time>2026-04-03T12:02:30.998Z</time></trkpt><trkpt lat="52.438231257195206" lon="12.919698855384626"><ele>41.42857142857143</ele><time>2026-04-03T12:02:31.998Z</time></trkpt><trkpt lat="52.43816498347037" lon="12.919711280249738"><ele>41.714285714285715</ele><time>2026-04-03T12:02:32.998Z</time></trkpt><trkpt lat="52.43810259594748" lon="12.919726757044552"><ele>42.0</ele><time>2026-04-03T12:02:33.998Z</time></trkpt><trkpt lat="52.438038766750836" lon="12.91974888501241"><ele>42.0</ele><time>2026-04-03T12:02:34.998Z</time></trkpt><trkpt lat="52.43797625862961" lon="12.91978513085299"><ele>42.0</ele><time>2026-04-03T12:02:35.998Z</time></trkpt><trkpt lat="52.437908681201726" lon="12.919798892913935"><ele>42.0</ele><time>2026-04-03T12:02:36.998Z</time></trkpt><trkpt lat="52.43784406298188" lon="12.919818662552398"><ele>42.0</ele><time>2026-04-03T12:02:37.998Z</time></trkpt><trkpt lat="52.437777412016935" lon="12.919837424169023"><ele>42.0</ele><time>2026-04-03T12:02:38.998Z</time></trkpt><trkpt lat="52.437713661934694" lon="12.919860598499655"><ele>42.0</ele><time>2026-04-03T12:02:39.998Z</time></trkpt><trkpt lat="52.43762121098345" lon="12.919892018869671"><ele>42.0</ele><time>2026-04-03T12:02:41.998Z</time></trkpt><trkpt lat="52.43750311986484" lon="12.91990858315527"><ele>42.8</ele><time>2026-04-03T12:02:43.998Z</time></trkpt><trkpt lat="52.43740062610387" lon="12.919968006253875"><ele>43.6</ele><time>2026-04-03T12:02:45.998Z</time></trkpt><trkpt lat="52.43729453742228" lon="12.920000525741996"><ele>44.4</ele><time>2026-04-03T12:02:47.998Z</time></trkpt><trkpt lat="52.43717936524503" lon="12.920038251313388"><ele>45.199999999999996</ele><time>2026-04-03T12:02:50Z</time></trkpt><trkpt lat="52.43711321524864" lon="12.920059920558861"><ele>46.0</ele><time>2026-04-03T12:02:51Z</time></trkpt><trkpt lat="52.43704677826759" lon="12.920081224633314"><ele>46.5</ele><time>2026-04-03T12:02:52Z</time></trkpt><trkpt lat="52.436905930202684" lon="12.920126762391426"><ele>47.0</ele><time>2026-04-03T12:02:54Z</time></trkpt><trkpt lat="52.43680600815567" lon="12.920156890679895"><ele>47.5</ele><time>2026-04-03T12:02:55Z</time></trkpt><trkpt lat="52.43669884123013" lon="12.92019052238806"><ele>48.0</ele><time>2026-04-03T12:02:56Z</time></trkpt><trkpt lat="52.43659841163251" lon="12.92022358677689"><ele>48.0</ele><time>2026-04-03T12:02:57Z</time></trkpt><trkpt lat="52.43649781920808" lon="12.9202532899615"><ele>48.0</ele><time>2026-04-03T12:02:58Z</time></trkpt><trkpt lat="52.43641932598615" lon="12.920278537881565"><ele>48.0</ele><time>2026-04-03T12:02:59Z</time></trkpt><trkpt lat="52.43635442610608" lon="12.920301576534857"><ele>48.0</ele><time>2026-04-03T12:03:00Z</time></trkpt><trkpt lat="52.43629118804721" lon="12.920322528503457"><ele>48.0</ele><time>2026-04-03T12:03:01Z</time></trkpt><trkpt lat="52.43616954459614" lon="12.920347331885086"><ele>48.0</ele><time>2026-04-03T12:03:03Z</time></trkpt><trkpt lat="52.43605770480808" lon="12.920394337711059"><ele>47.833333333333336</ele><time>2026-04-03T12:03:05Z</time></trkpt><trkpt lat="52.43599650088738" lon="12.920441980919279"><ele>47.666666666666664</ele><time>2026-04-03T12:03:07Z</time></trkpt><trkpt lat="52.43603943285899" lon="12.920697112590485"><ele>47.5</ele><time>2026-04-03T12:03:08Z</time></trkpt><trkpt lat="52.43607166170395" lon="12.920793208638313"><ele>47.33333333333333</ele><time>2026-04-03T12:03:09Z</time></trkpt><trkpt lat="52.43611224106176" lon="12.920885870034985"><ele>47.166666666666664</ele><time>2026-04-03T12:03:10Z</time></trkpt><trkpt lat="52.436152498964184" lon="12.920998493797091"><ele>47.0</ele><time>2026-04-03T12:03:11Z</time></trkpt><trkpt lat="52.43619452475806" lon="12.921122000308241"><ele>47.0</ele><time>2026-04-03T12:03:12Z</time></trkpt><trkpt lat="52.43623834193944" lon="12.921251856538225"><ele>47.0</ele><time>2026-04-03T12:03:13Z</time></trkpt><trkpt lat="52.436291093036644" lon="12.921394795487585"><ele>47.0</ele><time>2026-04-03T12:03:14Z</time></trkpt><trkpt lat="52.43635022043464" lon="12.921556493404923"><ele>47.0</ele><time>2026-04-03T12:03:15Z</time></trkpt><trkpt lat="52.43640635338624" lon="12.921731211131307"><ele>47.0</ele><time>2026-04-03T12:03:16Z</time></trkpt><trkpt lat="52.43646388314917" lon="12.92190944541069"><ele>46.8</ele><time>2026-04-03T12:03:17Z</time></trkpt><trkpt lat="52.43651966644405" lon="12.922070428213507"><ele>46.6</ele><time>2026-04-03T12:03:18Z</time></trkpt><trkpt lat="52.43657396963326" lon="12.922227144024003"><ele>46.4</ele><time>2026-04-03T12:03:19Z</time></trkpt><trkpt lat="52.4366314301495" lon="12.922387987332417"><ele>46.199999999999996</ele><time>2026-04-03T12:03:20Z</time></trkpt><trkpt lat="52.4366844111443" lon="12.922549252624542"><ele>46.0</ele><time>2026-04-03T12:03:21Z</time></trkpt><trkpt lat="52.436738688608436" lon="12.922705621898732"><ele>45.8</ele><time>2026-04-03T12:03:22Z</time></trkpt><trkpt lat="52.43678953554792" lon="12.922849325012665"><ele>45.599999999999994</ele><time>2026-04-03T12:03:23Z</time></trkpt><trkpt lat="52.43684232245487" lon="12.922999017799576"><ele>45.4</ele><time>2026-04-03T12:03:24Z</time></trkpt><trkpt lat="52.436894674074985" lon="12.923150528479045"><ele>45.2</ele><time>2026-04-03T12:03:25Z</time></trkpt><trkpt lat="52.43694183496255" lon="12.923286069368837"><ele>45.0</ele><time>2026-04-03T12:03:26Z</time></trkpt><trkpt lat="52.436990542767994" lon="12.92342462143755"><ele>45.0</ele><time>2026-04-03T12:03:27Z</time></trkpt><trkpt lat="52.43704040836163" lon="12.923570019899351"><ele>45.0</ele><time>2026-04-03T12:03:28Z</time></trkpt><trkpt lat="52.43708642580376" lon="12.923699832293726"><ele>45.0</ele><time>2026-04-03T12:03:29Z</time></trkpt><trkpt lat="52.43712624690533" lon="12.92381319824044"><ele>45.0</ele><time>2026-04-03T12:03:29.999Z</time></trkpt><trkpt lat="52.437160988260906" lon="12.92391454302485"><ele>45.0</ele><time>2026-04-03T12:03:30.999Z</time></trkpt><trkpt lat="52.437193307382934" lon="12.924006271385396"><ele>45.0</ele><time>2026-04-03T12:03:31.999Z</time></trkpt><trkpt lat="52.43723830167913" lon="12.924188576824799"><ele>46.0</ele><time>2026-04-03T12:03:33.999Z</time></trkpt><trkpt lat="52.43726967814493" lon="12.924281762726869"><ele>47.0</ele><time>2026-04-03T12:03:34.999Z</time></trkpt><trkpt lat="52.437326902646554" lon="12.924347901482433"><ele>48.0</ele><time>2026-04-03T12:03:35.999Z</time></trkpt><trkpt lat="52.43738521535714" lon="12.92447719982307"><ele>49.0</ele><time>2026-04-03T12:03:37.999Z</time></trkpt><trkpt lat="52.43746459022261" lon="12.924478326347298"><ele>50.0</ele><time>2026-04-03T12:03:40.999Z</time></trkpt><trkpt lat="52.43753315563893" lon="12.924361523793237"><ele>51.0</ele><time>2026-04-03T12:04:27.998Z</time></trkpt><trkpt lat="52.43759935620323" lon="12.924232193701805"><ele>50.833333333333336</ele><time>2026-04-03T12:04:29.998Z</time></trkpt><trkpt lat="52.437660464835226" lon="12.924119187096501"><ele>50.66666666666667</ele><time>2026-04-03T12:04:31.998Z</time></trkpt><trkpt lat="52.43771059215747" lon="12.924029420810495"><ele>50.5</ele><time>2026-04-03T12:04:33.998Z</time></trkpt><trkpt lat="52.43778333952928" lon="12.923967696108303"><ele>50.333333333333336</ele><time>2026-04-03T12:04:35.998Z</time></trkpt><trkpt lat="52.437846237941194" lon="12.92390437794875"><ele>50.16666666666667</ele><time>2026-04-03T12:04:38.998Z</time></trkpt><trkpt lat="52.437847792214" lon="12.923774155738165"><ele>50.0</ele><time>2026-04-03T12:04:41.998Z</time></trkpt><trkpt lat="52.437927845272675" lon="12.923711483029736"><ele>50.66666666666667</ele><time>2026-04-03T12:04:48.998Z</time></trkpt><trkpt lat="52.43802894808698" lon="12.923710269114334"><ele>51.333333333333336</ele><time>2026-04-03T12:04:52.998Z</time></trkpt><trkpt lat="52.438108646314355" lon="12.923703739419183"><ele>52.0</ele><time>2026-04-03T12:04:54.998Z</time></trkpt><trkpt lat="52.43818546073649" lon="12.923687260247293"><ele>52.66666666666667</ele><time>2026-04-03T12:04:57Z</time></trkpt><trkpt lat="52.4382662123078" lon="12.923680843822057"><ele>53.333333333333336</ele><time>2026-04-03T12:05:00Z</time></trkpt><trkpt lat="52.43833371946228" lon="12.92367943642349"><ele>54.0</ele><time>2026-04-03T12:05:03Z</time></trkpt><trkpt lat="52.4384115100979" lon="12.92368834167728"><ele>54.0</ele><time>2026-04-03T12:05:06Z</time></trkpt><trkpt lat="52.43850892435905" lon="12.92368658015245"><ele>54.0</ele><time>2026-04-03T12:05:08Z</time></trkpt><trkpt lat="52.438577348221905" lon="12.9236873116849"><ele>54.0</ele><time>2026-04-03T12:05:09Z</time></trkpt><trkpt lat="52.43864357608393" lon="12.92369183700406"><ele>54.0</ele><time>2026-04-03T12:05:10Z</time></trkpt><trkpt lat="52.43871743154887" lon="12.923688588454976"><ele>54.0</ele><time>2026-04-03T12:05:11Z</time></trkpt><trkpt lat="52.438804183497105" lon="12.923682803669836"><ele>54.0</ele><time>2026-04-03T12:05:13Z</time></trkpt><trkpt lat="52.438898276415685" lon="12.923664489767965"><ele>53.666666666666664</ele><time>2026-04-03T12:05:15Z</time></trkpt><trkpt lat="52.43899855662512" lon="12.923674881990493"><ele>53.33333333333333</ele><time>2026-04-03T12:05:17Z</time></trkpt><trkpt lat="52.439074700710215" lon="12.92372361668537"><ele>53.0</ele><time>2026-04-03T12:05:19Z</time></trkpt><trkpt lat="52.43912435414014" lon="12.923885005110582"><ele>52.666666666666664</ele><time>2026-04-03T12:05:21Z</time></trkpt><trkpt lat="52.439119578416246" lon="12.923995915736514"><ele>52.33333333333333</ele><time>2026-04-03T12:05:22Z</time></trkpt><trkpt lat="52.439102998090746" lon="12.92410557063541"><ele>52.0</ele><time>2026-04-03T12:05:23Z</time></trkpt><trkpt lat="52.43908294023032" lon="12.924251908912526"><ele>51.99999999999999</ele><time>2026-04-03T12:05:24Z</time></trkpt><trkpt lat="52.439070300235926" lon="12.924380789412076"><ele>52.0</ele><time>2026-04-03T12:05:25Z</time></trkpt><trkpt lat="52.43906277792853" lon="12.924502183593075"><ele>52.0</ele><time>2026-04-03T12:05:26Z</time></trkpt><trkpt lat="52.43906902626767" lon="12.9246425826062"><ele>52.0</ele><time>2026-04-03T12:05:27Z</time></trkpt><trkpt lat="52.43907526634312" lon="12.924762478390987"><ele>51.99999999999999</ele><time>2026-04-03T12:05:28Z</time></trkpt><trkpt lat="52.439097973771446" lon="12.924931636855703"><ele>52.0</ele><time>2026-04-03T12:05:30Z</time></trkpt><trkpt lat="52.43907773289698" lon="12.925039454765733"><ele>51.666666666666664</ele><time>2026-04-03T12:05:31Z</time></trkpt><trkpt lat="52.439057672591346" lon="12.92525483171048"><ele>51.33333333333333</ele><time>2026-04-03T12:05:33Z</time></trkpt><trkpt lat="52.43905829847137" lon="12.92536061138645"><ele>51.0</ele><time>2026-04-03T12:05:34Z</time></trkpt><trkpt lat="52.439078311105625" lon="12.925463760156035"><ele>50.66666666666667</ele><time>2026-04-03T12:05:35Z</time></trkpt><trkpt lat="52.43912345002941" lon="12.925592962827665"><ele>50.333333333333336</ele><time>2026-04-03T12:05:36.999Z</time></trkpt><trkpt lat="52.43909957369303" lon="12.925697019573882"><ele>50.0</ele><time>2026-04-03T12:05:38.999Z</time></trkpt><trkpt lat="52.43899596160567" lon="12.925782480039473"><ele>50.0</ele><time>2026-04-03T12:05:40.999Z</time></trkpt><trkpt lat="52.43892226858782" lon="12.925805852897504"><ele>50.0</ele><time>2026-04-03T12:05:41.999Z</time></trkpt><trkpt lat="52.43881707509422" lon="12.92582955767326"><ele>50.0</ele><time>2026-04-03T12:05:42.999Z</time></trkpt><trkpt lat="52.43870628387182" lon="12.92579067019192"><ele>50.0</ele><time>2026-04-03T12:05:44.999Z</time></trkpt><trkpt lat="52.43859663724424" lon="12.925793269954726"><ele>50.0</ele><time>2026-04-03T12:05:46.999Z</time></trkpt><trkpt lat="52.438516875662636" lon="12.925775211637688"><ele>50.333333333333336</ele><time>2026-04-03T12:05:48.999Z</time></trkpt><trkpt lat="52.43844831595577" lon="12.925789506811357"><ele>50.66666666666667</ele><time>2026-04-03T12:05:51.999Z</time></trkpt><trkpt lat="52.43834101185725" lon="12.925820367841414"><ele>51.0</ele><time>2026-04-03T12:05:54.999Z</time></trkpt><trkpt lat="52.43827823298" lon="12.925798547901413"><ele>51.33333333333333</ele><time>2026-04-03T12:05:55.999Z</time></trkpt><trkpt lat="52.43817141411341" lon="12.92577695789803"><ele>51.666666666666664</ele><time>2026-04-03T12:05:57.999Z</time></trkpt><trkpt lat="52.43807388938535" lon="12.92579935523455"><ele>52.0</ele><time>2026-04-03T12:05:59.999Z</time></trkpt><trkpt lat="52.437972806313624" lon="12.925825081228401"><ele>51.33333333333333</ele><time>2026-04-03T12:06:02.999Z</time></trkpt><trkpt lat="52.43790343806008" lon="12.925832337337626"><ele>50.666666666666664</ele><time>2026-04-03T12:06:04.999Z</time></trkpt><trkpt lat="52.43784613634648" lon="12.925770259863427"><ele>50.0</ele><time>2026-04-03T12:06:06.999Z</time></trkpt><trkpt lat="52.437797003824606" lon="12.925585530850165"><ele>49.33333333333333</ele><time>2026-04-03T12:06:08.999Z</time></trkpt><trkpt lat="52.43776741910194" lon="12.925480829757447"><ele>48.666666666666664</ele><time>2026-04-03T12:06:09.999Z</time></trkpt><trkpt lat="52.43771177815371" lon="12.925374671974131"><ele>48.0</ele><time>2026-04-03T12:06:10.999Z</time></trkpt><trkpt lat="52.43766087585866" lon="12.925285872548226"><ele>48.0</ele><time>2026-04-03T12:06:11.999Z</time></trkpt><trkpt lat="52.43759370922317" lon="12.925128319913792"><ele>48.0</ele><time>2026-04-03T12:06:13.999Z</time></trkpt><trkpt lat="52.43751522410639" lon="12.924998317905253"><ele>48.0</ele><time>2026-04-03T12:06:15.999Z</time></trkpt><trkpt lat="52.43747268980866" lon="12.924848713529265"><ele>48.0</ele><time>2026-04-03T12:06:17.999Z</time></trkpt><trkpt lat="52.43743119260293" lon="12.924724655204848"><ele>48.0</ele><time>2026-04-03T12:06:19.999Z</time></trkpt><trkpt lat="52.43739281640584" lon="12.924611941865498"><ele>48.333333333333336</ele><time>2026-04-03T12:06:21.999Z</time></trkpt><trkpt lat="52.43740303311032" lon="12.924494765642635"><ele>48.66666666666667</ele><time>2026-04-03T12:06:24.999Z</time></trkpt><trkpt lat="52.4374744399413" lon="12.924433726375957"><ele>49.0</ele><time>2026-04-03T12:06:27.999Z</time></trkpt><trkpt lat="52.43754696166864" lon="12.92438261177767"><ele>49.333333333333336</ele><time>2026-04-03T12:06:31.998Z</time></trkpt><trkpt lat="52.437580689416095" lon="12.924282659291707"><ele>49.66666666666667</ele><time>2026-04-03T12:06:45.998Z</time></trkpt><trkpt lat="52.437654765388594" lon="12.924123728485688"><ele>50.0</ele><time>2026-04-03T12:06:47.998Z</time></trkpt><trkpt lat="52.43772700980901" lon="12.924019340958612"><ele>50.00000000000001</ele><time>2026-04-03T12:06:49.998Z</time></trkpt><trkpt lat="52.43780447442607" lon="12.923927897846596"><ele>50.0</ele><time>2026-04-03T12:06:51.998Z</time></trkpt><trkpt lat="52.4378438051804" lon="12.923826300072266"><ele>50.0</ele><time>2026-04-03T12:06:54.998Z</time></trkpt><trkpt lat="52.43787059768243" lon="12.92371428421449"><ele>50.0</ele><time>2026-04-03T12:06:57.998Z</time></trkpt><trkpt lat="52.43795932722878" lon="12.923727474173324"><ele>50.00000000000001</ele><time>2026-04-03T12:07:03Z</time></trkpt><trkpt lat="52.43803576908376" lon="12.923730308484263"><ele>50.0</ele><time>2026-04-03T12:07:04Z</time></trkpt><trkpt lat="52.43810554708872" lon="12.923684464390288"><ele>50.66666666666667</ele><time>2026-04-03T12:07:05Z</time></trkpt><trkpt lat="52.438180985613464" lon="12.923674503751949"><ele>51.333333333333336</ele><time>2026-04-03T12:07:06Z</time></trkpt><trkpt lat="52.438276111905026" lon="12.923666553485035"><ele>52.0</ele><time>2026-04-03T12:07:07Z</time></trkpt><trkpt lat="52.43837292315194" lon="12.923677471352692"><ele>52.66666666666667</ele><time>2026-04-03T12:07:08Z</time></trkpt><trkpt lat="52.43846099137499" lon="12.923686104730074"><ele>53.333333333333336</ele><time>2026-04-03T12:07:09Z</time></trkpt><trkpt lat="52.4385511070419" lon="12.923694907483936"><ele>54.0</ele><time>2026-04-03T12:07:10Z</time></trkpt><trkpt lat="52.43864790038507" lon="12.923687513389641"><ele>54.0</ele><time>2026-04-03T12:07:11Z</time></trkpt><trkpt lat="52.438721290923176" lon="12.923681148206853"><ele>54.0</ele><time>2026-04-03T12:07:12Z</time></trkpt><trkpt lat="52.43879257402228" lon="12.923673120330063"><ele>54.0</ele><time>2026-04-03T12:07:13Z</time></trkpt><trkpt lat="52.43886313368219" lon="12.923659252156463"><ele>54.0</ele><time>2026-04-03T12:07:14Z</time></trkpt><trkpt lat="52.438980312854504" lon="12.923664524192922"><ele>54.0</ele><time>2026-04-03T12:07:16Z</time></trkpt><trkpt lat="52.43907000365206" lon="12.923692052973998"><ele>54.0</ele><time>2026-04-03T12:07:18Z</time></trkpt><trkpt lat="52.439122045513635" lon="12.923823329755484"><ele>53.666666666666664</ele><time>2026-04-03T12:07:20Z</time></trkpt><trkpt lat="52.43913318787511" lon="12.923929490086591"><ele>53.33333333333333</ele><time>2026-04-03T12:07:21Z</time></trkpt><trkpt lat="52.439124581061705" lon="12.92404593420905"><ele>53.0</ele><time>2026-04-03T12:07:22Z</time></trkpt><trkpt lat="52.43909545323509" lon="12.924192662179681"><ele>52.666666666666664</ele><time>2026-04-03T12:07:23Z</time></trkpt><trkpt lat="52.43907580233182" lon="12.924328113040655"><ele>52.33333333333333</ele><time>2026-04-03T12:07:24Z</time></trkpt><trkpt lat="52.4390620308689" lon="12.92446649784999"><ele>52.0</ele><time>2026-04-03T12:07:25Z</time></trkpt><trkpt lat="52.43906281143121" lon="12.924598407459591"><ele>51.99999999999999</ele><time>2026-04-03T12:07:26Z</time></trkpt><trkpt lat="52.43906949409739" lon="12.924720364824951"><ele>52.0</ele><time>2026-04-03T12:07:27Z</time></trkpt><trkpt lat="52.439099045077256" lon="12.924890658834109"><ele>52.0</ele><time>2026-04-03T12:07:29Z</time></trkpt><trkpt lat="52.43908711172123" lon="12.924995350264204"><ele>52.0</ele><time>2026-04-03T12:07:30Z</time></trkpt><trkpt lat="52.43905756228988" lon="12.925122844575453"><ele>51.99999999999999</ele><time>2026-04-03T12:07:31Z</time></trkpt><trkpt lat="52.43905239651592" lon="12.925234196740004"><ele>52.0</ele><time>2026-04-03T12:07:32Z</time></trkpt><trkpt lat="52.43906452564913" lon="12.925343044499867"><ele>51.666666666666664</ele><time>2026-04-03T12:07:33Z</time></trkpt><trkpt lat="52.439104176893785" lon="12.925518139703414"><ele>51.33333333333333</ele><time>2026-04-03T12:07:35Z</time></trkpt><trkpt lat="52.439117394346695" lon="12.925630846588406"><ele>51.0</ele><time>2026-04-03T12:07:37Z</time></trkpt><trkpt lat="52.43905714094412" lon="12.925734513748791"><ele>50.66666666666667</ele><time>2026-04-03T12:07:39Z</time></trkpt><trkpt lat="52.43898984090162" lon="12.925772537842006"><ele>50.333333333333336</ele><time>2026-04-03T12:07:40Z</time></trkpt><trkpt lat="52.43891903882952" lon="12.925791105593298"><ele>50.0</ele><time>2026-04-03T12:07:41Z</time></trkpt><trkpt lat="52.438819412038846" lon="12.925804339207913"><ele>50.333333333333336</ele><time>2026-04-03T12:07:42Z</time></trkpt><trkpt lat="52.438729943239494" lon="12.925783524732935"><ele>50.66666666666667</ele><time>2026-04-03T12:07:43Z</time></trkpt><trkpt lat="52.438645794801204" lon="12.925787212244401"><ele>51.0</ele><time>2026-04-03T12:07:43.999Z</time></trkpt><trkpt lat="52.43857885059807" lon="12.925777539661023"><ele>51.33333333333333</ele><time>2026-04-03T12:07:44.999Z</time></trkpt><trkpt lat="52.4385108559546" lon="12.925739922611399"><ele>51.666666666666664</ele><time>2026-04-03T12:07:45.999Z</time></trkpt><trkpt lat="52.43840378509658" lon="12.92577782923411"><ele>52.0</ele><time>2026-04-03T12:07:47.999Z</time></trkpt><trkpt lat="52.43833485602295" lon="12.92576599759246"><ele>51.99999999999999</ele><time>2026-04-03T12:07:48.999Z</time></trkpt><trkpt lat="52.43825090655266" lon="12.925743321813272"><ele>52.0</ele><time>2026-04-03T12:07:49.999Z</time></trkpt><trkpt lat="52.43816724995959" lon="12.925746376299529"><ele>52.0</ele><time>2026-04-03T12:07:50.999Z</time></trkpt><trkpt lat="52.43809189016133" lon="12.925755511457124"><ele>52.0</ele><time>2026-04-03T12:07:51.999Z</time></trkpt><trkpt lat="52.43802125795416" lon="12.925778313389548"><ele>51.99999999999999</ele><time>2026-04-03T12:07:52.999Z</time></trkpt><trkpt lat="52.43790793470614" lon="12.92579506583667"><ele>52.0</ele><time>2026-04-03T12:07:54.999Z</time></trkpt><trkpt lat="52.43784233042082" lon="12.925751168941558"><ele>51.83333333333333</ele><time>2026-04-03T12:07:56.999Z</time></trkpt><trkpt lat="52.43780793979166" lon="12.925654811044044"><ele>51.666666666666664</ele><time>2026-04-03T12:07:57.999Z</time></trkpt><trkpt lat="52.437772104397936" lon="12.925503009169251"><ele>51.5</ele><time>2026-04-03T12:07:58.999Z</time></trkpt><trkpt lat="52.437718143402584" lon="12.92535338317825"><ele>51.33333333333333</ele><time>2026-04-03T12:07:59.999Z</time></trkpt><trkpt lat="52.437659699083426" lon="12.925246439796826"><ele>51.166666666666664</ele><time>2026-04-03T12:08:00.999Z</time></trkpt><trkpt lat="52.437601033607464" lon="12.92514171166382"><ele>51.0</ele><time>2026-04-03T12:08:01.999Z</time></trkpt><trkpt lat="52.43755462273391" lon="12.925040270637652"><ele>51.0</ele><time>2026-04-03T12:08:02.999Z</time></trkpt><trkpt lat="52.43750452886959" lon="12.924898766622565"><ele>51.0</ele><time>2026-04-03T12:08:03.999Z</time></trkpt><trkpt lat="52.43746024741093" lon="12.924763695473823"><ele>51.0</ele><time>2026-04-03T12:08:04.999Z</time></trkpt><trkpt lat="52.43742705586731" lon="12.924663196039564"><ele>51.0</ele><time>2026-04-03T12:08:05.999Z</time></trkpt><trkpt lat="52.43739315560993" lon="12.924533691659098"><ele>51.0</ele><time>2026-04-03T12:08:07.999Z</time></trkpt><trkpt lat="52.43744475364802" lon="12.92442404890259"><ele>51.0</ele><time>2026-04-03T12:08:09.999Z</time></trkpt><trkpt lat="52.43749919791513" lon="12.924370403707037"><ele>51.0</ele><time>2026-04-03T12:08:10.999Z</time></trkpt><trkpt lat="52.437568650705174" lon="12.924316003159216"><ele>51.0</ele><time>2026-04-03T12:08:11.999Z</time></trkpt><trkpt lat="52.43762146261681" lon="12.924244752094735"><ele>51.0</ele><time>2026-04-03T12:08:12.999Z</time></trkpt><trkpt lat="52.4376828810147" lon="12.92410350621093"><ele>51.0</ele><time>2026-04-03T12:08:14.999Z</time></trkpt><trkpt lat="52.43778272945702" lon="12.923995432229145"><ele>51.0</ele><time>2026-04-03T12:08:16.999Z</time></trkpt><trkpt lat="52.43783945068791" lon="12.923915475709368"><ele>51.0</ele><time>2026-04-03T12:08:18.999Z</time></trkpt><trkpt lat="52.43785085885332" lon="12.923778055411395"><ele>50.833333333333336</ele><time>2026-04-03T12:08:21.999Z</time></trkpt><trkpt lat="52.43792134242242" lon="12.923720020487345"><ele>50.66666666666667</ele><time>2026-04-03T12:08:26.999Z</time></trkpt><trkpt lat="52.43802614576871" lon="12.923729218898385"><ele>50.5</ele><time>2026-04-03T12:08:28.999Z</time></trkpt><trkpt lat="52.438097322149076" lon="12.923715585349797"><ele>50.333333333333336</ele><time>2026-04-03T12:08:29.999Z</time></trkpt><trkpt lat="52.43817999394901" lon="12.923699303667979"><ele>50.16666666666667</ele><time>2026-04-03T12:08:30.999Z</time></trkpt><trkpt lat="52.43826294060466" lon="12.923682339598004"><ele>50.0</ele><time>2026-04-03T12:08:31.999Z</time></trkpt><trkpt lat="52.438365702706264" lon="12.923686841396462"><ele>50.333333333333336</ele><time>2026-04-03T12:08:32.999Z</time></trkpt><trkpt lat="52.43844549976041" lon="12.923690136416052"><ele>50.66666666666667</ele><time>2026-04-03T12:08:33.999Z</time></trkpt><trkpt lat="52.43854247191161" lon="12.923715307707743"><ele>51.0</ele><time>2026-04-03T12:08:34.999Z</time></trkpt><trkpt lat="52.438614396167914" lon="12.923705546177386"><ele>51.33333333333333</ele><time>2026-04-03T12:08:35.999Z</time></trkpt><trkpt lat="52.438696571424295" lon="12.923704420414126"><ele>51.666666666666664</ele><time>2026-04-03T12:08:36.999Z</time></trkpt><trkpt lat="52.43877582228428" lon="12.923687689693562"><ele>52.0</ele><time>2026-04-03T12:08:37.999Z</time></trkpt><trkpt lat="52.438846968044956" lon="12.923682558827018"><ele>51.99999999999999</ele><time>2026-04-03T12:08:38.998Z</time></trkpt><trkpt lat="52.43892067997811" lon="12.923682335571256"><ele>52.0</ele><time>2026-04-03T12:08:39.998Z</time></trkpt><trkpt lat="52.438987632099774" lon="12.923669229738154"><ele>52.0</ele><time>2026-04-03T12:08:40.998Z</time></trkpt><trkpt lat="52.43906688235547" lon="12.923699776634043"><ele>52.0</ele><time>2026-04-03T12:08:42.998Z</time></trkpt><trkpt lat="52.43913354782405" lon="12.92381846251388"><ele>51.99999999999999</ele><time>2026-04-03T12:08:44.998Z</time></trkpt><trkpt lat="52.439143797448224" lon="12.923924906303913"><ele>52.0</ele><time>2026-04-03T12:08:45.998Z</time></trkpt><trkpt lat="52.43912179785671" lon="12.924061875755728"><ele>52.0</ele><time>2026-04-03T12:08:46.998Z</time></trkpt><trkpt lat="52.439095787048345" lon="12.924215501309433"><ele>52.0</ele><time>2026-04-03T12:08:47.998Z</time></trkpt><trkpt lat="52.43907300750567" lon="12.924359308645208"><ele>52.0</ele><time>2026-04-03T12:08:48.998Z</time></trkpt><trkpt lat="52.43907152452115" lon="12.924516821317916"><ele>52.0</ele><time>2026-04-03T12:08:49.998Z</time></trkpt><trkpt lat="52.43906880589869" lon="12.924666096318518"><ele>52.0</ele><time>2026-04-03T12:08:50.998Z</time></trkpt><trkpt lat="52.43908213361306" lon="12.92478663727928"><ele>52.0</ele><time>2026-04-03T12:08:51.998Z</time></trkpt><trkpt lat="52.43909133552767" lon="12.924969099424775"><ele>52.0</ele><time>2026-04-03T12:08:53.998Z</time></trkpt><trkpt lat="52.43907304645876" lon="12.92507300697256"><ele>52.0</ele><time>2026-04-03T12:08:54.998Z</time></trkpt><trkpt lat="52.43906119467831" lon="12.92526052791987"><ele>52.0</ele><time>2026-04-03T12:08:56.998Z</time></trkpt><trkpt lat="52.439076567192814" lon="12.925390322515197"><ele>52.0</ele><time>2026-04-03T12:08:57.998Z</time></trkpt><trkpt lat="52.439131652922214" lon="12.925507321127949"><ele>51.99999999999999</ele><time>2026-04-03T12:08:59.998Z</time></trkpt><trkpt lat="52.43912157559244" lon="12.925618332991151"><ele>52.0</ele><time>2026-04-03T12:09:00.998Z</time></trkpt><trkpt lat="52.43907689496095" lon="12.925718862001945"><ele>52.0</ele><time>2026-04-03T12:09:02.998Z</time></trkpt><trkpt lat="52.43900992124512" lon="12.925744248590918"><ele>52.0</ele><time>2026-04-03T12:09:03.998Z</time></trkpt><trkpt lat="52.43894023627256" lon="12.925766554597836"><ele>51.99999999999999</ele><time>2026-04-03T12:09:04.998Z</time></trkpt><trkpt lat="52.438842633512905" lon="12.925774316747392"><ele>52.0</ele><time>2026-04-03T12:09:05.998Z</time></trkpt><trkpt lat="52.43874717405658" lon="12.925775871972082"><ele>51.99999999999999</ele><time>2026-04-03T12:09:07Z</time></trkpt><trkpt lat="52.438664171388126" lon="12.925766310041887"><ele>52.0</ele><time>2026-04-03T12:09:08Z</time></trkpt><trkpt lat="52.43859840577539" lon="12.925755759011565"><ele>52.0</ele><time>2026-04-03T12:09:09Z</time></trkpt><trkpt lat="52.43853201444719" lon="12.925735279983833"><ele>52.0</ele><time>2026-04-03T12:09:10Z</time></trkpt><trkpt lat="52.43842699108323" lon="12.925752325289942"><ele>51.99999999999999</ele><time>2026-04-03T12:09:12Z</time></trkpt><trkpt lat="52.43835775780887" lon="12.92576542876065"><ele>52.0</ele><time>2026-04-03T12:09:13Z</time></trkpt><trkpt lat="52.43826058589226" lon="12.925759379626951"><ele>51.99999999999999</ele><time>2026-04-03T12:09:15Z</time></trkpt><trkpt lat="52.43819681392936" lon="12.92574768179304"><ele>52.0</ele><time>2026-04-03T12:09:16Z</time></trkpt><trkpt lat="52.43811372581619" lon="12.925769090203499"><ele>52.0</ele><time>2026-04-03T12:09:17Z</time></trkpt><trkpt lat="52.43805001822368" lon="12.925777774286832"><ele>52.0</ele><time>2026-04-03T12:09:18Z</time></trkpt><trkpt lat="52.43797493023354" lon="12.925790563806274"><ele>51.99999999999999</ele><time>2026-04-03T12:09:19Z</time></trkpt><trkpt lat="52.437883002460694" lon="12.92580581909142"><ele>52.0</ele><time>2026-04-03T12:09:21Z</time></trkpt><trkpt lat="52.43781630359875" lon="12.925699101352151"><ele>51.8</ele><time>2026-04-03T12:09:23Z</time></trkpt><trkpt lat="52.43777398560871" lon="12.925507097310337"><ele>51.6</ele><time>2026-04-03T12:09:25Z</time></trkpt><trkpt lat="52.43773577538894" lon="12.925410510197397"><ele>51.4</ele><time>2026-04-03T12:09:26Z</time></trkpt><trkpt lat="52.43763794692277" lon="12.925249084180372"><ele>51.199999999999996</ele><time>2026-04-03T12:09:28Z</time></trkpt><trkpt lat="52.437578544643465" lon="12.925133459134226"><ele>51.0</ele><time>2026-04-03T12:09:29Z</time></trkpt><trkpt lat="52.43753618026969" lon="12.925016267338577"><ele>51.0</ele><time>2026-04-03T12:09:30Z</time></trkpt><trkpt lat="52.437498078638335" lon="12.924897633489396"><ele>51.0</ele><time>2026-04-03T12:09:31Z</time></trkpt><trkpt lat="52.43746006053152" lon="12.924797884735437"><ele>51.0</ele><time>2026-04-03T12:09:32Z</time></trkpt><trkpt lat="52.43740442797757" lon="12.924621756169332"><ele>51.0</ele><time>2026-04-03T12:09:34Z</time></trkpt><trkpt lat="52.43740222745674" lon="12.924479281164304"><ele>51.0</ele><time>2026-04-03T12:09:36Z</time></trkpt><trkpt lat="52.43748532255598" lon="12.924375766433544"><ele>51.0</ele><time>2026-04-03T12:09:38Z</time></trkpt><trkpt lat="52.437549910362655" lon="12.924337110455133"><ele>51.0</ele><time>2026-04-03T12:09:39Z</time></trkpt><trkpt lat="52.43760880319544" lon="12.92427739692913"><ele>51.0</ele><time>2026-04-03T12:09:40Z</time></trkpt><trkpt lat="52.43765098265151" lon="12.92419892329127"><ele>51.0</ele><time>2026-04-03T12:09:41Z</time></trkpt><trkpt lat="52.437721206660875" lon="12.92404911515949"><ele>51.0</ele><time>2026-04-03T12:09:43Z</time></trkpt><trkpt lat="52.43781287063148" lon="12.923963567004828"><ele>51.0</ele><time>2026-04-03T12:09:45Z</time></trkpt><trkpt lat="52.43785226680032" lon="12.923880412934135"><ele>50.833333333333336</ele><time>2026-04-03T12:09:46.999Z</time></trkpt><trkpt lat="52.43785848988479" lon="12.923770440134488"><ele>50.66666666666667</ele><time>2026-04-03T12:09:48.999Z</time></trkpt><trkpt lat="52.43791843171296" lon="12.923710259935804"><ele>50.5</ele><time>2026-04-03T12:09:53.999Z</time></trkpt><trkpt lat="52.43800030108185" lon="12.923723063139944"><ele>50.333333333333336</ele><time>2026-04-03T12:09:55.999Z</time></trkpt><trkpt lat="52.438075394359565" lon="12.923709133812523"><ele>50.16666666666667</ele><time>2026-04-03T12:09:56.999Z</time></trkpt><trkpt lat="52.438152910003694" lon="12.923699382102486"><ele>50.0</ele><time>2026-04-03T12:09:57.999Z</time></trkpt><trkpt lat="52.43828225723669" lon="12.923706433452441"><ele>50.333333333333336</ele><time>2026-04-03T12:09:59.999Z</time></trkpt><trkpt lat="52.43838632331016" lon="12.923692637045844"><ele>50.66666666666667</ele><time>2026-04-03T12:10:00.999Z</time></trkpt><trkpt lat="52.43846445729393" lon="12.923710259302537"><ele>51.0</ele><time>2026-04-03T12:10:01.999Z</time></trkpt><trkpt lat="52.438557424184474" lon="12.923704572481014"><ele>51.33333333333333</ele><time>2026-04-03T12:10:02.999Z</time></trkpt><trkpt lat="52.438635728191485" lon="12.923699450120692"><ele>51.666666666666664</ele><time>2026-04-03T12:10:03.999Z</time></trkpt><trkpt lat="52.43871953461981" lon="12.923689177845935"><ele>52.0</ele><time>2026-04-03T12:10:04.999Z</time></trkpt><trkpt lat="52.43884678554693" lon="12.923702067034304"><ele>52.0</ele><time>2026-04-03T12:10:06.999Z</time></trkpt><trkpt lat="52.43891463696323" lon="12.923700554478788"><ele>52.0</ele><time>2026-04-03T12:10:07.999Z</time></trkpt><trkpt lat="52.43901955100153" lon="12.923680597415146"><ele>52.0</ele><time>2026-04-03T12:10:09.999Z</time></trkpt><trkpt lat="52.439091344822494" lon="12.923767327643258"><ele>52.0</ele><time>2026-04-03T12:10:11.999Z</time></trkpt><trkpt lat="52.43911739399592" lon="12.92396515303258"><ele>52.0</ele><time>2026-04-03T12:10:13.999Z</time></trkpt><trkpt lat="52.43910115925502" lon="12.924097356569412"><ele>52.0</ele><time>2026-04-03T12:10:14.999Z</time></trkpt><trkpt lat="52.439074130833156" lon="12.924239444680735"><ele>52.0</ele><time>2026-04-03T12:10:15.999Z</time></trkpt><trkpt lat="52.439053681670835" lon="12.924382502282064"><ele>52.0</ele><time>2026-04-03T12:10:16.999Z</time></trkpt><trkpt lat="52.43904500425127" lon="12.924527524907239"><ele>52.0</ele><time>2026-04-03T12:10:17.999Z</time></trkpt><trkpt lat="52.43904123720238" lon="12.924676107050585"><ele>52.0</ele><time>2026-04-03T12:10:18.999Z</time></trkpt><trkpt lat="52.43907691586056" lon="12.924854540830284"><ele>51.6</ele><time>2026-04-03T12:10:20.999Z</time></trkpt><trkpt lat="52.439054877056215" lon="12.925069645705094"><ele>51.2</ele><time>2026-04-03T12:10:22.999Z</time></trkpt><trkpt lat="52.43902578619362" lon="12.925185609261383"><ele>50.8</ele><time>2026-04-03T12:10:23.999Z</time></trkpt><trkpt lat="52.43905943199426" lon="12.925380810331136"><ele>50.4</ele><time>2026-04-03T12:10:25.999Z</time></trkpt><trkpt lat="52.439102292063595" lon="12.92553442256291"><ele>50.0</ele><time>2026-04-03T12:10:27.999Z</time></trkpt><trkpt lat="52.43909519448231" lon="12.925671446925502"><ele>50.0</ele><time>2026-04-03T12:10:29.999Z</time></trkpt><trkpt lat="52.439005922316376" lon="12.92576064813737"><ele>50.0</ele><time>2026-04-03T12:10:31.999Z</time></trkpt><trkpt lat="52.438859432874864" lon="12.925783640149357"><ele>50.0</ele><time>2026-04-03T12:10:33.999Z</time></trkpt><trkpt lat="52.43874770668651" lon="12.9257818838645"><ele>50.0</ele><time>2026-04-03T12:10:34.999Z</time></trkpt><trkpt lat="52.43865763350151" lon="12.92579385524969"><ele>50.333333333333336</ele><time>2026-04-03T12:10:35.999Z</time></trkpt><trkpt lat="52.438578274820046" lon="12.925789397203264"><ele>50.66666666666667</ele><time>2026-04-03T12:10:36.999Z</time></trkpt><trkpt lat="52.43850991827391" lon="12.925750301100216"><ele>51.0</ele><time>2026-04-03T12:10:37.999Z</time></trkpt><trkpt lat="52.43841037504121" lon="12.92576251788085"><ele>51.33333333333333</ele><time>2026-04-03T12:10:39.999Z</time></trkpt><trkpt lat="52.4383315157827" lon="12.925785289086312"><ele>51.666666666666664</ele><time>2026-04-03T12:10:40.998Z</time></trkpt><trkpt lat="52.43824804929834" lon="12.925764587118504"><ele>52.0</ele><time>2026-04-03T12:10:41.998Z</time></trkpt><trkpt lat="52.4381784441881" lon="12.925755340269856"><ele>51.99999999999999</ele><time>2026-04-03T12:10:42.998Z</time></trkpt><trkpt lat="52.43810272367394" lon="12.925762116894933"><ele>52.0</ele><time>2026-04-03T12:10:43.998Z</time></trkpt><trkpt lat="52.437979600239245" lon="12.925789448945922"><ele>52.0</ele><time>2026-04-03T12:10:45.998Z</time></trkpt><trkpt lat="52.437898530636" lon="12.925812445273014"><ele>52.0</ele><time>2026-04-03T12:10:47.998Z</time></trkpt><trkpt lat="52.43781821562628" lon="12.925736177593214"><ele>51.99999999999999</ele><time>2026-04-03T12:10:49.998Z</time></trkpt><trkpt lat="52.43779671072937" lon="12.925622997483709"><ele>52.0</ele><time>2026-04-03T12:10:50.998Z</time></trkpt><trkpt lat="52.437759741951716" lon="12.925486058685165"><ele>51.8</ele><time>2026-04-03T12:10:51.998Z</time></trkpt><trkpt lat="52.43769194281801" lon="12.925337777762552"><ele>51.6</ele><time>2026-04-03T12:10:52.998Z</time></trkpt><trkpt lat="52.43762749807802" lon="12.925190262805874"><ele>51.4</ele><time>2026-04-03T12:10:53.998Z</time></trkpt><trkpt lat="52.437563782128294" lon="12.925082100884689"><ele>51.199999999999996</ele><time>2026-04-03T12:10:54.998Z</time></trkpt><trkpt lat="52.43751497800045" lon="12.924976967814418"><ele>51.0</ele><time>2026-04-03T12:10:55.998Z</time></trkpt><trkpt lat="52.43747588342794" lon="12.924841613245428"><ele>51.0</ele><time>2026-04-03T12:10:56.998Z</time></trkpt><trkpt lat="52.437444334264285" lon="12.92473235379172"><ele>51.0</ele><time>2026-04-03T12:10:57.998Z</time></trkpt><trkpt lat="52.4374130442726" lon="12.92463948991979"><ele>51.0</ele><time>2026-04-03T12:10:58.998Z</time></trkpt><trkpt lat="52.43739435491952" lon="12.924510309856663"><ele>51.0</ele><time>2026-04-03T12:11:00.998Z</time></trkpt><trkpt lat="52.43747433481904" lon="12.92440301167076"><ele>51.0</ele><time>2026-04-03T12:11:02.998Z</time></trkpt><trkpt lat="52.43755182141743" lon="12.92434529105224"><ele>51.0</ele><time>2026-04-03T12:11:03.998Z</time></trkpt><trkpt lat="52.437614922313756" lon="12.924277443196637"><ele>50.8</ele><time>2026-04-03T12:11:04.998Z</time></trkpt><trkpt lat="52.43769051203465" lon="12.92410278401761"><ele>50.599999999999994</ele><time>2026-04-03T12:11:06.998Z</time></trkpt><trkpt lat="52.43777898869019" lon="12.924010479472646"><ele>50.4</ele><time>2026-04-03T12:11:08.998Z</time></trkpt><trkpt lat="52.43784504130682" lon="12.923923267068307"><ele>50.2</ele><time>2026-04-03T12:11:10.998Z</time></trkpt><trkpt lat="52.43785163946822" lon="12.923782395760103"><ele>50.0</ele><time>2026-04-03T12:11:14Z</time></trkpt><trkpt lat="52.43791461541696" lon="12.923725122610398"><ele>50.8</ele><time>2026-04-03T12:11:19Z</time></trkpt><trkpt lat="52.43800132823922" lon="12.923731387681162"><ele>51.6</ele><time>2026-04-03T12:11:21Z</time></trkpt><trkpt lat="52.438137075629015" lon="12.923704828607454"><ele>52.400000000000006</ele><time>2026-04-03T12:11:23Z</time></trkpt><trkpt lat="52.4382172729664" lon="12.923694243361233"><ele>53.2</ele><time>2026-04-03T12:11:24Z</time></trkpt><trkpt lat="52.43830591850053" lon="12.923699329237749"><ele>54.0</ele><time>2026-04-03T12:11:25Z</time></trkpt><trkpt lat="52.43839242245331" lon="12.92369173656586"><ele>54.0</ele><time>2026-04-03T12:11:26Z</time></trkpt><trkpt lat="52.43849144732646" lon="12.923714976981044"><ele>54.0</ele><time>2026-04-03T12:11:27Z</time></trkpt><trkpt lat="52.438587753496826" lon="12.923710341374479"><ele>54.0</ele><time>2026-04-03T12:11:28Z</time></trkpt><trkpt lat="52.43867478657789" lon="12.923701914266033"><ele>54.0</ele><time>2026-04-03T12:11:29Z</time></trkpt><trkpt lat="52.438747201787656" lon="12.923701853712677"><ele>54.0</ele><time>2026-04-03T12:11:30Z</time></trkpt><trkpt lat="52.43881417524981" lon="12.92370152150339"><ele>54.0</ele><time>2026-04-03T12:11:31Z</time></trkpt><trkpt lat="52.43889336561665" lon="12.923687704432965"><ele>53.6</ele><time>2026-04-03T12:11:32Z</time></trkpt><trkpt lat="52.43899773639236" lon="12.923675725498674"><ele>53.2</ele><time>2026-04-03T12:11:34Z</time></trkpt><trkpt lat="52.43908976323028" lon="12.923716927792608"><ele>52.800000000000004</ele><time>2026-04-03T12:11:36Z</time></trkpt><trkpt lat="52.43911896960918" lon="12.92388964008337"><ele>52.400000000000006</ele><time>2026-04-03T12:11:38Z</time></trkpt><trkpt lat="52.43912470210425" lon="12.924010460225281"><ele>52.0</ele><time>2026-04-03T12:11:39Z</time></trkpt><trkpt lat="52.4391153587669" lon="12.924154437912586"><ele>51.99999999999999</ele><time>2026-04-03T12:11:40Z</time></trkpt><trkpt lat="52.43907380338319" lon="12.924336321098519"><ele>52.0</ele><time>2026-04-03T12:11:41Z</time></trkpt><trkpt lat="52.43905420675682" lon="12.924477803583269"><ele>52.0</ele><time>2026-04-03T12:11:42Z</time></trkpt><trkpt lat="52.43906044436395" lon="12.924613455776658"><ele>52.0</ele><time>2026-04-03T12:11:43Z</time></trkpt><trkpt lat="52.43907248097898" lon="12.924744528636305"><ele>51.99999999999999</ele><time>2026-04-03T12:11:44Z</time></trkpt><trkpt lat="52.43909044563849" lon="12.924845444609382"><ele>52.0</ele><time>2026-04-03T12:11:45Z</time></trkpt><trkpt lat="52.4390702150795" lon="12.925051041781856"><ele>51.6</ele><time>2026-04-03T12:11:47Z</time></trkpt><trkpt lat="52.43904699602934" lon="12.925177833461937"><ele>51.2</ele><time>2026-04-03T12:11:48Z</time></trkpt><trkpt lat="52.439052334781984" lon="12.925290108418718"><ele>50.8</ele><time>2026-04-03T12:11:49Z</time></trkpt><trkpt lat="52.439088909280635" lon="12.925474670799264"><ele>50.4</ele><time>2026-04-03T12:11:51Z</time></trkpt><trkpt lat="52.43911394808969" lon="12.925626312863137"><ele>50.0</ele><time>2026-04-03T12:11:52.999Z</time></trkpt><trkpt lat="52.43904238700197" lon="12.925729090605065"><ele>50.0</ele><time>2026-04-03T12:11:54.999Z</time></trkpt><trkpt lat="52.43890344539884" lon="12.925779345767657"><ele>50.0</ele><time>2026-04-03T12:11:56.999Z</time></trkpt><trkpt lat="52.43880412423736" lon="12.92578089111061"><ele>50.0</ele><time>2026-04-03T12:11:57.999Z</time></trkpt><trkpt lat="52.438696436031584" lon="12.925780115358535"><ele>50.0</ele><time>2026-04-03T12:11:58.999Z</time></trkpt><trkpt lat="52.43860678299242" lon="12.925779037843993"><ele>50.0</ele><time>2026-04-03T12:11:59.999Z</time></trkpt><trkpt lat="52.438541274702565" lon="12.925755584903637"><ele>50.4</ele><time>2026-04-03T12:12:00.999Z</time></trkpt><trkpt lat="52.43843548871102" lon="12.925758304655"><ele>50.8</ele><time>2026-04-03T12:12:02.999Z</time></trkpt><trkpt lat="52.43829221445533" lon="12.925766999245207"><ele>51.2</ele><time>2026-04-03T12:12:04.999Z</time></trkpt><trkpt lat="52.43820534723121" lon="12.925755537988671"><ele>51.6</ele><time>2026-04-03T12:12:05.999Z</time></trkpt><trkpt lat="52.438132996662624" lon="12.925744454825594"><ele>52.0</ele><time>2026-04-03T12:12:06.999Z</time></trkpt><trkpt lat="52.43806424556901" lon="12.92575811477713"><ele>52.0</ele><time>2026-04-03T12:12:07.999Z</time></trkpt><trkpt lat="52.43799362017024" lon="12.925786442489631"><ele>52.0</ele><time>2026-04-03T12:12:08.999Z</time></trkpt><trkpt lat="52.43787713535652" lon="12.925810488547231"><ele>52.0</ele><time>2026-04-03T12:12:10.999Z</time></trkpt><trkpt lat="52.437811001301256" lon="12.925698977618168"><ele>52.0</ele><time>2026-04-03T12:12:12.999Z</time></trkpt><trkpt lat="52.43779188981739" lon="12.92558259208191"><ele>52.0</ele><time>2026-04-03T12:12:13.999Z</time></trkpt><trkpt lat="52.437749568424415" lon="12.92543954775524"><ele>51.83333333333333</ele><time>2026-04-03T12:12:14.999Z</time></trkpt><trkpt lat="52.4376848575386" lon="12.925306839296027"><ele>51.666666666666664</ele><time>2026-04-03T12:12:15.999Z</time></trkpt><trkpt lat="52.437618280636755" lon="12.92519109681129"><ele>51.5</ele><time>2026-04-03T12:12:16.999Z</time></trkpt><trkpt lat="52.4375641482524" lon="12.925095874262963"><ele>51.33333333333333</ele><time>2026-04-03T12:12:17.999Z</time></trkpt><trkpt lat="52.43752379396669" lon="12.924991684369367"><ele>51.166666666666664</ele><time>2026-04-03T12:12:18.999Z</time></trkpt><trkpt lat="52.43748527629601" lon="12.924871293796599"><ele>51.0</ele><time>2026-04-03T12:12:19.999Z</time></trkpt><trkpt lat="52.43745230486582" lon="12.924768329371542"><ele>51.0</ele><time>2026-04-03T12:12:20.999Z</time></trkpt><trkpt lat="52.4373983686605" lon="12.924603371895687"><ele>51.0</ele><time>2026-04-03T12:12:22.999Z</time></trkpt><trkpt lat="52.43742156990804" lon="12.924472044344604"><ele>51.0</ele><time>2026-04-03T12:12:25.999Z</time></trkpt><trkpt lat="52.437489053062514" lon="12.924427352485829"><ele>51.0</ele><time>2026-04-03T12:12:27.999Z</time></trkpt><trkpt lat="52.437552308103456" lon="12.924345600586214"><ele>51.0</ele><time>2026-04-03T12:12:31.999Z</time></trkpt><trkpt lat="52.4376024585069" lon="12.924239523234057"><ele>51.0</ele><time>2026-04-03T12:12:35.999Z</time></trkpt><trkpt lat="52.43765794839183" lon="12.92411971869399"><ele>50.85714285714286</ele><time>2026-04-03T12:12:38.999Z</time></trkpt><trkpt lat="52.437705542926935" lon="12.924048300191137"><ele>50.714285714285715</ele><time>2026-04-03T12:12:39.999Z</time></trkpt><trkpt lat="52.43779959527187" lon="12.923965844870612"><ele>50.57142857142857</ele><time>2026-04-03T12:12:41.999Z</time></trkpt><trkpt lat="52.4378367028476" lon="12.923864378935217"><ele>50.42857142857143</ele><time>2026-04-03T12:12:44.999Z</time></trkpt><trkpt lat="52.43785109356439" lon="12.923751004705743"><ele>50.285714285714285</ele><time>2026-04-03T12:12:46.998Z</time></trkpt><trkpt lat="52.43791623422142" lon="12.92372697446875"><ele>50.142857142857146</ele><time>2026-04-03T12:12:51.998Z</time></trkpt><trkpt lat="52.437979347931055" lon="12.92371883758441"><ele>50.0</ele><time>2026-04-03T12:12:55.998Z</time></trkpt><trkpt lat="52.43805330571905" lon="12.92370368735096"><ele>50.66666666666667</ele><time>2026-04-03T12:13:02.998Z</time></trkpt><trkpt lat="52.43811671027436" lon="12.92369438469056"><ele>51.333333333333336</ele><time>2026-04-03T12:13:04.998Z</time></trkpt><trkpt lat="52.438198088270994" lon="12.923680967992384"><ele>52.0</ele><time>2026-04-03T12:13:05.998Z</time></trkpt><trkpt lat="52.438281711332316" lon="12.923698698434686"><ele>52.66666666666667</ele><time>2026-04-03T12:13:06.998Z</time></trkpt><trkpt lat="52.438378563300866" lon="12.923708671693996"><ele>53.333333333333336</ele><time>2026-04-03T12:13:07.998Z</time></trkpt><trkpt lat="52.43846133263168" lon="12.92371351760676"><ele>54.0</ele><time>2026-04-03T12:13:08.998Z</time></trkpt><trkpt lat="52.43854711391259" lon="12.923714223626753"><ele>54.0</ele><time>2026-04-03T12:13:09.998Z</time></trkpt><trkpt lat="52.43865164682067" lon="12.923697591403027"><ele>54.00000000000001</ele><time>2026-04-03T12:13:10.998Z</time></trkpt><trkpt lat="52.438773336479926" lon="12.92367908843297"><ele>54.00000000000001</ele><time>2026-04-03T12:13:11.998Z</time></trkpt><trkpt lat="52.43885287275355" lon="12.923692270587996"><ele>54.0</ele><time>2026-04-03T12:13:12.998Z</time></trkpt><trkpt lat="52.438963076482274" lon="12.9237047721733"><ele>54.0</ele><time>2026-04-03T12:13:14.998Z</time></trkpt><trkpt lat="52.439054097745796" lon="12.923705158418432"><ele>53.6</ele><time>2026-04-03T12:13:16.998Z</time></trkpt><trkpt lat="52.4391271101621" lon="12.92382500674534"><ele>53.2</ele><time>2026-04-03T12:13:19Z</time></trkpt><trkpt lat="52.43913868572892" lon="12.923940925574959"><ele>52.800000000000004</ele><time>2026-04-03T12:13:20Z</time></trkpt><trkpt lat="52.43912357170775" lon="12.924058316439345"><ele>52.400000000000006</ele><time>2026-04-03T12:13:21Z</time></trkpt><trkpt lat="52.439080858522615" lon="12.924199133467914"><ele>52.0</ele><time>2026-04-03T12:13:22Z</time></trkpt><trkpt lat="52.43906183014075" lon="12.924376261853634"><ele>52.0</ele><time>2026-04-03T12:13:23Z</time></trkpt><trkpt lat="52.43905016320537" lon="12.924559739497592"><ele>52.0</ele><time>2026-04-03T12:13:24Z</time></trkpt><trkpt lat="52.4390645788826" lon="12.924710261540788"><ele>52.0</ele><time>2026-04-03T12:13:25Z</time></trkpt><trkpt lat="52.4390865869215" lon="12.924820044701974"><ele>52.0</ele><time>2026-04-03T12:13:26Z</time></trkpt><trkpt lat="52.43906726263003" lon="12.925043630858118"><ele>52.0</ele><time>2026-04-03T12:13:28Z</time></trkpt><trkpt lat="52.43905061432637" lon="12.925168258786199"><ele>51.6</ele><time>2026-04-03T12:13:29Z</time></trkpt><trkpt lat="52.43904644990738" lon="12.925288149769743"><ele>51.2</ele><time>2026-04-03T12:13:30Z</time></trkpt><trkpt lat="52.43906792545935" lon="12.925468795879793"><ele>50.8</ele><time>2026-04-03T12:13:32Z</time></trkpt><trkpt lat="52.43911852480754" lon="12.925595955003233"><ele>50.4</ele><time>2026-04-03T12:13:34Z</time></trkpt><trkpt lat="52.43909897114458" lon="12.925704352046873"><ele>50.0</ele><time>2026-04-03T12:13:36Z</time></trkpt><trkpt lat="52.43898639449803" lon="12.925793218579937"><ele>50.00000000000001</ele><time>2026-04-03T12:13:38Z</time></trkpt><trkpt lat="52.438916793649476" lon="12.925793810345438"><ele>50.0</ele><time>2026-04-03T12:13:39Z</time></trkpt><trkpt lat="52.43884656322239" lon="12.925780560628302"><ele>50.0</ele><time>2026-04-03T12:13:40Z</time></trkpt><trkpt lat="52.43874403618033" lon="12.92580617813212"><ele>50.0</ele><time>2026-04-03T12:13:41Z</time></trkpt><trkpt lat="52.438657070433074" lon="12.925803604589076"><ele>50.00000000000001</ele><time>2026-04-03T12:13:42Z</time></trkpt><trkpt lat="52.4385754369604" lon="12.925786994258594"><ele>50.0</ele><time>2026-04-03T12:13:43Z</time></trkpt><trkpt lat="52.43849374814919" lon="12.925758743082026"><ele>50.333333333333336</ele><time>2026-04-03T12:13:44Z</time></trkpt><trkpt lat="52.43841013943355" lon="12.92575703730322"><ele>50.66666666666667</ele><time>2026-04-03T12:13:46Z</time></trkpt><trkpt lat="52.43831136945758" lon="12.925776715703842"><ele>51.0</ele><time>2026-04-03T12:13:47Z</time></trkpt><trkpt lat="52.43821241799324" lon="12.92574449982383"><ele>51.33333333333333</ele><time>2026-04-03T12:13:48Z</time></trkpt><trkpt lat="52.43813024996286" lon="12.925758464116567"><ele>51.666666666666664</ele><time>2026-04-03T12:13:49Z</time></trkpt><trkpt lat="52.43805142982534" lon="12.925774059675273"><ele>52.0</ele><time>2026-04-03T12:13:50Z</time></trkpt><trkpt lat="52.43793340723343" lon="12.925816087523119"><ele>51.2</ele><time>2026-04-03T12:13:52Z</time></trkpt><trkpt lat="52.43784179645905" lon="12.925761936695595"><ele>50.400000000000006</ele><time>2026-04-03T12:13:54Z</time></trkpt><trkpt lat="52.437785392100174" lon="12.925544762700738"><ele>49.599999999999994</ele><time>2026-04-03T12:13:56Z</time></trkpt><trkpt lat="52.437738703958104" lon="12.925399165534785"><ele>48.8</ele><time>2026-04-03T12:13:57Z</time></trkpt><trkpt lat="52.43766820474795" lon="12.925265596578331"><ele>48.0</ele><time>2026-04-03T12:13:57.999Z</time></trkpt><trkpt lat="52.43759431967955" lon="12.925149355896282"><ele>48.5</ele><time>2026-04-03T12:13:58.999Z</time></trkpt><trkpt lat="52.43753900390213" lon="12.925026861662992"><ele>49.0</ele><time>2026-04-03T12:13:59.999Z</time></trkpt><trkpt lat="52.43749553057143" lon="12.924894191829368"><ele>49.5</ele><time>2026-04-03T12:14:00.999Z</time></trkpt><trkpt lat="52.437456985183665" lon="12.92476526427414"><ele>50.0</ele><time>2026-04-03T12:14:01.999Z</time></trkpt><trkpt lat="52.43741934244151" lon="12.92464536226152"><ele>50.5</ele><time>2026-04-03T12:14:02.999Z</time></trkpt><trkpt lat="52.43739111579078" lon="12.924509890825453"><ele>51.0</ele><time>2026-04-03T12:14:04.999Z</time></trkpt><trkpt lat="52.43744073277814" lon="12.924425806450007"><ele>51.0</ele><time>2026-04-03T12:14:06.999Z</time></trkpt><trkpt lat="52.43740387936293" lon="12.924523383670008"><ele>51.0</ele><time>2026-04-03T12:35:32.999Z</time></trkpt><trkpt lat="52.43740169772615" lon="12.924668009003854"><ele>51.0</ele><time>2026-04-03T12:35:34.999Z</time></trkpt><trkpt lat="52.437464188291486" lon="12.924828569117034"><ele>51.0</ele><time>2026-04-03T12:35:36.999Z</time></trkpt><trkpt lat="52.43750451196294" lon="12.924933080332366"><ele>51.0</ele><time>2026-04-03T12:35:37.999Z</time></trkpt><trkpt lat="52.43754639087638" lon="12.92504773448237"><ele>51.0</ele><time>2026-04-03T12:35:38.999Z</time></trkpt><trkpt lat="52.437589840640634" lon="12.925169569773763"><ele>50.5</ele><time>2026-04-03T12:35:39.999Z</time></trkpt><trkpt lat="52.437629822593024" lon="12.92527737097611"><ele>50.0</ele><time>2026-04-03T12:35:40.999Z</time></trkpt><trkpt lat="52.43767773553184" lon="12.92537403568183"><ele>49.5</ele><time>2026-04-03T12:35:41.999Z</time></trkpt><trkpt lat="52.437735931604095" lon="12.925457545601162"><ele>49.0</ele><time>2026-04-03T12:35:42.999Z</time></trkpt><trkpt lat="52.43778714640522" lon="12.925549111407392"><ele>48.5</ele><time>2026-04-03T12:35:43.999Z</time></trkpt><trkpt lat="52.43782524871582" lon="12.925717986675025"><ele>48.0</ele><time>2026-04-03T12:35:45.999Z</time></trkpt><trkpt lat="52.4378700967225" lon="12.92584452117118"><ele>48.0</ele><time>2026-04-03T12:35:47.999Z</time></trkpt><trkpt lat="52.437939996297594" lon="12.925849999739565"><ele>48.0</ele><time>2026-04-03T12:35:49.999Z</time></trkpt><trkpt lat="52.438073418857456" lon="12.925792582455607"><ele>48.0</ele><time>2026-04-03T12:35:51.999Z</time></trkpt><trkpt lat="52.43817277819137" lon="12.925785224748065"><ele>48.0</ele><time>2026-04-03T12:35:52.999Z</time></trkpt><trkpt lat="52.438269555214866" lon="12.925785973035211"><ele>48.0</ele><time>2026-04-03T12:35:53.999Z</time></trkpt><trkpt lat="52.43835270999363" lon="12.92580096320678"><ele>48.4</ele><time>2026-04-03T12:35:54.999Z</time></trkpt><trkpt lat="52.43842945431339" lon="12.925808907477686"><ele>48.8</ele><time>2026-04-03T12:35:55.998Z</time></trkpt><trkpt lat="52.43854101913212" lon="12.925771508037828"><ele>49.2</ele><time>2026-04-03T12:35:57.998Z</time></trkpt><trkpt lat="52.438671430085826" lon="12.925805746288278"><ele>49.6</ele><time>2026-04-03T12:35:59.998Z</time></trkpt><trkpt lat="52.43875690268151" lon="12.92580952131454"><ele>50.0</ele><time>2026-04-03T12:36:00.998Z</time></trkpt><trkpt lat="52.4388311815555" lon="12.92580634275771"><ele>50.0</ele><time>2026-04-03T12:36:01.998Z</time></trkpt><trkpt lat="52.438894535530494" lon="12.925788337560466"><ele>50.0</ele><time>2026-04-03T12:36:02.998Z</time></trkpt><trkpt lat="52.439005328919684" lon="12.925750108625728"><ele>50.0</ele><time>2026-04-03T12:36:04.998Z</time></trkpt><trkpt lat="52.43907693878364" lon="12.92569249665662"><ele>50.0</ele><time>2026-04-03T12:36:06.998Z</time></trkpt><trkpt lat="52.439095436374906" lon="12.925560090695098"><ele>50.0</ele><time>2026-04-03T12:36:08.998Z</time></trkpt><trkpt lat="52.43903731590547" lon="12.925382918351671"><ele>50.00000000000001</ele><time>2026-04-03T12:36:10.998Z</time></trkpt><trkpt lat="52.43901776487795" lon="12.92527699611007"><ele>50.0</ele><time>2026-04-03T12:36:11.998Z</time></trkpt><trkpt lat="52.439022475643185" lon="12.925151605032005"><ele>50.0</ele><time>2026-04-03T12:36:12.998Z</time></trkpt><trkpt lat="52.43904105969605" lon="12.92502862341255"><ele>50.0</ele><time>2026-04-03T12:36:13.998Z</time></trkpt><trkpt lat="52.43906205267486" lon="12.92492824974857"><ele>50.0</ele><time>2026-04-03T12:36:14.998Z</time></trkpt><trkpt lat="52.43906794342454" lon="12.924812172606526"><ele>50.00000000000001</ele><time>2026-04-03T12:36:15.998Z</time></trkpt><trkpt lat="52.43905701148811" lon="12.92469650075645"><ele>50.0</ele><time>2026-04-03T12:36:16.998Z</time></trkpt><trkpt lat="52.4390429303529" lon="12.9245554008984"><ele>50.4</ele><time>2026-04-03T12:36:17.998Z</time></trkpt><trkpt lat="52.43903860732989" lon="12.924433486244977"><ele>50.8</ele><time>2026-04-03T12:36:18.998Z</time></trkpt><trkpt lat="52.43905569864164" lon="12.924282220025841"><ele>51.2</ele><time>2026-04-03T12:36:19.998Z</time></trkpt><trkpt lat="52.43907198317396" lon="12.924152920044145"><ele>51.6</ele><time>2026-04-03T12:36:20.998Z</time></trkpt><trkpt lat="52.439109984787024" lon="12.923969561158444"><ele>52.0</ele><time>2026-04-03T12:36:22.998Z</time></trkpt><trkpt lat="52.43907784649454" lon="12.92379903628781"><ele>52.0</ele><time>2026-04-03T12:36:25Z</time></trkpt><trkpt lat="52.438984329866294" lon="12.923738292338845"><ele>52.0</ele><time>2026-04-03T12:36:27Z</time></trkpt><trkpt lat="52.4388639519139" lon="12.923774646768491"><ele>52.0</ele><time>2026-04-03T12:36:29Z</time></trkpt><trkpt lat="52.43876525633769" lon="12.923769682820796"><ele>52.0</ele><time>2026-04-03T12:36:30Z</time></trkpt><trkpt lat="52.43865814256771" lon="12.923762787492379"><ele>52.0</ele><time>2026-04-03T12:36:31Z</time></trkpt><trkpt lat="52.43856757818006" lon="12.923770176226741"><ele>52.33333333333333</ele><time>2026-04-03T12:36:32Z</time></trkpt><trkpt lat="52.438473572335106" lon="12.923786008969206"><ele>52.666666666666664</ele><time>2026-04-03T12:36:33Z</time></trkpt><trkpt lat="52.438388493637255" lon="12.923781048981677"><ele>53.0</ele><time>2026-04-03T12:36:34Z</time></trkpt><trkpt lat="52.438307499870824" lon="12.923762218576105"><ele>53.33333333333333</ele><time>2026-04-03T12:36:35Z</time></trkpt><trkpt lat="52.43821779554264" lon="12.923753708425194"><ele>53.666666666666664</ele><time>2026-04-03T12:36:36Z</time></trkpt><trkpt lat="52.43812443408527" lon="12.923761999654754"><ele>54.0</ele><time>2026-04-03T12:36:37Z</time></trkpt><trkpt lat="52.43805629041059" lon="12.92377629540058"><ele>53.333333333333336</ele><time>2026-04-03T12:36:38Z</time></trkpt><trkpt lat="52.43793878753856" lon="12.923805282799892"><ele>52.66666666666667</ele><time>2026-04-03T12:36:40Z</time></trkpt><trkpt lat="52.43786663152333" lon="12.923876218377222"><ele>52.0</ele><time>2026-04-03T12:36:45Z</time></trkpt><trkpt lat="52.43784985896325" lon="12.924015716881165"><ele>51.333333333333336</ele><time>2026-04-03T12:36:48Z</time></trkpt><trkpt lat="52.437789211033675" lon="12.924045277562838"><ele>50.66666666666667</ele><time>2026-04-03T12:36:50Z</time></trkpt><trkpt lat="52.437733384866156" lon="12.924130936114121"><ele>50.0</ele><time>2026-04-03T12:36:52Z</time></trkpt><trkpt lat="52.43768003413614" lon="12.924188327178395"><ele>50.16666666666667</ele><time>2026-04-03T12:36:53Z</time></trkpt><trkpt lat="52.4376283086656" lon="12.924326414510153"><ele>50.333333333333336</ele><time>2026-04-03T12:36:55Z</time></trkpt><trkpt lat="52.4375733575061" lon="12.924439418262793"><ele>50.5</ele><time>2026-04-03T12:36:58Z</time></trkpt><trkpt lat="52.4375118916184" lon="12.924477896752503"><ele>50.66666666666667</ele><time>2026-04-03T12:37:01Z</time></trkpt><trkpt lat="52.437440103752586" lon="12.924455045891737"><ele>50.833333333333336</ele><time>2026-04-03T12:37:05Z</time></trkpt><trkpt lat="52.43737956125495" lon="12.924489105653532"><ele>51.0</ele><time>2026-04-03T12:37:08Z</time></trkpt><trkpt lat="52.43733500119519" lon="12.924413955382764"><ele>51.0</ele><time>2026-04-03T12:37:11.999Z</time></trkpt><trkpt lat="52.43728601592684" lon="12.924325146474562"><ele>51.0</ele><time>2026-04-03T12:37:27.999Z</time></trkpt><trkpt lat="52.437247215635686" lon="12.92420699328875"><ele>51.0</ele><time>2026-04-03T12:37:31.999Z</time></trkpt><trkpt lat="52.43720641579771" lon="12.924103324793734"><ele>51.0</ele><time>2026-04-03T12:37:35.999Z</time></trkpt><trkpt lat="52.437166850894826" lon="12.924009279194749"><ele>51.0</ele><time>2026-04-03T12:37:38.999Z</time></trkpt><trkpt lat="52.43711401727014" lon="12.92395013741067"><ele>51.0</ele><time>2026-04-03T12:37:41.999Z</time></trkpt><trkpt lat="52.437072374794056" lon="12.924049797349578"><ele>51.0</ele><time>2026-04-03T12:37:44.999Z</time></trkpt><trkpt lat="52.437150445796114" lon="12.924024056940414"><ele>50.0</ele><time>2026-04-03T12:37:47.999Z</time></trkpt><trkpt lat="52.43712675859906" lon="12.923914065893149"><ele>49.0</ele><time>2026-04-03T12:37:50.999Z</time></trkpt><trkpt lat="52.43704153416671" lon="12.923970521271949"><ele>48.0</ele><time>2026-04-03T12:37:53.999Z</time></trkpt><trkpt lat="52.43699154188386" lon="12.92407419959621"><ele>47.0</ele><time>2026-04-03T12:37:56.999Z</time></trkpt><trkpt lat="52.436921553455704" lon="12.924102850687428"><ele>46.0</ele><time>2026-04-03T12:37:58.999Z</time></trkpt><trkpt lat="52.436855556165426" lon="12.9241197197107"><ele>45.0</ele><time>2026-04-03T12:38:00.999Z</time></trkpt><trkpt lat="52.43676958095697" lon="12.924145630615975"><ele>45.0</ele><time>2026-04-03T12:38:03.999Z</time></trkpt><trkpt lat="52.43670617470903" lon="12.924173761584274"><ele>45.0</ele><time>2026-04-03T12:38:05.998Z</time></trkpt><trkpt lat="52.43661244628821" lon="12.924211070998036"><ele>45.0</ele><time>2026-04-03T12:38:07.998Z</time></trkpt><trkpt lat="52.43651693546019" lon="12.924236875292417"><ele>45.0</ele><time>2026-04-03T12:38:09.998Z</time></trkpt><trkpt lat="52.43642048257545" lon="12.924273365523346"><ele>45.0</ele><time>2026-04-03T12:38:11.998Z</time></trkpt><trkpt lat="52.436313481752784" lon="12.924313259788354"><ele>45.4</ele><time>2026-04-03T12:38:13.998Z</time></trkpt><trkpt lat="52.4362075659085" lon="12.924354818330295"><ele>45.8</ele><time>2026-04-03T12:38:15.998Z</time></trkpt><trkpt lat="52.43609942329972" lon="12.924391903675286"><ele>46.2</ele><time>2026-04-03T12:38:17.998Z</time></trkpt><trkpt lat="52.43599486028874" lon="12.924435317782294"><ele>46.6</ele><time>2026-04-03T12:38:19.998Z</time></trkpt><trkpt lat="52.43590020265239" lon="12.924466615984574"><ele>47.0</ele><time>2026-04-03T12:38:21.998Z</time></trkpt><trkpt lat="52.43580061438089" lon="12.924505461795762"><ele>47.0</ele><time>2026-04-03T12:38:23.998Z</time></trkpt><trkpt lat="52.435687274993505" lon="12.924498772217957"><ele>47.0</ele><time>2026-04-03T12:38:25.998Z</time></trkpt><trkpt lat="52.43555696670002" lon="12.92454530197143"><ele>47.0</ele><time>2026-04-03T12:38:27.998Z</time></trkpt><trkpt lat="52.43548697202816" lon="12.924570375562208"><ele>47.0</ele><time>2026-04-03T12:38:28.998Z</time></trkpt><trkpt lat="52.43541490394816" lon="12.924596553112893"><ele>47.0</ele><time>2026-04-03T12:38:29.998Z</time></trkpt><trkpt lat="52.435340924082475" lon="12.9246234249895"><ele>46.666666666666664</ele><time>2026-04-03T12:38:31Z</time></trkpt><trkpt lat="52.43526190468223" lon="12.924652127429413"><ele>46.33333333333333</ele><time>2026-04-03T12:38:32Z</time></trkpt><trkpt lat="52.43518167257685" lon="12.924681270307792"><ele>46.0</ele><time>2026-04-03T12:38:33Z</time></trkpt><trkpt lat="52.43511462113622" lon="12.92470562558737"><ele>45.666666666666664</ele><time>2026-04-03T12:38:34Z</time></trkpt><trkpt lat="52.435004771260424" lon="12.924745259463881"><ele>45.333333333333336</ele><time>2026-04-03T12:38:36Z</time></trkpt><trkpt lat="52.43491107104908" lon="12.924775106621476"><ele>45.0</ele><time>2026-04-03T12:38:38Z</time></trkpt><trkpt lat="52.434825122522824" lon="12.924801561741493"><ele>45.0</ele><time>2026-04-03T12:38:40Z</time></trkpt><trkpt lat="52.43474404094866" lon="12.924846158027771"><ele>45.0</ele><time>2026-04-03T12:38:42Z</time></trkpt><trkpt lat="52.434674645148704" lon="12.924841035877026"><ele>45.0</ele><time>2026-04-03T12:38:45Z</time></trkpt><trkpt lat="52.43461227546931" lon="12.924644741293681"><ele>45.0</ele><time>2026-04-03T12:38:49Z</time></trkpt><trkpt lat="52.434587201196074" lon="12.924512215568228"><ele>45.0</ele><time>2026-04-03T12:38:51Z</time></trkpt><trkpt lat="52.43441470169458" lon="12.924552192539537"><ele>44.6</ele><time>2026-04-03T12:38:53Z</time></trkpt><trkpt lat="52.434327232291224" lon="12.924583997237178"><ele>44.2</ele><time>2026-04-03T12:38:54Z</time></trkpt><trkpt lat="52.43421679223946" lon="12.924603419211898"><ele>43.8</ele><time>2026-04-03T12:38:55Z</time></trkpt><trkpt lat="52.43410813076248" lon="12.924646579697244"><ele>43.4</ele><time>2026-04-03T12:38:56Z</time></trkpt><trkpt lat="52.433997044096095" lon="12.924692982540902"><ele>43.0</ele><time>2026-04-03T12:38:57Z</time></trkpt><trkpt lat="52.433889850198355" lon="12.924737759155429"><ele>42.75</ele><time>2026-04-03T12:38:58Z</time></trkpt><trkpt lat="52.43378451800262" lon="12.924779591394254"><ele>42.5</ele><time>2026-04-03T12:38:59Z</time></trkpt><trkpt lat="52.433666870287965" lon="12.924818920458334"><ele>42.25</ele><time>2026-04-03T12:39:00Z</time></trkpt><trkpt lat="52.433544608324375" lon="12.92485665817184"><ele>42.0</ele><time>2026-04-03T12:39:01Z</time></trkpt><trkpt lat="52.43342634690313" lon="12.924895961205888"><ele>42.0</ele><time>2026-04-03T12:39:02Z</time></trkpt><trkpt lat="52.43331258912851" lon="12.924937596170418"><ele>42.0</ele><time>2026-04-03T12:39:03Z</time></trkpt><trkpt lat="52.433201444202396" lon="12.924979494269554"><ele>42.0</ele><time>2026-04-03T12:39:04Z</time></trkpt><trkpt lat="52.433095737645175" lon="12.92503731348031"><ele>42.0</ele><time>2026-04-03T12:39:05Z</time></trkpt><trkpt lat="52.432987188355824" lon="12.92508348257049"><ele>42.0</ele><time>2026-04-03T12:39:06Z</time></trkpt><trkpt lat="52.43287312564685" lon="12.92511868016219"><ele>42.0</ele><time>2026-04-03T12:39:07Z</time></trkpt><trkpt lat="52.432761556788655" lon="12.925164515806038"><ele>42.0</ele><time>2026-04-03T12:39:08Z</time></trkpt><trkpt lat="52.43264892340199" lon="12.925206941141193"><ele>42.0</ele><time>2026-04-03T12:39:09Z</time></trkpt><trkpt lat="52.43252707689566" lon="12.925232746390533"><ele>42.0</ele><time>2026-04-03T12:39:10Z</time></trkpt><trkpt lat="52.43241237214567" lon="12.9253031116054"><ele>42.0</ele><time>2026-04-03T12:39:11Z</time></trkpt><trkpt lat="52.43229907113086" lon="12.925347891498062"><ele>42.0</ele><time>2026-04-03T12:39:11.999Z</time></trkpt><trkpt lat="52.43219762814506" lon="12.925384910700918"><ele>42.0</ele><time>2026-04-03T12:39:12.999Z</time></trkpt><trkpt lat="52.43210317446291" lon="12.925422729369654"><ele>42.0</ele><time>2026-04-03T12:39:13.999Z</time></trkpt><trkpt lat="52.43201146676738" lon="12.925431443246493"><ele>42.0</ele><time>2026-04-03T12:39:14.999Z</time></trkpt><trkpt lat="52.43193602549649" lon="12.925460543221648"><ele>42.0</ele><time>2026-04-03T12:39:15.999Z</time></trkpt><trkpt lat="52.43187142906219" lon="12.925485281008573"><ele>42.0</ele><time>2026-04-03T12:39:16.999Z</time></trkpt><trkpt lat="52.43175199356583" lon="12.925529722179503"><ele>42.0</ele><time>2026-04-03T12:39:18.999Z</time></trkpt><trkpt lat="52.43164901780499" lon="12.925556561473305"><ele>42.0</ele><time>2026-04-03T12:39:20.999Z</time></trkpt><trkpt lat="52.431569220035094" lon="12.92557020119135"><ele>42.0</ele><time>2026-04-03T12:39:22.999Z</time></trkpt><trkpt lat="52.43155574563387" lon="12.925874751944217"><ele>42.0</ele><time>2026-04-03T12:39:24.999Z</time></trkpt><trkpt lat="52.43157339893303" lon="12.92600800415438"><ele>42.0</ele><time>2026-04-03T12:39:25.999Z</time></trkpt><trkpt lat="52.43160547314233" lon="12.92613672408015"><ele>42.0</ele><time>2026-04-03T12:39:26.999Z</time></trkpt><trkpt lat="52.431631520323805" lon="12.926246915004185"><ele>42.0</ele><time>2026-04-03T12:39:27.999Z</time></trkpt><trkpt lat="52.431606876692044" lon="12.92642602881464"><ele>42.0</ele><time>2026-04-03T12:39:29.999Z</time></trkpt><trkpt lat="52.43154776227154" lon="12.926500906043383"><ele>42.0</ele><time>2026-04-03T12:39:30.999Z</time></trkpt><trkpt lat="52.431471896145474" lon="12.926576257104816"><ele>42.0</ele><time>2026-04-03T12:39:31.999Z</time></trkpt><trkpt lat="52.431377041953574" lon="12.926628774503923"><ele>42.0</ele><time>2026-04-03T12:39:32.999Z</time></trkpt><trkpt lat="52.431279394144745" lon="12.926662574888118"><ele>42.0</ele><time>2026-04-03T12:39:33.999Z</time></trkpt><trkpt lat="52.43117599521113" lon="12.92669788197212"><ele>42.400000000000006</ele><time>2026-04-03T12:39:34.999Z</time></trkpt><trkpt lat="52.431087375154675" lon="12.926739209533935"><ele>42.800000000000004</ele><time>2026-04-03T12:39:35.999Z</time></trkpt><trkpt lat="52.43099211227141" lon="12.926776980711066"><ele>43.2</ele><time>2026-04-03T12:39:36.999Z</time></trkpt><trkpt lat="52.43089850792896" lon="12.926811119097033"><ele>43.6</ele><time>2026-04-03T12:39:37.999Z</time></trkpt><trkpt lat="52.4308013728959" lon="12.926847147494025"><ele>44.0</ele><time>2026-04-03T12:39:38.999Z</time></trkpt><trkpt lat="52.43070434143615" lon="12.926878677601847"><ele>44.0</ele><time>2026-04-03T12:39:39.999Z</time></trkpt><trkpt lat="52.430612037597065" lon="12.926891351292069"><ele>44.0</ele><time>2026-04-03T12:39:40.999Z</time></trkpt><trkpt lat="52.430530771427804" lon="12.92689925105478"><ele>44.0</ele><time>2026-04-03T12:39:41.999Z</time></trkpt><trkpt lat="52.4304478727082" lon="12.926943332485186"><ele>44.0</ele><time>2026-04-03T12:39:42.999Z</time></trkpt><trkpt lat="52.430351013365616" lon="12.926991066735608"><ele>44.0</ele><time>2026-04-03T12:39:43.999Z</time></trkpt><trkpt lat="52.430266227479635" lon="12.927026360282015"><ele>44.33333333333333</ele><time>2026-04-03T12:39:44.999Z</time></trkpt><trkpt lat="52.430173214351555" lon="12.927059843273467"><ele>44.666666666666664</ele><time>2026-04-03T12:39:45.999Z</time></trkpt><trkpt lat="52.430084447233604" lon="12.927100059202916"><ele>45.0</ele><time>2026-04-03T12:39:46.999Z</time></trkpt><trkpt lat="52.42999584433102" lon="12.927129584710572"><ele>45.333333333333336</ele><time>2026-04-03T12:39:47.999Z</time></trkpt><trkpt lat="52.42991678960054" lon="12.927167480467318"><ele>45.66666666666667</ele><time>2026-04-03T12:39:48.999Z</time></trkpt><trkpt lat="52.429837471895745" lon="12.92720795430007"><ele>46.0</ele><time>2026-04-03T12:39:49.999Z</time></trkpt><trkpt lat="52.42977248096598" lon="12.927238821922776"><ele>46.0</ele><time>2026-04-03T12:39:50.999Z</time></trkpt><trkpt lat="52.429669555203816" lon="12.927260731423877"><ele>46.0</ele><time>2026-04-03T12:39:52.999Z</time></trkpt><trkpt lat="52.42958184523903" lon="12.927277659024956"><ele>46.0</ele><time>2026-04-03T12:39:55.999Z</time></trkpt><trkpt lat="52.42952935211404" lon="12.927206149195904"><ele>46.0</ele><time>2026-04-03T12:39:59.999Z</time></trkpt><trkpt lat="52.42949219152166" lon="12.927095996632172"><ele>46.0</ele><time>2026-04-03T12:40:01.999Z</time></trkpt><trkpt lat="52.4294847853331" lon="12.926986478944476"><ele>46.0</ele><time>2026-04-03T12:40:02.999Z</time></trkpt><trkpt lat="52.42948676956804" lon="12.926858443938782"><ele>47.0</ele><time>2026-04-03T12:40:03.999Z</time></trkpt><trkpt lat="52.429466348856735" lon="12.92671693445309"><ele>48.0</ele><time>2026-04-03T12:40:04.999Z</time></trkpt><trkpt lat="52.42944724041144" lon="12.926584225254675"><ele>49.0</ele><time>2026-04-03T12:40:05.999Z</time></trkpt><trkpt lat="52.42943748161363" lon="12.92645661910659"><ele>50.0</ele><time>2026-04-03T12:40:06.999Z</time></trkpt><trkpt lat="52.42941790604533" lon="12.926308997970933"><ele>50.99999999999999</ele><time>2026-04-03T12:40:07.998Z</time></trkpt><trkpt lat="52.42940192827728" lon="12.92619102675037"><ele>52.0</ele><time>2026-04-03T12:40:08.998Z</time></trkpt><trkpt lat="52.429386168915116" lon="12.926037235298686"><ele>51.400000000000006</ele><time>2026-04-03T12:40:09.998Z</time></trkpt><trkpt lat="52.42936412215549" lon="12.925877473742007"><ele>50.800000000000004</ele><time>2026-04-03T12:40:10.998Z</time></trkpt><trkpt lat="52.42935056807505" lon="12.925722899203697"><ele>50.2</ele><time>2026-04-03T12:40:11.998Z</time></trkpt><trkpt lat="52.42934437327193" lon="12.925610964718748"><ele>49.6</ele><time>2026-04-03T12:40:12.998Z</time></trkpt><trkpt lat="52.42931033651768" lon="12.925433039829233"><ele>49.0</ele><time>2026-04-03T12:40:14.998Z</time></trkpt><trkpt lat="52.4292816365673" lon="12.925321572246313"><ele>48.99999999999999</ele><time>2026-04-03T12:40:16.998Z</time></trkpt><trkpt lat="52.42933269448245" lon="12.925233368858413"><ele>49.0</ele><time>2026-04-03T12:40:18.998Z</time></trkpt><trkpt lat="52.42939904575164" lon="12.925222991578558"><ele>49.0</ele><time>2026-04-03T12:40:19.998Z</time></trkpt><trkpt lat="52.42948158414453" lon="12.925185845343309"><ele>49.0</ele><time>2026-04-03T12:40:20.998Z</time></trkpt><trkpt lat="52.429567865696846" lon="12.92513115137726"><ele>48.99999999999999</ele><time>2026-04-03T12:40:21.998Z</time></trkpt><trkpt lat="52.429628441207065" lon="12.925098606287962"><ele>49.0</ele><time>2026-04-03T12:40:22.998Z</time></trkpt><trkpt lat="52.42971293885827" lon="12.925065471186045"><ele>48.99999999999999</ele><time>2026-04-03T12:40:24.998Z</time></trkpt><trkpt lat="52.429729511688635" lon="12.924939827037694"><ele>49.0</ele><time>2026-04-03T12:40:27.998Z</time></trkpt><trkpt lat="52.42966502679354" lon="12.92489149164408"><ele>49.0</ele><time>2026-04-03T12:40:29.998Z</time></trkpt><trkpt lat="52.42956312708912" lon="12.924988997024297"><ele>49.0</ele><time>2026-04-03T12:40:31.998Z</time></trkpt><trkpt lat="52.42948956425158" lon="12.925118054114007"><ele>48.99999999999999</ele><time>2026-04-03T12:40:33.998Z</time></trkpt><trkpt lat="52.42943610368717" lon="12.925192577825504"><ele>49.0</ele><time>2026-04-03T12:40:34.998Z</time></trkpt><trkpt lat="52.42937885004854" lon="12.925238078788544"><ele>48.99999999999999</ele><time>2026-04-03T12:40:35.998Z</time></trkpt><trkpt lat="52.42929890286498" lon="12.925226836777565"><ele>49.0</ele><time>2026-04-03T12:40:38Z</time></trkpt><trkpt lat="52.4292354726375" lon="12.925236379116612"><ele>49.0</ele><time>2026-04-03T12:40:42Z</time></trkpt><trkpt lat="52.42916411355323" lon="12.925283602288202"><ele>49.0</ele><time>2026-04-03T12:40:44Z</time></trkpt><trkpt lat="52.42914328650886" lon="12.925141349558285"><ele>48.99999999999999</ele><time>2026-04-03T12:40:47Z</time></trkpt><trkpt lat="52.429241044876534" lon="12.92513022901509"><ele>49.0</ele><time>2026-04-03T12:40:50Z</time></trkpt><trkpt lat="52.429310460608484" lon="12.925191338686364"><ele>48.99999999999999</ele><time>2026-04-03T12:40:51Z</time></trkpt><trkpt lat="52.42937287567241" lon="12.925224969756831"><ele>49.0</ele><time>2026-04-03T12:40:52Z</time></trkpt><trkpt lat="52.429435551263246" lon="12.925205456058604"><ele>49.0</ele><time>2026-04-03T12:40:53Z</time></trkpt><trkpt lat="52.42949674421292" lon="12.925164444136533"><ele>49.0</ele><time>2026-04-03T12:40:54Z</time></trkpt><trkpt lat="52.429584266828606" lon="12.925112364706848"><ele>48.99999999999999</ele><time>2026-04-03T12:40:55Z</time></trkpt><trkpt lat="52.42966021890132" lon="12.925076688156262"><ele>49.0</ele><time>2026-04-03T12:40:56Z</time></trkpt><trkpt lat="52.42975538464606" lon="12.925022996320484"><ele>47.83333333333333</ele><time>2026-04-03T12:40:58Z</time></trkpt><trkpt lat="52.42976656430774" lon="12.92487404097076"><ele>46.666666666666664</ele><time>2026-04-03T12:41:00Z</time></trkpt><trkpt lat="52.42981203480376" lon="12.924779690646316"><ele>45.5</ele><time>2026-04-03T12:41:02Z</time></trkpt><trkpt lat="52.42988178961158" lon="12.924751975034754"><ele>44.33333333333333</ele><time>2026-04-03T12:41:03Z</time></trkpt><trkpt lat="52.42997380088943" lon="12.924750324503766"><ele>43.166666666666664</ele><time>2026-04-03T12:41:04Z</time></trkpt><trkpt lat="52.43009093131738" lon="12.924724113696556"><ele>42.0</ele><time>2026-04-03T12:41:05Z</time></trkpt><trkpt lat="52.43019927154453" lon="12.924679141619023"><ele>42.0</ele><time>2026-04-03T12:41:06Z</time></trkpt><trkpt lat="52.43029122513941" lon="12.924649762723469"><ele>42.0</ele><time>2026-04-03T12:41:07Z</time></trkpt><trkpt lat="52.43038375259239" lon="12.924618974767336"><ele>42.0</ele><time>2026-04-03T12:41:08Z</time></trkpt><trkpt lat="52.43047458584094" lon="12.924587722789415"><ele>42.0</ele><time>2026-04-03T12:41:09Z</time></trkpt><trkpt lat="52.430567336056434" lon="12.924552600088932"><ele>42.0</ele><time>2026-04-03T12:41:10Z</time></trkpt><trkpt lat="52.430646616613956" lon="12.924521259233599"><ele>42.0</ele><time>2026-04-03T12:41:11Z</time></trkpt><trkpt lat="52.43071965205195" lon="12.924481379997768"><ele>42.0</ele><time>2026-04-03T12:41:12Z</time></trkpt><trkpt lat="52.430795464668726" lon="12.924442788667413"><ele>42.0</ele><time>2026-04-03T12:41:13Z</time></trkpt><trkpt lat="52.4308686662731" lon="12.92440198933694"><ele>42.0</ele><time>2026-04-03T12:41:14Z</time></trkpt><trkpt lat="52.43093785272726" lon="12.924378074475625"><ele>42.0</ele><time>2026-04-03T12:41:15Z</time></trkpt><trkpt lat="52.431038377948674" lon="12.9243211762736"><ele>42.0</ele><time>2026-04-03T12:41:16.999Z</time></trkpt><trkpt lat="52.431141052591485" lon="12.924246980800625"><ele>42.0</ele><time>2026-04-03T12:41:18.999Z</time></trkpt><trkpt lat="52.43120457490085" lon="12.924191942357474"><ele>42.0</ele><time>2026-04-03T12:41:20.999Z</time></trkpt><trkpt lat="52.43124256091538" lon="12.924036659195561"><ele>42.0</ele><time>2026-04-03T12:41:22.999Z</time></trkpt><trkpt lat="52.431241482365195" lon="12.923933072649245"><ele>42.0</ele><time>2026-04-03T12:41:23.999Z</time></trkpt><trkpt lat="52.43122777382716" lon="12.923826713325331"><ele>42.0</ele><time>2026-04-03T12:41:24.999Z</time></trkpt><trkpt lat="52.431211170322335" lon="12.923708157898153"><ele>42.0</ele><time>2026-04-03T12:41:25.999Z</time></trkpt><trkpt lat="52.43119193803367" lon="12.923567298051722"><ele>42.0</ele><time>2026-04-03T12:41:26.999Z</time></trkpt><trkpt lat="52.43118901201507" lon="12.923403596089178"><ele>42.0</ele><time>2026-04-03T12:41:27.999Z</time></trkpt><trkpt lat="52.4311557554314" lon="12.923240348538913"><ele>42.0</ele><time>2026-04-03T12:41:28.999Z</time></trkpt><trkpt lat="52.4311497619109" lon="12.923084344285547"><ele>42.0</ele><time>2026-04-03T12:41:29.999Z</time></trkpt><trkpt lat="52.431129480826485" lon="12.922927514245444"><ele>42.0</ele><time>2026-04-03T12:41:30.999Z</time></trkpt><trkpt lat="52.43110108183702" lon="12.922788629714706"><ele>41.8</ele><time>2026-04-03T12:41:31.999Z</time></trkpt><trkpt lat="52.431080690241394" lon="12.92264364194735"><ele>41.6</ele><time>2026-04-03T12:41:32.999Z</time></trkpt><trkpt lat="52.43106236058931" lon="12.922498586766206"><ele>41.4</ele><time>2026-04-03T12:41:33.999Z</time></trkpt><trkpt lat="52.431043774513796" lon="12.922353484913128"><ele>41.199999999999996</ele><time>2026-04-03T12:41:34.999Z</time></trkpt><trkpt lat="52.43102446775976" lon="12.922203530655121"><ele>41.0</ele><time>2026-04-03T12:41:35.999Z</time></trkpt><trkpt lat="52.431007430573175" lon="12.92205040768828"><ele>41.0</ele><time>2026-04-03T12:41:36.999Z</time></trkpt><trkpt lat="52.430987489676426" lon="12.921902624598923"><ele>41.0</ele><time>2026-04-03T12:41:37.999Z</time></trkpt><trkpt lat="52.430969563242385" lon="12.921753670890945"><ele>41.0</ele><time>2026-04-03T12:41:38.999Z</time></trkpt><trkpt lat="52.4309504491993" lon="12.92159997007714"><ele>41.0</ele><time>2026-04-03T12:41:39.999Z</time></trkpt><trkpt lat="52.43093197004465" lon="12.921441667883148"><ele>41.0</ele><time>2026-04-03T12:41:40.999Z</time></trkpt><trkpt lat="52.43093220884076" lon="12.921306306354218"><ele>41.0</ele><time>2026-04-03T12:41:41.999Z</time></trkpt><trkpt lat="52.43090154738128" lon="12.921176259450526"><ele>41.0</ele><time>2026-04-03T12:41:42.999Z</time></trkpt><trkpt lat="52.430884221505025" lon="12.921020051015647"><ele>41.0</ele><time>2026-04-03T12:41:43.999Z</time></trkpt><trkpt lat="52.430879056222075" lon="12.920851119110939"><ele>41.0</ele><time>2026-04-03T12:41:44.999Z</time></trkpt><trkpt lat="52.43084616482423" lon="12.920702533617082"><ele>41.0</ele><time>2026-04-03T12:41:45.999Z</time></trkpt><trkpt lat="52.43082889855556" lon="12.92055662338874"><ele>41.0</ele><time>2026-04-03T12:41:46.999Z</time></trkpt><trkpt lat="52.43080980386068" lon="12.92040086841231"><ele>41.0</ele><time>2026-04-03T12:41:47.999Z</time></trkpt><trkpt lat="52.43078960578449" lon="12.920242578560904"><ele>41.0</ele><time>2026-04-03T12:41:48.999Z</time></trkpt><trkpt lat="52.43077000193066" lon="12.920078119060415"><ele>41.0</ele><time>2026-04-03T12:41:49.999Z</time></trkpt><trkpt lat="52.430750822428486" lon="12.919913986813963"><ele>41.0</ele><time>2026-04-03T12:41:50.999Z</time></trkpt><trkpt lat="52.43073020952983" lon="12.91974470761633"><ele>41.0</ele><time>2026-04-03T12:41:51.999Z</time></trkpt><trkpt lat="52.43071022211198" lon="12.91957351172548"><ele>41.0</ele><time>2026-04-03T12:41:52.999Z</time></trkpt><trkpt lat="52.43068975248492" lon="12.919403173066227"><ele>41.0</ele><time>2026-04-03T12:41:53.999Z</time></trkpt><trkpt lat="52.430669952373165" lon="12.91924228725427"><ele>41.0</ele><time>2026-04-03T12:41:54.999Z</time></trkpt><trkpt lat="52.43065038888876" lon="12.91908283733332"><ele>41.0</ele><time>2026-04-03T12:41:55.999Z</time></trkpt><trkpt lat="52.43063376978391" lon="12.91892914286576"><ele>41.0</ele><time>2026-04-03T12:41:56.999Z</time></trkpt><trkpt lat="52.430613600425616" lon="12.918783122772815"><ele>41.0</ele><time>2026-04-03T12:41:57.999Z</time></trkpt><trkpt lat="52.43059772376539" lon="12.918641476440946"><ele>41.0</ele><time>2026-04-03T12:41:58.999Z</time></trkpt><trkpt lat="52.43057502111058" lon="12.918520319386934"><ele>41.0</ele><time>2026-04-03T12:41:59.999Z</time></trkpt><trkpt lat="52.43055794354205" lon="12.918413611247102"><ele>41.0</ele><time>2026-04-03T12:42:00.999Z</time></trkpt><trkpt lat="52.43054043335554" lon="12.918307292950626"><ele>41.0</ele><time>2026-04-03T12:42:01.999Z</time></trkpt><trkpt lat="52.430526583045555" lon="12.918182295141127"><ele>41.0</ele><time>2026-04-03T12:42:02.999Z</time></trkpt><trkpt lat="52.4305290877456" lon="12.918043847577259"><ele>41.0</ele><time>2026-04-03T12:42:03.999Z</time></trkpt><trkpt lat="52.430519669068175" lon="12.9179178844843"><ele>41.0</ele><time>2026-04-03T12:42:04.999Z</time></trkpt><trkpt lat="52.43049537897938" lon="12.917793640155155"><ele>41.0</ele><time>2026-04-03T12:42:05.999Z</time></trkpt><trkpt lat="52.43049204919299" lon="12.917685204760572"><ele>41.0</ele><time>2026-04-03T12:42:06.999Z</time></trkpt><trkpt lat="52.430486154139075" lon="12.917581928660967"><ele>41.0</ele><time>2026-04-03T12:42:07.999Z</time></trkpt><trkpt lat="52.43048781298472" lon="12.917413851767604"><ele>41.0</ele><time>2026-04-03T12:42:09.999Z</time></trkpt><trkpt lat="52.43047861504637" lon="12.917245266992769"><ele>41.0</ele><time>2026-04-03T12:42:11.999Z</time></trkpt><trkpt lat="52.43045994473462" lon="12.917087743987585"><ele>41.0</ele><time>2026-04-03T12:42:13.998Z</time></trkpt><trkpt lat="52.43047680400179" lon="12.916887677034152"><ele>41.0</ele><time>2026-04-03T12:42:15.998Z</time></trkpt><trkpt lat="52.43046945530744" lon="12.91674856064298"><ele>41.0</ele><time>2026-04-03T12:42:17.998Z</time></trkpt><trkpt lat="52.430494299632954" lon="12.916653611572697"><ele>42.0</ele><time>2026-04-03T12:42:21.998Z</time></trkpt><trkpt lat="52.43031157159093" lon="12.91671614907322"><ele>43.0</ele><time>2026-04-03T12:42:24.998Z</time></trkpt><trkpt lat="52.43024938375585" lon="12.916748020484224"><ele>44.0</ele><time>2026-04-03T12:42:25.998Z</time></trkpt><trkpt lat="52.4301596473747" lon="12.91677961346091"><ele>45.0</ele><time>2026-04-03T12:42:27.998Z</time></trkpt><trkpt lat="52.43006917135445" lon="12.91678169751025"><ele>46.0</ele><time>2026-04-03T12:42:29.998Z</time></trkpt><trkpt lat="52.4299844792057" lon="12.916789190867018"><ele>46.0</ele><time>2026-04-03T12:42:32.998Z</time></trkpt><trkpt lat="52.42991588252387" lon="12.916789736140663"><ele>46.0</ele><time>2026-04-03T12:45:29Z</time></trkpt><trkpt lat="52.42983590228179" lon="12.916722580834046"><ele>46.0</ele><time>2026-04-03T12:45:31Z</time></trkpt><trkpt lat="52.42975086274886" lon="12.91666681647256"><ele>46.0</ele><time>2026-04-03T12:45:32.999Z</time></trkpt><trkpt lat="52.429651662880794" lon="12.916621904688597"><ele>46.0</ele><time>2026-04-03T12:45:34.999Z</time></trkpt><trkpt lat="52.42954175242903" lon="12.916640423540322"><ele>45.199999999999996</ele><time>2026-04-03T12:45:36.999Z</time></trkpt><trkpt lat="52.42945772308757" lon="12.916651605802633"><ele>44.4</ele><time>2026-04-03T12:45:38.999Z</time></trkpt><trkpt lat="52.429361617139826" lon="12.916596193151165"><ele>43.6</ele><time>2026-04-03T12:45:40.999Z</time></trkpt><trkpt lat="52.429272185636485" lon="12.91646673833105"><ele>42.8</ele><time>2026-04-03T12:45:42.999Z</time></trkpt><trkpt lat="52.42920974795934" lon="12.916312606124926"><ele>42.0</ele><time>2026-04-03T12:45:44.999Z</time></trkpt><trkpt lat="52.42914860200497" lon="12.916160726750912"><ele>42.0</ele><time>2026-04-03T12:45:46.999Z</time></trkpt><trkpt lat="52.429098437299395" lon="12.915992620338592"><ele>42.0</ele><time>2026-04-03T12:45:48.999Z</time></trkpt><trkpt lat="52.42907584193392" lon="12.915882317605169"><ele>42.0</ele><time>2026-04-03T12:45:49.999Z</time></trkpt><trkpt lat="52.42904099280481" lon="12.915696332700648"><ele>42.0</ele><time>2026-04-03T12:45:51.999Z</time></trkpt><trkpt lat="52.42900348033573" lon="12.915509774889403"><ele>42.0</ele><time>2026-04-03T12:45:53.999Z</time></trkpt><trkpt lat="52.42895531610355" lon="12.915328756291744"><ele>41.8</ele><time>2026-04-03T12:45:55.999Z</time></trkpt><trkpt lat="52.42891608464277" lon="12.915145267832926"><ele>41.6</ele><time>2026-04-03T12:45:57.999Z</time></trkpt><trkpt lat="52.428871156895575" lon="12.914963732323102"><ele>41.4</ele><time>2026-04-03T12:45:59.999Z</time></trkpt><trkpt lat="52.428841351495734" lon="12.914821738192403"><ele>41.199999999999996</ele><time>2026-04-03T12:46:01.999Z</time></trkpt><trkpt lat="52.428828450522765" lon="12.914667142424161"><ele>41.0</ele><time>2026-04-03T12:46:03.999Z</time></trkpt><trkpt lat="52.42877894621462" lon="12.914526177357063"><ele>41.0</ele><time>2026-04-03T12:46:05.999Z</time></trkpt><trkpt lat="52.42874334227845" lon="12.914354517469334"><ele>41.0</ele><time>2026-04-03T12:46:07.999Z</time></trkpt><trkpt lat="52.42872804673" lon="12.914181665993791"><ele>41.0</ele><time>2026-04-03T12:46:09.999Z</time></trkpt><trkpt lat="52.42874964665018" lon="12.914067380695148"><ele>41.0</ele><time>2026-04-03T12:46:11.999Z</time></trkpt><trkpt lat="52.428838910356156" lon="12.914055648400566"><ele>41.0</ele><time>2026-04-03T12:46:13.999Z</time></trkpt><trkpt lat="52.42895959755622" lon="12.914083300724302"><ele>41.0</ele><time>2026-04-03T12:46:15.999Z</time></trkpt><trkpt lat="52.429024087304185" lon="12.914095298358443"><ele>41.0</ele><time>2026-04-03T12:46:16.999Z</time></trkpt><trkpt lat="52.42912937421678" lon="12.914147338677894"><ele>41.0</ele><time>2026-04-03T12:46:18.999Z</time></trkpt><trkpt lat="52.42922402035235" lon="12.914183522937853"><ele>41.0</ele><time>2026-04-03T12:46:20.999Z</time></trkpt><trkpt lat="52.42933270734555" lon="12.914183175143014"><ele>41.0</ele><time>2026-04-03T12:46:22.999Z</time></trkpt><trkpt lat="52.42943048741468" lon="12.914137868193318"><ele>41.0</ele><time>2026-04-03T12:46:24.999Z</time></trkpt><trkpt lat="52.42951907100377" lon="12.914087961958721"><ele>41.0</ele><time>2026-04-03T12:46:26.999Z</time></trkpt><trkpt lat="52.429628317102186" lon="12.914095403606582"><ele>41.0</ele><time>2026-04-03T12:46:28.998Z</time></trkpt><trkpt lat="52.42972573264657" lon="12.914095734429093"><ele>41.0</ele><time>2026-04-03T12:46:30.998Z</time></trkpt><trkpt lat="52.42981563566425" lon="12.914154931509794"><ele>41.0</ele><time>2026-04-03T12:46:32.998Z</time></trkpt><trkpt lat="52.429873867112555" lon="12.914254207480099"><ele>41.0</ele><time>2026-04-03T12:46:34.998Z</time></trkpt><trkpt lat="52.42989441033743" lon="12.914388608471942"><ele>41.0</ele><time>2026-04-03T12:46:36.998Z</time></trkpt><trkpt lat="52.4299190789803" lon="12.914543126610859"><ele>41.0</ele><time>2026-04-03T12:46:38.998Z</time></trkpt><trkpt lat="52.42994956315272" lon="12.914691976010767"><ele>41.0</ele><time>2026-04-03T12:46:40.998Z</time></trkpt><trkpt lat="52.42999953174462" lon="12.91486216418556"><ele>41.0</ele><time>2026-04-03T12:46:42.998Z</time></trkpt><trkpt lat="52.43004408694603" lon="12.915025556328525"><ele>41.4</ele><time>2026-04-03T12:46:44.998Z</time></trkpt><trkpt lat="52.43006527808149" lon="12.915123545926049"><ele>41.8</ele><time>2026-04-03T12:46:45.998Z</time></trkpt><trkpt lat="52.4301087167811" lon="12.915290042690458"><ele>42.199999999999996</ele><time>2026-04-03T12:46:47.998Z</time></trkpt><trkpt lat="52.43014588549651" lon="12.91544441066072"><ele>42.599999999999994</ele><time>2026-04-03T12:46:49.998Z</time></trkpt><trkpt lat="52.43015015094731" lon="12.915580399839417"><ele>43.0</ele><time>2026-04-03T12:46:51.998Z</time></trkpt><trkpt lat="52.43011642979653" lon="12.91573155319178"><ele>43.0</ele><time>2026-04-03T12:46:53.998Z</time></trkpt><trkpt lat="52.4300336440055" lon="12.915874659577876"><ele>43.0</ele><time>2026-04-03T12:46:56Z</time></trkpt><trkpt lat="52.42998306975234" lon="12.915936793885333"><ele>43.0</ele><time>2026-04-03T12:46:57Z</time></trkpt><trkpt lat="52.42993090075807" lon="12.916001930077954"><ele>43.0</ele><time>2026-04-03T12:46:58Z</time></trkpt><trkpt lat="52.429833735788165" lon="12.91612911436321"><ele>43.0</ele><time>2026-04-03T12:47:00Z</time></trkpt><trkpt lat="52.4297450999132" lon="12.91624470104394"><ele>42.8</ele><time>2026-04-03T12:47:02Z</time></trkpt><trkpt lat="52.429671448231865" lon="12.916346696512827"><ele>42.599999999999994</ele><time>2026-04-03T12:47:04Z</time></trkpt><trkpt lat="52.429590516236935" lon="12.916442530982058"><ele>42.400000000000006</ele><time>2026-04-03T12:47:06Z</time></trkpt><trkpt lat="52.42952442026647" lon="12.916502106111219"><ele>42.2</ele><time>2026-04-03T12:47:08Z</time></trkpt><trkpt lat="52.42939988859468" lon="12.91670712659529"><ele>42.0</ele><time>2026-04-03T12:51:03.998Z</time></trkpt><trkpt lat="52.42936000587611" lon="12.916841278600318"><ele>42.0</ele><time>2026-04-03T12:51:05.998Z</time></trkpt><trkpt lat="52.42929494415644" lon="12.916860046768209"><ele>42.0</ele><time>2026-04-03T12:51:10Z</time></trkpt><trkpt lat="52.42927393417784" lon="12.91674578078768"><ele>42.0</ele><time>2026-04-03T12:51:14Z</time></trkpt><trkpt lat="52.429255141176014" lon="12.916555016671424"><ele>42.0</ele><time>2026-04-03T12:51:17Z</time></trkpt><trkpt lat="52.42921190194509" lon="12.916372513649256"><ele>42.0</ele><time>2026-04-03T12:51:19Z</time></trkpt><trkpt lat="52.42917712510559" lon="12.916251789068916"><ele>42.0</ele><time>2026-04-03T12:51:21Z</time></trkpt><trkpt lat="52.42912901966481" lon="12.916066345304541"><ele>42.0</ele><time>2026-04-03T12:51:23Z</time></trkpt><trkpt lat="52.42910768348619" lon="12.915967056278722"><ele>42.0</ele><time>2026-04-03T12:51:24Z</time></trkpt><trkpt lat="52.42906981433075" lon="12.91579601026432"><ele>42.0</ele><time>2026-04-03T12:51:26Z</time></trkpt><trkpt lat="52.42903068594652" lon="12.91562091371278"><ele>42.0</ele><time>2026-04-03T12:51:28Z</time></trkpt><trkpt lat="52.42898585050744" lon="12.915442699502876"><ele>41.8</ele><time>2026-04-03T12:51:30Z</time></trkpt><trkpt lat="52.428946443844794" lon="12.915250750822889"><ele>41.6</ele><time>2026-04-03T12:51:32Z</time></trkpt><trkpt lat="52.42892636475856" lon="12.915146302447436"><ele>41.4</ele><time>2026-04-03T12:51:33Z</time></trkpt><trkpt lat="52.42890225214717" lon="12.915039434302088"><ele>41.199999999999996</ele><time>2026-04-03T12:51:34Z</time></trkpt><trkpt lat="52.42885648828206" lon="12.914867931989429"><ele>41.0</ele><time>2026-04-03T12:51:36Z</time></trkpt><trkpt lat="52.428823908440386" lon="12.914719121485614"><ele>41.0</ele><time>2026-04-03T12:51:38Z</time></trkpt><trkpt lat="52.42879232276511" lon="12.914570743277613"><ele>41.0</ele><time>2026-04-03T12:51:40Z</time></trkpt><trkpt lat="52.428775538644096" lon="12.914468091092727"><ele>41.0</ele><time>2026-04-03T12:51:41Z</time></trkpt><trkpt lat="52.42873197799885" lon="12.9142714084619"><ele>41.0</ele><time>2026-04-03T12:51:43Z</time></trkpt><trkpt lat="52.42866909089666" lon="12.914125351588341"><ele>41.0</ele><time>2026-04-03T12:51:45Z</time></trkpt><trkpt lat="52.42862193088678" lon="12.914039785154035"><ele>41.0</ele><time>2026-04-03T12:51:47Z</time></trkpt><trkpt lat="52.428683382508474" lon="12.914014577585398"><ele>41.0</ele><time>2026-04-03T12:51:58.999Z</time></trkpt><trkpt lat="52.42870782463977" lon="12.914181311438254"><ele>41.0</ele><time>2026-04-03T12:52:01.999Z</time></trkpt><trkpt lat="52.428725703485945" lon="12.914336116976646"><ele>41.0</ele><time>2026-04-03T12:52:03.999Z</time></trkpt><trkpt lat="52.42876723332746" lon="12.914503694407202"><ele>41.0</ele><time>2026-04-03T12:52:05.999Z</time></trkpt><trkpt lat="52.4288128537817" lon="12.914680940410046"><ele>41.0</ele><time>2026-04-03T12:52:07.999Z</time></trkpt><trkpt lat="52.42883177407673" lon="12.914826873079598"><ele>41.0</ele><time>2026-04-03T12:52:09.999Z</time></trkpt><trkpt lat="52.42886012948153" lon="12.914981893421729"><ele>41.0</ele><time>2026-04-03T12:52:11.999Z</time></trkpt><trkpt lat="52.428903687609015" lon="12.915134507833477"><ele>41.0</ele><time>2026-04-03T12:52:13.999Z</time></trkpt><trkpt lat="52.42895008728812" lon="12.915313411997433"><ele>41.0</ele><time>2026-04-03T12:52:15.999Z</time></trkpt><trkpt lat="52.428992038492304" lon="12.91548781580978"><ele>41.0</ele><time>2026-04-03T12:52:17.999Z</time></trkpt><trkpt lat="52.42902440439165" lon="12.915668846130666"><ele>41.0</ele><time>2026-04-03T12:52:19.999Z</time></trkpt><trkpt lat="52.42906208533018" lon="12.915831825426348"><ele>41.0</ele><time>2026-04-03T12:52:21.999Z</time></trkpt><trkpt lat="52.42910224066699" lon="12.91598644745552"><ele>41.0</ele><time>2026-04-03T12:52:23.999Z</time></trkpt><trkpt lat="52.42911847216011" lon="12.916153375290616"><ele>41.0</ele><time>2026-04-03T12:52:25.999Z</time></trkpt><trkpt lat="52.42915538841507" lon="12.916243907714087"><ele>41.199999999999996</ele><time>2026-04-03T12:52:26.999Z</time></trkpt><trkpt lat="52.42919139962649" lon="12.916396228207388"><ele>41.4</ele><time>2026-04-03T12:52:28.999Z</time></trkpt><trkpt lat="52.429222610816396" lon="12.916560246729174"><ele>41.6</ele><time>2026-04-03T12:52:30.999Z</time></trkpt><trkpt lat="52.42926367515336" lon="12.916695507853575"><ele>41.8</ele><time>2026-04-03T12:52:32.999Z</time></trkpt><trkpt lat="52.42934745971234" lon="12.916785246072921"><ele>42.0</ele><time>2026-04-03T12:52:34.999Z</time></trkpt><trkpt lat="52.42945226627336" lon="12.916768843703014"><ele>42.0</ele><time>2026-04-03T12:52:36.999Z</time></trkpt><trkpt lat="52.42955398451983" lon="12.916669961281972"><ele>42.0</ele><time>2026-04-03T12:52:38.999Z</time></trkpt><trkpt lat="52.429647883813544" lon="12.916556346229896"><ele>42.0</ele><time>2026-04-03T12:52:40.999Z</time></trkpt><trkpt lat="52.42972622399159" lon="12.916415452728245"><ele>42.0</ele><time>2026-04-03T12:52:42.998Z</time></trkpt><trkpt lat="52.429786961028796" lon="12.91624276435669"><ele>42.2</ele><time>2026-04-03T12:52:44.998Z</time></trkpt><trkpt lat="52.42984043923329" lon="12.916108046919948"><ele>42.400000000000006</ele><time>2026-04-03T12:52:46.998Z</time></trkpt><trkpt lat="52.429932672158884" lon="12.91599328002524"><ele>42.599999999999994</ele><time>2026-04-03T12:52:48.998Z</time></trkpt><trkpt lat="52.430028265851256" lon="12.915878061675867"><ele>42.8</ele><time>2026-04-03T12:52:50.998Z</time></trkpt><trkpt lat="52.43010242744465" lon="12.91573808461408"><ele>43.0</ele><time>2026-04-03T12:52:52.998Z</time></trkpt><trkpt lat="52.43014817669171" lon="12.915587947147277"><ele>43.0</ele><time>2026-04-03T12:52:54.998Z</time></trkpt><trkpt lat="52.43013288802484" lon="12.915423124161709"><ele>43.0</ele><time>2026-04-03T12:52:56.998Z</time></trkpt><trkpt lat="52.43008223865937" lon="12.915243470161204"><ele>43.0</ele><time>2026-04-03T12:52:58.998Z</time></trkpt><trkpt lat="52.43003061287318" lon="12.91505473162857"><ele>43.0</ele><time>2026-04-03T12:53:00.998Z</time></trkpt><trkpt lat="52.42998064039058" lon="12.914912242223416"><ele>43.0</ele><time>2026-04-03T12:53:02.998Z</time></trkpt><trkpt lat="52.42994336806142" lon="12.914745855602296"><ele>42.66666666666667</ele><time>2026-04-03T12:53:04.998Z</time></trkpt><trkpt lat="52.429911168497156" lon="12.914594787481315"><ele>42.333333333333336</ele><time>2026-04-03T12:53:06.998Z</time></trkpt><trkpt lat="52.42989504433811" lon="12.91448518495112"><ele>42.0</ele><time>2026-04-03T12:53:08.998Z</time></trkpt><trkpt lat="52.42988322185044" lon="12.914342803201114"><ele>41.666666666666664</ele><time>2026-04-03T12:53:11.998Z</time></trkpt><trkpt lat="52.42984156350574" lon="12.914207879887424"><ele>41.33333333333333</ele><time>2026-04-03T12:53:15Z</time></trkpt><trkpt lat="52.42976077772695" lon="12.914192252592816"><ele>41.0</ele><time>2026-04-03T12:53:17Z</time></trkpt><trkpt lat="52.4296896548193" lon="12.914121093956476"><ele>41.0</ele><time>2026-04-03T12:53:19Z</time></trkpt><trkpt lat="52.429607690369224" lon="12.91408073365844"><ele>41.0</ele><time>2026-04-03T12:53:21Z</time></trkpt><trkpt lat="52.42952977647992" lon="12.914076984503309"><ele>41.0</ele><time>2026-04-03T12:53:23Z</time></trkpt><trkpt lat="52.42944343567933" lon="12.914143559509789"><ele>41.0</ele><time>2026-04-03T12:53:25Z</time></trkpt><trkpt lat="52.42935224124518" lon="12.91415886384962"><ele>41.0</ele><time>2026-04-03T12:53:27Z</time></trkpt><trkpt lat="52.429257235029795" lon="12.914176074598814"><ele>41.0</ele><time>2026-04-03T12:53:29Z</time></trkpt><trkpt lat="52.429159323971795" lon="12.914161312727483"><ele>41.0</ele><time>2026-04-03T12:53:31Z</time></trkpt><trkpt lat="52.4290694064069" lon="12.91411099249668"><ele>41.0</ele><time>2026-04-03T12:53:33Z</time></trkpt><trkpt lat="52.428970317842285" lon="12.91404594132493"><ele>41.0</ele><time>2026-04-03T12:53:35Z</time></trkpt><trkpt lat="52.42890399191116" lon="12.913933157962855"><ele>41.0</ele><time>2026-04-03T12:53:37Z</time></trkpt><trkpt lat="52.42883635167817" lon="12.913852318728035"><ele>41.0</ele><time>2026-04-03T12:53:39Z</time></trkpt><trkpt lat="52.428772118004844" lon="12.91372459116615"><ele>41.0</ele><time>2026-04-03T12:53:41Z</time></trkpt><trkpt lat="52.42868708232412" lon="12.913735898973412"><ele>41.0</ele><time>2026-04-03T12:53:43Z</time></trkpt><trkpt lat="52.42867076129145" lon="12.913868022610075"><ele>41.0</ele><time>2026-04-03T12:53:46Z</time></trkpt><trkpt lat="52.42871990803932" lon="12.914011702583656"><ele>41.0</ele><time>2026-04-03T12:53:48Z</time></trkpt><trkpt lat="52.42873148424042" lon="12.914166870005047"><ele>41.0</ele><time>2026-04-03T12:53:49.999Z</time></trkpt><trkpt lat="52.428742757651634" lon="12.914270700297376"><ele>41.0</ele><time>2026-04-03T12:53:50.999Z</time></trkpt><trkpt lat="52.42875971876055" lon="12.914447917104932"><ele>41.0</ele><time>2026-04-03T12:53:52.999Z</time></trkpt><trkpt lat="52.42877879586085" lon="12.914565003747388"><ele>41.0</ele><time>2026-04-03T12:53:54.999Z</time></trkpt><trkpt lat="52.428775433932145" lon="12.914668839014572"><ele>41.0</ele><time>2026-04-03T12:53:56.999Z</time></trkpt><trkpt lat="52.42883848248113" lon="12.91489688138527"><ele>41.0</ele><time>2026-04-03T12:55:51Z</time></trkpt><trkpt lat="52.428883371492056" lon="12.915032833047695"><ele>41.0</ele><time>2026-04-03T12:55:53Z</time></trkpt><trkpt lat="52.42893628914041" lon="12.915191874808393"><ele>41.0</ele><time>2026-04-03T12:55:55Z</time></trkpt><trkpt lat="52.42897227082311" lon="12.915373224174276"><ele>41.0</ele><time>2026-04-03T12:55:56.999Z</time></trkpt><trkpt lat="52.42899809208255" lon="12.915472593094826"><ele>41.0</ele><time>2026-04-03T12:55:57.999Z</time></trkpt><trkpt lat="52.42903906544376" lon="12.915665490402926"><ele>41.0</ele><time>2026-04-03T12:55:59.999Z</time></trkpt><trkpt lat="52.42907813727813" lon="12.915859649369642"><ele>41.0</ele><time>2026-04-03T12:56:01.999Z</time></trkpt><trkpt lat="52.429098899015194" lon="12.91596098853784"><ele>41.199999999999996</ele><time>2026-04-03T12:56:02.999Z</time></trkpt><trkpt lat="52.42913101931033" lon="12.916149179505647"><ele>41.4</ele><time>2026-04-03T12:56:04.999Z</time></trkpt><trkpt lat="52.429189240238664" lon="12.916314427340186"><ele>41.6</ele><time>2026-04-03T12:56:06.999Z</time></trkpt><trkpt lat="52.429253830441354" lon="12.916448777756614"><ele>41.8</ele><time>2026-04-03T12:56:08.999Z</time></trkpt><trkpt lat="52.429318347204834" lon="12.916537901709038"><ele>42.0</ele><time>2026-04-03T12:56:10.999Z</time></trkpt><trkpt lat="52.42941078434995" lon="12.916581681693774"><ele>42.0</ele><time>2026-04-03T12:56:12.999Z</time></trkpt><trkpt lat="52.429514525423194" lon="12.916635195561483"><ele>42.0</ele><time>2026-04-03T12:56:14.999Z</time></trkpt><trkpt lat="52.429579498443665" lon="12.916632052279187"><ele>42.0</ele><time>2026-04-03T12:56:15.999Z</time></trkpt><trkpt lat="52.42969486524188" lon="12.916614193607245"><ele>42.0</ele><time>2026-04-03T12:56:17.999Z</time></trkpt><trkpt lat="52.429802538346514" lon="12.916636443126382"><ele>42.0</ele><time>2026-04-03T12:56:19.999Z</time></trkpt><trkpt lat="52.42988079103637" lon="12.916704123965776"><ele>42.666666666666664</ele><time>2026-04-03T12:56:21.999Z</time></trkpt><trkpt lat="52.429928202453425" lon="12.916796664299238"><ele>43.333333333333336</ele><time>2026-04-03T12:56:23.999Z</time></trkpt><trkpt lat="52.430001326541735" lon="12.916784379111974"><ele>44.0</ele><time>2026-04-03T12:56:26.999Z</time></trkpt><trkpt lat="52.43009385337844" lon="12.916745866177406"><ele>44.66666666666667</ele><time>2026-04-03T12:56:29.999Z</time></trkpt><trkpt lat="52.43017748053116" lon="12.916725845872111"><ele>45.333333333333336</ele><time>2026-04-03T12:56:32.999Z</time></trkpt><trkpt lat="52.4302557662623" lon="12.916694480191861"><ele>46.0</ele><time>2026-04-03T12:56:34.999Z</time></trkpt><trkpt lat="52.43032712777053" lon="12.916634957124156"><ele>46.0</ele><time>2026-04-03T12:56:38.999Z</time></trkpt><trkpt lat="52.43039150104657" lon="12.916612491079187"><ele>46.0</ele><time>2026-04-03T12:56:41.999Z</time></trkpt><trkpt lat="52.43046238674695" lon="12.91656619439996"><ele>46.0</ele><time>2026-04-03T12:56:46.999Z</time></trkpt><trkpt lat="52.43049063872613" lon="12.916454485625449"><ele>46.0</ele><time>2026-04-03T12:56:50.999Z</time></trkpt><trkpt lat="52.43050587343906" lon="12.916341701130467"><ele>46.0</ele><time>2026-04-03T12:56:52.999Z</time></trkpt><trkpt lat="52.43051021799754" lon="12.916206043664737"><ele>46.0</ele><time>2026-04-03T12:56:54.998Z</time></trkpt><trkpt lat="52.43050467803615" lon="12.916067924903246"><ele>45.333333333333336</ele><time>2026-04-03T12:56:56.998Z</time></trkpt><trkpt lat="52.430518377687754" lon="12.915963237043107"><ele>44.66666666666667</ele><time>2026-04-03T12:56:58.998Z</time></trkpt><trkpt lat="52.43050305839872" lon="12.915846500587643"><ele>44.0</ele><time>2026-04-03T12:57:01.998Z</time></trkpt><trkpt lat="52.43051049455661" lon="12.915737695364944"><ele>43.333333333333336</ele><time>2026-04-03T12:57:03.998Z</time></trkpt><trkpt lat="52.43051300661589" lon="12.915563951276663"><ele>42.666666666666664</ele><time>2026-04-03T12:57:05.998Z</time></trkpt><trkpt lat="52.430513474823336" lon="12.915346521211854"><ele>42.0</ele><time>2026-04-03T12:57:07.998Z</time></trkpt><trkpt lat="52.43051600078109" lon="12.915232632059581"><ele>42.0</ele><time>2026-04-03T12:57:08.998Z</time></trkpt><trkpt lat="52.43051416047526" lon="12.915115645472401"><ele>42.0</ele><time>2026-04-03T12:57:09.998Z</time></trkpt><trkpt lat="52.43049792056797" lon="12.915000625838935"><ele>42.0</ele><time>2026-04-03T12:57:10.998Z</time></trkpt><trkpt lat="52.430475205499526" lon="12.91488538631516"><ele>42.0</ele><time>2026-04-03T12:57:11.998Z</time></trkpt><trkpt lat="52.43044598586277" lon="12.914774591691913"><ele>42.0</ele><time>2026-04-03T12:57:12.998Z</time></trkpt><trkpt lat="52.430425246178864" lon="12.914663685531272"><ele>42.0</ele><time>2026-04-03T12:57:13.998Z</time></trkpt><trkpt lat="52.430405971286206" lon="12.914557813393849"><ele>42.0</ele><time>2026-04-03T12:57:14.998Z</time></trkpt><trkpt lat="52.430385461007454" lon="12.914444466242633"><ele>41.833333333333336</ele><time>2026-04-03T12:57:15.998Z</time></trkpt><trkpt lat="52.43036328085226" lon="12.914329986526432"><ele>41.666666666666664</ele><time>2026-04-03T12:57:16.998Z</time></trkpt><trkpt lat="52.43034274409416" lon="12.914214070393601"><ele>41.5</ele><time>2026-04-03T12:57:17.998Z</time></trkpt><trkpt lat="52.430322621758584" lon="12.914107691352845"><ele>41.33333333333333</ele><time>2026-04-03T12:57:18.998Z</time></trkpt><trkpt lat="52.430307940325925" lon="12.914005269825875"><ele>41.166666666666664</ele><time>2026-04-03T12:57:19.998Z</time></trkpt><trkpt lat="52.43027573146832" lon="12.913806300908073"><ele>41.0</ele><time>2026-04-03T12:57:21.998Z</time></trkpt><trkpt lat="52.43025638657634" lon="12.91369432172546"><ele>40.857142857142854</ele><time>2026-04-03T12:57:22.998Z</time></trkpt><trkpt lat="52.43023562243482" lon="12.91357624868744"><ele>40.714285714285715</ele><time>2026-04-03T12:57:23.998Z</time></trkpt><trkpt lat="52.430213146208395" lon="12.913460964659794"><ele>40.57142857142857</ele><time>2026-04-03T12:57:25Z</time></trkpt><trkpt lat="52.43018940049869" lon="12.913345221963924"><ele>40.42857142857143</ele><time>2026-04-03T12:57:26Z</time></trkpt><trkpt lat="52.43016505504548" lon="12.913225204127855"><ele>40.285714285714285</ele><time>2026-04-03T12:57:27Z</time></trkpt><trkpt lat="52.43014226202965" lon="12.91310482385589"><ele>40.14285714285714</ele><time>2026-04-03T12:57:28Z</time></trkpt><trkpt lat="52.430118447511575" lon="12.912995538291925"><ele>40.0</ele><time>2026-04-03T12:57:29Z</time></trkpt><trkpt lat="52.43009800019169" lon="12.91288257625278"><ele>39.8</ele><time>2026-04-03T12:57:30Z</time></trkpt><trkpt lat="52.430076225902354" lon="12.912780216130955"><ele>39.6</ele><time>2026-04-03T12:57:31Z</time></trkpt><trkpt lat="52.4300393870894" lon="12.912596798895771"><ele>39.4</ele><time>2026-04-03T12:57:33Z</time></trkpt><trkpt lat="52.43000599618982" lon="12.912424136621535"><ele>39.2</ele><time>2026-04-03T12:57:35Z</time></trkpt><trkpt lat="52.42996618671004" lon="12.912242711800817"><ele>39.0</ele><time>2026-04-03T12:57:37Z</time></trkpt><trkpt lat="52.429930269468336" lon="12.912083170194858"><ele>39.0</ele><time>2026-04-03T12:57:39Z</time></trkpt><trkpt lat="52.429888267153295" lon="12.911909515227075"><ele>39.0</ele><time>2026-04-03T12:57:41Z</time></trkpt><trkpt lat="52.429860146127275" lon="12.91175547497541"><ele>39.0</ele><time>2026-04-03T12:57:43Z</time></trkpt><trkpt lat="52.429834871271076" lon="12.911603604208135"><ele>39.0</ele><time>2026-04-03T12:57:45Z</time></trkpt><trkpt lat="52.42980385100765" lon="12.911425864657613"><ele>39.0</ele><time>2026-04-03T12:57:47Z</time></trkpt><trkpt lat="52.429779435418936" lon="12.911268374634039"><ele>39.0</ele><time>2026-04-03T12:57:49Z</time></trkpt><trkpt lat="52.42975859521336" lon="12.911147778273055"><ele>39.0</ele><time>2026-04-03T12:57:51Z</time></trkpt><trkpt lat="52.42973381479997" lon="12.911048197038799"><ele>39.0</ele><time>2026-04-03T12:57:55Z</time></trkpt><trkpt lat="52.42969066505959" lon="12.910838957157667"><ele>39.0</ele><time>2026-04-03T12:57:57Z</time></trkpt><trkpt lat="52.42964816180152" lon="12.910650502709158"><ele>39.0</ele><time>2026-04-03T12:57:59Z</time></trkpt><trkpt lat="52.42962803342807" lon="12.910548447221256"><ele>39.0</ele><time>2026-04-03T12:58:00Z</time></trkpt><trkpt lat="52.429601546133924" lon="12.910446432306225"><ele>39.0</ele><time>2026-04-03T12:58:01Z</time></trkpt><trkpt lat="52.42957850967081" lon="12.910336812333927"><ele>39.0</ele><time>2026-04-03T12:58:02Z</time></trkpt><trkpt lat="52.42954993915189" lon="12.910224383355896"><ele>39.0</ele><time>2026-04-03T12:58:03Z</time></trkpt><trkpt lat="52.42952446566205" lon="12.910122808817306"><ele>39.0</ele><time>2026-04-03T12:58:03.999Z</time></trkpt><trkpt lat="52.4294947668014" lon="12.91002947968616"><ele>39.0</ele><time>2026-04-03T12:58:04.999Z</time></trkpt><trkpt lat="52.4294721198427" lon="12.90993078705761"><ele>39.0</ele><time>2026-04-03T12:58:05.999Z</time></trkpt><trkpt lat="52.429448687544784" lon="12.909821944247868"><ele>39.0</ele><time>2026-04-03T12:58:06.999Z</time></trkpt><trkpt lat="52.429421264017336" lon="12.909707973528961"><ele>39.0</ele><time>2026-04-03T12:58:07.999Z</time></trkpt><trkpt lat="52.42939078564042" lon="12.909605630613381"><ele>39.0</ele><time>2026-04-03T12:58:08.999Z</time></trkpt><trkpt lat="52.42934181464859" lon="12.909437296792497"><ele>39.0</ele><time>2026-04-03T12:58:10.999Z</time></trkpt><trkpt lat="52.42928224187186" lon="12.909269912736672"><ele>39.0</ele><time>2026-04-03T12:58:12.999Z</time></trkpt><trkpt lat="52.42924909848455" lon="12.909168655072763"><ele>39.0</ele><time>2026-04-03T12:58:13.999Z</time></trkpt><trkpt lat="52.42921448108049" lon="12.909059373613387"><ele>38.833333333333336</ele><time>2026-04-03T12:58:14.999Z</time></trkpt><trkpt lat="52.42918522272346" lon="12.908959204553016"><ele>38.666666666666664</ele><time>2026-04-03T12:58:15.999Z</time></trkpt><trkpt lat="52.42915938637125" lon="12.908862817346813"><ele>38.5</ele><time>2026-04-03T12:58:16.999Z</time></trkpt><trkpt lat="52.42911629692464" lon="12.908716713949273"><ele>38.33333333333333</ele><time>2026-04-03T12:58:18.999Z</time></trkpt><trkpt lat="52.429075655772785" lon="12.908570384885445"><ele>38.166666666666664</ele><time>2026-04-03T12:58:20.999Z</time></trkpt><trkpt lat="52.429048216367036" lon="12.908430152666256"><ele>38.0</ele><time>2026-04-03T12:58:22.999Z</time></trkpt><trkpt lat="52.42902621393271" lon="12.908294260345613"><ele>38.0</ele><time>2026-04-03T12:58:24.999Z</time></trkpt><trkpt lat="52.42901449051908" lon="12.908154114335197"><ele>38.0</ele><time>2026-04-03T12:58:26.999Z</time></trkpt><trkpt lat="52.42900176829747" lon="12.908005086890423"><ele>38.0</ele><time>2026-04-03T12:58:28.999Z</time></trkpt><trkpt lat="52.42900303046394" lon="12.907874280482478"><ele>38.0</ele><time>2026-04-03T12:58:30.999Z</time></trkpt><trkpt lat="52.429014809021645" lon="12.907763866435124"><ele>38.0</ele><time>2026-04-03T12:58:34.999Z</time></trkpt><trkpt lat="52.42909000012122" lon="12.907674798719494"><ele>38.0</ele><time>2026-04-03T12:58:36.999Z</time></trkpt><trkpt lat="52.42917021350457" lon="12.90767723087706"><ele>38.0</ele><time>2026-04-03T12:58:37.999Z</time></trkpt><trkpt lat="52.42924574274696" lon="12.907675543125078"><ele>38.0</ele><time>2026-04-03T12:58:38.999Z</time></trkpt><trkpt lat="52.42933142183273" lon="12.90765606458197"><ele>38.0</ele><time>2026-04-03T12:58:39.999Z</time></trkpt><trkpt lat="52.42941569470855" lon="12.907641477736716"><ele>38.0</ele><time>2026-04-03T12:58:40.999Z</time></trkpt><trkpt lat="52.42950323983719" lon="12.907628730207795"><ele>38.0</ele><time>2026-04-03T12:58:41.999Z</time></trkpt><trkpt lat="52.429591931102" lon="12.90761987094461"><ele>38.0</ele><time>2026-04-03T12:58:42.999Z</time></trkpt><trkpt lat="52.42967672358224" lon="12.907609580136306"><ele>38.166666666666664</ele><time>2026-04-03T12:58:43.999Z</time></trkpt><trkpt lat="52.42976007598764" lon="12.90759588906048"><ele>38.33333333333333</ele><time>2026-04-03T12:58:44.999Z</time></trkpt><trkpt lat="52.42984860525354" lon="12.907581260582221"><ele>38.5</ele><time>2026-04-03T12:58:45.999Z</time></trkpt><trkpt lat="52.429933876182716" lon="12.907567546805844"><ele>38.666666666666664</ele><time>2026-04-03T12:58:46.999Z</time></trkpt><trkpt lat="52.4300198328613" lon="12.907553507279328"><ele>38.833333333333336</ele><time>2026-04-03T12:58:47.999Z</time></trkpt><trkpt lat="52.43010471908193" lon="12.907541527929512"><ele>39.0</ele><time>2026-04-03T12:58:48.999Z</time></trkpt><trkpt lat="52.430183508924664" lon="12.907525270027671"><ele>39.0</ele><time>2026-04-03T12:58:49.999Z</time></trkpt><trkpt lat="52.43026564761172" lon="12.907511389094847"><ele>39.0</ele><time>2026-04-03T12:58:50.999Z</time></trkpt><trkpt lat="52.43034988026953" lon="12.907497965905788"><ele>39.0</ele><time>2026-04-03T12:58:51.999Z</time></trkpt><trkpt lat="52.43043087331709" lon="12.907481519857987"><ele>39.0</ele><time>2026-04-03T12:58:52.999Z</time></trkpt><trkpt lat="52.430515305283194" lon="12.907453369586875"><ele>39.0</ele><time>2026-04-03T12:58:53.999Z</time></trkpt><trkpt lat="52.43059429426563" lon="12.907423929635112"><ele>39.0</ele><time>2026-04-03T12:58:54.999Z</time></trkpt><trkpt lat="52.430670580806655" lon="12.907396488472784"><ele>39.0</ele><time>2026-04-03T12:58:55.999Z</time></trkpt><trkpt lat="52.43075137965827" lon="12.907364578467163"><ele>39.0</ele><time>2026-04-03T12:58:56.999Z</time></trkpt><trkpt lat="52.43082878365973" lon="12.907332306530087"><ele>39.0</ele><time>2026-04-03T12:58:57.999Z</time></trkpt><trkpt lat="52.4309061423817" lon="12.907305469761397"><ele>39.0</ele><time>2026-04-03T12:58:58.999Z</time></trkpt><trkpt lat="52.43098327975236" lon="12.9072821094253"><ele>39.0</ele><time>2026-04-03T12:58:59.999Z</time></trkpt><trkpt lat="52.43105969742819" lon="12.90725136729634"><ele>39.0</ele><time>2026-04-03T12:59:00.998Z</time></trkpt><trkpt lat="52.43112421724984" lon="12.907229350016388"><ele>39.0</ele><time>2026-04-03T12:59:01.998Z</time></trkpt><trkpt lat="52.431190830994396" lon="12.907204056295045"><ele>39.0</ele><time>2026-04-03T12:59:02.998Z</time></trkpt><trkpt lat="52.43126219004664" lon="12.907179607494841"><ele>39.0</ele><time>2026-04-03T12:59:03.998Z</time></trkpt><trkpt lat="52.43133481390862" lon="12.907154780845026"><ele>39.0</ele><time>2026-04-03T12:59:04.998Z</time></trkpt><trkpt lat="52.43140855155997" lon="12.90711154840941"><ele>39.0</ele><time>2026-04-03T12:59:05.998Z</time></trkpt><trkpt lat="52.43148860858634" lon="12.907057434805644"><ele>39.0</ele><time>2026-04-03T12:59:06.998Z</time></trkpt><trkpt lat="52.4315658363366" lon="12.907006568956149"><ele>38.833333333333336</ele><time>2026-04-03T12:59:07.998Z</time></trkpt><trkpt lat="52.431627248672584" lon="12.906963539463412"><ele>38.666666666666664</ele><time>2026-04-03T12:59:08.998Z</time></trkpt><trkpt lat="52.43168909125444" lon="12.906925176998337"><ele>38.5</ele><time>2026-04-03T12:59:09.998Z</time></trkpt><trkpt lat="52.431763046121404" lon="12.906876804724671"><ele>38.33333333333333</ele><time>2026-04-03T12:59:10.998Z</time></trkpt><trkpt lat="52.43185081968184" lon="12.90682180588793"><ele>38.166666666666664</ele><time>2026-04-03T12:59:11.998Z</time></trkpt><trkpt lat="52.43194186835755" lon="12.906770422294986"><ele>38.0</ele><time>2026-04-03T12:59:12.998Z</time></trkpt><trkpt lat="52.43202670408487" lon="12.906721308951083"><ele>37.5</ele><time>2026-04-03T12:59:13.998Z</time></trkpt><trkpt lat="52.43211047601069" lon="12.906678227399022"><ele>37.0</ele><time>2026-04-03T12:59:14.998Z</time></trkpt><trkpt lat="52.4321905635298" lon="12.906637448415141"><ele>36.5</ele><time>2026-04-03T12:59:15.998Z</time></trkpt><trkpt lat="52.43227378734802" lon="12.906588870161915"><ele>36.0</ele><time>2026-04-03T12:59:16.998Z</time></trkpt><trkpt lat="52.43236146104615" lon="12.906541023536665"><ele>35.5</ele><time>2026-04-03T12:59:17.998Z</time></trkpt><trkpt lat="52.43244682107522" lon="12.906496566194232"><ele>35.0</ele><time>2026-04-03T12:59:18.998Z</time></trkpt><trkpt lat="52.432529144730616" lon="12.906458473008264"><ele>35.0</ele><time>2026-04-03T12:59:19.998Z</time></trkpt><trkpt lat="52.43261701191906" lon="12.906419386455374"><ele>35.0</ele><time>2026-04-03T12:59:20.998Z</time></trkpt><trkpt lat="52.432702639071294" lon="12.906389989459909"><ele>35.0</ele><time>2026-04-03T12:59:21.998Z</time></trkpt><trkpt lat="52.43278908586259" lon="12.906357029841788"><ele>35.0</ele><time>2026-04-03T12:59:22.998Z</time></trkpt><trkpt lat="52.432875980423425" lon="12.906318202653168"><ele>35.0</ele><time>2026-04-03T12:59:23.998Z</time></trkpt><trkpt lat="52.432963132046915" lon="12.906284089666894"><ele>35.0</ele><time>2026-04-03T12:59:24.998Z</time></trkpt><trkpt lat="52.43305099266674" lon="12.906244642233647"><ele>35.33333333333333</ele><time>2026-04-03T12:59:25.998Z</time></trkpt><trkpt lat="52.43313537466828" lon="12.906204503705409"><ele>35.666666666666664</ele><time>2026-04-03T12:59:26.998Z</time></trkpt><trkpt lat="52.43321728507982" lon="12.90616795921966"><ele>36.0</ele><time>2026-04-03T12:59:27.998Z</time></trkpt><trkpt lat="52.43330188530964" lon="12.906124378092205"><ele>36.333333333333336</ele><time>2026-04-03T12:59:28.998Z</time></trkpt><trkpt lat="52.43338926586234" lon="12.906084647796417"><ele>36.66666666666667</ele><time>2026-04-03T12:59:29.998Z</time></trkpt><trkpt lat="52.43346783569653" lon="12.906051637290094"><ele>37.0</ele><time>2026-04-03T12:59:31Z</time></trkpt><trkpt lat="52.433540782802716" lon="12.906017877398083"><ele>37.0</ele><time>2026-04-03T12:59:32Z</time></trkpt><trkpt lat="52.433619305525625" lon="12.90597858422797"><ele>37.0</ele><time>2026-04-03T12:59:33Z</time></trkpt><trkpt lat="52.433688397363866" lon="12.905950903939907"><ele>37.0</ele><time>2026-04-03T12:59:34Z</time></trkpt><trkpt lat="52.433757344369546" lon="12.905907250918592"><ele>37.0</ele><time>2026-04-03T12:59:35Z</time></trkpt><trkpt lat="52.433831017672794" lon="12.905869928687187"><ele>37.0</ele><time>2026-04-03T12:59:36Z</time></trkpt><trkpt lat="52.43390915484558" lon="12.905829723730575"><ele>37.0</ele><time>2026-04-03T12:59:37Z</time></trkpt><trkpt lat="52.433982714704605" lon="12.905776444614556"><ele>36.833333333333336</ele><time>2026-04-03T12:59:38Z</time></trkpt><trkpt lat="52.4340516261707" lon="12.905715174756573"><ele>36.66666666666667</ele><time>2026-04-03T12:59:39Z</time></trkpt><trkpt lat="52.43412205097954" lon="12.905648471347792"><ele>36.5</ele><time>2026-04-03T12:59:40Z</time></trkpt><trkpt lat="52.434189619380795" lon="12.905583067310857"><ele>36.333333333333336</ele><time>2026-04-03T12:59:41Z</time></trkpt><trkpt lat="52.43425878717143" lon="12.905506135770626"><ele>36.166666666666664</ele><time>2026-04-03T12:59:42Z</time></trkpt><trkpt lat="52.434329843271485" lon="12.905440806004945"><ele>36.0</ele><time>2026-04-03T12:59:43Z</time></trkpt><trkpt lat="52.434394846657995" lon="12.905382920264504"><ele>36.0</ele><time>2026-04-03T12:59:44Z</time></trkpt><trkpt lat="52.434449774887675" lon="12.905325758658766"><ele>36.0</ele><time>2026-04-03T12:59:45Z</time></trkpt><trkpt lat="52.4345374838458" lon="12.905237293261655"><ele>36.0</ele><time>2026-04-03T12:59:47Z</time></trkpt><trkpt lat="52.43460196328413" lon="12.905132112063036"><ele>36.0</ele><time>2026-04-03T12:59:49Z</time></trkpt><trkpt lat="52.43466548273835" lon="12.905065477696496"><ele>36.0</ele><time>2026-04-03T12:59:51Z</time></trkpt><trkpt lat="52.43474935967894" lon="12.904966070200842"><ele>36.0</ele><time>2026-04-03T12:59:53Z</time></trkpt><trkpt lat="52.43480553788276" lon="12.904897027876316"><ele>35.4</ele><time>2026-04-03T12:59:54Z</time></trkpt><trkpt lat="52.43488128461292" lon="12.904808534071835"><ele>34.8</ele><time>2026-04-03T12:59:55Z</time></trkpt><trkpt lat="52.4349621229637" lon="12.904698385434367"><ele>34.199999999999996</ele><time>2026-04-03T12:59:56Z</time></trkpt><trkpt lat="52.43503623871917" lon="12.90460900025731"><ele>33.6</ele><time>2026-04-03T12:59:57Z</time></trkpt><trkpt lat="52.43512337262932" lon="12.904516528739663"><ele>33.0</ele><time>2026-04-03T12:59:58Z</time></trkpt><trkpt lat="52.43520755573531" lon="12.904424461981467"><ele>33.0</ele><time>2026-04-03T12:59:59Z</time></trkpt><trkpt lat="52.435283969720814" lon="12.904323814902789"><ele>33.0</ele><time>2026-04-03T13:00:00Z</time></trkpt><trkpt lat="52.43536214418944" lon="12.904230113537063"><ele>33.0</ele><time>2026-04-03T13:00:01Z</time></trkpt><trkpt lat="52.43544571157531" lon="12.90414237963647"><ele>33.0</ele><time>2026-04-03T13:00:02Z</time></trkpt><trkpt lat="52.43552571522201" lon="12.904055446963188"><ele>33.0</ele><time>2026-04-03T13:00:03Z</time></trkpt><trkpt lat="52.43560485131056" lon="12.903958375390955"><ele>33.0</ele><time>2026-04-03T13:00:04Z</time></trkpt><trkpt lat="52.435681490391126" lon="12.903859807119611"><ele>33.0</ele><time>2026-04-03T13:00:05Z</time></trkpt><trkpt lat="52.435749081742195" lon="12.903776863403788"><ele>33.0</ele><time>2026-04-03T13:00:06Z</time></trkpt><trkpt lat="52.435807104097265" lon="12.903708670186205"><ele>33.0</ele><time>2026-04-03T13:00:07Z</time></trkpt><trkpt lat="52.43586192313352" lon="12.903630194561964"><ele>33.0</ele><time>2026-04-03T13:00:08Z</time></trkpt><trkpt lat="52.43592813805322" lon="12.90354629053309"><ele>33.0</ele><time>2026-04-03T13:00:09Z</time></trkpt><trkpt lat="52.43601093969542" lon="12.903463206164218"><ele>33.4</ele><time>2026-04-03T13:00:10Z</time></trkpt><trkpt lat="52.43609316244674" lon="12.903365366391153"><ele>33.8</ele><time>2026-04-03T13:00:11Z</time></trkpt><trkpt lat="52.436173772104844" lon="12.90327379958617"><ele>34.2</ele><time>2026-04-03T13:00:12Z</time></trkpt><trkpt lat="52.436255371558" lon="12.903184201757442"><ele>34.6</ele><time>2026-04-03T13:00:12.999Z</time></trkpt><trkpt lat="52.4363366431035" lon="12.903088915918694"><ele>35.0</ele><time>2026-04-03T13:00:13.999Z</time></trkpt><trkpt lat="52.436415728333564" lon="12.90299796658813"><ele>34.166666666666664</ele><time>2026-04-03T13:00:14.999Z</time></trkpt><trkpt lat="52.43649591856749" lon="12.902909520531098"><ele>33.33333333333333</ele><time>2026-04-03T13:00:15.999Z</time></trkpt><trkpt lat="52.4365734087176" lon="12.902820334436777"><ele>32.5</ele><time>2026-04-03T13:00:16.999Z</time></trkpt><trkpt lat="52.436649390155154" lon="12.902754985997037"><ele>31.666666666666664</ele><time>2026-04-03T13:00:17.999Z</time></trkpt><trkpt lat="52.43671229769093" lon="12.902701615106443"><ele>30.833333333333332</ele><time>2026-04-03T13:00:18.999Z</time></trkpt><trkpt lat="52.43677101704379" lon="12.902654068600176"><ele>30.0</ele><time>2026-04-03T13:00:19.999Z</time></trkpt><trkpt lat="52.436872865494735" lon="12.902576949761366"><ele>30.0</ele><time>2026-04-03T13:00:21.999Z</time></trkpt><trkpt lat="52.43696646371836" lon="12.902515730090876"><ele>30.0</ele><time>2026-04-03T13:00:23.999Z</time></trkpt><trkpt lat="52.437029203958865" lon="12.902427256958532"><ele>30.0</ele><time>2026-04-03T13:00:26.999Z</time></trkpt><trkpt lat="52.43698887945751" lon="12.902226684079686"><ele>30.0</ele><time>2026-04-03T13:00:28.999Z</time></trkpt><trkpt lat="52.436946410673556" lon="12.902100427761123"><ele>30.0</ele><time>2026-04-03T13:00:29.999Z</time></trkpt><trkpt lat="52.436897787665266" lon="12.901965571438001"><ele>30.0</ele><time>2026-04-03T13:00:30.999Z</time></trkpt><trkpt lat="52.43685124964087" lon="12.901833210298806"><ele>30.0</ele><time>2026-04-03T13:00:31.999Z</time></trkpt><trkpt lat="52.43681066739358" lon="12.901690259049902"><ele>30.0</ele><time>2026-04-03T13:00:32.999Z</time></trkpt><trkpt lat="52.436768952413246" lon="12.901548401310192"><ele>30.0</ele><time>2026-04-03T13:00:33.999Z</time></trkpt><trkpt lat="52.43672471870007" lon="12.901415342161087"><ele>30.0</ele><time>2026-04-03T13:00:34.999Z</time></trkpt><trkpt lat="52.43667721775019" lon="12.901261240056755"><ele>30.0</ele><time>2026-04-03T13:00:35.999Z</time></trkpt><trkpt lat="52.43662871762743" lon="12.901097698835983"><ele>30.0</ele><time>2026-04-03T13:00:36.999Z</time></trkpt><trkpt lat="52.43657970962508" lon="12.90094902178269"><ele>30.0</ele><time>2026-04-03T13:00:37.999Z</time></trkpt><trkpt lat="52.436535643757175" lon="12.90080814471713"><ele>30.0</ele><time>2026-04-03T13:00:38.999Z</time></trkpt><trkpt lat="52.436496376534336" lon="12.900662312426935"><ele>30.0</ele><time>2026-04-03T13:00:39.999Z</time></trkpt><trkpt lat="52.43644745383847" lon="12.900517646217766"><ele>30.0</ele><time>2026-04-03T13:00:40.999Z</time></trkpt><trkpt lat="52.43640346537458" lon="12.900388601690375"><ele>30.0</ele><time>2026-04-03T13:00:41.999Z</time></trkpt><trkpt lat="52.43636187739154" lon="12.900282707804186"><ele>30.0</ele><time>2026-04-03T13:00:42.999Z</time></trkpt><trkpt lat="52.43630927028245" lon="12.900180162947029"><ele>30.0</ele><time>2026-04-03T13:00:43.999Z</time></trkpt><trkpt lat="52.43624176583695" lon="12.900094328707027"><ele>30.0</ele><time>2026-04-03T13:00:44.999Z</time></trkpt><trkpt lat="52.43615888605373" lon="12.900002521142262"><ele>30.0</ele><time>2026-04-03T13:00:45.999Z</time></trkpt><trkpt lat="52.43606444131541" lon="12.899919738459669"><ele>30.4</ele><time>2026-04-03T13:00:46.999Z</time></trkpt><trkpt lat="52.43595982605113" lon="12.899821030727205"><ele>30.8</ele><time>2026-04-03T13:00:47.999Z</time></trkpt><trkpt lat="52.43585442521542" lon="12.899728881317897"><ele>31.200000000000003</ele><time>2026-04-03T13:00:48.999Z</time></trkpt><trkpt lat="52.43576417189075" lon="12.899635580900757"><ele>31.6</ele><time>2026-04-03T13:00:49.999Z</time></trkpt><trkpt lat="52.43567767957085" lon="12.899547899594744"><ele>32.0</ele><time>2026-04-03T13:00:50.999Z</time></trkpt><trkpt lat="52.43560073690315" lon="12.899462239384546"><ele>32.0</ele><time>2026-04-03T13:00:51.999Z</time></trkpt><trkpt lat="52.43552230344988" lon="12.899386325435072"><ele>32.0</ele><time>2026-04-03T13:00:52.999Z</time></trkpt><trkpt lat="52.435429796981325" lon="12.899300567616303"><ele>32.0</ele><time>2026-04-03T13:00:53.999Z</time></trkpt><trkpt lat="52.43533705966562" lon="12.899217930991059"><ele>32.0</ele><time>2026-04-03T13:00:54.999Z</time></trkpt><trkpt lat="52.435253020895125" lon="12.89913866411672"><ele>32.0</ele><time>2026-04-03T13:00:55.999Z</time></trkpt><trkpt lat="52.435169341257314" lon="12.899056092897377"><ele>32.0</ele><time>2026-04-03T13:00:56.999Z</time></trkpt><trkpt lat="52.43507851857451" lon="12.89898375325812"><ele>32.0</ele><time>2026-04-03T13:00:57.999Z</time></trkpt><trkpt lat="52.43498965796566" lon="12.89891342900688"><ele>32.0</ele><time>2026-04-03T13:00:58.999Z</time></trkpt><trkpt lat="52.434897184920814" lon="12.898836116985978"><ele>32.0</ele><time>2026-04-03T13:00:59.999Z</time></trkpt><trkpt lat="52.434816753043904" lon="12.898747057260913"><ele>32.0</ele><time>2026-04-03T13:01:00.999Z</time></trkpt><trkpt lat="52.434735641130295" lon="12.898655223705054"><ele>32.0</ele><time>2026-04-03T13:01:01.999Z</time></trkpt><trkpt lat="52.43464658343438" lon="12.89856495317421"><ele>32.0</ele><time>2026-04-03T13:01:02.999Z</time></trkpt><trkpt lat="52.43455956602531" lon="12.898486564178608"><ele>32.0</ele><time>2026-04-03T13:01:03.999Z</time></trkpt><trkpt lat="52.43446865337025" lon="12.898411227848461"><ele>32.0</ele><time>2026-04-03T13:01:04.999Z</time></trkpt><trkpt lat="52.43437707325552" lon="12.89833952628547"><ele>32.0</ele><time>2026-04-03T13:01:05.999Z</time></trkpt><trkpt lat="52.43429299165579" lon="12.898258409692545"><ele>32.2</ele><time>2026-04-03T13:01:06.999Z</time></trkpt><trkpt lat="52.43421337105658" lon="12.898176325648146"><ele>32.400000000000006</ele><time>2026-04-03T13:01:07.999Z</time></trkpt><trkpt lat="52.4341282199455" lon="12.89808688365061"><ele>32.599999999999994</ele><time>2026-04-03T13:01:08.999Z</time></trkpt><trkpt lat="52.434055208097476" lon="12.898051291854408"><ele>32.8</ele><time>2026-04-03T13:01:09.999Z</time></trkpt><trkpt lat="52.433964049567194" lon="12.897960968904718"><ele>33.0</ele><time>2026-04-03T13:01:10.999Z</time></trkpt><trkpt lat="52.43388123763578" lon="12.897867833790553"><ele>33.0</ele><time>2026-04-03T13:01:11.999Z</time></trkpt><trkpt lat="52.43381445842936" lon="12.89780041098133"><ele>33.0</ele><time>2026-04-03T13:01:12.998Z</time></trkpt><trkpt lat="52.43374204687504" lon="12.897733728729598"><ele>33.0</ele><time>2026-04-03T13:01:13.998Z</time></trkpt><trkpt lat="52.43366176498432" lon="12.897649242396596"><ele>33.0</ele><time>2026-04-03T13:01:14.998Z</time></trkpt><trkpt lat="52.43357448654914" lon="12.89757469118435"><ele>33.0</ele><time>2026-04-03T13:01:15.998Z</time></trkpt><trkpt lat="52.43349962342795" lon="12.897501765145003"><ele>33.0</ele><time>2026-04-03T13:01:16.998Z</time></trkpt><trkpt lat="52.433432688648885" lon="12.89743931526025"><ele>33.0</ele><time>2026-04-03T13:01:17.998Z</time></trkpt><trkpt lat="52.433366040082184" lon="12.897380884721665"><ele>33.0</ele><time>2026-04-03T13:01:18.998Z</time></trkpt><trkpt lat="52.43329234630693" lon="12.897314261206635"><ele>33.0</ele><time>2026-04-03T13:01:19.998Z</time></trkpt><trkpt lat="52.43323692052239" lon="12.89724769097792"><ele>33.0</ele><time>2026-04-03T13:01:20.998Z</time></trkpt><trkpt lat="52.43318795994324" lon="12.89714828761844"><ele>33.0</ele><time>2026-04-03T13:01:21.998Z</time></trkpt><trkpt lat="52.43314544087796" lon="12.897015209657862"><ele>33.0</ele><time>2026-04-03T13:01:22.998Z</time></trkpt><trkpt lat="52.43311306121573" lon="12.896856701288588"><ele>32.8</ele><time>2026-04-03T13:01:23.998Z</time></trkpt><trkpt lat="52.43308587998515" lon="12.896685297669531"><ele>32.599999999999994</ele><time>2026-04-03T13:01:24.998Z</time></trkpt><trkpt lat="52.433050330831925" lon="12.896513446825756"><ele>32.400000000000006</ele><time>2026-04-03T13:01:25.998Z</time></trkpt><trkpt lat="52.43301611424853" lon="12.896342338843786"><ele>32.2</ele><time>2026-04-03T13:01:26.998Z</time></trkpt><trkpt lat="52.432982966024845" lon="12.896181072802388"><ele>32.0</ele><time>2026-04-03T13:01:27.998Z</time></trkpt><trkpt lat="52.43295142348868" lon="12.896021626056282"><ele>31.8</ele><time>2026-04-03T13:01:28.998Z</time></trkpt><trkpt lat="52.432911758419365" lon="12.89587218496269"><ele>31.6</ele><time>2026-04-03T13:01:29.998Z</time></trkpt><trkpt lat="52.43288322858068" lon="12.895715775093372"><ele>31.400000000000002</ele><time>2026-04-03T13:01:30.998Z</time></trkpt><trkpt lat="52.43284539967938" lon="12.895561317616663"><ele>31.200000000000003</ele><time>2026-04-03T13:01:31.998Z</time></trkpt><trkpt lat="52.43281687416428" lon="12.895391149367265"><ele>31.0</ele><time>2026-04-03T13:01:32.998Z</time></trkpt><trkpt lat="52.432788332062856" lon="12.895240463791929"><ele>30.8</ele><time>2026-04-03T13:01:33.998Z</time></trkpt><trkpt lat="52.43276482111572" lon="12.895080366380258"><ele>30.6</ele><time>2026-04-03T13:01:34.998Z</time></trkpt><trkpt lat="52.432732809187264" lon="12.894943425273732"><ele>30.4</ele><time>2026-04-03T13:01:35.998Z</time></trkpt><trkpt lat="52.4327044013208" lon="12.89479645912721"><ele>30.2</ele><time>2026-04-03T13:01:37Z</time></trkpt><trkpt lat="52.432671510084894" lon="12.894649997872254"><ele>30.0</ele><time>2026-04-03T13:01:38Z</time></trkpt><trkpt lat="52.43263944680122" lon="12.894495505775424"><ele>30.0</ele><time>2026-04-03T13:01:39Z</time></trkpt><trkpt lat="52.43260953825776" lon="12.894337528267933"><ele>30.0</ele><time>2026-04-03T13:01:40Z</time></trkpt><trkpt lat="52.432575009164594" lon="12.894185622030886"><ele>30.0</ele><time>2026-04-03T13:01:41Z</time></trkpt><trkpt lat="52.43254238490024" lon="12.894036416059345"><ele>30.0</ele><time>2026-04-03T13:01:42Z</time></trkpt><trkpt lat="52.432508285358" lon="12.89388165006557"><ele>30.0</ele><time>2026-04-03T13:01:43Z</time></trkpt><trkpt lat="52.43248777221395" lon="12.893736308401076"><ele>30.0</ele><time>2026-04-03T13:01:44Z</time></trkpt><trkpt lat="52.43245647299642" lon="12.893574860610487"><ele>30.0</ele><time>2026-04-03T13:01:45Z</time></trkpt><trkpt lat="52.432419367909134" lon="12.893418158119877"><ele>30.0</ele><time>2026-04-03T13:01:46Z</time></trkpt><trkpt lat="52.43238389177913" lon="12.893262146410075"><ele>30.0</ele><time>2026-04-03T13:01:47Z</time></trkpt><trkpt lat="52.432352669055796" lon="12.893100554698247"><ele>30.0</ele><time>2026-04-03T13:01:48Z</time></trkpt><trkpt lat="52.43232754180094" lon="12.892961358464413"><ele>30.0</ele><time>2026-04-03T13:01:49Z</time></trkpt><trkpt lat="52.43229614670984" lon="12.892795159855453"><ele>30.0</ele><time>2026-04-03T13:01:50Z</time></trkpt><trkpt lat="52.432265237042685" lon="12.892638501740437"><ele>30.0</ele><time>2026-04-03T13:01:51Z</time></trkpt><trkpt lat="52.432234014294636" lon="12.892489636688733"><ele>30.0</ele><time>2026-04-03T13:01:52Z</time></trkpt><trkpt lat="52.43220850116498" lon="12.892326324001132"><ele>30.0</ele><time>2026-04-03T13:01:53Z</time></trkpt><trkpt lat="52.432173688143905" lon="12.89216237310645"><ele>29.8</ele><time>2026-04-03T13:01:54Z</time></trkpt><trkpt lat="52.432140294162814" lon="12.891996593686686"><ele>29.6</ele><time>2026-04-03T13:01:55Z</time></trkpt><trkpt lat="52.43210613319482" lon="12.891840391889998"><ele>29.4</ele><time>2026-04-03T13:01:56Z</time></trkpt><trkpt lat="52.432070843678545" lon="12.89167518022318"><ele>29.2</ele><time>2026-04-03T13:01:57Z</time></trkpt><trkpt lat="52.43203670300438" lon="12.891505816578789"><ele>29.0</ele><time>2026-04-03T13:01:58Z</time></trkpt><trkpt lat="52.432004119615186" lon="12.891325558955474"><ele>29.0</ele><time>2026-04-03T13:01:59Z</time></trkpt><trkpt lat="52.431962447858346" lon="12.891147517196623"><ele>29.0</ele><time>2026-04-03T13:02:00Z</time></trkpt><trkpt lat="52.431916370054914" lon="12.890976735603735"><ele>29.0</ele><time>2026-04-03T13:02:01Z</time></trkpt><trkpt lat="52.43187538342423" lon="12.890800833501197"><ele>29.0</ele><time>2026-04-03T13:02:02Z</time></trkpt><trkpt lat="52.4318334940346" lon="12.890631116417223"><ele>29.4</ele><time>2026-04-03T13:02:03Z</time></trkpt><trkpt lat="52.43179820583119" lon="12.890466902718956"><ele>29.799999999999997</ele><time>2026-04-03T13:02:04Z</time></trkpt><trkpt lat="52.431763118697184" lon="12.89030764828194"><ele>30.200000000000003</ele><time>2026-04-03T13:02:05Z</time></trkpt><trkpt lat="52.43172862674089" lon="12.89014807201326"><ele>30.6</ele><time>2026-04-03T13:02:06Z</time></trkpt><trkpt lat="52.43169188136028" lon="12.890002594827104"><ele>31.0</ele><time>2026-04-03T13:02:07Z</time></trkpt><trkpt lat="52.431664959173496" lon="12.889883983226138"><ele>31.000000000000004</ele><time>2026-04-03T13:02:08Z</time></trkpt><trkpt lat="52.43164432461333" lon="12.889765508434378"><ele>31.0</ele><time>2026-04-03T13:02:09Z</time></trkpt><trkpt lat="52.43162499392415" lon="12.88966607244104"><ele>31.0</ele><time>2026-04-03T13:02:10Z</time></trkpt><trkpt lat="52.43161751725022" lon="12.889452781362142"><ele>31.0</ele><time>2026-04-03T13:02:12Z</time></trkpt><trkpt lat="52.43163552209929" lon="12.889345523303504"><ele>31.000000000000004</ele><time>2026-04-03T13:02:13Z</time></trkpt><trkpt lat="52.43167259478537" lon="12.889220359058882"><ele>31.0</ele><time>2026-04-03T13:02:14Z</time></trkpt><trkpt lat="52.43171656320828" lon="12.889119390317784"><ele>31.0</ele><time>2026-04-03T13:02:15Z</time></trkpt><trkpt lat="52.43175785190551" lon="12.889027978755577"><ele>31.000000000000004</ele><time>2026-04-03T13:02:16Z</time></trkpt><trkpt lat="52.43180866237755" lon="12.888896804303346"><ele>31.0</ele><time>2026-04-03T13:02:17.999Z</time></trkpt><trkpt lat="52.431845781776374" lon="12.888801062572924"><ele>31.0</ele><time>2026-04-03T13:02:19.999Z</time></trkpt><trkpt lat="52.43188139154293" lon="12.888696651775836"><ele>31.000000000000004</ele><time>2026-04-03T13:02:23.999Z</time></trkpt><trkpt lat="52.431937432859655" lon="12.888610021353816"><ele>31.0</ele><time>2026-04-03T13:02:27.999Z</time></trkpt><trkpt lat="52.43197942599787" lon="12.888527070291772"><ele>31.0</ele><time>2026-04-03T13:02:32.999Z</time></trkpt><trkpt lat="52.432024705073864" lon="12.88842663129583"><ele>31.0</ele><time>2026-04-03T13:02:37.999Z</time></trkpt><trkpt lat="52.43206303590315" lon="12.888336551383507"><ele>31.000000000000004</ele><time>2026-04-03T13:02:41.999Z</time></trkpt><trkpt lat="52.4321005271248" lon="12.88823058824005"><ele>31.0</ele><time>2026-04-03T13:02:45.999Z</time></trkpt><trkpt lat="52.43213934657492" lon="12.888137971818958"><ele>31.0</ele><time>2026-04-03T13:02:48.999Z</time></trkpt><trkpt lat="52.43217727486678" lon="12.888042189995629"><ele>31.000000000000004</ele><time>2026-04-03T13:02:50.999Z</time></trkpt><trkpt lat="52.43221500647208" lon="12.887934423687186"><ele>31.0</ele><time>2026-04-03T13:02:52.999Z</time></trkpt><trkpt lat="52.43225609111528" lon="12.88780582383905"><ele>31.0</ele><time>2026-04-03T13:02:54.999Z</time></trkpt><trkpt lat="52.43231133776458" lon="12.887615356765972"><ele>31.0</ele><time>2026-04-03T13:02:56.999Z</time></trkpt><trkpt lat="52.432341569108615" lon="12.887517498691098"><ele>31.000000000000004</ele><time>2026-04-03T13:02:57.999Z</time></trkpt><trkpt lat="52.43238236396349" lon="12.887416440802422"><ele>31.0</ele><time>2026-04-03T13:02:58.999Z</time></trkpt><trkpt lat="52.43243027995127" lon="12.8873237087824"><ele>31.0</ele><time>2026-04-03T13:02:59.999Z</time></trkpt><trkpt lat="52.43248844554257" lon="12.887235478680408"><ele>31.000000000000004</ele><time>2026-04-03T13:03:00.999Z</time></trkpt><trkpt lat="52.43254101432548" lon="12.887150120788311"><ele>31.0</ele><time>2026-04-03T13:03:01.999Z</time></trkpt><trkpt lat="52.4325909603876" lon="12.887064036274028"><ele>31.0</ele><time>2026-04-03T13:03:02.999Z</time></trkpt><trkpt lat="52.43263818541215" lon="12.88698166860592"><ele>31.0</ele><time>2026-04-03T13:03:03.999Z</time></trkpt><trkpt lat="52.432689570408435" lon="12.886893872853259"><ele>31.000000000000004</ele><time>2026-04-03T13:03:04.999Z</time></trkpt><trkpt lat="52.43274062209748" lon="12.88680452098072"><ele>31.0</ele><time>2026-04-03T13:03:05.999Z</time></trkpt><trkpt lat="52.43278958371152" lon="12.886709283639325"><ele>31.0</ele><time>2026-04-03T13:03:06.999Z</time></trkpt><trkpt lat="52.432839819444716" lon="12.886618998727426"><ele>31.000000000000004</ele><time>2026-04-03T13:03:07.999Z</time></trkpt><trkpt lat="52.4328931459087" lon="12.886537921505145"><ele>31.0</ele><time>2026-04-03T13:03:08.999Z</time></trkpt><trkpt lat="52.43294537134281" lon="12.886455495474541"><ele>31.0</ele><time>2026-04-03T13:03:09.999Z</time></trkpt><trkpt lat="52.43300153004231" lon="12.886369188287887"><ele>30.500000000000004</ele><time>2026-04-03T13:03:10.999Z</time></trkpt><trkpt lat="52.43305902611693" lon="12.886279379872253"><ele>30.0</ele><time>2026-04-03T13:03:11.999Z</time></trkpt><trkpt lat="52.43311152963926" lon="12.886190861703723"><ele>29.5</ele><time>2026-04-03T13:03:12.999Z</time></trkpt><trkpt lat="52.43316810485989" lon="12.886093878503223"><ele>29.0</ele><time>2026-04-03T13:03:13.999Z</time></trkpt><trkpt lat="52.433221418194954" lon="12.886001078279254"><ele>28.500000000000004</ele><time>2026-04-03T13:03:14.999Z</time></trkpt><trkpt lat="52.433273287356684" lon="12.885917836944131"><ele>28.0</ele><time>2026-04-03T13:03:15.998Z</time></trkpt><trkpt lat="52.433328966121024" lon="12.885828950180333"><ele>28.000000000000004</ele><time>2026-04-03T13:03:16.998Z</time></trkpt><trkpt lat="52.43338513564675" lon="12.885738723990816"><ele>28.0</ele><time>2026-04-03T13:03:17.998Z</time></trkpt><trkpt lat="52.43344297754471" lon="12.88564387438347"><ele>28.0</ele><time>2026-04-03T13:03:18.998Z</time></trkpt><trkpt lat="52.43350603498967" lon="12.88554785294877"><ele>28.0</ele><time>2026-04-03T13:03:19.998Z</time></trkpt><trkpt lat="52.43356560251106" lon="12.885454593388532"><ele>28.000000000000004</ele><time>2026-04-03T13:03:20.998Z</time></trkpt><trkpt lat="52.43362388613711" lon="12.885358913600841"><ele>28.0</ele><time>2026-04-03T13:03:21.998Z</time></trkpt><trkpt lat="52.43368251861534" lon="12.885271355993329"><ele>28.000000000000004</ele><time>2026-04-03T13:03:22.998Z</time></trkpt><trkpt lat="52.4337380468834" lon="12.885185273770373"><ele>28.0</ele><time>2026-04-03T13:03:23.998Z</time></trkpt><trkpt lat="52.43379636819876" lon="12.885084150540177"><ele>28.0</ele><time>2026-04-03T13:03:24.998Z</time></trkpt><trkpt lat="52.4338539427001" lon="12.88499125176543"><ele>28.0</ele><time>2026-04-03T13:03:25.998Z</time></trkpt><trkpt lat="52.43390973540432" lon="12.884903876706849"><ele>28.000000000000004</ele><time>2026-04-03T13:03:26.998Z</time></trkpt><trkpt lat="52.433964508399264" lon="12.884808139983196"><ele>28.0</ele><time>2026-04-03T13:03:27.998Z</time></trkpt><trkpt lat="52.43401921649954" lon="12.884714235175487"><ele>28.0</ele><time>2026-04-03T13:03:28.998Z</time></trkpt><trkpt lat="52.434076858527625" lon="12.884614562997957"><ele>28.0</ele><time>2026-04-03T13:03:29.998Z</time></trkpt><trkpt lat="52.43412881481024" lon="12.884529467481576"><ele>28.0</ele><time>2026-04-03T13:03:30.998Z</time></trkpt><trkpt lat="52.43417901616694" lon="12.88444432834484"><ele>28.0</ele><time>2026-04-03T13:03:31.998Z</time></trkpt><trkpt lat="52.434223836446975" lon="12.884363193857912"><ele>28.0</ele><time>2026-04-03T13:03:32.998Z</time></trkpt><trkpt lat="52.434269019024036" lon="12.884289749830133"><ele>28.0</ele><time>2026-04-03T13:03:33.998Z</time></trkpt><trkpt lat="52.434322664972704" lon="12.884227068844348"><ele>28.0</ele><time>2026-04-03T13:03:34.998Z</time></trkpt><trkpt lat="52.434390332766554" lon="12.884178765889493"><ele>28.000000000000004</ele><time>2026-04-03T13:03:35.998Z</time></trkpt><trkpt lat="52.43447113620346" lon="12.88413871408362"><ele>28.0</ele><time>2026-04-03T13:03:36.998Z</time></trkpt><trkpt lat="52.43454477677043" lon="12.884116786511617"><ele>28.0</ele><time>2026-04-03T13:03:37.998Z</time></trkpt><trkpt lat="52.43462122932291" lon="12.88409440279585"><ele>28.0</ele><time>2026-04-03T13:03:38.998Z</time></trkpt><trkpt lat="52.43470102512396" lon="12.884059116100062"><ele>28.000000000000004</ele><time>2026-04-03T13:03:39.998Z</time></trkpt><trkpt lat="52.43479184976927" lon="12.884019579216517"><ele>28.0</ele><time>2026-04-03T13:03:40.998Z</time></trkpt><trkpt lat="52.4348755874136" lon="12.883984632454576"><ele>28.333333333333336</ele><time>2026-04-03T13:03:41.998Z</time></trkpt><trkpt lat="52.43496260004913" lon="12.883947800121533"><ele>28.666666666666668</ele><time>2026-04-03T13:03:43Z</time></trkpt><trkpt lat="52.43504956698965" lon="12.883914177828663"><ele>29.0</ele><time>2026-04-03T13:03:44Z</time></trkpt><trkpt lat="52.43513549950795" lon="12.883882600584139"><ele>29.333333333333336</ele><time>2026-04-03T13:03:45Z</time></trkpt><trkpt lat="52.43522485997088" lon="12.883848558115629"><ele>29.666666666666668</ele><time>2026-04-03T13:03:46Z</time></trkpt><trkpt lat="52.435304348316095" lon="12.88382226590616"><ele>30.0</ele><time>2026-04-03T13:03:47Z</time></trkpt><trkpt lat="52.43538003686265" lon="12.883795249907802"><ele>30.0</ele><time>2026-04-03T13:03:48Z</time></trkpt><trkpt lat="52.43545957725808" lon="12.883757688284382"><ele>30.0</ele><time>2026-04-03T13:03:49Z</time></trkpt><trkpt lat="52.43555304280601" lon="12.883719115572699"><ele>30.0</ele><time>2026-04-03T13:03:50Z</time></trkpt><trkpt lat="52.4356414139541" lon="12.88368883481352"><ele>30.0</ele><time>2026-04-03T13:03:51Z</time></trkpt><trkpt lat="52.435725948830296" lon="12.883658431329488"><ele>30.0</ele><time>2026-04-03T13:03:52Z</time></trkpt><trkpt lat="52.435805732711835" lon="12.883629457616196"><ele>30.0</ele><time>2026-04-03T13:03:53Z</time></trkpt><trkpt lat="52.43588471022538" lon="12.883596366234771"><ele>30.0</ele><time>2026-04-03T13:03:54Z</time></trkpt><trkpt lat="52.435966722817625" lon="12.883562664216576"><ele>30.0</ele><time>2026-04-03T13:03:55Z</time></trkpt><trkpt lat="52.43604613901808" lon="12.883539043440933"><ele>30.0</ele><time>2026-04-03T13:03:56Z</time></trkpt><trkpt lat="52.43611908489567" lon="12.883519822826141"><ele>30.0</ele><time>2026-04-03T13:03:57Z</time></trkpt><trkpt lat="52.436194933097916" lon="12.883484327354438"><ele>30.0</ele><time>2026-04-03T13:03:58Z</time></trkpt><trkpt lat="52.43627248893608" lon="12.883444392471766"><ele>30.0</ele><time>2026-04-03T13:03:59Z</time></trkpt><trkpt lat="52.436343506151495" lon="12.883400023687301"><ele>30.0</ele><time>2026-04-03T13:04:00Z</time></trkpt><trkpt lat="52.4364177511071" lon="12.883352595020728"><ele>30.0</ele><time>2026-04-03T13:04:01Z</time></trkpt><trkpt lat="52.43650191096875" lon="12.883297959923597"><ele>30.0</ele><time>2026-04-03T13:04:02Z</time></trkpt><trkpt lat="52.43657604544565" lon="12.883243217672025"><ele>30.0</ele><time>2026-04-03T13:04:03Z</time></trkpt><trkpt lat="52.43665735152175" lon="12.88318850129018"><ele>30.0</ele><time>2026-04-03T13:04:04Z</time></trkpt><trkpt lat="52.43673246036865" lon="12.883141840619512"><ele>30.0</ele><time>2026-04-03T13:04:05Z</time></trkpt><trkpt lat="52.43681164514723" lon="12.883086317613941"><ele>30.0</ele><time>2026-04-03T13:04:06Z</time></trkpt><trkpt lat="52.43689034939199" lon="12.883030240023603"><ele>30.0</ele><time>2026-04-03T13:04:07Z</time></trkpt><trkpt lat="52.43696669872521" lon="12.882975149576858"><ele>30.0</ele><time>2026-04-03T13:04:08Z</time></trkpt><trkpt lat="52.4370373292304" lon="12.882929619246893"><ele>30.0</ele><time>2026-04-03T13:04:09Z</time></trkpt><trkpt lat="52.43711889862234" lon="12.882878406208153"><ele>30.0</ele><time>2026-04-03T13:04:10Z</time></trkpt><trkpt lat="52.4371929194862" lon="12.882828050157999"><ele>30.0</ele><time>2026-04-03T13:04:11Z</time></trkpt><trkpt lat="52.43727144481862" lon="12.882775769023816"><ele>30.0</ele><time>2026-04-03T13:04:12Z</time></trkpt><trkpt lat="52.43733926815154" lon="12.88273449446158"><ele>30.0</ele><time>2026-04-03T13:04:13Z</time></trkpt><trkpt lat="52.437411260799244" lon="12.882689874100354"><ele>30.0</ele><time>2026-04-03T13:04:14Z</time></trkpt><trkpt lat="52.43748116000701" lon="12.882642032721007"><ele>30.0</ele><time>2026-04-03T13:04:15Z</time></trkpt><trkpt lat="52.43755358258969" lon="12.882596312350794"><ele>30.0</ele><time>2026-04-03T13:04:16Z</time></trkpt><trkpt lat="52.43762802486431" lon="12.882548509616752"><ele>30.0</ele><time>2026-04-03T13:04:17Z</time></trkpt><trkpt lat="52.437703601431686" lon="12.882500022393018"><ele>30.0</ele><time>2026-04-03T13:04:18Z</time></trkpt><trkpt lat="52.437774356412675" lon="12.882458575591786"><ele>30.0</ele><time>2026-04-03T13:04:19Z</time></trkpt><trkpt lat="52.4378845089685" lon="12.882401884314458"><ele>30.0</ele><time>2026-04-03T13:04:21Z</time></trkpt><trkpt lat="52.43798402754488" lon="12.882355853032603"><ele>30.0</ele><time>2026-04-03T13:04:23Z</time></trkpt><trkpt lat="52.43810807345196" lon="12.88235023352808"><ele>30.0</ele><time>2026-04-03T13:04:25Z</time></trkpt><trkpt lat="52.438169549423115" lon="12.882384566670554"><ele>29.666666666666668</ele><time>2026-04-03T13:04:25.999Z</time></trkpt><trkpt lat="52.4382349784709" lon="12.88245319083901"><ele>29.333333333333336</ele><time>2026-04-03T13:04:26.999Z</time></trkpt><trkpt lat="52.4382930258738" lon="12.882529362814429"><ele>29.0</ele><time>2026-04-03T13:04:27.999Z</time></trkpt><trkpt lat="52.43835810926196" lon="12.882624380575146"><ele>28.666666666666668</ele><time>2026-04-03T13:04:28.999Z</time></trkpt><trkpt lat="52.43841542580718" lon="12.882709147778632"><ele>28.333333333333336</ele><time>2026-04-03T13:04:29.999Z</time></trkpt><trkpt lat="52.43847239834779" lon="12.88279157172196"><ele>28.0</ele><time>2026-04-03T13:04:30.999Z</time></trkpt><trkpt lat="52.43853379590499" lon="12.882879202417913"><ele>28.0</ele><time>2026-04-03T13:04:31.999Z</time></trkpt><trkpt lat="52.4385906117271" lon="12.882962517600266"><ele>27.999999999999996</ele><time>2026-04-03T13:04:32.999Z</time></trkpt><trkpt lat="52.438662622734725" lon="12.883072085115327"><ele>27.999999999999996</ele><time>2026-04-03T13:04:34.999Z</time></trkpt><trkpt lat="52.43871785028128" lon="12.883140876302729"><ele>28.0</ele><time>2026-04-03T13:04:36.999Z</time></trkpt><trkpt lat="52.43881529591153" lon="12.883277353683688"><ele>28.0</ele><time>2026-04-03T13:04:38.999Z</time></trkpt><trkpt lat="52.43891449093597" lon="12.883422014644696"><ele>28.000000000000004</ele><time>2026-04-03T13:04:40.999Z</time></trkpt><trkpt lat="52.43897385480797" lon="12.883506485357746"><ele>28.0</ele><time>2026-04-03T13:04:41.999Z</time></trkpt><trkpt lat="52.43903135823244" lon="12.883590419873231"><ele>28.0</ele><time>2026-04-03T13:04:42.999Z</time></trkpt><trkpt lat="52.43907970536182" lon="12.883658358028319"><ele>28.0</ele><time>2026-04-03T13:04:43.999Z</time></trkpt><trkpt lat="52.43914809340739" lon="12.883753281099576"><ele>28.000000000000004</ele><time>2026-04-03T13:04:46.999Z</time></trkpt><trkpt lat="52.43921975168387" lon="12.883850897065011"><ele>28.0</ele><time>2026-04-03T13:04:49.999Z</time></trkpt><trkpt lat="52.43930171591304" lon="12.883975463600203"><ele>28.0</ele><time>2026-04-03T13:04:51.999Z</time></trkpt><trkpt lat="52.43938425305586" lon="12.884087319512572"><ele>27.999999999999996</ele><time>2026-04-03T13:04:53.999Z</time></trkpt><trkpt lat="52.43946912995357" lon="12.884212717120496"><ele>27.999999999999996</ele><time>2026-04-03T13:04:55.999Z</time></trkpt><trkpt lat="52.43952011637112" lon="12.88428038086014"><ele>28.0</ele><time>2026-04-03T13:04:56.999Z</time></trkpt><trkpt lat="52.439612656936454" lon="12.884414086942146"><ele>28.0</ele><time>2026-04-03T13:04:58.999Z</time></trkpt><trkpt lat="52.43966036196894" lon="12.884482489333289"><ele>28.166666666666668</ele><time>2026-04-03T13:04:59.999Z</time></trkpt><trkpt lat="52.439713822603466" lon="12.884556068127063"><ele>28.333333333333336</ele><time>2026-04-03T13:05:00.999Z</time></trkpt><trkpt lat="52.439769650646326" lon="12.884632519644626"><ele>28.5</ele><time>2026-04-03T13:05:01.999Z</time></trkpt><trkpt lat="52.43982559468498" lon="12.884708792640982"><ele>28.666666666666664</ele><time>2026-04-03T13:05:02.999Z</time></trkpt><trkpt lat="52.439881985737586" lon="12.884784117542463"><ele>28.833333333333332</ele><time>2026-04-03T13:05:03.999Z</time></trkpt><trkpt lat="52.43993841236218" lon="12.884861175734576"><ele>29.0</ele><time>2026-04-03T13:05:04.999Z</time></trkpt><trkpt lat="52.44003125107269" lon="12.884980592691777"><ele>29.000000000000004</ele><time>2026-04-03T13:05:06.999Z</time></trkpt><trkpt lat="52.4400815898686" lon="12.885047927249856"><ele>29.0</ele><time>2026-04-03T13:05:07.999Z</time></trkpt><trkpt lat="52.44013886161107" lon="12.885120567425965"><ele>29.000000000000004</ele><time>2026-04-03T13:05:08.999Z</time></trkpt><trkpt lat="52.440203403375065" lon="12.885205869466246"><ele>29.000000000000004</ele><time>2026-04-03T13:05:09.999Z</time></trkpt><trkpt lat="52.44026662455759" lon="12.885280721599072"><ele>29.0</ele><time>2026-04-03T13:05:10.999Z</time></trkpt><trkpt lat="52.4403241397355" lon="12.885351800995045"><ele>29.000000000000004</ele><time>2026-04-03T13:05:11.999Z</time></trkpt><trkpt lat="52.440381201908174" lon="12.885431061466202"><ele>29.000000000000004</ele><time>2026-04-03T13:05:12.999Z</time></trkpt><trkpt lat="52.44043954898232" lon="12.885510295189862"><ele>28.833333333333332</ele><time>2026-04-03T13:05:13.999Z</time></trkpt><trkpt lat="52.44050138992014" lon="12.885594237923351"><ele>28.666666666666664</ele><time>2026-04-03T13:05:14.999Z</time></trkpt><trkpt lat="52.440568475469966" lon="12.885685402336627"><ele>28.5</ele><time>2026-04-03T13:05:15.999Z</time></trkpt><trkpt lat="52.440641894504026" lon="12.885782836724538"><ele>28.333333333333336</ele><time>2026-04-03T13:05:16.999Z</time></trkpt><trkpt lat="52.44070348138816" lon="12.885869156457083"><ele>28.166666666666668</ele><time>2026-04-03T13:05:17.999Z</time></trkpt><trkpt lat="52.440768484631285" lon="12.88595457611675"><ele>28.0</ele><time>2026-04-03T13:05:18.999Z</time></trkpt><trkpt lat="52.44083625904916" lon="12.886041212691767"><ele>28.0</ele><time>2026-04-03T13:05:19.999Z</time></trkpt><trkpt lat="52.440904082322696" lon="12.88613342665732"><ele>27.999999999999996</ele><time>2026-04-03T13:05:20.999Z</time></trkpt><trkpt lat="52.44097887487326" lon="12.886231658266555"><ele>27.999999999999996</ele><time>2026-04-03T13:05:21.999Z</time></trkpt><trkpt lat="52.44105307458809" lon="12.88632581034649"><ele>28.0</ele><time>2026-04-03T13:05:22.999Z</time></trkpt><trkpt lat="52.44113117804097" lon="12.886432205474136"><ele>28.0</ele><time>2026-04-03T13:05:23.999Z</time></trkpt><trkpt lat="52.441208752971775" lon="12.886535049064097"><ele>28.0</ele><time>2026-04-03T13:05:24.998Z</time></trkpt><trkpt lat="52.44128875723717" lon="12.886640197434362"><ele>27.999999999999996</ele><time>2026-04-03T13:05:25.998Z</time></trkpt><trkpt lat="52.44136652937022" lon="12.88673507616157"><ele>27.999999999999996</ele><time>2026-04-03T13:05:26.998Z</time></trkpt><trkpt lat="52.4414449937912" lon="12.88683110379355"><ele>28.0</ele><time>2026-04-03T13:05:27.998Z</time></trkpt><trkpt lat="52.44151566623549" lon="12.886927735186175"><ele>28.0</ele><time>2026-04-03T13:05:28.998Z</time></trkpt><trkpt lat="52.44158606780955" lon="12.887023559876809"><ele>28.0</ele><time>2026-04-03T13:05:29.998Z</time></trkpt><trkpt lat="52.44166045274973" lon="12.887122598289398"><ele>27.999999999999996</ele><time>2026-04-03T13:05:30.998Z</time></trkpt><trkpt lat="52.44174024935172" lon="12.887229155981203"><ele>27.999999999999996</ele><time>2026-04-03T13:05:31.998Z</time></trkpt><trkpt lat="52.44181540424173" lon="12.887347443253237"><ele>28.0</ele><time>2026-04-03T13:05:32.998Z</time></trkpt><trkpt lat="52.441878978123945" lon="12.887473278385894"><ele>28.0</ele><time>2026-04-03T13:05:33.998Z</time></trkpt><trkpt lat="52.44193698248106" lon="12.887607100448845"><ele>28.0</ele><time>2026-04-03T13:05:34.998Z</time></trkpt><trkpt lat="52.44199772253942" lon="12.887745508914747"><ele>27.999999999999996</ele><time>2026-04-03T13:05:35.998Z</time></trkpt><trkpt lat="52.44204733378605" lon="12.887865746079788"><ele>27.999999999999996</ele><time>2026-04-03T13:05:36.998Z</time></trkpt><trkpt lat="52.44209276640285" lon="12.887976683586327"><ele>28.0</ele><time>2026-04-03T13:05:37.998Z</time></trkpt><trkpt lat="52.4421473047768" lon="12.888092807604757"><ele>28.0</ele><time>2026-04-03T13:05:38.998Z</time></trkpt><trkpt lat="52.44220693114185" lon="12.888210153476548"><ele>28.599999999999998</ele><time>2026-04-03T13:05:39.998Z</time></trkpt><trkpt lat="52.44226886347769" lon="12.888328840056506"><ele>29.199999999999996</ele><time>2026-04-03T13:05:40.998Z</time></trkpt><trkpt lat="52.442323490452374" lon="12.888448052604815"><ele>29.8</ele><time>2026-04-03T13:05:41.998Z</time></trkpt><trkpt lat="52.44238254365559" lon="12.888567156271822"><ele>30.4</ele><time>2026-04-03T13:05:42.998Z</time></trkpt><trkpt lat="52.442442143664266" lon="12.88869427953598"><ele>31.0</ele><time>2026-04-03T13:05:43.998Z</time></trkpt><trkpt lat="52.44251089369663" lon="12.888835622292397"><ele>31.200000000000003</ele><time>2026-04-03T13:05:44.998Z</time></trkpt><trkpt lat="52.442575920856896" lon="12.88897222690731"><ele>31.400000000000002</ele><time>2026-04-03T13:05:45.998Z</time></trkpt><trkpt lat="52.442636171477126" lon="12.889096947809197"><ele>31.6</ele><time>2026-04-03T13:05:46.998Z</time></trkpt><trkpt lat="52.44269474249479" lon="12.889206711164793"><ele>31.8</ele><time>2026-04-03T13:05:47.998Z</time></trkpt><trkpt lat="52.44275560598698" lon="12.889321793088033"><ele>32.0</ele><time>2026-04-03T13:05:49Z</time></trkpt><trkpt lat="52.44282639725626" lon="12.889439347938234"><ele>31.6</ele><time>2026-04-03T13:05:50Z</time></trkpt><trkpt lat="52.44290251004732" lon="12.889579650658092"><ele>31.200000000000003</ele><time>2026-04-03T13:05:51Z</time></trkpt><trkpt lat="52.442976001013754" lon="12.88971156934784"><ele>30.8</ele><time>2026-04-03T13:05:52Z</time></trkpt><trkpt lat="52.443038047664544" lon="12.889815904221924"><ele>30.4</ele><time>2026-04-03T13:05:53Z</time></trkpt><trkpt lat="52.44309812693737" lon="12.88992138530354"><ele>30.0</ele><time>2026-04-03T13:05:54Z</time></trkpt><trkpt lat="52.443151036124" lon="12.890018745555011"><ele>30.0</ele><time>2026-04-03T13:05:55Z</time></trkpt><trkpt lat="52.44319915941432" lon="12.890097045039125"><ele>30.0</ele><time>2026-04-03T13:05:56Z</time></trkpt><trkpt lat="52.443272022710026" lon="12.890221128426623"><ele>30.0</ele><time>2026-04-03T13:05:58Z</time></trkpt><trkpt lat="52.44333601189753" lon="12.89032239939794"><ele>30.0</ele><time>2026-04-03T13:06:00Z</time></trkpt><trkpt lat="52.44339161914027" lon="12.890409848186973"><ele>30.0</ele><time>2026-04-03T13:06:02Z</time></trkpt><trkpt lat="52.44346865146393" lon="12.890409396553759"><ele>30.0</ele><time>2026-04-03T13:06:04Z</time></trkpt><trkpt lat="52.4435346008464" lon="12.890351145652755"><ele>30.0</ele><time>2026-04-03T13:06:05Z</time></trkpt><trkpt lat="52.44358843167494" lon="12.890277705779237"><ele>30.0</ele><time>2026-04-03T13:06:06Z</time></trkpt><trkpt lat="52.44360357761102" lon="12.890168243376158"><ele>30.0</ele><time>2026-04-03T13:06:08Z</time></trkpt><trkpt lat="52.443530401859064" lon="12.890148600593886"><ele>30.0</ele><time>2026-04-03T13:06:11Z</time></trkpt><trkpt lat="52.44346740654853" lon="12.890273668651751"><ele>30.0</ele><time>2026-04-03T13:06:13Z</time></trkpt><trkpt lat="52.44343652734419" lon="12.890374573137436"><ele>30.0</ele><time>2026-04-03T13:06:15Z</time></trkpt><trkpt lat="52.44333915872703" lon="12.890340253779511"><ele>30.0</ele><time>2026-04-03T13:06:18Z</time></trkpt><trkpt lat="52.44328106676762" lon="12.890196707381818"><ele>30.0</ele><time>2026-04-03T13:06:20Z</time></trkpt><trkpt lat="52.44318690020639" lon="12.890046109694522"><ele>30.0</ele><time>2026-04-03T13:06:22Z</time></trkpt><trkpt lat="52.44313202072809" lon="12.889947518980332"><ele>30.0</ele><time>2026-04-03T13:06:23Z</time></trkpt><trkpt lat="52.443075172032856" lon="12.889848472298855"><ele>30.0</ele><time>2026-04-03T13:06:24Z</time></trkpt><trkpt lat="52.443023692981434" lon="12.889762006810875"><ele>30.0</ele><time>2026-04-03T13:06:25Z</time></trkpt><trkpt lat="52.442972975689194" lon="12.889669642444"><ele>30.0</ele><time>2026-04-03T13:06:26Z</time></trkpt><trkpt lat="52.442921698859244" lon="12.889574831414953"><ele>30.0</ele><time>2026-04-03T13:06:27Z</time></trkpt><trkpt lat="52.44287526689234" lon="12.889498093540178"><ele>30.0</ele><time>2026-04-03T13:06:28Z</time></trkpt><trkpt lat="52.442818514933236" lon="12.889395738103532"><ele>30.0</ele><time>2026-04-03T13:06:29Z</time></trkpt><trkpt lat="52.44277297939847" lon="12.889312001486985"><ele>30.0</ele><time>2026-04-03T13:06:30Z</time></trkpt><trkpt lat="52.442703897596076" lon="12.88919446607991"><ele>30.0</ele><time>2026-04-03T13:06:32Z</time></trkpt><trkpt lat="52.44267966780195" lon="12.889089197435089"><ele>30.0</ele><time>2026-04-03T13:06:33.999Z</time></trkpt><trkpt lat="52.44266694461641" lon="12.889192269355968"><ele>30.0</ele><time>2026-04-03T13:06:39.999Z</time></trkpt><trkpt lat="52.442729434588216" lon="12.889283703521198"><ele>30.0</ele><time>2026-04-03T13:06:40.999Z</time></trkpt><trkpt lat="52.44279768342604" lon="12.889392905401452"><ele>30.0</ele><time>2026-04-03T13:06:41.999Z</time></trkpt><trkpt lat="52.44287268057653" lon="12.88952634237253"><ele>30.0</ele><time>2026-04-03T13:06:42.999Z</time></trkpt><trkpt lat="52.44293780213395" lon="12.889645374823534"><ele>30.0</ele><time>2026-04-03T13:06:43.999Z</time></trkpt><trkpt lat="52.442987416929114" lon="12.889735900151845"><ele>30.0</ele><time>2026-04-03T13:06:44.999Z</time></trkpt><trkpt lat="52.443036647831256" lon="12.889805501334012"><ele>30.0</ele><time>2026-04-03T13:06:45.999Z</time></trkpt><trkpt lat="52.443088501165455" lon="12.889875524583674"><ele>30.0</ele><time>2026-04-03T13:06:46.999Z</time></trkpt><trkpt lat="52.443166999919825" lon="12.890015953499056"><ele>30.0</ele><time>2026-04-03T13:06:48.999Z</time></trkpt><trkpt lat="52.44324086854235" lon="12.890143118921939"><ele>30.0</ele><time>2026-04-03T13:06:50.999Z</time></trkpt><trkpt lat="52.44328903412379" lon="12.890233934245023"><ele>30.0</ele><time>2026-04-03T13:06:51.999Z</time></trkpt><trkpt lat="52.44333602424279" lon="12.890306721016072"><ele>30.0</ele><time>2026-04-03T13:06:52.999Z</time></trkpt><trkpt lat="52.44341808409475" lon="12.890390425220518"><ele>30.0</ele><time>2026-04-03T13:06:54.999Z</time></trkpt><trkpt lat="52.44348746787876" lon="12.890362239579522"><ele>30.0</ele><time>2026-04-03T13:06:57.999Z</time></trkpt><trkpt lat="52.44355839690808" lon="12.890314672128387"><ele>30.0</ele><time>2026-04-03T13:06:59.999Z</time></trkpt><trkpt lat="52.44365259235001" lon="12.890210840455607"><ele>30.0</ele><time>2026-04-03T13:07:01.999Z</time></trkpt><trkpt lat="52.443709888323205" lon="12.890120179847694"><ele>30.0</ele><time>2026-04-03T13:07:02.999Z</time></trkpt><trkpt lat="52.44377022598217" lon="12.890011235240806"><ele>30.0</ele><time>2026-04-03T13:07:03.999Z</time></trkpt><trkpt lat="52.443833369564395" lon="12.889911992563265"><ele>30.0</ele><time>2026-04-03T13:07:04.999Z</time></trkpt><trkpt lat="52.443908080670425" lon="12.889807051559568"><ele>30.0</ele><time>2026-04-03T13:07:05.999Z</time></trkpt><trkpt lat="52.443981116461366" lon="12.88970171823732"><ele>30.0</ele><time>2026-04-03T13:07:06.999Z</time></trkpt><trkpt lat="52.44406152395262" lon="12.889592767690916"><ele>30.0</ele><time>2026-04-03T13:07:07.999Z</time></trkpt><trkpt lat="52.44413123142579" lon="12.889499813633787"><ele>30.0</ele><time>2026-04-03T13:07:08.999Z</time></trkpt><trkpt lat="52.444204499874814" lon="12.8894037807746"><ele>30.0</ele><time>2026-04-03T13:07:09.999Z</time></trkpt><trkpt lat="52.444278147202944" lon="12.88930015342571"><ele>30.0</ele><time>2026-04-03T13:07:10.999Z</time></trkpt><trkpt lat="52.44435128785193" lon="12.889193574407468"><ele>30.0</ele><time>2026-04-03T13:07:11.999Z</time></trkpt><trkpt lat="52.44442284137614" lon="12.889106023967596"><ele>30.0</ele><time>2026-04-03T13:07:12.999Z</time></trkpt><trkpt lat="52.44448830789483" lon="12.889026535086296"><ele>30.0</ele><time>2026-04-03T13:07:13.999Z</time></trkpt><trkpt lat="52.444555405382744" lon="12.888940671788662"><ele>30.0</ele><time>2026-04-03T13:07:14.999Z</time></trkpt><trkpt lat="52.444618853082495" lon="12.888864790224114"><ele>30.0</ele><time>2026-04-03T13:07:15.999Z</time></trkpt><trkpt lat="52.44468189340558" lon="12.88878518645744"><ele>30.0</ele><time>2026-04-03T13:07:16.999Z</time></trkpt><trkpt lat="52.444749289434036" lon="12.888694776484467"><ele>30.0</ele><time>2026-04-03T13:07:17.999Z</time></trkpt><trkpt lat="52.44481843744001" lon="12.88860936559197"><ele>30.0</ele><time>2026-04-03T13:07:18.999Z</time></trkpt><trkpt lat="52.44488313798038" lon="12.888524952797265"><ele>30.0</ele><time>2026-04-03T13:07:19.999Z</time></trkpt><trkpt lat="52.444948584353945" lon="12.888441077532782"><ele>30.0</ele><time>2026-04-03T13:07:20.999Z</time></trkpt><trkpt lat="52.44501523094843" lon="12.888356654145664"><ele>30.0</ele><time>2026-04-03T13:07:21.999Z</time></trkpt><trkpt lat="52.44508488995227" lon="12.888269192810208"><ele>30.0</ele><time>2026-04-03T13:07:22.999Z</time></trkpt><trkpt lat="52.44515057248779" lon="12.888178706494253"><ele>30.0</ele><time>2026-04-03T13:07:23.999Z</time></trkpt><trkpt lat="52.44522086794359" lon="12.888093912886706"><ele>30.0</ele><time>2026-04-03T13:07:24.999Z</time></trkpt><trkpt lat="52.445289365886765" lon="12.888014839095902"><ele>30.0</ele><time>2026-04-03T13:07:25.999Z</time></trkpt><trkpt lat="52.44535558174052" lon="12.887928409192645"><ele>30.0</ele><time>2026-04-03T13:07:26.999Z</time></trkpt><trkpt lat="52.44542069889266" lon="12.887843881715613"><ele>30.0</ele><time>2026-04-03T13:07:27.999Z</time></trkpt><trkpt lat="52.44548447903065" lon="12.887762350028831"><ele>30.0</ele><time>2026-04-03T13:07:28.999Z</time></trkpt><trkpt lat="52.44554791864008" lon="12.887677701907233"><ele>30.0</ele><time>2026-04-03T13:07:29.999Z</time></trkpt><trkpt lat="52.445613178077764" lon="12.887597904038337"><ele>30.0</ele><time>2026-04-03T13:07:30.999Z</time></trkpt><trkpt lat="52.445676170497734" lon="12.887520726511971"><ele>30.0</ele><time>2026-04-03T13:07:31.998Z</time></trkpt><trkpt lat="52.445736298893664" lon="12.887441399743294"><ele>30.0</ele><time>2026-04-03T13:07:32.998Z</time></trkpt><trkpt lat="52.44579560025403" lon="12.887366960320803"><ele>30.0</ele><time>2026-04-03T13:07:33.998Z</time></trkpt><trkpt lat="52.44585470315515" lon="12.887288795970854"><ele>30.0</ele><time>2026-04-03T13:07:34.998Z</time></trkpt><trkpt lat="52.445920551806225" lon="12.887206175214384"><ele>30.0</ele><time>2026-04-03T13:07:35.998Z</time></trkpt><trkpt lat="52.44599008516504" lon="12.887124217948093"><ele>30.0</ele><time>2026-04-03T13:07:36.998Z</time></trkpt><trkpt lat="52.44605133827038" lon="12.88704719833718"><ele>30.0</ele><time>2026-04-03T13:07:37.998Z</time></trkpt><trkpt lat="52.446101161042286" lon="12.88697865954906"><ele>30.0</ele><time>2026-04-03T13:07:38.998Z</time></trkpt><trkpt lat="52.446197753122426" lon="12.886905757697201"><ele>30.0</ele><time>2026-04-03T13:07:40.998Z</time></trkpt><trkpt lat="52.446265104491474" lon="12.886914978640744"><ele>30.0</ele><time>2026-04-03T13:07:41.998Z</time></trkpt><trkpt lat="52.446321333756394" lon="12.886975858287617"><ele>30.0</ele><time>2026-04-03T13:07:42.998Z</time></trkpt><trkpt lat="52.44637498347313" lon="12.887078775757129"><ele>30.0</ele><time>2026-04-03T13:07:43.998Z</time></trkpt><trkpt lat="52.44642754416225" lon="12.887239790789668"><ele>30.0</ele><time>2026-04-03T13:07:44.998Z</time></trkpt><trkpt lat="52.44647419276521" lon="12.887380321849053"><ele>30.0</ele><time>2026-04-03T13:07:45.998Z</time></trkpt><trkpt lat="52.446522666697966" lon="12.887482638205412"><ele>30.0</ele><time>2026-04-03T13:07:46.998Z</time></trkpt><trkpt lat="52.44656746556187" lon="12.887584424711322"><ele>30.0</ele><time>2026-04-03T13:07:47.998Z</time></trkpt><trkpt lat="52.44660878702446" lon="12.887682430735506"><ele>30.0</ele><time>2026-04-03T13:07:48.998Z</time></trkpt><trkpt lat="52.44665706285835" lon="12.887783229401828"><ele>30.0</ele><time>2026-04-03T13:07:49.998Z</time></trkpt><trkpt lat="52.446704986043024" lon="12.887891719226124"><ele>30.0</ele><time>2026-04-03T13:07:50.998Z</time></trkpt><trkpt lat="52.44674906894778" lon="12.888005222007477"><ele>30.0</ele><time>2026-04-03T13:07:51.998Z</time></trkpt><trkpt lat="52.44679134732344" lon="12.888099661021268"><ele>30.0</ele><time>2026-04-03T13:07:52.998Z</time></trkpt><trkpt lat="52.44685957593969" lon="12.88825029385239"><ele>30.0</ele><time>2026-04-03T13:07:55Z</time></trkpt><trkpt lat="52.446916643499414" lon="12.888369606538868"><ele>30.0</ele><time>2026-04-03T13:07:57Z</time></trkpt><trkpt lat="52.44697293293986" lon="12.88850426786297"><ele>29.833333333333332</ele><time>2026-04-03T13:07:59Z</time></trkpt><trkpt lat="52.44701935340871" lon="12.888631090270815"><ele>29.666666666666664</ele><time>2026-04-03T13:08:01Z</time></trkpt><trkpt lat="52.44708102545016" lon="12.888784503106818"><ele>29.5</ele><time>2026-04-03T13:08:03Z</time></trkpt><trkpt lat="52.447115206295585" lon="12.88888064698787"><ele>29.333333333333332</ele><time>2026-04-03T13:08:04Z</time></trkpt><trkpt lat="52.44714922799612" lon="12.888987007290808"><ele>29.166666666666664</ele><time>2026-04-03T13:08:05Z</time></trkpt><trkpt lat="52.447178203447486" lon="12.889104704712025"><ele>29.0</ele><time>2026-04-03T13:08:06Z</time></trkpt><trkpt lat="52.44719891352145" lon="12.889212018332428"><ele>29.999999999999996</ele><time>2026-04-03T13:08:07Z</time></trkpt><trkpt lat="52.447214530305" lon="12.889322239184763"><ele>31.0</ele><time>2026-04-03T13:08:08Z</time></trkpt><trkpt lat="52.44722235102512" lon="12.889452576060428"><ele>32.0</ele><time>2026-04-03T13:08:09Z</time></trkpt><trkpt lat="52.447226231354364" lon="12.88958715501983"><ele>33.0</ele><time>2026-04-03T13:08:10Z</time></trkpt><trkpt lat="52.447226061141045" lon="12.889691157270668"><ele>34.0</ele><time>2026-04-03T13:08:11Z</time></trkpt><trkpt lat="52.447237589035424" lon="12.88989784953025"><ele>35.0</ele><time>2026-04-03T13:08:13Z</time></trkpt><trkpt lat="52.447267274491544" lon="12.8900174051937"><ele>35.5</ele><time>2026-04-03T13:08:14Z</time></trkpt><trkpt lat="52.447308727594205" lon="12.890138317373854"><ele>36.0</ele><time>2026-04-03T13:08:15Z</time></trkpt><trkpt lat="52.44734933949796" lon="12.890257379848533"><ele>36.5</ele><time>2026-04-03T13:08:16Z</time></trkpt><trkpt lat="52.44740103429771" lon="12.89038119301486"><ele>37.0</ele><time>2026-04-03T13:08:17Z</time></trkpt><trkpt lat="52.4474559402684" lon="12.890488009941482"><ele>37.5</ele><time>2026-04-03T13:08:18Z</time></trkpt><trkpt lat="52.44750867366242" lon="12.890581935985207"><ele>38.0</ele><time>2026-04-03T13:08:19Z</time></trkpt><trkpt lat="52.447550981147614" lon="12.89065875017249"><ele>38.0</ele><time>2026-04-03T13:08:20Z</time></trkpt><trkpt lat="52.4476551771986" lon="12.890760200720651"><ele>38.0</ele><time>2026-04-03T13:08:22Z</time></trkpt><trkpt lat="52.4477596634085" lon="12.890798644572028"><ele>38.0</ele><time>2026-04-03T13:08:24Z</time></trkpt><trkpt lat="52.44782113608143" lon="12.890743205476285"><ele>38.0</ele><time>2026-04-03T13:08:25Z</time></trkpt><trkpt lat="52.447890646874946" lon="12.89068833142203"><ele>38.0</ele><time>2026-04-03T13:08:26Z</time></trkpt><trkpt lat="52.44794296373275" lon="12.890612479589477"><ele>38.0</ele><time>2026-04-03T13:08:27Z</time></trkpt><trkpt lat="52.44800436065097" lon="12.890530983307542"><ele>37.33333333333333</ele><time>2026-04-03T13:08:28Z</time></trkpt><trkpt lat="52.44806665585426" lon="12.890471423138878"><ele>36.666666666666664</ele><time>2026-04-03T13:08:29Z</time></trkpt><trkpt lat="52.44813570814333" lon="12.890438151398774"><ele>36.0</ele><time>2026-04-03T13:08:30Z</time></trkpt><trkpt lat="52.4482098916691" lon="12.890427708666174"><ele>35.333333333333336</ele><time>2026-04-03T13:08:31Z</time></trkpt><trkpt lat="52.44828183167391" lon="12.890412776501636"><ele>34.66666666666667</ele><time>2026-04-03T13:08:32Z</time></trkpt><trkpt lat="52.44837842832954" lon="12.890415857539514"><ele>34.0</ele><time>2026-04-03T13:08:34Z</time></trkpt><trkpt lat="52.44846817472395" lon="12.890434102911048"><ele>34.0</ele><time>2026-04-03T13:08:36Z</time></trkpt><trkpt lat="52.448550749522816" lon="12.890460592206319"><ele>34.0</ele><time>2026-04-03T13:08:38Z</time></trkpt><trkpt lat="52.448642982865174" lon="12.890504033909707"><ele>34.0</ele><time>2026-04-03T13:08:40Z</time></trkpt><trkpt lat="52.44872785525967" lon="12.890587118246577"><ele>34.0</ele><time>2026-04-03T13:08:41.999Z</time></trkpt><trkpt lat="52.44878397948645" lon="12.890660562827765"><ele>34.0</ele><time>2026-04-03T13:08:43.999Z</time></trkpt><trkpt lat="52.448845296451296" lon="12.89071758815999"><ele>34.0</ele><time>2026-04-03T13:08:45.999Z</time></trkpt><trkpt lat="52.448909283041864" lon="12.890783860612414"><ele>33.66666666666667</ele><time>2026-04-03T13:08:47.999Z</time></trkpt><trkpt lat="52.448969735797306" lon="12.890879313645833"><ele>33.333333333333336</ele><time>2026-04-03T13:08:50.999Z</time></trkpt><trkpt lat="52.44902599191776" lon="12.89095278306932"><ele>33.0</ele><time>2026-04-03T13:08:52.999Z</time></trkpt><trkpt lat="52.44908027257435" lon="12.891030233389682"><ele>32.666666666666664</ele><time>2026-04-03T13:08:54.999Z</time></trkpt><trkpt lat="52.44914091334087" lon="12.891104113656914"><ele>32.33333333333333</ele><time>2026-04-03T13:08:56.999Z</time></trkpt><trkpt lat="52.449209726747014" lon="12.891186676565829"><ele>32.0</ele><time>2026-04-03T13:08:58.999Z</time></trkpt><trkpt lat="52.449279557304045" lon="12.891218617098005"><ele>32.0</ele><time>2026-04-03T13:09:00.999Z</time></trkpt><trkpt lat="52.44934612934643" lon="12.891293613518773"><ele>32.0</ele><time>2026-04-03T13:09:28.999Z</time></trkpt><trkpt lat="52.44941420953314" lon="12.891398815457451"><ele>32.0</ele><time>2026-04-03T13:09:30.999Z</time></trkpt><trkpt lat="52.449530175521076" lon="12.891469717158115"><ele>32.0</ele><time>2026-04-03T13:09:32.999Z</time></trkpt><trkpt lat="52.449640480757154" lon="12.891545393442781"><ele>32.0</ele><time>2026-04-03T13:09:34.999Z</time></trkpt><trkpt lat="52.449700342047954" lon="12.891587112918648"><ele>31.8</ele><time>2026-04-03T13:09:35.999Z</time></trkpt><trkpt lat="52.44979537538385" lon="12.891661489672854"><ele>31.6</ele><time>2026-04-03T13:09:37.999Z</time></trkpt><trkpt lat="52.44989088672802" lon="12.891748341339866"><ele>31.400000000000002</ele><time>2026-04-03T13:09:39.998Z</time></trkpt><trkpt lat="52.44996096877225" lon="12.891841704648437"><ele>31.200000000000003</ele><time>2026-04-03T13:09:41.998Z</time></trkpt><trkpt lat="52.45000935551671" lon="12.89198406204975"><ele>31.0</ele><time>2026-04-03T13:09:43.998Z</time></trkpt><trkpt lat="52.4500233389706" lon="12.892133584680517"><ele>31.333333333333336</ele><time>2026-04-03T13:09:45.998Z</time></trkpt><trkpt lat="52.45000880940705" lon="12.892242298900047"><ele>31.666666666666668</ele><time>2026-04-03T13:09:47.998Z</time></trkpt><trkpt lat="52.45000121818959" lon="12.892404493751366"><ele>32.0</ele><time>2026-04-03T13:09:49.998Z</time></trkpt><trkpt lat="52.449997330685534" lon="12.892542256166365"><ele>32.333333333333336</ele><time>2026-04-03T13:09:51.998Z</time></trkpt><trkpt lat="52.450041350649705" lon="12.892664925778226"><ele>32.666666666666664</ele><time>2026-04-03T13:09:54.998Z</time></trkpt><trkpt lat="52.450125362762" lon="12.892686391979845"><ele>33.0</ele><time>2026-04-03T13:09:57.998Z</time></trkpt><trkpt lat="52.45019150987774" lon="12.892756761970086"><ele>33.0</ele><time>2026-04-03T13:10:01Z</time></trkpt><trkpt lat="52.45025476040719" lon="12.89284046267281"><ele>33.0</ele><time>2026-04-03T13:10:04Z</time></trkpt><trkpt lat="52.45035478834416" lon="12.892916180276263"><ele>33.0</ele><time>2026-04-03T13:10:06Z</time></trkpt><trkpt lat="52.45042777158759" lon="12.892989880629866"><ele>33.0</ele><time>2026-04-03T13:10:08Z</time></trkpt><trkpt lat="52.45047075149092" lon="12.893135099875176"><ele>33.0</ele><time>2026-04-03T13:10:10Z</time></trkpt><trkpt lat="52.45046565294363" lon="12.893313330797337"><ele>32.8</ele><time>2026-04-03T13:10:12Z</time></trkpt><trkpt lat="52.450453761965086" lon="12.89350591167801"><ele>32.599999999999994</ele><time>2026-04-03T13:10:14Z</time></trkpt><trkpt lat="52.450463127642834" lon="12.893710426032023"><ele>32.400000000000006</ele><time>2026-04-03T13:10:16Z</time></trkpt><trkpt lat="52.45046900482112" lon="12.893825840106887"><ele>32.2</ele><time>2026-04-03T13:10:17Z</time></trkpt><trkpt lat="52.45047811562078" lon="12.893946889013035"><ele>32.0</ele><time>2026-04-03T13:10:18Z</time></trkpt><trkpt lat="52.45048723410833" lon="12.894051750324197"><ele>32.0</ele><time>2026-04-03T13:10:19Z</time></trkpt><trkpt lat="52.45050763335632" lon="12.894220662335965"><ele>32.0</ele><time>2026-04-03T13:10:21Z</time></trkpt><trkpt lat="52.4505455974442" lon="12.894404788199383"><ele>32.0</ele><time>2026-04-03T13:10:23Z</time></trkpt><trkpt lat="52.45062578873094" lon="12.89456177058869"><ele>32.0</ele><time>2026-04-03T13:10:25Z</time></trkpt><trkpt lat="52.450688534691054" lon="12.894624029516704"><ele>32.0</ele><time>2026-04-03T13:10:26Z</time></trkpt><trkpt lat="52.4507601019286" lon="12.894673665285689"><ele>32.0</ele><time>2026-04-03T13:10:27Z</time></trkpt><trkpt lat="52.45085282491128" lon="12.894741142353931"><ele>32.0</ele><time>2026-04-03T13:10:28Z</time></trkpt><trkpt lat="52.45094274926334" lon="12.894817577046286"><ele>32.0</ele><time>2026-04-03T13:10:29Z</time></trkpt><trkpt lat="52.45103809629316" lon="12.894909071483816"><ele>32.0</ele><time>2026-04-03T13:10:30Z</time></trkpt><trkpt lat="52.451145905765756" lon="12.89500964629249"><ele>32.0</ele><time>2026-04-03T13:10:31Z</time></trkpt><trkpt lat="52.45126013416696" lon="12.895113858076748"><ele>32.5</ele><time>2026-04-03T13:10:32Z</time></trkpt><trkpt lat="52.45137664133719" lon="12.895219231306603"><ele>33.0</ele><time>2026-04-03T13:10:33Z</time></trkpt><trkpt lat="52.45149821502042" lon="12.895327371653948"><ele>33.5</ele><time>2026-04-03T13:10:34Z</time></trkpt><trkpt lat="52.45161462287046" lon="12.895432314717901"><ele>34.0</ele><time>2026-04-03T13:10:35Z</time></trkpt><trkpt lat="52.45173267668118" lon="12.895535901409207"><ele>34.0</ele><time>2026-04-03T13:10:36Z</time></trkpt><trkpt lat="52.45185019209578" lon="12.89564042655327"><ele>34.0</ele><time>2026-04-03T13:10:37Z</time></trkpt><trkpt lat="52.451962996589074" lon="12.895743231220012"><ele>34.0</ele><time>2026-04-03T13:10:38Z</time></trkpt><trkpt lat="52.452072147488195" lon="12.8958454153561"><ele>34.0</ele><time>2026-04-03T13:10:39Z</time></trkpt><trkpt lat="52.45218017486383" lon="12.895944726288404"><ele>33.75</ele><time>2026-04-03T13:10:40Z</time></trkpt><trkpt lat="52.45229526479434" lon="12.896048024610423"><ele>33.5</ele><time>2026-04-03T13:10:41Z</time></trkpt><trkpt lat="52.452415080834506" lon="12.896154296133258"><ele>33.25</ele><time>2026-04-03T13:10:42Z</time></trkpt><trkpt lat="52.45253156293272" lon="12.896254916290946"><ele>33.0</ele><time>2026-04-03T13:10:43Z</time></trkpt><trkpt lat="52.45264353387705" lon="12.896355183102585"><ele>33.0</ele><time>2026-04-03T13:10:44Z</time></trkpt><trkpt lat="52.45275641897185" lon="12.896462090890134"><ele>33.0</ele><time>2026-04-03T13:10:45Z</time></trkpt><trkpt lat="52.452866298735586" lon="12.896559357034524"><ele>33.0</ele><time>2026-04-03T13:10:46Z</time></trkpt><trkpt lat="52.452965786062656" lon="12.89664895969825"><ele>33.0</ele><time>2026-04-03T13:10:46.999Z</time></trkpt><trkpt lat="52.45305551521389" lon="12.896729737081127"><ele>33.666666666666664</ele><time>2026-04-03T13:10:47.999Z</time></trkpt><trkpt lat="52.45314068571462" lon="12.89680831116175"><ele>34.333333333333336</ele><time>2026-04-03T13:10:48.999Z</time></trkpt><trkpt lat="52.45322087023623" lon="12.896876956295854"><ele>35.0</ele><time>2026-04-03T13:10:49.999Z</time></trkpt><trkpt lat="52.45329301847654" lon="12.89694367890487"><ele>35.66666666666667</ele><time>2026-04-03T13:10:50.999Z</time></trkpt><trkpt lat="52.45335827784009" lon="12.89701463931317"><ele>36.333333333333336</ele><time>2026-04-03T13:10:51.999Z</time></trkpt><trkpt lat="52.453416244272816" lon="12.89708988205405"><ele>37.0</ele><time>2026-04-03T13:10:52.999Z</time></trkpt><trkpt lat="52.45345663249733" lon="12.897173767262323"><ele>37.0</ele><time>2026-04-03T13:10:53.999Z</time></trkpt><trkpt lat="52.453475714896" lon="12.897272554388215"><ele>37.0</ele><time>2026-04-03T13:10:54.999Z</time></trkpt><trkpt lat="52.45350821122313" lon="12.897401228413939"><ele>37.0</ele><time>2026-04-03T13:10:55.999Z</time></trkpt><trkpt lat="52.45351752512798" lon="12.897554632615464"><ele>37.0</ele><time>2026-04-03T13:10:56.999Z</time></trkpt><trkpt lat="52.45352105165178" lon="12.897726263949236"><ele>37.0</ele><time>2026-04-03T13:10:57.999Z</time></trkpt><trkpt lat="52.453536152069965" lon="12.897884783360363"><ele>37.0</ele><time>2026-04-03T13:10:58.999Z</time></trkpt><trkpt lat="52.453545065265324" lon="12.898028320530088"><ele>36.800000000000004</ele><time>2026-04-03T13:10:59.999Z</time></trkpt><trkpt lat="52.453526172109605" lon="12.898212633646729"><ele>36.6</ele><time>2026-04-03T13:11:00.999Z</time></trkpt><trkpt lat="52.45353288007812" lon="12.898382129657943"><ele>36.400000000000006</ele><time>2026-04-03T13:11:01.999Z</time></trkpt><trkpt lat="52.45354415320933" lon="12.89856382318259"><ele>36.2</ele><time>2026-04-03T13:11:02.999Z</time></trkpt><trkpt lat="52.45356387883587" lon="12.898729901431032"><ele>36.0</ele><time>2026-04-03T13:11:03.999Z</time></trkpt><trkpt lat="52.4535748905452" lon="12.898899272293587"><ele>35.6</ele><time>2026-04-03T13:11:04.999Z</time></trkpt><trkpt lat="52.453577375923125" lon="12.899077234371884"><ele>35.2</ele><time>2026-04-03T13:11:05.999Z</time></trkpt><trkpt lat="52.45358223531844" lon="12.899249808280686"><ele>34.8</ele><time>2026-04-03T13:11:06.999Z</time></trkpt><trkpt lat="52.453566540416745" lon="12.899396275470695"><ele>34.4</ele><time>2026-04-03T13:11:07.999Z</time></trkpt><trkpt lat="52.45355913385472" lon="12.899549508504165"><ele>34.0</ele><time>2026-04-03T13:11:08.999Z</time></trkpt><trkpt lat="52.453554850250434" lon="12.899710573847699"><ele>33.8</ele><time>2026-04-03T13:11:09.999Z</time></trkpt><trkpt lat="52.45355071530036" lon="12.899894979538187"><ele>33.599999999999994</ele><time>2026-04-03T13:11:10.999Z</time></trkpt><trkpt lat="52.4535560984814" lon="12.900073651517353"><ele>33.4</ele><time>2026-04-03T13:11:11.999Z</time></trkpt><trkpt lat="52.453557644351044" lon="12.900238664999966"><ele>33.199999999999996</ele><time>2026-04-03T13:11:12.999Z</time></trkpt><trkpt lat="52.45356918616371" lon="12.900426498743046"><ele>33.0</ele><time>2026-04-03T13:11:13.999Z</time></trkpt><trkpt lat="52.45356785246505" lon="12.900609748607414"><ele>32.8</ele><time>2026-04-03T13:11:14.999Z</time></trkpt><trkpt lat="52.45356327938188" lon="12.900782228180947"><ele>32.599999999999994</ele><time>2026-04-03T13:11:15.999Z</time></trkpt><trkpt lat="52.45355626532883" lon="12.900935373344657"><ele>32.400000000000006</ele><time>2026-04-03T13:11:16.999Z</time></trkpt><trkpt lat="52.45354238264045" lon="12.90108517113301"><ele>32.2</ele><time>2026-04-03T13:11:17.999Z</time></trkpt><trkpt lat="52.45353360307474" lon="12.901235926908898"><ele>32.0</ele><time>2026-04-03T13:11:18.999Z</time></trkpt><trkpt lat="52.4535222123597" lon="12.901363923192353"><ele>32.0</ele><time>2026-04-03T13:11:19.999Z</time></trkpt><trkpt lat="52.45350889963621" lon="12.901499080517764"><ele>32.0</ele><time>2026-04-03T13:11:20.999Z</time></trkpt><trkpt lat="52.45349007416968" lon="12.901642673812084"><ele>32.0</ele><time>2026-04-03T13:11:21.999Z</time></trkpt><trkpt lat="52.453490505642364" lon="12.901810609331587"><ele>32.0</ele><time>2026-04-03T13:11:22.999Z</time></trkpt><trkpt lat="52.4534828951354" lon="12.901974788776005"><ele>32.0</ele><time>2026-04-03T13:11:23.999Z</time></trkpt><trkpt lat="52.453472936172126" lon="12.902136746019334"><ele>32.2</ele><time>2026-04-03T13:11:24.999Z</time></trkpt><trkpt lat="52.453459079736305" lon="12.902288693513604"><ele>32.400000000000006</ele><time>2026-04-03T13:11:25.999Z</time></trkpt><trkpt lat="52.45345153166766" lon="12.90245055394934"><ele>32.599999999999994</ele><time>2026-04-03T13:11:26.999Z</time></trkpt><trkpt lat="52.4534513808561" lon="12.902621404947189"><ele>32.8</ele><time>2026-04-03T13:11:27.999Z</time></trkpt><trkpt lat="52.45344689895085" lon="12.902791912848482"><ele>33.0</ele><time>2026-04-03T13:11:28.999Z</time></trkpt><trkpt lat="52.45345020092533" lon="12.902966633279716"><ele>33.199999999999996</ele><time>2026-04-03T13:11:29.999Z</time></trkpt><trkpt lat="52.45345399486236" lon="12.90312936615803"><ele>33.4</ele><time>2026-04-03T13:11:30.999Z</time></trkpt><trkpt lat="52.45345305808691" lon="12.903268956958877"><ele>33.599999999999994</ele><time>2026-04-03T13:11:31.999Z</time></trkpt><trkpt lat="52.45345058458509" lon="12.90342573381467"><ele>33.8</ele><time>2026-04-03T13:11:32.999Z</time></trkpt><trkpt lat="52.453449742228706" lon="12.90359349282307"><ele>34.0</ele><time>2026-04-03T13:11:33.999Z</time></trkpt><trkpt lat="52.4534504915906" lon="12.903735114263041"><ele>34.0</ele><time>2026-04-03T13:11:34.999Z</time></trkpt><trkpt lat="52.4534494191495" lon="12.903860403354688"><ele>34.0</ele><time>2026-04-03T13:11:35.999Z</time></trkpt><trkpt lat="52.45344355582807" lon="12.903986395288033"><ele>34.0</ele><time>2026-04-03T13:11:36.999Z</time></trkpt><trkpt lat="52.453442724733954" lon="12.904134743590477"><ele>34.0</ele><time>2026-04-03T13:11:37.999Z</time></trkpt><trkpt lat="52.453441650493886" lon="12.904273190049347"><ele>34.0</ele><time>2026-04-03T13:11:38.999Z</time></trkpt><trkpt lat="52.45343860923249" lon="12.904385679150014"><ele>34.0</ele><time>2026-04-03T13:11:39.999Z</time></trkpt><trkpt lat="52.453430555201855" lon="12.904566356913675"><ele>34.0</ele><time>2026-04-03T13:11:41.999Z</time></trkpt><trkpt lat="52.45338689787387" lon="12.904731524065248"><ele>34.0</ele><time>2026-04-03T13:11:43.998Z</time></trkpt><trkpt lat="52.45333320771016" lon="12.904810181048106"><ele>34.0</ele><time>2026-04-03T13:11:44.998Z</time></trkpt><trkpt lat="52.45328218157469" lon="12.904874582389546"><ele>34.0</ele><time>2026-04-03T13:11:45.998Z</time></trkpt><trkpt lat="52.45324850832368" lon="12.905047873439681"><ele>34.0</ele><time>2026-04-03T13:11:47.998Z</time></trkpt><trkpt lat="52.45325881162197" lon="12.905153417023566"><ele>34.0</ele><time>2026-04-03T13:11:48.998Z</time></trkpt><trkpt lat="52.45327188690726" lon="12.90527518036158"><ele>33.99999999999999</ele><time>2026-04-03T13:11:49.998Z</time></trkpt><trkpt lat="52.45327305516242" lon="12.905381099890715"><ele>34.0</ele><time>2026-04-03T13:11:50.998Z</time></trkpt><trkpt lat="52.45325457320911" lon="12.905484468230199"><ele>34.0</ele><time>2026-04-03T13:11:51.998Z</time></trkpt><trkpt lat="52.453217281260784" lon="12.905596071903464"><ele>34.0</ele><time>2026-04-03T13:11:52.998Z</time></trkpt><trkpt lat="52.453184476313275" lon="12.90568951029511"><ele>34.0</ele><time>2026-04-03T13:11:53.998Z</time></trkpt><trkpt lat="52.453172286934105" lon="12.905796449902537"><ele>33.99999999999999</ele><time>2026-04-03T13:11:54.998Z</time></trkpt><trkpt lat="52.453169461434086" lon="12.90592228995731"><ele>34.0</ele><time>2026-04-03T13:11:55.998Z</time></trkpt><trkpt lat="52.45316927304798" lon="12.90609770769388"><ele>34.16666666666667</ele><time>2026-04-03T13:11:56.998Z</time></trkpt><trkpt lat="52.453156342343" lon="12.906262131129079"><ele>34.333333333333336</ele><time>2026-04-03T13:11:57.998Z</time></trkpt><trkpt lat="52.45314148741785" lon="12.90638803677059"><ele>34.5</ele><time>2026-04-03T13:11:58.998Z</time></trkpt><trkpt lat="52.453116675144116" lon="12.906492772572644"><ele>34.666666666666664</ele><time>2026-04-03T13:11:59.998Z</time></trkpt><trkpt lat="52.45309290642309" lon="12.906591988764642"><ele>34.83333333333333</ele><time>2026-04-03T13:12:00.998Z</time></trkpt><trkpt lat="52.45306689341922" lon="12.906752070435976"><ele>35.0</ele><time>2026-04-03T13:12:02.998Z</time></trkpt><trkpt lat="52.45303279374415" lon="12.906916210886251"><ele>35.2</ele><time>2026-04-03T13:12:04.998Z</time></trkpt><trkpt lat="52.45301019474673" lon="12.907085706299986"><ele>35.4</ele><time>2026-04-03T13:12:07Z</time></trkpt><trkpt lat="52.45301090861822" lon="12.907210736288317"><ele>35.6</ele><time>2026-04-03T13:12:08Z</time></trkpt><trkpt lat="52.45301879074516" lon="12.907354779779347"><ele>35.8</ele><time>2026-04-03T13:12:09Z</time></trkpt><trkpt lat="52.45303866182002" lon="12.907534532221497"><ele>36.0</ele><time>2026-04-03T13:12:10Z</time></trkpt><trkpt lat="52.45304807583674" lon="12.907726969435805"><ele>35.4</ele><time>2026-04-03T13:12:11Z</time></trkpt><trkpt lat="52.45303954582032" lon="12.907911270808192"><ele>34.8</ele><time>2026-04-03T13:12:12Z</time></trkpt><trkpt lat="52.45303334037934" lon="12.908093263895946"><ele>34.199999999999996</ele><time>2026-04-03T13:12:13Z</time></trkpt><trkpt lat="52.45303869597855" lon="12.908248246332857"><ele>33.6</ele><time>2026-04-03T13:12:14Z</time></trkpt><trkpt lat="52.45305100617192" lon="12.908400226486615"><ele>33.0</ele><time>2026-04-03T13:12:15Z</time></trkpt><trkpt lat="52.45306263016765" lon="12.908544558684293"><ele>32.6</ele><time>2026-04-03T13:12:16Z</time></trkpt><trkpt lat="52.45306651650919" lon="12.90866438111678"><ele>32.199999999999996</ele><time>2026-04-03T13:12:17Z</time></trkpt><trkpt lat="52.4530697104283" lon="12.908773992282324"><ele>31.8</ele><time>2026-04-03T13:12:18Z</time></trkpt><trkpt lat="52.45308547932537" lon="12.908951668904173"><ele>31.4</ele><time>2026-04-03T13:12:20Z</time></trkpt><trkpt lat="52.45308696002707" lon="12.909106176599566"><ele>31.0</ele><time>2026-04-03T13:12:22Z</time></trkpt><trkpt lat="52.45305599720021" lon="12.909312752854756"><ele>31.0</ele><time>2026-04-03T13:12:24Z</time></trkpt><trkpt lat="52.453016260122794" lon="12.909453031908498"><ele>31.0</ele><time>2026-04-03T13:12:25Z</time></trkpt><trkpt lat="52.45297711870475" lon="12.909579039161903"><ele>31.0</ele><time>2026-04-03T13:12:26Z</time></trkpt><trkpt lat="52.45294363114221" lon="12.909667415516443"><ele>31.0</ele><time>2026-04-03T13:12:27Z</time></trkpt><trkpt lat="52.4529138025123" lon="12.909850029211475"><ele>31.0</ele><time>2026-04-03T13:12:29Z</time></trkpt><trkpt lat="52.45288297817345" lon="12.910030552553284"><ele>31.8</ele><time>2026-04-03T13:12:31Z</time></trkpt><trkpt lat="52.45285275036162" lon="12.910169241333707"><ele>32.6</ele><time>2026-04-03T13:12:33Z</time></trkpt><trkpt lat="52.452818258935" lon="12.910362322245422"><ele>33.4</ele><time>2026-04-03T13:12:35Z</time></trkpt><trkpt lat="52.452792473405246" lon="12.910517608774509"><ele>34.2</ele><time>2026-04-03T13:12:36Z</time></trkpt><trkpt lat="52.45276644892746" lon="12.910692698672785"><ele>35.0</ele><time>2026-04-03T13:12:37Z</time></trkpt><trkpt lat="52.45274020437314" lon="12.910865862449167"><ele>34.0</ele><time>2026-04-03T13:12:38Z</time></trkpt><trkpt lat="52.45271221904646" lon="12.911044189333953"><ele>33.0</ele><time>2026-04-03T13:12:39Z</time></trkpt><trkpt lat="52.45269149697851" lon="12.911219533435142"><ele>32.0</ele><time>2026-04-03T13:12:40Z</time></trkpt><trkpt lat="52.452676135524975" lon="12.911407820928499"><ele>31.0</ele><time>2026-04-03T13:12:41Z</time></trkpt><trkpt lat="52.452656551864465" lon="12.91160002738311"><ele>31.0</ele><time>2026-04-03T13:12:42Z</time></trkpt><trkpt lat="52.452639716351804" lon="12.911764494714959"><ele>31.0</ele><time>2026-04-03T13:12:43Z</time></trkpt><trkpt lat="52.45262719173827" lon="12.911898572592948"><ele>31.0</ele><time>2026-04-03T13:12:44Z</time></trkpt><trkpt lat="52.45261041531652" lon="12.912027741485163"><ele>31.0</ele><time>2026-04-03T13:12:45Z</time></trkpt><trkpt lat="52.4525938045758" lon="12.912171017352598"><ele>31.0</ele><time>2026-04-03T13:12:46Z</time></trkpt><trkpt lat="52.452576020815776" lon="12.912330644415407"><ele>31.0</ele><time>2026-04-03T13:12:47Z</time></trkpt><trkpt lat="52.45256952026534" lon="12.91250097584714"><ele>31.0</ele><time>2026-04-03T13:12:48Z</time></trkpt><trkpt lat="52.45258037795224" lon="12.912676766536835"><ele>31.0</ele><time>2026-04-03T13:12:48.999Z</time></trkpt><trkpt lat="52.45260186029544" lon="12.912847147108248"><ele>31.0</ele><time>2026-04-03T13:12:49.999Z</time></trkpt><trkpt lat="52.4526260978042" lon="12.913022317885959"><ele>31.0</ele><time>2026-04-03T13:12:50.999Z</time></trkpt><trkpt lat="52.45264026435539" lon="12.913181369451475"><ele>30.833333333333336</ele><time>2026-04-03T13:12:51.999Z</time></trkpt><trkpt lat="52.45264694208507" lon="12.913327966425932"><ele>30.666666666666668</ele><time>2026-04-03T13:12:52.999Z</time></trkpt><trkpt lat="52.45265410102421" lon="12.913449388059302"><ele>30.5</ele><time>2026-04-03T13:12:53.999Z</time></trkpt><trkpt lat="52.452653979727174" lon="12.913560319328987"><ele>30.333333333333336</ele><time>2026-04-03T13:12:54.999Z</time></trkpt><trkpt lat="52.452625407178154" lon="12.913735371604744"><ele>30.166666666666668</ele><time>2026-04-03T13:12:56.999Z</time></trkpt><trkpt lat="52.452633625041905" lon="12.913864813218849"><ele>30.0</ele><time>2026-04-03T13:12:58.999Z</time></trkpt><trkpt lat="52.45273016302493" lon="12.913985063550157"><ele>30.333333333333332</ele><time>2026-04-03T13:13:00.999Z</time></trkpt><trkpt lat="52.452793144042616" lon="12.914019257214548"><ele>30.666666666666664</ele><time>2026-04-03T13:13:01.999Z</time></trkpt><trkpt lat="52.45285591758704" lon="12.914038750639882"><ele>31.0</ele><time>2026-04-03T13:13:02.999Z</time></trkpt><trkpt lat="52.45293329697029" lon="12.914047127318796"><ele>31.333333333333332</ele><time>2026-04-03T13:13:03.999Z</time></trkpt><trkpt lat="52.45301861936295" lon="12.914062707050126"><ele>31.666666666666664</ele><time>2026-04-03T13:13:04.999Z</time></trkpt><trkpt lat="52.45310395221838" lon="12.91408725575391"><ele>32.0</ele><time>2026-04-03T13:13:05.999Z</time></trkpt><trkpt lat="52.4531868624182" lon="12.914113979773354"><ele>31.999999999999996</ele><time>2026-04-03T13:13:06.999Z</time></trkpt><trkpt lat="52.45326849048612" lon="12.914131860238655"><ele>32.0</ele><time>2026-04-03T13:13:07.999Z</time></trkpt><trkpt lat="52.4533445404136" lon="12.914152612181264"><ele>32.0</ele><time>2026-04-03T13:13:08.999Z</time></trkpt><trkpt lat="52.45341539457522" lon="12.914169677585765"><ele>32.0</ele><time>2026-04-03T13:13:09.999Z</time></trkpt><trkpt lat="52.453490730113515" lon="12.914189015680192"><ele>31.999999999999996</ele><time>2026-04-03T13:13:10.999Z</time></trkpt><trkpt lat="52.45357938429113" lon="12.914208085016938"><ele>32.0</ele><time>2026-04-03T13:13:11.999Z</time></trkpt><trkpt lat="52.45366678927685" lon="12.914225164796335"><ele>31.999999999999996</ele><time>2026-04-03T13:13:12.999Z</time></trkpt><trkpt lat="52.453739826856946" lon="12.914247248638498"><ele>32.0</ele><time>2026-04-03T13:13:13.999Z</time></trkpt><trkpt lat="52.453821143220935" lon="12.914261610518716"><ele>32.0</ele><time>2026-04-03T13:13:14.999Z</time></trkpt><trkpt lat="52.453900767242175" lon="12.914277592601946"><ele>32.0</ele><time>2026-04-03T13:13:15.999Z</time></trkpt><trkpt lat="52.453981175335535" lon="12.9142988318843"><ele>31.999999999999996</ele><time>2026-04-03T13:13:16.999Z</time></trkpt><trkpt lat="52.454054120748985" lon="12.914315364960736"><ele>32.0</ele><time>2026-04-03T13:13:17.999Z</time></trkpt><trkpt lat="52.45413073424209" lon="12.91433075252209"><ele>31.6</ele><time>2026-04-03T13:13:18.999Z</time></trkpt><trkpt lat="52.45421119130216" lon="12.91435546803887"><ele>31.200000000000003</ele><time>2026-04-03T13:13:19.999Z</time></trkpt><trkpt lat="52.45428594885399" lon="12.914374835998673"><ele>30.8</ele><time>2026-04-03T13:13:20.999Z</time></trkpt><trkpt lat="52.45439890770385" lon="12.914397955733461"><ele>30.4</ele><time>2026-04-03T13:13:22.999Z</time></trkpt><trkpt lat="52.45450927875305" lon="12.914426575235234"><ele>30.0</ele><time>2026-04-03T13:13:24.999Z</time></trkpt><trkpt lat="52.45461322973612" lon="12.914454241231875"><ele>30.2</ele><time>2026-04-03T13:13:26.999Z</time></trkpt><trkpt lat="52.45471763241642" lon="12.914563859488704"><ele>30.4</ele><time>2026-04-03T13:13:28.999Z</time></trkpt><trkpt lat="52.45477960257944" lon="12.914667297135864"><ele>30.6</ele><time>2026-04-03T13:13:29.999Z</time></trkpt><trkpt lat="52.45483385072346" lon="12.914780812146592"><ele>30.8</ele><time>2026-04-03T13:13:30.999Z</time></trkpt><trkpt lat="52.4548727785307" lon="12.914911019793493"><ele>31.0</ele><time>2026-04-03T13:13:31.999Z</time></trkpt><trkpt lat="52.45490344978621" lon="12.915046912862158"><ele>30.6</ele><time>2026-04-03T13:13:32.999Z</time></trkpt><trkpt lat="52.454927155510056" lon="12.915180024423897"><ele>30.200000000000003</ele><time>2026-04-03T13:13:33.999Z</time></trkpt><trkpt lat="52.454933602021725" lon="12.915312892777843"><ele>29.799999999999997</ele><time>2026-04-03T13:13:34.999Z</time></trkpt><trkpt lat="52.454917226953526" lon="12.915462970750756"><ele>29.4</ele><time>2026-04-03T13:13:35.999Z</time></trkpt><trkpt lat="52.45488991870025" lon="12.915613880430481"><ele>29.0</ele><time>2026-04-03T13:13:36.999Z</time></trkpt><trkpt lat="52.45485887305094" lon="12.915767857849321"><ele>28.833333333333332</ele><time>2026-04-03T13:13:37.999Z</time></trkpt><trkpt lat="52.4548296458741" lon="12.915908192838726"><ele>28.666666666666664</ele><time>2026-04-03T13:13:38.999Z</time></trkpt><trkpt lat="52.45478958155264" lon="12.916030342515795"><ele>28.5</ele><time>2026-04-03T13:13:39.999Z</time></trkpt><trkpt lat="52.454741144640074" lon="12.916137106493231"><ele>28.333333333333336</ele><time>2026-04-03T13:13:40.999Z</time></trkpt><trkpt lat="52.454681454626446" lon="12.916238872652169"><ele>28.166666666666668</ele><time>2026-04-03T13:13:41.999Z</time></trkpt><trkpt lat="52.45461271584486" lon="12.916332122791875"><ele>28.0</ele><time>2026-04-03T13:13:42.999Z</time></trkpt><trkpt lat="52.454534374471415" lon="12.916409092127257"><ele>28.599999999999998</ele><time>2026-04-03T13:13:43.999Z</time></trkpt><trkpt lat="52.45445299663897" lon="12.916466519528326"><ele>29.199999999999996</ele><time>2026-04-03T13:13:44.998Z</time></trkpt><trkpt lat="52.454370142461556" lon="12.916524793649732"><ele>29.8</ele><time>2026-04-03T13:13:45.998Z</time></trkpt><trkpt lat="52.45428743793191" lon="12.916582539044402"><ele>30.4</ele><time>2026-04-03T13:13:46.998Z</time></trkpt><trkpt lat="52.45420318010089" lon="12.91664002068927"><ele>31.0</ele><time>2026-04-03T13:13:47.998Z</time></trkpt><trkpt lat="52.45411292076029" lon="12.91669780836549"><ele>30.6</ele><time>2026-04-03T13:13:48.998Z</time></trkpt><trkpt lat="52.454027388273815" lon="12.916760142224561"><ele>30.200000000000003</ele><time>2026-04-03T13:13:49.998Z</time></trkpt><trkpt lat="52.45394191372566" lon="12.916823112068895"><ele>29.799999999999997</ele><time>2026-04-03T13:13:50.998Z</time></trkpt><trkpt lat="52.45386171751073" lon="12.916884775392312"><ele>29.4</ele><time>2026-04-03T13:13:51.998Z</time></trkpt><trkpt lat="52.45378195504698" lon="12.916958353212042"><ele>29.0</ele><time>2026-04-03T13:13:52.998Z</time></trkpt><trkpt lat="52.45371346487101" lon="12.917048653650701"><ele>29.0</ele><time>2026-04-03T13:13:53.998Z</time></trkpt><trkpt lat="52.45366195457652" lon="12.91714272293105"><ele>29.0</ele><time>2026-04-03T13:13:54.998Z</time></trkpt><trkpt lat="52.45360992718236" lon="12.917258870423078"><ele>29.0</ele><time>2026-04-03T13:13:55.998Z</time></trkpt><trkpt lat="52.453553911305974" lon="12.917401471833474"><ele>29.0</ele><time>2026-04-03T13:13:56.998Z</time></trkpt><trkpt lat="52.45350244724364" lon="12.917553102097152"><ele>29.0</ele><time>2026-04-03T13:13:57.998Z</time></trkpt><trkpt lat="52.45345467749474" lon="12.917707070753595"><ele>29.0</ele><time>2026-04-03T13:13:58.998Z</time></trkpt><trkpt lat="52.45340678186883" lon="12.917857030296808"><ele>29.0</ele><time>2026-04-03T13:13:59.998Z</time></trkpt><trkpt lat="52.4533582311367" lon="12.917996996605043"><ele>29.0</ele><time>2026-04-03T13:14:00.998Z</time></trkpt><trkpt lat="52.453309788171815" lon="12.918141795155886"><ele>29.0</ele><time>2026-04-03T13:14:01.998Z</time></trkpt><trkpt lat="52.453262872845585" lon="12.918279928952433"><ele>29.0</ele><time>2026-04-03T13:14:02.998Z</time></trkpt><trkpt lat="52.45321558516105" lon="12.918415730013407"><ele>28.833333333333332</ele><time>2026-04-03T13:14:03.998Z</time></trkpt><trkpt lat="52.45317180976932" lon="12.918523023399468"><ele>28.666666666666664</ele><time>2026-04-03T13:14:04.998Z</time></trkpt><trkpt lat="52.45313228806606" lon="12.918626414658764"><ele>28.5</ele><time>2026-04-03T13:14:05.998Z</time></trkpt><trkpt lat="52.45310367279227" lon="12.918735823688403"><ele>28.333333333333336</ele><time>2026-04-03T13:14:06.998Z</time></trkpt><trkpt lat="52.45308029209595" lon="12.918849777631598"><ele>28.166666666666668</ele><time>2026-04-03T13:14:07.998Z</time></trkpt><trkpt lat="52.45306395928889" lon="12.91896120173105"><ele>28.0</ele><time>2026-04-03T13:14:08.998Z</time></trkpt><trkpt lat="52.453052356746774" lon="12.91909897132194"><ele>27.833333333333336</ele><time>2026-04-03T13:14:09.998Z</time></trkpt><trkpt lat="52.45304930700988" lon="12.919237136343554"><ele>27.666666666666668</ele><time>2026-04-03T13:14:10.998Z</time></trkpt><trkpt lat="52.45305755637946" lon="12.919368772000915"><ele>27.5</ele><time>2026-04-03T13:14:11.998Z</time></trkpt><trkpt lat="52.4530805820485" lon="12.919501974694853"><ele>27.333333333333336</ele><time>2026-04-03T13:14:13Z</time></trkpt><trkpt lat="52.45311522132793" lon="12.919629148098803"><ele>27.166666666666668</ele><time>2026-04-03T13:14:14Z</time></trkpt><trkpt lat="52.45315041290443" lon="12.919746555706684"><ele>27.0</ele><time>2026-04-03T13:14:15Z</time></trkpt><trkpt lat="52.45318347742612" lon="12.919864504025286"><ele>27.0</ele><time>2026-04-03T13:14:16Z</time></trkpt><trkpt lat="52.45320876559624" lon="12.920004777803753"><ele>27.000000000000004</ele><time>2026-04-03T13:14:17Z</time></trkpt><trkpt lat="52.453229875224196" lon="12.920146118186526"><ele>27.000000000000004</ele><time>2026-04-03T13:14:18Z</time></trkpt><trkpt lat="52.453260477708035" lon="12.920333216507991"><ele>27.0</ele><time>2026-04-03T13:14:20Z</time></trkpt><trkpt lat="52.45329904915739" lon="12.920523185020386"><ele>27.0</ele><time>2026-04-03T13:14:22Z</time></trkpt><trkpt lat="52.45331706386044" lon="12.920625203261416"><ele>27.142857142857142</ele><time>2026-04-03T13:14:23Z</time></trkpt><trkpt lat="52.45333486358957" lon="12.920724476934385"><ele>27.285714285714285</ele><time>2026-04-03T13:14:24Z</time></trkpt><trkpt lat="52.453352894142306" lon="12.920830243141365"><ele>27.42857142857143</ele><time>2026-04-03T13:14:25Z</time></trkpt><trkpt lat="52.45337657784178" lon="12.920936937413291"><ele>27.57142857142857</ele><time>2026-04-03T13:14:26Z</time></trkpt><trkpt lat="52.45339809309306" lon="12.921053007982625"><ele>27.714285714285715</ele><time>2026-04-03T13:14:27Z</time></trkpt><trkpt lat="52.453412936398486" lon="12.921159261704412"><ele>27.857142857142858</ele><time>2026-04-03T13:14:28Z</time></trkpt><trkpt lat="52.45343033566025" lon="12.921261973849532"><ele>28.0</ele><time>2026-04-03T13:14:29Z</time></trkpt><trkpt lat="52.45344708132355" lon="12.921372637442873"><ele>28.285714285714285</ele><time>2026-04-03T13:14:30Z</time></trkpt><trkpt lat="52.45345623875017" lon="12.921487808456217"><ele>28.57142857142857</ele><time>2026-04-03T13:14:31Z</time></trkpt><trkpt lat="52.45346494859675" lon="12.921609740972093"><ele>28.857142857142858</ele><time>2026-04-03T13:14:32Z</time></trkpt><trkpt lat="52.45347472858104" lon="12.921721117463393"><ele>29.142857142857142</ele><time>2026-04-03T13:14:33Z</time></trkpt><trkpt lat="52.45347954651839" lon="12.921842512524702"><ele>29.428571428571427</ele><time>2026-04-03T13:14:34Z</time></trkpt><trkpt lat="52.453484286674254" lon="12.92196524516849"><ele>29.714285714285715</ele><time>2026-04-03T13:14:35Z</time></trkpt><trkpt lat="52.453486081012095" lon="12.922095895599009"><ele>30.0</ele><time>2026-04-03T13:14:36Z</time></trkpt><trkpt lat="52.45348666677453" lon="12.922225237785897"><ele>30.0</ele><time>2026-04-03T13:14:37Z</time></trkpt><trkpt lat="52.45349138154751" lon="12.922354441029325"><ele>30.0</ele><time>2026-04-03T13:14:38Z</time></trkpt><trkpt lat="52.45349497009017" lon="12.922483683829398"><ele>30.0</ele><time>2026-04-03T13:14:39Z</time></trkpt><trkpt lat="52.45349295900305" lon="12.922609900861271"><ele>30.0</ele><time>2026-04-03T13:14:40Z</time></trkpt><trkpt lat="52.45349281483301" lon="12.92272318670244"><ele>30.0</ele><time>2026-04-03T13:14:41Z</time></trkpt><trkpt lat="52.45349861070605" lon="12.922826218996475"><ele>30.0</ele><time>2026-04-03T13:14:42Z</time></trkpt><trkpt lat="52.45351311019244" lon="12.922939771068604"><ele>30.0</ele><time>2026-04-03T13:14:43Z</time></trkpt><trkpt lat="52.45354231423801" lon="12.92303526395402"><ele>29.8</ele><time>2026-04-03T13:14:44Z</time></trkpt><trkpt lat="52.45364513533096" lon="12.92316908927346"><ele>29.6</ele><time>2026-04-03T13:14:46Z</time></trkpt><trkpt lat="52.45372156538616" lon="12.9232383650244"><ele>29.4</ele><time>2026-04-03T13:14:47Z</time></trkpt><trkpt lat="52.453795722195345" lon="12.923302117921383"><ele>29.2</ele><time>2026-04-03T13:14:48Z</time></trkpt><trkpt lat="52.453845704450394" lon="12.923367966976645"><ele>29.0</ele><time>2026-04-03T13:14:49Z</time></trkpt><trkpt lat="52.45389139335424" lon="12.923558047087887"><ele>29.0</ele><time>2026-04-03T13:14:51Z</time></trkpt><trkpt lat="52.45390285678223" lon="12.923689538619762"><ele>29.0</ele><time>2026-04-03T13:14:52Z</time></trkpt><trkpt lat="52.453904453135785" lon="12.923839354235088"><ele>29.0</ele><time>2026-04-03T13:14:53Z</time></trkpt><trkpt lat="52.453891896927935" lon="12.924017350989192"><ele>29.0</ele><time>2026-04-03T13:14:54Z</time></trkpt><trkpt lat="52.453882982067114" lon="12.924201723551908"><ele>29.0</ele><time>2026-04-03T13:14:55Z</time></trkpt><trkpt lat="52.4538778546029" lon="12.92436301504422"><ele>28.999999999999996</ele><time>2026-04-03T13:14:56Z</time></trkpt><trkpt lat="52.45387597831794" lon="12.924494605959627"><ele>29.0</ele><time>2026-04-03T13:14:57Z</time></trkpt><trkpt lat="52.453871983810565" lon="12.924631499738602"><ele>29.0</ele><time>2026-04-03T13:14:57.999Z</time></trkpt><trkpt lat="52.45386965352151" lon="12.924768070091275"><ele>29.0</ele><time>2026-04-03T13:14:58.999Z</time></trkpt><trkpt lat="52.45386995998294" lon="12.924917354590757"><ele>28.999999999999996</ele><time>2026-04-03T13:14:59.999Z</time></trkpt><trkpt lat="52.45386872942492" lon="12.925065368218396"><ele>29.0</ele><time>2026-04-03T13:15:00.999Z</time></trkpt><trkpt lat="52.45386599882476" lon="12.925193477647214"><ele>28.833333333333332</ele><time>2026-04-03T13:15:01.999Z</time></trkpt><trkpt lat="52.45386148568828" lon="12.925311408056054"><ele>28.666666666666664</ele><time>2026-04-03T13:15:02.999Z</time></trkpt><trkpt lat="52.453856514239355" lon="12.925433876932603"><ele>28.5</ele><time>2026-04-03T13:15:03.999Z</time></trkpt><trkpt lat="52.45385321714558" lon="12.925558641780096"><ele>28.333333333333336</ele><time>2026-04-03T13:15:04.999Z</time></trkpt><trkpt lat="52.453850480345665" lon="12.925681823470798"><ele>28.166666666666668</ele><time>2026-04-03T13:15:05.999Z</time></trkpt><trkpt lat="52.45384815053369" lon="12.925861242913257"><ele>28.0</ele><time>2026-04-03T13:15:07.999Z</time></trkpt><trkpt lat="52.453844251587746" lon="12.92603677521158"><ele>28.0</ele><time>2026-04-03T13:15:09.999Z</time></trkpt><trkpt lat="52.453846386132" lon="12.92614027702758"><ele>27.999999999999996</ele><time>2026-04-03T13:15:10.999Z</time></trkpt><trkpt lat="52.45384773564351" lon="12.92631907427125"><ele>27.999999999999996</ele><time>2026-04-03T13:15:12.999Z</time></trkpt><trkpt lat="52.45385525820042" lon="12.926513420865694"><ele>28.0</ele><time>2026-04-03T13:15:14.999Z</time></trkpt><trkpt lat="52.45386254492411" lon="12.92662518926882"><ele>28.0</ele><time>2026-04-03T13:15:15.999Z</time></trkpt><trkpt lat="52.453870376006" lon="12.926818201820227"><ele>28.0</ele><time>2026-04-03T13:15:17.999Z</time></trkpt><trkpt lat="52.45387424630212" lon="12.92692385547321"><ele>28.0</ele><time>2026-04-03T13:15:18.999Z</time></trkpt><trkpt lat="52.453882644647265" lon="12.927034019514767"><ele>28.0</ele><time>2026-04-03T13:15:19.999Z</time></trkpt><trkpt lat="52.45389291345323" lon="12.927151186667574"><ele>28.0</ele><time>2026-04-03T13:15:20.999Z</time></trkpt><trkpt lat="52.45390189044167" lon="12.927259287869854"><ele>28.0</ele><time>2026-04-03T13:15:21.999Z</time></trkpt><trkpt lat="52.453907701646926" lon="12.927364946386728"><ele>28.0</ele><time>2026-04-03T13:15:22.999Z</time></trkpt><trkpt lat="52.45391202557601" lon="12.927478620656617"><ele>28.0</ele><time>2026-04-03T13:15:23.999Z</time></trkpt><trkpt lat="52.453915381621385" lon="12.927601915664619"><ele>28.000000000000004</ele><time>2026-04-03T13:15:24.999Z</time></trkpt><trkpt lat="52.45391151497578" lon="12.927727980060176"><ele>28.0</ele><time>2026-04-03T13:15:25.999Z</time></trkpt><trkpt lat="52.453898317736" lon="12.92785696645865"><ele>28.0</ele><time>2026-04-03T13:15:26.999Z</time></trkpt><trkpt lat="52.45388142880287" lon="12.927985892726818"><ele>28.0</ele><time>2026-04-03T13:15:27.999Z</time></trkpt><trkpt lat="52.453867617876504" lon="12.928114329864327"><ele>28.000000000000004</ele><time>2026-04-03T13:15:28.999Z</time></trkpt><trkpt lat="52.453855448330025" lon="12.928255062650615"><ele>28.0</ele><time>2026-04-03T13:15:29.999Z</time></trkpt><trkpt lat="52.45384362676335" lon="12.928384219241163"><ele>28.000000000000004</ele><time>2026-04-03T13:15:30.999Z</time></trkpt><trkpt lat="52.45383115991984" lon="12.92851284218655"><ele>28.0</ele><time>2026-04-03T13:15:31.999Z</time></trkpt><trkpt lat="52.453820565854144" lon="12.928642627841576"><ele>28.0</ele><time>2026-04-03T13:15:32.999Z</time></trkpt><trkpt lat="52.45380942756461" lon="12.92877329814816"><ele>28.0</ele><time>2026-04-03T13:15:33.999Z</time></trkpt><trkpt lat="52.45379674439143" lon="12.928904619469959"><ele>28.000000000000004</ele><time>2026-04-03T13:15:34.999Z</time></trkpt><trkpt lat="52.45378423170546" lon="12.929038777180924"><ele>28.0</ele><time>2026-04-03T13:15:35.999Z</time></trkpt><trkpt lat="52.45377021934906" lon="12.92916978985764"><ele>28.166666666666668</ele><time>2026-04-03T13:15:36.999Z</time></trkpt><trkpt lat="52.45375691104189" lon="12.929302147696898"><ele>28.333333333333336</ele><time>2026-04-03T13:15:37.999Z</time></trkpt><trkpt lat="52.45374690295769" lon="12.929444759018546"><ele>28.5</ele><time>2026-04-03T13:15:38.999Z</time></trkpt><trkpt lat="52.45373520610325" lon="12.929576834445982"><ele>28.666666666666664</ele><time>2026-04-03T13:15:39.999Z</time></trkpt><trkpt lat="52.45372383317866" lon="12.929712070245476"><ele>28.833333333333332</ele><time>2026-04-03T13:15:40.999Z</time></trkpt><trkpt lat="52.45371181202529" lon="12.929838165157088"><ele>29.0</ele><time>2026-04-03T13:15:41.999Z</time></trkpt><trkpt lat="52.453695449400094" lon="12.929979566464182"><ele>28.999999999999996</ele><time>2026-04-03T13:15:42.999Z</time></trkpt><trkpt lat="52.45368339908699" lon="12.93010960707163"><ele>29.0</ele><time>2026-04-03T13:15:43.999Z</time></trkpt><trkpt lat="52.45367263244746" lon="12.930241720765071"><ele>29.0</ele><time>2026-04-03T13:15:44.999Z</time></trkpt><trkpt lat="52.4536638720065" lon="12.930368149591548"><ele>29.0</ele><time>2026-04-03T13:15:45.999Z</time></trkpt><trkpt lat="52.45365038121241" lon="12.930503410931612"><ele>28.999999999999996</ele><time>2026-04-03T13:15:46.999Z</time></trkpt><trkpt lat="52.453638038494546" lon="12.930626868063134"><ele>29.0</ele><time>2026-04-03T13:15:47.999Z</time></trkpt><trkpt lat="52.45362979822759" lon="12.93073521830395"><ele>29.000000000000004</ele><time>2026-04-03T13:15:48.999Z</time></trkpt><trkpt lat="52.453619736795666" lon="12.930846882989163"><ele>29.0</ele><time>2026-04-03T13:15:49.999Z</time></trkpt><trkpt lat="52.453608406185566" lon="12.930963475186887"><ele>29.000000000000004</ele><time>2026-04-03T13:15:50.999Z</time></trkpt><trkpt lat="52.45359658362784" lon="12.931091303564582"><ele>29.000000000000004</ele><time>2026-04-03T13:15:51.999Z</time></trkpt><trkpt lat="52.45358259800138" lon="12.931206826514016"><ele>29.0</ele><time>2026-04-03T13:15:52.999Z</time></trkpt><trkpt lat="52.45356864420919" lon="12.931324445338745"><ele>29.000000000000004</ele><time>2026-04-03T13:15:53.999Z</time></trkpt><trkpt lat="52.453555652477085" lon="12.93144880070861"><ele>29.000000000000004</ele><time>2026-04-03T13:15:54.998Z</time></trkpt><trkpt lat="52.45354155595019" lon="12.931567821748821"><ele>29.0</ele><time>2026-04-03T13:15:55.998Z</time></trkpt><trkpt lat="52.453522656457295" lon="12.931687514184777"><ele>29.0</ele><time>2026-04-03T13:15:56.998Z</time></trkpt><trkpt lat="52.45350501311462" lon="12.931806033483692"><ele>29.0</ele><time>2026-04-03T13:15:57.998Z</time></trkpt><trkpt lat="52.45348675023462" lon="12.931924069749734"><ele>29.0</ele><time>2026-04-03T13:15:58.998Z</time></trkpt><trkpt lat="52.453453655369536" lon="12.9320981273131"><ele>29.0</ele><time>2026-04-03T13:16:00.998Z</time></trkpt><trkpt lat="52.453416965905404" lon="12.932287278646841"><ele>29.0</ele><time>2026-04-03T13:16:02.998Z</time></trkpt><trkpt lat="52.45338235478867" lon="12.93247041958697"><ele>29.0</ele><time>2026-04-03T13:16:04.998Z</time></trkpt><trkpt lat="52.45333836409269" lon="12.93266720724266"><ele>29.0</ele><time>2026-04-03T13:16:06.998Z</time></trkpt><trkpt lat="52.45331480789" lon="12.932781622947319"><ele>29.0</ele><time>2026-04-03T13:16:07.998Z</time></trkpt><trkpt lat="52.45326800905386" lon="12.932944722700022"><ele>29.0</ele><time>2026-04-03T13:16:09.998Z</time></trkpt><trkpt lat="52.453238895177115" lon="12.933043315396606"><ele>28.999999999999996</ele><time>2026-04-03T13:16:10.998Z</time></trkpt><trkpt lat="52.45320866890091" lon="12.933152927729852"><ele>29.0</ele><time>2026-04-03T13:16:11.998Z</time></trkpt><trkpt lat="52.45317930263881" lon="12.933258569548546"><ele>29.0</ele><time>2026-04-03T13:16:12.998Z</time></trkpt><trkpt lat="52.45315092323698" lon="12.933361788976972"><ele>29.0</ele><time>2026-04-03T13:16:13.998Z</time></trkpt><trkpt lat="52.45310227605738" lon="12.933541768535848"><ele>28.999999999999996</ele><time>2026-04-03T13:16:15.998Z</time></trkpt><trkpt lat="52.453077246135265" lon="12.933640714677844"><ele>29.0</ele><time>2026-04-03T13:16:16.998Z</time></trkpt><trkpt lat="52.45305000501114" lon="12.933739258426176"><ele>28.999999999999996</ele><time>2026-04-03T13:16:17.998Z</time></trkpt><trkpt lat="52.453019139880276" lon="12.933841130917468"><ele>29.0</ele><time>2026-04-03T13:16:19Z</time></trkpt><trkpt lat="52.45298396232369" lon="12.933948899903978"><ele>29.0</ele><time>2026-04-03T13:16:20Z</time></trkpt><trkpt lat="52.452949074200745" lon="12.934048979191614"><ele>29.0</ele><time>2026-04-03T13:16:21Z</time></trkpt><trkpt lat="52.45291449855958" lon="12.934148202266863"><ele>28.999999999999996</ele><time>2026-04-03T13:16:22Z</time></trkpt><trkpt lat="52.452883033322586" lon="12.93424976897531"><ele>29.0</ele><time>2026-04-03T13:16:23Z</time></trkpt><trkpt lat="52.452830987016775" lon="12.934424869716375"><ele>29.333333333333332</ele><time>2026-04-03T13:16:25Z</time></trkpt><trkpt lat="52.452783155772686" lon="12.934591983061505"><ele>29.666666666666664</ele><time>2026-04-03T13:16:27Z</time></trkpt><trkpt lat="52.452730130313505" lon="12.934755046577743"><ele>30.0</ele><time>2026-04-03T13:16:29Z</time></trkpt><trkpt lat="52.45268326025452" lon="12.934849196207994"><ele>30.333333333333336</ele><time>2026-04-03T13:16:31Z</time></trkpt><trkpt lat="52.45264579186636" lon="12.934935067909827"><ele>30.666666666666668</ele><time>2026-04-03T13:16:34Z</time></trkpt><trkpt lat="52.452609849849026" lon="12.935031353283485"><ele>31.0</ele><time>2026-04-03T13:16:36Z</time></trkpt><trkpt lat="52.452578676473564" lon="12.935121271988237"><ele>31.500000000000004</ele><time>2026-04-03T13:16:38Z</time></trkpt><trkpt lat="52.45253019025394" lon="12.935198622410955"><ele>32.0</ele><time>2026-04-03T13:16:42Z</time></trkpt><trkpt lat="52.452435873697326" lon="12.93516736914447"><ele>32.5</ele><time>2026-04-03T13:17:15.999Z</time></trkpt><trkpt lat="52.45237086905644" lon="12.935160954409596"><ele>33.0</ele><time>2026-04-03T13:17:16.999Z</time></trkpt><trkpt lat="52.45225636449059" lon="12.935159804466574"><ele>33.5</ele><time>2026-04-03T13:17:18.999Z</time></trkpt><trkpt lat="52.45219315551581" lon="12.935140577254996"><ele>34.0</ele><time>2026-04-03T13:17:19.999Z</time></trkpt><trkpt lat="52.452071281315746" lon="12.935082994460991"><ele>33.8</ele><time>2026-04-03T13:17:21.999Z</time></trkpt><trkpt lat="52.451965196704585" lon="12.935025942437525"><ele>33.599999999999994</ele><time>2026-04-03T13:17:23.999Z</time></trkpt><trkpt lat="52.45184582104952" lon="12.935006898482062"><ele>33.4</ele><time>2026-04-03T13:17:25.999Z</time></trkpt><trkpt lat="52.45178234132762" lon="12.935003432777727"><ele>33.199999999999996</ele><time>2026-04-03T13:17:26.999Z</time></trkpt><trkpt lat="52.451669251044216" lon="12.93499044550128"><ele>33.0</ele><time>2026-04-03T13:17:28.999Z</time></trkpt><trkpt lat="52.45155226846133" lon="12.934945388602719"><ele>33.0</ele><time>2026-04-03T13:17:30.999Z</time></trkpt><trkpt lat="52.45142678649671" lon="12.93489041676951"><ele>33.0</ele><time>2026-04-03T13:17:32.999Z</time></trkpt><trkpt lat="52.45136026399777" lon="12.934871485501994"><ele>33.0</ele><time>2026-04-03T13:17:33.999Z</time></trkpt><trkpt lat="52.45128899209578" lon="12.934846773725166"><ele>33.0</ele><time>2026-04-03T13:17:34.999Z</time></trkpt><trkpt lat="52.451178174890956" lon="12.934803075723135"><ele>33.0</ele><time>2026-04-03T13:17:36.999Z</time></trkpt><trkpt lat="52.45106549133126" lon="12.93476637755065"><ele>33.833333333333336</ele><time>2026-04-03T13:17:38.999Z</time></trkpt><trkpt lat="52.45095279649297" lon="12.934719980807762"><ele>34.666666666666664</ele><time>2026-04-03T13:17:40.999Z</time></trkpt><trkpt lat="52.45088940574336" lon="12.934694644646983"><ele>35.5</ele><time>2026-04-03T13:17:41.999Z</time></trkpt><trkpt lat="52.45082550758104" lon="12.934672769778995"><ele>36.33333333333333</ele><time>2026-04-03T13:17:42.999Z</time></trkpt><trkpt lat="52.4507558185634" lon="12.934644180643994"><ele>37.166666666666664</ele><time>2026-04-03T13:17:43.999Z</time></trkpt><trkpt lat="52.45066550702931" lon="12.93461243396792"><ele>38.0</ele><time>2026-04-03T13:17:45.999Z</time></trkpt><trkpt lat="52.4505912102035" lon="12.93457300028124"><ele>38.0</ele><time>2026-04-03T13:17:47.999Z</time></trkpt><trkpt lat="52.450559949123075" lon="12.934393676683465"><ele>38.0</ele><time>2026-04-03T13:17:50.999Z</time></trkpt><trkpt lat="52.450571675887744" lon="12.934215557925217"><ele>38.0</ele><time>2026-04-03T13:17:52.999Z</time></trkpt><trkpt lat="52.45058594809638" lon="12.934108085144043"><ele>38.0</ele><time>2026-04-03T13:17:53.999Z</time></trkpt><trkpt lat="52.45060833656601" lon="12.934004411176046"><ele>38.0</ele><time>2026-04-03T13:17:54.999Z</time></trkpt><trkpt lat="52.4506261990052" lon="12.933900449343454"><ele>38.0</ele><time>2026-04-03T13:17:55.999Z</time></trkpt><trkpt lat="52.45064593796317" lon="12.933800908041809"><ele>37.4</ele><time>2026-04-03T13:17:56.999Z</time></trkpt><trkpt lat="52.450666518029564" lon="12.93368716506853"><ele>36.8</ele><time>2026-04-03T13:17:57.998Z</time></trkpt><trkpt lat="52.4506992030514" lon="12.93349869329802"><ele>36.2</ele><time>2026-04-03T13:17:59.998Z</time></trkpt><trkpt lat="52.45071543473376" lon="12.933298839582479"><ele>35.6</ele><time>2026-04-03T13:18:01.998Z</time></trkpt><trkpt lat="52.450712109458294" lon="12.933177458858308"><ele>35.0</ele><time>2026-04-03T13:18:03.998Z</time></trkpt><trkpt lat="52.45062509102098" lon="12.933093277373676"><ele>34.83333333333333</ele><time>2026-04-03T13:18:05.998Z</time></trkpt><trkpt lat="52.45056179729827" lon="12.933086933330058"><ele>34.666666666666664</ele><time>2026-04-03T13:18:25Z</time></trkpt><trkpt lat="52.450447873774635" lon="12.933010866828223"><ele>34.5</ele><time>2026-04-03T13:18:28Z</time></trkpt><trkpt lat="52.450385074015884" lon="12.932967163444426"><ele>34.333333333333336</ele><time>2026-04-03T13:18:29Z</time></trkpt><trkpt lat="52.450326988080626" lon="12.932926694937935"><ele>34.16666666666667</ele><time>2026-04-03T13:18:30Z</time></trkpt><trkpt lat="52.45023313717013" lon="12.93282479875835"><ele>34.0</ele><time>2026-04-03T13:18:32Z</time></trkpt><trkpt lat="52.45018155447842" lon="12.93276219763073"><ele>34.333333333333336</ele><time>2026-04-03T13:18:33Z</time></trkpt><trkpt lat="52.4501230818726" lon="12.932698315911326"><ele>34.66666666666667</ele><time>2026-04-03T13:18:34Z</time></trkpt><trkpt lat="52.45007244413383" lon="12.932635205154593"><ele>35.0</ele><time>2026-04-03T13:18:35Z</time></trkpt><trkpt lat="52.44996533187429" lon="12.932534854626423"><ele>35.333333333333336</ele><time>2026-04-03T13:18:37Z</time></trkpt><trkpt lat="52.44990426696524" lon="12.932499981389766"><ele>35.666666666666664</ele><time>2026-04-03T13:18:38Z</time></trkpt><trkpt lat="52.44982930953631" lon="12.932500095207564"><ele>36.0</ele><time>2026-04-03T13:18:40Z</time></trkpt><trkpt lat="52.44975653374546" lon="12.932570492495518"><ele>36.6</ele><time>2026-04-03T13:18:43Z</time></trkpt><trkpt lat="52.44971124122503" lon="12.932716515226751"><ele>37.2</ele><time>2026-04-03T13:18:46Z</time></trkpt><trkpt lat="52.449716268569944" lon="12.932905422687618"><ele>37.8</ele><time>2026-04-03T13:18:48Z</time></trkpt><trkpt lat="52.44972627501582" lon="12.933086465851696"><ele>38.4</ele><time>2026-04-03T13:18:50Z</time></trkpt><trkpt lat="52.449723217274716" lon="12.933261572577717"><ele>39.0</ele><time>2026-04-03T13:18:52Z</time></trkpt><trkpt lat="52.44970133466108" lon="12.93342215342637"><ele>39.4</ele><time>2026-04-03T13:18:54Z</time></trkpt><trkpt lat="52.44967116089134" lon="12.933569285065172"><ele>39.8</ele><time>2026-04-03T13:18:56Z</time></trkpt><trkpt lat="52.4496426027774" lon="12.933728619810253"><ele>40.199999999999996</ele><time>2026-04-03T13:18:58Z</time></trkpt><trkpt lat="52.449609288396786" lon="12.933907953679581"><ele>40.599999999999994</ele><time>2026-04-03T13:19:00Z</time></trkpt><trkpt lat="52.44957807909641" lon="12.934044405961203"><ele>41.0</ele><time>2026-04-03T13:19:02Z</time></trkpt><trkpt lat="52.449521877415044" lon="12.934139558022316"><ele>40.199999999999996</ele><time>2026-04-03T13:19:04Z</time></trkpt><trkpt lat="52.449433275754465" lon="12.934155789100272"><ele>39.4</ele><time>2026-04-03T13:19:06Z</time></trkpt><trkpt lat="52.449314920322124" lon="12.934138608203705"><ele>38.6</ele><time>2026-04-03T13:19:08Z</time></trkpt><trkpt lat="52.44924981402717" lon="12.934117700069299"><ele>37.8</ele><time>2026-04-03T13:19:08.999Z</time></trkpt><trkpt lat="52.44913760984129" lon="12.934070372636178"><ele>37.0</ele><time>2026-04-03T13:19:10.999Z</time></trkpt><trkpt lat="52.449076047829486" lon="12.934047378934574"><ele>37.0</ele><time>2026-04-03T13:19:11.999Z</time></trkpt><trkpt lat="52.448958778405974" lon="12.933994357204984"><ele>37.0</ele><time>2026-04-03T13:19:13.999Z</time></trkpt><trkpt lat="52.44884619416841" lon="12.933945007338906"><ele>37.0</ele><time>2026-04-03T13:19:15.999Z</time></trkpt><trkpt lat="52.44872710563621" lon="12.933899087204823"><ele>37.0</ele><time>2026-04-03T13:19:17.999Z</time></trkpt><trkpt lat="52.44860624261483" lon="12.933848821179355"><ele>37.2</ele><time>2026-04-03T13:19:19.999Z</time></trkpt><trkpt lat="52.44848643269258" lon="12.933788052934446"><ele>37.400000000000006</ele><time>2026-04-03T13:19:21.999Z</time></trkpt><trkpt lat="52.44842557455934" lon="12.93375490995821"><ele>37.599999999999994</ele><time>2026-04-03T13:19:22.999Z</time></trkpt><trkpt lat="52.448307098339995" lon="12.933694820219895"><ele>37.8</ele><time>2026-04-03T13:19:24.999Z</time></trkpt><trkpt lat="52.448193007208005" lon="12.933655292812647"><ele>38.0</ele><time>2026-04-03T13:19:26.999Z</time></trkpt><trkpt lat="52.448131987293586" lon="12.933624099282504"><ele>38.0</ele><time>2026-04-03T13:19:27.999Z</time></trkpt><trkpt lat="52.44800298657683" lon="12.93356303610013"><ele>38.0</ele><time>2026-04-03T13:19:29.999Z</time></trkpt><trkpt lat="52.44788818377042" lon="12.933511978235302"><ele>38.0</ele><time>2026-04-03T13:19:31.999Z</time></trkpt><trkpt lat="52.447777413916185" lon="12.93344601153955"><ele>38.0</ele><time>2026-04-03T13:19:33.999Z</time></trkpt><trkpt lat="52.44772168072826" lon="12.933395400408772"><ele>38.0</ele><time>2026-04-03T13:19:34.999Z</time></trkpt><trkpt lat="52.44762370415072" lon="12.933271852271636"><ele>38.199999999999996</ele><time>2026-04-03T13:19:36.999Z</time></trkpt><trkpt lat="52.447556034386444" lon="12.9331382082814"><ele>38.4</ele><time>2026-04-03T13:19:38.999Z</time></trkpt><trkpt lat="52.44748023943441" lon="12.932997987422652"><ele>38.599999999999994</ele><time>2026-04-03T13:19:40.999Z</time></trkpt><trkpt lat="52.44740143525265" lon="12.932905345774195"><ele>38.8</ele><time>2026-04-03T13:19:42.999Z</time></trkpt><trkpt lat="52.44729791095304" lon="12.932837472351164"><ele>39.0</ele><time>2026-04-03T13:19:44.999Z</time></trkpt><trkpt lat="52.44718557423749" lon="12.932809963583571"><ele>39.4</ele><time>2026-04-03T13:19:46.999Z</time></trkpt><trkpt lat="52.44706980566098" lon="12.932770959743065"><ele>39.8</ele><time>2026-04-03T13:19:48.999Z</time></trkpt><trkpt lat="52.446959365657825" lon="12.932710245858107"><ele>40.199999999999996</ele><time>2026-04-03T13:19:50.999Z</time></trkpt><trkpt lat="52.446856435203486" lon="12.932675645276369"><ele>40.599999999999994</ele><time>2026-04-03T13:19:52.999Z</time></trkpt><trkpt lat="52.446778318825835" lon="12.932612878426362"><ele>41.0</ele><time>2026-04-03T13:19:54.999Z</time></trkpt><trkpt lat="52.446727263434184" lon="12.932498637740595"><ele>41.0</ele><time>2026-04-03T13:19:56.999Z</time></trkpt><trkpt lat="52.44671849873403" lon="12.932342226332784"><ele>41.0</ele><time>2026-04-03T13:19:58.999Z</time></trkpt><trkpt lat="52.4467211776957" lon="12.932154252556186"><ele>41.0</ele><time>2026-04-03T13:20:00.999Z</time></trkpt><trkpt lat="52.44673776147526" lon="12.931981878862349"><ele>41.0</ele><time>2026-04-03T13:20:02.999Z</time></trkpt><trkpt lat="52.4467542814968" lon="12.931797006519288"><ele>41.0</ele><time>2026-04-03T13:20:04.999Z</time></trkpt><trkpt lat="52.44676875389832" lon="12.931631011425388"><ele>41.0</ele><time>2026-04-03T13:20:06.998Z</time></trkpt><trkpt lat="52.44677713753899" lon="12.931486768405964"><ele>41.0</ele><time>2026-04-03T13:20:08.998Z</time></trkpt><trkpt lat="52.446779526017245" lon="12.931331493378982"><ele>41.0</ele><time>2026-04-03T13:20:12.998Z</time></trkpt><trkpt lat="52.44662242239299" lon="12.931486949810399"><ele>41.0</ele><time>2026-04-03T13:25:19Z</time></trkpt><trkpt lat="52.446599602563104" lon="12.931600571479638"><ele>41.0</ele><time>2026-04-03T13:25:20Z</time></trkpt><trkpt lat="52.44658354045856" lon="12.93173070367908"><ele>41.0</ele><time>2026-04-03T13:25:21Z</time></trkpt><trkpt lat="52.44656735999198" lon="12.931841076807867"><ele>41.0</ele><time>2026-04-03T13:25:22Z</time></trkpt><trkpt lat="52.44656017501961" lon="12.931957672724558"><ele>41.0</ele><time>2026-04-03T13:25:23Z</time></trkpt><trkpt lat="52.44653073631919" lon="12.932080963631837"><ele>41.0</ele><time>2026-04-03T13:25:23.999Z</time></trkpt><trkpt lat="52.4465142104528" lon="12.932222486561649"><ele>41.0</ele><time>2026-04-03T13:25:24.999Z</time></trkpt><trkpt lat="52.446491830410196" lon="12.932345660360268"><ele>41.0</ele><time>2026-04-03T13:25:25.999Z</time></trkpt><trkpt lat="52.44649064795885" lon="12.932454212856065"><ele>41.0</ele><time>2026-04-03T13:25:26.999Z</time></trkpt><trkpt lat="52.44647403141271" lon="12.932562911772651"><ele>41.0</ele><time>2026-04-03T13:25:27.999Z</time></trkpt><trkpt lat="52.446454276486904" lon="12.93267739949061"><ele>41.0</ele><time>2026-04-03T13:25:28.999Z</time></trkpt><trkpt lat="52.44643875997721" lon="12.93280126696491"><ele>41.0</ele><time>2026-04-03T13:25:29.999Z</time></trkpt><trkpt lat="52.44642117517983" lon="12.932923411701898"><ele>41.0</ele><time>2026-04-03T13:25:30.999Z</time></trkpt><trkpt lat="52.44639059015264" lon="12.933045353850142"><ele>41.0</ele><time>2026-04-03T13:25:31.999Z</time></trkpt><trkpt lat="52.446383673065945" lon="12.93318780352246"><ele>41.0</ele><time>2026-04-03T13:25:32.999Z</time></trkpt><trkpt lat="52.44636344485737" lon="12.933323014405948"><ele>41.0</ele><time>2026-04-03T13:25:33.999Z</time></trkpt><trkpt lat="52.446340591131836" lon="12.933462793265376"><ele>41.0</ele><time>2026-04-03T13:25:34.999Z</time></trkpt><trkpt lat="52.446279764189136" lon="12.933697645801427"><ele>41.0</ele><time>2026-04-03T13:25:36.999Z</time></trkpt><trkpt lat="52.44623039479014" lon="12.933825266683067"><ele>41.0</ele><time>2026-04-03T13:25:37.999Z</time></trkpt><trkpt lat="52.446168004114504" lon="12.933956181445648"><ele>41.0</ele><time>2026-04-03T13:25:38.999Z</time></trkpt><trkpt lat="52.44610820725084" lon="12.934066751803456"><ele>41.0</ele><time>2026-04-03T13:25:39.999Z</time></trkpt><trkpt lat="52.446049961888384" lon="12.934171426812455"><ele>41.0</ele><time>2026-04-03T13:25:40.999Z</time></trkpt><trkpt lat="52.446008513734924" lon="12.934282639993459"><ele>41.0</ele><time>2026-04-03T13:25:41.999Z</time></trkpt><trkpt lat="52.44595488645529" lon="12.934363900966675"><ele>41.0</ele><time>2026-04-03T13:25:42.999Z</time></trkpt><trkpt lat="52.44591074286455" lon="12.93445791438206"><ele>41.0</ele><time>2026-04-03T13:25:43.999Z</time></trkpt><trkpt lat="52.445868937963425" lon="12.934554589572175"><ele>41.0</ele><time>2026-04-03T13:25:44.999Z</time></trkpt><trkpt lat="52.44581986591045" lon="12.934663271444842"><ele>41.0</ele><time>2026-04-03T13:25:45.999Z</time></trkpt><trkpt lat="52.44575507717691" lon="12.934733237362291"><ele>41.0</ele><time>2026-04-03T13:25:46.999Z</time></trkpt><trkpt lat="52.445704761651236" lon="12.934835182460514"><ele>41.0</ele><time>2026-04-03T13:25:47.999Z</time></trkpt><trkpt lat="52.445645065515016" lon="12.93494452707101"><ele>41.0</ele><time>2026-04-03T13:25:48.999Z</time></trkpt><trkpt lat="52.44559100817865" lon="12.935045270468153"><ele>41.0</ele><time>2026-04-03T13:25:49.999Z</time></trkpt><trkpt lat="52.44553993737234" lon="12.93511728519763"><ele>41.599999999999994</ele><time>2026-04-03T13:25:50.999Z</time></trkpt><trkpt lat="52.445459498976334" lon="12.935248810096564"><ele>42.2</ele><time>2026-04-03T13:25:52.999Z</time></trkpt><trkpt lat="52.44536491267428" lon="12.935387611901573"><ele>42.8</ele><time>2026-04-03T13:25:54.999Z</time></trkpt><trkpt lat="52.44529527489056" lon="12.935469853550103"><ele>43.400000000000006</ele><time>2026-04-03T13:25:55.999Z</time></trkpt><trkpt lat="52.445229220415236" lon="12.93553646823436"><ele>44.0</ele><time>2026-04-03T13:25:56.999Z</time></trkpt><trkpt lat="52.445150422129295" lon="12.935655970412215"><ele>44.0</ele><time>2026-04-03T13:25:58.999Z</time></trkpt><trkpt lat="52.445085150358544" lon="12.935703947212758"><ele>44.0</ele><time>2026-04-03T13:25:59.999Z</time></trkpt><trkpt lat="52.445016016409944" lon="12.935781984007038"><ele>44.0</ele><time>2026-04-03T13:26:00.999Z</time></trkpt><trkpt lat="52.44495435711795" lon="12.935884394317412"><ele>44.0</ele><time>2026-04-03T13:26:01.999Z</time></trkpt><trkpt lat="52.44489001058241" lon="12.935962783831163"><ele>44.0</ele><time>2026-04-03T13:26:02.999Z</time></trkpt><trkpt lat="52.44481955567122" lon="12.936015953092165"><ele>44.0</ele><time>2026-04-03T13:26:03.999Z</time></trkpt><trkpt lat="52.444761408271" lon="12.936085926773835"><ele>43.666666666666664</ele><time>2026-04-03T13:26:04.999Z</time></trkpt><trkpt lat="52.444699237940306" lon="12.936160741580391"><ele>43.33333333333333</ele><time>2026-04-03T13:26:05.999Z</time></trkpt><trkpt lat="52.444637914901" lon="12.936254874830809"><ele>43.0</ele><time>2026-04-03T13:26:06.999Z</time></trkpt><trkpt lat="52.444581359117755" lon="12.936328895575494"><ele>42.666666666666664</ele><time>2026-04-03T13:26:07.999Z</time></trkpt><trkpt lat="52.444487184243265" lon="12.936412439816602"><ele>42.333333333333336</ele><time>2026-04-03T13:26:09.999Z</time></trkpt><trkpt lat="52.44443056795565" lon="12.936515631602216"><ele>42.0</ele><time>2026-04-03T13:26:11.999Z</time></trkpt><trkpt lat="52.44435810317553" lon="12.936582970129315"><ele>42.0</ele><time>2026-04-03T13:26:13.999Z</time></trkpt><trkpt lat="52.44425493426112" lon="12.936712290032597"><ele>42.0</ele><time>2026-04-03T13:26:15.999Z</time></trkpt><trkpt lat="52.444176217743376" lon="12.936802267871666"><ele>42.0</ele><time>2026-04-03T13:26:16.999Z</time></trkpt><trkpt lat="52.44410535373669" lon="12.93688518327455"><ele>42.0</ele><time>2026-04-03T13:26:17.999Z</time></trkpt><trkpt lat="52.444037819839686" lon="12.936964214091676"><ele>42.0</ele><time>2026-04-03T13:26:18.999Z</time></trkpt><trkpt lat="52.44396109525443" lon="12.93705446713239"><ele>41.4</ele><time>2026-04-03T13:26:19.998Z</time></trkpt><trkpt lat="52.443881402463845" lon="12.937148211744523"><ele>40.800000000000004</ele><time>2026-04-03T13:26:20.998Z</time></trkpt><trkpt lat="52.443810043047606" lon="12.93726278144088"><ele>40.2</ele><time>2026-04-03T13:26:21.998Z</time></trkpt><trkpt lat="52.44373467226608" lon="12.937349730785593"><ele>39.6</ele><time>2026-04-03T13:26:22.998Z</time></trkpt><trkpt lat="52.44366580726029" lon="12.937439451632965"><ele>39.0</ele><time>2026-04-03T13:26:23.998Z</time></trkpt><trkpt lat="52.443599318358565" lon="12.937536852728098"><ele>40.166666666666664</ele><time>2026-04-03T13:26:24.998Z</time></trkpt><trkpt lat="52.4435365762148" lon="12.937623796803427"><ele>41.333333333333336</ele><time>2026-04-03T13:26:25.998Z</time></trkpt><trkpt lat="52.443485858850146" lon="12.937708294945516"><ele>42.5</ele><time>2026-04-03T13:26:26.998Z</time></trkpt><trkpt lat="52.44342843673358" lon="12.937796879703315"><ele>43.66666666666667</ele><time>2026-04-03T13:26:27.998Z</time></trkpt><trkpt lat="52.44336883940565" lon="12.93788093506836"><ele>44.833333333333336</ele><time>2026-04-03T13:26:28.998Z</time></trkpt><trkpt lat="52.443301788529894" lon="12.937968067207944"><ele>46.0</ele><time>2026-04-03T13:26:29.998Z</time></trkpt><trkpt lat="52.443232797521794" lon="12.93806256843095"><ele>46.0</ele><time>2026-04-03T13:26:30.998Z</time></trkpt><trkpt lat="52.44316091236312" lon="12.938157922060947"><ele>46.0</ele><time>2026-04-03T13:26:31.998Z</time></trkpt><trkpt lat="52.44308667773357" lon="12.938245361901373"><ele>46.0</ele><time>2026-04-03T13:26:32.998Z</time></trkpt><trkpt lat="52.44301183427359" lon="12.938339745640151"><ele>46.0</ele><time>2026-04-03T13:26:33.998Z</time></trkpt><trkpt lat="52.442938886923855" lon="12.938423556728923"><ele>46.0</ele><time>2026-04-03T13:26:34.998Z</time></trkpt><trkpt lat="52.442876435155576" lon="12.938502700910382"><ele>46.0</ele><time>2026-04-03T13:26:35.998Z</time></trkpt><trkpt lat="52.44281825750837" lon="12.938583668096758"><ele>46.833333333333336</ele><time>2026-04-03T13:26:36.998Z</time></trkpt><trkpt lat="52.44273996892884" lon="12.938659581396696"><ele>47.66666666666667</ele><time>2026-04-03T13:26:37.998Z</time></trkpt><trkpt lat="52.44267468878489" lon="12.938741073491322"><ele>48.5</ele><time>2026-04-03T13:26:38.998Z</time></trkpt><trkpt lat="52.44261532540235" lon="12.938827123314136"><ele>49.333333333333336</ele><time>2026-04-03T13:26:39.998Z</time></trkpt><trkpt lat="52.44255537440385" lon="12.938913183359046"><ele>50.166666666666664</ele><time>2026-04-03T13:26:40.998Z</time></trkpt><trkpt lat="52.44249565838934" lon="12.938989304637053"><ele>51.0</ele><time>2026-04-03T13:26:41.998Z</time></trkpt><trkpt lat="52.44243342491889" lon="12.939071379945666"><ele>51.0</ele><time>2026-04-03T13:26:42.998Z</time></trkpt><trkpt lat="52.44237353220625" lon="12.939155221865581"><ele>51.0</ele><time>2026-04-03T13:26:43.998Z</time></trkpt><trkpt lat="52.44231502807803" lon="12.939232434671755"><ele>51.0</ele><time>2026-04-03T13:26:44.998Z</time></trkpt><trkpt lat="52.44225342548096" lon="12.939313052105517"><ele>51.0</ele><time>2026-04-03T13:26:45.998Z</time></trkpt><trkpt lat="52.44218437985105" lon="12.93938819018031"><ele>51.0</ele><time>2026-04-03T13:26:46.998Z</time></trkpt><trkpt lat="52.442107097017335" lon="12.939469977649855"><ele>51.0</ele><time>2026-04-03T13:26:47.998Z</time></trkpt><trkpt lat="52.44204273223383" lon="12.939564215563907"><ele>51.0</ele><time>2026-04-03T13:26:49Z</time></trkpt><trkpt lat="52.44196423454543" lon="12.939625971294774"><ele>51.0</ele><time>2026-04-03T13:26:50Z</time></trkpt><trkpt lat="52.441887419524626" lon="12.939707785184586"><ele>51.0</ele><time>2026-04-03T13:26:51Z</time></trkpt><trkpt lat="52.44181455172417" lon="12.939785394969174"><ele>51.0</ele><time>2026-04-03T13:26:52Z</time></trkpt><trkpt lat="52.441737251434" lon="12.939875208869216"><ele>51.0</ele><time>2026-04-03T13:26:53Z</time></trkpt><trkpt lat="52.441668016343996" lon="12.93996897930635"><ele>51.0</ele><time>2026-04-03T13:26:54Z</time></trkpt><trkpt lat="52.441587227100996" lon="12.94003063777004"><ele>51.0</ele><time>2026-04-03T13:26:55Z</time></trkpt><trkpt lat="52.44150486967448" lon="12.940127492923395"><ele>51.0</ele><time>2026-04-03T13:26:56Z</time></trkpt><trkpt lat="52.44142365355169" lon="12.94022300586364"><ele>51.0</ele><time>2026-04-03T13:26:57Z</time></trkpt><trkpt lat="52.44134472600324" lon="12.940315827350222"><ele>51.0</ele><time>2026-04-03T13:26:58Z</time></trkpt><trkpt lat="52.44126780174606" lon="12.940406292899944"><ele>50.4</ele><time>2026-04-03T13:26:59Z</time></trkpt><trkpt lat="52.44120005088399" lon="12.940517892084463"><ele>49.8</ele><time>2026-04-03T13:27:00Z</time></trkpt><trkpt lat="52.441121716257285" lon="12.940597481348181"><ele>49.199999999999996</ele><time>2026-04-03T13:27:01Z</time></trkpt><trkpt lat="52.44104424659487" lon="12.940691659379942"><ele>48.599999999999994</ele><time>2026-04-03T13:27:02Z</time></trkpt><trkpt lat="52.44096165999024" lon="12.940787755208195"><ele>48.0</ele><time>2026-04-03T13:27:03Z</time></trkpt><trkpt lat="52.4408741677998" lon="12.940860677967068"><ele>46.8</ele><time>2026-04-03T13:27:04Z</time></trkpt><trkpt lat="52.440796558116226" lon="12.940940905037463"><ele>45.599999999999994</ele><time>2026-04-03T13:27:05Z</time></trkpt><trkpt lat="52.44071478957925" lon="12.940986900707315"><ele>44.400000000000006</ele><time>2026-04-03T13:27:06Z</time></trkpt><trkpt lat="52.440631185362264" lon="12.94107613911737"><ele>43.2</ele><time>2026-04-03T13:27:07Z</time></trkpt><trkpt lat="52.4405493455008" lon="12.941130817201744"><ele>42.0</ele><time>2026-04-03T13:27:08Z</time></trkpt><trkpt lat="52.44046455108394" lon="12.941203588002233"><ele>42.0</ele><time>2026-04-03T13:27:09Z</time></trkpt><trkpt lat="52.44038372733976" lon="12.941264041718537"><ele>42.0</ele><time>2026-04-03T13:27:10Z</time></trkpt><trkpt lat="52.44029649153821" lon="12.94132657855892"><ele>42.0</ele><time>2026-04-03T13:27:11Z</time></trkpt><trkpt lat="52.44021373405427" lon="12.94138136570125"><ele>42.0</ele><time>2026-04-03T13:27:12Z</time></trkpt><trkpt lat="52.44012338280597" lon="12.941438391210207"><ele>42.0</ele><time>2026-04-03T13:27:13Z</time></trkpt><trkpt lat="52.44004093687878" lon="12.941502267776617"><ele>42.0</ele><time>2026-04-03T13:27:14Z</time></trkpt><trkpt lat="52.4399559214604" lon="12.941556913831738"><ele>42.0</ele><time>2026-04-03T13:27:15Z</time></trkpt><trkpt lat="52.43987661028911" lon="12.941608912152553"><ele>42.0</ele><time>2026-04-03T13:27:16Z</time></trkpt><trkpt lat="52.439788699870434" lon="12.941662652367196"><ele>42.0</ele><time>2026-04-03T13:27:17Z</time></trkpt><trkpt lat="52.43969813877316" lon="12.941716673813618"><ele>42.0</ele><time>2026-04-03T13:27:18Z</time></trkpt><trkpt lat="52.439605474756895" lon="12.941772718059267"><ele>41.0</ele><time>2026-04-03T13:27:19Z</time></trkpt><trkpt lat="52.43950702345432" lon="12.941830880342748"><ele>40.0</ele><time>2026-04-03T13:27:20Z</time></trkpt><trkpt lat="52.43941825253562" lon="12.9418836565085"><ele>39.0</ele><time>2026-04-03T13:27:21Z</time></trkpt><trkpt lat="52.43932683139499" lon="12.941932190984327"><ele>38.0</ele><time>2026-04-03T13:27:22Z</time></trkpt><trkpt lat="52.43924071906976" lon="12.941981081035395"><ele>37.0</ele><time>2026-04-03T13:27:23Z</time></trkpt><trkpt lat="52.43915304509529" lon="12.942032763839157"><ele>37.0</ele><time>2026-04-03T13:27:24Z</time></trkpt><trkpt lat="52.43905685148443" lon="12.942085358278113"><ele>37.0</ele><time>2026-04-03T13:27:25Z</time></trkpt><trkpt lat="52.43895859409231" lon="12.942144191397423"><ele>37.0</ele><time>2026-04-03T13:27:26Z</time></trkpt><trkpt lat="52.43885346217718" lon="12.942206760159872"><ele>37.0</ele><time>2026-04-03T13:27:27Z</time></trkpt><trkpt lat="52.43874232779792" lon="12.942261974342312"><ele>37.0</ele><time>2026-04-03T13:27:28Z</time></trkpt><trkpt lat="52.438634597072365" lon="12.94231125083212"><ele>36.800000000000004</ele><time>2026-04-03T13:27:28.999Z</time></trkpt><trkpt lat="52.438525376781385" lon="12.94235261932734"><ele>36.6</ele><time>2026-04-03T13:27:29.999Z</time></trkpt><trkpt lat="52.43842463386442" lon="12.942393788447582"><ele>36.400000000000006</ele><time>2026-04-03T13:27:30.999Z</time></trkpt><trkpt lat="52.43832115792589" lon="12.942455321514668"><ele>36.2</ele><time>2026-04-03T13:27:31.999Z</time></trkpt><trkpt lat="52.43822152635313" lon="12.942506807779262"><ele>36.0</ele><time>2026-04-03T13:27:32.999Z</time></trkpt><trkpt lat="52.438124194719975" lon="12.942555359000261"><ele>36.0</ele><time>2026-04-03T13:27:33.999Z</time></trkpt><trkpt lat="52.43802070912704" lon="12.942606413889576"><ele>36.0</ele><time>2026-04-03T13:27:34.999Z</time></trkpt><trkpt lat="52.43792341478091" lon="12.942652256920027"><ele>36.0</ele><time>2026-04-03T13:27:35.999Z</time></trkpt><trkpt lat="52.437811950575636" lon="12.942689661323522"><ele>36.0</ele><time>2026-04-03T13:27:36.999Z</time></trkpt><trkpt lat="52.437704135331494" lon="12.94272378611545"><ele>36.0</ele><time>2026-04-03T13:27:37.999Z</time></trkpt><trkpt lat="52.43759363396797" lon="12.942769769922652"><ele>36.0</ele><time>2026-04-03T13:27:38.999Z</time></trkpt><trkpt lat="52.43749037987628" lon="12.942806718699261"><ele>36.0</ele><time>2026-04-03T13:27:39.999Z</time></trkpt><trkpt lat="52.43739785418558" lon="12.942838071815133"><ele>36.0</ele><time>2026-04-03T13:27:40.999Z</time></trkpt><trkpt lat="52.437313098137246" lon="12.942865082721218"><ele>36.0</ele><time>2026-04-03T13:27:41.999Z</time></trkpt><trkpt lat="52.43722423438927" lon="12.94289448554453"><ele>36.0</ele><time>2026-04-03T13:27:42.999Z</time></trkpt><trkpt lat="52.43713470917249" lon="12.94292858504757"><ele>36.4</ele><time>2026-04-03T13:27:43.999Z</time></trkpt><trkpt lat="52.43704112511202" lon="12.942960885782005"><ele>36.8</ele><time>2026-04-03T13:27:44.999Z</time></trkpt><trkpt lat="52.436944399574664" lon="12.942988768508465"><ele>37.199999999999996</ele><time>2026-04-03T13:27:45.999Z</time></trkpt><trkpt lat="52.436846440366295" lon="12.943023706110804"><ele>37.6</ele><time>2026-04-03T13:27:46.999Z</time></trkpt><trkpt lat="52.4367511699518" lon="12.94305517924836"><ele>38.0</ele><time>2026-04-03T13:27:47.999Z</time></trkpt><trkpt lat="52.43665702194266" lon="12.943083431656502"><ele>38.0</ele><time>2026-04-03T13:27:48.999Z</time></trkpt><trkpt lat="52.43655804910308" lon="12.94311267252019"><ele>38.0</ele><time>2026-04-03T13:27:49.999Z</time></trkpt><trkpt lat="52.436459039926966" lon="12.943148708005076"><ele>38.0</ele><time>2026-04-03T13:27:50.999Z</time></trkpt><trkpt lat="52.436361262205445" lon="12.94318328678678"><ele>38.0</ele><time>2026-04-03T13:27:51.999Z</time></trkpt><trkpt lat="52.43626390173173" lon="12.94321470663622"><ele>38.0</ele><time>2026-04-03T13:27:52.999Z</time></trkpt><trkpt lat="52.43616348750532" lon="12.943241361244915"><ele>38.8</ele><time>2026-04-03T13:27:53.999Z</time></trkpt><trkpt lat="52.43607145169748" lon="12.943258496196204"><ele>39.599999999999994</ele><time>2026-04-03T13:27:54.999Z</time></trkpt><trkpt lat="52.435978792999904" lon="12.943274734843337"><ele>40.400000000000006</ele><time>2026-04-03T13:27:55.999Z</time></trkpt><trkpt lat="52.43589086238317" lon="12.943283215127867"><ele>41.2</ele><time>2026-04-03T13:27:56.999Z</time></trkpt><trkpt lat="52.43580322918035" lon="12.943264165125653"><ele>42.0</ele><time>2026-04-03T13:27:57.999Z</time></trkpt><trkpt lat="52.435715346746235" lon="12.94328652145994"><ele>42.0</ele><time>2026-04-03T13:27:58.999Z</time></trkpt><trkpt lat="52.4356301002932" lon="12.943279450127292"><ele>42.0</ele><time>2026-04-03T13:27:59.999Z</time></trkpt><trkpt lat="52.43553854390113" lon="12.943274935174674"><ele>42.0</ele><time>2026-04-03T13:28:00.999Z</time></trkpt><trkpt lat="52.435446657352465" lon="12.943275196432506"><ele>42.0</ele><time>2026-04-03T13:28:01.999Z</time></trkpt><trkpt lat="52.43535764219502" lon="12.943258226081348"><ele>42.0</ele><time>2026-04-03T13:28:02.999Z</time></trkpt><trkpt lat="52.435266719594225" lon="12.943249349243978"><ele>41.833333333333336</ele><time>2026-04-03T13:28:03.999Z</time></trkpt><trkpt lat="52.43517781784673" lon="12.943246079841519"><ele>41.666666666666664</ele><time>2026-04-03T13:28:04.999Z</time></trkpt><trkpt lat="52.435093064943416" lon="12.943203599002109"><ele>41.5</ele><time>2026-04-03T13:28:05.999Z</time></trkpt><trkpt lat="52.435011168384214" lon="12.943185170765117"><ele>41.33333333333333</ele><time>2026-04-03T13:28:06.999Z</time></trkpt><trkpt lat="52.43492920343541" lon="12.943189092741308"><ele>41.166666666666664</ele><time>2026-04-03T13:28:07.999Z</time></trkpt><trkpt lat="52.43485698619848" lon="12.943151819783983"><ele>41.0</ele><time>2026-04-03T13:28:08.999Z</time></trkpt><trkpt lat="52.43479329170925" lon="12.943127093212281"><ele>41.0</ele><time>2026-04-03T13:28:09.999Z</time></trkpt><trkpt lat="52.43473001760203" lon="12.94307495875762"><ele>41.0</ele><time>2026-04-03T13:28:10.999Z</time></trkpt><trkpt lat="52.4346625825794" lon="12.94304210101659"><ele>41.0</ele><time>2026-04-03T13:28:11.999Z</time></trkpt><trkpt lat="52.43456250186388" lon="12.943007526643363"><ele>41.0</ele><time>2026-04-03T13:28:13.999Z</time></trkpt><trkpt lat="52.43446959952311" lon="12.94297427043013"><ele>41.0</ele><time>2026-04-03T13:28:15.999Z</time></trkpt><trkpt lat="52.43437154065339" lon="12.942933426961424"><ele>41.0</ele><time>2026-04-03T13:28:17.999Z</time></trkpt><trkpt lat="52.43428101167681" lon="12.942897076047519"><ele>40.4</ele><time>2026-04-03T13:28:19.999Z</time></trkpt><trkpt lat="52.43421572156161" lon="12.94286727033059"><ele>39.8</ele><time>2026-04-03T13:28:21.999Z</time></trkpt><trkpt lat="52.43414245104118" lon="12.942886231746892"><ele>39.199999999999996</ele><time>2026-04-03T13:28:25.999Z</time></trkpt><trkpt lat="52.43414149562719" lon="12.943133324366457"><ele>38.599999999999994</ele><time>2026-04-03T13:28:28.998Z</time></trkpt><trkpt lat="52.434169782096696" lon="12.943266417892266"><ele>38.0</ele><time>2026-04-03T13:28:29.998Z</time></trkpt><trkpt lat="52.43419011508151" lon="12.943423848591959"><ele>37.6</ele><time>2026-04-03T13:28:30.998Z</time></trkpt><trkpt lat="52.434202781547306" lon="12.94360125465336"><ele>37.199999999999996</ele><time>2026-04-03T13:28:31.998Z</time></trkpt><trkpt lat="52.43420198833757" lon="12.943792270337413"><ele>36.8</ele><time>2026-04-03T13:28:32.998Z</time></trkpt><trkpt lat="52.43419534688672" lon="12.943971581838586"><ele>36.4</ele><time>2026-04-03T13:28:33.998Z</time></trkpt><trkpt lat="52.434181260435984" lon="12.944144748082834"><ele>36.0</ele><time>2026-04-03T13:28:34.998Z</time></trkpt><trkpt lat="52.43416523285112" lon="12.944309696206147"><ele>35.8</ele><time>2026-04-03T13:28:35.998Z</time></trkpt><trkpt lat="52.43415316796463" lon="12.944483781698061"><ele>35.6</ele><time>2026-04-03T13:28:36.998Z</time></trkpt><trkpt lat="52.43414145958371" lon="12.944654824791181"><ele>35.4</ele><time>2026-04-03T13:28:37.998Z</time></trkpt><trkpt lat="52.43412726177837" lon="12.944823213547627"><ele>35.2</ele><time>2026-04-03T13:28:38.998Z</time></trkpt><trkpt lat="52.43411365833358" lon="12.944990934957836"><ele>35.0</ele><time>2026-04-03T13:28:39.998Z</time></trkpt><trkpt lat="52.43409684964293" lon="12.945160327978332"><ele>34.2</ele><time>2026-04-03T13:28:40.998Z</time></trkpt><trkpt lat="52.43408158096611" lon="12.945326892885703"><ele>33.4</ele><time>2026-04-03T13:28:41.998Z</time></trkpt><trkpt lat="52.43406630405151" lon="12.945498535043495"><ele>32.6</ele><time>2026-04-03T13:28:42.998Z</time></trkpt><trkpt lat="52.434044021972014" lon="12.945674695625561"><ele>31.8</ele><time>2026-04-03T13:28:43.998Z</time></trkpt><trkpt lat="52.43402230335842" lon="12.94585181481288"><ele>31.0</ele><time>2026-04-03T13:28:44.998Z</time></trkpt><trkpt lat="52.43400480833081" lon="12.946008578330291"><ele>30.666666666666668</ele><time>2026-04-03T13:28:45.998Z</time></trkpt><trkpt lat="52.43399114599117" lon="12.946160148656983"><ele>30.333333333333336</ele><time>2026-04-03T13:28:46.998Z</time></trkpt><trkpt lat="52.433974173525456" lon="12.946307413980389"><ele>30.0</ele><time>2026-04-03T13:28:47.998Z</time></trkpt><trkpt lat="52.43395865886082" lon="12.946441944547367"><ele>29.666666666666664</ele><time>2026-04-03T13:28:48.998Z</time></trkpt><trkpt lat="52.433944000020574" lon="12.946563601579046"><ele>29.333333333333332</ele><time>2026-04-03T13:28:49.998Z</time></trkpt><trkpt lat="52.43393163057992" lon="12.946675603396471"><ele>29.0</ele><time>2026-04-03T13:28:50.998Z</time></trkpt><trkpt lat="52.43392049696648" lon="12.946781639167808"><ele>28.999999999999996</ele><time>2026-04-03T13:28:51.998Z</time></trkpt><trkpt lat="52.43390592245786" lon="12.946884500826583"><ele>29.0</ele><time>2026-04-03T13:28:52.998Z</time></trkpt><trkpt lat="52.43387477767196" lon="12.947085032607152"><ele>29.0</ele><time>2026-04-03T13:28:55Z</time></trkpt><trkpt lat="52.43386132905231" lon="12.947199870889257"><ele>29.0</ele><time>2026-04-03T13:28:56Z</time></trkpt><trkpt lat="52.43385149214378" lon="12.947310123533269"><ele>28.999999999999996</ele><time>2026-04-03T13:28:57Z</time></trkpt><trkpt lat="52.433832607874365" lon="12.947498896304399"><ele>29.0</ele><time>2026-04-03T13:28:59Z</time></trkpt><trkpt lat="52.433811135282895" lon="12.947659197901979"><ele>29.333333333333332</ele><time>2026-04-03T13:29:01Z</time></trkpt><trkpt lat="52.433802341483535" lon="12.947763168100789"><ele>29.666666666666664</ele><time>2026-04-03T13:29:03Z</time></trkpt><trkpt lat="52.433789155194205" lon="12.947874268776486"><ele>30.0</ele><time>2026-04-03T13:29:06Z</time></trkpt><trkpt lat="52.43377504168857" lon="12.947997918148191"><ele>30.333333333333336</ele><time>2026-04-03T13:29:10Z</time></trkpt><trkpt lat="52.43376521424042" lon="12.948110860941936"><ele>30.666666666666668</ele><time>2026-04-03T13:29:12Z</time></trkpt><trkpt lat="52.43375220495874" lon="12.948299885388616"><ele>31.0</ele><time>2026-04-03T13:29:14Z</time></trkpt><trkpt lat="52.433723439833855" lon="12.948506144337793"><ele>31.166666666666668</ele><time>2026-04-03T13:29:16Z</time></trkpt><trkpt lat="52.43372955330422" lon="12.948630757534454"><ele>31.333333333333336</ele><time>2026-04-03T13:29:17Z</time></trkpt><trkpt lat="52.433704667405095" lon="12.94875242427827"><ele>31.5</ele><time>2026-04-03T13:29:18Z</time></trkpt><trkpt lat="52.433699732990526" lon="12.948864233856748"><ele>31.666666666666664</ele><time>2026-04-03T13:29:19Z</time></trkpt><trkpt lat="52.43369567237002" lon="12.948974998573172"><ele>31.833333333333332</ele><time>2026-04-03T13:29:20Z</time></trkpt><trkpt lat="52.433690695368405" lon="12.949109554313912"><ele>32.0</ele><time>2026-04-03T13:29:21Z</time></trkpt><trkpt lat="52.43368510492987" lon="12.94924888250163"><ele>31.999999999999996</ele><time>2026-04-03T13:29:22Z</time></trkpt><trkpt lat="52.43367921925894" lon="12.949395568629962"><ele>32.0</ele><time>2026-04-03T13:29:23Z</time></trkpt><trkpt lat="52.43367368489785" lon="12.94954143220249"><ele>32.0</ele><time>2026-04-03T13:29:24Z</time></trkpt><trkpt lat="52.433684486664895" lon="12.949688391323678"><ele>32.0</ele><time>2026-04-03T13:29:25Z</time></trkpt><trkpt lat="52.43367565179599" lon="12.949833525449337"><ele>31.999999999999996</ele><time>2026-04-03T13:29:26Z</time></trkpt><trkpt lat="52.43366101244265" lon="12.949980571372725"><ele>32.0</ele><time>2026-04-03T13:29:27Z</time></trkpt><trkpt lat="52.43364064956373" lon="12.950126678884965"><ele>32.0</ele><time>2026-04-03T13:29:28Z</time></trkpt><trkpt lat="52.43362171978308" lon="12.95026455516674"><ele>32.0</ele><time>2026-04-03T13:29:29Z</time></trkpt><trkpt lat="52.43360140752366" lon="12.950400902755534"><ele>32.0</ele><time>2026-04-03T13:29:30Z</time></trkpt><trkpt lat="52.43358209783222" lon="12.950553675104294"><ele>32.0</ele><time>2026-04-03T13:29:31Z</time></trkpt><trkpt lat="52.43354535594241" lon="12.95069342978957"><ele>32.0</ele><time>2026-04-03T13:29:32Z</time></trkpt><trkpt lat="52.433520066105785" lon="12.950841809070006"><ele>31.8</ele><time>2026-04-03T13:29:33Z</time></trkpt><trkpt lat="52.43349026004393" lon="12.95099994274623"><ele>31.6</ele><time>2026-04-03T13:29:34Z</time></trkpt><trkpt lat="52.43347335148969" lon="12.951156472771611"><ele>31.400000000000002</ele><time>2026-04-03T13:29:34.999Z</time></trkpt><trkpt lat="52.43344110514059" lon="12.951314915117399"><ele>31.200000000000003</ele><time>2026-04-03T13:29:35.999Z</time></trkpt><trkpt lat="52.433409074332445" lon="12.951484861787065"><ele>31.0</ele><time>2026-04-03T13:29:36.999Z</time></trkpt><trkpt lat="52.4333677147417" lon="12.951650586684819"><ele>31.0</ele><time>2026-04-03T13:29:37.999Z</time></trkpt><trkpt lat="52.43332269347023" lon="12.951816122229017"><ele>31.0</ele><time>2026-04-03T13:29:38.999Z</time></trkpt><trkpt lat="52.43328781219548" lon="12.951990504575532"><ele>31.0</ele><time>2026-04-03T13:29:39.999Z</time></trkpt><trkpt lat="52.4332539592196" lon="12.952171820411259"><ele>31.0</ele><time>2026-04-03T13:29:40.999Z</time></trkpt><trkpt lat="52.43322198075759" lon="12.952337532091304"><ele>31.0</ele><time>2026-04-03T13:29:41.999Z</time></trkpt><trkpt lat="52.433189546821325" lon="12.952487740097656"><ele>30.6</ele><time>2026-04-03T13:29:42.999Z</time></trkpt><trkpt lat="52.43315971120285" lon="12.952642821899595"><ele>30.200000000000003</ele><time>2026-04-03T13:29:43.999Z</time></trkpt><trkpt lat="52.43312622880114" lon="12.952798728594246"><ele>29.799999999999997</ele><time>2026-04-03T13:29:44.999Z</time></trkpt><trkpt lat="52.433092877515364" lon="12.95296199113955"><ele>29.4</ele><time>2026-04-03T13:29:45.999Z</time></trkpt><trkpt lat="52.4330696444269" lon="12.953131710550256"><ele>29.0</ele><time>2026-04-03T13:29:46.999Z</time></trkpt><trkpt lat="52.433042533727175" lon="12.95325990077358"><ele>29.333333333333332</ele><time>2026-04-03T13:29:47.999Z</time></trkpt><trkpt lat="52.433020789856954" lon="12.953392899312199"><ele>29.666666666666664</ele><time>2026-04-03T13:29:48.999Z</time></trkpt><trkpt lat="52.43299878457231" lon="12.953520650582545"><ele>30.0</ele><time>2026-04-03T13:29:49.999Z</time></trkpt><trkpt lat="52.43297351867898" lon="12.953665003556182"><ele>30.333333333333336</ele><time>2026-04-03T13:29:50.999Z</time></trkpt><trkpt lat="52.43294889696163" lon="12.953815917467473"><ele>30.666666666666668</ele><time>2026-04-03T13:29:51.999Z</time></trkpt><trkpt lat="52.432929911218366" lon="12.953944146161064"><ele>31.0</ele><time>2026-04-03T13:29:52.999Z</time></trkpt><trkpt lat="52.432900045069026" lon="12.95410817811274"><ele>31.0</ele><time>2026-04-03T13:29:54.999Z</time></trkpt><trkpt lat="52.4328807766111" lon="12.954210010366687"><ele>31.0</ele><time>2026-04-03T13:29:56.999Z</time></trkpt><trkpt lat="52.43283006492197" lon="12.954320622377157"><ele>31.0</ele><time>2026-04-03T13:30:00.999Z</time></trkpt><trkpt lat="52.43297852146769" lon="12.954413331607384"><ele>31.0</ele><time>2026-04-03T13:30:02.999Z</time></trkpt><trkpt lat="52.433096027536486" lon="12.954432417401174"><ele>31.0</ele><time>2026-04-03T13:30:04.999Z</time></trkpt><trkpt lat="52.43321960578407" lon="12.954483743767133"><ele>31.0</ele><time>2026-04-03T13:30:06.999Z</time></trkpt><trkpt lat="52.43328216453782" lon="12.95451578870409"><ele>31.000000000000004</ele><time>2026-04-03T13:30:07.999Z</time></trkpt><trkpt lat="52.433345233964616" lon="12.95455072849084"><ele>31.0</ele><time>2026-04-03T13:30:08.999Z</time></trkpt><trkpt lat="52.43340767867151" lon="12.954584487849027"><ele>31.0</ele><time>2026-04-03T13:30:09.999Z</time></trkpt><trkpt lat="52.433479628961344" lon="12.954611906231008"><ele>31.000000000000004</ele><time>2026-04-03T13:30:10.999Z</time></trkpt><trkpt lat="52.433557912354495" lon="12.954636437329137"><ele>31.0</ele><time>2026-04-03T13:30:11.999Z</time></trkpt><trkpt lat="52.43363560468963" lon="12.954673707041042"><ele>31.0</ele><time>2026-04-03T13:30:12.999Z</time></trkpt><trkpt lat="52.43371207409388" lon="12.954704661935372"><ele>31.000000000000004</ele><time>2026-04-03T13:30:13.999Z</time></trkpt><trkpt lat="52.43379018194976" lon="12.954733559970705"><ele>31.0</ele><time>2026-04-03T13:30:14.999Z</time></trkpt><trkpt lat="52.433865813093824" lon="12.954771689480836"><ele>31.0</ele><time>2026-04-03T13:30:15.999Z</time></trkpt><trkpt lat="52.43393641561447" lon="12.954802584802604"><ele>31.0</ele><time>2026-04-03T13:30:16.999Z</time></trkpt><trkpt lat="52.43401242389041" lon="12.954837692357033"><ele>31.000000000000004</ele><time>2026-04-03T13:30:17.999Z</time></trkpt><trkpt lat="52.43408842793358" lon="12.954888881768724"><ele>31.0</ele><time>2026-04-03T13:30:18.999Z</time></trkpt><trkpt lat="52.434155056986974" lon="12.954921821416832"><ele>31.000000000000004</ele><time>2026-04-03T13:30:19.999Z</time></trkpt><trkpt lat="52.434268611728065" lon="12.954978155030851"><ele>31.0</ele><time>2026-04-03T13:30:21.999Z</time></trkpt><trkpt lat="52.43433320797646" lon="12.954978792363322"><ele>31.0</ele><time>2026-04-03T13:30:22.999Z</time></trkpt><trkpt lat="52.43439488144134" lon="12.955038088011554"><ele>31.0</ele><time>2026-04-03T13:30:23.999Z</time></trkpt><trkpt lat="52.434468644660974" lon="12.955052096799628"><ele>31.000000000000004</ele><time>2026-04-03T13:30:24.999Z</time></trkpt><trkpt lat="52.43453923125448" lon="12.955086166968966"><ele>31.0</ele><time>2026-04-03T13:30:25.999Z</time></trkpt><trkpt lat="52.434610173003456" lon="12.95514229995846"><ele>30.833333333333336</ele><time>2026-04-03T13:30:26.999Z</time></trkpt><trkpt lat="52.43468756869974" lon="12.95514113112168"><ele>30.666666666666668</ele><time>2026-04-03T13:30:27.999Z</time></trkpt><trkpt lat="52.43475566792834" lon="12.95518003482483"><ele>30.5</ele><time>2026-04-03T13:30:28.999Z</time></trkpt><trkpt lat="52.43483375940399" lon="12.955216993176284"><ele>30.333333333333336</ele><time>2026-04-03T13:30:29.999Z</time></trkpt><trkpt lat="52.43490876692578" lon="12.955236685163044"><ele>30.166666666666668</ele><time>2026-04-03T13:30:30.999Z</time></trkpt><trkpt lat="52.43497838665528" lon="12.955295277319044"><ele>30.0</ele><time>2026-04-03T13:30:31.999Z</time></trkpt><trkpt lat="52.435060067591" lon="12.955305497520623"><ele>30.0</ele><time>2026-04-03T13:30:32.998Z</time></trkpt><trkpt lat="52.43513401930307" lon="12.95535105871181"><ele>30.0</ele><time>2026-04-03T13:30:33.998Z</time></trkpt><trkpt lat="52.43520867491774" lon="12.955376528686907"><ele>30.0</ele><time>2026-04-03T13:30:34.998Z</time></trkpt><trkpt lat="52.435279720497185" lon="12.955387989450061"><ele>30.0</ele><time>2026-04-03T13:30:35.998Z</time></trkpt><trkpt lat="52.435348562355536" lon="12.955436806140982"><ele>30.0</ele><time>2026-04-03T13:30:36.998Z</time></trkpt><trkpt lat="52.435420922864736" lon="12.955442958147367"><ele>30.0</ele><time>2026-04-03T13:30:37.998Z</time></trkpt><trkpt lat="52.43549261037078" lon="12.955490008581162"><ele>29.833333333333332</ele><time>2026-04-03T13:30:38.998Z</time></trkpt><trkpt lat="52.43556681770108" lon="12.955508822688145"><ele>29.666666666666664</ele><time>2026-04-03T13:30:39.998Z</time></trkpt><trkpt lat="52.43564975551445" lon="12.955538709735524"><ele>29.5</ele><time>2026-04-03T13:30:40.998Z</time></trkpt><trkpt lat="52.43573093840324" lon="12.955582989198358"><ele>29.333333333333332</ele><time>2026-04-03T13:30:41.998Z</time></trkpt><trkpt lat="52.43581501517025" lon="12.955597844166055"><ele>29.166666666666664</ele><time>2026-04-03T13:30:42.998Z</time></trkpt><trkpt lat="52.435890797801115" lon="12.955644992235735"><ele>29.0</ele><time>2026-04-03T13:30:43.998Z</time></trkpt><trkpt lat="52.43597177281164" lon="12.955651141813242"><ele>28.999999999999996</ele><time>2026-04-03T13:30:44.998Z</time></trkpt><trkpt lat="52.436050871709384" lon="12.955686145728148"><ele>29.0</ele><time>2026-04-03T13:30:45.998Z</time></trkpt><trkpt lat="52.43613188361688" lon="12.955733337348013"><ele>29.0</ele><time>2026-04-03T13:30:46.998Z</time></trkpt><trkpt lat="52.43621384446012" lon="12.955735947193594"><ele>29.0</ele><time>2026-04-03T13:30:47.998Z</time></trkpt><trkpt lat="52.43629164387061" lon="12.955778492162711"><ele>28.999999999999996</ele><time>2026-04-03T13:30:48.998Z</time></trkpt><trkpt lat="52.43637560487301" lon="12.955801644041209"><ele>29.0</ele><time>2026-04-03T13:30:49.998Z</time></trkpt><trkpt lat="52.436457365425746" lon="12.955829888945255"><ele>28.833333333333332</ele><time>2026-04-03T13:30:50.998Z</time></trkpt><trkpt lat="52.43654145069422" lon="12.955863243006041"><ele>28.666666666666664</ele><time>2026-04-03T13:30:51.998Z</time></trkpt><trkpt lat="52.43662904793366" lon="12.95586778783576"><ele>28.5</ele><time>2026-04-03T13:30:52.998Z</time></trkpt><trkpt lat="52.43671568020179" lon="12.955902762635164"><ele>28.333333333333336</ele><time>2026-04-03T13:30:53.998Z</time></trkpt><trkpt lat="52.43680466172775" lon="12.955925458330968"><ele>28.166666666666668</ele><time>2026-04-03T13:30:54.998Z</time></trkpt><trkpt lat="52.436900139158965" lon="12.955940112428145"><ele>28.0</ele><time>2026-04-03T13:30:55.998Z</time></trkpt><trkpt lat="52.43699686354335" lon="12.955951602777185"><ele>28.000000000000004</ele><time>2026-04-03T13:30:56.998Z</time></trkpt><trkpt lat="52.437080253752946" lon="12.955936551183067"><ele>28.0</ele><time>2026-04-03T13:30:57.998Z</time></trkpt><trkpt lat="52.437163480272346" lon="12.955960995604135"><ele>28.0</ele><time>2026-04-03T13:30:58.998Z</time></trkpt><trkpt lat="52.43724946755438" lon="12.955946622175341"><ele>28.0</ele><time>2026-04-03T13:30:59.998Z</time></trkpt><trkpt lat="52.437331789311884" lon="12.955963426249175"><ele>28.000000000000004</ele><time>2026-04-03T13:31:01Z</time></trkpt><trkpt lat="52.43742487435432" lon="12.955963095238143"><ele>28.0</ele><time>2026-04-03T13:31:02Z</time></trkpt><trkpt lat="52.43750778544857" lon="12.955970978431756"><ele>28.000000000000004</ele><time>2026-04-03T13:31:03Z</time></trkpt><trkpt lat="52.43759248574304" lon="12.955985160003157"><ele>28.0</ele><time>2026-04-03T13:31:04Z</time></trkpt><trkpt lat="52.437678578987686" lon="12.95597385620795"><ele>28.0</ele><time>2026-04-03T13:31:05Z</time></trkpt><trkpt lat="52.43776027200847" lon="12.956002714306731"><ele>28.0</ele><time>2026-04-03T13:31:06Z</time></trkpt><trkpt lat="52.43784250691426" lon="12.955983324570248"><ele>28.000000000000004</ele><time>2026-04-03T13:31:07Z</time></trkpt><trkpt lat="52.437929387527916" lon="12.956013242351569"><ele>28.0</ele><time>2026-04-03T13:31:08Z</time></trkpt><trkpt lat="52.43801759003783" lon="12.956008060169799"><ele>28.2</ele><time>2026-04-03T13:31:09Z</time></trkpt><trkpt lat="52.43810554665729" lon="12.956017623700602"><ele>28.4</ele><time>2026-04-03T13:31:10Z</time></trkpt><trkpt lat="52.43819912541018" lon="12.95602805469078"><ele>28.599999999999998</ele><time>2026-04-03T13:31:11Z</time></trkpt><trkpt lat="52.438291578415146" lon="12.95602549208395"><ele>28.799999999999997</ele><time>2026-04-03T13:31:12Z</time></trkpt><trkpt lat="52.43838462106438" lon="12.956063639403082"><ele>29.0</ele><time>2026-04-03T13:31:13Z</time></trkpt><trkpt lat="52.4384794555927" lon="12.956061232287546"><ele>29.0</ele><time>2026-04-03T13:31:14Z</time></trkpt><trkpt lat="52.4385746479353" lon="12.956107994429738"><ele>29.0</ele><time>2026-04-03T13:31:15Z</time></trkpt><trkpt lat="52.43867528248719" lon="12.956125981653043"><ele>29.0</ele><time>2026-04-03T13:31:16Z</time></trkpt><trkpt lat="52.43877414305638" lon="12.956149019731198"><ele>29.0</ele><time>2026-04-03T13:31:17Z</time></trkpt><trkpt lat="52.43887194452708" lon="12.956199763496729"><ele>29.0</ele><time>2026-04-03T13:31:18Z</time></trkpt><trkpt lat="52.43896483735351" lon="12.956212755080914"><ele>29.2</ele><time>2026-04-03T13:31:19Z</time></trkpt><trkpt lat="52.439050601212486" lon="12.956269503604837"><ele>29.4</ele><time>2026-04-03T13:31:20Z</time></trkpt><trkpt lat="52.439139042592934" lon="12.95630841043816"><ele>29.6</ele><time>2026-04-03T13:31:21Z</time></trkpt><trkpt lat="52.43922218604993" lon="12.956375417407218"><ele>29.8</ele><time>2026-04-03T13:31:22Z</time></trkpt><trkpt lat="52.43930587556193" lon="12.9564583443766"><ele>30.0</ele><time>2026-04-03T13:31:23Z</time></trkpt><trkpt lat="52.4393915975386" lon="12.956548841837805"><ele>30.0</ele><time>2026-04-03T13:31:24Z</time></trkpt><trkpt lat="52.43948965180424" lon="12.956675257784143"><ele>30.0</ele><time>2026-04-03T13:31:25Z</time></trkpt><trkpt lat="52.439591684888576" lon="12.95679755888728"><ele>30.0</ele><time>2026-04-03T13:31:26Z</time></trkpt><trkpt lat="52.43968676212871" lon="12.956910151169419"><ele>30.0</ele><time>2026-04-03T13:31:27Z</time></trkpt><trkpt lat="52.43976869319319" lon="12.957011471122483"><ele>30.6</ele><time>2026-04-03T13:31:28Z</time></trkpt><trkpt lat="52.43984774154851" lon="12.957110326017048"><ele>31.2</ele><time>2026-04-03T13:31:29Z</time></trkpt><trkpt lat="52.43993443353931" lon="12.957208606196504"><ele>31.799999999999997</ele><time>2026-04-03T13:31:30Z</time></trkpt><trkpt lat="52.44002645499867" lon="12.957298392132016"><ele>32.4</ele><time>2026-04-03T13:31:31Z</time></trkpt><trkpt lat="52.44012018472228" lon="12.957378185008194"><ele>33.0</ele><time>2026-04-03T13:31:32Z</time></trkpt><trkpt lat="52.44021290644151" lon="12.957451905274153"><ele>33.0</ele><time>2026-04-03T13:31:33Z</time></trkpt><trkpt lat="52.44030486814563" lon="12.957529475728492"><ele>33.0</ele><time>2026-04-03T13:31:34Z</time></trkpt><trkpt lat="52.440396912776755" lon="12.957606500696922"><ele>33.0</ele><time>2026-04-03T13:31:35Z</time></trkpt><trkpt lat="52.440487835757196" lon="12.957681948106611"><ele>33.0</ele><time>2026-04-03T13:31:36Z</time></trkpt><trkpt lat="52.44057499760877" lon="12.957758401872255"><ele>33.0</ele><time>2026-04-03T13:31:37Z</time></trkpt><trkpt lat="52.44065167823176" lon="12.95781348443345"><ele>33.0</ele><time>2026-04-03T13:31:38Z</time></trkpt><trkpt lat="52.440710298611485" lon="12.957860940799197"><ele>33.0</ele><time>2026-04-03T13:31:39Z</time></trkpt><trkpt lat="52.44076021336595" lon="12.95793706136928"><ele>33.0</ele><time>2026-04-03T13:31:40.999Z</time></trkpt><trkpt lat="52.44075855027454" lon="12.958100304039524"><ele>33.0</ele><time>2026-04-03T13:31:43.999Z</time></trkpt><trkpt lat="52.44072179637765" lon="12.958313750300439"><ele>33.0</ele><time>2026-04-03T13:31:45.999Z</time></trkpt><trkpt lat="52.44069832179963" lon="12.958437212496987"><ele>33.0</ele><time>2026-04-03T13:31:46.999Z</time></trkpt><trkpt lat="52.44067061279076" lon="12.958571669116706"><ele>33.0</ele><time>2026-04-03T13:31:47.999Z</time></trkpt><trkpt lat="52.44064385707687" lon="12.958699328504972"><ele>33.0</ele><time>2026-04-03T13:31:48.999Z</time></trkpt><trkpt lat="52.44061652706457" lon="12.95882791123074"><ele>33.0</ele><time>2026-04-03T13:31:49.999Z</time></trkpt><trkpt lat="52.440592791589836" lon="12.958945771189606"><ele>33.0</ele><time>2026-04-03T13:31:50.999Z</time></trkpt><trkpt lat="52.44056430686103" lon="12.959086985516722"><ele>33.0</ele><time>2026-04-03T13:31:51.999Z</time></trkpt><trkpt lat="52.44053351500054" lon="12.959225095945053"><ele>33.0</ele><time>2026-04-03T13:31:52.999Z</time></trkpt><trkpt lat="52.44050106570245" lon="12.959355350346565"><ele>33.0</ele><time>2026-04-03T13:31:53.999Z</time></trkpt><trkpt lat="52.44047310882492" lon="12.95948311208994"><ele>33.0</ele><time>2026-04-03T13:31:54.999Z</time></trkpt><trkpt lat="52.440449526588125" lon="12.959603056346216"><ele>33.0</ele><time>2026-04-03T13:31:55.999Z</time></trkpt><trkpt lat="52.44043507158802" lon="12.959715882779564"><ele>33.0</ele><time>2026-04-03T13:31:56.999Z</time></trkpt><trkpt lat="52.440419815977506" lon="12.959817795122195"><ele>33.0</ele><time>2026-04-03T13:31:57.999Z</time></trkpt><trkpt lat="52.4403918875361" lon="12.959934963450397"><ele>33.0</ele><time>2026-04-03T13:31:58.999Z</time></trkpt><trkpt lat="52.440360836923844" lon="12.96005741463988"><ele>32.5</ele><time>2026-04-03T13:31:59.999Z</time></trkpt><trkpt lat="52.4403452963248" lon="12.960188744041355"><ele>32.0</ele><time>2026-04-03T13:32:00.999Z</time></trkpt><trkpt lat="52.440317486948054" lon="12.960307447321112"><ele>31.5</ele><time>2026-04-03T13:32:01.999Z</time></trkpt><trkpt lat="52.44029523617311" lon="12.96044933980729"><ele>31.0</ele><time>2026-04-03T13:32:02.999Z</time></trkpt><trkpt lat="52.440275474005624" lon="12.960572393439227"><ele>30.5</ele><time>2026-04-03T13:32:03.999Z</time></trkpt><trkpt lat="52.440248543279296" lon="12.960695796961623"><ele>30.0</ele><time>2026-04-03T13:32:04.999Z</time></trkpt><trkpt lat="52.44022676258958" lon="12.960831059949468"><ele>30.0</ele><time>2026-04-03T13:32:05.999Z</time></trkpt><trkpt lat="52.440210829390104" lon="12.960950731661223"><ele>30.0</ele><time>2026-04-03T13:32:06.999Z</time></trkpt><trkpt lat="52.440199428108876" lon="12.961077392448201"><ele>30.0</ele><time>2026-04-03T13:32:07.999Z</time></trkpt><trkpt lat="52.44016908299786" lon="12.961189005647565"><ele>30.0</ele><time>2026-04-03T13:32:08.999Z</time></trkpt><trkpt lat="52.44014968508793" lon="12.961299268798703"><ele>30.0</ele><time>2026-04-03T13:32:09.999Z</time></trkpt><trkpt lat="52.44014773292305" lon="12.961412814338562"><ele>30.0</ele><time>2026-04-03T13:32:10.999Z</time></trkpt><trkpt lat="52.44011697071905" lon="12.961538393672908"><ele>30.0</ele><time>2026-04-03T13:32:11.999Z</time></trkpt><trkpt lat="52.4400996632501" lon="12.961663677674032"><ele>30.333333333333332</ele><time>2026-04-03T13:32:12.999Z</time></trkpt><trkpt lat="52.44009285745854" lon="12.961786598004997"><ele>30.666666666666664</ele><time>2026-04-03T13:32:13.999Z</time></trkpt><trkpt lat="52.440064376930955" lon="12.961911040012112"><ele>31.0</ele><time>2026-04-03T13:32:14.999Z</time></trkpt><trkpt lat="52.44003480382533" lon="12.962045209024105"><ele>31.333333333333332</ele><time>2026-04-03T13:32:15.999Z</time></trkpt><trkpt lat="52.440023896053525" lon="12.962174542319875"><ele>31.666666666666664</ele><time>2026-04-03T13:32:16.999Z</time></trkpt><trkpt lat="52.44002398024416" lon="12.96228716606285"><ele>32.0</ele><time>2026-04-03T13:32:17.999Z</time></trkpt><trkpt lat="52.4399961656659" lon="12.962423697481483"><ele>32.0</ele><time>2026-04-03T13:32:18.999Z</time></trkpt><trkpt lat="52.439958350507865" lon="12.9625648724385"><ele>32.0</ele><time>2026-04-03T13:32:19.999Z</time></trkpt><trkpt lat="52.43993404150775" lon="12.962715159922253"><ele>32.0</ele><time>2026-04-03T13:32:20.999Z</time></trkpt><trkpt lat="52.439925089769474" lon="12.962861224991611"><ele>32.0</ele><time>2026-04-03T13:32:21.999Z</time></trkpt><trkpt lat="52.43990562775" lon="12.962985344279053"><ele>32.0</ele><time>2026-04-03T13:32:22.999Z</time></trkpt><trkpt lat="52.439869264305116" lon="12.96312681417096"><ele>31.999999999999996</ele><time>2026-04-03T13:32:23.999Z</time></trkpt><trkpt lat="52.43984497220463" lon="12.963259054617824"><ele>32.0</ele><time>2026-04-03T13:32:24.999Z</time></trkpt><trkpt lat="52.439832546093626" lon="12.963398175245153"><ele>32.0</ele><time>2026-04-03T13:32:25.999Z</time></trkpt><trkpt lat="52.43980488231178" lon="12.963524604423826"><ele>32.0</ele><time>2026-04-03T13:32:26.999Z</time></trkpt><trkpt lat="52.43977598174849" lon="12.963661876498554"><ele>31.999999999999996</ele><time>2026-04-03T13:32:27.999Z</time></trkpt><trkpt lat="52.43976149371085" lon="12.963812308125908"><ele>32.0</ele><time>2026-04-03T13:32:28.999Z</time></trkpt><trkpt lat="52.43974384205276" lon="12.9639363233758"><ele>31.999999999999996</ele><time>2026-04-03T13:32:29.999Z</time></trkpt><trkpt lat="52.43971344878207" lon="12.96404934068341"><ele>32.0</ele><time>2026-04-03T13:32:30.999Z</time></trkpt><trkpt lat="52.439686447505636" lon="12.964169277834086"><ele>32.0</ele><time>2026-04-03T13:32:31.999Z</time></trkpt><trkpt lat="52.439663534030714" lon="12.964297291018653"><ele>32.0</ele><time>2026-04-03T13:32:32.999Z</time></trkpt><trkpt lat="52.43964611061938" lon="12.964438432115065"><ele>31.999999999999996</ele><time>2026-04-03T13:32:33.999Z</time></trkpt><trkpt lat="52.4396285424717" lon="12.964563550007583"><ele>32.0</ele><time>2026-04-03T13:32:34.999Z</time></trkpt><trkpt lat="52.439611422987944" lon="12.964674316311843"><ele>31.6</ele><time>2026-04-03T13:32:35.999Z</time></trkpt><trkpt lat="52.43959422418437" lon="12.964775616255805"><ele>31.200000000000003</ele><time>2026-04-03T13:32:36.999Z</time></trkpt><trkpt lat="52.43955536061179" lon="12.96493195270836"><ele>30.8</ele><time>2026-04-03T13:32:38.999Z</time></trkpt><trkpt lat="52.43955156908143" lon="12.965067772510594"><ele>30.4</ele><time>2026-04-03T13:32:40.998Z</time></trkpt><trkpt lat="52.43965067586333" lon="12.965175955415317"><ele>30.0</ele><time>2026-04-03T13:32:42.998Z</time></trkpt><trkpt lat="52.43973485899355" lon="12.965218731159702"><ele>29.8</ele><time>2026-04-03T13:32:43.998Z</time></trkpt><trkpt lat="52.43981877842529" lon="12.965239588062909"><ele>29.6</ele><time>2026-04-03T13:32:44.998Z</time></trkpt><trkpt lat="52.43993259651935" lon="12.965230729691552"><ele>29.4</ele><time>2026-04-03T13:32:45.998Z</time></trkpt><trkpt lat="52.44004377306272" lon="12.965222380630673"><ele>29.2</ele><time>2026-04-03T13:32:46.998Z</time></trkpt><trkpt lat="52.44014810191558" lon="12.965239266316983"><ele>29.0</ele><time>2026-04-03T13:32:47.998Z</time></trkpt><trkpt lat="52.440248412103216" lon="12.965249048157416"><ele>29.0</ele><time>2026-04-03T13:32:48.998Z</time></trkpt><trkpt lat="52.44035008455538" lon="12.965282063151879"><ele>29.0</ele><time>2026-04-03T13:32:49.998Z</time></trkpt><trkpt lat="52.44045831867633" lon="12.965300822431946"><ele>29.0</ele><time>2026-04-03T13:32:50.998Z</time></trkpt><trkpt lat="52.44057485583242" lon="12.965301468708283"><ele>29.0</ele><time>2026-04-03T13:32:51.998Z</time></trkpt><trkpt lat="52.44068528301228" lon="12.96530533414882"><ele>29.0</ele><time>2026-04-03T13:32:52.998Z</time></trkpt><trkpt lat="52.44077868343039" lon="12.965319175434306"><ele>29.2</ele><time>2026-04-03T13:32:53.998Z</time></trkpt><trkpt lat="52.44087612843018" lon="12.96533917370522"><ele>29.4</ele><time>2026-04-03T13:32:54.998Z</time></trkpt><trkpt lat="52.44096663975681" lon="12.965364395202089"><ele>29.6</ele><time>2026-04-03T13:32:55.998Z</time></trkpt><trkpt lat="52.44106585464926" lon="12.965418617171146"><ele>29.8</ele><time>2026-04-03T13:32:56.998Z</time></trkpt><trkpt lat="52.44115807140159" lon="12.965461482991888"><ele>30.0</ele><time>2026-04-03T13:32:57.998Z</time></trkpt><trkpt lat="52.441254617338004" lon="12.965488586187995"><ele>30.6</ele><time>2026-04-03T13:32:58.998Z</time></trkpt><trkpt lat="52.441328731702356" lon="12.965513861972441"><ele>31.2</ele><time>2026-04-03T13:32:59.998Z</time></trkpt><trkpt lat="52.44140853786756" lon="12.965568010661686"><ele>31.799999999999997</ele><time>2026-04-03T13:33:00.998Z</time></trkpt><trkpt lat="52.441499569522115" lon="12.965656151423413"><ele>32.4</ele><time>2026-04-03T13:33:01.998Z</time></trkpt><trkpt lat="52.44160128640047" lon="12.965758801324638"><ele>33.0</ele><time>2026-04-03T13:33:02.998Z</time></trkpt><trkpt lat="52.44170110828105" lon="12.965849275305615"><ele>32.4</ele><time>2026-04-03T13:33:03.998Z</time></trkpt><trkpt lat="52.441783397299055" lon="12.965949625278565"><ele>31.799999999999997</ele><time>2026-04-03T13:33:04.998Z</time></trkpt><trkpt lat="52.441871194241244" lon="12.966064962156691"><ele>31.2</ele><time>2026-04-03T13:33:05.998Z</time></trkpt><trkpt lat="52.44196482650412" lon="12.966174800775073"><ele>30.6</ele><time>2026-04-03T13:33:07Z</time></trkpt><trkpt lat="52.44205207943634" lon="12.966277179368367"><ele>30.0</ele><time>2026-04-03T13:33:08Z</time></trkpt><trkpt lat="52.442146744860565" lon="12.966368503799707"><ele>29.8</ele><time>2026-04-03T13:33:09Z</time></trkpt><trkpt lat="52.44226129822132" lon="12.966445813426388"><ele>29.6</ele><time>2026-04-03T13:33:10Z</time></trkpt><trkpt lat="52.44235921303041" lon="12.966524423930142"><ele>29.4</ele><time>2026-04-03T13:33:11Z</time></trkpt><trkpt lat="52.44244494941664" lon="12.966593993080561"><ele>29.2</ele><time>2026-04-03T13:33:12Z</time></trkpt><trkpt lat="52.44252820464171" lon="12.96666456811674"><ele>29.0</ele><time>2026-04-03T13:33:13Z</time></trkpt><trkpt lat="52.44260661380378" lon="12.966727443762721"><ele>28.833333333333332</ele><time>2026-04-03T13:33:14Z</time></trkpt><trkpt lat="52.442670877130325" lon="12.96677917419567"><ele>28.666666666666664</ele><time>2026-04-03T13:33:15Z</time></trkpt><trkpt lat="52.44273335451217" lon="12.966825050614883"><ele>28.5</ele><time>2026-04-03T13:33:16Z</time></trkpt><trkpt lat="52.4428049859334" lon="12.966855353305602"><ele>28.333333333333336</ele><time>2026-04-03T13:33:17Z</time></trkpt><trkpt lat="52.44289635447066" lon="12.966862486894227"><ele>28.166666666666668</ele><time>2026-04-03T13:33:18Z</time></trkpt><trkpt lat="52.442984187895576" lon="12.966843257189785"><ele>28.0</ele><time>2026-04-03T13:33:19Z</time></trkpt><trkpt lat="52.44305413692332" lon="12.966806862237313"><ele>28.000000000000004</ele><time>2026-04-03T13:33:20Z</time></trkpt><trkpt lat="52.443122734466975" lon="12.966739272847901"><ele>28.0</ele><time>2026-04-03T13:33:21Z</time></trkpt><trkpt lat="52.44320761088156" lon="12.966677256029302"><ele>28.0</ele><time>2026-04-03T13:33:22Z</time></trkpt><trkpt lat="52.443266749734725" lon="12.9666076981882"><ele>28.0</ele><time>2026-04-03T13:33:23Z</time></trkpt><trkpt lat="52.44331154450363" lon="12.966528217252035"><ele>28.000000000000004</ele><time>2026-04-03T13:33:24Z</time></trkpt><trkpt lat="52.44334022756056" lon="12.966434758187763"><ele>28.0</ele><time>2026-04-03T13:33:25Z</time></trkpt><trkpt lat="52.44336220845515" lon="12.966296516670477"><ele>28.0</ele><time>2026-04-03T13:33:26Z</time></trkpt><trkpt lat="52.44337982934305" lon="12.966147975872543"><ele>27.999999999999996</ele><time>2026-04-03T13:33:27Z</time></trkpt><trkpt lat="52.4433987395471" lon="12.965951635554953"><ele>27.999999999999996</ele><time>2026-04-03T13:33:28Z</time></trkpt><trkpt lat="52.4434313789729" lon="12.965772240630159"><ele>28.0</ele><time>2026-04-03T13:33:29Z</time></trkpt><trkpt lat="52.44346720395291" lon="12.965616562205254"><ele>28.0</ele><time>2026-04-03T13:33:30Z</time></trkpt><trkpt lat="52.443475929143695" lon="12.965454575614993"><ele>28.4</ele><time>2026-04-03T13:33:31Z</time></trkpt><trkpt lat="52.44350298754013" lon="12.965298020570389"><ele>28.799999999999997</ele><time>2026-04-03T13:33:32Z</time></trkpt><trkpt lat="52.44352763323891" lon="12.965112875367168"><ele>29.2</ele><time>2026-04-03T13:33:33Z</time></trkpt><trkpt lat="52.44355216017222" lon="12.964931655240784"><ele>29.6</ele><time>2026-04-03T13:33:34Z</time></trkpt><trkpt lat="52.443581543660365" lon="12.96475607489761"><ele>30.0</ele><time>2026-04-03T13:33:35Z</time></trkpt><trkpt lat="52.44360754825521" lon="12.964595324231109"><ele>30.333333333333332</ele><time>2026-04-03T13:33:36Z</time></trkpt><trkpt lat="52.44362243936506" lon="12.964451152623882"><ele>30.666666666666664</ele><time>2026-04-03T13:33:37Z</time></trkpt><trkpt lat="52.4436463502146" lon="12.96432503520937"><ele>31.0</ele><time>2026-04-03T13:33:38Z</time></trkpt><trkpt lat="52.44367004930074" lon="12.964215265496696"><ele>31.333333333333332</ele><time>2026-04-03T13:33:39Z</time></trkpt><trkpt lat="52.44367749554287" lon="12.964106948240646"><ele>31.666666666666664</ele><time>2026-04-03T13:33:40Z</time></trkpt><trkpt lat="52.44369926951518" lon="12.963946870068101"><ele>32.0</ele><time>2026-04-03T13:33:42Z</time></trkpt><trkpt lat="52.44372066311438" lon="12.963823095747196"><ele>32.0</ele><time>2026-04-03T13:33:44Z</time></trkpt><trkpt lat="52.44373647377726" lon="12.963645528707096"><ele>32.0</ele><time>2026-04-03T13:33:46Z</time></trkpt><trkpt lat="52.44375122918657" lon="12.963443336031684"><ele>32.0</ele><time>2026-04-03T13:33:48Z</time></trkpt><trkpt lat="52.44375585710801" lon="12.963315130832198"><ele>32.0</ele><time>2026-04-03T13:33:49.999Z</time></trkpt><trkpt lat="52.443801790886006" lon="12.963244387582876"><ele>32.0</ele><time>2026-04-03T13:33:52.999Z</time></trkpt><trkpt lat="52.443897360033986" lon="12.963339817349658"><ele>31.400000000000002</ele><time>2026-04-03T13:37:48Z</time></trkpt><trkpt lat="52.44393083998048" lon="12.963441806567209"><ele>30.800000000000004</ele><time>2026-04-03T13:37:49Z</time></trkpt><trkpt lat="52.44398040815611" lon="12.963581088883902"><ele>30.2</ele><time>2026-04-03T13:37:50Z</time></trkpt><trkpt lat="52.444025881900046" lon="12.963713407652227"><ele>29.6</ele><time>2026-04-03T13:37:51Z</time></trkpt><trkpt lat="52.44408154896304" lon="12.96383973576564"><ele>29.0</ele><time>2026-04-03T13:37:52Z</time></trkpt><trkpt lat="52.444138076095236" lon="12.96396497884075"><ele>28.999999999999996</ele><time>2026-04-03T13:37:53Z</time></trkpt><trkpt lat="52.444189616798866" lon="12.964072793956491"><ele>29.0</ele><time>2026-04-03T13:37:54Z</time></trkpt><trkpt lat="52.44424279217714" lon="12.964175274936727"><ele>29.0</ele><time>2026-04-03T13:37:55Z</time></trkpt><trkpt lat="52.444298805233366" lon="12.964259788219616"><ele>29.0</ele><time>2026-04-03T13:37:56Z</time></trkpt><trkpt lat="52.444359911707856" lon="12.964336721028573"><ele>28.999999999999996</ele><time>2026-04-03T13:37:57Z</time></trkpt><trkpt lat="52.44443142710028" lon="12.964401059939771"><ele>29.0</ele><time>2026-04-03T13:37:58Z</time></trkpt><trkpt lat="52.444522091064826" lon="12.964440208364646"><ele>28.75</ele><time>2026-04-03T13:37:59Z</time></trkpt><trkpt lat="52.444628523692536" lon="12.964459788706483"><ele>28.5</ele><time>2026-04-03T13:38:00Z</time></trkpt><trkpt lat="52.44474054109206" lon="12.964472634089551"><ele>28.25</ele><time>2026-04-03T13:38:01Z</time></trkpt><trkpt lat="52.444858596294544" lon="12.964475701886155"><ele>28.0</ele><time>2026-04-03T13:38:02Z</time></trkpt><trkpt lat="52.444975593829625" lon="12.964475979408068"><ele>28.0</ele><time>2026-04-03T13:38:03Z</time></trkpt><trkpt lat="52.44509105913505" lon="12.964480847978246"><ele>28.0</ele><time>2026-04-03T13:38:03.999Z</time></trkpt><trkpt lat="52.445207078755885" lon="12.96447968474567"><ele>28.0</ele><time>2026-04-03T13:38:04.999Z</time></trkpt><trkpt lat="52.44531926417509" lon="12.964470671909396"><ele>28.0</ele><time>2026-04-03T13:38:05.999Z</time></trkpt><trkpt lat="52.4454281010236" lon="12.964465592473765"><ele>28.25</ele><time>2026-04-03T13:38:06.999Z</time></trkpt><trkpt lat="52.44553700198152" lon="12.964468706719053"><ele>28.5</ele><time>2026-04-03T13:38:07.999Z</time></trkpt><trkpt lat="52.445651797025214" lon="12.964469858516097"><ele>28.75</ele><time>2026-04-03T13:38:08.999Z</time></trkpt><trkpt lat="52.44576774469976" lon="12.964470833883613"><ele>29.0</ele><time>2026-04-03T13:38:09.999Z</time></trkpt><trkpt lat="52.44588597497896" lon="12.964473927496586"><ele>29.0</ele><time>2026-04-03T13:38:10.999Z</time></trkpt><trkpt lat="52.44599806716115" lon="12.964479270068933"><ele>29.0</ele><time>2026-04-03T13:38:11.999Z</time></trkpt><trkpt lat="52.446096996802" lon="12.964483710779263"><ele>29.0</ele><time>2026-04-03T13:38:12.999Z</time></trkpt><trkpt lat="52.446187852213065" lon="12.964487444168228"><ele>29.0</ele><time>2026-04-03T13:38:13.999Z</time></trkpt><trkpt lat="52.446279353497786" lon="12.964488949011203"><ele>29.0</ele><time>2026-04-03T13:38:14.999Z</time></trkpt><trkpt lat="52.44636885395908" lon="12.964485714488712"><ele>29.142857142857146</ele><time>2026-04-03T13:38:15.999Z</time></trkpt><trkpt lat="52.446451954797716" lon="12.9644795402638"><ele>29.285714285714285</ele><time>2026-04-03T13:38:16.999Z</time></trkpt><trkpt lat="52.44652713507649" lon="12.964475823195585"><ele>29.42857142857143</ele><time>2026-04-03T13:38:17.999Z</time></trkpt><trkpt lat="52.44660113190201" lon="12.964471528234874"><ele>29.571428571428573</ele><time>2026-04-03T13:38:18.999Z</time></trkpt><trkpt lat="52.4466728973866" lon="12.964465814778114"><ele>29.714285714285715</ele><time>2026-04-03T13:38:19.999Z</time></trkpt><trkpt lat="52.4467425159242" lon="12.964464775390963"><ele>29.857142857142858</ele><time>2026-04-03T13:38:20.999Z</time></trkpt><trkpt lat="52.44681755109342" lon="12.96447036627093"><ele>30.0</ele><time>2026-04-03T13:38:21.999Z</time></trkpt><trkpt lat="52.44690731061739" lon="12.964472428693425"><ele>30.0</ele><time>2026-04-03T13:38:22.999Z</time></trkpt><trkpt lat="52.447010394967805" lon="12.964472948144023"><ele>30.0</ele><time>2026-04-03T13:38:23.999Z</time></trkpt><trkpt lat="52.44712091230594" lon="12.964468115590954"><ele>30.0</ele><time>2026-04-03T13:38:24.999Z</time></trkpt><trkpt lat="52.447232177151996" lon="12.96446511185285"><ele>30.0</ele><time>2026-04-03T13:38:25.999Z</time></trkpt><trkpt lat="52.447338189964974" lon="12.96445923619081"><ele>30.0</ele><time>2026-04-03T13:38:26.999Z</time></trkpt><trkpt lat="52.447437938338155" lon="12.964453192269973"><ele>30.0</ele><time>2026-04-03T13:38:27.999Z</time></trkpt><trkpt lat="52.44753490798169" lon="12.964450636430712"><ele>30.0</ele><time>2026-04-03T13:38:28.999Z</time></trkpt><trkpt lat="52.4476266404267" lon="12.964451344457725"><ele>30.0</ele><time>2026-04-03T13:38:29.999Z</time></trkpt><trkpt lat="52.44772282598455" lon="12.964453224332585"><ele>30.0</ele><time>2026-04-03T13:38:30.999Z</time></trkpt><trkpt lat="52.447822699522014" lon="12.964459384188013"><ele>30.0</ele><time>2026-04-03T13:38:31.999Z</time></trkpt><trkpt lat="52.447915726328475" lon="12.964466584221425"><ele>30.0</ele><time>2026-04-03T13:38:32.999Z</time></trkpt><trkpt lat="52.447998578075655" lon="12.964476097948516"><ele>30.0</ele><time>2026-04-03T13:38:33.999Z</time></trkpt><trkpt lat="52.44807970696945" lon="12.964487341441115"><ele>30.0</ele><time>2026-04-03T13:38:34.999Z</time></trkpt><trkpt lat="52.44816954964145" lon="12.96450065760051"><ele>30.0</ele><time>2026-04-03T13:38:35.999Z</time></trkpt><trkpt lat="52.448261918345914" lon="12.964509899516033"><ele>30.0</ele><time>2026-04-03T13:38:36.999Z</time></trkpt><trkpt lat="52.448356090824355" lon="12.964532489648658"><ele>30.0</ele><time>2026-04-03T13:38:37.999Z</time></trkpt><trkpt lat="52.44845249600066" lon="12.964550671567443"><ele>30.0</ele><time>2026-04-03T13:38:38.999Z</time></trkpt><trkpt lat="52.44854335211319" lon="12.964568633383598"><ele>30.0</ele><time>2026-04-03T13:38:39.999Z</time></trkpt><trkpt lat="52.44863206928366" lon="12.964587525309625"><ele>30.0</ele><time>2026-04-03T13:38:40.999Z</time></trkpt><trkpt lat="52.44871900524376" lon="12.964600808278899"><ele>30.0</ele><time>2026-04-03T13:38:41.999Z</time></trkpt><trkpt lat="52.448800740957296" lon="12.964612199977314"><ele>30.0</ele><time>2026-04-03T13:38:42.999Z</time></trkpt><trkpt lat="52.44887785041974" lon="12.964623125318399"><ele>30.0</ele><time>2026-04-03T13:38:43.999Z</time></trkpt><trkpt lat="52.448955438719366" lon="12.964633974021293"><ele>30.333333333333332</ele><time>2026-04-03T13:38:44.999Z</time></trkpt><trkpt lat="52.44903618515853" lon="12.964650691695407"><ele>30.666666666666664</ele><time>2026-04-03T13:38:45.999Z</time></trkpt><trkpt lat="52.449116499311735" lon="12.964665103172207"><ele>31.0</ele><time>2026-04-03T13:38:46.999Z</time></trkpt><trkpt lat="52.44919867975209" lon="12.964701395344756"><ele>31.333333333333332</ele><time>2026-04-03T13:38:47.999Z</time></trkpt><trkpt lat="52.44928347416873" lon="12.964716366379783"><ele>31.666666666666664</ele><time>2026-04-03T13:38:48.999Z</time></trkpt><trkpt lat="52.449372052652286" lon="12.964727731200636"><ele>32.0</ele><time>2026-04-03T13:38:49.999Z</time></trkpt><trkpt lat="52.44945892685813" lon="12.964717910535978"><ele>32.0</ele><time>2026-04-03T13:38:50.999Z</time></trkpt><trkpt lat="52.44953228737328" lon="12.964742472788428"><ele>32.0</ele><time>2026-04-03T13:38:51.999Z</time></trkpt><trkpt lat="52.44960258366246" lon="12.964748647976185"><ele>32.0</ele><time>2026-04-03T13:38:52.999Z</time></trkpt><trkpt lat="52.44970826541932" lon="12.964759637170038"><ele>32.0</ele><time>2026-04-03T13:38:54.999Z</time></trkpt><trkpt lat="52.44979605343449" lon="12.964796096628552"><ele>32.0</ele><time>2026-04-03T13:38:56.999Z</time></trkpt><trkpt lat="52.44986707191788" lon="12.964954439738218"><ele>31.400000000000002</ele><time>2026-04-03T13:38:58.999Z</time></trkpt><trkpt lat="52.44987967596185" lon="12.96508103645194"><ele>30.800000000000004</ele><time>2026-04-03T13:38:59.998Z</time></trkpt><trkpt lat="52.449875198744486" lon="12.965231990451446"><ele>30.2</ele><time>2026-04-03T13:39:00.998Z</time></trkpt><trkpt lat="52.44986178133684" lon="12.96539047154232"><ele>29.6</ele><time>2026-04-03T13:39:01.998Z</time></trkpt><trkpt lat="52.4498524287283" lon="12.96556511463734"><ele>29.0</ele><time>2026-04-03T13:39:02.998Z</time></trkpt><trkpt lat="52.449841125082536" lon="12.965756284847142"><ele>28.75</ele><time>2026-04-03T13:39:03.998Z</time></trkpt><trkpt lat="52.4498259320752" lon="12.965965544873496"><ele>28.5</ele><time>2026-04-03T13:39:04.998Z</time></trkpt><trkpt lat="52.44981108953398" lon="12.966190067060914"><ele>28.25</ele><time>2026-04-03T13:39:05.998Z</time></trkpt><trkpt lat="52.4497954001897" lon="12.966422665444176"><ele>28.0</ele><time>2026-04-03T13:39:06.998Z</time></trkpt><trkpt lat="52.449778126839284" lon="12.966660510493963"><ele>28.333333333333336</ele><time>2026-04-03T13:39:07.998Z</time></trkpt><trkpt lat="52.449756536437526" lon="12.966886287838774"><ele>28.666666666666664</ele><time>2026-04-03T13:39:08.998Z</time></trkpt><trkpt lat="52.44973580630249" lon="12.967128264971384"><ele>29.0</ele><time>2026-04-03T13:39:09.998Z</time></trkpt><trkpt lat="52.44971786608424" lon="12.967394525635683"><ele>28.333333333333332</ele><time>2026-04-03T13:39:10.998Z</time></trkpt><trkpt lat="52.44970399153172" lon="12.967685009914861"><ele>27.666666666666664</ele><time>2026-04-03T13:39:11.998Z</time></trkpt><trkpt lat="52.44969043374452" lon="12.967953120903765"><ele>27.0</ele><time>2026-04-03T13:39:12.998Z</time></trkpt><trkpt lat="52.44967715888397" lon="12.968202754245539"><ele>27.25</ele><time>2026-04-03T13:39:13.998Z</time></trkpt><trkpt lat="52.44965525842709" lon="12.968438289352955"><ele>27.5</ele><time>2026-04-03T13:39:14.998Z</time></trkpt><trkpt lat="52.44961463487031" lon="12.968669946582347"><ele>27.75</ele><time>2026-04-03T13:39:15.998Z</time></trkpt><trkpt lat="52.449551646044085" lon="12.968906035807013"><ele>28.0</ele><time>2026-04-03T13:39:16.998Z</time></trkpt><trkpt lat="52.449476649208115" lon="12.969135436785093"><ele>28.666666666666668</ele><time>2026-04-03T13:39:17.998Z</time></trkpt><trkpt lat="52.449398695099454" lon="12.969406907399257"><ele>29.333333333333336</ele><time>2026-04-03T13:39:18.998Z</time></trkpt><trkpt lat="52.44931675220345" lon="12.969677960654652"><ele>30.0</ele><time>2026-04-03T13:39:19.998Z</time></trkpt><trkpt lat="52.44923297523493" lon="12.96995102946858"><ele>30.0</ele><time>2026-04-03T13:39:20.998Z</time></trkpt><trkpt lat="52.44915313389654" lon="12.970208506909323"><ele>30.0</ele><time>2026-04-03T13:39:21.998Z</time></trkpt><trkpt lat="52.4490774756639" lon="12.97045776355863"><ele>30.0</ele><time>2026-04-03T13:39:22.998Z</time></trkpt><trkpt lat="52.44900816964507" lon="12.970699731438211"><ele>29.75</ele><time>2026-04-03T13:39:23.998Z</time></trkpt><trkpt lat="52.448946314552664" lon="12.970922034176235"><ele>29.5</ele><time>2026-04-03T13:39:25Z</time></trkpt><trkpt lat="52.44888366235275" lon="12.971122290985626"><ele>29.25</ele><time>2026-04-03T13:39:26Z</time></trkpt><trkpt lat="52.448824009098836" lon="12.971319981325767"><ele>29.0</ele><time>2026-04-03T13:39:27Z</time></trkpt><trkpt lat="52.448767301884025" lon="12.971516935354197"><ele>29.25</ele><time>2026-04-03T13:39:28Z</time></trkpt><trkpt lat="52.448709907985375" lon="12.97172034214861"><ele>29.5</ele><time>2026-04-03T13:39:29Z</time></trkpt><trkpt lat="52.44866309079692" lon="12.971932042534428"><ele>29.75</ele><time>2026-04-03T13:39:30Z</time></trkpt><trkpt lat="52.4486219939941" lon="12.972144883509467"><ele>30.0</ele><time>2026-04-03T13:39:31Z</time></trkpt><trkpt lat="52.44857958577044" lon="12.97235915880726"><ele>29.5</ele><time>2026-04-03T13:39:32Z</time></trkpt><trkpt lat="52.448547195432056" lon="12.972568713204875"><ele>29.0</ele><time>2026-04-03T13:39:33Z</time></trkpt><trkpt lat="52.44851410852206" lon="12.972769061469867"><ele>28.5</ele><time>2026-04-03T13:39:34Z</time></trkpt><trkpt lat="52.44848226941741" lon="12.972951581478883"><ele>28.0</ele><time>2026-04-03T13:39:35Z</time></trkpt><trkpt lat="52.44844959574131" lon="12.973141308995446"><ele>28.0</ele><time>2026-04-03T13:39:36Z</time></trkpt><trkpt lat="52.44841217479929" lon="12.973340630465788"><ele>28.0</ele><time>2026-04-03T13:39:37Z</time></trkpt><trkpt lat="52.44837392533344" lon="12.973545067673987"><ele>28.0</ele><time>2026-04-03T13:39:38Z</time></trkpt><trkpt lat="52.44833491409728" lon="12.97374971502049"><ele>28.0</ele><time>2026-04-03T13:39:39Z</time></trkpt><trkpt lat="52.448295749155946" lon="12.973943723960923"><ele>28.2</ele><time>2026-04-03T13:39:40Z</time></trkpt><trkpt lat="52.44826411250424" lon="12.974114626381171"><ele>28.4</ele><time>2026-04-03T13:39:41Z</time></trkpt><trkpt lat="52.44823432123801" lon="12.974266675825739"><ele>28.599999999999998</ele><time>2026-04-03T13:39:42Z</time></trkpt><trkpt lat="52.4482163801146" lon="12.97439046671373"><ele>28.799999999999997</ele><time>2026-04-03T13:39:43Z</time></trkpt><trkpt lat="52.448196023749965" lon="12.974491306695464"><ele>29.0</ele><time>2026-04-03T13:39:44Z</time></trkpt><trkpt lat="52.448162836171306" lon="12.974662575858211"><ele>29.2</ele><time>2026-04-03T13:39:46Z</time></trkpt><trkpt lat="52.44812384711225" lon="12.974862154713307"><ele>29.4</ele><time>2026-04-03T13:39:48Z</time></trkpt><trkpt lat="52.44809461794401" lon="12.975017642166142"><ele>29.6</ele><time>2026-04-03T13:39:49Z</time></trkpt><trkpt lat="52.44806479458795" lon="12.975162751450611"><ele>29.8</ele><time>2026-04-03T13:39:50Z</time></trkpt><trkpt lat="52.44804166770909" lon="12.975276279762076"><ele>30.0</ele><time>2026-04-03T13:39:51Z</time></trkpt><trkpt lat="52.44801626507725" lon="12.975409500191121"><ele>30.0</ele><time>2026-04-03T13:39:52Z</time></trkpt><trkpt lat="52.44798709804596" lon="12.975573548313667"><ele>30.0</ele><time>2026-04-03T13:39:53Z</time></trkpt><trkpt lat="52.447962757435" lon="12.975748251861374"><ele>30.0</ele><time>2026-04-03T13:39:54Z</time></trkpt><trkpt lat="52.44795750120504" lon="12.975921689424624"><ele>30.0</ele><time>2026-04-03T13:39:55Z</time></trkpt><trkpt lat="52.44796186495805" lon="12.976110848184712"><ele>30.0</ele><time>2026-04-03T13:39:56Z</time></trkpt><trkpt lat="52.44796666388286" lon="12.976331729057854"><ele>30.333333333333336</ele><time>2026-04-03T13:39:57Z</time></trkpt><trkpt lat="52.44797836615483" lon="12.976566844325209"><ele>30.666666666666668</ele><time>2026-04-03T13:39:58Z</time></trkpt><trkpt lat="52.44798007129374" lon="12.976815120575436"><ele>31.0</ele><time>2026-04-03T13:39:59Z</time></trkpt><trkpt lat="52.44798535959934" lon="12.97707374556809"><ele>31.0</ele><time>2026-04-03T13:40:00Z</time></trkpt><trkpt lat="52.44799489222952" lon="12.977318159406666"><ele>31.0</ele><time>2026-04-03T13:40:01Z</time></trkpt><trkpt lat="52.44800342629821" lon="12.977557403581683"><ele>31.0</ele><time>2026-04-03T13:40:02Z</time></trkpt><trkpt lat="52.448009226040675" lon="12.977785787246363"><ele>31.0</ele><time>2026-04-03T13:40:03Z</time></trkpt><trkpt lat="52.44801944975177" lon="12.978010973026523"><ele>30.75</ele><time>2026-04-03T13:40:04Z</time></trkpt><trkpt lat="52.44802423253197" lon="12.97824962885332"><ele>30.5</ele><time>2026-04-03T13:40:05Z</time></trkpt><trkpt lat="52.44803110327574" lon="12.978477060865272"><ele>30.25</ele><time>2026-04-03T13:40:06Z</time></trkpt><trkpt lat="52.44803796915632" lon="12.978697119056353"><ele>30.0</ele><time>2026-04-03T13:40:07Z</time></trkpt><trkpt lat="52.44803441091366" lon="12.978924072662322"><ele>30.5</ele><time>2026-04-03T13:40:07.999Z</time></trkpt><trkpt lat="52.44805410238094" lon="12.97915081840264"><ele>31.0</ele><time>2026-04-03T13:40:08.999Z</time></trkpt><trkpt lat="52.44805028525375" lon="12.979349733896399"><ele>31.5</ele><time>2026-04-03T13:40:09.999Z</time></trkpt><trkpt lat="52.448059420816534" lon="12.979538635684905"><ele>32.0</ele><time>2026-04-03T13:40:10.999Z</time></trkpt><trkpt lat="52.4480606204591" lon="12.979709570129238"><ele>31.999999999999996</ele><time>2026-04-03T13:40:11.999Z</time></trkpt><trkpt lat="52.44805963084371" lon="12.979868407840947"><ele>32.0</ele><time>2026-04-03T13:40:12.999Z</time></trkpt><trkpt lat="52.448056153924405" lon="12.980023089997857"><ele>32.0</ele><time>2026-04-03T13:40:13.999Z</time></trkpt><trkpt lat="52.448042867035824" lon="12.98016206660437"><ele>32.0</ele><time>2026-04-03T13:40:14.999Z</time></trkpt><trkpt lat="52.44802646718534" lon="12.980287586432295"><ele>31.999999999999996</ele><time>2026-04-03T13:40:15.999Z</time></trkpt><trkpt lat="52.44800983951329" lon="12.980416589079281"><ele>32.0</ele><time>2026-04-03T13:40:16.999Z</time></trkpt><trkpt lat="52.44798656855369" lon="12.980544124947217"><ele>32.0</ele><time>2026-04-03T13:40:17.999Z</time></trkpt><trkpt lat="52.44797167428774" lon="12.980662592478092"><ele>32.0</ele><time>2026-04-03T13:40:18.999Z</time></trkpt><trkpt lat="52.44798566688482" lon="12.98085870365393"><ele>32.0</ele><time>2026-04-03T13:40:20.999Z</time></trkpt><trkpt lat="52.44803356995583" lon="12.980959345047186"><ele>32.0</ele><time>2026-04-03T13:40:22.999Z</time></trkpt><trkpt lat="52.4479481131829" lon="12.981205518580703"><ele>32.0</ele><time>2026-04-03T13:40:25.999Z</time></trkpt><trkpt lat="52.44787880584548" lon="12.981315346081947"><ele>32.2</ele><time>2026-04-03T13:40:26.999Z</time></trkpt><trkpt lat="52.44781302918784" lon="12.981420818694172"><ele>32.400000000000006</ele><time>2026-04-03T13:40:27.999Z</time></trkpt><trkpt lat="52.447741115936246" lon="12.981541344982432"><ele>32.599999999999994</ele><time>2026-04-03T13:40:28.999Z</time></trkpt><trkpt lat="52.44766227939252" lon="12.981672722655402"><ele>32.8</ele><time>2026-04-03T13:40:29.999Z</time></trkpt><trkpt lat="52.447586241131" lon="12.981799219166653"><ele>33.0</ele><time>2026-04-03T13:40:30.999Z</time></trkpt><trkpt lat="52.44751230737806" lon="12.981923874431036"><ele>32.6</ele><time>2026-04-03T13:40:31.999Z</time></trkpt><trkpt lat="52.447439432789935" lon="12.982050438190415"><ele>32.199999999999996</ele><time>2026-04-03T13:40:32.999Z</time></trkpt><trkpt lat="52.44736119246619" lon="12.98217754698469"><ele>31.8</ele><time>2026-04-03T13:40:33.999Z</time></trkpt><trkpt lat="52.447289487409364" lon="12.98229005448323"><ele>31.4</ele><time>2026-04-03T13:40:34.999Z</time></trkpt><trkpt lat="52.44722937613492" lon="12.982394850736938"><ele>31.0</ele><time>2026-04-03T13:40:35.999Z</time></trkpt><trkpt lat="52.44717238249628" lon="12.982485109143541"><ele>31.0</ele><time>2026-04-03T13:40:36.999Z</time></trkpt><trkpt lat="52.44712402126238" lon="12.982566276104825"><ele>31.0</ele><time>2026-04-03T13:40:37.999Z</time></trkpt><trkpt lat="52.447036909949" lon="12.98269391558775"><ele>31.0</ele><time>2026-04-03T13:40:39.999Z</time></trkpt><trkpt lat="52.446963778112746" lon="12.982757667172931"><ele>31.0</ele><time>2026-04-03T13:40:42.999Z</time></trkpt><trkpt lat="52.44693329793868" lon="12.982901660396847"><ele>31.0</ele><time>2026-04-03T13:43:23.998Z</time></trkpt><trkpt lat="52.446854776124894" lon="12.9830185310758"><ele>31.000000000000004</ele><time>2026-04-03T13:43:25.998Z</time></trkpt><trkpt lat="52.44678758626683" lon="12.983105786297322"><ele>31.0</ele><time>2026-04-03T13:43:27.998Z</time></trkpt><trkpt lat="52.44671958499456" lon="12.983208370602439"><ele>31.0</ele><time>2026-04-03T13:43:29.998Z</time></trkpt><trkpt lat="52.44667179844527" lon="12.98328930957438"><ele>31.0</ele><time>2026-04-03T13:43:30.998Z</time></trkpt><trkpt lat="52.44658778508683" lon="12.983416330598308"><ele>31.000000000000004</ele><time>2026-04-03T13:43:32.998Z</time></trkpt><trkpt lat="52.44655043562722" lon="12.983525413185966"><ele>31.0</ele><time>2026-04-03T13:43:34.998Z</time></trkpt><trkpt lat="52.446499589147415" lon="12.983653956406446"><ele>30.6</ele><time>2026-04-03T13:43:38Z</time></trkpt><trkpt lat="52.44644014310943" lon="12.983713792235042"><ele>30.200000000000003</ele><time>2026-04-03T13:43:39Z</time></trkpt><trkpt lat="52.446368661082985" lon="12.983752657973085"><ele>29.799999999999997</ele><time>2026-04-03T13:43:40Z</time></trkpt><trkpt lat="52.44627954809947" lon="12.98381100137719"><ele>29.4</ele><time>2026-04-03T13:43:41Z</time></trkpt><trkpt lat="52.44618196598169" lon="12.983866689469943"><ele>29.0</ele><time>2026-04-03T13:43:42Z</time></trkpt><trkpt lat="52.44607707738424" lon="12.98393002048675"><ele>29.0</ele><time>2026-04-03T13:43:43Z</time></trkpt><trkpt lat="52.445966560854885" lon="12.98400588980882"><ele>29.0</ele><time>2026-04-03T13:43:44Z</time></trkpt><trkpt lat="52.445836303407845" lon="12.984090048774098"><ele>29.0</ele><time>2026-04-03T13:43:45Z</time></trkpt><trkpt lat="52.445696671404804" lon="12.984177232285818"><ele>29.0</ele><time>2026-04-03T13:43:46Z</time></trkpt><trkpt lat="52.44555209619649" lon="12.984268559452456"><ele>30.0</ele><time>2026-04-03T13:43:47Z</time></trkpt><trkpt lat="52.44539980338461" lon="12.984363658069316"><ele>31.0</ele><time>2026-04-03T13:43:48Z</time></trkpt><trkpt lat="52.445242989141384" lon="12.984457536508229"><ele>32.0</ele><time>2026-04-03T13:43:49Z</time></trkpt><trkpt lat="52.44508004583078" lon="12.984554029165741"><ele>32.0</ele><time>2026-04-03T13:43:50Z</time></trkpt><trkpt lat="52.44491398261291" lon="12.984650448488342"><ele>32.0</ele><time>2026-04-03T13:43:51Z</time></trkpt><trkpt lat="52.44474811440494" lon="12.984749623882095"><ele>32.0</ele><time>2026-04-03T13:43:52Z</time></trkpt><trkpt lat="52.44457101888518" lon="12.98485239204061"><ele>30.333333333333332</ele><time>2026-04-03T13:43:53Z</time></trkpt><trkpt lat="52.444390001585084" lon="12.984960583106282"><ele>28.666666666666664</ele><time>2026-04-03T13:43:54Z</time></trkpt><trkpt lat="52.44420852194379" lon="12.98507159383457"><ele>27.0</ele><time>2026-04-03T13:43:55Z</time></trkpt><trkpt lat="52.44402164775013" lon="12.98518476877929"><ele>27.0</ele><time>2026-04-03T13:43:56Z</time></trkpt><trkpt lat="52.44383372847048" lon="12.985295023419711"><ele>27.0</ele><time>2026-04-03T13:43:57Z</time></trkpt><trkpt lat="52.44364313244075" lon="12.985406301726021"><ele>27.0</ele><time>2026-04-03T13:43:58Z</time></trkpt><trkpt lat="52.443451465109085" lon="12.98552189860889"><ele>27.333333333333336</ele><time>2026-04-03T13:43:59Z</time></trkpt><trkpt lat="52.44325300831651" lon="12.985642052570872"><ele>27.666666666666668</ele><time>2026-04-03T13:44:00Z</time></trkpt><trkpt lat="52.443059387996435" lon="12.98575833347716"><ele>28.0</ele><time>2026-04-03T13:44:01Z</time></trkpt><trkpt lat="52.44286825559986" lon="12.985890916531362"><ele>28.0</ele><time>2026-04-03T13:44:02Z</time></trkpt><trkpt lat="52.442683569178755" lon="12.986022068120258"><ele>28.0</ele><time>2026-04-03T13:44:03Z</time></trkpt><trkpt lat="52.442494259812406" lon="12.98617177091023"><ele>28.0</ele><time>2026-04-03T13:44:04Z</time></trkpt><trkpt lat="52.4423141947038" lon="12.986323690927277"><ele>28.0</ele><time>2026-04-03T13:44:05Z</time></trkpt><trkpt lat="52.4421303734322" lon="12.98647589078585"><ele>28.0</ele><time>2026-04-03T13:44:06Z</time></trkpt><trkpt lat="52.441955892504566" lon="12.986623872627652"><ele>28.0</ele><time>2026-04-03T13:44:07Z</time></trkpt><trkpt lat="52.44176530537919" lon="12.98678078346176"><ele>28.0</ele><time>2026-04-03T13:44:08Z</time></trkpt><trkpt lat="52.441577171064836" lon="12.98693366604071"><ele>28.0</ele><time>2026-04-03T13:44:09Z</time></trkpt><trkpt lat="52.44138731161558" lon="12.987094477379205"><ele>28.0</ele><time>2026-04-03T13:44:10Z</time></trkpt><trkpt lat="52.44119523959734" lon="12.9872464047064"><ele>28.0</ele><time>2026-04-03T13:44:11Z</time></trkpt><trkpt lat="52.44101805257259" lon="12.987393444862485"><ele>28.0</ele><time>2026-04-03T13:44:12Z</time></trkpt><trkpt lat="52.44083426678178" lon="12.987547537967135"><ele>28.0</ele><time>2026-04-03T13:44:13Z</time></trkpt><trkpt lat="52.44065023761024" lon="12.987701847289202"><ele>28.0</ele><time>2026-04-03T13:44:14Z</time></trkpt><trkpt lat="52.44046030854613" lon="12.987843818725915"><ele>28.0</ele><time>2026-04-03T13:44:15Z</time></trkpt><trkpt lat="52.44026325726664" lon="12.987961560586076"><ele>28.0</ele><time>2026-04-03T13:44:16Z</time></trkpt><trkpt lat="52.440063341251914" lon="12.988062265771578"><ele>28.0</ele><time>2026-04-03T13:44:16.999Z</time></trkpt><trkpt lat="52.43985997473345" lon="12.988156914269226"><ele>28.0</ele><time>2026-04-03T13:44:17.999Z</time></trkpt><trkpt lat="52.439652086792414" lon="12.988238849203322"><ele>28.0</ele><time>2026-04-03T13:44:18.999Z</time></trkpt><trkpt lat="52.43944448846579" lon="12.988308893951348"><ele>28.333333333333336</ele><time>2026-04-03T13:44:19.999Z</time></trkpt><trkpt lat="52.43923560312981" lon="12.988373339624749"><ele>28.666666666666664</ele><time>2026-04-03T13:44:20.999Z</time></trkpt><trkpt lat="52.43902592060993" lon="12.988443819909936"><ele>29.0</ele><time>2026-04-03T13:44:21.999Z</time></trkpt><trkpt lat="52.438815855565856" lon="12.9885082893815"><ele>29.666666666666664</ele><time>2026-04-03T13:44:22.999Z</time></trkpt><trkpt lat="52.43860637746581" lon="12.988574424471324"><ele>30.333333333333336</ele><time>2026-04-03T13:44:23.999Z</time></trkpt><trkpt lat="52.43839972529426" lon="12.988643335798324"><ele>31.0</ele><time>2026-04-03T13:44:24.999Z</time></trkpt><trkpt lat="52.43819500643827" lon="12.988709998229913"><ele>31.0</ele><time>2026-04-03T13:44:25.999Z</time></trkpt><trkpt lat="52.43800044857008" lon="12.98877790014718"><ele>31.0</ele><time>2026-04-03T13:44:26.999Z</time></trkpt><trkpt lat="52.437815521624614" lon="12.988842909421855"><ele>31.0</ele><time>2026-04-03T13:44:27.999Z</time></trkpt><trkpt lat="52.43763530441738" lon="12.9889010373036"><ele>33.66666666666667</ele><time>2026-04-03T13:44:28.999Z</time></trkpt><trkpt lat="52.43745817290882" lon="12.98899588185103"><ele>36.333333333333336</ele><time>2026-04-03T13:44:29.999Z</time></trkpt><trkpt lat="52.437282449616276" lon="12.989099131979291"><ele>39.0</ele><time>2026-04-03T13:44:30.999Z</time></trkpt><trkpt lat="52.4371007404468" lon="12.989229492608409"><ele>40.333333333333336</ele><time>2026-04-03T13:44:31.999Z</time></trkpt><trkpt lat="52.43693672743051" lon="12.98937322301514"><ele>41.66666666666667</ele><time>2026-04-03T13:44:32.999Z</time></trkpt><trkpt lat="52.436783993165946" lon="12.989504186936276"><ele>43.0</ele><time>2026-04-03T13:44:33.999Z</time></trkpt><trkpt lat="52.436616779607206" lon="12.989649741158276"><ele>43.0</ele><time>2026-04-03T13:44:34.999Z</time></trkpt><trkpt lat="52.436450776605184" lon="12.989794644182796"><ele>43.0</ele><time>2026-04-03T13:44:35.999Z</time></trkpt><trkpt lat="52.43628453426798" lon="12.98993300212881"><ele>43.0</ele><time>2026-04-03T13:44:36.999Z</time></trkpt><trkpt lat="52.43611943837191" lon="12.99007349739802"><ele>42.0</ele><time>2026-04-03T13:44:37.999Z</time></trkpt><trkpt lat="52.43595541040915" lon="12.990212974488376"><ele>41.0</ele><time>2026-04-03T13:44:38.999Z</time></trkpt><trkpt lat="52.43579238542738" lon="12.990354343685844"><ele>40.0</ele><time>2026-04-03T13:44:39.999Z</time></trkpt><trkpt lat="52.43563540470566" lon="12.990514666894935"><ele>40.0</ele><time>2026-04-03T13:44:40.999Z</time></trkpt><trkpt lat="52.43547843885611" lon="12.99069787415348"><ele>40.0</ele><time>2026-04-03T13:44:41.999Z</time></trkpt><trkpt lat="52.435328573370064" lon="12.99090087651035"><ele>40.0</ele><time>2026-04-03T13:44:42.999Z</time></trkpt><trkpt lat="52.435177315199354" lon="12.991100818100124"><ele>40.333333333333336</ele><time>2026-04-03T13:44:43.999Z</time></trkpt><trkpt lat="52.4350284132544" lon="12.991302541942561"><ele>40.666666666666664</ele><time>2026-04-03T13:44:44.999Z</time></trkpt><trkpt lat="52.43488062164453" lon="12.991499695729328"><ele>41.0</ele><time>2026-04-03T13:44:45.999Z</time></trkpt><trkpt lat="52.43473063834658" lon="12.991691572355274"><ele>41.33333333333333</ele><time>2026-04-03T13:44:46.999Z</time></trkpt><trkpt lat="52.434582060182024" lon="12.991878870711018"><ele>41.666666666666664</ele><time>2026-04-03T13:44:47.999Z</time></trkpt><trkpt lat="52.4344337055927" lon="12.992075393358965"><ele>42.0</ele><time>2026-04-03T13:44:48.999Z</time></trkpt><trkpt lat="52.43429060025987" lon="12.992267974542417"><ele>42.0</ele><time>2026-04-03T13:44:49.999Z</time></trkpt><trkpt lat="52.43415551339199" lon="12.992447126853593"><ele>42.0</ele><time>2026-04-03T13:44:50.999Z</time></trkpt><trkpt lat="52.434027559141086" lon="12.99261150211226"><ele>42.0</ele><time>2026-04-03T13:44:51.999Z</time></trkpt><trkpt lat="52.43390728847979" lon="12.992770695642934"><ele>40.75</ele><time>2026-04-03T13:44:52.999Z</time></trkpt><trkpt lat="52.43379590857634" lon="12.992923585363185"><ele>39.5</ele><time>2026-04-03T13:44:53.999Z</time></trkpt><trkpt lat="52.43368886653847" lon="12.993071049433786"><ele>38.25</ele><time>2026-04-03T13:44:54.999Z</time></trkpt><trkpt lat="52.43358694954045" lon="12.99320991079255"><ele>37.0</ele><time>2026-04-03T13:44:55.999Z</time></trkpt><trkpt lat="52.433493125559856" lon="12.993342586724035"><ele>36.5</ele><time>2026-04-03T13:44:56.999Z</time></trkpt><trkpt lat="52.433398054857435" lon="12.993476435392866"><ele>36.0</ele><time>2026-04-03T13:44:57.999Z</time></trkpt><trkpt lat="52.43330235378185" lon="12.993613579955735"><ele>35.5</ele><time>2026-04-03T13:44:58.999Z</time></trkpt><trkpt lat="52.43322428697413" lon="12.993741982177955"><ele>35.0</ele><time>2026-04-03T13:44:59.999Z</time></trkpt><trkpt lat="52.433152594863714" lon="12.993866285465463"><ele>35.0</ele><time>2026-04-03T13:45:00.999Z</time></trkpt><trkpt lat="52.43307348158633" lon="12.99398702258188"><ele>35.0</ele><time>2026-04-03T13:45:01.999Z</time></trkpt><trkpt lat="52.43299694212434" lon="12.994103454169808"><ele>35.0</ele><time>2026-04-03T13:45:02.999Z</time></trkpt><trkpt lat="52.43291913954386" lon="12.994222733256244"><ele>35.0</ele><time>2026-04-03T13:45:03.999Z</time></trkpt><trkpt lat="52.432832960234414" lon="12.994355280731192"><ele>35.0</ele><time>2026-04-03T13:45:04.999Z</time></trkpt><trkpt lat="52.432745654788484" lon="12.99449199751242"><ele>34.5</ele><time>2026-04-03T13:45:05.999Z</time></trkpt><trkpt lat="52.43265188813732" lon="12.99463620826627"><ele>34.0</ele><time>2026-04-03T13:45:06.999Z</time></trkpt><trkpt lat="52.432554602602075" lon="12.994785222857834"><ele>33.5</ele><time>2026-04-03T13:45:07.999Z</time></trkpt><trkpt lat="52.43245342122171" lon="12.99494022093411"><ele>33.0</ele><time>2026-04-03T13:45:08.999Z</time></trkpt><trkpt lat="52.43234977093992" lon="12.995104799237087"><ele>32.5</ele><time>2026-04-03T13:45:09.999Z</time></trkpt><trkpt lat="52.432243768314166" lon="12.995277567279496"><ele>32.0</ele><time>2026-04-03T13:45:10.999Z</time></trkpt><trkpt lat="52.43214318463631" lon="12.99542444116042"><ele>31.5</ele><time>2026-04-03T13:45:11.999Z</time></trkpt><trkpt lat="52.43203863971058" lon="12.995590972313972"><ele>31.0</ele><time>2026-04-03T13:45:12.998Z</time></trkpt><trkpt lat="52.431934300663" lon="12.995756016924112"><ele>31.0</ele><time>2026-04-03T13:45:13.998Z</time></trkpt><trkpt lat="52.43182823692173" lon="12.99592347491932"><ele>31.0</ele><time>2026-04-03T13:45:14.998Z</time></trkpt><trkpt lat="52.43172328886595" lon="12.996089489682712"><ele>31.0</ele><time>2026-04-03T13:45:15.998Z</time></trkpt><trkpt lat="52.43161725025138" lon="12.996240184224872"><ele>31.0</ele><time>2026-04-03T13:45:16.998Z</time></trkpt><trkpt lat="52.43151178033543" lon="12.99641929214576"><ele>31.0</ele><time>2026-04-03T13:45:17.998Z</time></trkpt><trkpt lat="52.43140109628406" lon="12.996585146656855"><ele>31.0</ele><time>2026-04-03T13:45:18.998Z</time></trkpt><trkpt lat="52.43128736081169" lon="12.996771011901412"><ele>31.0</ele><time>2026-04-03T13:45:19.998Z</time></trkpt><trkpt lat="52.431173361333606" lon="12.996947089987987"><ele>30.666666666666668</ele><time>2026-04-03T13:45:20.998Z</time></trkpt><trkpt lat="52.43105924719406" lon="12.99712605721354"><ele>30.333333333333336</ele><time>2026-04-03T13:45:21.998Z</time></trkpt><trkpt lat="52.43094876812812" lon="12.997296652201337"><ele>30.0</ele><time>2026-04-03T13:45:22.998Z</time></trkpt><trkpt lat="52.43084240053466" lon="12.997463053271664"><ele>29.666666666666664</ele><time>2026-04-03T13:45:23.998Z</time></trkpt><trkpt lat="52.43073851153836" lon="12.997636177666505"><ele>29.333333333333332</ele><time>2026-04-03T13:45:24.998Z</time></trkpt><trkpt lat="52.43062172369223" lon="12.997821475710449"><ele>29.0</ele><time>2026-04-03T13:45:25.998Z</time></trkpt><trkpt lat="52.4305087889104" lon="12.99800354403363"><ele>29.333333333333332</ele><time>2026-04-03T13:45:26.998Z</time></trkpt><trkpt lat="52.43037421333219" lon="12.998211732164469"><ele>29.666666666666664</ele><time>2026-04-03T13:45:27.998Z</time></trkpt><trkpt lat="52.43025494852184" lon="12.99838479669753"><ele>30.0</ele><time>2026-04-03T13:45:28.998Z</time></trkpt><trkpt lat="52.4301384538077" lon="12.99856668594736"><ele>30.0</ele><time>2026-04-03T13:45:29.998Z</time></trkpt><trkpt lat="52.430012811178926" lon="12.998766435710927"><ele>30.0</ele><time>2026-04-03T13:45:30.998Z</time></trkpt><trkpt lat="52.429886619786416" lon="12.998958673696643"><ele>30.0</ele><time>2026-04-03T13:45:31.998Z</time></trkpt><trkpt lat="52.42975773179636" lon="12.999144632869225"><ele>29.666666666666664</ele><time>2026-04-03T13:45:32.998Z</time></trkpt><trkpt lat="52.429621386610734" lon="12.999326103838571"><ele>29.333333333333332</ele><time>2026-04-03T13:45:33.998Z</time></trkpt><trkpt lat="52.429486370920095" lon="12.999478155450127"><ele>29.0</ele><time>2026-04-03T13:45:34.998Z</time></trkpt><trkpt lat="52.429336592249314" lon="12.99959181595201"><ele>29.0</ele><time>2026-04-03T13:45:35.998Z</time></trkpt><trkpt lat="52.42918571076992" lon="12.999718585303476"><ele>29.0</ele><time>2026-04-03T13:45:36.998Z</time></trkpt><trkpt lat="52.429034455740414" lon="12.999833367267685"><ele>29.0</ele><time>2026-04-03T13:45:37.998Z</time></trkpt><trkpt lat="52.42890280914736" lon="12.999955212013715"><ele>29.25</ele><time>2026-04-03T13:45:38.998Z</time></trkpt><trkpt lat="52.42880347455311" lon="13.00006502802181"><ele>29.5</ele><time>2026-04-03T13:45:39.998Z</time></trkpt><trkpt lat="52.428668354777585" lon="13.000203961298446"><ele>29.75</ele><time>2026-04-03T13:45:40.998Z</time></trkpt><trkpt lat="52.42854863858125" lon="13.000278972894934"><ele>30.0</ele><time>2026-04-03T13:45:41.998Z</time></trkpt><trkpt lat="52.42844520440758" lon="13.000353100046237"><ele>30.0</ele><time>2026-04-03T13:45:43Z</time></trkpt><trkpt lat="52.428352672333304" lon="13.000440350287993"><ele>30.0</ele><time>2026-04-03T13:45:44Z</time></trkpt><trkpt lat="52.42826246849706" lon="13.000521288362354"><ele>30.0</ele><time>2026-04-03T13:45:45Z</time></trkpt><trkpt lat="52.42818800010096" lon="13.00060062902113"><ele>30.0</ele><time>2026-04-03T13:45:46Z</time></trkpt><trkpt lat="52.42808614408709" lon="13.0007004609169"><ele>30.0</ele><time>2026-04-03T13:45:47Z</time></trkpt><trkpt lat="52.428002764026445" lon="13.000806569977534"><ele>30.0</ele><time>2026-04-03T13:45:48Z</time></trkpt><trkpt lat="52.42792449160979" lon="13.000939582776464"><ele>30.0</ele><time>2026-04-03T13:45:49Z</time></trkpt><trkpt lat="52.4278638913745" lon="13.001073699778257"><ele>30.0</ele><time>2026-04-03T13:45:50Z</time></trkpt><trkpt lat="52.42780951169587" lon="13.001222225631443"><ele>30.0</ele><time>2026-04-03T13:45:51Z</time></trkpt><trkpt lat="52.42774674972931" lon="13.001381707409989"><ele>30.0</ele><time>2026-04-03T13:45:52Z</time></trkpt><trkpt lat="52.427719545442365" lon="13.00150006401268"><ele>30.0</ele><time>2026-04-03T13:45:53Z</time></trkpt><trkpt lat="52.42767503322392" lon="13.00161542945472"><ele>30.0</ele><time>2026-04-03T13:45:54Z</time></trkpt><trkpt lat="52.42764388312728" lon="13.001725084642992"><ele>30.0</ele><time>2026-04-03T13:45:55Z</time></trkpt><trkpt lat="52.4275847833609" lon="13.001821219869163"><ele>30.0</ele><time>2026-04-03T13:45:56Z</time></trkpt><trkpt lat="52.427520990502956" lon="13.001979151767546"><ele>30.0</ele><time>2026-04-03T13:45:58Z</time></trkpt><trkpt lat="52.427456034290756" lon="13.00212867833571"><ele>30.166666666666668</ele><time>2026-04-03T13:46:00Z</time></trkpt><trkpt lat="52.42739384086299" lon="13.00225160466322"><ele>30.333333333333336</ele><time>2026-04-03T13:46:02Z</time></trkpt><trkpt lat="52.42733447532567" lon="13.002290681351045"><ele>30.5</ele><time>2026-04-03T13:46:05Z</time></trkpt><trkpt lat="52.42736782937601" lon="13.002452628306756"><ele>30.666666666666668</ele><time>2026-04-03T13:46:09Z</time></trkpt><trkpt lat="52.42740934512961" lon="13.002551902708982"><ele>30.833333333333336</ele><time>2026-04-03T13:46:10Z</time></trkpt><trkpt lat="52.42746278341657" lon="13.002613882353813"><ele>31.0</ele><time>2026-04-03T13:46:11Z</time></trkpt><trkpt lat="52.42752694435248" lon="13.002696878038968"><ele>31.0</ele><time>2026-04-03T13:46:12Z</time></trkpt><trkpt lat="52.427608238489036" lon="13.002787631856652"><ele>31.0</ele><time>2026-04-03T13:46:13Z</time></trkpt><trkpt lat="52.427703500775586" lon="13.002872872851475"><ele>31.0</ele><time>2026-04-03T13:46:14Z</time></trkpt><trkpt lat="52.42779786736262" lon="13.002957510157513"><ele>31.0</ele><time>2026-04-03T13:46:15Z</time></trkpt><trkpt lat="52.42788416784596" lon="13.003040584774466"><ele>31.0</ele><time>2026-04-03T13:46:16Z</time></trkpt><trkpt lat="52.42798388389771" lon="13.003120620093258"><ele>31.0</ele><time>2026-04-03T13:46:17Z</time></trkpt><trkpt lat="52.42806059029158" lon="13.003219320471713"><ele>31.0</ele><time>2026-04-03T13:46:18Z</time></trkpt><trkpt lat="52.428135414135994" lon="13.003298861156264"><ele>31.0</ele><time>2026-04-03T13:46:19Z</time></trkpt><trkpt lat="52.428219369587254" lon="13.003382967062942"><ele>31.0</ele><time>2026-04-03T13:46:20Z</time></trkpt><trkpt lat="52.42831138649926" lon="13.003453233782972"><ele>31.0</ele><time>2026-04-03T13:46:21Z</time></trkpt><trkpt lat="52.42840272639073" lon="13.003518967175337"><ele>31.000000000000004</ele><time>2026-04-03T13:46:22Z</time></trkpt><trkpt lat="52.42849274689821" lon="13.003577568519363"><ele>31.0</ele><time>2026-04-03T13:46:23Z</time></trkpt><trkpt lat="52.42857765821477" lon="13.003669025654322"><ele>31.0</ele><time>2026-04-03T13:46:23.999Z</time></trkpt><trkpt lat="52.42865216320344" lon="13.003745415731485"><ele>31.0</ele><time>2026-04-03T13:46:24.999Z</time></trkpt><trkpt lat="52.42871482295027" lon="13.0038114274464"><ele>31.000000000000004</ele><time>2026-04-03T13:46:25.999Z</time></trkpt><trkpt lat="52.42877740420513" lon="13.003869417174275"><ele>31.0</ele><time>2026-04-03T13:46:26.999Z</time></trkpt><trkpt lat="52.428837940138166" lon="13.003947393180455"><ele>31.000000000000004</ele><time>2026-04-03T13:46:27.999Z</time></trkpt><trkpt lat="52.428907293732166" lon="13.004018726029946"><ele>31.0</ele><time>2026-04-03T13:46:28.999Z</time></trkpt><trkpt lat="52.42897335345126" lon="13.004094393586476"><ele>31.0</ele><time>2026-04-03T13:46:29.999Z</time></trkpt><trkpt lat="52.42904002490015" lon="13.004145110347965"><ele>31.0</ele><time>2026-04-03T13:46:30.999Z</time></trkpt><trkpt lat="52.429108944434574" lon="13.00420978918301"><ele>31.000000000000004</ele><time>2026-04-03T13:46:31.999Z</time></trkpt><trkpt lat="52.429185022332355" lon="13.004267539948746"><ele>31.0</ele><time>2026-04-03T13:46:32.999Z</time></trkpt><trkpt lat="52.42926181035747" lon="13.00434180850492"><ele>31.166666666666668</ele><time>2026-04-03T13:46:33.999Z</time></trkpt><trkpt lat="52.42933097545497" lon="13.004401767193253"><ele>31.333333333333336</ele><time>2026-04-03T13:46:34.999Z</time></trkpt><trkpt lat="52.42939755921627" lon="13.004446781483377"><ele>31.5</ele><time>2026-04-03T13:46:35.999Z</time></trkpt><trkpt lat="52.429461742401" lon="13.004524917978491"><ele>31.666666666666664</ele><time>2026-04-03T13:46:36.999Z</time></trkpt><trkpt lat="52.429541006586895" lon="13.004572906287777"><ele>31.833333333333332</ele><time>2026-04-03T13:46:37.999Z</time></trkpt><trkpt lat="52.42962283778777" lon="13.004652914171885"><ele>32.0</ele><time>2026-04-03T13:46:38.999Z</time></trkpt><trkpt lat="52.42971534676965" lon="13.00474960824277"><ele>32.0</ele><time>2026-04-03T13:46:39.999Z</time></trkpt><trkpt lat="52.42979809042694" lon="13.004824554009986"><ele>32.0</ele><time>2026-04-03T13:46:40.999Z</time></trkpt><trkpt lat="52.42988018779695" lon="13.004909367489198"><ele>32.0</ele><time>2026-04-03T13:46:41.999Z</time></trkpt><trkpt lat="52.42996533365777" lon="13.005005866041596"><ele>32.0</ele><time>2026-04-03T13:46:42.999Z</time></trkpt><trkpt lat="52.430052954829385" lon="13.005120369058668"><ele>32.0</ele><time>2026-04-03T13:46:43.999Z</time></trkpt><trkpt lat="52.4301428170217" lon="13.005233301225854"><ele>32.0</ele><time>2026-04-03T13:46:44.999Z</time></trkpt><trkpt lat="52.43021974327658" lon="13.0053438476064"><ele>32.0</ele><time>2026-04-03T13:46:45.999Z</time></trkpt><trkpt lat="52.430288095582824" lon="13.005473184974575"><ele>32.0</ele><time>2026-04-03T13:46:46.999Z</time></trkpt><trkpt lat="52.43035626881815" lon="13.005607925162401"><ele>32.0</ele><time>2026-04-03T13:46:47.999Z</time></trkpt><trkpt lat="52.430424532168864" lon="13.005758017358083"><ele>32.0</ele><time>2026-04-03T13:46:48.999Z</time></trkpt><trkpt lat="52.43049941672162" lon="13.005909273837597"><ele>31.75</ele><time>2026-04-03T13:46:49.999Z</time></trkpt><trkpt lat="52.43055980592284" lon="13.006078435273322"><ele>31.5</ele><time>2026-04-03T13:46:50.999Z</time></trkpt><trkpt lat="52.430613344906405" lon="13.006252096347744"><ele>31.25</ele><time>2026-04-03T13:46:51.999Z</time></trkpt><trkpt lat="52.43066936750844" lon="13.006429968113638"><ele>31.0</ele><time>2026-04-03T13:46:52.999Z</time></trkpt><trkpt lat="52.430722414282926" lon="13.006616647260236"><ele>31.5</ele><time>2026-04-03T13:46:53.999Z</time></trkpt><trkpt lat="52.43077780844384" lon="13.006804444669516"><ele>32.0</ele><time>2026-04-03T13:46:54.999Z</time></trkpt><trkpt lat="52.430834369046764" lon="13.007001141957002"><ele>32.5</ele><time>2026-04-03T13:46:55.999Z</time></trkpt><trkpt lat="52.43089046728377" lon="13.007183863642977"><ele>33.0</ele><time>2026-04-03T13:46:56.999Z</time></trkpt><trkpt lat="52.430952502635556" lon="13.007351001951738"><ele>33.0</ele><time>2026-04-03T13:46:57.999Z</time></trkpt><trkpt lat="52.43103443528235" lon="13.00750178601205"><ele>33.0</ele><time>2026-04-03T13:46:58.999Z</time></trkpt><trkpt lat="52.43112886791978" lon="13.007638592420369"><ele>33.0</ele><time>2026-04-03T13:46:59.999Z</time></trkpt><trkpt lat="52.431239624577636" lon="13.007758073729224"><ele>33.0</ele><time>2026-04-03T13:47:00.999Z</time></trkpt><trkpt lat="52.43136019824875" lon="13.007864261850818"><ele>32.75</ele><time>2026-04-03T13:47:01.999Z</time></trkpt><trkpt lat="52.43149003257079" lon="13.007946532024858"><ele>32.5</ele><time>2026-04-03T13:47:02.999Z</time></trkpt><trkpt lat="52.43161104402846" lon="13.008038635023114"><ele>32.25</ele><time>2026-04-03T13:47:03.999Z</time></trkpt><trkpt lat="52.43172641240688" lon="13.008131270097904"><ele>32.0</ele><time>2026-04-03T13:47:04.999Z</time></trkpt><trkpt lat="52.431848941050625" lon="13.008219705205043"><ele>32.0</ele><time>2026-04-03T13:47:05.999Z</time></trkpt><trkpt lat="52.431953248036095" lon="13.008298800887689"><ele>32.0</ele><time>2026-04-03T13:47:06.999Z</time></trkpt><trkpt lat="52.43204643966778" lon="13.008365070926693"><ele>32.0</ele><time>2026-04-03T13:47:07.999Z</time></trkpt><trkpt lat="52.43213313558077" lon="13.008425932287173"><ele>32.0</ele><time>2026-04-03T13:47:08.999Z</time></trkpt><trkpt lat="52.432213327158514" lon="13.008476722506858"><ele>32.0</ele><time>2026-04-03T13:47:09.999Z</time></trkpt><trkpt lat="52.43228036751419" lon="13.008534727548335"><ele>32.5</ele><time>2026-04-03T13:47:10.999Z</time></trkpt><trkpt lat="52.432368388813956" lon="13.008610998028733"><ele>33.0</ele><time>2026-04-03T13:47:11.999Z</time></trkpt><trkpt lat="52.43242710891477" lon="13.008841337890527"><ele>33.5</ele><time>2026-04-03T13:47:12.999Z</time></trkpt><trkpt lat="52.43249071314291" lon="13.00906388926972"><ele>34.0</ele><time>2026-04-03T13:47:13.999Z</time></trkpt><trkpt lat="52.43255962600119" lon="13.009287280973075"><ele>34.0</ele><time>2026-04-03T13:47:14.999Z</time></trkpt><trkpt lat="52.43263802828412" lon="13.009523504897158"><ele>34.0</ele><time>2026-04-03T13:47:15.999Z</time></trkpt><trkpt lat="52.432721306873134" lon="13.009768267851378"><ele>34.0</ele><time>2026-04-03T13:47:16.999Z</time></trkpt><trkpt lat="52.43280402493553" lon="13.010017505484377"><ele>34.0</ele><time>2026-04-03T13:47:17.999Z</time></trkpt><trkpt lat="52.432883774010364" lon="13.010269341143157"><ele>34.0</ele><time>2026-04-03T13:47:18.999Z</time></trkpt><trkpt lat="52.432967441534096" lon="13.010514720098275"><ele>34.0</ele><time>2026-04-03T13:47:19.999Z</time></trkpt><trkpt lat="52.433045221298414" lon="13.01075301692776"><ele>34.333333333333336</ele><time>2026-04-03T13:47:20.998Z</time></trkpt><trkpt lat="52.433122057835824" lon="13.010993913242975"><ele>34.666666666666664</ele><time>2026-04-03T13:47:21.998Z</time></trkpt><trkpt lat="52.433201940622055" lon="13.01123502171067"><ele>35.0</ele><time>2026-04-03T13:47:22.998Z</time></trkpt><trkpt lat="52.43327854297767" lon="13.01147245793963"><ele>35.0</ele><time>2026-04-03T13:47:23.998Z</time></trkpt><trkpt lat="52.43335559240024" lon="13.011707680363243"><ele>35.0</ele><time>2026-04-03T13:47:24.998Z</time></trkpt><trkpt lat="52.4334342047929" lon="13.011937524589477"><ele>35.0</ele><time>2026-04-03T13:47:25.998Z</time></trkpt><trkpt lat="52.433506245854204" lon="13.01214518244032"><ele>35.0</ele><time>2026-04-03T13:47:26.998Z</time></trkpt><trkpt lat="52.43358709587734" lon="13.012391273392463"><ele>35.0</ele><time>2026-04-03T13:47:27.998Z</time></trkpt><trkpt lat="52.43365199059337" lon="13.012640565693559"><ele>35.0</ele><time>2026-04-03T13:47:28.998Z</time></trkpt><trkpt lat="52.433734365619216" lon="13.012880878560606"><ele>34.666666666666664</ele><time>2026-04-03T13:47:29.998Z</time></trkpt><trkpt lat="52.43382410224272" lon="13.013100349255465"><ele>34.333333333333336</ele><time>2026-04-03T13:47:30.998Z</time></trkpt><trkpt lat="52.43390106995462" lon="13.013356330766783"><ele>34.0</ele><time>2026-04-03T13:47:31.998Z</time></trkpt><trkpt lat="52.433978620011125" lon="13.013596798854406"><ele>33.66666666666667</ele><time>2026-04-03T13:47:32.998Z</time></trkpt><trkpt lat="52.43405795743864" lon="13.013852755425694"><ele>33.333333333333336</ele><time>2026-04-03T13:47:33.998Z</time></trkpt><trkpt lat="52.43414062439623" lon="13.014098399064357"><ele>33.0</ele><time>2026-04-03T13:47:34.998Z</time></trkpt><trkpt lat="52.43422223024682" lon="13.014345483102531"><ele>33.0</ele><time>2026-04-03T13:47:35.998Z</time></trkpt><trkpt lat="52.43430579536157" lon="13.014593791393882"><ele>33.0</ele><time>2026-04-03T13:47:36.998Z</time></trkpt><trkpt lat="52.43439147987407" lon="13.014840191600234"><ele>33.0</ele><time>2026-04-03T13:47:37.998Z</time></trkpt><trkpt lat="52.43448830801849" lon="13.015116821324291"><ele>33.0</ele><time>2026-04-03T13:47:38.998Z</time></trkpt><trkpt lat="52.434557817447555" lon="13.015355281274594"><ele>33.0</ele><time>2026-04-03T13:47:39.998Z</time></trkpt><trkpt lat="52.434636053289154" lon="13.015588595346447"><ele>33.0</ele><time>2026-04-03T13:47:40.998Z</time></trkpt><trkpt lat="52.43471140271765" lon="13.01580659649711"><ele>33.0</ele><time>2026-04-03T13:47:41.998Z</time></trkpt><trkpt lat="52.43478262496468" lon="13.016007872537264"><ele>33.0</ele><time>2026-04-03T13:47:42.998Z</time></trkpt><trkpt lat="52.434849986109406" lon="13.016195935767724"><ele>33.0</ele><time>2026-04-03T13:47:43.998Z</time></trkpt><trkpt lat="52.434916743405" lon="13.016372117024128"><ele>33.0</ele><time>2026-04-03T13:47:44.998Z</time></trkpt><trkpt lat="52.434973438284736" lon="13.016543003752956"><ele>32.8</ele><time>2026-04-03T13:47:45.998Z</time></trkpt><trkpt lat="52.435010618822446" lon="13.016708301315976"><ele>32.599999999999994</ele><time>2026-04-03T13:47:46.998Z</time></trkpt><trkpt lat="52.43504703794176" lon="13.016843847713288"><ele>32.400000000000006</ele><time>2026-04-03T13:47:47.998Z</time></trkpt><trkpt lat="52.43510242180799" lon="13.017009844648031"><ele>32.2</ele><time>2026-04-03T13:47:49Z</time></trkpt><trkpt lat="52.43515794787236" lon="13.017168643781071"><ele>32.0</ele><time>2026-04-03T13:47:50Z</time></trkpt><trkpt lat="52.43521613097224" lon="13.017331413723767"><ele>32.0</ele><time>2026-04-03T13:47:51Z</time></trkpt><trkpt lat="52.43526874941668" lon="13.017497672972437"><ele>32.0</ele><time>2026-04-03T13:47:52Z</time></trkpt><trkpt lat="52.435315390125886" lon="13.017644025484946"><ele>32.0</ele><time>2026-04-03T13:47:53Z</time></trkpt><trkpt lat="52.435364995297036" lon="13.017790081972686"><ele>32.0</ele><time>2026-04-03T13:47:54Z</time></trkpt><trkpt lat="52.43541358982402" lon="13.017931299670103"><ele>32.0</ele><time>2026-04-03T13:47:55Z</time></trkpt><trkpt lat="52.435464262241155" lon="13.0180732714247"><ele>32.0</ele><time>2026-04-03T13:47:56Z</time></trkpt><trkpt lat="52.43550102898218" lon="13.018211161259801"><ele>32.0</ele><time>2026-04-03T13:47:57Z</time></trkpt><trkpt lat="52.43553913887166" lon="13.018347033681863"><ele>32.0</ele><time>2026-04-03T13:47:58Z</time></trkpt><trkpt lat="52.435585275965366" lon="13.018483520916796"><ele>32.0</ele><time>2026-04-03T13:47:59Z</time></trkpt><trkpt lat="52.43563166720749" lon="13.018604755914655"><ele>32.0</ele><time>2026-04-03T13:48:00Z</time></trkpt><trkpt lat="52.43567959390985" lon="13.018738792373833"><ele>32.0</ele><time>2026-04-03T13:48:01Z</time></trkpt><trkpt lat="52.43572228334163" lon="13.018873731346543"><ele>32.0</ele><time>2026-04-03T13:48:02Z</time></trkpt><trkpt lat="52.435768260731976" lon="13.019005663366734"><ele>32.0</ele><time>2026-04-03T13:48:03Z</time></trkpt><trkpt lat="52.435785205819805" lon="13.019148340440612"><ele>32.0</ele><time>2026-04-03T13:48:04Z</time></trkpt><trkpt lat="52.435849275233316" lon="13.019279930463412"><ele>32.0</ele><time>2026-04-03T13:48:05Z</time></trkpt><trkpt lat="52.43589413672652" lon="13.019421112563283"><ele>32.0</ele><time>2026-04-03T13:48:06Z</time></trkpt><trkpt lat="52.43594613989806" lon="13.0195542438802"><ele>32.0</ele><time>2026-04-03T13:48:07Z</time></trkpt><trkpt lat="52.43600738434205" lon="13.019693135593066"><ele>32.0</ele><time>2026-04-03T13:48:08Z</time></trkpt><trkpt lat="52.4360466549828" lon="13.019828122114772"><ele>32.0</ele><time>2026-04-03T13:48:09Z</time></trkpt><trkpt lat="52.43609524921682" lon="13.019961088494762"><ele>32.0</ele><time>2026-04-03T13:48:10Z</time></trkpt><trkpt lat="52.43614242826341" lon="13.020091233615378"><ele>32.2</ele><time>2026-04-03T13:48:11Z</time></trkpt><trkpt lat="52.436176215782325" lon="13.02025174709128"><ele>32.400000000000006</ele><time>2026-04-03T13:48:12Z</time></trkpt><trkpt lat="52.43622595532973" lon="13.020393414869359"><ele>32.599999999999994</ele><time>2026-04-03T13:48:13Z</time></trkpt><trkpt lat="52.436269815531595" lon="13.020536754418378"><ele>32.8</ele><time>2026-04-03T13:48:14Z</time></trkpt><trkpt lat="52.436313253968464" lon="13.020676098991833"><ele>33.0</ele><time>2026-04-03T13:48:15Z</time></trkpt><trkpt lat="52.43635655219472" lon="13.020807610206745"><ele>33.333333333333336</ele><time>2026-04-03T13:48:16Z</time></trkpt><trkpt lat="52.436402729667925" lon="13.020935038253675"><ele>33.666666666666664</ele><time>2026-04-03T13:48:17Z</time></trkpt><trkpt lat="52.43644698391265" lon="13.021071918552185"><ele>34.0</ele><time>2026-04-03T13:48:18Z</time></trkpt><trkpt lat="52.43648805358449" lon="13.021206344956475"><ele>34.33333333333333</ele><time>2026-04-03T13:48:19Z</time></trkpt><trkpt lat="52.436532517292136" lon="13.021331739804902"><ele>34.666666666666664</ele><time>2026-04-03T13:48:20Z</time></trkpt><trkpt lat="52.43657779955425" lon="13.021443531493107"><ele>35.0</ele><time>2026-04-03T13:48:21Z</time></trkpt><trkpt lat="52.43661701166136" lon="13.02156692663448"><ele>35.0</ele><time>2026-04-03T13:48:22Z</time></trkpt><trkpt lat="52.436658934125255" lon="13.021718486344787"><ele>35.0</ele><time>2026-04-03T13:48:23Z</time></trkpt><trkpt lat="52.43672020865009" lon="13.021849036785932"><ele>35.0</ele><time>2026-04-03T13:48:24Z</time></trkpt><trkpt lat="52.436752487306286" lon="13.021998383753447"><ele>35.0</ele><time>2026-04-03T13:48:25Z</time></trkpt><trkpt lat="52.4367948302106" lon="13.022141852299688"><ele>35.0</ele><time>2026-04-03T13:48:26Z</time></trkpt><trkpt lat="52.43684116037939" lon="13.02227887602766"><ele>35.0</ele><time>2026-04-03T13:48:27Z</time></trkpt><trkpt lat="52.43689400605782" lon="13.022433610415087"><ele>35.0</ele><time>2026-04-03T13:48:28Z</time></trkpt><trkpt lat="52.43694435047088" lon="13.022573850456958"><ele>35.0</ele><time>2026-04-03T13:48:28.999Z</time></trkpt><trkpt lat="52.43698669448986" lon="13.02274407520277"><ele>35.0</ele><time>2026-04-03T13:48:29.999Z</time></trkpt><trkpt lat="52.437046172431515" lon="13.022890511959984"><ele>35.0</ele><time>2026-04-03T13:48:30.999Z</time></trkpt><trkpt lat="52.43708765143298" lon="13.02304957323908"><ele>34.4</ele><time>2026-04-03T13:48:31.999Z</time></trkpt><trkpt lat="52.437139051571705" lon="13.023195583314031"><ele>33.8</ele><time>2026-04-03T13:48:32.999Z</time></trkpt><trkpt lat="52.43718282054802" lon="13.023345629679847"><ele>33.2</ele><time>2026-04-03T13:48:33.999Z</time></trkpt><trkpt lat="52.437243416616894" lon="13.023507892712084"><ele>32.6</ele><time>2026-04-03T13:48:34.999Z</time></trkpt><trkpt lat="52.43728960723019" lon="13.023666997841781"><ele>32.0</ele><time>2026-04-03T13:48:35.999Z</time></trkpt><trkpt lat="52.43733844942164" lon="13.02382307179202"><ele>32.0</ele><time>2026-04-03T13:48:36.999Z</time></trkpt><trkpt lat="52.43738316312166" lon="13.023973958950176"><ele>32.0</ele><time>2026-04-03T13:48:37.999Z</time></trkpt><trkpt lat="52.437433450574666" lon="13.02411378417567"><ele>32.0</ele><time>2026-04-03T13:48:38.999Z</time></trkpt><trkpt lat="52.43748792844075" lon="13.024239986735763"><ele>32.0</ele><time>2026-04-03T13:48:39.999Z</time></trkpt><trkpt lat="52.43752640140545" lon="13.024373914860925"><ele>32.0</ele><time>2026-04-03T13:48:40.999Z</time></trkpt><trkpt lat="52.43756842602864" lon="13.024517061945218"><ele>32.4</ele><time>2026-04-03T13:48:41.999Z</time></trkpt><trkpt lat="52.43760177437305" lon="13.024644345816007"><ele>32.800000000000004</ele><time>2026-04-03T13:48:42.999Z</time></trkpt><trkpt lat="52.4376601049797" lon="13.024773052367303"><ele>33.2</ele><time>2026-04-03T13:48:43.999Z</time></trkpt><trkpt lat="52.437695300613065" lon="13.024906543544306"><ele>33.6</ele><time>2026-04-03T13:48:44.999Z</time></trkpt><trkpt lat="52.43776263471172" lon="13.025042786158169"><ele>34.0</ele><time>2026-04-03T13:48:45.999Z</time></trkpt><trkpt lat="52.437809156156845" lon="13.025169862608623"><ele>34.2</ele><time>2026-04-03T13:48:46.999Z</time></trkpt><trkpt lat="52.43784793604339" lon="13.0253080838286"><ele>34.4</ele><time>2026-04-03T13:48:47.999Z</time></trkpt><trkpt lat="52.43789761603604" lon="13.02542875920082"><ele>34.6</ele><time>2026-04-03T13:48:48.999Z</time></trkpt><trkpt lat="52.43793442157149" lon="13.02556425010863"><ele>34.8</ele><time>2026-04-03T13:48:49.999Z</time></trkpt><trkpt lat="52.4379866330925" lon="13.025705250912274"><ele>35.0</ele><time>2026-04-03T13:48:50.999Z</time></trkpt><trkpt lat="52.43802292960679" lon="13.025842874192856"><ele>34.5</ele><time>2026-04-03T13:48:51.999Z</time></trkpt><trkpt lat="52.438077491640755" lon="13.025953501887622"><ele>34.0</ele><time>2026-04-03T13:48:52.999Z</time></trkpt><trkpt lat="52.438104104370446" lon="13.026092792529669"><ele>33.5</ele><time>2026-04-03T13:48:53.999Z</time></trkpt><trkpt lat="52.43814572335233" lon="13.026230661382426"><ele>33.0</ele><time>2026-04-03T13:48:54.999Z</time></trkpt><trkpt lat="52.43817696335782" lon="13.02637091498048"><ele>32.5</ele><time>2026-04-03T13:48:55.999Z</time></trkpt><trkpt lat="52.438207390084536" lon="13.026504527607164"><ele>32.0</ele><time>2026-04-03T13:48:56.999Z</time></trkpt><trkpt lat="52.438238354736015" lon="13.026637629777843"><ele>32.2</ele><time>2026-04-03T13:48:57.999Z</time></trkpt><trkpt lat="52.43824832362784" lon="13.02679347190157"><ele>32.400000000000006</ele><time>2026-04-03T13:48:58.999Z</time></trkpt><trkpt lat="52.43827294976069" lon="13.02694120585135"><ele>32.599999999999994</ele><time>2026-04-03T13:48:59.999Z</time></trkpt><trkpt lat="52.43826456743305" lon="13.02710253927957"><ele>32.8</ele><time>2026-04-03T13:49:00.999Z</time></trkpt><trkpt lat="52.43827718714853" lon="13.02725700684061"><ele>33.0</ele><time>2026-04-03T13:49:01.999Z</time></trkpt><trkpt lat="52.43825656113991" lon="13.027406315129713"><ele>33.199999999999996</ele><time>2026-04-03T13:49:02.999Z</time></trkpt><trkpt lat="52.43825889337375" lon="13.027548518665485"><ele>33.4</ele><time>2026-04-03T13:49:03.999Z</time></trkpt><trkpt lat="52.43824134585013" lon="13.027694872381462"><ele>33.599999999999994</ele><time>2026-04-03T13:49:04.999Z</time></trkpt><trkpt lat="52.43823546838179" lon="13.027848209662393"><ele>33.8</ele><time>2026-04-03T13:49:05.999Z</time></trkpt><trkpt lat="52.43822753245162" lon="13.028005889440015"><ele>34.0</ele><time>2026-04-03T13:49:06.999Z</time></trkpt><trkpt lat="52.43820730274272" lon="13.028159353978126"><ele>34.0</ele><time>2026-04-03T13:49:07.999Z</time></trkpt><trkpt lat="52.43820258084184" lon="13.028307897759738"><ele>34.0</ele><time>2026-04-03T13:49:08.999Z</time></trkpt><trkpt lat="52.43817116073836" lon="13.028465817695091"><ele>34.0</ele><time>2026-04-03T13:49:09.999Z</time></trkpt><trkpt lat="52.43815921343721" lon="13.028633091945379"><ele>34.0</ele><time>2026-04-03T13:49:10.999Z</time></trkpt><trkpt lat="52.43813586980418" lon="13.028788781045822"><ele>34.0</ele><time>2026-04-03T13:49:11.999Z</time></trkpt><trkpt lat="52.438122292920795" lon="13.028947928895764"><ele>34.0</ele><time>2026-04-03T13:49:12.999Z</time></trkpt><trkpt lat="52.43811312609527" lon="13.029091677472302"><ele>34.0</ele><time>2026-04-03T13:49:13.999Z</time></trkpt><trkpt lat="52.43810202815554" lon="13.029240640297632"><ele>34.0</ele><time>2026-04-03T13:49:14.999Z</time></trkpt><trkpt lat="52.43808925717493" lon="13.029400431799932"><ele>34.0</ele><time>2026-04-03T13:49:15.999Z</time></trkpt><trkpt lat="52.43808045514476" lon="13.029548835256225"><ele>34.0</ele><time>2026-04-03T13:49:16.999Z</time></trkpt><trkpt lat="52.438084132342205" lon="13.029695306328893"><ele>33.6</ele><time>2026-04-03T13:49:17.999Z</time></trkpt><trkpt lat="52.43807046698277" lon="13.029848217071756"><ele>33.2</ele><time>2026-04-03T13:49:18.999Z</time></trkpt><trkpt lat="52.43804282286086" lon="13.030020245768611"><ele>32.800000000000004</ele><time>2026-04-03T13:49:19.999Z</time></trkpt><trkpt lat="52.43803332143321" lon="13.030198137615733"><ele>32.4</ele><time>2026-04-03T13:49:20.999Z</time></trkpt><trkpt lat="52.438016644253295" lon="13.03036922296986"><ele>32.0</ele><time>2026-04-03T13:49:21.999Z</time></trkpt><trkpt lat="52.43800103303456" lon="13.030545676542154"><ele>32.0</ele><time>2026-04-03T13:49:22.999Z</time></trkpt><trkpt lat="52.437987029336014" lon="13.03072723168614"><ele>32.0</ele><time>2026-04-03T13:49:23.999Z</time></trkpt><trkpt lat="52.43797377354781" lon="13.030907532385976"><ele>32.0</ele><time>2026-04-03T13:49:24.999Z</time></trkpt><trkpt lat="52.43796057120829" lon="13.03108606974304"><ele>32.0</ele><time>2026-04-03T13:49:25.999Z</time></trkpt><trkpt lat="52.43794147393804" lon="13.031261838863315"><ele>32.0</ele><time>2026-04-03T13:49:26.999Z</time></trkpt><trkpt lat="52.4379413940075" lon="13.03141621611798"><ele>32.4</ele><time>2026-04-03T13:49:27.998Z</time></trkpt><trkpt lat="52.437923848975224" lon="13.031550753170874"><ele>32.800000000000004</ele><time>2026-04-03T13:49:28.998Z</time></trkpt><trkpt lat="52.43790374740553" lon="13.031710435068439"><ele>33.2</ele><time>2026-04-03T13:49:29.998Z</time></trkpt><trkpt lat="52.437905664047776" lon="13.031863776560048"><ele>33.6</ele><time>2026-04-03T13:49:30.998Z</time></trkpt><trkpt lat="52.43788744760029" lon="13.032016080916769"><ele>34.0</ele><time>2026-04-03T13:49:31.998Z</time></trkpt><trkpt lat="52.4378749664874" lon="13.03216299200855"><ele>34.0</ele><time>2026-04-03T13:49:32.998Z</time></trkpt><trkpt lat="52.43786514528109" lon="13.032321921600754"><ele>34.0</ele><time>2026-04-03T13:49:33.998Z</time></trkpt><trkpt lat="52.437838862508634" lon="13.032482135024512"><ele>34.0</ele><time>2026-04-03T13:49:34.998Z</time></trkpt><trkpt lat="52.43782932917316" lon="13.032651459141496"><ele>34.0</ele><time>2026-04-03T13:49:35.998Z</time></trkpt><trkpt lat="52.43781466108712" lon="13.03282087828973"><ele>34.0</ele><time>2026-04-03T13:49:36.998Z</time></trkpt><trkpt lat="52.43780089585634" lon="13.032985443921543"><ele>34.0</ele><time>2026-04-03T13:49:37.998Z</time></trkpt><trkpt lat="52.43779295221192" lon="13.033154227024628"><ele>34.0</ele><time>2026-04-03T13:49:38.998Z</time></trkpt><trkpt lat="52.43778872530069" lon="13.033319550199765"><ele>34.0</ele><time>2026-04-03T13:49:39.998Z</time></trkpt><trkpt lat="52.437764039994384" lon="13.033482307211944"><ele>34.0</ele><time>2026-04-03T13:49:40.998Z</time></trkpt><trkpt lat="52.43775860675362" lon="13.033651008061288"><ele>34.0</ele><time>2026-04-03T13:49:41.998Z</time></trkpt><trkpt lat="52.43773745074088" lon="13.03380637593733"><ele>34.0</ele><time>2026-04-03T13:49:42.998Z</time></trkpt><trkpt lat="52.437728684755605" lon="13.033962532021707"><ele>34.0</ele><time>2026-04-03T13:49:43.998Z</time></trkpt><trkpt lat="52.437722315636165" lon="13.034130571728378"><ele>34.0</ele><time>2026-04-03T13:49:44.998Z</time></trkpt><trkpt lat="52.43770912272732" lon="13.034293430117371"><ele>34.0</ele><time>2026-04-03T13:49:45.998Z</time></trkpt><trkpt lat="52.437700551464346" lon="13.034453308554957"><ele>34.0</ele><time>2026-04-03T13:49:46.998Z</time></trkpt><trkpt lat="52.437671240078636" lon="13.034608412692563"><ele>34.0</ele><time>2026-04-03T13:49:47.998Z</time></trkpt><trkpt lat="52.43766302844455" lon="13.034771482900402"><ele>34.0</ele><time>2026-04-03T13:49:48.998Z</time></trkpt><trkpt lat="52.43764456093203" lon="13.034934303675849"><ele>34.0</ele><time>2026-04-03T13:49:49.998Z</time></trkpt><trkpt lat="52.437630369386845" lon="13.035099577947571"><ele>34.0</ele><time>2026-04-03T13:49:50.998Z</time></trkpt><trkpt lat="52.437611647474824" lon="13.035266940940833"><ele>34.0</ele><time>2026-04-03T13:49:51.998Z</time></trkpt><trkpt lat="52.43759645591252" lon="13.035434236998888"><ele>34.0</ele><time>2026-04-03T13:49:52.998Z</time></trkpt><trkpt lat="52.437581096196055" lon="13.035606074487518"><ele>34.0</ele><time>2026-04-03T13:49:54Z</time></trkpt><trkpt lat="52.437574719981406" lon="13.035774852634464"><ele>34.0</ele><time>2026-04-03T13:49:55Z</time></trkpt><trkpt lat="52.437563000879656" lon="13.035941685907124"><ele>34.0</ele><time>2026-04-03T13:49:56Z</time></trkpt><trkpt lat="52.4375371724274" lon="13.036117216374336"><ele>34.0</ele><time>2026-04-03T13:49:57Z</time></trkpt><trkpt lat="52.437517441739125" lon="13.03629473561153"><ele>34.0</ele><time>2026-04-03T13:49:58Z</time></trkpt><trkpt lat="52.43750675364636" lon="13.036462007827634"><ele>34.0</ele><time>2026-04-03T13:49:59Z</time></trkpt><trkpt lat="52.43749082887571" lon="13.036634920283577"><ele>34.0</ele><time>2026-04-03T13:50:00Z</time></trkpt><trkpt lat="52.43745764752002" lon="13.036782876052575"><ele>34.0</ele><time>2026-04-03T13:50:01Z</time></trkpt><trkpt lat="52.4374119866903" lon="13.036943240329354"><ele>34.0</ele><time>2026-04-03T13:50:02Z</time></trkpt><trkpt lat="52.43736868454052" lon="13.037100691535704"><ele>34.0</ele><time>2026-04-03T13:50:03Z</time></trkpt><trkpt lat="52.437330634032165" lon="13.037256598438741"><ele>34.0</ele><time>2026-04-03T13:50:04Z</time></trkpt><trkpt lat="52.437287561825734" lon="13.037410599197747"><ele>34.0</ele><time>2026-04-03T13:50:05Z</time></trkpt><trkpt lat="52.43724503762787" lon="13.037552739155988"><ele>34.0</ele><time>2026-04-03T13:50:06Z</time></trkpt><trkpt lat="52.43720675574817" lon="13.037704803031955"><ele>34.0</ele><time>2026-04-03T13:50:07Z</time></trkpt><trkpt lat="52.43716721250744" lon="13.037873660786039"><ele>34.8</ele><time>2026-04-03T13:50:08Z</time></trkpt><trkpt lat="52.4371345920056" lon="13.0380487452513"><ele>35.599999999999994</ele><time>2026-04-03T13:50:09Z</time></trkpt><trkpt lat="52.437108920096854" lon="13.038214007269337"><ele>36.4</ele><time>2026-04-03T13:50:10Z</time></trkpt><trkpt lat="52.43707981117801" lon="13.038402703465142"><ele>37.199999999999996</ele><time>2026-04-03T13:50:11Z</time></trkpt><trkpt lat="52.437058814551456" lon="13.038567108742257"><ele>38.0</ele><time>2026-04-03T13:50:12Z</time></trkpt><trkpt lat="52.43702017862957" lon="13.038765262156245"><ele>39.0</ele><time>2026-04-03T13:50:13Z</time></trkpt><trkpt lat="52.436986938782205" lon="13.038933273658861"><ele>40.0</ele><time>2026-04-03T13:50:14Z</time></trkpt><trkpt lat="52.43695921593418" lon="13.039114208794434"><ele>41.0</ele><time>2026-04-03T13:50:15Z</time></trkpt><trkpt lat="52.43693099794982" lon="13.0393031000508"><ele>42.0</ele><time>2026-04-03T13:50:16Z</time></trkpt><trkpt lat="52.436908056007155" lon="13.039486186518376"><ele>42.25</ele><time>2026-04-03T13:50:17Z</time></trkpt><trkpt lat="52.43687610632441" lon="13.039682134851304"><ele>42.5</ele><time>2026-04-03T13:50:18Z</time></trkpt><trkpt lat="52.43683973267349" lon="13.039879173284035"><ele>42.75</ele><time>2026-04-03T13:50:19Z</time></trkpt><trkpt lat="52.43680567019218" lon="13.04008022545084"><ele>43.0</ele><time>2026-04-03T13:50:20Z</time></trkpt><trkpt lat="52.43678053252702" lon="13.04028281187833"><ele>43.25</ele><time>2026-04-03T13:50:21Z</time></trkpt><trkpt lat="52.436771981546144" lon="13.040487654386432"><ele>43.5</ele><time>2026-04-03T13:50:22Z</time></trkpt><trkpt lat="52.4367776679642" lon="13.040686530939709"><ele>43.75</ele><time>2026-04-03T13:50:23Z</time></trkpt><trkpt lat="52.43678446324372" lon="13.04088741343558"><ele>44.0</ele><time>2026-04-03T13:50:24Z</time></trkpt><trkpt lat="52.43677419439568" lon="13.041076783977037"><ele>44.0</ele><time>2026-04-03T13:50:25Z</time></trkpt><trkpt lat="52.43675647003576" lon="13.041265710171851"><ele>44.0</ele><time>2026-04-03T13:50:26Z</time></trkpt><trkpt lat="52.43673863800065" lon="13.041453083386338"><ele>44.0</ele><time>2026-04-03T13:50:27Z</time></trkpt><trkpt lat="52.43671840682337" lon="13.041633114541273"><ele>44.0</ele><time>2026-04-03T13:50:28Z</time></trkpt><trkpt lat="52.43669255376973" lon="13.041817119158923"><ele>43.25</ele><time>2026-04-03T13:50:29Z</time></trkpt><trkpt lat="52.43667186841869" lon="13.04199833553283"><ele>42.5</ele><time>2026-04-03T13:50:30Z</time></trkpt><trkpt lat="52.436641022470155" lon="13.042193411480174"><ele>41.75</ele><time>2026-04-03T13:50:31Z</time></trkpt><trkpt lat="52.43662661666304" lon="13.042384313695694"><ele>41.0</ele><time>2026-04-03T13:50:32Z</time></trkpt><trkpt lat="52.43660732496391" lon="13.042564692069027"><ele>40.0</ele><time>2026-04-03T13:50:33Z</time></trkpt><trkpt lat="52.436580612176584" lon="13.042753300198406"><ele>39.0</ele><time>2026-04-03T13:50:34Z</time></trkpt><trkpt lat="52.43654951592157" lon="13.042951082886788"><ele>38.0</ele><time>2026-04-03T13:50:34.999Z</time></trkpt><trkpt lat="52.43651801527818" lon="13.043150581502285"><ele>37.0</ele><time>2026-04-03T13:50:35.999Z</time></trkpt><trkpt lat="52.43649872562487" lon="13.043337961689728"><ele>36.5</ele><time>2026-04-03T13:50:36.999Z</time></trkpt><trkpt lat="52.43648518228058" lon="13.043506663445628"><ele>36.0</ele><time>2026-04-03T13:50:37.999Z</time></trkpt><trkpt lat="52.43646920976274" lon="13.043698799137566"><ele>35.5</ele><time>2026-04-03T13:50:38.999Z</time></trkpt><trkpt lat="52.43644061352399" lon="13.04390148907503"><ele>35.0</ele><time>2026-04-03T13:50:39.999Z</time></trkpt><trkpt lat="52.436410335627926" lon="13.044110682967183"><ele>35.0</ele><time>2026-04-03T13:50:40.999Z</time></trkpt><trkpt lat="52.43638524332828" lon="13.044326954572067"><ele>35.0</ele><time>2026-04-03T13:50:41.999Z</time></trkpt><trkpt lat="52.43636197129804" lon="13.044544301884246"><ele>35.0</ele><time>2026-04-03T13:50:42.999Z</time></trkpt><trkpt lat="52.43634135128181" lon="13.044731723251529"><ele>35.0</ele><time>2026-04-03T13:50:43.999Z</time></trkpt><trkpt lat="52.43633060495258" lon="13.044895128813634"><ele>35.75</ele><time>2026-04-03T13:50:44.999Z</time></trkpt><trkpt lat="52.436323738629255" lon="13.045068551745105"><ele>36.5</ele><time>2026-04-03T13:50:45.999Z</time></trkpt><trkpt lat="52.436343484741364" lon="13.045252395973797"><ele>37.25</ele><time>2026-04-03T13:50:46.999Z</time></trkpt><trkpt lat="52.43638425423812" lon="13.045472433402166"><ele>38.0</ele><time>2026-04-03T13:50:47.999Z</time></trkpt><trkpt lat="52.436454577364366" lon="13.045677489681996"><ele>39.75</ele><time>2026-04-03T13:50:48.999Z</time></trkpt><trkpt lat="52.43653612538206" lon="13.045869495366352"><ele>41.5</ele><time>2026-04-03T13:50:49.999Z</time></trkpt><trkpt lat="52.43659787977702" lon="13.04606506987152"><ele>43.25</ele><time>2026-04-03T13:50:50.999Z</time></trkpt><trkpt lat="52.43665895863521" lon="13.04625369174164"><ele>45.0</ele><time>2026-04-03T13:50:51.999Z</time></trkpt><trkpt lat="52.43671584711737" lon="13.04644207937596"><ele>45.0</ele><time>2026-04-03T13:50:52.999Z</time></trkpt><trkpt lat="52.43677767414258" lon="13.046619455198579"><ele>45.0</ele><time>2026-04-03T13:50:53.999Z</time></trkpt><trkpt lat="52.43684614133813" lon="13.0467957033624"><ele>45.0</ele><time>2026-04-03T13:50:54.999Z</time></trkpt><trkpt lat="52.436920546558" lon="13.046971281227885"><ele>45.0</ele><time>2026-04-03T13:50:55.999Z</time></trkpt><trkpt lat="52.436981932730035" lon="13.047147385467289"><ele>45.0</ele><time>2026-04-03T13:50:56.999Z</time></trkpt><trkpt lat="52.43704679034472" lon="13.047312241637856"><ele>45.0</ele><time>2026-04-03T13:50:57.999Z</time></trkpt><trkpt lat="52.43710685786006" lon="13.04747864581672"><ele>45.0</ele><time>2026-04-03T13:50:58.999Z</time></trkpt><trkpt lat="52.43714872091878" lon="13.0476316876373"><ele>45.0</ele><time>2026-04-03T13:50:59.999Z</time></trkpt><trkpt lat="52.43719395634045" lon="13.047768218972324"><ele>45.0</ele><time>2026-04-03T13:51:00.999Z</time></trkpt><trkpt lat="52.437233073878446" lon="13.047919597744412"><ele>44.4</ele><time>2026-04-03T13:51:01.999Z</time></trkpt><trkpt lat="52.4373064078479" lon="13.048079241496461"><ele>43.8</ele><time>2026-04-03T13:51:02.999Z</time></trkpt><trkpt lat="52.437355948037414" lon="13.048190188482124"><ele>43.2</ele><time>2026-04-03T13:51:03.999Z</time></trkpt><trkpt lat="52.437380236976125" lon="13.048317976286135"><ele>42.6</ele><time>2026-04-03T13:51:04.999Z</time></trkpt><trkpt lat="52.43738179137658" lon="13.048457722695646"><ele>42.0</ele><time>2026-04-03T13:51:05.999Z</time></trkpt><trkpt lat="52.437387854431414" lon="13.048613508466902"><ele>40.75</ele><time>2026-04-03T13:51:06.999Z</time></trkpt><trkpt lat="52.437318103160635" lon="13.048810385737859"><ele>39.5</ele><time>2026-04-03T13:51:07.999Z</time></trkpt><trkpt lat="52.43726336129869" lon="13.0490149503295"><ele>38.25</ele><time>2026-04-03T13:51:08.999Z</time></trkpt><trkpt lat="52.43721899930906" lon="13.04920042413114"><ele>37.0</ele><time>2026-04-03T13:51:09.999Z</time></trkpt><trkpt lat="52.43717539728866" lon="13.049363310300302"><ele>37.2</ele><time>2026-04-03T13:51:10.999Z</time></trkpt><trkpt lat="52.43713346421662" lon="13.049515604321176"><ele>37.400000000000006</ele><time>2026-04-03T13:51:11.999Z</time></trkpt><trkpt lat="52.437076597103676" lon="13.049668803455752"><ele>37.599999999999994</ele><time>2026-04-03T13:51:12.999Z</time></trkpt><trkpt lat="52.437044323280496" lon="13.049820601268554"><ele>37.8</ele><time>2026-04-03T13:51:13.999Z</time></trkpt><trkpt lat="52.43699939360935" lon="13.049926486468095"><ele>38.0</ele><time>2026-04-03T13:51:14.999Z</time></trkpt><trkpt lat="52.43696930101617" lon="13.050089351486227"><ele>38.0</ele><time>2026-04-03T13:51:15.999Z</time></trkpt><trkpt lat="52.43692108070721" lon="13.050219301745038"><ele>38.0</ele><time>2026-04-03T13:51:16.999Z</time></trkpt><trkpt lat="52.4368799487775" lon="13.050336690490623"><ele>38.0</ele><time>2026-04-03T13:51:17.999Z</time></trkpt><trkpt lat="52.43684685261613" lon="13.05045821489192"><ele>38.0</ele><time>2026-04-03T13:51:18.999Z</time></trkpt><trkpt lat="52.4368183921521" lon="13.050580255375602"><ele>38.0</ele><time>2026-04-03T13:51:19.999Z</time></trkpt><trkpt lat="52.43678003642221" lon="13.050775013185275"><ele>37.83333333333333</ele><time>2026-04-03T13:51:21.999Z</time></trkpt><trkpt lat="52.43674971084666" lon="13.050865934474322"><ele>37.666666666666664</ele><time>2026-04-03T13:51:22.999Z</time></trkpt><trkpt lat="52.43668375092731" lon="13.05101346637491"><ele>37.5</ele><time>2026-04-03T13:51:24.999Z</time></trkpt><trkpt lat="52.43667394462418" lon="13.051141380746136"><ele>37.333333333333336</ele><time>2026-04-03T13:51:36.998Z</time></trkpt><trkpt lat="52.43676209589465" lon="13.051182834383653"><ele>37.16666666666667</ele><time>2026-04-03T13:51:38.998Z</time></trkpt><trkpt lat="52.43682962557559" lon="13.05114073551271"><ele>37.0</ele><time>2026-04-03T13:51:39.998Z</time></trkpt><trkpt lat="52.43690965349695" lon="13.05111328500572"><ele>37.0</ele><time>2026-04-03T13:51:40.998Z</time></trkpt><trkpt lat="52.4369936370521" lon="13.05106659267804"><ele>37.0</ele><time>2026-04-03T13:51:41.998Z</time></trkpt><trkpt lat="52.437098151442314" lon="13.050981779982255"><ele>37.0</ele><time>2026-04-03T13:51:42.998Z</time></trkpt><trkpt lat="52.43722850347527" lon="13.050919908041958"><ele>37.0</ele><time>2026-04-03T13:51:43.998Z</time></trkpt><trkpt lat="52.43736915996204" lon="13.050840858595592"><ele>36.5</ele><time>2026-04-03T13:51:44.998Z</time></trkpt><trkpt lat="52.43751342366842" lon="13.05075819146177"><ele>36.0</ele><time>2026-04-03T13:51:45.998Z</time></trkpt><trkpt lat="52.43765347458134" lon="13.050682985189097"><ele>35.5</ele><time>2026-04-03T13:51:46.998Z</time></trkpt><trkpt lat="52.43778472150234" lon="13.050616644521622"><ele>35.0</ele><time>2026-04-03T13:51:47.998Z</time></trkpt><trkpt lat="52.43791044448193" lon="13.050569474420993"><ele>35.0</ele><time>2026-04-03T13:51:48.998Z</time></trkpt><trkpt lat="52.43804461432448" lon="13.050543556874292"><ele>35.0</ele><time>2026-04-03T13:51:49.998Z</time></trkpt><trkpt lat="52.4381794997844" lon="13.050502589346108"><ele>35.0</ele><time>2026-04-03T13:51:50.998Z</time></trkpt><trkpt lat="52.43831900575225" lon="13.050456357886485"><ele>35.0</ele><time>2026-04-03T13:51:51.998Z</time></trkpt><trkpt lat="52.43844738485735" lon="13.050393532906053"><ele>35.0</ele><time>2026-04-03T13:51:52.998Z</time></trkpt><trkpt lat="52.43857809236" lon="13.050307436958045"><ele>35.0</ele><time>2026-04-03T13:51:53.998Z</time></trkpt><trkpt lat="52.43870787860404" lon="13.05021523589892"><ele>35.0</ele><time>2026-04-03T13:51:54.998Z</time></trkpt><trkpt lat="52.43883644162102" lon="13.050122378878264"><ele>35.0</ele><time>2026-04-03T13:51:55.998Z</time></trkpt><trkpt lat="52.4389644128934" lon="13.05001863145689"><ele>34.5</ele><time>2026-04-03T13:51:56.998Z</time></trkpt><trkpt lat="52.439095652057766" lon="13.049931109118566"><ele>34.0</ele><time>2026-04-03T13:51:57.998Z</time></trkpt><trkpt lat="52.43921992929779" lon="13.049858119044496"><ele>33.5</ele><time>2026-04-03T13:51:58.998Z</time></trkpt><trkpt lat="52.43934599550908" lon="13.049758820529615"><ele>33.0</ele><time>2026-04-03T13:52:00Z</time></trkpt><trkpt lat="52.43947391105258" lon="13.04967138452807"><ele>33.0</ele><time>2026-04-03T13:52:01Z</time></trkpt><trkpt lat="52.43960205024624" lon="13.049587677268729"><ele>33.0</ele><time>2026-04-03T13:52:02Z</time></trkpt><trkpt lat="52.43973022463021" lon="13.04950363056797"><ele>33.0</ele><time>2026-04-03T13:52:03Z</time></trkpt><trkpt lat="52.43985872421903" lon="13.049420303337472"><ele>33.0</ele><time>2026-04-03T13:52:04Z</time></trkpt><trkpt lat="52.43998282884384" lon="13.049335182157627"><ele>33.0</ele><time>2026-04-03T13:52:05Z</time></trkpt><trkpt lat="52.44010453201408" lon="13.049251134473298"><ele>33.0</ele><time>2026-04-03T13:52:06Z</time></trkpt><trkpt lat="52.44022557623208" lon="13.049172069539361"><ele>33.0</ele><time>2026-04-03T13:52:07Z</time></trkpt><trkpt lat="52.4403485430448" lon="13.049099320866553"><ele>33.0</ele><time>2026-04-03T13:52:08Z</time></trkpt><trkpt lat="52.440474198549744" lon="13.049024850907857"><ele>33.5</ele><time>2026-04-03T13:52:09Z</time></trkpt><trkpt lat="52.440594777594086" lon="13.048949680564627"><ele>34.0</ele><time>2026-04-03T13:52:10Z</time></trkpt><trkpt lat="52.44071425009359" lon="13.048874004586436"><ele>34.5</ele><time>2026-04-03T13:52:11Z</time></trkpt><trkpt lat="52.440831752444716" lon="13.048796487433266"><ele>35.0</ele><time>2026-04-03T13:52:12Z</time></trkpt><trkpt lat="52.44095036963327" lon="13.048700596094637"><ele>35.0</ele><time>2026-04-03T13:52:13Z</time></trkpt><trkpt lat="52.44106429394394" lon="13.048625907577895"><ele>35.0</ele><time>2026-04-03T13:52:14Z</time></trkpt><trkpt lat="52.44117892880998" lon="13.048550646600678"><ele>35.0</ele><time>2026-04-03T13:52:15Z</time></trkpt><trkpt lat="52.44129316032967" lon="13.04847404740551"><ele>35.0</ele><time>2026-04-03T13:52:16Z</time></trkpt><trkpt lat="52.44140883271407" lon="13.048408491340695"><ele>35.0</ele><time>2026-04-03T13:52:17Z</time></trkpt><trkpt lat="52.44152334995731" lon="13.048315118699714"><ele>35.0</ele><time>2026-04-03T13:52:18Z</time></trkpt><trkpt lat="52.44163339219778" lon="13.0482254095169"><ele>35.0</ele><time>2026-04-03T13:52:19Z</time></trkpt><trkpt lat="52.44174545344618" lon="13.04814063086666"><ele>35.0</ele><time>2026-04-03T13:52:20Z</time></trkpt><trkpt lat="52.44186346628988" lon="13.048057595620163"><ele>35.0</ele><time>2026-04-03T13:52:21Z</time></trkpt><trkpt lat="52.44198125451189" lon="13.047981564832098"><ele>35.0</ele><time>2026-04-03T13:52:22Z</time></trkpt><trkpt lat="52.44209537697251" lon="13.047913021205455"><ele>35.0</ele><time>2026-04-03T13:52:23Z</time></trkpt><trkpt lat="52.44220502235802" lon="13.047853824457626"><ele>35.0</ele><time>2026-04-03T13:52:24Z</time></trkpt><trkpt lat="52.442323028033215" lon="13.047756703537376"><ele>35.0</ele><time>2026-04-03T13:52:25Z</time></trkpt><trkpt lat="52.442432098017896" lon="13.047660249508118"><ele>35.0</ele><time>2026-04-03T13:52:26Z</time></trkpt><trkpt lat="52.44253653045739" lon="13.047576609191436"><ele>35.0</ele><time>2026-04-03T13:52:27Z</time></trkpt><trkpt lat="52.442648177566994" lon="13.047501106453275"><ele>35.0</ele><time>2026-04-03T13:52:28Z</time></trkpt><trkpt lat="52.44276648340311" lon="13.047413985727596"><ele>35.6</ele><time>2026-04-03T13:52:29Z</time></trkpt><trkpt lat="52.442874040307544" lon="13.047338232896356"><ele>36.2</ele><time>2026-04-03T13:52:30Z</time></trkpt><trkpt lat="52.442967246198094" lon="13.047283265011991"><ele>36.8</ele><time>2026-04-03T13:52:31Z</time></trkpt><trkpt lat="52.44306835341806" lon="13.047197154764385"><ele>37.4</ele><time>2026-04-03T13:52:32Z</time></trkpt><trkpt lat="52.443171688662495" lon="13.04712184205192"><ele>38.0</ele><time>2026-04-03T13:52:33Z</time></trkpt><trkpt lat="52.44328032895716" lon="13.047038053318895"><ele>39.75</ele><time>2026-04-03T13:52:34Z</time></trkpt><trkpt lat="52.44340049885717" lon="13.046949495952736"><ele>41.5</ele><time>2026-04-03T13:52:35Z</time></trkpt><trkpt lat="52.44352286907942" lon="13.046868723517777"><ele>43.25</ele><time>2026-04-03T13:52:36Z</time></trkpt><trkpt lat="52.44364026952542" lon="13.046777027782673"><ele>45.0</ele><time>2026-04-03T13:52:37Z</time></trkpt><trkpt lat="52.44375314056685" lon="13.04667272568589"><ele>46.5</ele><time>2026-04-03T13:52:38Z</time></trkpt><trkpt lat="52.443883651685724" lon="13.0466008690819"><ele>48.0</ele><time>2026-04-03T13:52:39Z</time></trkpt><trkpt lat="52.444021991872845" lon="13.04653309478829"><ele>49.5</ele><time>2026-04-03T13:52:40Z</time></trkpt><trkpt lat="52.444160491859634" lon="13.04644309873876"><ele>51.0</ele><time>2026-04-03T13:52:41Z</time></trkpt><trkpt lat="52.4443030842718" lon="13.04635335626669"><ele>51.0</ele><time>2026-04-03T13:52:41.999Z</time></trkpt><trkpt lat="52.4444523994088" lon="13.04626319292088"><ele>51.0</ele><time>2026-04-03T13:52:42.999Z</time></trkpt><trkpt lat="52.444624017341916" lon="13.046202512963783"><ele>51.0</ele><time>2026-04-03T13:52:43.999Z</time></trkpt><trkpt lat="52.4447914328021" lon="13.046156948341189"><ele>50.25</ele><time>2026-04-03T13:52:44.999Z</time></trkpt><trkpt lat="52.44494177988752" lon="13.046153462121353"><ele>49.5</ele><time>2026-04-03T13:52:45.999Z</time></trkpt><trkpt lat="52.44509254882147" lon="13.046141594935342"><ele>48.75</ele><time>2026-04-03T13:52:46.999Z</time></trkpt><trkpt lat="52.44523038487398" lon="13.046125098384868"><ele>48.0</ele><time>2026-04-03T13:52:47.999Z</time></trkpt><trkpt lat="52.44537143628119" lon="13.046119997977328"><ele>49.25</ele><time>2026-04-03T13:52:48.999Z</time></trkpt><trkpt lat="52.44550817209455" lon="13.046120893043767"><ele>50.5</ele><time>2026-04-03T13:52:49.999Z</time></trkpt><trkpt lat="52.44564646411113" lon="13.0461193020942"><ele>51.75</ele><time>2026-04-03T13:52:50.999Z</time></trkpt><trkpt lat="52.44578999097413" lon="13.046115880276613"><ele>53.0</ele><time>2026-04-03T13:52:51.999Z</time></trkpt><trkpt lat="52.445931956245786" lon="13.046106135504333"><ele>53.0</ele><time>2026-04-03T13:52:52.999Z</time></trkpt><trkpt lat="52.446091264479755" lon="13.046123736147036"><ele>53.0</ele><time>2026-04-03T13:52:53.999Z</time></trkpt><trkpt lat="52.4462438910424" lon="13.046122014451658"><ele>53.0</ele><time>2026-04-03T13:52:54.999Z</time></trkpt><trkpt lat="52.446401880450495" lon="13.046125519670703"><ele>54.0</ele><time>2026-04-03T13:52:55.999Z</time></trkpt><trkpt lat="52.4465630150022" lon="13.046117821011299"><ele>55.0</ele><time>2026-04-03T13:52:56.999Z</time></trkpt><trkpt lat="52.446728160089116" lon="13.046120136691625"><ele>56.0</ele><time>2026-04-03T13:52:57.999Z</time></trkpt><trkpt lat="52.4469048867026" lon="13.046113260828097"><ele>56.0</ele><time>2026-04-03T13:52:58.999Z</time></trkpt><trkpt lat="52.447082434726724" lon="13.046104745239026"><ele>56.0</ele><time>2026-04-03T13:52:59.999Z</time></trkpt><trkpt lat="52.447235772422914" lon="13.046096251530427"><ele>56.0</ele><time>2026-04-03T13:53:00.999Z</time></trkpt><trkpt lat="52.44739178072579" lon="13.04609558029038"><ele>54.333333333333336</ele><time>2026-04-03T13:53:01.999Z</time></trkpt><trkpt lat="52.44756430055842" lon="13.04610180307775"><ele>52.66666666666667</ele><time>2026-04-03T13:53:02.999Z</time></trkpt><trkpt lat="52.44771989679006" lon="13.046129041265559"><ele>51.0</ele><time>2026-04-03T13:53:03.999Z</time></trkpt><trkpt lat="52.44784803002233" lon="13.046089524839411"><ele>50.0</ele><time>2026-04-03T13:53:04.999Z</time></trkpt><trkpt lat="52.44799421437266" lon="13.046106060548144"><ele>49.0</ele><time>2026-04-03T13:53:05.999Z</time></trkpt><trkpt lat="52.44814001899375" lon="13.04610820178961"><ele>48.0</ele><time>2026-04-03T13:53:06.999Z</time></trkpt><trkpt lat="52.448297194189315" lon="13.046107505278895"><ele>47.0</ele><time>2026-04-03T13:53:07.999Z</time></trkpt><trkpt lat="52.448454253812116" lon="13.04610893282428"><ele>47.0</ele><time>2026-04-03T13:53:08.999Z</time></trkpt><trkpt lat="52.44859136925335" lon="13.04610249795249"><ele>47.0</ele><time>2026-04-03T13:53:09.999Z</time></trkpt><trkpt lat="52.44873618711982" lon="13.046119493683952"><ele>47.0</ele><time>2026-04-03T13:53:10.999Z</time></trkpt><trkpt lat="52.44887969133182" lon="13.046125810568025"><ele>47.0</ele><time>2026-04-03T13:53:11.999Z</time></trkpt><trkpt lat="52.44899323964898" lon="13.046144740379068"><ele>47.5</ele><time>2026-04-03T13:53:12.999Z</time></trkpt><trkpt lat="52.44910889362072" lon="13.046153962595167"><ele>48.0</ele><time>2026-04-03T13:53:13.999Z</time></trkpt><trkpt lat="52.44918243068797" lon="13.046160208921545"><ele>48.5</ele><time>2026-04-03T13:53:14.999Z</time></trkpt><trkpt lat="52.44926426282188" lon="13.046165297688805"><ele>49.0</ele><time>2026-04-03T13:53:15.999Z</time></trkpt><trkpt lat="52.44935294379862" lon="13.046177819862736"><ele>49.50000000000001</ele><time>2026-04-03T13:53:16.999Z</time></trkpt><trkpt lat="52.44942426939524" lon="13.046202587926256"><ele>50.0</ele><time>2026-04-03T13:53:17.999Z</time></trkpt><trkpt lat="52.449497894569255" lon="13.04622573882688"><ele>50.0</ele><time>2026-04-03T13:53:18.999Z</time></trkpt><trkpt lat="52.4495999051795" lon="13.046238233480015"><ele>50.0</ele><time>2026-04-03T13:53:20.999Z</time></trkpt><trkpt lat="52.44968671022815" lon="13.046256289070998"><ele>50.0</ele><time>2026-04-03T13:53:22.999Z</time></trkpt><trkpt lat="52.44978910314623" lon="13.04627334036699"><ele>50.0</ele><time>2026-04-03T13:53:25.999Z</time></trkpt><trkpt lat="52.44986318411921" lon="13.046298037149784"><ele>50.0</ele><time>2026-04-03T13:53:27.999Z</time></trkpt><trkpt lat="52.449949716653805" lon="13.046299304964599"><ele>50.6</ele><time>2026-04-03T13:53:30.999Z</time></trkpt><trkpt lat="52.450013641810415" lon="13.046324563319486"><ele>51.2</ele><time>2026-04-03T13:53:34.999Z</time></trkpt><trkpt lat="52.45010802114996" lon="13.046314410721614"><ele>51.8</ele><time>2026-04-03T13:53:36.999Z</time></trkpt><trkpt lat="52.45020715915679" lon="13.046331205782518"><ele>52.4</ele><time>2026-04-03T13:53:37.999Z</time></trkpt><trkpt lat="52.450310200677464" lon="13.046365688577062"><ele>53.0</ele><time>2026-04-03T13:53:38.999Z</time></trkpt><trkpt lat="52.45042750991776" lon="13.046384976934787"><ele>53.25</ele><time>2026-04-03T13:53:39.999Z</time></trkpt><trkpt lat="52.45055476928978" lon="13.046397556280992"><ele>53.5</ele><time>2026-04-03T13:53:40.998Z</time></trkpt><trkpt lat="52.45068599326581" lon="13.046404672374326"><ele>53.75</ele><time>2026-04-03T13:53:41.998Z</time></trkpt><trkpt lat="52.45083139300151" lon="13.046435411060488"><ele>54.0</ele><time>2026-04-03T13:53:42.998Z</time></trkpt><trkpt lat="52.450976299950035" lon="13.046457289190245"><ele>54.0</ele><time>2026-04-03T13:53:43.998Z</time></trkpt><trkpt lat="52.4511162864706" lon="13.046465208856795"><ele>54.0</ele><time>2026-04-03T13:53:44.998Z</time></trkpt><trkpt lat="52.45125858871141" lon="13.046484759276687"><ele>54.0</ele><time>2026-04-03T13:53:45.998Z</time></trkpt><trkpt lat="52.451390812216346" lon="13.046492806170566"><ele>54.0</ele><time>2026-04-03T13:53:46.998Z</time></trkpt><trkpt lat="52.45152788965304" lon="13.046509727662128"><ele>53.25</ele><time>2026-04-03T13:53:47.998Z</time></trkpt><trkpt lat="52.45167457484228" lon="13.046538361227277"><ele>52.5</ele><time>2026-04-03T13:53:48.998Z</time></trkpt><trkpt lat="52.451799034887735" lon="13.04654533451445"><ele>51.75</ele><time>2026-04-03T13:53:49.998Z</time></trkpt><trkpt lat="52.45193847572207" lon="13.046586576139932"><ele>51.0</ele><time>2026-04-03T13:53:50.998Z</time></trkpt><trkpt lat="52.45207904740111" lon="13.046610128607133"><ele>47.75</ele><time>2026-04-03T13:53:51.998Z</time></trkpt><trkpt lat="52.45221969928342" lon="13.04663899416942"><ele>44.5</ele><time>2026-04-03T13:53:52.998Z</time></trkpt><trkpt lat="52.45235773457452" lon="13.046657859021503"><ele>41.25</ele><time>2026-04-03T13:53:53.998Z</time></trkpt><trkpt lat="52.452498528956745" lon="13.046679083477057"><ele>38.0</ele><time>2026-04-03T13:53:54.998Z</time></trkpt><trkpt lat="52.45263856265061" lon="13.046708690288698"><ele>38.0</ele><time>2026-04-03T13:53:55.998Z</time></trkpt><trkpt lat="52.4527869812876" lon="13.046734668587721"><ele>38.0</ele><time>2026-04-03T13:53:56.998Z</time></trkpt><trkpt lat="52.45293103366113" lon="13.046747626816634"><ele>38.0</ele><time>2026-04-03T13:53:57.998Z</time></trkpt><trkpt lat="52.453084804387274" lon="13.046781301907966"><ele>38.0</ele><time>2026-04-03T13:53:58.998Z</time></trkpt><trkpt lat="52.45324614400791" lon="13.046822721092687"><ele>39.0</ele><time>2026-04-03T13:53:59.998Z</time></trkpt><trkpt lat="52.45339613252766" lon="13.04683783702902"><ele>40.0</ele><time>2026-04-03T13:54:00.998Z</time></trkpt><trkpt lat="52.45354485282621" lon="13.046865761668382"><ele>41.0</ele><time>2026-04-03T13:54:01.998Z</time></trkpt><trkpt lat="52.45369370824033" lon="13.046893079154923"><ele>41.0</ele><time>2026-04-03T13:54:02.998Z</time></trkpt><trkpt lat="52.45383646016687" lon="13.046923571329513"><ele>41.0</ele><time>2026-04-03T13:54:03.998Z</time></trkpt><trkpt lat="52.45399368207224" lon="13.046969252765868"><ele>41.0</ele><time>2026-04-03T13:54:04.998Z</time></trkpt><trkpt lat="52.454144293060025" lon="13.047009614899062"><ele>41.0</ele><time>2026-04-03T13:54:06Z</time></trkpt><trkpt lat="52.45430111288159" lon="13.047050236034758"><ele>41.0</ele><time>2026-04-03T13:54:07Z</time></trkpt><trkpt lat="52.454455963700646" lon="13.047102192842548"><ele>41.0</ele><time>2026-04-03T13:54:08Z</time></trkpt><trkpt lat="52.45462308055463" lon="13.047159892458582"><ele>39.666666666666664</ele><time>2026-04-03T13:54:09Z</time></trkpt><trkpt lat="52.45478020827026" lon="13.047208351462938"><ele>38.333333333333336</ele><time>2026-04-03T13:54:10Z</time></trkpt><trkpt lat="52.454942565588055" lon="13.047263847867915"><ele>37.0</ele><time>2026-04-03T13:54:11Z</time></trkpt><trkpt lat="52.45510877185043" lon="13.047312204189529"><ele>37.0</ele><time>2026-04-03T13:54:12Z</time></trkpt><trkpt lat="52.455264669812784" lon="13.047368144255145"><ele>37.0</ele><time>2026-04-03T13:54:13Z</time></trkpt><trkpt lat="52.45542892185936" lon="13.04741365992733"><ele>37.0</ele><time>2026-04-03T13:54:14Z</time></trkpt><trkpt lat="52.45559482331426" lon="13.04746044713661"><ele>36.66666666666667</ele><time>2026-04-03T13:54:15Z</time></trkpt><trkpt lat="52.455755552091624" lon="13.047507105402019"><ele>36.333333333333336</ele><time>2026-04-03T13:54:16Z</time></trkpt><trkpt lat="52.45591333444837" lon="13.047554398053505"><ele>36.0</ele><time>2026-04-03T13:54:17Z</time></trkpt><trkpt lat="52.45607271235676" lon="13.047605952044155"><ele>36.0</ele><time>2026-04-03T13:54:18Z</time></trkpt><trkpt lat="52.45621957568982" lon="13.047657289854193"><ele>36.0</ele><time>2026-04-03T13:54:19Z</time></trkpt><trkpt lat="52.456370807156404" lon="13.047710003135242"><ele>36.0</ele><time>2026-04-03T13:54:20Z</time></trkpt><trkpt lat="52.45651420764081" lon="13.04778081580459"><ele>36.5</ele><time>2026-04-03T13:54:21Z</time></trkpt><trkpt lat="52.456650234308455" lon="13.047858245942988"><ele>37.0</ele><time>2026-04-03T13:54:22Z</time></trkpt><trkpt lat="52.45677710859459" lon="13.047955343655412"><ele>37.5</ele><time>2026-04-03T13:54:23Z</time></trkpt><trkpt lat="52.45690315264642" lon="13.048078375305845"><ele>38.0</ele><time>2026-04-03T13:54:24Z</time></trkpt><trkpt lat="52.457025191231" lon="13.048205622034743"><ele>38.166666666666664</ele><time>2026-04-03T13:54:25Z</time></trkpt><trkpt lat="52.4571136261809" lon="13.048303285914347"><ele>38.33333333333333</ele><time>2026-04-03T13:54:26Z</time></trkpt><trkpt lat="52.45718546170877" lon="13.048381330175566"><ele>38.5</ele><time>2026-04-03T13:54:28Z</time></trkpt><trkpt lat="52.457277927679165" lon="13.048439655918685"><ele>38.666666666666664</ele><time>2026-04-03T13:54:52Z</time></trkpt><trkpt lat="52.457332808364356" lon="13.048504701149874"><ele>38.833333333333336</ele><time>2026-04-03T13:54:52.999Z</time></trkpt><trkpt lat="52.457400947299554" lon="13.048577582972746"><ele>39.0</ele><time>2026-04-03T13:54:53.999Z</time></trkpt><trkpt lat="52.45748242647183" lon="13.048679417854881"><ele>39.0</ele><time>2026-04-03T13:54:54.999Z</time></trkpt><trkpt lat="52.45758612669409" lon="13.048779596280292"><ele>39.0</ele><time>2026-04-03T13:54:55.999Z</time></trkpt><trkpt lat="52.45770321760789" lon="13.048897726767628"><ele>39.0</ele><time>2026-04-03T13:54:56.999Z</time></trkpt><trkpt lat="52.457822506496015" lon="13.04902843766048"><ele>39.0</ele><time>2026-04-03T13:54:57.999Z</time></trkpt><trkpt lat="52.45793050912421" lon="13.049156387149178"><ele>38.25</ele><time>2026-04-03T13:54:58.999Z</time></trkpt><trkpt lat="52.458043591427284" lon="13.049278884504881"><ele>37.5</ele><time>2026-04-03T13:54:59.999Z</time></trkpt><trkpt lat="52.45815716517625" lon="13.04941378974348"><ele>36.75</ele><time>2026-04-03T13:55:00.999Z</time></trkpt><trkpt lat="52.458253225499895" lon="13.049580607197942"><ele>36.0</ele><time>2026-04-03T13:55:01.999Z</time></trkpt><trkpt lat="52.458319467022555" lon="13.049755220392063"><ele>36.0</ele><time>2026-04-03T13:55:02.999Z</time></trkpt><trkpt lat="52.45838749652533" lon="13.049933383122402"><ele>36.0</ele><time>2026-04-03T13:55:03.999Z</time></trkpt><trkpt lat="52.45844872827563" lon="13.050113448873345"><ele>36.0</ele><time>2026-04-03T13:55:04.999Z</time></trkpt><trkpt lat="52.45850877224546" lon="13.05030165561422"><ele>36.0</ele><time>2026-04-03T13:55:05.999Z</time></trkpt><trkpt lat="52.45856407107354" lon="13.050510688998326"><ele>35.75</ele><time>2026-04-03T13:55:06.999Z</time></trkpt><trkpt lat="52.45863104328703" lon="13.050706373197213"><ele>35.5</ele><time>2026-04-03T13:55:07.999Z</time></trkpt><trkpt lat="52.45869040756839" lon="13.050903826154006"><ele>35.25</ele><time>2026-04-03T13:55:08.999Z</time></trkpt><trkpt lat="52.45874052013361" lon="13.051112500124074"><ele>35.0</ele><time>2026-04-03T13:55:09.999Z</time></trkpt><trkpt lat="52.4587888218578" lon="13.051309631885488"><ele>35.5</ele><time>2026-04-03T13:55:10.999Z</time></trkpt><trkpt lat="52.458856609446634" lon="13.051504032438885"><ele>36.0</ele><time>2026-04-03T13:55:11.999Z</time></trkpt><trkpt lat="52.45892577188035" lon="13.051705500693505"><ele>36.5</ele><time>2026-04-03T13:55:12.999Z</time></trkpt><trkpt lat="52.45899000674509" lon="13.051907667194882"><ele>37.0</ele><time>2026-04-03T13:55:13.999Z</time></trkpt><trkpt lat="52.459056966037885" lon="13.052110020476693"><ele>37.0</ele><time>2026-04-03T13:55:14.999Z</time></trkpt><trkpt lat="52.45912650561995" lon="13.052313191224814"><ele>37.0</ele><time>2026-04-03T13:55:15.999Z</time></trkpt><trkpt lat="52.45918889374835" lon="13.052513537561794"><ele>37.0</ele><time>2026-04-03T13:55:16.999Z</time></trkpt><trkpt lat="52.459248143782446" lon="13.052716031777962"><ele>37.0</ele><time>2026-04-03T13:55:17.999Z</time></trkpt><trkpt lat="52.45930813817086" lon="13.052911854281447"><ele>36.5</ele><time>2026-04-03T13:55:18.999Z</time></trkpt><trkpt lat="52.459371650513255" lon="13.053111029486177"><ele>36.0</ele><time>2026-04-03T13:55:19.999Z</time></trkpt><trkpt lat="52.459433060518755" lon="13.053310580277435"><ele>35.5</ele><time>2026-04-03T13:55:20.999Z</time></trkpt><trkpt lat="52.4594915584934" lon="13.053503781561247"><ele>35.0</ele><time>2026-04-03T13:55:21.999Z</time></trkpt><trkpt lat="52.45955115166357" lon="13.053696291481698"><ele>34.75</ele><time>2026-04-03T13:55:22.999Z</time></trkpt><trkpt lat="52.459612368919124" lon="13.05388887884953"><ele>34.5</ele><time>2026-04-03T13:55:23.999Z</time></trkpt><trkpt lat="52.45967959656122" lon="13.054073834859395"><ele>34.25</ele><time>2026-04-03T13:55:24.999Z</time></trkpt><trkpt lat="52.45973465437785" lon="13.054272710753308"><ele>34.0</ele><time>2026-04-03T13:55:25.999Z</time></trkpt><trkpt lat="52.45978923234924" lon="13.05446672002512"><ele>33.333333333333336</ele><time>2026-04-03T13:55:26.999Z</time></trkpt><trkpt lat="52.45983910971836" lon="13.05468347254138"><ele>32.666666666666664</ele><time>2026-04-03T13:55:27.999Z</time></trkpt><trkpt lat="52.459884825664446" lon="13.05492832919944"><ele>32.0</ele><time>2026-04-03T13:55:28.999Z</time></trkpt><trkpt lat="52.45991019327601" lon="13.055201885219933"><ele>32.0</ele><time>2026-04-03T13:55:29.999Z</time></trkpt><trkpt lat="52.4599233193598" lon="13.055488880750456"><ele>32.0</ele><time>2026-04-03T13:55:30.999Z</time></trkpt><trkpt lat="52.45992201962475" lon="13.055789313777696"><ele>32.0</ele><time>2026-04-03T13:55:31.999Z</time></trkpt><trkpt lat="52.45988844996973" lon="13.05609453924028"><ele>32.33333333333333</ele><time>2026-04-03T13:55:32.999Z</time></trkpt><trkpt lat="52.45984831041578" lon="13.05640032757813"><ele>32.666666666666664</ele><time>2026-04-03T13:55:33.999Z</time></trkpt><trkpt lat="52.45978029452588" lon="13.05670949038387"><ele>33.0</ele><time>2026-04-03T13:55:34.999Z</time></trkpt><trkpt lat="52.459726508280724" lon="13.057010993034243"><ele>33.333333333333336</ele><time>2026-04-03T13:55:35.999Z</time></trkpt><trkpt lat="52.45967348257477" lon="13.057316539720862"><ele>33.66666666666667</ele><time>2026-04-03T13:55:36.999Z</time></trkpt><trkpt lat="52.45961953785719" lon="13.057638897890001"><ele>34.0</ele><time>2026-04-03T13:55:37.999Z</time></trkpt><trkpt lat="52.45956541503745" lon="13.057953160650738"><ele>38.66666666666667</ele><time>2026-04-03T13:55:38.999Z</time></trkpt><trkpt lat="52.45951829940319" lon="13.058244453765768"><ele>43.333333333333336</ele><time>2026-04-03T13:55:39.999Z</time></trkpt><trkpt lat="52.45948342176956" lon="13.058545241771787"><ele>48.0</ele><time>2026-04-03T13:55:40.999Z</time></trkpt><trkpt lat="52.459452440196436" lon="13.058822846543393"><ele>48.0</ele><time>2026-04-03T13:55:41.999Z</time></trkpt><trkpt lat="52.45943096732748" lon="13.059084964667079"><ele>48.0</ele><time>2026-04-03T13:55:42.999Z</time></trkpt><trkpt lat="52.45941509996069" lon="13.059317646104216"><ele>48.0</ele><time>2026-04-03T13:55:43.999Z</time></trkpt><trkpt lat="52.4594070374716" lon="13.059525746820286"><ele>48.0</ele><time>2026-04-03T13:55:44.999Z</time></trkpt><trkpt lat="52.4594041941212" lon="13.059706077252203"><ele>47.599999999999994</ele><time>2026-04-03T13:55:45.999Z</time></trkpt><trkpt lat="52.45940089503721" lon="13.059879834474259"><ele>47.199999999999996</ele><time>2026-04-03T13:55:46.999Z</time></trkpt><trkpt lat="52.45940521833287" lon="13.060008468570855"><ele>46.8</ele><time>2026-04-03T13:55:47.999Z</time></trkpt><trkpt lat="52.45938168034658" lon="13.060182131330604"><ele>46.4</ele><time>2026-04-03T13:55:49.999Z</time></trkpt><trkpt lat="52.459255454264316" lon="13.060287361089559"><ele>46.0</ele><time>2026-04-03T13:55:51.999Z</time></trkpt><trkpt lat="52.459163726611216" lon="13.060255330055293"><ele>46.0</ele><time>2026-04-03T13:55:52.998Z</time></trkpt><trkpt lat="52.45905721585577" lon="13.060192671878545"><ele>46.0</ele><time>2026-04-03T13:55:53.998Z</time></trkpt><trkpt lat="52.45893987030467" lon="13.060127915238631"><ele>46.0</ele><time>2026-04-03T13:55:54.998Z</time></trkpt><trkpt lat="52.4588181737557" lon="13.060051324403407"><ele>46.0</ele><time>2026-04-03T13:55:55.998Z</time></trkpt><trkpt lat="52.458679419042504" lon="13.059971961497283"><ele>45.0</ele><time>2026-04-03T13:55:56.998Z</time></trkpt><trkpt lat="52.45854892608929" lon="13.059897324106013"><ele>44.0</ele><time>2026-04-03T13:55:57.998Z</time></trkpt><trkpt lat="52.45841716871667" lon="13.059821963444092"><ele>43.0</ele><time>2026-04-03T13:55:58.998Z</time></trkpt><trkpt lat="52.45828652345797" lon="13.059747117792721"><ele>42.0</ele><time>2026-04-03T13:55:59.998Z</time></trkpt><trkpt lat="52.45816787138411" lon="13.059678875698575"><ele>42.0</ele><time>2026-04-03T13:56:00.998Z</time></trkpt><trkpt lat="52.45805654599915" lon="13.059614898562536"><ele>42.0</ele><time>2026-04-03T13:56:01.998Z</time></trkpt><trkpt lat="52.457947914037405" lon="13.059555802483919"><ele>42.0</ele><time>2026-04-03T13:56:02.998Z</time></trkpt><trkpt lat="52.45784251819261" lon="13.059507616265392"><ele>42.0</ele><time>2026-04-03T13:56:03.998Z</time></trkpt><trkpt lat="52.45774957340028" lon="13.059468374311896"><ele>42.0</ele><time>2026-04-03T13:56:04.998Z</time></trkpt><trkpt lat="52.45766462397788" lon="13.059432508151712"><ele>41.666666666666664</ele><time>2026-04-03T13:56:05.998Z</time></trkpt><trkpt lat="52.45758534352336" lon="13.059403598319246"><ele>41.333333333333336</ele><time>2026-04-03T13:56:06.998Z</time></trkpt><trkpt lat="52.45750067892593" lon="13.059393193505432"><ele>41.0</ele><time>2026-04-03T13:56:07.998Z</time></trkpt><trkpt lat="52.457418948791044" lon="13.05948641464738"><ele>40.66666666666667</ele><time>2026-04-03T13:56:08.998Z</time></trkpt><trkpt lat="52.45734418394421" lon="13.059536037857367"><ele>40.333333333333336</ele><time>2026-04-03T13:56:09.998Z</time></trkpt><trkpt lat="52.457263820328656" lon="13.05957251149487"><ele>40.0</ele><time>2026-04-03T13:56:10.998Z</time></trkpt><trkpt lat="52.45717150207495" lon="13.059584259360815"><ele>39.16666666666667</ele><time>2026-04-03T13:56:12Z</time></trkpt><trkpt lat="52.4570810995703" lon="13.059536367748876"><ele>38.333333333333336</ele><time>2026-04-03T13:56:13Z</time></trkpt><trkpt lat="52.45699389679056" lon="13.05955408357553"><ele>37.5</ele><time>2026-04-03T13:56:14Z</time></trkpt><trkpt lat="52.45691874361365" lon="13.05950871744028"><ele>36.666666666666664</ele><time>2026-04-03T13:56:15Z</time></trkpt><trkpt lat="52.45684159837801" lon="13.05950002851051"><ele>35.83333333333333</ele><time>2026-04-03T13:56:16Z</time></trkpt><trkpt lat="52.45675717106924" lon="13.059519935860079"><ele>35.0</ele><time>2026-04-03T13:56:17Z</time></trkpt><trkpt lat="52.45667093419534" lon="13.059571576411994"><ele>35.0</ele><time>2026-04-03T13:56:18Z</time></trkpt><trkpt lat="52.45658050371214" lon="13.059645163343752"><ele>35.0</ele><time>2026-04-03T13:56:19Z</time></trkpt><trkpt lat="52.45648709167091" lon="13.059722338139473"><ele>35.0</ele><time>2026-04-03T13:56:20Z</time></trkpt><trkpt lat="52.45639581833982" lon="13.059797745890977"><ele>35.0</ele><time>2026-04-03T13:56:21Z</time></trkpt><trkpt lat="52.45630013291114" lon="13.059875491194498"><ele>35.0</ele><time>2026-04-03T13:56:22Z</time></trkpt><trkpt lat="52.456211891919246" lon="13.05994663353053"><ele>35.2</ele><time>2026-04-03T13:56:23Z</time></trkpt><trkpt lat="52.4561274979866" lon="13.060016011706239"><ele>35.4</ele><time>2026-04-03T13:56:24Z</time></trkpt><trkpt lat="52.45605754573124" lon="13.060104471343285"><ele>35.6</ele><time>2026-04-03T13:56:25Z</time></trkpt><trkpt lat="52.45597617826061" lon="13.06016544098859"><ele>35.8</ele><time>2026-04-03T13:56:26Z</time></trkpt><trkpt lat="52.45589168941401" lon="13.06023422439188"><ele>36.0</ele><time>2026-04-03T13:56:27Z</time></trkpt><trkpt lat="52.45580638585895" lon="13.060297637790441"><ele>36.0</ele><time>2026-04-03T13:56:28Z</time></trkpt><trkpt lat="52.455721788556104" lon="13.06036272669339"><ele>36.0</ele><time>2026-04-03T13:56:29Z</time></trkpt><trkpt lat="52.455635775024206" lon="13.060437855232959"><ele>36.0</ele><time>2026-04-03T13:56:30Z</time></trkpt><trkpt lat="52.45555647950632" lon="13.060487509156"><ele>36.0</ele><time>2026-04-03T13:56:31Z</time></trkpt><trkpt lat="52.45549120700193" lon="13.060541813193927"><ele>36.0</ele><time>2026-04-03T13:56:32Z</time></trkpt><trkpt lat="52.455431086769764" lon="13.060617418388272"><ele>36.0</ele><time>2026-04-03T13:56:33Z</time></trkpt><trkpt lat="52.45537540534958" lon="13.060705879980862"><ele>36.8</ele><time>2026-04-03T13:56:34Z</time></trkpt><trkpt lat="52.45532348643432" lon="13.060820029598375"><ele>37.6</ele><time>2026-04-03T13:56:35Z</time></trkpt><trkpt lat="52.45526811033505" lon="13.06095505899097"><ele>38.4</ele><time>2026-04-03T13:56:36Z</time></trkpt><trkpt lat="52.455214300301506" lon="13.061099903456041"><ele>39.2</ele><time>2026-04-03T13:56:37Z</time></trkpt><trkpt lat="52.45516608991725" lon="13.061247328395664"><ele>40.0</ele><time>2026-04-03T13:56:38Z</time></trkpt><trkpt lat="52.45512014911188" lon="13.061391241092116"><ele>40.0</ele><time>2026-04-03T13:56:39Z</time></trkpt><trkpt lat="52.45507338406322" lon="13.061530731624899"><ele>40.0</ele><time>2026-04-03T13:56:40Z</time></trkpt><trkpt lat="52.4550297981337" lon="13.061672783614128"><ele>40.0</ele><time>2026-04-03T13:56:41Z</time></trkpt><trkpt lat="52.454985347835716" lon="13.061814083866404"><ele>40.0</ele><time>2026-04-03T13:56:42Z</time></trkpt><trkpt lat="52.45494417630759" lon="13.061959476485422"><ele>40.0</ele><time>2026-04-03T13:56:43Z</time></trkpt><trkpt lat="52.45490278406958" lon="13.062100209219079"><ele>40.66666666666667</ele><time>2026-04-03T13:56:44Z</time></trkpt><trkpt lat="52.45486554053257" lon="13.062245873445217"><ele>41.333333333333336</ele><time>2026-04-03T13:56:45Z</time></trkpt><trkpt lat="52.454828748438814" lon="13.062387796115685"><ele>42.0</ele><time>2026-04-03T13:56:46Z</time></trkpt><trkpt lat="52.45480427498225" lon="13.062533331215771"><ele>42.666666666666664</ele><time>2026-04-03T13:56:47Z</time></trkpt><trkpt lat="52.45478368397078" lon="13.062656716687997"><ele>43.33333333333333</ele><time>2026-04-03T13:56:48Z</time></trkpt><trkpt lat="52.45475925966316" lon="13.062784755661633"><ele>44.0</ele><time>2026-04-03T13:56:49Z</time></trkpt><trkpt lat="52.45470225270388" lon="13.062911634093062"><ele>44.2</ele><time>2026-04-03T13:56:50Z</time></trkpt><trkpt lat="52.45463291049093" lon="13.063010850498856"><ele>44.400000000000006</ele><time>2026-04-03T13:56:51Z</time></trkpt><trkpt lat="52.45454485390946" lon="13.063091834786459"><ele>44.6</ele><time>2026-04-03T13:56:52Z</time></trkpt><trkpt lat="52.454448043454605" lon="13.06313872615321"><ele>44.8</ele><time>2026-04-03T13:56:53Z</time></trkpt><trkpt lat="52.45434280117163" lon="13.063149948744595"><ele>45.0</ele><time>2026-04-03T13:56:54Z</time></trkpt><trkpt lat="52.454226376071276" lon="13.063142498540634"><ele>45.0</ele><time>2026-04-03T13:56:54.999Z</time></trkpt><trkpt lat="52.4541079217483" lon="13.063116979670465"><ele>45.0</ele><time>2026-04-03T13:56:55.999Z</time></trkpt><trkpt lat="52.45400785752553" lon="13.063090578909396"><ele>45.0</ele><time>2026-04-03T13:56:56.999Z</time></trkpt><trkpt lat="52.45390738602172" lon="13.063076565146986"><ele>45.0</ele><time>2026-04-03T13:56:57.999Z</time></trkpt><trkpt lat="52.45380064712005" lon="13.063055616405723"><ele>45.0</ele><time>2026-04-03T13:56:58.999Z</time></trkpt><trkpt lat="52.453698027970304" lon="13.063049767946085"><ele>48.2</ele><time>2026-04-03T13:56:59.999Z</time></trkpt><trkpt lat="52.45359786886154" lon="13.06304917589174"><ele>51.4</ele><time>2026-04-03T13:57:00.999Z</time></trkpt><trkpt lat="52.453504049604334" lon="13.063051036794047"><ele>54.599999999999994</ele><time>2026-04-03T13:57:01.999Z</time></trkpt><trkpt lat="52.45339611478875" lon="13.063044577552954"><ele>57.8</ele><time>2026-04-03T13:57:02.999Z</time></trkpt><trkpt lat="52.45329156202154" lon="13.06305367046362"><ele>61.0</ele><time>2026-04-03T13:57:03.999Z</time></trkpt><trkpt lat="52.45318355405957" lon="13.063063799866871"><ele>61.0</ele><time>2026-04-03T13:57:04.999Z</time></trkpt><trkpt lat="52.45307705283179" lon="13.063084393606188"><ele>60.99999999999999</ele><time>2026-04-03T13:57:05.999Z</time></trkpt><trkpt lat="52.452971621191914" lon="13.063127078796356"><ele>60.99999999999999</ele><time>2026-04-03T13:57:06.999Z</time></trkpt><trkpt lat="52.45287927969301" lon="13.063225659184349"><ele>61.0</ele><time>2026-04-03T13:57:07.999Z</time></trkpt><trkpt lat="52.45279188350341" lon="13.063320561661314"><ele>61.0</ele><time>2026-04-03T13:57:08.999Z</time></trkpt><trkpt lat="52.45268958280995" lon="13.063421766674484"><ele>62.5</ele><time>2026-04-03T13:57:09.999Z</time></trkpt><trkpt lat="52.45259999271157" lon="13.06354518300401"><ele>64.0</ele><time>2026-04-03T13:57:10.999Z</time></trkpt><trkpt lat="52.45250264814169" lon="13.063679612241055"><ele>65.5</ele><time>2026-04-03T13:57:11.999Z</time></trkpt><trkpt lat="52.45241095891499" lon="13.063801793078653"><ele>67.0</ele><time>2026-04-03T13:57:12.999Z</time></trkpt><trkpt lat="52.45232407592036" lon="13.063914088154792"><ele>67.0</ele><time>2026-04-03T13:57:13.999Z</time></trkpt><trkpt lat="52.45224268273732" lon="13.063999407620631"><ele>67.0</ele><time>2026-04-03T13:57:14.999Z</time></trkpt><trkpt lat="52.45213782722773" lon="13.064081630313284"><ele>67.0</ele><time>2026-04-03T13:57:15.999Z</time></trkpt><trkpt lat="52.45203082762066" lon="13.064153390872281"><ele>67.0</ele><time>2026-04-03T13:57:16.999Z</time></trkpt><trkpt lat="52.45191447542375" lon="13.064212711848722"><ele>65.75</ele><time>2026-04-03T13:57:17.999Z</time></trkpt><trkpt lat="52.451794816557964" lon="13.064273996089101"><ele>64.5</ele><time>2026-04-03T13:57:18.999Z</time></trkpt><trkpt lat="52.45167477850965" lon="13.064332501098317"><ele>63.25</ele><time>2026-04-03T13:57:19.999Z</time></trkpt><trkpt lat="52.45155193751172" lon="13.064388682337386"><ele>62.0</ele><time>2026-04-03T13:57:20.999Z</time></trkpt><trkpt lat="52.451437051827334" lon="13.064447024256502"><ele>62.0</ele><time>2026-04-03T13:57:21.999Z</time></trkpt><trkpt lat="52.4513270919187" lon="13.064508036724712"><ele>62.0</ele><time>2026-04-03T13:57:22.999Z</time></trkpt><trkpt lat="52.45121833202749" lon="13.06455845030411"><ele>62.0</ele><time>2026-04-03T13:57:23.999Z</time></trkpt><trkpt lat="52.45111161877874" lon="13.064604875426305"><ele>62.0</ele><time>2026-04-03T13:57:24.999Z</time></trkpt><trkpt lat="52.451003929233856" lon="13.064656002066517"><ele>60.8</ele><time>2026-04-03T13:57:25.999Z</time></trkpt><trkpt lat="52.450904287282015" lon="13.064719092910915"><ele>59.6</ele><time>2026-04-03T13:57:26.999Z</time></trkpt><trkpt lat="52.45079541135379" lon="13.064781892923778"><ele>58.39999999999999</ele><time>2026-04-03T13:57:27.999Z</time></trkpt><trkpt lat="52.45068917861711" lon="13.064850479654991"><ele>57.199999999999996</ele><time>2026-04-03T13:57:28.999Z</time></trkpt><trkpt lat="52.450589230897435" lon="13.064928066513176"><ele>56.0</ele><time>2026-04-03T13:57:29.999Z</time></trkpt><trkpt lat="52.45049107283403" lon="13.065022019022427"><ele>53.25</ele><time>2026-04-03T13:57:30.999Z</time></trkpt><trkpt lat="52.45039589776477" lon="13.065119628384469"><ele>50.5</ele><time>2026-04-03T13:57:31.999Z</time></trkpt><trkpt lat="52.450291299544794" lon="13.065208701230972"><ele>47.75</ele><time>2026-04-03T13:57:32.999Z</time></trkpt><trkpt lat="52.45019370420509" lon="13.065330496676241"><ele>45.0</ele><time>2026-04-03T13:57:33.999Z</time></trkpt><trkpt lat="52.45010684634718" lon="13.065478262975386"><ele>45.0</ele><time>2026-04-03T13:57:34.999Z</time></trkpt><trkpt lat="52.45001676750053" lon="13.065628003477242"><ele>45.0</ele><time>2026-04-03T13:57:35.999Z</time></trkpt><trkpt lat="52.44993095739191" lon="13.065778040241424"><ele>45.0</ele><time>2026-04-03T13:57:36.999Z</time></trkpt><trkpt lat="52.44985196582641" lon="13.065936357184382"><ele>45.0</ele><time>2026-04-03T13:57:37.999Z</time></trkpt><trkpt lat="52.44976973585686" lon="13.066091395641008"><ele>44.75</ele><time>2026-04-03T13:57:38.999Z</time></trkpt><trkpt lat="52.449690903106294" lon="13.066240531274305"><ele>44.5</ele><time>2026-04-03T13:57:39.999Z</time></trkpt><trkpt lat="52.44961506015332" lon="13.066376805377338"><ele>44.25</ele><time>2026-04-03T13:57:40.999Z</time></trkpt><trkpt lat="52.44952239369552" lon="13.066512295339088"><ele>44.0</ele><time>2026-04-03T13:57:41.999Z</time></trkpt><trkpt lat="52.44940022041509" lon="13.06664181215059"><ele>42.75</ele><time>2026-04-03T13:57:42.999Z</time></trkpt><trkpt lat="52.44928731940816" lon="13.066767718411889"><ele>41.5</ele><time>2026-04-03T13:57:43.999Z</time></trkpt><trkpt lat="52.44918405431944" lon="13.06688662122235"><ele>40.25</ele><time>2026-04-03T13:57:44.999Z</time></trkpt><trkpt lat="52.449070414837" lon="13.06702645299079"><ele>39.0</ele><time>2026-04-03T13:57:45.999Z</time></trkpt><trkpt lat="52.44896270197291" lon="13.067139208884047"><ele>39.0</ele><time>2026-04-03T13:57:46.999Z</time></trkpt><trkpt lat="52.44886938907995" lon="13.067256635828274"><ele>39.0</ele><time>2026-04-03T13:57:47.999Z</time></trkpt><trkpt lat="52.44876965539709" lon="13.067370078075362"><ele>39.0</ele><time>2026-04-03T13:57:48.999Z</time></trkpt><trkpt lat="52.44867647740848" lon="13.067491159184513"><ele>39.0</ele><time>2026-04-03T13:57:49.999Z</time></trkpt><trkpt lat="52.44858162715297" lon="13.06760879931865"><ele>38.25</ele><time>2026-04-03T13:57:50.999Z</time></trkpt><trkpt lat="52.44848501665364" lon="13.067728507711035"><ele>37.5</ele><time>2026-04-03T13:57:51.999Z</time></trkpt><trkpt lat="52.44839194356551" lon="13.067845198669161"><ele>36.75</ele><time>2026-04-03T13:57:52.999Z</time></trkpt><trkpt lat="52.44829129931564" lon="13.06794749581251"><ele>36.0</ele><time>2026-04-03T13:57:53.999Z</time></trkpt><trkpt lat="52.44820107523168" lon="13.06805741691247"><ele>36.0</ele><time>2026-04-03T13:57:54.998Z</time></trkpt><trkpt lat="52.448101666329286" lon="13.068168719794654"><ele>36.0</ele><time>2026-04-03T13:57:55.998Z</time></trkpt><trkpt lat="52.448004888989324" lon="13.068266691474216"><ele>36.0</ele><time>2026-04-03T13:57:56.998Z</time></trkpt><trkpt lat="52.447889914918846" lon="13.068360143226334"><ele>36.0</ele><time>2026-04-03T13:57:57.998Z</time></trkpt><trkpt lat="52.4477623234508" lon="13.068432855255084"><ele>37.0</ele><time>2026-04-03T13:57:58.998Z</time></trkpt><trkpt lat="52.44764332757963" lon="13.068493066553463"><ele>38.0</ele><time>2026-04-03T13:57:59.998Z</time></trkpt><trkpt lat="52.447521877736726" lon="13.068533441220488"><ele>39.0</ele><time>2026-04-03T13:58:00.998Z</time></trkpt><trkpt lat="52.44740735699168" lon="13.068574802367324"><ele>40.0</ele><time>2026-04-03T13:58:01.998Z</time></trkpt><trkpt lat="52.447301336957594" lon="13.068629279582748"><ele>40.0</ele><time>2026-04-03T13:58:02.998Z</time></trkpt><trkpt lat="52.44720054947532" lon="13.068665142802201"><ele>40.0</ele><time>2026-04-03T13:58:03.998Z</time></trkpt><trkpt lat="52.44709219492454" lon="13.068698464115238"><ele>40.0</ele><time>2026-04-03T13:58:04.998Z</time></trkpt><trkpt lat="52.44699611009055" lon="13.068728069173394"><ele>40.0</ele><time>2026-04-03T13:58:05.998Z</time></trkpt><trkpt lat="52.44690573476352" lon="13.068750767025122"><ele>40.0</ele><time>2026-04-03T13:58:06.998Z</time></trkpt><trkpt lat="52.44682771044778" lon="13.068785795619002"><ele>41.0</ele><time>2026-04-03T13:58:07.998Z</time></trkpt><trkpt lat="52.4467598453797" lon="13.06883780947963"><ele>42.0</ele><time>2026-04-03T13:58:08.998Z</time></trkpt><trkpt lat="52.446697222872544" lon="13.068928948293216"><ele>43.0</ele><time>2026-04-03T13:58:09.998Z</time></trkpt><trkpt lat="52.44665717969677" lon="13.069072891683248"><ele>44.0</ele><time>2026-04-03T13:58:10.998Z</time></trkpt><trkpt lat="52.44663285038027" lon="13.06923272576263"><ele>45.0</ele><time>2026-04-03T13:58:11.998Z</time></trkpt><trkpt lat="52.44662595285114" lon="13.069432022402854"><ele>45.0</ele><time>2026-04-03T13:58:12.998Z</time></trkpt><trkpt lat="52.446621282182875" lon="13.069640074471009"><ele>45.0</ele><time>2026-04-03T13:58:13.998Z</time></trkpt><trkpt lat="52.44660884219922" lon="13.069820334446698"><ele>45.0</ele><time>2026-04-03T13:58:14.998Z</time></trkpt><trkpt lat="52.44658063206781" lon="13.069989409373148"><ele>45.0</ele><time>2026-04-03T13:58:15.998Z</time></trkpt><trkpt lat="52.44652403881201" lon="13.070160525479439"><ele>47.25</ele><time>2026-04-03T13:58:16.998Z</time></trkpt><trkpt lat="52.446439904713436" lon="13.07031722731801"><ele>49.5</ele><time>2026-04-03T13:58:18Z</time></trkpt><trkpt lat="52.44634183701106" lon="13.07046274278589"><ele>51.75</ele><time>2026-04-03T13:58:19Z</time></trkpt><trkpt lat="52.4462380582163" lon="13.07058251924"><ele>54.0</ele><time>2026-04-03T13:58:20Z</time></trkpt><trkpt lat="52.4461189787619" lon="13.070701170709263"><ele>55.0</ele><time>2026-04-03T13:58:21Z</time></trkpt><trkpt lat="52.4459744194795" lon="13.07082765649268"><ele>56.0</ele><time>2026-04-03T13:58:22Z</time></trkpt><trkpt lat="52.44581923618737" lon="13.070944618291927"><ele>57.0</ele><time>2026-04-03T13:58:23Z</time></trkpt><trkpt lat="52.44568019461973" lon="13.071061727760554"><ele>57.0</ele><time>2026-04-03T13:58:24Z</time></trkpt><trkpt lat="52.44552448369401" lon="13.071159409377358"><ele>57.0</ele><time>2026-04-03T13:58:25Z</time></trkpt><trkpt lat="52.445371535862634" lon="13.071255318773474"><ele>57.0</ele><time>2026-04-03T13:58:26Z</time></trkpt><trkpt lat="52.445218932888345" lon="13.071356567129536"><ele>58.0</ele><time>2026-04-03T13:58:27Z</time></trkpt><trkpt lat="52.44506107107415" lon="13.071438465743588"><ele>59.0</ele><time>2026-04-03T13:58:28Z</time></trkpt><trkpt lat="52.44492213663111" lon="13.071541444936686"><ele>60.0</ele><time>2026-04-03T13:58:29Z</time></trkpt><trkpt lat="52.444789624324684" lon="13.071651290172829"><ele>58.75</ele><time>2026-04-03T13:58:30Z</time></trkpt><trkpt lat="52.4446621794622" lon="13.071768330266101"><ele>57.5</ele><time>2026-04-03T13:58:31Z</time></trkpt><trkpt lat="52.44453234359099" lon="13.071889911218086"><ele>56.25</ele><time>2026-04-03T13:58:32Z</time></trkpt><trkpt lat="52.44441450003471" lon="13.072023966141256"><ele>55.0</ele><time>2026-04-03T13:58:33Z</time></trkpt><trkpt lat="52.44429156535428" lon="13.072138162177422"><ele>55.0</ele><time>2026-04-03T13:58:34Z</time></trkpt><trkpt lat="52.44417215841067" lon="13.072248747064128"><ele>55.0</ele><time>2026-04-03T13:58:35Z</time></trkpt><trkpt lat="52.444056931465106" lon="13.07235120555856"><ele>55.0</ele><time>2026-04-03T13:58:36Z</time></trkpt><trkpt lat="52.44394618460486" lon="13.072459167685713"><ele>55.0</ele><time>2026-04-03T13:58:37Z</time></trkpt><trkpt lat="52.44382810045021" lon="13.072570032688263"><ele>56.0</ele><time>2026-04-03T13:58:38Z</time></trkpt><trkpt lat="52.443702952767964" lon="13.072672026116045"><ele>57.0</ele><time>2026-04-03T13:58:39Z</time></trkpt><trkpt lat="52.443589459438215" lon="13.072774555824168"><ele>58.0</ele><time>2026-04-03T13:58:40Z</time></trkpt><trkpt lat="52.44347466058485" lon="13.072878435086595"><ele>59.0</ele><time>2026-04-03T13:58:41Z</time></trkpt><trkpt lat="52.443359058294966" lon="13.072984291167401"><ele>59.0</ele><time>2026-04-03T13:58:42Z</time></trkpt><trkpt lat="52.44324585865697" lon="13.073087271900032"><ele>59.0</ele><time>2026-04-03T13:58:43Z</time></trkpt><trkpt lat="52.44312515989564" lon="13.073190821383104"><ele>59.0</ele><time>2026-04-03T13:58:44Z</time></trkpt><trkpt lat="52.442999389311154" lon="13.073293307538433"><ele>59.0</ele><time>2026-04-03T13:58:45Z</time></trkpt><trkpt lat="52.44287727605271" lon="13.073405899920054"><ele>58.75</ele><time>2026-04-03T13:58:46Z</time></trkpt><trkpt lat="52.44275426457411" lon="13.073512352391301"><ele>58.5</ele><time>2026-04-03T13:58:47Z</time></trkpt><trkpt lat="52.442636212389345" lon="13.07362046024791"><ele>58.25</ele><time>2026-04-03T13:58:48Z</time></trkpt><trkpt lat="52.44251690979157" lon="13.073726595538231"><ele>58.0</ele><time>2026-04-03T13:58:49Z</time></trkpt><trkpt lat="52.442397880973644" lon="13.07383620265049"><ele>58.0</ele><time>2026-04-03T13:58:50Z</time></trkpt><trkpt lat="52.44228048427648" lon="13.07394777608285"><ele>58.0</ele><time>2026-04-03T13:58:51Z</time></trkpt><trkpt lat="52.442159994403475" lon="13.07406109473282"><ele>58.0</ele><time>2026-04-03T13:58:52Z</time></trkpt><trkpt lat="52.44203763901963" lon="13.07417661742792"><ele>58.0</ele><time>2026-04-03T13:58:53Z</time></trkpt><trkpt lat="52.44191953929498" lon="13.074295392463767"><ele>57.75</ele><time>2026-04-03T13:58:54Z</time></trkpt><trkpt lat="52.441798901572646" lon="13.074413824293293"><ele>57.5</ele><time>2026-04-03T13:58:55Z</time></trkpt><trkpt lat="52.44166945442552" lon="13.074536119380499"><ele>57.25</ele><time>2026-04-03T13:58:56Z</time></trkpt><trkpt lat="52.44154135684658" lon="13.074656543521996"><ele>57.0</ele><time>2026-04-03T13:58:57Z</time></trkpt><trkpt lat="52.44142084077342" lon="13.074783866862962"><ele>57.25</ele><time>2026-04-03T13:58:58Z</time></trkpt><trkpt lat="52.441293764675024" lon="13.074903511176256"><ele>57.5</ele><time>2026-04-03T13:58:58.999Z</time></trkpt><trkpt lat="52.44116497765385" lon="13.07502266809637"><ele>57.75</ele><time>2026-04-03T13:58:59.999Z</time></trkpt><trkpt lat="52.44103260208611" lon="13.075142059939036"><ele>58.0</ele><time>2026-04-03T13:59:00.999Z</time></trkpt><trkpt lat="52.44090184677864" lon="13.075274146103233"><ele>57.0</ele><time>2026-04-03T13:59:01.999Z</time></trkpt><trkpt lat="52.44077375788343" lon="13.075409676709857"><ele>56.0</ele><time>2026-04-03T13:59:02.999Z</time></trkpt><trkpt lat="52.44063999447127" lon="13.075543477714264"><ele>55.0</ele><time>2026-04-03T13:59:03.999Z</time></trkpt><trkpt lat="52.440503366439174" lon="13.075677159107173"><ele>54.33333333333333</ele><time>2026-04-03T13:59:04.999Z</time></trkpt><trkpt lat="52.440364339528486" lon="13.075816220360473"><ele>53.66666666666667</ele><time>2026-04-03T13:59:05.999Z</time></trkpt><trkpt lat="52.440220724548745" lon="13.07596375704113"><ele>53.0</ele><time>2026-04-03T13:59:06.999Z</time></trkpt><trkpt lat="52.44008193020948" lon="13.076108964504986"><ele>53.0</ele><time>2026-04-03T13:59:07.999Z</time></trkpt><trkpt lat="52.439936579256546" lon="13.07626119351879"><ele>53.0</ele><time>2026-04-03T13:59:08.999Z</time></trkpt><trkpt lat="52.439786700945284" lon="13.076414666992958"><ele>53.0</ele><time>2026-04-03T13:59:09.999Z</time></trkpt><trkpt lat="52.43963503120988" lon="13.076571146716669"><ele>52.66666666666667</ele><time>2026-04-03T13:59:10.999Z</time></trkpt><trkpt lat="52.43948246822824" lon="13.076732706042817"><ele>52.33333333333333</ele><time>2026-04-03T13:59:11.999Z</time></trkpt><trkpt lat="52.43933659524626" lon="13.076885881406135"><ele>52.0</ele><time>2026-04-03T13:59:12.999Z</time></trkpt><trkpt lat="52.43918456489547" lon="13.07701860123692"><ele>52.0</ele><time>2026-04-03T13:59:13.999Z</time></trkpt><trkpt lat="52.43904068790452" lon="13.077168781501863"><ele>52.0</ele><time>2026-04-03T13:59:14.999Z</time></trkpt><trkpt lat="52.43889492554319" lon="13.077320559653998"><ele>52.0</ele><time>2026-04-03T13:59:15.999Z</time></trkpt><trkpt lat="52.43875832272125" lon="13.077491910810416"><ele>51.666666666666664</ele><time>2026-04-03T13:59:16.999Z</time></trkpt><trkpt lat="52.43860471631526" lon="13.077640197434546"><ele>51.33333333333333</ele><time>2026-04-03T13:59:17.999Z</time></trkpt><trkpt lat="52.43845606377696" lon="13.077787711143358"><ele>51.0</ele><time>2026-04-03T13:59:18.999Z</time></trkpt><trkpt lat="52.438293443562706" lon="13.07794253775003"><ele>51.0</ele><time>2026-04-03T13:59:19.999Z</time></trkpt><trkpt lat="52.4381363310481" lon="13.078089845743655"><ele>51.0</ele><time>2026-04-03T13:59:20.999Z</time></trkpt><trkpt lat="52.43798286929292" lon="13.078256347288097"><ele>51.0</ele><time>2026-04-03T13:59:21.999Z</time></trkpt><trkpt lat="52.43783173683484" lon="13.078416360449836"><ele>51.0</ele><time>2026-04-03T13:59:22.999Z</time></trkpt><trkpt lat="52.43768004824936" lon="13.078589246840004"><ele>51.0</ele><time>2026-04-03T13:59:23.999Z</time></trkpt><trkpt lat="52.43752399967721" lon="13.07874806135485"><ele>51.0</ele><time>2026-04-03T13:59:24.999Z</time></trkpt><trkpt lat="52.43735932271455" lon="13.07891017229185"><ele>51.0</ele><time>2026-04-03T13:59:25.999Z</time></trkpt><trkpt lat="52.43721113723457" lon="13.079071548224526"><ele>51.0</ele><time>2026-04-03T13:59:26.999Z</time></trkpt><trkpt lat="52.43708174460544" lon="13.079215021739317"><ele>51.0</ele><time>2026-04-03T13:59:27.999Z</time></trkpt><trkpt lat="52.4369526759139" lon="13.079349807331328"><ele>50.5</ele><time>2026-04-03T13:59:28.999Z</time></trkpt><trkpt lat="52.43683118694635" lon="13.079479576922818"><ele>50.0</ele><time>2026-04-03T13:59:29.999Z</time></trkpt><trkpt lat="52.43670618704313" lon="13.07958169346515"><ele>49.5</ele><time>2026-04-03T13:59:30.999Z</time></trkpt><trkpt lat="52.43659187394938" lon="13.07973073506335"><ele>49.0</ele><time>2026-04-03T13:59:31.999Z</time></trkpt><trkpt lat="52.43646786735382" lon="13.079865643345682"><ele>49.0</ele><time>2026-04-03T13:59:32.999Z</time></trkpt><trkpt lat="52.4363338091444" lon="13.079974854277152"><ele>49.0</ele><time>2026-04-03T13:59:33.999Z</time></trkpt><trkpt lat="52.436217797409" lon="13.080129646377564"><ele>49.0</ele><time>2026-04-03T13:59:34.999Z</time></trkpt><trkpt lat="52.43608707319356" lon="13.080235360886503"><ele>49.0</ele><time>2026-04-03T13:59:35.999Z</time></trkpt><trkpt lat="52.435963162579725" lon="13.080366187127682"><ele>49.0</ele><time>2026-04-03T13:59:36.999Z</time></trkpt><trkpt lat="52.435828329427764" lon="13.080507971754509"><ele>49.0</ele><time>2026-04-03T13:59:37.999Z</time></trkpt><trkpt lat="52.435691814339684" lon="13.080651165412698"><ele>49.0</ele><time>2026-04-03T13:59:38.999Z</time></trkpt><trkpt lat="52.43555418427533" lon="13.08081362891094"><ele>47.33333333333333</ele><time>2026-04-03T13:59:39.999Z</time></trkpt><trkpt lat="52.43540837865981" lon="13.080960186201418"><ele>45.666666666666664</ele><time>2026-04-03T13:59:40.999Z</time></trkpt><trkpt lat="52.43525599900518" lon="13.081108423941643"><ele>44.0</ele><time>2026-04-03T13:59:41.999Z</time></trkpt><trkpt lat="52.435112134286214" lon="13.081258553004803"><ele>44.0</ele><time>2026-04-03T13:59:42.999Z</time></trkpt><trkpt lat="52.43497204705581" lon="13.081403515916268"><ele>44.0</ele><time>2026-04-03T13:59:43.999Z</time></trkpt><trkpt lat="52.43482138246588" lon="13.081546844343247"><ele>44.0</ele><time>2026-04-03T13:59:44.999Z</time></trkpt><trkpt lat="52.43467669746063" lon="13.081690264746925"><ele>43.33333333333333</ele><time>2026-04-03T13:59:45.999Z</time></trkpt><trkpt lat="52.434529692297474" lon="13.081840765744403"><ele>42.666666666666664</ele><time>2026-04-03T13:59:46.999Z</time></trkpt><trkpt lat="52.43438627891875" lon="13.08198851203608"><ele>42.0</ele><time>2026-04-03T13:59:47.999Z</time></trkpt><trkpt lat="52.434243782008735" lon="13.082127697296874"><ele>42.0</ele><time>2026-04-03T13:59:48.999Z</time></trkpt><trkpt lat="52.434105656382116" lon="13.082272868120704"><ele>42.0</ele><time>2026-04-03T13:59:49.999Z</time></trkpt><trkpt lat="52.433964059830075" lon="13.08241220444584"><ele>42.0</ele><time>2026-04-03T13:59:50.999Z</time></trkpt><trkpt lat="52.43381736751506" lon="13.08252883283726"><ele>43.333333333333336</ele><time>2026-04-03T13:59:51.999Z</time></trkpt><trkpt lat="52.43367439682073" lon="13.082670283424788"><ele>44.66666666666667</ele><time>2026-04-03T13:59:52.999Z</time></trkpt><trkpt lat="52.43353856106332" lon="13.082834350230385"><ele>46.0</ele><time>2026-04-03T13:59:53.999Z</time></trkpt><trkpt lat="52.4333918835939" lon="13.082973955797726"><ele>46.0</ele><time>2026-04-03T13:59:54.999Z</time></trkpt><trkpt lat="52.433246450224" lon="13.083105616581348"><ele>46.0</ele><time>2026-04-03T13:59:55.999Z</time></trkpt><trkpt lat="52.43309493445547" lon="13.083246942732075"><ele>46.0</ele><time>2026-04-03T13:59:56.999Z</time></trkpt><trkpt lat="52.432942763753594" lon="13.083390016906087"><ele>47.333333333333336</ele><time>2026-04-03T13:59:57.999Z</time></trkpt><trkpt lat="52.43278990006193" lon="13.083527258947223"><ele>48.66666666666667</ele><time>2026-04-03T13:59:58.998Z</time></trkpt><trkpt lat="52.43264427891462" lon="13.083661242178033"><ele>50.0</ele><time>2026-04-03T13:59:59.998Z</time></trkpt><trkpt lat="52.43251434891043" lon="13.083786284145198"><ele>50.0</ele><time>2026-04-03T14:00:00.998Z</time></trkpt><trkpt lat="52.4323793448781" lon="13.083913519466655"><ele>50.0</ele><time>2026-04-03T14:00:01.998Z</time></trkpt><trkpt lat="52.43224246878066" lon="13.084006867843318"><ele>50.0</ele><time>2026-04-03T14:00:02.998Z</time></trkpt><trkpt lat="52.432115260299355" lon="13.084153929729213"><ele>50.75</ele><time>2026-04-03T14:00:03.998Z</time></trkpt><trkpt lat="52.43198603266172" lon="13.084270806843762"><ele>51.5</ele><time>2026-04-03T14:00:04.998Z</time></trkpt><trkpt lat="52.43185572280721" lon="13.084385890386423"><ele>52.25</ele><time>2026-04-03T14:00:05.998Z</time></trkpt><trkpt lat="52.43173031736317" lon="13.084473347791521"><ele>53.0</ele><time>2026-04-03T14:00:06.998Z</time></trkpt><trkpt lat="52.43162493665974" lon="13.08460493180773"><ele>53.0</ele><time>2026-04-03T14:00:07.998Z</time></trkpt><trkpt lat="52.43151663912684" lon="13.084705169164362"><ele>53.0</ele><time>2026-04-03T14:00:08.998Z</time></trkpt><trkpt lat="52.43140627446351" lon="13.084784697475092"><ele>53.0</ele><time>2026-04-03T14:00:09.998Z</time></trkpt><trkpt lat="52.43130858717016" lon="13.084873254607839"><ele>53.0</ele><time>2026-04-03T14:00:10.998Z</time></trkpt><trkpt lat="52.43121471622025" lon="13.084965717139857"><ele>52.4</ele><time>2026-04-03T14:00:11.998Z</time></trkpt><trkpt lat="52.43112687783286" lon="13.085043085755997"><ele>51.8</ele><time>2026-04-03T14:00:12.998Z</time></trkpt><trkpt lat="52.43104671353616" lon="13.0851302362045"><ele>51.2</ele><time>2026-04-03T14:00:13.998Z</time></trkpt><trkpt lat="52.43096070462837" lon="13.085187844609008"><ele>50.6</ele><time>2026-04-03T14:00:14.998Z</time></trkpt><trkpt lat="52.43087825585971" lon="13.085262179484875"><ele>50.0</ele><time>2026-04-03T14:00:15.998Z</time></trkpt><trkpt lat="52.43078320450309" lon="13.08535098171402"><ele>50.00000000000001</ele><time>2026-04-03T14:00:16.998Z</time></trkpt><trkpt lat="52.43071239369796" lon="13.085417727740685"><ele>50.0</ele><time>2026-04-03T14:00:17.998Z</time></trkpt><trkpt lat="52.43061969021102" lon="13.0855120727035"><ele>50.0</ele><time>2026-04-03T14:00:19.998Z</time></trkpt><trkpt lat="52.43056291341446" lon="13.085560488134082"><ele>50.0</ele><time>2026-04-03T14:00:20.998Z</time></trkpt><trkpt lat="52.430505442465765" lon="13.08564389286988"><ele>50.00000000000001</ele><time>2026-04-03T14:00:21.998Z</time></trkpt><trkpt lat="52.43043565284724" lon="13.085681708441287"><ele>50.0</ele><time>2026-04-03T14:00:22.998Z</time></trkpt><trkpt lat="52.43035592180785" lon="13.085757655160734"><ele>50.0</ele><time>2026-04-03T14:00:24Z</time></trkpt><trkpt lat="52.43027001930502" lon="13.085869482333031"><ele>50.0</ele><time>2026-04-03T14:00:25Z</time></trkpt><trkpt lat="52.43018107090347" lon="13.085939849145031"><ele>50.0</ele><time>2026-04-03T14:00:26Z</time></trkpt><trkpt lat="52.43008768361622" lon="13.086030420487814"><ele>50.0</ele><time>2026-04-03T14:00:27Z</time></trkpt><trkpt lat="52.42999770848138" lon="13.086151049564302"><ele>50.0</ele><time>2026-04-03T14:00:28Z</time></trkpt><trkpt lat="52.42990524563585" lon="13.086282321832902"><ele>50.0</ele><time>2026-04-03T14:00:29Z</time></trkpt><trkpt lat="52.42981860509357" lon="13.086433616271652"><ele>50.0</ele><time>2026-04-03T14:00:30Z</time></trkpt><trkpt lat="52.42972609663387" lon="13.086581368837782"><ele>50.0</ele><time>2026-04-03T14:00:31Z</time></trkpt><trkpt lat="52.429635240300236" lon="13.086728715676607"><ele>50.0</ele><time>2026-04-03T14:00:32Z</time></trkpt><trkpt lat="52.42954788684426" lon="13.086877549994998"><ele>49.5</ele><time>2026-04-03T14:00:33Z</time></trkpt><trkpt lat="52.42945928837451" lon="13.08703294757958"><ele>49.0</ele><time>2026-04-03T14:00:34Z</time></trkpt><trkpt lat="52.42937915597513" lon="13.087167069566192"><ele>48.5</ele><time>2026-04-03T14:00:35Z</time></trkpt><trkpt lat="52.429300342304636" lon="13.087280020767418"><ele>48.0</ele><time>2026-04-03T14:00:36Z</time></trkpt><trkpt lat="52.4292243626472" lon="13.087395144616883"><ele>47.166666666666664</ele><time>2026-04-03T14:00:37Z</time></trkpt><trkpt lat="52.429156915315154" lon="13.087507640530585"><ele>46.333333333333336</ele><time>2026-04-03T14:00:38Z</time></trkpt><trkpt lat="52.429084936655144" lon="13.087609764948658"><ele>45.5</ele><time>2026-04-03T14:00:39Z</time></trkpt><trkpt lat="52.42902184126557" lon="13.087707270947835"><ele>44.66666666666667</ele><time>2026-04-03T14:00:40Z</time></trkpt><trkpt lat="52.42896632879849" lon="13.087797354721866"><ele>43.833333333333336</ele><time>2026-04-03T14:00:41Z</time></trkpt><trkpt lat="52.42890984110287" lon="13.087883785133323"><ele>43.0</ele><time>2026-04-03T14:00:42Z</time></trkpt><trkpt lat="52.42886130935471" lon="13.087964045658284"><ele>43.0</ele><time>2026-04-03T14:00:43Z</time></trkpt><trkpt lat="52.42881700442809" lon="13.088042682373485"><ele>43.0</ele><time>2026-04-03T14:00:44Z</time></trkpt><trkpt lat="52.42876731848812" lon="13.088114328353466"><ele>43.0</ele><time>2026-04-03T14:00:45Z</time></trkpt><trkpt lat="52.428712439021325" lon="13.088186958920849"><ele>43.0</ele><time>2026-04-03T14:00:46Z</time></trkpt><trkpt lat="52.42865650347565" lon="13.088285966151673"><ele>43.0</ele><time>2026-04-03T14:00:47Z</time></trkpt><trkpt lat="52.428604910210666" lon="13.088410890721292"><ele>43.0</ele><time>2026-04-03T14:00:48Z</time></trkpt><trkpt lat="52.428555782711115" lon="13.08856638667723"><ele>43.25</ele><time>2026-04-03T14:00:49Z</time></trkpt><trkpt lat="52.42851985803285" lon="13.088741518477674"><ele>43.5</ele><time>2026-04-03T14:00:50Z</time></trkpt><trkpt lat="52.42849432028615" lon="13.088932969349553"><ele>43.75</ele><time>2026-04-03T14:00:51Z</time></trkpt><trkpt lat="52.42846692862982" lon="13.08912407903654"><ele>44.0</ele><time>2026-04-03T14:00:52Z</time></trkpt><trkpt lat="52.42843287828945" lon="13.089329726179358"><ele>44.0</ele><time>2026-04-03T14:00:53Z</time></trkpt><trkpt lat="52.428392871889066" lon="13.089524149830924"><ele>44.0</ele><time>2026-04-03T14:00:54Z</time></trkpt><trkpt lat="52.42835798698069" lon="13.089702949978735"><ele>44.0</ele><time>2026-04-03T14:00:55Z</time></trkpt><trkpt lat="52.42832307050277" lon="13.089872253985954"><ele>44.0</ele><time>2026-04-03T14:00:56Z</time></trkpt><trkpt lat="52.42829796922087" lon="13.089995252838488"><ele>44.0</ele><time>2026-04-03T14:00:57Z</time></trkpt><trkpt lat="52.42828642103926" lon="13.09010678892379"><ele>43.400000000000006</ele><time>2026-04-03T14:00:58Z</time></trkpt><trkpt lat="52.428262590275445" lon="13.090209653125541"><ele>42.8</ele><time>2026-04-03T14:00:59Z</time></trkpt><trkpt lat="52.42822922436973" lon="13.090385993759357"><ele>42.2</ele><time>2026-04-03T14:01:01Z</time></trkpt><trkpt lat="52.42822035177872" lon="13.090567391543614"><ele>41.599999999999994</ele><time>2026-04-03T14:01:02.999Z</time></trkpt><trkpt lat="52.428230418695016" lon="13.090672723992236"><ele>41.0</ele><time>2026-04-03T14:01:03.999Z</time></trkpt><trkpt lat="52.428259029926096" lon="13.090825016162283"><ele>40.4</ele><time>2026-04-03T14:01:04.999Z</time></trkpt><trkpt lat="52.42831059629699" lon="13.09098655621531"><ele>39.8</ele><time>2026-04-03T14:01:05.999Z</time></trkpt><trkpt lat="52.428360762281606" lon="13.091127174678032"><ele>39.199999999999996</ele><time>2026-04-03T14:01:06.999Z</time></trkpt><trkpt lat="52.42840197189634" lon="13.091240427306662"><ele>38.599999999999994</ele><time>2026-04-03T14:01:07.999Z</time></trkpt><trkpt lat="52.428445653927454" lon="13.091362680242275"><ele>38.0</ele><time>2026-04-03T14:01:08.999Z</time></trkpt><trkpt lat="52.42848057160386" lon="13.091487745142619"><ele>38.0</ele><time>2026-04-03T14:01:09.999Z</time></trkpt><trkpt lat="52.428511667303034" lon="13.0916180753788"><ele>38.0</ele><time>2026-04-03T14:01:10.999Z</time></trkpt><trkpt lat="52.42854169040583" lon="13.091739993885318"><ele>38.0</ele><time>2026-04-03T14:01:11.999Z</time></trkpt><trkpt lat="52.42856273270248" lon="13.091845986012475"><ele>38.0</ele><time>2026-04-03T14:01:12.999Z</time></trkpt><trkpt lat="52.42859122209178" lon="13.092052289424"><ele>38.0</ele><time>2026-04-03T14:01:14.999Z</time></trkpt><trkpt lat="52.42859409408728" lon="13.092177386521339"><ele>38.0</ele><time>2026-04-03T14:01:15.999Z</time></trkpt><trkpt lat="52.42859493982513" lon="13.09231386771979"><ele>37.199999999999996</ele><time>2026-04-03T14:01:16.999Z</time></trkpt><trkpt lat="52.42859864896235" lon="13.092454610090815"><ele>36.4</ele><time>2026-04-03T14:01:17.999Z</time></trkpt><trkpt lat="52.42858525852418" lon="13.092602069810209"><ele>35.599999999999994</ele><time>2026-04-03T14:01:18.999Z</time></trkpt><trkpt lat="52.428573795937574" lon="13.092757189966985"><ele>34.8</ele><time>2026-04-03T14:01:19.999Z</time></trkpt><trkpt lat="52.428566632577315" lon="13.092908593529753"><ele>34.0</ele><time>2026-04-03T14:01:20.999Z</time></trkpt><trkpt lat="52.42855884869971" lon="13.093061902895723"><ele>34.0</ele><time>2026-04-03T14:01:21.999Z</time></trkpt><trkpt lat="52.428552949922306" lon="13.093195973313781"><ele>34.0</ele><time>2026-04-03T14:01:22.999Z</time></trkpt><trkpt lat="52.42854781596324" lon="13.093335643486057"><ele>34.0</ele><time>2026-04-03T14:01:23.999Z</time></trkpt><trkpt lat="52.42854125483095" lon="13.093466200825278"><ele>34.0</ele><time>2026-04-03T14:01:24.999Z</time></trkpt><trkpt lat="52.428536087788274" lon="13.093580279486583"><ele>34.0</ele><time>2026-04-03T14:01:25.999Z</time></trkpt><trkpt lat="52.42853567777411" lon="13.09369186261668"><ele>34.0</ele><time>2026-04-03T14:01:26.999Z</time></trkpt><trkpt lat="52.42852550556995" lon="13.093804615638975"><ele>34.2</ele><time>2026-04-03T14:01:27.999Z</time></trkpt><trkpt lat="52.428533709587164" lon="13.093917481444898"><ele>34.4</ele><time>2026-04-03T14:01:28.999Z</time></trkpt><trkpt lat="52.42853482181248" lon="13.094057727379651"><ele>34.6</ele><time>2026-04-03T14:01:29.999Z</time></trkpt><trkpt lat="52.42853154666188" lon="13.094232909503427"><ele>34.8</ele><time>2026-04-03T14:01:30.999Z</time></trkpt><trkpt lat="52.42852633817617" lon="13.094423167160786"><ele>35.0</ele><time>2026-04-03T14:01:31.999Z</time></trkpt><trkpt lat="52.42853206872495" lon="13.094592777171764"><ele>35.6</ele><time>2026-04-03T14:01:32.999Z</time></trkpt><trkpt lat="52.42852977643434" lon="13.094747179804102"><ele>36.2</ele><time>2026-04-03T14:01:33.999Z</time></trkpt><trkpt lat="52.42852724030247" lon="13.094885439817114"><ele>36.8</ele><time>2026-04-03T14:01:34.999Z</time></trkpt><trkpt lat="52.42851733479253" lon="13.095021342256828"><ele>37.4</ele><time>2026-04-03T14:01:35.999Z</time></trkpt><trkpt lat="52.428510643430585" lon="13.09517330322951"><ele>38.0</ele><time>2026-04-03T14:01:36.999Z</time></trkpt><trkpt lat="52.428512381783115" lon="13.09532959050821"><ele>38.285714285714285</ele><time>2026-04-03T14:01:37.999Z</time></trkpt><trkpt lat="52.42851044468877" lon="13.095467982445758"><ele>38.57142857142858</ele><time>2026-04-03T14:01:38.999Z</time></trkpt><trkpt lat="52.42851105679802" lon="13.095601288409313"><ele>38.85714285714286</ele><time>2026-04-03T14:01:39.999Z</time></trkpt><trkpt lat="52.42851102920068" lon="13.095720438269968"><ele>39.14285714285714</ele><time>2026-04-03T14:01:40.999Z</time></trkpt><trkpt lat="52.42852011438934" lon="13.09582890949298"><ele>39.42857142857143</ele><time>2026-04-03T14:01:41.999Z</time></trkpt><trkpt lat="52.428524651201734" lon="13.095942165203986"><ele>39.714285714285715</ele><time>2026-04-03T14:01:42.999Z</time></trkpt><trkpt lat="52.428532524494315" lon="13.096056224714951"><ele>40.0</ele><time>2026-04-03T14:01:43.999Z</time></trkpt><trkpt lat="52.42852770212037" lon="13.096190624079105"><ele>40.0</ele><time>2026-04-03T14:01:44.999Z</time></trkpt><trkpt lat="52.42852673349771" lon="13.0963199550314"><ele>40.0</ele><time>2026-04-03T14:01:45.999Z</time></trkpt><trkpt lat="52.42852267792429" lon="13.096466210702784"><ele>40.0</ele><time>2026-04-03T14:01:46.999Z</time></trkpt><trkpt lat="52.42853119211573" lon="13.096611631108996"><ele>40.0</ele><time>2026-04-03T14:01:47.999Z</time></trkpt><trkpt lat="52.42855160261416" lon="13.096760888572463"><ele>40.0</ele><time>2026-04-03T14:01:48.999Z</time></trkpt><trkpt lat="52.42858297027495" lon="13.096897459728279"><ele>40.0</ele><time>2026-04-03T14:01:49.999Z</time></trkpt><trkpt lat="52.428598432497" lon="13.097042596757047"><ele>39.8</ele><time>2026-04-03T14:01:50.999Z</time></trkpt><trkpt lat="52.428639881857215" lon="13.097173152986757"><ele>39.6</ele><time>2026-04-03T14:01:51.999Z</time></trkpt><trkpt lat="52.42866390284071" lon="13.097315790274376"><ele>39.4</ele><time>2026-04-03T14:01:52.999Z</time></trkpt><trkpt lat="52.42868821670251" lon="13.097463341500555"><ele>39.2</ele><time>2026-04-03T14:01:53.999Z</time></trkpt><trkpt lat="52.42871692965024" lon="13.097598316788446"><ele>39.0</ele><time>2026-04-03T14:01:54.999Z</time></trkpt><trkpt lat="52.428745110168514" lon="13.097739913306787"><ele>38.8</ele><time>2026-04-03T14:01:55.999Z</time></trkpt><trkpt lat="52.428770731646026" lon="13.097873625301151"><ele>38.599999999999994</ele><time>2026-04-03T14:01:56.999Z</time></trkpt><trkpt lat="52.428802914785976" lon="13.098014564872052"><ele>38.4</ele><time>2026-04-03T14:01:57.999Z</time></trkpt><trkpt lat="52.42883250323088" lon="13.098159723428752"><ele>38.199999999999996</ele><time>2026-04-03T14:01:58.999Z</time></trkpt><trkpt lat="52.4288577160029" lon="13.098311485504242"><ele>38.0</ele><time>2026-04-03T14:01:59.999Z</time></trkpt><trkpt lat="52.428886066105406" lon="13.098467404992293"><ele>38.33333333333333</ele><time>2026-04-03T14:02:00.999Z</time></trkpt><trkpt lat="52.42891280618572" lon="13.098614305389523"><ele>38.666666666666664</ele><time>2026-04-03T14:02:01.999Z</time></trkpt><trkpt lat="52.42894393343056" lon="13.09875927321626"><ele>39.0</ele><time>2026-04-03T14:02:02.999Z</time></trkpt><trkpt lat="52.428969433793284" lon="13.098882571452755"><ele>39.333333333333336</ele><time>2026-04-03T14:02:03.998Z</time></trkpt><trkpt lat="52.42899834067029" lon="13.09900826137289"><ele>39.66666666666667</ele><time>2026-04-03T14:02:04.998Z</time></trkpt><trkpt lat="52.429035188873385" lon="13.099135994289913"><ele>40.0</ele><time>2026-04-03T14:02:05.998Z</time></trkpt><trkpt lat="52.42908361491697" lon="13.099244973524367"><ele>40.0</ele><time>2026-04-03T14:02:06.998Z</time></trkpt><trkpt lat="52.42915652574578" lon="13.099316611236834"><ele>40.0</ele><time>2026-04-03T14:02:07.998Z</time></trkpt><trkpt lat="52.42923683887448" lon="13.099359169417708"><ele>40.0</ele><time>2026-04-03T14:02:08.998Z</time></trkpt><trkpt lat="52.42933114531941" lon="13.099383747129385"><ele>40.0</ele><time>2026-04-03T14:02:09.998Z</time></trkpt><trkpt lat="52.42942451084242" lon="13.099422649357654"><ele>40.0</ele><time>2026-04-03T14:02:10.998Z</time></trkpt><trkpt lat="52.429509285149116" lon="13.099433225498768"><ele>40.0</ele><time>2026-04-03T14:02:11.998Z</time></trkpt><trkpt lat="52.42958955751448" lon="13.099446587543518"><ele>38.8</ele><time>2026-04-03T14:02:12.998Z</time></trkpt><trkpt lat="52.42967480137081" lon="13.099453641270893"><ele>37.6</ele><time>2026-04-03T14:02:13.998Z</time></trkpt><trkpt lat="52.42976589717184" lon="13.09946153298653"><ele>36.4</ele><time>2026-04-03T14:02:14.998Z</time></trkpt><trkpt lat="52.42985958141586" lon="13.099474504233534"><ele>35.2</ele><time>2026-04-03T14:02:15.998Z</time></trkpt><trkpt lat="52.42995507149452" lon="13.099488565264943"><ele>34.0</ele><time>2026-04-03T14:02:16.998Z</time></trkpt><trkpt lat="52.4300502091925" lon="13.099508617995253"><ele>34.0</ele><time>2026-04-03T14:02:17.998Z</time></trkpt><trkpt lat="52.43014043870327" lon="13.09952692579259"><ele>34.0</ele><time>2026-04-03T14:02:18.998Z</time></trkpt><trkpt lat="52.43022859210078" lon="13.099539600846787"><ele>34.0</ele><time>2026-04-03T14:02:19.998Z</time></trkpt><trkpt lat="52.430318902782936" lon="13.099550220192752"><ele>34.0</ele><time>2026-04-03T14:02:20.998Z</time></trkpt><trkpt lat="52.430394967616515" lon="13.099561153616897"><ele>34.0</ele><time>2026-04-03T14:02:21.998Z</time></trkpt><trkpt lat="52.43046578248924" lon="13.099573637345907"><ele>34.0</ele><time>2026-04-03T14:02:22.998Z</time></trkpt><trkpt lat="52.430528567603126" lon="13.099581647343747"><ele>34.16666666666667</ele><time>2026-04-03T14:02:23.998Z</time></trkpt><trkpt lat="52.43059396544106" lon="13.099591104833125"><ele>34.333333333333336</ele><time>2026-04-03T14:02:24.998Z</time></trkpt><trkpt lat="52.43066961925738" lon="13.099600338417424"><ele>34.5</ele><time>2026-04-03T14:02:25.998Z</time></trkpt><trkpt lat="52.430750613118356" lon="13.099611676125724"><ele>34.666666666666664</ele><time>2026-04-03T14:02:26.998Z</time></trkpt><trkpt lat="52.4308235870663" lon="13.099621433333462"><ele>34.83333333333333</ele><time>2026-04-03T14:02:27.998Z</time></trkpt><trkpt lat="52.43090190563018" lon="13.099641401927956"><ele>35.0</ele><time>2026-04-03T14:02:28.998Z</time></trkpt><trkpt lat="52.430983089246816" lon="13.099653401592107"><ele>35.0</ele><time>2026-04-03T14:02:30Z</time></trkpt><trkpt lat="52.43106209454242" lon="13.099673007759485"><ele>35.0</ele><time>2026-04-03T14:02:31Z</time></trkpt><trkpt lat="52.43113028307543" lon="13.09971264238223"><ele>35.0</ele><time>2026-04-03T14:02:32Z</time></trkpt><trkpt lat="52.43120960777141" lon="13.099767158779777"><ele>35.0</ele><time>2026-04-03T14:02:33Z</time></trkpt><trkpt lat="52.4312882578862" lon="13.09984634266677"><ele>35.0</ele><time>2026-04-03T14:02:34Z</time></trkpt><trkpt lat="52.43136189420447" lon="13.099926807071515"><ele>35.0</ele><time>2026-04-03T14:02:35Z</time></trkpt><trkpt lat="52.431431831431375" lon="13.100006831227804"><ele>35.5</ele><time>2026-04-03T14:02:36Z</time></trkpt><trkpt lat="52.43149875465615" lon="13.10009118587868"><ele>36.0</ele><time>2026-04-03T14:02:37Z</time></trkpt><trkpt lat="52.431572042620175" lon="13.10017632926403"><ele>36.5</ele><time>2026-04-03T14:02:38Z</time></trkpt><trkpt lat="52.43164617673361" lon="13.10025925437241"><ele>37.0</ele><time>2026-04-03T14:02:39Z</time></trkpt><trkpt lat="52.431718928828595" lon="13.100340880928382"><ele>37.5</ele><time>2026-04-03T14:02:40Z</time></trkpt><trkpt lat="52.431791425917666" lon="13.100419690485063"><ele>38.0</ele><time>2026-04-03T14:02:41Z</time></trkpt><trkpt lat="52.4318615695014" lon="13.100502248475232"><ele>38.0</ele><time>2026-04-03T14:02:42Z</time></trkpt><trkpt lat="52.43193219697333" lon="13.100586640838234"><ele>38.0</ele><time>2026-04-03T14:02:43Z</time></trkpt><trkpt lat="52.43200783002917" lon="13.100687840759406"><ele>38.0</ele><time>2026-04-03T14:02:44Z</time></trkpt><trkpt lat="52.43207628638864" lon="13.100759421482609"><ele>38.0</ele><time>2026-04-03T14:02:45Z</time></trkpt><trkpt lat="52.432153871017874" lon="13.100845763338109"><ele>38.0</ele><time>2026-04-03T14:02:46Z</time></trkpt><trkpt lat="52.432228854587116" lon="13.100926970334477"><ele>38.0</ele><time>2026-04-03T14:02:47Z</time></trkpt><trkpt lat="52.432300962511206" lon="13.10100784829733"><ele>38.0</ele><time>2026-04-03T14:02:48Z</time></trkpt><trkpt lat="52.43237386632447" lon="13.10109379210981"><ele>38.0</ele><time>2026-04-03T14:02:49Z</time></trkpt><trkpt lat="52.43244332337584" lon="13.101184868193808"><ele>38.0</ele><time>2026-04-03T14:02:50Z</time></trkpt><trkpt lat="52.43252559841735" lon="13.101256762106456"><ele>38.0</ele><time>2026-04-03T14:02:51Z</time></trkpt><trkpt lat="52.43259821530508" lon="13.101343918421204"><ele>38.0</ele><time>2026-04-03T14:02:52Z</time></trkpt><trkpt lat="52.43268352767022" lon="13.101440277291083"><ele>38.0</ele><time>2026-04-03T14:02:53Z</time></trkpt><trkpt lat="52.432761150227854" lon="13.101536314299992"><ele>38.0</ele><time>2026-04-03T14:02:54Z</time></trkpt><trkpt lat="52.432841645775056" lon="13.101636690067298"><ele>38.0</ele><time>2026-04-03T14:02:55Z</time></trkpt><trkpt lat="52.4329203607489" lon="13.10173382212882"><ele>38.0</ele><time>2026-04-03T14:02:56Z</time></trkpt><trkpt lat="52.43299665163337" lon="13.10182569406276"><ele>38.0</ele><time>2026-04-03T14:02:57Z</time></trkpt><trkpt lat="52.43307282764225" lon="13.10192751944936"><ele>38.0</ele><time>2026-04-03T14:02:58Z</time></trkpt><trkpt lat="52.43315236981548" lon="13.102029593194967"><ele>38.0</ele><time>2026-04-03T14:02:59Z</time></trkpt><trkpt lat="52.43323217828638" lon="13.102127715856268"><ele>38.0</ele><time>2026-04-03T14:03:00Z</time></trkpt><trkpt lat="52.433301310973036" lon="13.102236101858107"><ele>38.0</ele><time>2026-04-03T14:03:01Z</time></trkpt><trkpt lat="52.43336807307878" lon="13.102344955891136"><ele>38.0</ele><time>2026-04-03T14:03:02Z</time></trkpt><trkpt lat="52.43343471591858" lon="13.102451643641581"><ele>38.0</ele><time>2026-04-03T14:03:03Z</time></trkpt><trkpt lat="52.43350659841802" lon="13.102550738561211"><ele>38.0</ele><time>2026-04-03T14:03:04Z</time></trkpt><trkpt lat="52.433577798187336" lon="13.102637331341972"><ele>38.0</ele><time>2026-04-03T14:03:05Z</time></trkpt><trkpt lat="52.43364745426164" lon="13.102736890107778"><ele>38.0</ele><time>2026-04-03T14:03:06Z</time></trkpt><trkpt lat="52.43371118480201" lon="13.102842461846693"><ele>38.0</ele><time>2026-04-03T14:03:07Z</time></trkpt><trkpt lat="52.433781665864345" lon="13.10295393760372"><ele>39.2</ele><time>2026-04-03T14:03:08Z</time></trkpt><trkpt lat="52.43383877921575" lon="13.103081213792509"><ele>40.4</ele><time>2026-04-03T14:03:09Z</time></trkpt><trkpt lat="52.433920528822796" lon="13.103179874578316"><ele>41.6</ele><time>2026-04-03T14:03:10Z</time></trkpt><trkpt lat="52.433996715039456" lon="13.103289498104198"><ele>42.800000000000004</ele><time>2026-04-03T14:03:11Z</time></trkpt><trkpt lat="52.43406596756077" lon="13.103377029743656"><ele>44.0</ele><time>2026-04-03T14:03:11.999Z</time></trkpt><trkpt lat="52.43413365224861" lon="13.103457133451574"><ele>44.0</ele><time>2026-04-03T14:03:12.999Z</time></trkpt><trkpt lat="52.43418181064083" lon="13.103552156837711"><ele>44.0</ele><time>2026-04-03T14:03:13.999Z</time></trkpt><trkpt lat="52.43423275728495" lon="13.103659292373058"><ele>44.0</ele><time>2026-04-03T14:03:14.999Z</time></trkpt><trkpt lat="52.434326939897225" lon="13.103769686324478"><ele>44.0</ele><time>2026-04-03T14:03:15.999Z</time></trkpt><trkpt lat="52.434419641604954" lon="13.103883035027053"><ele>44.0</ele><time>2026-04-03T14:03:16.999Z</time></trkpt><trkpt lat="52.43450381468202" lon="13.104014414488677"><ele>43.6</ele><time>2026-04-03T14:03:17.999Z</time></trkpt><trkpt lat="52.434573857317396" lon="13.104128799914664"><ele>43.2</ele><time>2026-04-03T14:03:18.999Z</time></trkpt><trkpt lat="52.4346561470354" lon="13.104252652470116"><ele>42.800000000000004</ele><time>2026-04-03T14:03:19.999Z</time></trkpt><trkpt lat="52.434747361186155" lon="13.104373013333904"><ele>42.400000000000006</ele><time>2026-04-03T14:03:20.999Z</time></trkpt><trkpt lat="52.434828472594475" lon="13.104506405891104"><ele>42.0</ele><time>2026-04-03T14:03:21.999Z</time></trkpt><trkpt lat="52.43491137073801" lon="13.104648316114334"><ele>42.5</ele><time>2026-04-03T14:03:22.999Z</time></trkpt><trkpt lat="52.435000436880024" lon="13.104780271274189"><ele>43.0</ele><time>2026-04-03T14:03:23.999Z</time></trkpt><trkpt lat="52.43508627900622" lon="13.104928452816186"><ele>43.5</ele><time>2026-04-03T14:03:24.999Z</time></trkpt><trkpt lat="52.43518109735296" lon="13.105064623807618"><ele>44.0</ele><time>2026-04-03T14:03:25.999Z</time></trkpt><trkpt lat="52.43527400946431" lon="13.105193073642795"><ele>44.0</ele><time>2026-04-03T14:03:26.999Z</time></trkpt><trkpt lat="52.43536807650043" lon="13.10532618310944"><ele>44.0</ele><time>2026-04-03T14:03:27.999Z</time></trkpt><trkpt lat="52.435455633908816" lon="13.105461127394273"><ele>44.0</ele><time>2026-04-03T14:03:28.999Z</time></trkpt><trkpt lat="52.43554807909575" lon="13.105600796997452"><ele>44.0</ele><time>2026-04-03T14:03:29.999Z</time></trkpt><trkpt lat="52.43563942441928" lon="13.105741287832041"><ele>44.5</ele><time>2026-04-03T14:03:30.999Z</time></trkpt><trkpt lat="52.43573377829139" lon="13.105874347616174"><ele>45.0</ele><time>2026-04-03T14:03:31.999Z</time></trkpt><trkpt lat="52.435820841562766" lon="13.10599215559828"><ele>45.5</ele><time>2026-04-03T14:03:32.999Z</time></trkpt><trkpt lat="52.43591140040291" lon="13.106130227153729"><ele>46.0</ele><time>2026-04-03T14:03:33.999Z</time></trkpt><trkpt lat="52.436007118893464" lon="13.106267330863572"><ele>46.0</ele><time>2026-04-03T14:03:34.999Z</time></trkpt><trkpt lat="52.436099528827576" lon="13.106401055929734"><ele>46.0</ele><time>2026-04-03T14:03:35.999Z</time></trkpt><trkpt lat="52.43618944502983" lon="13.106528085554508"><ele>46.0</ele><time>2026-04-03T14:03:36.999Z</time></trkpt><trkpt lat="52.436261773435135" lon="13.10665912227915"><ele>46.0</ele><time>2026-04-03T14:03:37.999Z</time></trkpt><trkpt lat="52.43634197648215" lon="13.106793398380288"><ele>46.25</ele><time>2026-04-03T14:03:38.999Z</time></trkpt><trkpt lat="52.4364395672449" lon="13.106901893645581"><ele>46.5</ele><time>2026-04-03T14:03:39.999Z</time></trkpt><trkpt lat="52.436524932115944" lon="13.1070340417932"><ele>46.75</ele><time>2026-04-03T14:03:40.999Z</time></trkpt><trkpt lat="52.436617711073744" lon="13.107156546376514"><ele>47.0</ele><time>2026-04-03T14:03:41.999Z</time></trkpt><trkpt lat="52.43670203148032" lon="13.10727912716041"><ele>47.0</ele><time>2026-04-03T14:03:42.999Z</time></trkpt><trkpt lat="52.43677408657759" lon="13.107401810252728"><ele>47.0</ele><time>2026-04-03T14:03:43.999Z</time></trkpt><trkpt lat="52.43686442288991" lon="13.107541771155068"><ele>47.0</ele><time>2026-04-03T14:03:44.999Z</time></trkpt><trkpt lat="52.43696146679883" lon="13.107647332837082"><ele>47.0</ele><time>2026-04-03T14:03:45.999Z</time></trkpt><trkpt lat="52.43703646307457" lon="13.107781049464812"><ele>47.2</ele><time>2026-04-03T14:03:46.999Z</time></trkpt><trkpt lat="52.437113786891075" lon="13.107899307546774"><ele>47.400000000000006</ele><time>2026-04-03T14:03:47.999Z</time></trkpt><trkpt lat="52.43717875301121" lon="13.108000184594324"><ele>47.599999999999994</ele><time>2026-04-03T14:03:48.999Z</time></trkpt><trkpt lat="52.437255035485734" lon="13.108128116527281"><ele>47.8</ele><time>2026-04-03T14:03:49.999Z</time></trkpt><trkpt lat="52.43734802081041" lon="13.108235357501808"><ele>48.0</ele><time>2026-04-03T14:03:50.999Z</time></trkpt><trkpt lat="52.43743760176416" lon="13.108351783560243"><ele>48.0</ele><time>2026-04-03T14:03:51.999Z</time></trkpt><trkpt lat="52.43751668699519" lon="13.108472386184491"><ele>48.0</ele><time>2026-04-03T14:03:52.999Z</time></trkpt><trkpt lat="52.43760167990934" lon="13.108593755045534"><ele>48.0</ele><time>2026-04-03T14:03:53.999Z</time></trkpt><trkpt lat="52.437682669772016" lon="13.108708724331368"><ele>48.0</ele><time>2026-04-03T14:03:54.999Z</time></trkpt><trkpt lat="52.437779802232306" lon="13.10883441475572"><ele>48.0</ele><time>2026-04-03T14:03:55.999Z</time></trkpt><trkpt lat="52.43784471491936" lon="13.10895243004632"><ele>48.0</ele><time>2026-04-03T14:03:56.999Z</time></trkpt><trkpt lat="52.437909730404165" lon="13.109069621440208"><ele>48.0</ele><time>2026-04-03T14:03:57.999Z</time></trkpt><trkpt lat="52.43800011737955" lon="13.109182565940722"><ele>48.0</ele><time>2026-04-03T14:03:58.999Z</time></trkpt><trkpt lat="52.43808354637438" lon="13.109289822757974"><ele>48.0</ele><time>2026-04-03T14:03:59.999Z</time></trkpt><trkpt lat="52.43816069837205" lon="13.109409707758386"><ele>47.75</ele><time>2026-04-03T14:04:00.999Z</time></trkpt><trkpt lat="52.438236208383714" lon="13.109561413166636"><ele>47.5</ele><time>2026-04-03T14:04:01.999Z</time></trkpt><trkpt lat="52.43830670719937" lon="13.109686687890893"><ele>47.25</ele><time>2026-04-03T14:04:02.999Z</time></trkpt><trkpt lat="52.4383880571242" lon="13.109831166364044"><ele>47.0</ele><time>2026-04-03T14:04:03.999Z</time></trkpt><trkpt lat="52.43846933058496" lon="13.109968139651023"><ele>47.0</ele><time>2026-04-03T14:04:04.999Z</time></trkpt><trkpt lat="52.43854614809668" lon="13.11011984842404"><ele>47.0</ele><time>2026-04-03T14:04:05.999Z</time></trkpt><trkpt lat="52.438612840318854" lon="13.110278578462495"><ele>47.0</ele><time>2026-04-03T14:04:06.999Z</time></trkpt><trkpt lat="52.4386842859025" lon="13.110401753984805"><ele>47.0</ele><time>2026-04-03T14:04:07.999Z</time></trkpt><trkpt lat="52.438738032382815" lon="13.110545286868755"><ele>47.0</ele><time>2026-04-03T14:04:08.999Z</time></trkpt><trkpt lat="52.43879461615817" lon="13.110703797328721"><ele>48.0</ele><time>2026-04-03T14:04:09.999Z</time></trkpt><trkpt lat="52.43884435439524" lon="13.11086862487204"><ele>49.0</ele><time>2026-04-03T14:04:10.999Z</time></trkpt><trkpt lat="52.438903745931604" lon="13.111016452169116"><ele>50.0</ele><time>2026-04-03T14:04:11.999Z</time></trkpt><trkpt lat="52.43896094707828" lon="13.111169365501008"><ele>51.0</ele><time>2026-04-03T14:04:12.999Z</time></trkpt><trkpt lat="52.43901710468311" lon="13.111327798702227"><ele>52.0</ele><time>2026-04-03T14:04:13.998Z</time></trkpt><trkpt lat="52.43907464573233" lon="13.111486782749722"><ele>52.0</ele><time>2026-04-03T14:04:14.998Z</time></trkpt><trkpt lat="52.4391365323381" lon="13.111649433936845"><ele>52.0</ele><time>2026-04-03T14:04:15.998Z</time></trkpt><trkpt lat="52.4391853542202" lon="13.111810859228488"><ele>52.0</ele><time>2026-04-03T14:04:16.998Z</time></trkpt><trkpt lat="52.439241271250495" lon="13.111977302209425"><ele>52.0</ele><time>2026-04-03T14:04:17.998Z</time></trkpt><trkpt lat="52.43929413655371" lon="13.112137171274242"><ele>52.0</ele><time>2026-04-03T14:04:18.998Z</time></trkpt><trkpt lat="52.439362442268" lon="13.112290812058331"><ele>52.0</ele><time>2026-04-03T14:04:19.998Z</time></trkpt><trkpt lat="52.439423472099584" lon="13.112448714776594"><ele>52.0</ele><time>2026-04-03T14:04:20.998Z</time></trkpt><trkpt lat="52.43948440350261" lon="13.112612221442948"><ele>52.0</ele><time>2026-04-03T14:04:21.998Z</time></trkpt><trkpt lat="52.43953290401543" lon="13.11277651740189"><ele>52.666666666666664</ele><time>2026-04-03T14:04:22.998Z</time></trkpt><trkpt lat="52.43958902464924" lon="13.112923365598464"><ele>53.33333333333333</ele><time>2026-04-03T14:04:23.998Z</time></trkpt><trkpt lat="52.4396348951395" lon="13.113058601179624"><ele>54.0</ele><time>2026-04-03T14:04:24.998Z</time></trkpt><trkpt lat="52.43967444954589" lon="13.113177421695397"><ele>54.66666666666667</ele><time>2026-04-03T14:04:25.998Z</time></trkpt><trkpt lat="52.43970821630119" lon="13.11327702404779"><ele>55.333333333333336</ele><time>2026-04-03T14:04:26.998Z</time></trkpt><trkpt lat="52.439744028807375" lon="13.113397827351466"><ele>56.0</ele><time>2026-04-03T14:04:27.998Z</time></trkpt><trkpt lat="52.439774907603905" lon="13.11351126782681"><ele>56.00000000000001</ele><time>2026-04-03T14:04:28.998Z</time></trkpt><trkpt lat="52.43981938459734" lon="13.113614280724963"><ele>56.0</ele><time>2026-04-03T14:04:29.998Z</time></trkpt><trkpt lat="52.4398722420106" lon="13.113739988634682"><ele>56.0</ele><time>2026-04-03T14:04:30.998Z</time></trkpt><trkpt lat="52.439926831388206" lon="13.113865059935"><ele>56.0</ele><time>2026-04-03T14:04:31.998Z</time></trkpt><trkpt lat="52.439974746915425" lon="13.113980956650169"><ele>56.00000000000001</ele><time>2026-04-03T14:04:32.998Z</time></trkpt><trkpt lat="52.44003595194784" lon="13.114100113355443"><ele>56.0</ele><time>2026-04-03T14:04:33.998Z</time></trkpt><trkpt lat="52.44010445781022" lon="13.114170593646246"><ele>56.0</ele><time>2026-04-03T14:04:34.998Z</time></trkpt><trkpt lat="52.4402035434054" lon="13.11420958489772"><ele>55.99999999999999</ele><time>2026-04-03T14:04:36Z</time></trkpt><trkpt lat="52.44031483260737" lon="13.11424584247228"><ele>55.99999999999999</ele><time>2026-04-03T14:04:37Z</time></trkpt><trkpt lat="52.440424741819946" lon="13.114259070971407"><ele>56.0</ele><time>2026-04-03T14:04:38Z</time></trkpt><trkpt lat="52.44051289694228" lon="13.114267692369259"><ele>56.0</ele><time>2026-04-03T14:04:39Z</time></trkpt><trkpt lat="52.44060986084051" lon="13.114283161369071"><ele>56.00000000000001</ele><time>2026-04-03T14:04:40Z</time></trkpt><trkpt lat="52.44070003543285" lon="13.114318024318822"><ele>56.0</ele><time>2026-04-03T14:04:41Z</time></trkpt><trkpt lat="52.440779040186506" lon="13.114357104039257"><ele>56.0</ele><time>2026-04-03T14:04:42Z</time></trkpt><trkpt lat="52.44087256611095" lon="13.114410682888495"><ele>56.0</ele><time>2026-04-03T14:04:43Z</time></trkpt><trkpt lat="52.440943884948645" lon="13.114502025718705"><ele>56.00000000000001</ele><time>2026-04-03T14:04:44Z</time></trkpt><trkpt lat="52.44100762655233" lon="13.114578074596176"><ele>56.0</ele><time>2026-04-03T14:04:45Z</time></trkpt><trkpt lat="52.44109699790648" lon="13.114631696822158"><ele>56.00000000000001</ele><time>2026-04-03T14:04:46Z</time></trkpt><trkpt lat="52.44118755659076" lon="13.114713706440334"><ele>56.0</ele><time>2026-04-03T14:04:47Z</time></trkpt><trkpt lat="52.441272958739326" lon="13.11478005086389"><ele>56.0</ele><time>2026-04-03T14:04:48Z</time></trkpt><trkpt lat="52.44133953200684" lon="13.114837790499323"><ele>56.0</ele><time>2026-04-03T14:04:49Z</time></trkpt><trkpt lat="52.44139964167552" lon="13.114879858354977"><ele>56.00000000000001</ele><time>2026-04-03T14:04:50Z</time></trkpt><trkpt lat="52.441493333577796" lon="13.114954343161383"><ele>56.0</ele><time>2026-04-03T14:04:51Z</time></trkpt><trkpt lat="52.44159623203092" lon="13.115027869486617"><ele>56.66666666666667</ele><time>2026-04-03T14:04:52Z</time></trkpt><trkpt lat="52.44166710489963" lon="13.115083020641334"><ele>57.333333333333336</ele><time>2026-04-03T14:04:53Z</time></trkpt><trkpt lat="52.44173516714078" lon="13.115142629178333"><ele>58.0</ele><time>2026-04-03T14:04:54Z</time></trkpt><trkpt lat="52.44179976195404" lon="13.115201092776752"><ele>58.66666666666667</ele><time>2026-04-03T14:04:55Z</time></trkpt><trkpt lat="52.44186790588564" lon="13.115284570266404"><ele>59.333333333333336</ele><time>2026-04-03T14:04:56Z</time></trkpt><trkpt lat="52.44193872815827" lon="13.115371632386504"><ele>60.0</ele><time>2026-04-03T14:04:57Z</time></trkpt><trkpt lat="52.44201281400961" lon="13.11552025845532"><ele>60.0</ele><time>2026-04-03T14:04:58Z</time></trkpt><trkpt lat="52.442084445631366" lon="13.115670803972028"><ele>60.0</ele><time>2026-04-03T14:04:59Z</time></trkpt><trkpt lat="52.44214066492971" lon="13.11584654439266"><ele>60.0</ele><time>2026-04-03T14:05:00Z</time></trkpt><trkpt lat="52.442190119064605" lon="13.116027765831225"><ele>60.0</ele><time>2026-04-03T14:05:01Z</time></trkpt><trkpt lat="52.44223910620833" lon="13.11620284873856"><ele>60.2</ele><time>2026-04-03T14:05:02Z</time></trkpt><trkpt lat="52.44229075122575" lon="13.116349839411651"><ele>60.4</ele><time>2026-04-03T14:05:03Z</time></trkpt><trkpt lat="52.442337646349" lon="13.116510107825711"><ele>60.599999999999994</ele><time>2026-04-03T14:05:04Z</time></trkpt><trkpt lat="52.44239094301707" lon="13.11669438215811"><ele>60.8</ele><time>2026-04-03T14:05:05Z</time></trkpt><trkpt lat="52.44244714825625" lon="13.116841142343974"><ele>61.0</ele><time>2026-04-03T14:05:06Z</time></trkpt><trkpt lat="52.442494371731335" lon="13.11699335186978"><ele>61.0</ele><time>2026-04-03T14:05:07Z</time></trkpt><trkpt lat="52.44254883934737" lon="13.11715034760395"><ele>60.99999999999999</ele><time>2026-04-03T14:05:08Z</time></trkpt><trkpt lat="52.44258824945868" lon="13.117341218143848"><ele>60.99999999999999</ele><time>2026-04-03T14:05:09Z</time></trkpt><trkpt lat="52.44263841072997" lon="13.11749366576827"><ele>61.0</ele><time>2026-04-03T14:05:10Z</time></trkpt><trkpt lat="52.44268628557737" lon="13.117643986503552"><ele>61.0</ele><time>2026-04-03T14:05:11Z</time></trkpt><trkpt lat="52.442726923296796" lon="13.117805359012278"><ele>59.8</ele><time>2026-04-03T14:05:12Z</time></trkpt><trkpt lat="52.442759361484335" lon="13.11796166767371"><ele>58.599999999999994</ele><time>2026-04-03T14:05:13Z</time></trkpt><trkpt lat="52.442789453592006" lon="13.118136451446173"><ele>57.4</ele><time>2026-04-03T14:05:14Z</time></trkpt><trkpt lat="52.44281342997067" lon="13.118296385339152"><ele>56.2</ele><time>2026-04-03T14:05:15Z</time></trkpt><trkpt lat="52.44283695819979" lon="13.11843515179863"><ele>55.0</ele><time>2026-04-03T14:05:16Z</time></trkpt><trkpt lat="52.44284864388663" lon="13.118590967306847"><ele>55.0</ele><time>2026-04-03T14:05:17Z</time></trkpt><trkpt lat="52.442872881670176" lon="13.118753854955521"><ele>55.0</ele><time>2026-04-03T14:05:17.999Z</time></trkpt><trkpt lat="52.44288357813554" lon="13.118919561861635"><ele>55.0</ele><time>2026-04-03T14:05:18.999Z</time></trkpt><trkpt lat="52.44289896563633" lon="13.119076960336802"><ele>55.0</ele><time>2026-04-03T14:05:19.999Z</time></trkpt><trkpt lat="52.44289728770586" lon="13.119243776267403"><ele>55.0</ele><time>2026-04-03T14:05:20.999Z</time></trkpt><trkpt lat="52.4428911398004" lon="13.119416726869185"><ele>55.0</ele><time>2026-04-03T14:05:21.999Z</time></trkpt><trkpt lat="52.44287223012712" lon="13.11959860079708"><ele>55.0</ele><time>2026-04-03T14:05:22.999Z</time></trkpt><trkpt lat="52.44283100243541" lon="13.119774229775965"><ele>55.0</ele><time>2026-04-03T14:05:23.999Z</time></trkpt><trkpt lat="52.44278204504855" lon="13.119946609661069"><ele>55.0</ele><time>2026-04-03T14:05:24.999Z</time></trkpt><trkpt lat="52.44273440658096" lon="13.120117860529497"><ele>54.8</ele><time>2026-04-03T14:05:25.999Z</time></trkpt><trkpt lat="52.44268894284343" lon="13.120281713244758"><ele>54.6</ele><time>2026-04-03T14:05:26.999Z</time></trkpt><trkpt lat="52.442646994237585" lon="13.120430471797672"><ele>54.400000000000006</ele><time>2026-04-03T14:05:27.999Z</time></trkpt><trkpt lat="52.44260898529" lon="13.120582400326217"><ele>54.2</ele><time>2026-04-03T14:05:28.999Z</time></trkpt><trkpt lat="52.44258424041859" lon="13.120726951783467"><ele>54.0</ele><time>2026-04-03T14:05:29.999Z</time></trkpt><trkpt lat="52.44259158417279" lon="13.120889921082458"><ele>54.0</ele><time>2026-04-03T14:05:30.999Z</time></trkpt><trkpt lat="52.44260607857481" lon="13.12107146569293"><ele>54.00000000000001</ele><time>2026-04-03T14:05:31.999Z</time></trkpt><trkpt lat="52.44264000879964" lon="13.121231091390918"><ele>54.00000000000001</ele><time>2026-04-03T14:05:32.999Z</time></trkpt><trkpt lat="52.4426909681143" lon="13.12137342982437"><ele>54.0</ele><time>2026-04-03T14:05:33.999Z</time></trkpt><trkpt lat="52.44273273903695" lon="13.121515575703212"><ele>54.0</ele><time>2026-04-03T14:05:34.999Z</time></trkpt><trkpt lat="52.44277701628781" lon="13.121669798299552"><ele>54.2</ele><time>2026-04-03T14:05:35.999Z</time></trkpt><trkpt lat="52.44282012947895" lon="13.121832312808984"><ele>54.400000000000006</ele><time>2026-04-03T14:05:36.999Z</time></trkpt><trkpt lat="52.442870114037085" lon="13.121983332543655"><ele>54.6</ele><time>2026-04-03T14:05:37.999Z</time></trkpt><trkpt lat="52.44291117005965" lon="13.122146207166299"><ele>54.8</ele><time>2026-04-03T14:05:38.999Z</time></trkpt><trkpt lat="52.442958089008705" lon="13.122276766157606"><ele>55.0</ele><time>2026-04-03T14:05:39.999Z</time></trkpt><trkpt lat="52.442997505164634" lon="13.122417571517325"><ele>54.99999999999999</ele><time>2026-04-03T14:05:40.999Z</time></trkpt><trkpt lat="52.4430386220003" lon="13.122561054756007"><ele>55.0</ele><time>2026-04-03T14:05:41.999Z</time></trkpt><trkpt lat="52.44307544851384" lon="13.122681432912302"><ele>55.0</ele><time>2026-04-03T14:05:42.999Z</time></trkpt><trkpt lat="52.44311634611977" lon="13.122805670306152"><ele>55.0</ele><time>2026-04-03T14:05:43.999Z</time></trkpt><trkpt lat="52.44315566538331" lon="13.122936839872503"><ele>54.99999999999999</ele><time>2026-04-03T14:05:44.999Z</time></trkpt><trkpt lat="52.44319639699292" lon="13.123064142688037"><ele>55.0</ele><time>2026-04-03T14:05:45.999Z</time></trkpt><trkpt lat="52.44324300789269" lon="13.12319602783278"><ele>54.666666666666664</ele><time>2026-04-03T14:05:46.999Z</time></trkpt><trkpt lat="52.44329219029823" lon="13.123333193195366"><ele>54.33333333333333</ele><time>2026-04-03T14:05:47.999Z</time></trkpt><trkpt lat="52.443336603518766" lon="13.123456065588275"><ele>54.0</ele><time>2026-04-03T14:05:48.999Z</time></trkpt><trkpt lat="52.44336288129164" lon="13.123577519565037"><ele>53.66666666666667</ele><time>2026-04-03T14:05:49.999Z</time></trkpt><trkpt lat="52.443404184494966" lon="13.123694598078137"><ele>53.333333333333336</ele><time>2026-04-03T14:05:50.999Z</time></trkpt><trkpt lat="52.44345455867097" lon="13.123816472116397"><ele>53.0</ele><time>2026-04-03T14:05:51.999Z</time></trkpt><trkpt lat="52.443516630437145" lon="13.123935119991419"><ele>53.00000000000001</ele><time>2026-04-03T14:05:52.999Z</time></trkpt><trkpt lat="52.44358101125516" lon="13.1240532845943"><ele>53.0</ele><time>2026-04-03T14:05:53.999Z</time></trkpt><trkpt lat="52.44365281155928" lon="13.124142709822147"><ele>53.0</ele><time>2026-04-03T14:05:54.999Z</time></trkpt><trkpt lat="52.44372076295924" lon="13.124221240789465"><ele>53.0</ele><time>2026-04-03T14:05:55.999Z</time></trkpt><trkpt lat="52.44379095902204" lon="13.124295268123316"><ele>53.00000000000001</ele><time>2026-04-03T14:05:56.999Z</time></trkpt><trkpt lat="52.44385847414061" lon="13.124366592151498"><ele>53.0</ele><time>2026-04-03T14:05:57.999Z</time></trkpt><trkpt lat="52.4439246375427" lon="13.12443664573353"><ele>52.00000000000001</ele><time>2026-04-03T14:05:58.999Z</time></trkpt><trkpt lat="52.44399682149671" lon="13.124513803682586"><ele>51.0</ele><time>2026-04-03T14:05:59.999Z</time></trkpt><trkpt lat="52.44407465650471" lon="13.124588284028277"><ele>50.0</ele><time>2026-04-03T14:06:00.999Z</time></trkpt><trkpt lat="52.44415532606898" lon="13.124653286748595"><ele>49.0</ele><time>2026-04-03T14:06:01.999Z</time></trkpt><trkpt lat="52.444233490257886" lon="13.124724686955568"><ele>48.0</ele><time>2026-04-03T14:06:02.999Z</time></trkpt><trkpt lat="52.44430923047854" lon="13.124805204347446"><ele>47.0</ele><time>2026-04-03T14:06:03.999Z</time></trkpt><trkpt lat="52.44438569627903" lon="13.124889525521295"><ele>47.400000000000006</ele><time>2026-04-03T14:06:04.999Z</time></trkpt><trkpt lat="52.44446270162731" lon="13.124974488255562"><ele>47.800000000000004</ele><time>2026-04-03T14:06:05.999Z</time></trkpt><trkpt lat="52.4445361102321" lon="13.12505476101057"><ele>48.2</ele><time>2026-04-03T14:06:06.999Z</time></trkpt><trkpt lat="52.44461159538109" lon="13.125133421392732"><ele>48.6</ele><time>2026-04-03T14:06:07.999Z</time></trkpt><trkpt lat="52.44468862342831" lon="13.12521328417866"><ele>49.0</ele><time>2026-04-03T14:06:08.999Z</time></trkpt><trkpt lat="52.44476665541281" lon="13.125291086783614"><ele>49.400000000000006</ele><time>2026-04-03T14:06:09.999Z</time></trkpt><trkpt lat="52.444847306088654" lon="13.125371459437023"><ele>49.8</ele><time>2026-04-03T14:06:10.999Z</time></trkpt><trkpt lat="52.44492075061006" lon="13.125454476946567"><ele>50.2</ele><time>2026-04-03T14:06:11.999Z</time></trkpt><trkpt lat="52.444998895041714" lon="13.12553019989345"><ele>50.599999999999994</ele><time>2026-04-03T14:06:12.999Z</time></trkpt><trkpt lat="52.44507155842046" lon="13.12560616443817"><ele>51.0</ele><time>2026-04-03T14:06:13.999Z</time></trkpt><trkpt lat="52.44515104262077" lon="13.125688101235204"><ele>51.0</ele><time>2026-04-03T14:06:14.999Z</time></trkpt><trkpt lat="52.44522988313181" lon="13.125761605468558"><ele>51.0</ele><time>2026-04-03T14:06:15.999Z</time></trkpt><trkpt lat="52.44531624784371" lon="13.125831919969105"><ele>51.0</ele><time>2026-04-03T14:06:16.999Z</time></trkpt><trkpt lat="52.44539902101993" lon="13.125900542214639"><ele>51.0</ele><time>2026-04-03T14:06:17.999Z</time></trkpt><trkpt lat="52.44548229478821" lon="13.12597567750909"><ele>51.0</ele><time>2026-04-03T14:06:18.999Z</time></trkpt><trkpt lat="52.44556421544264" lon="13.126035477526523"><ele>51.199999999999996</ele><time>2026-04-03T14:06:19.998Z</time></trkpt><trkpt lat="52.44565577640279" lon="13.126089821561855"><ele>51.4</ele><time>2026-04-03T14:06:20.998Z</time></trkpt><trkpt lat="52.44574330859532" lon="13.126148095839929"><ele>51.6</ele><time>2026-04-03T14:06:21.998Z</time></trkpt><trkpt lat="52.445837256529934" lon="13.126205333446801"><ele>51.8</ele><time>2026-04-03T14:06:22.998Z</time></trkpt><trkpt lat="52.44592669347685" lon="13.126254763239189"><ele>52.0</ele><time>2026-04-03T14:06:23.998Z</time></trkpt><trkpt lat="52.446006353533804" lon="13.126298705415946"><ele>51.99999999999999</ele><time>2026-04-03T14:06:24.998Z</time></trkpt><trkpt lat="52.446078983234656" lon="13.126334116615046"><ele>52.0</ele><time>2026-04-03T14:06:25.998Z</time></trkpt><trkpt lat="52.446154525287035" lon="13.126406649518808"><ele>52.0</ele><time>2026-04-03T14:06:27.998Z</time></trkpt><trkpt lat="52.44621730458794" lon="13.126444180570255"><ele>52.0</ele><time>2026-04-03T14:06:29.998Z</time></trkpt><trkpt lat="52.446277101022325" lon="13.126493099409062"><ele>51.99999999999999</ele><time>2026-04-03T14:06:31.998Z</time></trkpt><trkpt lat="52.446375926402425" lon="13.126560918075723"><ele>52.0</ele><time>2026-04-03T14:06:33.998Z</time></trkpt><trkpt lat="52.446435861789794" lon="13.126602820266811"><ele>51.714285714285715</ele><time>2026-04-03T14:06:34.998Z</time></trkpt><trkpt lat="52.44649880141419" lon="13.126649317374296"><ele>51.42857142857143</ele><time>2026-04-03T14:06:35.998Z</time></trkpt><trkpt lat="52.446560368597716" lon="13.126705091817815"><ele>51.142857142857146</ele><time>2026-04-03T14:06:36.998Z</time></trkpt><trkpt lat="52.44662415464594" lon="13.126775505560932"><ele>50.85714285714286</ele><time>2026-04-03T14:06:37.998Z</time></trkpt><trkpt lat="52.44668782104556" lon="13.126848339000068"><ele>50.57142857142857</ele><time>2026-04-03T14:06:38.998Z</time></trkpt><trkpt lat="52.44675081659149" lon="13.126904398335817"><ele>50.28571428571429</ele><time>2026-04-03T14:06:39.998Z</time></trkpt><trkpt lat="52.44681808948686" lon="13.12696757686374"><ele>50.0</ele><time>2026-04-03T14:06:40.998Z</time></trkpt><trkpt lat="52.446881886107946" lon="13.127032850251728"><ele>50.0</ele><time>2026-04-03T14:06:42Z</time></trkpt><trkpt lat="52.4469393477463" lon="13.127086140968927"><ele>50.0</ele><time>2026-04-03T14:06:43Z</time></trkpt><trkpt lat="52.44704782561745" lon="13.127182723469195"><ele>50.0</ele><time>2026-04-03T14:06:45Z</time></trkpt><trkpt lat="52.447152630620565" lon="13.12729989966488"><ele>50.0</ele><time>2026-04-03T14:06:47Z</time></trkpt><trkpt lat="52.44721350181216" lon="13.127365922175104"><ele>50.0</ele><time>2026-04-03T14:06:48Z</time></trkpt><trkpt lat="52.447276734697276" lon="13.127435119895157"><ele>49.833333333333336</ele><time>2026-04-03T14:06:49Z</time></trkpt><trkpt lat="52.447339577127885" lon="13.127518271431754"><ele>49.66666666666667</ele><time>2026-04-03T14:06:50Z</time></trkpt><trkpt lat="52.44741014694079" lon="13.127607147120594"><ele>49.5</ele><time>2026-04-03T14:06:51Z</time></trkpt><trkpt lat="52.447477168652036" lon="13.127696544967225"><ele>49.33333333333333</ele><time>2026-04-03T14:06:52Z</time></trkpt><trkpt lat="52.44754787575345" lon="13.127784074103095"><ele>49.166666666666664</ele><time>2026-04-03T14:06:53Z</time></trkpt><trkpt lat="52.44761036364693" lon="13.127865896725929"><ele>49.0</ele><time>2026-04-03T14:06:54Z</time></trkpt><trkpt lat="52.44767180202767" lon="13.127947778935107"><ele>48.99999999999999</ele><time>2026-04-03T14:06:55Z</time></trkpt><trkpt lat="52.447728984809736" lon="13.128024672354652"><ele>49.0</ele><time>2026-04-03T14:06:56Z</time></trkpt><trkpt lat="52.44779133659201" lon="13.128103074898348"><ele>49.0</ele><time>2026-04-03T14:06:57Z</time></trkpt><trkpt lat="52.447850793432366" lon="13.128188565497398"><ele>49.0</ele><time>2026-04-03T14:06:58Z</time></trkpt><trkpt lat="52.44791540084612" lon="13.128259694895053"><ele>48.99999999999999</ele><time>2026-04-03T14:06:59Z</time></trkpt><trkpt lat="52.44797859049374" lon="13.12833821320507"><ele>49.0</ele><time>2026-04-03T14:07:00Z</time></trkpt><trkpt lat="52.44804500379549" lon="13.128427972124921"><ele>48.99999999999999</ele><time>2026-04-03T14:07:01Z</time></trkpt><trkpt lat="52.44811141657685" lon="13.128504526428303"><ele>49.0</ele><time>2026-04-03T14:07:02Z</time></trkpt><trkpt lat="52.44817243715319" lon="13.128587438647854"><ele>49.0</ele><time>2026-04-03T14:07:03Z</time></trkpt><trkpt lat="52.44825304630102" lon="13.12868116278158"><ele>49.0</ele><time>2026-04-03T14:07:04Z</time></trkpt><trkpt lat="52.44830271448482" lon="13.12877578135559"><ele>48.99999999999999</ele><time>2026-04-03T14:07:05Z</time></trkpt><trkpt lat="52.4483658409605" lon="13.12883667295799"><ele>49.0</ele><time>2026-04-03T14:07:06Z</time></trkpt><trkpt lat="52.44842159718755" lon="13.128926087592173"><ele>49.0</ele><time>2026-04-03T14:07:07Z</time></trkpt><trkpt lat="52.448486127944264" lon="13.129008855350346"><ele>49.0</ele><time>2026-04-03T14:07:08Z</time></trkpt><trkpt lat="52.44856006510689" lon="13.129090452975907"><ele>49.0</ele><time>2026-04-03T14:07:09Z</time></trkpt><trkpt lat="52.448635667245746" lon="13.129176362357944"><ele>49.0</ele><time>2026-04-03T14:07:10Z</time></trkpt><trkpt lat="52.448706216490535" lon="13.129272284649964"><ele>49.0</ele><time>2026-04-03T14:07:11Z</time></trkpt><trkpt lat="52.448780319006026" lon="13.129374562719578"><ele>49.166666666666664</ele><time>2026-04-03T14:07:12Z</time></trkpt><trkpt lat="52.4488396105908" lon="13.129459170164417"><ele>49.33333333333333</ele><time>2026-04-03T14:07:13Z</time></trkpt><trkpt lat="52.448906721256634" lon="13.129551507455167"><ele>49.5</ele><time>2026-04-03T14:07:14Z</time></trkpt><trkpt lat="52.44897218623688" lon="13.129630134754752"><ele>49.66666666666667</ele><time>2026-04-03T14:07:15Z</time></trkpt><trkpt lat="52.449027162932104" lon="13.12970394847751"><ele>49.833333333333336</ele><time>2026-04-03T14:07:16Z</time></trkpt><trkpt lat="52.44908056648016" lon="13.129764565615858"><ele>50.0</ele><time>2026-04-03T14:07:17Z</time></trkpt><trkpt lat="52.449162981403354" lon="13.129865642952158"><ele>50.0</ele><time>2026-04-03T14:07:19Z</time></trkpt><trkpt lat="52.44922989213559" lon="13.129952204145814"><ele>50.0</ele><time>2026-04-03T14:07:21Z</time></trkpt><trkpt lat="52.449359744814394" lon="13.12978698834688"><ele>50.0</ele><time>2026-04-03T14:07:23Z</time></trkpt><trkpt lat="52.449387426575775" lon="13.129659261584589"><ele>50.0</ele><time>2026-04-03T14:07:24Z</time></trkpt><trkpt lat="52.449427712754556" lon="13.129528832153618"><ele>50.0</ele><time>2026-04-03T14:07:25Z</time></trkpt><trkpt lat="52.449464416428796" lon="13.129397082008778"><ele>50.00000000000001</ele><time>2026-04-03T14:07:25.999Z</time></trkpt><trkpt lat="52.44948762284233" lon="13.129253952478502"><ele>50.0</ele><time>2026-04-03T14:07:26.999Z</time></trkpt><trkpt lat="52.44952611530844" lon="13.129130411842306"><ele>50.0</ele><time>2026-04-03T14:07:27.999Z</time></trkpt><trkpt lat="52.44956162317822" lon="13.129000819526933"><ele>50.0</ele><time>2026-04-03T14:07:28.999Z</time></trkpt><trkpt lat="52.449596669878495" lon="13.128865526354792"><ele>50.00000000000001</ele><time>2026-04-03T14:07:29.999Z</time></trkpt><trkpt lat="52.44963539517474" lon="13.128729912868826"><ele>50.0</ele><time>2026-04-03T14:07:30.999Z</time></trkpt><trkpt lat="52.449671756814226" lon="13.128611223947905"><ele>50.00000000000001</ele><time>2026-04-03T14:07:31.999Z</time></trkpt><trkpt lat="52.449701379008694" lon="13.128495585307247"><ele>50.0</ele><time>2026-04-03T14:07:32.999Z</time></trkpt><trkpt lat="52.44974270071549" lon="13.128370201874032"><ele>50.0</ele><time>2026-04-03T14:07:33.999Z</time></trkpt><trkpt lat="52.449775645781166" lon="13.128248440491886"><ele>50.0</ele><time>2026-04-03T14:07:34.999Z</time></trkpt><trkpt lat="52.44980573187824" lon="13.128125100062592"><ele>50.00000000000001</ele><time>2026-04-03T14:07:35.999Z</time></trkpt><trkpt lat="52.449839286345096" lon="13.128003604461272"><ele>50.0</ele><time>2026-04-03T14:07:36.999Z</time></trkpt><trkpt lat="52.44987264191469" lon="13.127881178899997"><ele>50.16666666666667</ele><time>2026-04-03T14:07:37.999Z</time></trkpt><trkpt lat="52.449915723765365" lon="13.127765417912638"><ele>50.333333333333336</ele><time>2026-04-03T14:07:38.999Z</time></trkpt><trkpt lat="52.449955224853056" lon="13.127637422807396"><ele>50.5</ele><time>2026-04-03T14:07:39.999Z</time></trkpt><trkpt lat="52.449984263838445" lon="13.1275225403759"><ele>50.66666666666667</ele><time>2026-04-03T14:07:40.999Z</time></trkpt><trkpt lat="52.45001575746548" lon="13.12739503055655"><ele>50.833333333333336</ele><time>2026-04-03T14:07:41.999Z</time></trkpt><trkpt lat="52.45006141319643" lon="13.12728182127926"><ele>51.0</ele><time>2026-04-03T14:07:42.999Z</time></trkpt><trkpt lat="52.45009294846585" lon="13.127165547261855"><ele>51.0</ele><time>2026-04-03T14:07:43.999Z</time></trkpt><trkpt lat="52.45012381993901" lon="13.127050652594642"><ele>51.0</ele><time>2026-04-03T14:07:44.999Z</time></trkpt><trkpt lat="52.45015405280172" lon="13.126938134650436"><ele>51.0</ele><time>2026-04-03T14:07:45.999Z</time></trkpt><trkpt lat="52.450186735675395" lon="13.126816498477966"><ele>51.0</ele><time>2026-04-03T14:07:46.999Z</time></trkpt><trkpt lat="52.450206590621825" lon="13.126684023755963"><ele>51.0</ele><time>2026-04-03T14:07:47.999Z</time></trkpt><trkpt lat="52.450241894132944" lon="13.126561239373624"><ele>51.0</ele><time>2026-04-03T14:07:48.999Z</time></trkpt><trkpt lat="52.450274520856595" lon="13.126448355968444"><ele>51.0</ele><time>2026-04-03T14:07:49.999Z</time></trkpt><trkpt lat="52.45030335150498" lon="13.126344983766211"><ele>51.0</ele><time>2026-04-03T14:07:50.999Z</time></trkpt><trkpt lat="52.4503346526421" lon="13.126238726695938"><ele>51.0</ele><time>2026-04-03T14:07:51.999Z</time></trkpt><trkpt lat="52.45036760951734" lon="13.126122283479484"><ele>51.0</ele><time>2026-04-03T14:07:52.999Z</time></trkpt><trkpt lat="52.45040139874532" lon="13.126000442622706"><ele>51.0</ele><time>2026-04-03T14:07:53.999Z</time></trkpt><trkpt lat="52.45043777540614" lon="13.125876443806538"><ele>51.0</ele><time>2026-04-03T14:07:54.999Z</time></trkpt><trkpt lat="52.450473616716344" lon="13.125751121335398"><ele>50.833333333333336</ele><time>2026-04-03T14:07:55.999Z</time></trkpt><trkpt lat="52.45050253760744" lon="13.12563579914643"><ele>50.66666666666667</ele><time>2026-04-03T14:07:56.999Z</time></trkpt><trkpt lat="52.45053294592719" lon="13.125525416888639"><ele>50.5</ele><time>2026-04-03T14:07:57.999Z</time></trkpt><trkpt lat="52.45056858322165" lon="13.125410488774477"><ele>50.333333333333336</ele><time>2026-04-03T14:07:58.999Z</time></trkpt><trkpt lat="52.45060115696977" lon="13.125288494444414"><ele>50.16666666666667</ele><time>2026-04-03T14:07:59.999Z</time></trkpt><trkpt lat="52.45062830438157" lon="13.125162367021762"><ele>50.0</ele><time>2026-04-03T14:08:00.999Z</time></trkpt><trkpt lat="52.450663546804385" lon="13.125041976178055"><ele>50.00000000000001</ele><time>2026-04-03T14:08:01.999Z</time></trkpt><trkpt lat="52.45069673759151" lon="13.12491782736468"><ele>50.0</ele><time>2026-04-03T14:08:02.999Z</time></trkpt><trkpt lat="52.45073420348081" lon="13.124802160378882"><ele>50.0</ele><time>2026-04-03T14:08:03.999Z</time></trkpt><trkpt lat="52.4507625610504" lon="13.124691576718547"><ele>50.0</ele><time>2026-04-03T14:08:04.999Z</time></trkpt><trkpt lat="52.450790266531705" lon="13.124576888194047"><ele>50.00000000000001</ele><time>2026-04-03T14:08:05.999Z</time></trkpt><trkpt lat="52.45082418257252" lon="13.124464177122936"><ele>50.0</ele><time>2026-04-03T14:08:06.999Z</time></trkpt><trkpt lat="52.450858924452405" lon="13.124343939152196"><ele>50.00000000000001</ele><time>2026-04-03T14:08:07.999Z</time></trkpt><trkpt lat="52.45088731785316" lon="13.124222403142646"><ele>50.0</ele><time>2026-04-03T14:08:08.999Z</time></trkpt><trkpt lat="52.450926609777476" lon="13.124109455893546"><ele>50.0</ele><time>2026-04-03T14:08:09.999Z</time></trkpt><trkpt lat="52.45095859230536" lon="13.12397085353784"><ele>50.0</ele><time>2026-04-03T14:08:10.999Z</time></trkpt><trkpt lat="52.45098600624301" lon="13.123834918209932"><ele>50.00000000000001</ele><time>2026-04-03T14:08:11.999Z</time></trkpt><trkpt lat="52.45102083109054" lon="13.123707857248348"><ele>50.0</ele><time>2026-04-03T14:08:12.999Z</time></trkpt><trkpt lat="52.45105259035503" lon="13.123581590484008"><ele>50.00000000000001</ele><time>2026-04-03T14:08:13.999Z</time></trkpt><trkpt lat="52.451086225244666" lon="13.123458670164043"><ele>50.0</ele><time>2026-04-03T14:08:14.999Z</time></trkpt><trkpt lat="52.4511188138075" lon="13.12333620412271"><ele>50.0</ele><time>2026-04-03T14:08:15.999Z</time></trkpt><trkpt lat="52.451153713642256" lon="13.123213554926386"><ele>50.0</ele><time>2026-04-03T14:08:16.999Z</time></trkpt><trkpt lat="52.451187706724276" lon="13.123104082529428"><ele>50.00000000000001</ele><time>2026-04-03T14:08:17.999Z</time></trkpt><trkpt lat="52.45121617629675" lon="13.122993178073736"><ele>50.0</ele><time>2026-04-03T14:08:18.999Z</time></trkpt><trkpt lat="52.451243248928" lon="13.122884101170769"><ele>50.0</ele><time>2026-04-03T14:08:19.999Z</time></trkpt><trkpt lat="52.45126619251566" lon="13.122786764789279"><ele>50.0</ele><time>2026-04-03T14:08:20.999Z</time></trkpt><trkpt lat="52.45131660707325" lon="13.12261719652254"><ele>50.0</ele><time>2026-04-03T14:08:22.999Z</time></trkpt><trkpt lat="52.451371571618516" lon="13.122440014705726"><ele>50.0</ele><time>2026-04-03T14:08:24.999Z</time></trkpt><trkpt lat="52.45140846580451" lon="13.12233329464782"><ele>50.0</ele><time>2026-04-03T14:08:25.999Z</time></trkpt><trkpt lat="52.45144265953923" lon="13.122204384276438"><ele>50.00000000000001</ele><time>2026-04-03T14:08:26.998Z</time></trkpt><trkpt lat="52.45147033343915" lon="13.122104455532678"><ele>50.0</ele><time>2026-04-03T14:08:27.998Z</time></trkpt><trkpt lat="52.4514952147399" lon="13.122003717901206"><ele>50.0</ele><time>2026-04-03T14:08:28.998Z</time></trkpt><trkpt lat="52.45151228425051" lon="13.121894099561535"><ele>50.0</ele><time>2026-04-03T14:08:32.998Z</time></trkpt><trkpt lat="52.451399515833714" lon="13.121817768884945"><ele>50.00000000000001</ele><time>2026-04-03T14:08:33.998Z</time></trkpt><trkpt lat="52.45131915820908" lon="13.121815449600238"><ele>50.0</ele><time>2026-04-03T14:08:34.998Z</time></trkpt><trkpt lat="52.45124614227238" lon="13.121799729295667"><ele>50.0</ele><time>2026-04-03T14:08:35.998Z</time></trkpt><trkpt lat="52.451160357502395" lon="13.121788345045628"><ele>50.0</ele><time>2026-04-03T14:08:36.998Z</time></trkpt><trkpt lat="52.45106743655932" lon="13.121775376872405"><ele>50.0</ele><time>2026-04-03T14:08:37.998Z</time></trkpt><trkpt lat="52.45096608791644" lon="13.121761232519269"><ele>50.0</ele><time>2026-04-03T14:08:38.998Z</time></trkpt><trkpt lat="52.45087158452021" lon="13.121748043502794"><ele>50.0</ele><time>2026-04-03T14:08:39.998Z</time></trkpt><trkpt lat="52.45077625482131" lon="13.121758405737635"><ele>50.0</ele><time>2026-04-03T14:08:40.998Z</time></trkpt><trkpt lat="52.450700067258836" lon="13.12172989772167"><ele>50.0</ele><time>2026-04-03T14:08:41.998Z</time></trkpt><trkpt lat="52.45063804480595" lon="13.121699575675601"><ele>50.0</ele><time>2026-04-03T14:08:42.998Z</time></trkpt><trkpt lat="52.45053001561772" lon="13.12164024245943"><ele>50.0</ele><time>2026-04-03T14:08:44.998Z</time></trkpt><trkpt lat="52.45048602522421" lon="13.121382648660884"><ele>50.0</ele><time>2026-04-03T14:08:46.998Z</time></trkpt><trkpt lat="52.45047311355279" lon="13.121220565994193"><ele>50.0</ele><time>2026-04-03T14:08:48Z</time></trkpt><trkpt lat="52.45046203457321" lon="13.12106701936041"><ele>50.0</ele><time>2026-04-03T14:08:49Z</time></trkpt><trkpt lat="52.450453380691535" lon="13.120904221462796"><ele>50.0</ele><time>2026-04-03T14:08:50Z</time></trkpt><trkpt lat="52.45043298805105" lon="13.120748060355423"><ele>50.0</ele><time>2026-04-03T14:08:51Z</time></trkpt><trkpt lat="52.450435271793104" lon="13.120603700119982"><ele>50.0</ele><time>2026-04-03T14:08:52Z</time></trkpt><trkpt lat="52.450451762171305" lon="13.120449685436682"><ele>50.4</ele><time>2026-04-03T14:08:53Z</time></trkpt><trkpt lat="52.45044933339591" lon="13.120299114267288"><ele>50.8</ele><time>2026-04-03T14:08:54Z</time></trkpt><trkpt lat="52.45044730503483" lon="13.120145873709033"><ele>51.2</ele><time>2026-04-03T14:08:55Z</time></trkpt><trkpt lat="52.450449501807725" lon="13.119993833129707"><ele>51.6</ele><time>2026-04-03T14:08:56Z</time></trkpt><trkpt lat="52.450449099229346" lon="13.119841947941435"><ele>52.0</ele><time>2026-04-03T14:08:57Z</time></trkpt><trkpt lat="52.4504535819076" lon="13.119679579556419"><ele>51.99999999999999</ele><time>2026-04-03T14:08:58Z</time></trkpt><trkpt lat="52.45045882536344" lon="13.119523029686295"><ele>52.0</ele><time>2026-04-03T14:08:59Z</time></trkpt><trkpt lat="52.450460561652875" lon="13.119385072626413"><ele>52.0</ele><time>2026-04-03T14:09:00Z</time></trkpt><trkpt lat="52.45046845177907" lon="13.119231705518658"><ele>52.0</ele><time>2026-04-03T14:09:01Z</time></trkpt><trkpt lat="52.450475544399566" lon="13.11907612262802"><ele>51.99999999999999</ele><time>2026-04-03T14:09:02Z</time></trkpt><trkpt lat="52.45047992894574" lon="13.118954891149977"><ele>52.0</ele><time>2026-04-03T14:09:03Z</time></trkpt><trkpt lat="52.450491617480026" lon="13.118844432005782"><ele>52.0</ele><time>2026-04-03T14:09:04Z</time></trkpt><trkpt lat="52.45051199294727" lon="13.118675725228426"><ele>52.0</ele><time>2026-04-03T14:09:06Z</time></trkpt><trkpt lat="52.45042172189207" lon="13.118546749982812"><ele>52.0</ele><time>2026-04-03T14:09:09Z</time></trkpt><trkpt lat="52.450360212974545" lon="13.118501418382262"><ele>52.0</ele><time>2026-04-03T14:09:12Z</time></trkpt><trkpt lat="52.45028656640033" lon="13.11862667939282"><ele>52.0</ele><time>2026-04-03T14:09:13Z</time></trkpt><trkpt lat="52.45024052316842" lon="13.11872109507949"><ele>51.99999999999999</ele><time>2026-04-03T14:09:16Z</time></trkpt><trkpt lat="52.45019405854492" lon="13.118834629195861"><ele>52.0</ele><time>2026-04-03T14:09:20Z</time></trkpt><trkpt lat="52.45015034568878" lon="13.118954076632017"><ele>52.0</ele><time>2026-04-03T14:09:23Z</time></trkpt><trkpt lat="52.450105353595355" lon="13.119083478816115"><ele>52.0</ele><time>2026-04-03T14:09:26Z</time></trkpt><trkpt lat="52.450070849158884" lon="13.119208962088193"><ele>51.99999999999999</ele><time>2026-04-03T14:09:28.999Z</time></trkpt><trkpt lat="52.44999926242683" lon="13.119248441476449"><ele>52.0</ele><time>2026-04-03T14:09:31.999Z</time></trkpt><trkpt lat="52.44992631526182" lon="13.119281116690017"><ele>52.0</ele><time>2026-04-03T14:09:34.999Z</time></trkpt><trkpt lat="52.44987621475288" lon="13.119216922347777"><ele>52.0</ele><time>2026-04-03T14:09:37.999Z</time></trkpt><trkpt lat="52.44981438688124" lon="13.11916596898134"><ele>52.0</ele><time>2026-04-03T14:09:40.999Z</time></trkpt><trkpt lat="52.44976595598756" lon="13.119073609140335"><ele>52.0</ele><time>2026-04-03T14:09:43.999Z</time></trkpt></trkseg></trk></gpx>